<?xml version="1.0" encoding="UTF-8"?>
<gpx version="1.1" creator="https://www.youtrack.es" xsi:schemaLocation="http://www.topografix.com/GPX/1/1 http://www.topografix.com/GPX/1/1/gpx.xsd http://www.garmin.com/xmlschemas/GpxExtensions/v3 http://www.garmin.com/xmlschemas/GpxExtensionsv3.xsd http://www.garmin.com/xmlschemas/TrackPointExtension/v1 http://www.garmin.com/xmlschemas/TrackPointExtensionv1.xsd" xmlns:gpxtpx="http://www.garmin.com/xmlschemas/TrackPointExtension/v1" xmlns:gpxx="http://www.garmin.com/xmlschemas/GpxExtensions/v3" xmlns:xsi="http://www.w3.org/2001/XMLSchema-instance">
  <metadata>
    <author>
      <name>jose manuel martinez tenorio</name>
      <email id="josele138" domain="hotmail.com"/>
    </author>
    <link href="https://www.youtrack.es">
      <text>YouTrack.es</text>
    </link>
    <time>2026-05-09T04:27:10Z</time>
  </metadata>
  <trk>
    <src>https://www.youtrack.es</src>
    <link href="https://www.youtrack.es/ruta/21091-domingo-flaquero-en-grupetta">
      <text>YouTrack.es</text>
    </link>
    <trkseg>
      <trkpt lat="41.364" lon="2.05857">
        <time>2021-04-11 07:26:22</time>
      </trkpt>
      <trkpt lat="41.364" lon="2.05856">
        <time>2021-04-11 07:26:23</time>
      </trkpt>
      <trkpt lat="41.364" lon="2.05855">
        <time>2021-04-11 07:26:24</time>
      </trkpt>
      <trkpt lat="41.36399" lon="2.05855">
        <time>2021-04-11 07:26:25</time>
      </trkpt>
      <trkpt lat="41.36397" lon="2.05856">
        <time>2021-04-11 07:26:26</time>
      </trkpt>
      <trkpt lat="41.36396" lon="2.05856">
        <time>2021-04-11 07:26:27</time>
      </trkpt>
      <trkpt lat="41.36395" lon="2.05854">
        <time>2021-04-11 07:26:28</time>
      </trkpt>
      <trkpt lat="41.36394" lon="2.05853">
        <time>2021-04-11 07:26:29</time>
      </trkpt>
      <trkpt lat="41.36394" lon="2.0585">
        <time>2021-04-11 07:26:30</time>
      </trkpt>
      <trkpt lat="41.36395" lon="2.05846">
        <time>2021-04-11 07:26:31</time>
      </trkpt>
      <trkpt lat="41.36397" lon="2.05843">
        <time>2021-04-11 07:26:32</time>
      </trkpt>
      <trkpt lat="41.36399" lon="2.0584">
        <time>2021-04-11 07:26:33</time>
      </trkpt>
      <trkpt lat="41.36402" lon="2.05837">
        <time>2021-04-11 07:26:34</time>
      </trkpt>
      <trkpt lat="41.36404" lon="2.05833">
        <time>2021-04-11 07:26:35</time>
      </trkpt>
      <trkpt lat="41.36402" lon="2.05833">
        <time>2021-04-11 07:26:36</time>
      </trkpt>
      <trkpt lat="41.36399" lon="2.05831">
        <time>2021-04-11 07:26:37</time>
      </trkpt>
      <trkpt lat="41.36396" lon="2.05828">
        <time>2021-04-11 07:26:38</time>
      </trkpt>
      <trkpt lat="41.36391" lon="2.05824">
        <time>2021-04-11 07:26:39</time>
      </trkpt>
      <trkpt lat="41.36386" lon="2.05822">
        <time>2021-04-11 07:26:40</time>
      </trkpt>
      <trkpt lat="41.36379" lon="2.05819">
        <time>2021-04-11 07:26:41</time>
      </trkpt>
      <trkpt lat="41.36373" lon="2.05817">
        <time>2021-04-11 07:26:42</time>
      </trkpt>
      <trkpt lat="41.36369" lon="2.05817">
        <time>2021-04-11 07:26:43</time>
      </trkpt>
      <trkpt lat="41.36364" lon="2.05817">
        <time>2021-04-11 07:26:44</time>
      </trkpt>
      <trkpt lat="41.36359" lon="2.05815">
        <time>2021-04-11 07:26:45</time>
      </trkpt>
      <trkpt lat="41.36354" lon="2.05814">
        <time>2021-04-11 07:26:46</time>
      </trkpt>
      <trkpt lat="41.36348" lon="2.05812">
        <time>2021-04-11 07:26:47</time>
      </trkpt>
      <trkpt lat="41.36342" lon="2.0581">
        <time>2021-04-11 07:26:48</time>
      </trkpt>
      <trkpt lat="41.36337" lon="2.05807">
        <time>2021-04-11 07:26:49</time>
      </trkpt>
      <trkpt lat="41.36331" lon="2.05805">
        <time>2021-04-11 07:26:50</time>
      </trkpt>
      <trkpt lat="41.36326" lon="2.05803">
        <time>2021-04-11 07:26:51</time>
      </trkpt>
      <trkpt lat="41.3632" lon="2.05802">
        <time>2021-04-11 07:26:52</time>
      </trkpt>
      <trkpt lat="41.36315" lon="2.05802">
        <time>2021-04-11 07:26:53</time>
      </trkpt>
      <trkpt lat="41.36308" lon="2.05802">
        <time>2021-04-11 07:26:54</time>
      </trkpt>
      <trkpt lat="41.36302" lon="2.05801">
        <time>2021-04-11 07:26:55</time>
      </trkpt>
      <trkpt lat="41.36296" lon="2.058">
        <time>2021-04-11 07:26:56</time>
      </trkpt>
      <trkpt lat="41.3629" lon="2.05798">
        <time>2021-04-11 07:26:57</time>
      </trkpt>
      <trkpt lat="41.36283" lon="2.05796">
        <time>2021-04-11 07:26:58</time>
      </trkpt>
      <trkpt lat="41.36276" lon="2.05793">
        <time>2021-04-11 07:26:59</time>
      </trkpt>
      <trkpt lat="41.3627" lon="2.0579">
        <time>2021-04-11 07:27:00</time>
      </trkpt>
      <trkpt lat="41.36265" lon="2.05785">
        <time>2021-04-11 07:27:01</time>
      </trkpt>
      <trkpt lat="41.36258" lon="2.05781">
        <time>2021-04-11 07:27:02</time>
      </trkpt>
      <trkpt lat="41.36253" lon="2.05776">
        <time>2021-04-11 07:27:03</time>
      </trkpt>
      <trkpt lat="41.36248" lon="2.05769">
        <time>2021-04-11 07:27:04</time>
      </trkpt>
      <trkpt lat="41.36243" lon="2.05762">
        <time>2021-04-11 07:27:05</time>
      </trkpt>
      <trkpt lat="41.36238" lon="2.05755">
        <time>2021-04-11 07:27:06</time>
      </trkpt>
      <trkpt lat="41.36237" lon="2.05747">
        <time>2021-04-11 07:27:07</time>
      </trkpt>
      <trkpt lat="41.36236" lon="2.05738">
        <time>2021-04-11 07:27:08</time>
      </trkpt>
      <trkpt lat="41.36238" lon="2.05728">
        <time>2021-04-11 07:27:09</time>
      </trkpt>
      <trkpt lat="41.3624" lon="2.0572">
        <time>2021-04-11 07:27:10</time>
      </trkpt>
      <trkpt lat="41.36243" lon="2.05713">
        <time>2021-04-11 07:27:11</time>
      </trkpt>
      <trkpt lat="41.36246" lon="2.05707">
        <time>2021-04-11 07:27:12</time>
      </trkpt>
      <trkpt lat="41.36252" lon="2.057">
        <time>2021-04-11 07:27:13</time>
      </trkpt>
      <trkpt lat="41.36256" lon="2.05693">
        <time>2021-04-11 07:27:14</time>
      </trkpt>
      <trkpt lat="41.36261" lon="2.05687">
        <time>2021-04-11 07:27:15</time>
      </trkpt>
      <trkpt lat="41.36266" lon="2.05681">
        <ele>87.8</ele>
        <time>2021-04-11 07:27:16</time>
      </trkpt>
      <trkpt lat="41.3627" lon="2.05674">
        <ele>87.8</ele>
        <time>2021-04-11 07:27:17</time>
      </trkpt>
      <trkpt lat="41.36274" lon="2.05669">
        <ele>88</ele>
        <time>2021-04-11 07:27:18</time>
      </trkpt>
      <trkpt lat="41.36279" lon="2.05664">
        <ele>88</ele>
        <time>2021-04-11 07:27:19</time>
      </trkpt>
      <trkpt lat="41.36284" lon="2.05658">
        <ele>88</ele>
        <time>2021-04-11 07:27:20</time>
      </trkpt>
      <trkpt lat="41.36289" lon="2.05652">
        <ele>88</ele>
        <time>2021-04-11 07:27:21</time>
      </trkpt>
      <trkpt lat="41.36294" lon="2.05647">
        <ele>88</ele>
        <time>2021-04-11 07:27:22</time>
      </trkpt>
      <trkpt lat="41.36298" lon="2.05641">
        <ele>88</ele>
        <time>2021-04-11 07:27:23</time>
      </trkpt>
      <trkpt lat="41.36304" lon="2.05636">
        <ele>88</ele>
        <time>2021-04-11 07:27:24</time>
      </trkpt>
      <trkpt lat="41.36308" lon="2.0563">
        <ele>88</ele>
        <time>2021-04-11 07:27:25</time>
      </trkpt>
      <trkpt lat="41.36313" lon="2.05623">
        <ele>88</ele>
        <time>2021-04-11 07:27:26</time>
      </trkpt>
      <trkpt lat="41.36318" lon="2.05617">
        <ele>88.2</ele>
        <time>2021-04-11 07:27:27</time>
      </trkpt>
      <trkpt lat="41.36322" lon="2.05611">
        <ele>88.2</ele>
        <time>2021-04-11 07:27:28</time>
      </trkpt>
      <trkpt lat="41.36327" lon="2.05606">
        <ele>88.2</ele>
        <time>2021-04-11 07:27:29</time>
      </trkpt>
      <trkpt lat="41.36331" lon="2.05602">
        <ele>88.2</ele>
        <time>2021-04-11 07:27:30</time>
      </trkpt>
      <trkpt lat="41.36334" lon="2.05596">
        <ele>88.4</ele>
        <time>2021-04-11 07:27:31</time>
      </trkpt>
      <trkpt lat="41.36334" lon="2.0559">
        <ele>88.4</ele>
        <time>2021-04-11 07:27:32</time>
      </trkpt>
      <trkpt lat="41.36332" lon="2.05584">
        <ele>88.6</ele>
        <time>2021-04-11 07:27:33</time>
      </trkpt>
      <trkpt lat="41.36328" lon="2.05581">
        <ele>88.8</ele>
        <time>2021-04-11 07:27:34</time>
      </trkpt>
      <trkpt lat="41.36323" lon="2.0558">
        <ele>88.8</ele>
        <time>2021-04-11 07:27:35</time>
      </trkpt>
      <trkpt lat="41.36318" lon="2.05582">
        <ele>89</ele>
        <time>2021-04-11 07:27:36</time>
      </trkpt>
      <trkpt lat="41.36315" lon="2.05585">
        <ele>89</ele>
        <time>2021-04-11 07:27:37</time>
      </trkpt>
      <trkpt lat="41.36312" lon="2.05589">
        <ele>89</ele>
        <time>2021-04-11 07:27:38</time>
      </trkpt>
      <trkpt lat="41.36309" lon="2.05594">
        <ele>89</ele>
        <time>2021-04-11 07:27:39</time>
      </trkpt>
      <trkpt lat="41.36306" lon="2.05598">
        <ele>89.2</ele>
        <time>2021-04-11 07:27:40</time>
      </trkpt>
      <trkpt lat="41.36303" lon="2.05602">
        <ele>89.2</ele>
        <time>2021-04-11 07:27:41</time>
      </trkpt>
      <trkpt lat="41.363" lon="2.05606">
        <ele>89.2</ele>
        <time>2021-04-11 07:27:42</time>
      </trkpt>
      <trkpt lat="41.36297" lon="2.05609">
        <ele>89.2</ele>
        <time>2021-04-11 07:27:43</time>
      </trkpt>
      <trkpt lat="41.36294" lon="2.05612">
        <ele>89.2</ele>
        <time>2021-04-11 07:27:44</time>
      </trkpt>
      <trkpt lat="41.36292" lon="2.05615">
        <ele>89.4</ele>
        <time>2021-04-11 07:27:45</time>
      </trkpt>
      <trkpt lat="41.36289" lon="2.05618">
        <ele>89.4</ele>
        <time>2021-04-11 07:27:46</time>
      </trkpt>
      <trkpt lat="41.36286" lon="2.05621">
        <ele>89.2</ele>
        <time>2021-04-11 07:27:47</time>
      </trkpt>
      <trkpt lat="41.36283" lon="2.05624">
        <ele>89.2</ele>
        <time>2021-04-11 07:27:48</time>
      </trkpt>
      <trkpt lat="41.3628" lon="2.05628">
        <ele>89.2</ele>
        <time>2021-04-11 07:27:49</time>
      </trkpt>
      <trkpt lat="41.36277" lon="2.05632">
        <ele>89.2</ele>
        <time>2021-04-11 07:27:50</time>
      </trkpt>
      <trkpt lat="41.36274" lon="2.05636">
        <ele>89.2</ele>
        <time>2021-04-11 07:27:51</time>
      </trkpt>
      <trkpt lat="41.3627" lon="2.0564">
        <ele>89.2</ele>
        <time>2021-04-11 07:27:52</time>
      </trkpt>
      <trkpt lat="41.36266" lon="2.05645">
        <ele>89</ele>
        <time>2021-04-11 07:27:53</time>
      </trkpt>
      <trkpt lat="41.36263" lon="2.05649">
        <ele>89</ele>
        <time>2021-04-11 07:27:54</time>
      </trkpt>
      <trkpt lat="41.36259" lon="2.05654">
        <ele>89</ele>
        <time>2021-04-11 07:27:55</time>
      </trkpt>
      <trkpt lat="41.36255" lon="2.05659">
        <ele>89</ele>
        <time>2021-04-11 07:27:56</time>
      </trkpt>
      <trkpt lat="41.36251" lon="2.05663">
        <ele>88.8</ele>
        <time>2021-04-11 07:27:57</time>
      </trkpt>
      <trkpt lat="41.36247" lon="2.05668">
        <ele>88.8</ele>
        <time>2021-04-11 07:27:58</time>
      </trkpt>
      <trkpt lat="41.36242" lon="2.05673">
        <ele>88.8</ele>
        <time>2021-04-11 07:27:59</time>
      </trkpt>
      <trkpt lat="41.36238" lon="2.05678">
        <ele>88.8</ele>
        <time>2021-04-11 07:28:00</time>
      </trkpt>
      <trkpt lat="41.36234" lon="2.05682">
        <ele>88.8</ele>
        <time>2021-04-11 07:28:01</time>
      </trkpt>
      <trkpt lat="41.36229" lon="2.05687">
        <ele>88.8</ele>
        <time>2021-04-11 07:28:02</time>
      </trkpt>
      <trkpt lat="41.36225" lon="2.05691">
        <ele>88.8</ele>
        <time>2021-04-11 07:28:03</time>
      </trkpt>
      <trkpt lat="41.3622" lon="2.05696">
        <ele>88.6</ele>
        <time>2021-04-11 07:28:04</time>
      </trkpt>
      <trkpt lat="41.36215" lon="2.05699">
        <ele>88.6</ele>
        <time>2021-04-11 07:28:05</time>
      </trkpt>
      <trkpt lat="41.3621" lon="2.05701">
        <ele>88.6</ele>
        <time>2021-04-11 07:28:06</time>
      </trkpt>
      <trkpt lat="41.36204" lon="2.05701">
        <ele>88.6</ele>
        <time>2021-04-11 07:28:07</time>
      </trkpt>
      <trkpt lat="41.36199" lon="2.057">
        <ele>88.6</ele>
        <time>2021-04-11 07:28:08</time>
      </trkpt>
      <trkpt lat="41.36195" lon="2.05696">
        <ele>88.6</ele>
        <time>2021-04-11 07:28:09</time>
      </trkpt>
      <trkpt lat="41.36192" lon="2.0569">
        <ele>88.6</ele>
        <time>2021-04-11 07:28:10</time>
      </trkpt>
      <trkpt lat="41.36189" lon="2.05685">
        <ele>88.6</ele>
        <time>2021-04-11 07:28:11</time>
      </trkpt>
      <trkpt lat="41.36186" lon="2.0568">
        <ele>88.8</ele>
        <time>2021-04-11 07:28:12</time>
      </trkpt>
      <trkpt lat="41.36183" lon="2.05674">
        <ele>88.8</ele>
        <time>2021-04-11 07:28:13</time>
      </trkpt>
      <trkpt lat="41.36179" lon="2.05669">
        <ele>89</ele>
        <time>2021-04-11 07:28:14</time>
      </trkpt>
      <trkpt lat="41.36176" lon="2.05663">
        <ele>89</ele>
        <time>2021-04-11 07:28:15</time>
      </trkpt>
      <trkpt lat="41.36172" lon="2.05658">
        <ele>89</ele>
        <time>2021-04-11 07:28:16</time>
      </trkpt>
      <trkpt lat="41.36168" lon="2.05652">
        <ele>89.2</ele>
        <time>2021-04-11 07:28:17</time>
      </trkpt>
      <trkpt lat="41.36165" lon="2.05646">
        <ele>89.2</ele>
        <time>2021-04-11 07:28:18</time>
      </trkpt>
      <trkpt lat="41.36161" lon="2.0564">
        <ele>89.4</ele>
        <time>2021-04-11 07:28:19</time>
      </trkpt>
      <trkpt lat="41.36157" lon="2.05634">
        <ele>89.4</ele>
        <time>2021-04-11 07:28:20</time>
      </trkpt>
      <trkpt lat="41.36154" lon="2.05628">
        <ele>89.4</ele>
        <time>2021-04-11 07:28:21</time>
      </trkpt>
      <trkpt lat="41.36151" lon="2.05621">
        <ele>89.6</ele>
        <time>2021-04-11 07:28:22</time>
      </trkpt>
      <trkpt lat="41.36149" lon="2.05614">
        <ele>89.6</ele>
        <time>2021-04-11 07:28:23</time>
      </trkpt>
      <trkpt lat="41.36148" lon="2.05607">
        <ele>89.6</ele>
        <time>2021-04-11 07:28:24</time>
      </trkpt>
      <trkpt lat="41.36147" lon="2.056">
        <ele>89.6</ele>
        <time>2021-04-11 07:28:25</time>
      </trkpt>
      <trkpt lat="41.36147" lon="2.05593">
        <ele>89.8</ele>
        <time>2021-04-11 07:28:26</time>
      </trkpt>
      <trkpt lat="41.36146" lon="2.05586">
        <ele>89.8</ele>
        <time>2021-04-11 07:28:27</time>
      </trkpt>
      <trkpt lat="41.36145" lon="2.05578">
        <ele>89.8</ele>
        <time>2021-04-11 07:28:28</time>
      </trkpt>
      <trkpt lat="41.36143" lon="2.05572">
        <ele>89.8</ele>
        <time>2021-04-11 07:28:29</time>
      </trkpt>
      <trkpt lat="41.3614" lon="2.05564">
        <ele>90</ele>
        <time>2021-04-11 07:28:30</time>
      </trkpt>
      <trkpt lat="41.36136" lon="2.05558">
        <ele>90</ele>
        <time>2021-04-11 07:28:31</time>
      </trkpt>
      <trkpt lat="41.36131" lon="2.05553">
        <ele>90</ele>
        <time>2021-04-11 07:28:32</time>
      </trkpt>
      <trkpt lat="41.36126" lon="2.05549">
        <ele>90.2</ele>
        <time>2021-04-11 07:28:33</time>
      </trkpt>
      <trkpt lat="41.3612" lon="2.05547">
        <ele>90.2</ele>
        <time>2021-04-11 07:28:34</time>
      </trkpt>
      <trkpt lat="41.36114" lon="2.05546">
        <ele>90.2</ele>
        <time>2021-04-11 07:28:35</time>
      </trkpt>
      <trkpt lat="41.36108" lon="2.05546">
        <ele>90.2</ele>
        <time>2021-04-11 07:28:36</time>
      </trkpt>
      <trkpt lat="41.36102" lon="2.05548">
        <ele>90.2</ele>
        <time>2021-04-11 07:28:37</time>
      </trkpt>
      <trkpt lat="41.36096" lon="2.05551">
        <ele>90.2</ele>
        <time>2021-04-11 07:28:38</time>
      </trkpt>
      <trkpt lat="41.36091" lon="2.05555">
        <ele>90.2</ele>
        <time>2021-04-11 07:28:39</time>
      </trkpt>
      <trkpt lat="41.36087" lon="2.0556">
        <ele>90.2</ele>
        <time>2021-04-11 07:28:40</time>
      </trkpt>
      <trkpt lat="41.36084" lon="2.05567">
        <ele>90.2</ele>
        <time>2021-04-11 07:28:41</time>
      </trkpt>
      <trkpt lat="41.36081" lon="2.05575">
        <ele>90</ele>
        <time>2021-04-11 07:28:42</time>
      </trkpt>
      <trkpt lat="41.3608" lon="2.05584">
        <ele>90</ele>
        <time>2021-04-11 07:28:43</time>
      </trkpt>
      <trkpt lat="41.36079" lon="2.05592">
        <ele>89.8</ele>
        <time>2021-04-11 07:28:44</time>
      </trkpt>
      <trkpt lat="41.3608" lon="2.05601">
        <ele>89.8</ele>
        <time>2021-04-11 07:28:45</time>
      </trkpt>
      <trkpt lat="41.3608" lon="2.0561">
        <ele>89.8</ele>
        <time>2021-04-11 07:28:46</time>
      </trkpt>
      <trkpt lat="41.3608" lon="2.05619">
        <ele>89.8</ele>
        <time>2021-04-11 07:28:47</time>
      </trkpt>
      <trkpt lat="41.36078" lon="2.05627">
        <ele>89.8</ele>
        <time>2021-04-11 07:28:48</time>
      </trkpt>
      <trkpt lat="41.36076" lon="2.05636">
        <ele>89.8</ele>
        <time>2021-04-11 07:28:49</time>
      </trkpt>
      <trkpt lat="41.36072" lon="2.05643">
        <ele>89.6</ele>
        <time>2021-04-11 07:28:50</time>
      </trkpt>
      <trkpt lat="41.36069" lon="2.05649">
        <ele>89.6</ele>
        <time>2021-04-11 07:28:51</time>
      </trkpt>
      <trkpt lat="41.36065" lon="2.05654">
        <ele>89.6</ele>
        <time>2021-04-11 07:28:52</time>
      </trkpt>
      <trkpt lat="41.36062" lon="2.05659">
        <ele>89.8</ele>
        <time>2021-04-11 07:28:53</time>
      </trkpt>
      <trkpt lat="41.36059" lon="2.05663">
        <ele>89.8</ele>
        <time>2021-04-11 07:28:54</time>
      </trkpt>
      <trkpt lat="41.36056" lon="2.05667">
        <ele>89.8</ele>
        <time>2021-04-11 07:28:55</time>
      </trkpt>
      <trkpt lat="41.36052" lon="2.05671">
        <ele>89.8</ele>
        <time>2021-04-11 07:28:56</time>
      </trkpt>
      <trkpt lat="41.36049" lon="2.05675">
        <ele>89.8</ele>
        <time>2021-04-11 07:28:57</time>
      </trkpt>
      <trkpt lat="41.36046" lon="2.05678">
        <ele>89.8</ele>
        <time>2021-04-11 07:28:58</time>
      </trkpt>
      <trkpt lat="41.36044" lon="2.05682">
        <ele>89.8</ele>
        <time>2021-04-11 07:28:59</time>
      </trkpt>
      <trkpt lat="41.36041" lon="2.05685">
        <ele>90</ele>
        <time>2021-04-11 07:29:00</time>
      </trkpt>
      <trkpt lat="41.3604" lon="2.05688">
        <ele>90</ele>
        <time>2021-04-11 07:29:01</time>
      </trkpt>
      <trkpt lat="41.36039" lon="2.05692">
        <ele>90</ele>
        <time>2021-04-11 07:29:02</time>
      </trkpt>
      <trkpt lat="41.36041" lon="2.05695">
        <ele>90</ele>
        <time>2021-04-11 07:29:03</time>
      </trkpt>
      <trkpt lat="41.36043" lon="2.05695">
        <ele>90</ele>
        <time>2021-04-11 07:29:04</time>
      </trkpt>
      <trkpt lat="41.36045" lon="2.05692">
        <ele>90</ele>
        <time>2021-04-11 07:29:05</time>
      </trkpt>
      <trkpt lat="41.36047" lon="2.05689">
        <ele>90</ele>
        <time>2021-04-11 07:29:06</time>
      </trkpt>
      <trkpt lat="41.3605" lon="2.05685">
        <ele>90</ele>
        <time>2021-04-11 07:29:07</time>
      </trkpt>
      <trkpt lat="41.36053" lon="2.05681">
        <ele>90</ele>
        <time>2021-04-11 07:29:08</time>
      </trkpt>
      <trkpt lat="41.36057" lon="2.05677">
        <ele>89.8</ele>
        <time>2021-04-11 07:29:09</time>
      </trkpt>
      <trkpt lat="41.3606" lon="2.05673">
        <ele>89.8</ele>
        <time>2021-04-11 07:29:10</time>
      </trkpt>
      <trkpt lat="41.36064" lon="2.05668">
        <ele>89.8</ele>
        <time>2021-04-11 07:29:11</time>
      </trkpt>
      <trkpt lat="41.36067" lon="2.05663">
        <ele>89.8</ele>
        <time>2021-04-11 07:29:12</time>
      </trkpt>
      <trkpt lat="41.36071" lon="2.05658">
        <ele>89.6</ele>
        <time>2021-04-11 07:29:13</time>
      </trkpt>
      <trkpt lat="41.36075" lon="2.05653">
        <ele>89.6</ele>
        <time>2021-04-11 07:29:14</time>
      </trkpt>
      <trkpt lat="41.36079" lon="2.05649">
        <ele>89.4</ele>
        <time>2021-04-11 07:29:15</time>
      </trkpt>
      <trkpt lat="41.36084" lon="2.05644">
        <ele>89.4</ele>
        <time>2021-04-11 07:29:16</time>
      </trkpt>
      <trkpt lat="41.36089" lon="2.05641">
        <ele>89.4</ele>
        <time>2021-04-11 07:29:17</time>
      </trkpt>
      <trkpt lat="41.36093" lon="2.05638">
        <ele>89.4</ele>
        <time>2021-04-11 07:29:18</time>
      </trkpt>
      <trkpt lat="41.36099" lon="2.05636">
        <ele>89.4</ele>
        <time>2021-04-11 07:29:19</time>
      </trkpt>
      <trkpt lat="41.36104" lon="2.05634">
        <ele>89.4</ele>
        <time>2021-04-11 07:29:20</time>
      </trkpt>
      <trkpt lat="41.3611" lon="2.05633">
        <ele>89.2</ele>
        <time>2021-04-11 07:29:21</time>
      </trkpt>
      <trkpt lat="41.36116" lon="2.05632">
        <ele>89.2</ele>
        <time>2021-04-11 07:29:22</time>
      </trkpt>
      <trkpt lat="41.36121" lon="2.0563">
        <ele>89.2</ele>
        <time>2021-04-11 07:29:23</time>
      </trkpt>
      <trkpt lat="41.36127" lon="2.05628">
        <ele>89.4</ele>
        <time>2021-04-11 07:29:24</time>
      </trkpt>
      <trkpt lat="41.36131" lon="2.05625">
        <ele>89.4</ele>
        <time>2021-04-11 07:29:25</time>
      </trkpt>
      <trkpt lat="41.36135" lon="2.05622">
        <ele>89.6</ele>
        <time>2021-04-11 07:29:26</time>
      </trkpt>
      <trkpt lat="41.36138" lon="2.05617">
        <ele>89.6</ele>
        <time>2021-04-11 07:29:27</time>
      </trkpt>
      <trkpt lat="41.36141" lon="2.05613">
        <ele>89.6</ele>
        <time>2021-04-11 07:29:28</time>
      </trkpt>
      <trkpt lat="41.36144" lon="2.0561">
        <ele>89.8</ele>
        <time>2021-04-11 07:29:29</time>
      </trkpt>
      <trkpt lat="41.36145" lon="2.05607">
        <ele>90</ele>
        <time>2021-04-11 07:29:30</time>
      </trkpt>
      <trkpt lat="41.36147" lon="2.05605">
        <ele>90</ele>
        <time>2021-04-11 07:29:31</time>
      </trkpt>
      <trkpt lat="41.36147" lon="2.05603">
        <ele>90.2</ele>
        <time>2021-04-11 07:29:32</time>
      </trkpt>
      <trkpt lat="41.36147" lon="2.05603">
        <ele>90.2</ele>
        <time>2021-04-11 07:29:33</time>
      </trkpt>
      <trkpt lat="41.36148" lon="2.05603">
        <ele>90.2</ele>
        <time>2021-04-11 07:29:34</time>
      </trkpt>
      <trkpt lat="41.36146" lon="2.05583">
        <ele>90.4</ele>
        <time>2021-04-11 07:32:26</time>
      </trkpt>
      <trkpt lat="41.36145" lon="2.05581">
        <ele>90.4</ele>
        <time>2021-04-11 07:32:27</time>
      </trkpt>
      <trkpt lat="41.36146" lon="2.05577">
        <ele>90.4</ele>
        <time>2021-04-11 07:32:28</time>
      </trkpt>
      <trkpt lat="41.36147" lon="2.05573">
        <ele>90.4</ele>
        <time>2021-04-11 07:32:29</time>
      </trkpt>
      <trkpt lat="41.36149" lon="2.0557">
        <ele>90.4</ele>
        <time>2021-04-11 07:32:30</time>
      </trkpt>
      <trkpt lat="41.36152" lon="2.05567">
        <ele>90.4</ele>
        <time>2021-04-11 07:32:31</time>
      </trkpt>
      <trkpt lat="41.36154" lon="2.05564">
        <ele>90.4</ele>
        <time>2021-04-11 07:32:32</time>
      </trkpt>
      <trkpt lat="41.36156" lon="2.05562">
        <ele>90.4</ele>
        <time>2021-04-11 07:32:33</time>
      </trkpt>
      <trkpt lat="41.36159" lon="2.05559">
        <ele>90.4</ele>
        <time>2021-04-11 07:32:34</time>
      </trkpt>
      <trkpt lat="41.36162" lon="2.05556">
        <ele>90.4</ele>
        <time>2021-04-11 07:32:35</time>
      </trkpt>
      <trkpt lat="41.36165" lon="2.05553">
        <ele>90.2</ele>
        <time>2021-04-11 07:32:36</time>
      </trkpt>
      <trkpt lat="41.36168" lon="2.0555">
        <ele>90.2</ele>
        <time>2021-04-11 07:32:37</time>
      </trkpt>
      <trkpt lat="41.36172" lon="2.05546">
        <ele>90.2</ele>
        <time>2021-04-11 07:32:38</time>
      </trkpt>
      <trkpt lat="41.36175" lon="2.05543">
        <ele>90.2</ele>
        <time>2021-04-11 07:32:39</time>
      </trkpt>
      <trkpt lat="41.36179" lon="2.0554">
        <ele>90.2</ele>
        <time>2021-04-11 07:32:40</time>
      </trkpt>
      <trkpt lat="41.36182" lon="2.05536">
        <ele>90.2</ele>
        <time>2021-04-11 07:32:41</time>
      </trkpt>
      <trkpt lat="41.36186" lon="2.05532">
        <ele>90</ele>
        <time>2021-04-11 07:32:42</time>
      </trkpt>
      <trkpt lat="41.3619" lon="2.05529">
        <ele>90</ele>
        <time>2021-04-11 07:32:43</time>
      </trkpt>
      <trkpt lat="41.36194" lon="2.05525">
        <ele>89.8</ele>
        <time>2021-04-11 07:32:44</time>
      </trkpt>
      <trkpt lat="41.36198" lon="2.05521">
        <ele>89.8</ele>
        <time>2021-04-11 07:32:45</time>
      </trkpt>
      <trkpt lat="41.36202" lon="2.05517">
        <ele>89.8</ele>
        <time>2021-04-11 07:32:46</time>
      </trkpt>
      <trkpt lat="41.36206" lon="2.05513">
        <ele>89.6</ele>
        <time>2021-04-11 07:32:47</time>
      </trkpt>
      <trkpt lat="41.3621" lon="2.05509">
        <ele>89.6</ele>
        <time>2021-04-11 07:32:48</time>
      </trkpt>
      <trkpt lat="41.36214" lon="2.05505">
        <ele>89.6</ele>
        <time>2021-04-11 07:32:49</time>
      </trkpt>
      <trkpt lat="41.36219" lon="2.055">
        <ele>89.6</ele>
        <time>2021-04-11 07:32:50</time>
      </trkpt>
      <trkpt lat="41.36223" lon="2.05496">
        <ele>89.6</ele>
        <time>2021-04-11 07:32:51</time>
      </trkpt>
      <trkpt lat="41.36227" lon="2.05492">
        <ele>89.4</ele>
        <time>2021-04-11 07:32:52</time>
      </trkpt>
      <trkpt lat="41.36231" lon="2.05488">
        <ele>89.4</ele>
        <time>2021-04-11 07:32:53</time>
      </trkpt>
      <trkpt lat="41.36236" lon="2.05483">
        <ele>89.4</ele>
        <time>2021-04-11 07:32:54</time>
      </trkpt>
      <trkpt lat="41.3624" lon="2.05479">
        <ele>89.4</ele>
        <time>2021-04-11 07:32:55</time>
      </trkpt>
      <trkpt lat="41.36245" lon="2.05475">
        <ele>89.2</ele>
        <time>2021-04-11 07:32:56</time>
      </trkpt>
      <trkpt lat="41.3625" lon="2.05471">
        <ele>89.2</ele>
        <time>2021-04-11 07:32:57</time>
      </trkpt>
      <trkpt lat="41.36254" lon="2.05466">
        <ele>89</ele>
        <time>2021-04-11 07:32:58</time>
      </trkpt>
      <trkpt lat="41.36259" lon="2.05461">
        <ele>89</ele>
        <time>2021-04-11 07:32:59</time>
      </trkpt>
      <trkpt lat="41.36264" lon="2.05456">
        <ele>89</ele>
        <time>2021-04-11 07:33:00</time>
      </trkpt>
      <trkpt lat="41.36269" lon="2.05452">
        <ele>88.8</ele>
        <time>2021-04-11 07:33:01</time>
      </trkpt>
      <trkpt lat="41.36274" lon="2.05447">
        <ele>88.8</ele>
        <time>2021-04-11 07:33:02</time>
      </trkpt>
      <trkpt lat="41.36279" lon="2.05443">
        <ele>88.8</ele>
        <time>2021-04-11 07:33:03</time>
      </trkpt>
      <trkpt lat="41.36283" lon="2.05438">
        <ele>88.6</ele>
        <time>2021-04-11 07:33:04</time>
      </trkpt>
      <trkpt lat="41.36288" lon="2.05434">
        <ele>88.6</ele>
        <time>2021-04-11 07:33:05</time>
      </trkpt>
      <trkpt lat="41.36293" lon="2.05429">
        <ele>88.6</ele>
        <time>2021-04-11 07:33:06</time>
      </trkpt>
      <trkpt lat="41.36298" lon="2.05424">
        <ele>88.4</ele>
        <time>2021-04-11 07:33:07</time>
      </trkpt>
      <trkpt lat="41.36303" lon="2.0542">
        <ele>88.4</ele>
        <time>2021-04-11 07:33:08</time>
      </trkpt>
      <trkpt lat="41.36308" lon="2.05415">
        <ele>88.4</ele>
        <time>2021-04-11 07:33:09</time>
      </trkpt>
      <trkpt lat="41.36313" lon="2.0541">
        <ele>88.4</ele>
        <time>2021-04-11 07:33:10</time>
      </trkpt>
      <trkpt lat="41.36318" lon="2.05405">
        <ele>88.4</ele>
        <time>2021-04-11 07:33:11</time>
      </trkpt>
      <trkpt lat="41.36323" lon="2.05401">
        <ele>88.4</ele>
        <time>2021-04-11 07:33:12</time>
      </trkpt>
      <trkpt lat="41.36328" lon="2.05396">
        <ele>88.2</ele>
        <time>2021-04-11 07:33:13</time>
      </trkpt>
      <trkpt lat="41.36333" lon="2.05391">
        <ele>88.2</ele>
        <time>2021-04-11 07:33:14</time>
      </trkpt>
      <trkpt lat="41.36338" lon="2.05386">
        <ele>88.2</ele>
        <time>2021-04-11 07:33:15</time>
      </trkpt>
      <trkpt lat="41.36343" lon="2.05381">
        <ele>88</ele>
        <time>2021-04-11 07:33:16</time>
      </trkpt>
      <trkpt lat="41.36347" lon="2.05375">
        <ele>88</ele>
        <time>2021-04-11 07:33:17</time>
      </trkpt>
      <trkpt lat="41.36351" lon="2.05369">
        <ele>88</ele>
        <time>2021-04-11 07:33:18</time>
      </trkpt>
      <trkpt lat="41.36355" lon="2.05362">
        <ele>88</ele>
        <time>2021-04-11 07:33:19</time>
      </trkpt>
      <trkpt lat="41.36358" lon="2.05355">
        <ele>88</ele>
        <time>2021-04-11 07:33:20</time>
      </trkpt>
      <trkpt lat="41.3636" lon="2.05348">
        <ele>88</ele>
        <time>2021-04-11 07:33:21</time>
      </trkpt>
      <trkpt lat="41.36363" lon="2.05341">
        <ele>88</ele>
        <time>2021-04-11 07:33:22</time>
      </trkpt>
      <trkpt lat="41.36367" lon="2.05334">
        <ele>88</ele>
        <time>2021-04-11 07:33:23</time>
      </trkpt>
      <trkpt lat="41.36371" lon="2.05328">
        <ele>88</ele>
        <time>2021-04-11 07:33:24</time>
      </trkpt>
      <trkpt lat="41.36376" lon="2.05324">
        <ele>88.2</ele>
        <time>2021-04-11 07:33:25</time>
      </trkpt>
      <trkpt lat="41.36381" lon="2.05322">
        <ele>88.2</ele>
        <time>2021-04-11 07:33:26</time>
      </trkpt>
      <trkpt lat="41.36387" lon="2.05322">
        <ele>88</ele>
        <time>2021-04-11 07:33:27</time>
      </trkpt>
      <trkpt lat="41.36393" lon="2.05322">
        <ele>88</ele>
        <time>2021-04-11 07:33:28</time>
      </trkpt>
      <trkpt lat="41.36399" lon="2.0532">
        <ele>88</ele>
        <time>2021-04-11 07:33:29</time>
      </trkpt>
      <trkpt lat="41.36405" lon="2.05317">
        <ele>87.8</ele>
        <time>2021-04-11 07:33:30</time>
      </trkpt>
      <trkpt lat="41.36409" lon="2.05312">
        <ele>87.8</ele>
        <time>2021-04-11 07:33:31</time>
      </trkpt>
      <trkpt lat="41.36413" lon="2.05305">
        <ele>87.8</ele>
        <time>2021-04-11 07:33:32</time>
      </trkpt>
      <trkpt lat="41.36416" lon="2.05298">
        <ele>87.8</ele>
        <time>2021-04-11 07:33:33</time>
      </trkpt>
      <trkpt lat="41.36418" lon="2.0529">
        <ele>88</ele>
        <time>2021-04-11 07:33:34</time>
      </trkpt>
      <trkpt lat="41.36421" lon="2.05283">
        <ele>88</ele>
        <time>2021-04-11 07:33:35</time>
      </trkpt>
      <trkpt lat="41.36425" lon="2.05277">
        <ele>88.2</ele>
        <time>2021-04-11 07:33:36</time>
      </trkpt>
      <trkpt lat="41.3643" lon="2.05273">
        <ele>88.2</ele>
        <time>2021-04-11 07:33:37</time>
      </trkpt>
      <trkpt lat="41.36435" lon="2.0527">
        <ele>88</ele>
        <time>2021-04-11 07:33:38</time>
      </trkpt>
      <trkpt lat="41.36441" lon="2.05268">
        <ele>88</ele>
        <time>2021-04-11 07:33:39</time>
      </trkpt>
      <trkpt lat="41.36448" lon="2.05267">
        <ele>88</ele>
        <time>2021-04-11 07:33:40</time>
      </trkpt>
      <trkpt lat="41.36454" lon="2.05265">
        <ele>88</ele>
        <time>2021-04-11 07:33:41</time>
      </trkpt>
      <trkpt lat="41.3646" lon="2.05263">
        <ele>88</ele>
        <time>2021-04-11 07:33:42</time>
      </trkpt>
      <trkpt lat="41.36466" lon="2.05261">
        <ele>88</ele>
        <time>2021-04-11 07:33:43</time>
      </trkpt>
      <trkpt lat="41.36471" lon="2.05257">
        <ele>88</ele>
        <time>2021-04-11 07:33:44</time>
      </trkpt>
      <trkpt lat="41.36477" lon="2.05253">
        <ele>88</ele>
        <time>2021-04-11 07:33:45</time>
      </trkpt>
      <trkpt lat="41.36482" lon="2.05248">
        <ele>88</ele>
        <time>2021-04-11 07:33:46</time>
      </trkpt>
      <trkpt lat="41.36488" lon="2.05244">
        <ele>88</ele>
        <time>2021-04-11 07:33:47</time>
      </trkpt>
      <trkpt lat="41.36493" lon="2.05239">
        <ele>88</ele>
        <time>2021-04-11 07:33:48</time>
      </trkpt>
      <trkpt lat="41.36498" lon="2.05234">
        <ele>88</ele>
        <time>2021-04-11 07:33:49</time>
      </trkpt>
      <trkpt lat="41.36503" lon="2.05229">
        <ele>88.2</ele>
        <time>2021-04-11 07:33:50</time>
      </trkpt>
      <trkpt lat="41.36508" lon="2.05224">
        <ele>88.2</ele>
        <time>2021-04-11 07:33:51</time>
      </trkpt>
      <trkpt lat="41.36513" lon="2.05219">
        <ele>88.2</ele>
        <time>2021-04-11 07:33:52</time>
      </trkpt>
      <trkpt lat="41.36518" lon="2.05214">
        <ele>88.2</ele>
        <time>2021-04-11 07:33:53</time>
      </trkpt>
      <trkpt lat="41.36524" lon="2.0521">
        <ele>88.4</ele>
        <time>2021-04-11 07:33:54</time>
      </trkpt>
      <trkpt lat="41.36529" lon="2.05205">
        <ele>88.4</ele>
        <time>2021-04-11 07:33:55</time>
      </trkpt>
      <trkpt lat="41.36534" lon="2.052">
        <ele>88.4</ele>
        <time>2021-04-11 07:33:56</time>
      </trkpt>
      <trkpt lat="41.36539" lon="2.05195">
        <ele>88.4</ele>
        <time>2021-04-11 07:33:57</time>
      </trkpt>
      <trkpt lat="41.36544" lon="2.0519">
        <ele>88.6</ele>
        <time>2021-04-11 07:33:58</time>
      </trkpt>
      <trkpt lat="41.36549" lon="2.05185">
        <ele>88.6</ele>
        <time>2021-04-11 07:33:59</time>
      </trkpt>
      <trkpt lat="41.36555" lon="2.0518">
        <ele>88.6</ele>
        <time>2021-04-11 07:34:00</time>
      </trkpt>
      <trkpt lat="41.3656" lon="2.05175">
        <ele>88.6</ele>
        <time>2021-04-11 07:34:01</time>
      </trkpt>
      <trkpt lat="41.36565" lon="2.0517">
        <ele>88.6</ele>
        <time>2021-04-11 07:34:02</time>
      </trkpt>
      <trkpt lat="41.3657" lon="2.05166">
        <ele>88.6</ele>
        <time>2021-04-11 07:34:03</time>
      </trkpt>
      <trkpt lat="41.36575" lon="2.05161">
        <ele>88.8</ele>
        <time>2021-04-11 07:34:04</time>
      </trkpt>
      <trkpt lat="41.3658" lon="2.05156">
        <ele>88.8</ele>
        <time>2021-04-11 07:34:05</time>
      </trkpt>
      <trkpt lat="41.36585" lon="2.05151">
        <ele>88.8</ele>
        <time>2021-04-11 07:34:06</time>
      </trkpt>
      <trkpt lat="41.36591" lon="2.05146">
        <ele>88.8</ele>
        <time>2021-04-11 07:34:07</time>
      </trkpt>
      <trkpt lat="41.36596" lon="2.05141">
        <ele>89</ele>
        <time>2021-04-11 07:34:08</time>
      </trkpt>
      <trkpt lat="41.36601" lon="2.05136">
        <ele>89</ele>
        <time>2021-04-11 07:34:09</time>
      </trkpt>
      <trkpt lat="41.36606" lon="2.05131">
        <ele>89</ele>
        <time>2021-04-11 07:34:10</time>
      </trkpt>
      <trkpt lat="41.36612" lon="2.05126">
        <ele>89.2</ele>
        <time>2021-04-11 07:34:11</time>
      </trkpt>
      <trkpt lat="41.36617" lon="2.05121">
        <ele>89.2</ele>
        <time>2021-04-11 07:34:12</time>
      </trkpt>
      <trkpt lat="41.36622" lon="2.05116">
        <ele>89.2</ele>
        <time>2021-04-11 07:34:13</time>
      </trkpt>
      <trkpt lat="41.36627" lon="2.05111">
        <ele>89.2</ele>
        <time>2021-04-11 07:34:14</time>
      </trkpt>
      <trkpt lat="41.36632" lon="2.05106">
        <ele>89.4</ele>
        <time>2021-04-11 07:34:15</time>
      </trkpt>
      <trkpt lat="41.36637" lon="2.05101">
        <ele>89.4</ele>
        <time>2021-04-11 07:34:16</time>
      </trkpt>
      <trkpt lat="41.36642" lon="2.05096">
        <ele>89.4</ele>
        <time>2021-04-11 07:34:17</time>
      </trkpt>
      <trkpt lat="41.36647" lon="2.05092">
        <ele>89.6</ele>
        <time>2021-04-11 07:34:18</time>
      </trkpt>
      <trkpt lat="41.36652" lon="2.05087">
        <ele>89.6</ele>
        <time>2021-04-11 07:34:19</time>
      </trkpt>
      <trkpt lat="41.36658" lon="2.05082">
        <ele>89.6</ele>
        <time>2021-04-11 07:34:20</time>
      </trkpt>
      <trkpt lat="41.36663" lon="2.05077">
        <ele>89.6</ele>
        <time>2021-04-11 07:34:21</time>
      </trkpt>
      <trkpt lat="41.36668" lon="2.05071">
        <ele>89.6</ele>
        <time>2021-04-11 07:34:22</time>
      </trkpt>
      <trkpt lat="41.36673" lon="2.05067">
        <ele>89.8</ele>
        <time>2021-04-11 07:34:23</time>
      </trkpt>
      <trkpt lat="41.36678" lon="2.05061">
        <ele>89.8</ele>
        <time>2021-04-11 07:34:24</time>
      </trkpt>
      <trkpt lat="41.36683" lon="2.05056">
        <ele>89.8</ele>
        <time>2021-04-11 07:34:25</time>
      </trkpt>
      <trkpt lat="41.36688" lon="2.05051">
        <ele>89.8</ele>
        <time>2021-04-11 07:34:26</time>
      </trkpt>
      <trkpt lat="41.36693" lon="2.05046">
        <ele>89.8</ele>
        <time>2021-04-11 07:34:27</time>
      </trkpt>
      <trkpt lat="41.36698" lon="2.05041">
        <ele>90</ele>
        <time>2021-04-11 07:34:28</time>
      </trkpt>
      <trkpt lat="41.36703" lon="2.05037">
        <ele>90</ele>
        <time>2021-04-11 07:34:29</time>
      </trkpt>
      <trkpt lat="41.36708" lon="2.05032">
        <ele>90.2</ele>
        <time>2021-04-11 07:34:30</time>
      </trkpt>
      <trkpt lat="41.36713" lon="2.05027">
        <ele>90.2</ele>
        <time>2021-04-11 07:34:31</time>
      </trkpt>
      <trkpt lat="41.36718" lon="2.05022">
        <ele>90.2</ele>
        <time>2021-04-11 07:34:32</time>
      </trkpt>
      <trkpt lat="41.36723" lon="2.05018">
        <ele>90.4</ele>
        <time>2021-04-11 07:34:33</time>
      </trkpt>
      <trkpt lat="41.36728" lon="2.05013">
        <ele>90.4</ele>
        <time>2021-04-11 07:34:34</time>
      </trkpt>
      <trkpt lat="41.36733" lon="2.05009">
        <ele>90.6</ele>
        <time>2021-04-11 07:34:35</time>
      </trkpt>
      <trkpt lat="41.36738" lon="2.05004">
        <ele>90.6</ele>
        <time>2021-04-11 07:34:36</time>
      </trkpt>
      <trkpt lat="41.36744" lon="2.05001">
        <ele>90.8</ele>
        <time>2021-04-11 07:34:37</time>
      </trkpt>
      <trkpt lat="41.36749" lon="2.04999">
        <ele>91</ele>
        <time>2021-04-11 07:34:38</time>
      </trkpt>
      <trkpt lat="41.36755" lon="2.04998">
        <ele>91</ele>
        <time>2021-04-11 07:34:39</time>
      </trkpt>
      <trkpt lat="41.36761" lon="2.04997">
        <ele>91</ele>
        <time>2021-04-11 07:34:40</time>
      </trkpt>
      <trkpt lat="41.36767" lon="2.04996">
        <ele>91</ele>
        <time>2021-04-11 07:34:41</time>
      </trkpt>
      <trkpt lat="41.36773" lon="2.04994">
        <ele>91</ele>
        <time>2021-04-11 07:34:42</time>
      </trkpt>
      <trkpt lat="41.36778" lon="2.04989">
        <ele>90.8</ele>
        <time>2021-04-11 07:34:43</time>
      </trkpt>
      <trkpt lat="41.36782" lon="2.04982">
        <ele>90.8</ele>
        <time>2021-04-11 07:34:44</time>
      </trkpt>
      <trkpt lat="41.36785" lon="2.04974">
        <ele>90.6</ele>
        <time>2021-04-11 07:34:45</time>
      </trkpt>
      <trkpt lat="41.36787" lon="2.04965">
        <ele>90.6</ele>
        <time>2021-04-11 07:34:46</time>
      </trkpt>
      <trkpt lat="41.36789" lon="2.04956">
        <ele>90.4</ele>
        <time>2021-04-11 07:34:47</time>
      </trkpt>
      <trkpt lat="41.36791" lon="2.04948">
        <ele>90.2</ele>
        <time>2021-04-11 07:34:48</time>
      </trkpt>
      <trkpt lat="41.36796" lon="2.0494">
        <ele>90.2</ele>
        <time>2021-04-11 07:34:49</time>
      </trkpt>
      <trkpt lat="41.36801" lon="2.04934">
        <ele>90</ele>
        <time>2021-04-11 07:34:50</time>
      </trkpt>
      <trkpt lat="41.36806" lon="2.04928">
        <ele>89.8</ele>
        <time>2021-04-11 07:34:51</time>
      </trkpt>
      <trkpt lat="41.36812" lon="2.04922">
        <ele>89.8</ele>
        <time>2021-04-11 07:34:52</time>
      </trkpt>
      <trkpt lat="41.36818" lon="2.04917">
        <ele>89.6</ele>
        <time>2021-04-11 07:34:53</time>
      </trkpt>
      <trkpt lat="41.36823" lon="2.04911">
        <ele>89.6</ele>
        <time>2021-04-11 07:34:54</time>
      </trkpt>
      <trkpt lat="41.36829" lon="2.04905">
        <ele>89.4</ele>
        <time>2021-04-11 07:34:55</time>
      </trkpt>
      <trkpt lat="41.36834" lon="2.049">
        <ele>89.4</ele>
        <time>2021-04-11 07:34:56</time>
      </trkpt>
      <trkpt lat="41.3684" lon="2.04894">
        <ele>89.4</ele>
        <time>2021-04-11 07:34:57</time>
      </trkpt>
      <trkpt lat="41.36845" lon="2.04889">
        <ele>89.2</ele>
        <time>2021-04-11 07:34:58</time>
      </trkpt>
      <trkpt lat="41.36851" lon="2.04883">
        <ele>89.2</ele>
        <time>2021-04-11 07:34:59</time>
      </trkpt>
      <trkpt lat="41.36856" lon="2.04878">
        <ele>89.2</ele>
        <time>2021-04-11 07:35:00</time>
      </trkpt>
      <trkpt lat="41.36863" lon="2.04873">
        <ele>89.2</ele>
        <time>2021-04-11 07:35:01</time>
      </trkpt>
      <trkpt lat="41.36868" lon="2.04868">
        <ele>89.2</ele>
        <time>2021-04-11 07:35:02</time>
      </trkpt>
      <trkpt lat="41.36874" lon="2.04862">
        <ele>89</ele>
        <time>2021-04-11 07:35:03</time>
      </trkpt>
      <trkpt lat="41.36879" lon="2.04857">
        <ele>89</ele>
        <time>2021-04-11 07:35:04</time>
      </trkpt>
      <trkpt lat="41.36885" lon="2.04851">
        <ele>89</ele>
        <time>2021-04-11 07:35:05</time>
      </trkpt>
      <trkpt lat="41.36891" lon="2.04846">
        <ele>89</ele>
        <time>2021-04-11 07:35:06</time>
      </trkpt>
      <trkpt lat="41.36896" lon="2.04841">
        <ele>88.8</ele>
        <time>2021-04-11 07:35:07</time>
      </trkpt>
      <trkpt lat="41.36902" lon="2.04835">
        <ele>88.8</ele>
        <time>2021-04-11 07:35:08</time>
      </trkpt>
      <trkpt lat="41.36907" lon="2.0483">
        <ele>88.8</ele>
        <time>2021-04-11 07:35:09</time>
      </trkpt>
      <trkpt lat="41.36913" lon="2.04824">
        <ele>88.8</ele>
        <time>2021-04-11 07:35:10</time>
      </trkpt>
      <trkpt lat="41.36919" lon="2.04819">
        <ele>88.6</ele>
        <time>2021-04-11 07:35:11</time>
      </trkpt>
      <trkpt lat="41.36924" lon="2.04813">
        <ele>88.6</ele>
        <time>2021-04-11 07:35:12</time>
      </trkpt>
      <trkpt lat="41.3693" lon="2.04808">
        <ele>88.6</ele>
        <time>2021-04-11 07:35:13</time>
      </trkpt>
      <trkpt lat="41.36935" lon="2.04803">
        <ele>88.6</ele>
        <time>2021-04-11 07:35:14</time>
      </trkpt>
      <trkpt lat="41.36941" lon="2.04797">
        <ele>88.4</ele>
        <time>2021-04-11 07:35:15</time>
      </trkpt>
      <trkpt lat="41.36947" lon="2.04792">
        <ele>88.4</ele>
        <time>2021-04-11 07:35:16</time>
      </trkpt>
      <trkpt lat="41.36953" lon="2.04786">
        <ele>88.4</ele>
        <time>2021-04-11 07:35:17</time>
      </trkpt>
      <trkpt lat="41.36958" lon="2.04781">
        <ele>88.2</ele>
        <time>2021-04-11 07:35:18</time>
      </trkpt>
      <trkpt lat="41.36964" lon="2.04776">
        <ele>88.2</ele>
        <time>2021-04-11 07:35:19</time>
      </trkpt>
      <trkpt lat="41.36969" lon="2.0477">
        <ele>88.2</ele>
        <time>2021-04-11 07:35:20</time>
      </trkpt>
      <trkpt lat="41.36975" lon="2.04765">
        <ele>88.2</ele>
        <time>2021-04-11 07:35:21</time>
      </trkpt>
      <trkpt lat="41.36981" lon="2.04759">
        <ele>88.2</ele>
        <time>2021-04-11 07:35:22</time>
      </trkpt>
      <trkpt lat="41.36987" lon="2.04754">
        <ele>88.2</ele>
        <time>2021-04-11 07:35:23</time>
      </trkpt>
      <trkpt lat="41.36992" lon="2.04748">
        <ele>88</ele>
        <time>2021-04-11 07:35:24</time>
      </trkpt>
      <trkpt lat="41.36998" lon="2.04743">
        <ele>88</ele>
        <time>2021-04-11 07:35:25</time>
      </trkpt>
      <trkpt lat="41.37004" lon="2.04738">
        <ele>88</ele>
        <time>2021-04-11 07:35:26</time>
      </trkpt>
      <trkpt lat="41.37009" lon="2.04732">
        <ele>88</ele>
        <time>2021-04-11 07:35:27</time>
      </trkpt>
      <trkpt lat="41.37015" lon="2.04726">
        <ele>87.8</ele>
        <time>2021-04-11 07:35:28</time>
      </trkpt>
      <trkpt lat="41.37021" lon="2.04721">
        <ele>87.8</ele>
        <time>2021-04-11 07:35:29</time>
      </trkpt>
      <trkpt lat="41.37027" lon="2.04715">
        <ele>87.8</ele>
        <time>2021-04-11 07:35:30</time>
      </trkpt>
      <trkpt lat="41.37032" lon="2.0471">
        <ele>87.8</ele>
        <time>2021-04-11 07:35:31</time>
      </trkpt>
      <trkpt lat="41.37038" lon="2.04704">
        <ele>87.8</ele>
        <time>2021-04-11 07:35:32</time>
      </trkpt>
      <trkpt lat="41.37043" lon="2.04699">
        <ele>87.8</ele>
        <time>2021-04-11 07:35:33</time>
      </trkpt>
      <trkpt lat="41.37049" lon="2.04693">
        <ele>87.8</ele>
        <time>2021-04-11 07:35:34</time>
      </trkpt>
      <trkpt lat="41.37055" lon="2.04688">
        <ele>87.8</ele>
        <time>2021-04-11 07:35:35</time>
      </trkpt>
      <trkpt lat="41.3706" lon="2.04683">
        <ele>88</ele>
        <time>2021-04-11 07:35:36</time>
      </trkpt>
      <trkpt lat="41.37066" lon="2.04677">
        <ele>88</ele>
        <time>2021-04-11 07:35:37</time>
      </trkpt>
      <trkpt lat="41.37071" lon="2.04672">
        <ele>88</ele>
        <time>2021-04-11 07:35:38</time>
      </trkpt>
      <trkpt lat="41.37076" lon="2.04667">
        <ele>88.2</ele>
        <time>2021-04-11 07:35:39</time>
      </trkpt>
      <trkpt lat="41.37082" lon="2.04662">
        <ele>88.4</ele>
        <time>2021-04-11 07:35:40</time>
      </trkpt>
      <trkpt lat="41.37087" lon="2.04657">
        <ele>88.4</ele>
        <time>2021-04-11 07:35:41</time>
      </trkpt>
      <trkpt lat="41.37093" lon="2.04651">
        <ele>88.6</ele>
        <time>2021-04-11 07:35:42</time>
      </trkpt>
      <trkpt lat="41.37098" lon="2.04647">
        <ele>88.8</ele>
        <time>2021-04-11 07:35:43</time>
      </trkpt>
      <trkpt lat="41.37103" lon="2.04642">
        <ele>89</ele>
        <time>2021-04-11 07:35:44</time>
      </trkpt>
      <trkpt lat="41.37108" lon="2.04637">
        <ele>89.2</ele>
        <time>2021-04-11 07:35:45</time>
      </trkpt>
      <trkpt lat="41.37113" lon="2.04634">
        <ele>89.4</ele>
        <time>2021-04-11 07:35:46</time>
      </trkpt>
      <trkpt lat="41.37119" lon="2.04632">
        <ele>89.6</ele>
        <time>2021-04-11 07:35:47</time>
      </trkpt>
      <trkpt lat="41.37125" lon="2.04633">
        <ele>89.6</ele>
        <time>2021-04-11 07:35:48</time>
      </trkpt>
      <trkpt lat="41.37131" lon="2.04635">
        <ele>89.8</ele>
        <time>2021-04-11 07:35:49</time>
      </trkpt>
      <trkpt lat="41.37136" lon="2.04638">
        <ele>90</ele>
        <time>2021-04-11 07:35:50</time>
      </trkpt>
      <trkpt lat="41.37143" lon="2.0464">
        <ele>90</ele>
        <time>2021-04-11 07:35:51</time>
      </trkpt>
      <trkpt lat="41.3715" lon="2.0464">
        <ele>90</ele>
        <time>2021-04-11 07:35:52</time>
      </trkpt>
      <trkpt lat="41.37157" lon="2.04639">
        <ele>89.8</ele>
        <time>2021-04-11 07:35:53</time>
      </trkpt>
      <trkpt lat="41.37164" lon="2.04637">
        <ele>89.8</ele>
        <time>2021-04-11 07:35:54</time>
      </trkpt>
      <trkpt lat="41.3717" lon="2.04632">
        <ele>89.6</ele>
        <time>2021-04-11 07:35:55</time>
      </trkpt>
      <trkpt lat="41.37176" lon="2.04625">
        <ele>89.4</ele>
        <time>2021-04-11 07:35:56</time>
      </trkpt>
      <trkpt lat="41.37181" lon="2.04617">
        <ele>89.2</ele>
        <time>2021-04-11 07:35:57</time>
      </trkpt>
      <trkpt lat="41.37184" lon="2.04608">
        <ele>89.2</ele>
        <time>2021-04-11 07:35:58</time>
      </trkpt>
      <trkpt lat="41.37186" lon="2.04598">
        <ele>89</ele>
        <time>2021-04-11 07:35:59</time>
      </trkpt>
      <trkpt lat="41.37189" lon="2.04589">
        <ele>88.8</ele>
        <time>2021-04-11 07:36:00</time>
      </trkpt>
      <trkpt lat="41.37192" lon="2.0458">
        <ele>88.6</ele>
        <time>2021-04-11 07:36:01</time>
      </trkpt>
      <trkpt lat="41.37196" lon="2.04572">
        <ele>88.4</ele>
        <time>2021-04-11 07:36:02</time>
      </trkpt>
      <trkpt lat="41.37202" lon="2.04565">
        <ele>88</ele>
        <time>2021-04-11 07:36:03</time>
      </trkpt>
      <trkpt lat="41.37207" lon="2.04558">
        <ele>87.8</ele>
        <time>2021-04-11 07:36:04</time>
      </trkpt>
      <trkpt lat="41.37214" lon="2.04551">
        <ele>87.6</ele>
        <time>2021-04-11 07:36:05</time>
      </trkpt>
      <trkpt lat="41.3722" lon="2.04545">
        <ele>87.4</ele>
        <time>2021-04-11 07:36:06</time>
      </trkpt>
      <trkpt lat="41.37226" lon="2.04539">
        <ele>87.2</ele>
        <time>2021-04-11 07:36:07</time>
      </trkpt>
      <trkpt lat="41.37232" lon="2.04532">
        <ele>87</ele>
        <time>2021-04-11 07:36:08</time>
      </trkpt>
      <trkpt lat="41.37239" lon="2.04526">
        <ele>86.8</ele>
        <time>2021-04-11 07:36:09</time>
      </trkpt>
      <trkpt lat="41.37245" lon="2.04519">
        <ele>86.6</ele>
        <time>2021-04-11 07:36:10</time>
      </trkpt>
      <trkpt lat="41.37251" lon="2.04513">
        <ele>86.4</ele>
        <time>2021-04-11 07:36:11</time>
      </trkpt>
      <trkpt lat="41.37257" lon="2.04506">
        <ele>86.2</ele>
        <time>2021-04-11 07:36:12</time>
      </trkpt>
      <trkpt lat="41.37264" lon="2.045">
        <ele>86</ele>
        <time>2021-04-11 07:36:13</time>
      </trkpt>
      <trkpt lat="41.37271" lon="2.04493">
        <ele>85.8</ele>
        <time>2021-04-11 07:36:14</time>
      </trkpt>
      <trkpt lat="41.37277" lon="2.04487">
        <ele>85.6</ele>
        <time>2021-04-11 07:36:15</time>
      </trkpt>
      <trkpt lat="41.37283" lon="2.0448">
        <ele>85.2</ele>
        <time>2021-04-11 07:36:16</time>
      </trkpt>
      <trkpt lat="41.3729" lon="2.04473">
        <ele>85</ele>
        <time>2021-04-11 07:36:17</time>
      </trkpt>
      <trkpt lat="41.37296" lon="2.04466">
        <ele>85</ele>
        <time>2021-04-11 07:36:18</time>
      </trkpt>
      <trkpt lat="41.37302" lon="2.0446">
        <ele>84.8</ele>
        <time>2021-04-11 07:36:19</time>
      </trkpt>
      <trkpt lat="41.37309" lon="2.04453">
        <ele>84.8</ele>
        <time>2021-04-11 07:36:20</time>
      </trkpt>
      <trkpt lat="41.37315" lon="2.04447">
        <ele>84.8</ele>
        <time>2021-04-11 07:36:21</time>
      </trkpt>
      <trkpt lat="41.37321" lon="2.04441">
        <ele>84.8</ele>
        <time>2021-04-11 07:36:22</time>
      </trkpt>
      <trkpt lat="41.37328" lon="2.04435">
        <ele>84.8</ele>
        <time>2021-04-11 07:36:23</time>
      </trkpt>
      <trkpt lat="41.37334" lon="2.0443">
        <ele>85</ele>
        <time>2021-04-11 07:36:24</time>
      </trkpt>
      <trkpt lat="41.3734" lon="2.04424">
        <ele>85</ele>
        <time>2021-04-11 07:36:25</time>
      </trkpt>
      <trkpt lat="41.37346" lon="2.04419">
        <ele>85</ele>
        <time>2021-04-11 07:36:26</time>
      </trkpt>
      <trkpt lat="41.37352" lon="2.04413">
        <ele>85</ele>
        <time>2021-04-11 07:36:27</time>
      </trkpt>
      <trkpt lat="41.37358" lon="2.04407">
        <ele>85.2</ele>
        <time>2021-04-11 07:36:28</time>
      </trkpt>
      <trkpt lat="41.37363" lon="2.04401">
        <ele>85.6</ele>
        <time>2021-04-11 07:36:29</time>
      </trkpt>
      <trkpt lat="41.37368" lon="2.04396">
        <ele>86</ele>
        <time>2021-04-11 07:36:30</time>
      </trkpt>
      <trkpt lat="41.37374" lon="2.04391">
        <ele>86.2</ele>
        <time>2021-04-11 07:36:31</time>
      </trkpt>
      <trkpt lat="41.37379" lon="2.04386">
        <ele>86.6</ele>
        <time>2021-04-11 07:36:32</time>
      </trkpt>
      <trkpt lat="41.37383" lon="2.04381">
        <ele>87</ele>
        <time>2021-04-11 07:36:33</time>
      </trkpt>
      <trkpt lat="41.37388" lon="2.04377">
        <ele>87.6</ele>
        <time>2021-04-11 07:36:34</time>
      </trkpt>
      <trkpt lat="41.37393" lon="2.04373">
        <ele>88</ele>
        <time>2021-04-11 07:36:35</time>
      </trkpt>
      <trkpt lat="41.37397" lon="2.04368">
        <ele>88.4</ele>
        <time>2021-04-11 07:36:36</time>
      </trkpt>
      <trkpt lat="41.37402" lon="2.04364">
        <ele>88.6</ele>
        <time>2021-04-11 07:36:37</time>
      </trkpt>
      <trkpt lat="41.37407" lon="2.0436">
        <ele>89</ele>
        <time>2021-04-11 07:36:38</time>
      </trkpt>
      <trkpt lat="41.37411" lon="2.04358">
        <ele>89.4</ele>
        <time>2021-04-11 07:36:39</time>
      </trkpt>
      <trkpt lat="41.37416" lon="2.04356">
        <ele>89.8</ele>
        <time>2021-04-11 07:36:40</time>
      </trkpt>
      <trkpt lat="41.37421" lon="2.04355">
        <ele>90.2</ele>
        <time>2021-04-11 07:36:41</time>
      </trkpt>
      <trkpt lat="41.37426" lon="2.04354">
        <ele>90.6</ele>
        <time>2021-04-11 07:36:42</time>
      </trkpt>
      <trkpt lat="41.37432" lon="2.04354">
        <ele>90.8</ele>
        <time>2021-04-11 07:36:43</time>
      </trkpt>
      <trkpt lat="41.37438" lon="2.04354">
        <ele>91.2</ele>
        <time>2021-04-11 07:36:44</time>
      </trkpt>
      <trkpt lat="41.37444" lon="2.04353">
        <ele>91.4</ele>
        <time>2021-04-11 07:36:45</time>
      </trkpt>
      <trkpt lat="41.37449" lon="2.04352">
        <ele>91.6</ele>
        <time>2021-04-11 07:36:46</time>
      </trkpt>
      <trkpt lat="41.37454" lon="2.0435">
        <ele>91.8</ele>
        <time>2021-04-11 07:36:47</time>
      </trkpt>
      <trkpt lat="41.37459" lon="2.04346">
        <ele>92</ele>
        <time>2021-04-11 07:36:48</time>
      </trkpt>
      <trkpt lat="41.37463" lon="2.04342">
        <ele>92.2</ele>
        <time>2021-04-11 07:36:49</time>
      </trkpt>
      <trkpt lat="41.37467" lon="2.04336">
        <ele>92.4</ele>
        <time>2021-04-11 07:36:50</time>
      </trkpt>
      <trkpt lat="41.3747" lon="2.0433">
        <ele>92.6</ele>
        <time>2021-04-11 07:36:51</time>
      </trkpt>
      <trkpt lat="41.37472" lon="2.04323">
        <ele>92.8</ele>
        <time>2021-04-11 07:36:52</time>
      </trkpt>
      <trkpt lat="41.37474" lon="2.04315">
        <ele>93</ele>
        <time>2021-04-11 07:36:53</time>
      </trkpt>
      <trkpt lat="41.37474" lon="2.04308">
        <ele>93.2</ele>
        <time>2021-04-11 07:36:54</time>
      </trkpt>
      <trkpt lat="41.37474" lon="2.04299">
        <ele>93.4</ele>
        <time>2021-04-11 07:36:55</time>
      </trkpt>
      <trkpt lat="41.37474" lon="2.04291">
        <ele>93.6</ele>
        <time>2021-04-11 07:36:56</time>
      </trkpt>
      <trkpt lat="41.37475" lon="2.04284">
        <ele>93.6</ele>
        <time>2021-04-11 07:36:57</time>
      </trkpt>
      <trkpt lat="41.37478" lon="2.04277">
        <ele>93.6</ele>
        <time>2021-04-11 07:36:58</time>
      </trkpt>
      <trkpt lat="41.37482" lon="2.04271">
        <ele>93.8</ele>
        <time>2021-04-11 07:36:59</time>
      </trkpt>
      <trkpt lat="41.37486" lon="2.04266">
        <ele>94</ele>
        <time>2021-04-11 07:37:00</time>
      </trkpt>
      <trkpt lat="41.37491" lon="2.04261">
        <ele>94.2</ele>
        <time>2021-04-11 07:37:01</time>
      </trkpt>
      <trkpt lat="41.37495" lon="2.04256">
        <ele>94.4</ele>
        <time>2021-04-11 07:37:02</time>
      </trkpt>
      <trkpt lat="41.375" lon="2.04251">
        <ele>94.6</ele>
        <time>2021-04-11 07:37:03</time>
      </trkpt>
      <trkpt lat="41.37504" lon="2.04246">
        <ele>94.8</ele>
        <time>2021-04-11 07:37:04</time>
      </trkpt>
      <trkpt lat="41.37509" lon="2.0424">
        <ele>95</ele>
        <time>2021-04-11 07:37:05</time>
      </trkpt>
      <trkpt lat="41.37513" lon="2.04235">
        <ele>95.2</ele>
        <time>2021-04-11 07:37:06</time>
      </trkpt>
      <trkpt lat="41.37517" lon="2.0423">
        <ele>95.4</ele>
        <time>2021-04-11 07:37:07</time>
      </trkpt>
      <trkpt lat="41.37522" lon="2.04225">
        <ele>95.6</ele>
        <time>2021-04-11 07:37:08</time>
      </trkpt>
      <trkpt lat="41.37526" lon="2.0422">
        <ele>95.8</ele>
        <time>2021-04-11 07:37:09</time>
      </trkpt>
      <trkpt lat="41.37531" lon="2.04215">
        <ele>96</ele>
        <time>2021-04-11 07:37:10</time>
      </trkpt>
      <trkpt lat="41.37535" lon="2.0421">
        <ele>96.2</ele>
        <time>2021-04-11 07:37:11</time>
      </trkpt>
      <trkpt lat="41.37539" lon="2.04205">
        <ele>96.4</ele>
        <time>2021-04-11 07:37:12</time>
      </trkpt>
      <trkpt lat="41.37544" lon="2.04201">
        <ele>96.4</ele>
        <time>2021-04-11 07:37:13</time>
      </trkpt>
      <trkpt lat="41.37548" lon="2.04196">
        <ele>96.4</ele>
        <time>2021-04-11 07:37:14</time>
      </trkpt>
      <trkpt lat="41.37553" lon="2.04191">
        <ele>96.4</ele>
        <time>2021-04-11 07:37:15</time>
      </trkpt>
      <trkpt lat="41.37558" lon="2.04186">
        <ele>96.2</ele>
        <time>2021-04-11 07:37:16</time>
      </trkpt>
      <trkpt lat="41.37563" lon="2.0418">
        <ele>96.2</ele>
        <time>2021-04-11 07:37:17</time>
      </trkpt>
      <trkpt lat="41.37568" lon="2.04175">
        <ele>96</ele>
        <time>2021-04-11 07:37:18</time>
      </trkpt>
      <trkpt lat="41.37573" lon="2.0417">
        <ele>95.8</ele>
        <time>2021-04-11 07:37:19</time>
      </trkpt>
      <trkpt lat="41.37579" lon="2.04164">
        <ele>95.6</ele>
        <time>2021-04-11 07:37:20</time>
      </trkpt>
      <trkpt lat="41.37584" lon="2.04159">
        <ele>95.4</ele>
        <time>2021-04-11 07:37:21</time>
      </trkpt>
      <trkpt lat="41.3759" lon="2.04153">
        <ele>95.2</ele>
        <time>2021-04-11 07:37:22</time>
      </trkpt>
      <trkpt lat="41.37596" lon="2.04148">
        <ele>94.8</ele>
        <time>2021-04-11 07:37:23</time>
      </trkpt>
      <trkpt lat="41.37602" lon="2.04142">
        <ele>94.6</ele>
        <time>2021-04-11 07:37:24</time>
      </trkpt>
      <trkpt lat="41.37609" lon="2.04136">
        <ele>94.4</ele>
        <time>2021-04-11 07:37:25</time>
      </trkpt>
      <trkpt lat="41.37615" lon="2.0413">
        <ele>94.2</ele>
        <time>2021-04-11 07:37:26</time>
      </trkpt>
      <trkpt lat="41.37622" lon="2.04124">
        <ele>94</ele>
        <time>2021-04-11 07:37:27</time>
      </trkpt>
      <trkpt lat="41.37629" lon="2.04118">
        <ele>93.8</ele>
        <time>2021-04-11 07:37:28</time>
      </trkpt>
      <trkpt lat="41.37636" lon="2.04112">
        <ele>93.4</ele>
        <time>2021-04-11 07:37:29</time>
      </trkpt>
      <trkpt lat="41.37642" lon="2.04107">
        <ele>93.2</ele>
        <time>2021-04-11 07:37:30</time>
      </trkpt>
      <trkpt lat="41.37649" lon="2.041">
        <ele>92.8</ele>
        <time>2021-04-11 07:37:31</time>
      </trkpt>
      <trkpt lat="41.37656" lon="2.04094">
        <ele>92.4</ele>
        <time>2021-04-11 07:37:32</time>
      </trkpt>
      <trkpt lat="41.37663" lon="2.04089">
        <ele>92.2</ele>
        <time>2021-04-11 07:37:33</time>
      </trkpt>
      <trkpt lat="41.37671" lon="2.04085">
        <ele>92</ele>
        <time>2021-04-11 07:37:34</time>
      </trkpt>
      <trkpt lat="41.37679" lon="2.04083">
        <ele>91.6</ele>
        <time>2021-04-11 07:37:35</time>
      </trkpt>
      <trkpt lat="41.37687" lon="2.04081">
        <ele>91.4</ele>
        <time>2021-04-11 07:37:36</time>
      </trkpt>
      <trkpt lat="41.37694" lon="2.04076">
        <ele>91.2</ele>
        <time>2021-04-11 07:37:37</time>
      </trkpt>
      <trkpt lat="41.37701" lon="2.0407">
        <ele>91.2</ele>
        <time>2021-04-11 07:37:38</time>
      </trkpt>
      <trkpt lat="41.37706" lon="2.04063">
        <ele>91.2</ele>
        <time>2021-04-11 07:37:39</time>
      </trkpt>
      <trkpt lat="41.37712" lon="2.04056">
        <ele>91.2</ele>
        <time>2021-04-11 07:37:40</time>
      </trkpt>
      <trkpt lat="41.37718" lon="2.0405">
        <ele>91.2</ele>
        <time>2021-04-11 07:37:41</time>
      </trkpt>
      <trkpt lat="41.37724" lon="2.04045">
        <ele>91.2</ele>
        <time>2021-04-11 07:37:42</time>
      </trkpt>
      <trkpt lat="41.37731" lon="2.0404">
        <ele>91.2</ele>
        <time>2021-04-11 07:37:43</time>
      </trkpt>
      <trkpt lat="41.37737" lon="2.04035">
        <ele>91.2</ele>
        <time>2021-04-11 07:37:44</time>
      </trkpt>
      <trkpt lat="41.37744" lon="2.04031">
        <ele>91.2</ele>
        <time>2021-04-11 07:37:45</time>
      </trkpt>
      <trkpt lat="41.3775" lon="2.04026">
        <ele>91.2</ele>
        <time>2021-04-11 07:37:46</time>
      </trkpt>
      <trkpt lat="41.37756" lon="2.04021">
        <ele>91.2</ele>
        <time>2021-04-11 07:37:47</time>
      </trkpt>
      <trkpt lat="41.37763" lon="2.04016">
        <ele>91.2</ele>
        <time>2021-04-11 07:37:48</time>
      </trkpt>
      <trkpt lat="41.37769" lon="2.04012">
        <ele>91</ele>
        <time>2021-04-11 07:37:49</time>
      </trkpt>
      <trkpt lat="41.37776" lon="2.04007">
        <ele>91</ele>
        <time>2021-04-11 07:37:50</time>
      </trkpt>
      <trkpt lat="41.37782" lon="2.04002">
        <ele>91</ele>
        <time>2021-04-11 07:37:51</time>
      </trkpt>
      <trkpt lat="41.37789" lon="2.03998">
        <ele>91</ele>
        <time>2021-04-11 07:37:52</time>
      </trkpt>
      <trkpt lat="41.37795" lon="2.03994">
        <ele>91</ele>
        <time>2021-04-11 07:37:53</time>
      </trkpt>
      <trkpt lat="41.37801" lon="2.0399">
        <ele>90.8</ele>
        <time>2021-04-11 07:37:54</time>
      </trkpt>
      <trkpt lat="41.37808" lon="2.03985">
        <ele>91</ele>
        <time>2021-04-11 07:37:55</time>
      </trkpt>
      <trkpt lat="41.37815" lon="2.03981">
        <ele>91</ele>
        <time>2021-04-11 07:37:56</time>
      </trkpt>
      <trkpt lat="41.37821" lon="2.03977">
        <ele>91</ele>
        <time>2021-04-11 07:37:57</time>
      </trkpt>
      <trkpt lat="41.37827" lon="2.03973">
        <ele>91</ele>
        <time>2021-04-11 07:37:58</time>
      </trkpt>
      <trkpt lat="41.37833" lon="2.03969">
        <ele>91.2</ele>
        <time>2021-04-11 07:37:59</time>
      </trkpt>
      <trkpt lat="41.3784" lon="2.03965">
        <ele>91.2</ele>
        <time>2021-04-11 07:38:00</time>
      </trkpt>
      <trkpt lat="41.37846" lon="2.03963">
        <ele>91.2</ele>
        <time>2021-04-11 07:38:01</time>
      </trkpt>
      <trkpt lat="41.37853" lon="2.03962">
        <ele>91.4</ele>
        <time>2021-04-11 07:38:02</time>
      </trkpt>
      <trkpt lat="41.3786" lon="2.03962">
        <ele>91.4</ele>
        <time>2021-04-11 07:38:03</time>
      </trkpt>
      <trkpt lat="41.37866" lon="2.03961">
        <ele>91.4</ele>
        <time>2021-04-11 07:38:04</time>
      </trkpt>
      <trkpt lat="41.37873" lon="2.0396">
        <ele>91.4</ele>
        <time>2021-04-11 07:38:05</time>
      </trkpt>
      <trkpt lat="41.37879" lon="2.03957">
        <ele>91.4</ele>
        <time>2021-04-11 07:38:06</time>
      </trkpt>
      <trkpt lat="41.37885" lon="2.03952">
        <ele>91.4</ele>
        <time>2021-04-11 07:38:07</time>
      </trkpt>
      <trkpt lat="41.37891" lon="2.03947">
        <ele>91.4</ele>
        <time>2021-04-11 07:38:08</time>
      </trkpt>
      <trkpt lat="41.37897" lon="2.03943">
        <ele>91.4</ele>
        <time>2021-04-11 07:38:09</time>
      </trkpt>
      <trkpt lat="41.37903" lon="2.03939">
        <ele>91.4</ele>
        <time>2021-04-11 07:38:10</time>
      </trkpt>
      <trkpt lat="41.3791" lon="2.03936">
        <ele>91.4</ele>
        <time>2021-04-11 07:38:11</time>
      </trkpt>
      <trkpt lat="41.37916" lon="2.03933">
        <ele>91.6</ele>
        <time>2021-04-11 07:38:12</time>
      </trkpt>
      <trkpt lat="41.37922" lon="2.03929">
        <ele>91.6</ele>
        <time>2021-04-11 07:38:13</time>
      </trkpt>
      <trkpt lat="41.37929" lon="2.03926">
        <ele>91.6</ele>
        <time>2021-04-11 07:38:14</time>
      </trkpt>
      <trkpt lat="41.37935" lon="2.03923">
        <ele>91.6</ele>
        <time>2021-04-11 07:38:15</time>
      </trkpt>
      <trkpt lat="41.37941" lon="2.03919">
        <ele>91.6</ele>
        <time>2021-04-11 07:38:16</time>
      </trkpt>
      <trkpt lat="41.37947" lon="2.03915">
        <ele>91.6</ele>
        <time>2021-04-11 07:38:17</time>
      </trkpt>
      <trkpt lat="41.37953" lon="2.03911">
        <ele>91.6</ele>
        <time>2021-04-11 07:38:18</time>
      </trkpt>
      <trkpt lat="41.3796" lon="2.03908">
        <ele>91.8</ele>
        <time>2021-04-11 07:38:19</time>
      </trkpt>
      <trkpt lat="41.37966" lon="2.03904">
        <ele>91.8</ele>
        <time>2021-04-11 07:38:20</time>
      </trkpt>
      <trkpt lat="41.37972" lon="2.03901">
        <ele>91.8</ele>
        <time>2021-04-11 07:38:21</time>
      </trkpt>
      <trkpt lat="41.37978" lon="2.03897">
        <ele>91.8</ele>
        <time>2021-04-11 07:38:22</time>
      </trkpt>
      <trkpt lat="41.37985" lon="2.03894">
        <ele>91.8</ele>
        <time>2021-04-11 07:38:23</time>
      </trkpt>
      <trkpt lat="41.3799" lon="2.0389">
        <ele>91.8</ele>
        <time>2021-04-11 07:38:24</time>
      </trkpt>
      <trkpt lat="41.37996" lon="2.03887">
        <ele>91.8</ele>
        <time>2021-04-11 07:38:25</time>
      </trkpt>
      <trkpt lat="41.38003" lon="2.03883">
        <ele>91.8</ele>
        <time>2021-04-11 07:38:26</time>
      </trkpt>
      <trkpt lat="41.38009" lon="2.0388">
        <ele>92</ele>
        <time>2021-04-11 07:38:27</time>
      </trkpt>
      <trkpt lat="41.38015" lon="2.03876">
        <ele>92</ele>
        <time>2021-04-11 07:38:28</time>
      </trkpt>
      <trkpt lat="41.38021" lon="2.03872">
        <ele>92.2</ele>
        <time>2021-04-11 07:38:29</time>
      </trkpt>
      <trkpt lat="41.38028" lon="2.03869">
        <ele>92.2</ele>
        <time>2021-04-11 07:38:30</time>
      </trkpt>
      <trkpt lat="41.38034" lon="2.03866">
        <ele>92.2</ele>
        <time>2021-04-11 07:38:31</time>
      </trkpt>
      <trkpt lat="41.38041" lon="2.03862">
        <ele>92.2</ele>
        <time>2021-04-11 07:38:32</time>
      </trkpt>
      <trkpt lat="41.38047" lon="2.03858">
        <ele>92.2</ele>
        <time>2021-04-11 07:38:33</time>
      </trkpt>
      <trkpt lat="41.38054" lon="2.03854">
        <ele>92.2</ele>
        <time>2021-04-11 07:38:34</time>
      </trkpt>
      <trkpt lat="41.3806" lon="2.03851">
        <ele>92.4</ele>
        <time>2021-04-11 07:38:35</time>
      </trkpt>
      <trkpt lat="41.38067" lon="2.03847">
        <ele>92.4</ele>
        <time>2021-04-11 07:38:36</time>
      </trkpt>
      <trkpt lat="41.38074" lon="2.03844">
        <ele>92.6</ele>
        <time>2021-04-11 07:38:37</time>
      </trkpt>
      <trkpt lat="41.3808" lon="2.0384">
        <ele>92.6</ele>
        <time>2021-04-11 07:38:38</time>
      </trkpt>
      <trkpt lat="41.38086" lon="2.03837">
        <ele>92.4</ele>
        <time>2021-04-11 07:38:39</time>
      </trkpt>
      <trkpt lat="41.38092" lon="2.03833">
        <ele>92.4</ele>
        <time>2021-04-11 07:38:40</time>
      </trkpt>
      <trkpt lat="41.38099" lon="2.03829">
        <ele>92.6</ele>
        <time>2021-04-11 07:38:41</time>
      </trkpt>
      <trkpt lat="41.38106" lon="2.03826">
        <ele>92.6</ele>
        <time>2021-04-11 07:38:42</time>
      </trkpt>
      <trkpt lat="41.38112" lon="2.03822">
        <ele>92.6</ele>
        <time>2021-04-11 07:38:43</time>
      </trkpt>
      <trkpt lat="41.38118" lon="2.03819">
        <ele>92.6</ele>
        <time>2021-04-11 07:38:44</time>
      </trkpt>
      <trkpt lat="41.38125" lon="2.03815">
        <ele>92.6</ele>
        <time>2021-04-11 07:38:45</time>
      </trkpt>
      <trkpt lat="41.38131" lon="2.03811">
        <ele>92.6</ele>
        <time>2021-04-11 07:38:46</time>
      </trkpt>
      <trkpt lat="41.38137" lon="2.03808">
        <ele>92.8</ele>
        <time>2021-04-11 07:38:47</time>
      </trkpt>
      <trkpt lat="41.38144" lon="2.03804">
        <ele>92.8</ele>
        <time>2021-04-11 07:38:48</time>
      </trkpt>
      <trkpt lat="41.38149" lon="2.038">
        <ele>92.8</ele>
        <time>2021-04-11 07:38:49</time>
      </trkpt>
      <trkpt lat="41.38157" lon="2.03796">
        <ele>92.8</ele>
        <time>2021-04-11 07:38:50</time>
      </trkpt>
      <trkpt lat="41.38163" lon="2.03793">
        <ele>93</ele>
        <time>2021-04-11 07:38:51</time>
      </trkpt>
      <trkpt lat="41.3817" lon="2.03789">
        <ele>93</ele>
        <time>2021-04-11 07:38:52</time>
      </trkpt>
      <trkpt lat="41.38176" lon="2.03785">
        <ele>93</ele>
        <time>2021-04-11 07:38:53</time>
      </trkpt>
      <trkpt lat="41.38183" lon="2.03782">
        <ele>93.2</ele>
        <time>2021-04-11 07:38:54</time>
      </trkpt>
      <trkpt lat="41.38189" lon="2.03778">
        <ele>93.2</ele>
        <time>2021-04-11 07:38:55</time>
      </trkpt>
      <trkpt lat="41.38195" lon="2.03775">
        <ele>93.2</ele>
        <time>2021-04-11 07:38:56</time>
      </trkpt>
      <trkpt lat="41.38202" lon="2.03771">
        <ele>93.4</ele>
        <time>2021-04-11 07:38:57</time>
      </trkpt>
      <trkpt lat="41.38209" lon="2.03767">
        <ele>93.4</ele>
        <time>2021-04-11 07:38:58</time>
      </trkpt>
      <trkpt lat="41.38215" lon="2.03764">
        <ele>93.4</ele>
        <time>2021-04-11 07:38:59</time>
      </trkpt>
      <trkpt lat="41.38222" lon="2.03761">
        <ele>93.4</ele>
        <time>2021-04-11 07:39:00</time>
      </trkpt>
      <trkpt lat="41.38228" lon="2.03757">
        <ele>93.4</ele>
        <time>2021-04-11 07:39:01</time>
      </trkpt>
      <trkpt lat="41.38234" lon="2.03753">
        <ele>93.4</ele>
        <time>2021-04-11 07:39:02</time>
      </trkpt>
      <trkpt lat="41.38241" lon="2.03749">
        <ele>93.6</ele>
        <time>2021-04-11 07:39:03</time>
      </trkpt>
      <trkpt lat="41.38247" lon="2.03745">
        <ele>93.6</ele>
        <time>2021-04-11 07:39:04</time>
      </trkpt>
      <trkpt lat="41.38254" lon="2.03742">
        <ele>93.8</ele>
        <time>2021-04-11 07:39:05</time>
      </trkpt>
      <trkpt lat="41.3826" lon="2.03738">
        <ele>93.8</ele>
        <time>2021-04-11 07:39:06</time>
      </trkpt>
      <trkpt lat="41.38266" lon="2.03734">
        <ele>93.8</ele>
        <time>2021-04-11 07:39:07</time>
      </trkpt>
      <trkpt lat="41.38272" lon="2.03731">
        <ele>94</ele>
        <time>2021-04-11 07:39:08</time>
      </trkpt>
      <trkpt lat="41.38278" lon="2.03727">
        <ele>94</ele>
        <time>2021-04-11 07:39:09</time>
      </trkpt>
      <trkpt lat="41.38285" lon="2.03723">
        <ele>94</ele>
        <time>2021-04-11 07:39:10</time>
      </trkpt>
      <trkpt lat="41.38291" lon="2.0372">
        <ele>94.2</ele>
        <time>2021-04-11 07:39:11</time>
      </trkpt>
      <trkpt lat="41.38297" lon="2.03716">
        <ele>94.2</ele>
        <time>2021-04-11 07:39:12</time>
      </trkpt>
      <trkpt lat="41.38304" lon="2.03712">
        <ele>94.4</ele>
        <time>2021-04-11 07:39:13</time>
      </trkpt>
      <trkpt lat="41.3831" lon="2.03709">
        <ele>94.4</ele>
        <time>2021-04-11 07:39:14</time>
      </trkpt>
      <trkpt lat="41.38316" lon="2.03706">
        <ele>94.6</ele>
        <time>2021-04-11 07:39:15</time>
      </trkpt>
      <trkpt lat="41.38322" lon="2.03702">
        <ele>94.8</ele>
        <time>2021-04-11 07:39:16</time>
      </trkpt>
      <trkpt lat="41.38327" lon="2.03699">
        <ele>95.2</ele>
        <time>2021-04-11 07:39:17</time>
      </trkpt>
      <trkpt lat="41.38333" lon="2.03696">
        <ele>95.4</ele>
        <time>2021-04-11 07:39:18</time>
      </trkpt>
      <trkpt lat="41.38338" lon="2.03693">
        <ele>95.8</ele>
        <time>2021-04-11 07:39:19</time>
      </trkpt>
      <trkpt lat="41.38343" lon="2.0369">
        <ele>96.2</ele>
        <time>2021-04-11 07:39:20</time>
      </trkpt>
      <trkpt lat="41.38348" lon="2.03687">
        <ele>96.6</ele>
        <time>2021-04-11 07:39:21</time>
      </trkpt>
      <trkpt lat="41.38353" lon="2.03684">
        <ele>96.8</ele>
        <time>2021-04-11 07:39:22</time>
      </trkpt>
      <trkpt lat="41.38358" lon="2.03682">
        <ele>97.2</ele>
        <time>2021-04-11 07:39:23</time>
      </trkpt>
      <trkpt lat="41.38363" lon="2.03679">
        <ele>97.2</ele>
        <time>2021-04-11 07:39:24</time>
      </trkpt>
      <trkpt lat="41.38369" lon="2.03676">
        <ele>97.2</ele>
        <time>2021-04-11 07:39:25</time>
      </trkpt>
      <trkpt lat="41.38374" lon="2.03674">
        <ele>97.2</ele>
        <time>2021-04-11 07:39:26</time>
      </trkpt>
      <trkpt lat="41.3838" lon="2.03671">
        <ele>97</ele>
        <time>2021-04-11 07:39:27</time>
      </trkpt>
      <trkpt lat="41.38385" lon="2.03668">
        <ele>96.8</ele>
        <time>2021-04-11 07:39:28</time>
      </trkpt>
      <trkpt lat="41.38391" lon="2.03665">
        <ele>96.6</ele>
        <time>2021-04-11 07:39:29</time>
      </trkpt>
      <trkpt lat="41.38396" lon="2.03662">
        <ele>96.4</ele>
        <time>2021-04-11 07:39:30</time>
      </trkpt>
      <trkpt lat="41.38401" lon="2.0366">
        <ele>96.4</ele>
        <time>2021-04-11 07:39:31</time>
      </trkpt>
      <trkpt lat="41.38405" lon="2.03658">
        <ele>96.2</ele>
        <time>2021-04-11 07:39:32</time>
      </trkpt>
      <trkpt lat="41.38409" lon="2.03656">
        <ele>96</ele>
        <time>2021-04-11 07:39:33</time>
      </trkpt>
      <trkpt lat="41.38411" lon="2.03655">
        <ele>96</ele>
        <time>2021-04-11 07:39:34</time>
      </trkpt>
      <trkpt lat="41.38413" lon="2.03654">
        <ele>95.8</ele>
        <time>2021-04-11 07:39:35</time>
      </trkpt>
      <trkpt lat="41.38415" lon="2.03653">
        <ele>95.8</ele>
        <time>2021-04-11 07:39:36</time>
      </trkpt>
      <trkpt lat="41.38415" lon="2.03652">
        <ele>95.4</ele>
        <time>2021-04-11 07:39:49</time>
      </trkpt>
      <trkpt lat="41.38417" lon="2.03652">
        <ele>95.4</ele>
        <time>2021-04-11 07:39:50</time>
      </trkpt>
      <trkpt lat="41.38419" lon="2.0365">
        <ele>95.4</ele>
        <time>2021-04-11 07:39:51</time>
      </trkpt>
      <trkpt lat="41.38421" lon="2.03649">
        <ele>95.4</ele>
        <time>2021-04-11 07:39:52</time>
      </trkpt>
      <trkpt lat="41.38424" lon="2.03648">
        <ele>95.2</ele>
        <time>2021-04-11 07:39:53</time>
      </trkpt>
      <trkpt lat="41.38428" lon="2.03647">
        <ele>95</ele>
        <time>2021-04-11 07:39:54</time>
      </trkpt>
      <trkpt lat="41.38431" lon="2.03646">
        <ele>94.8</ele>
        <time>2021-04-11 07:39:55</time>
      </trkpt>
      <trkpt lat="41.38435" lon="2.03644">
        <ele>94.6</ele>
        <time>2021-04-11 07:39:56</time>
      </trkpt>
      <trkpt lat="41.3844" lon="2.03642">
        <ele>94.4</ele>
        <time>2021-04-11 07:39:57</time>
      </trkpt>
      <trkpt lat="41.38444" lon="2.03639">
        <ele>94.2</ele>
        <time>2021-04-11 07:39:58</time>
      </trkpt>
      <trkpt lat="41.38449" lon="2.03636">
        <ele>94</ele>
        <time>2021-04-11 07:39:59</time>
      </trkpt>
      <trkpt lat="41.38454" lon="2.03633">
        <ele>94</ele>
        <time>2021-04-11 07:40:00</time>
      </trkpt>
      <trkpt lat="41.38459" lon="2.03629">
        <ele>93.8</ele>
        <time>2021-04-11 07:40:01</time>
      </trkpt>
      <trkpt lat="41.38464" lon="2.03626">
        <ele>93.6</ele>
        <time>2021-04-11 07:40:02</time>
      </trkpt>
      <trkpt lat="41.38469" lon="2.03623">
        <ele>93.6</ele>
        <time>2021-04-11 07:40:03</time>
      </trkpt>
      <trkpt lat="41.38475" lon="2.03619">
        <ele>93.6</ele>
        <time>2021-04-11 07:40:04</time>
      </trkpt>
      <trkpt lat="41.3848" lon="2.03616">
        <ele>93.4</ele>
        <time>2021-04-11 07:40:05</time>
      </trkpt>
      <trkpt lat="41.38486" lon="2.03613">
        <ele>93.4</ele>
        <time>2021-04-11 07:40:06</time>
      </trkpt>
      <trkpt lat="41.38491" lon="2.03611">
        <ele>93.4</ele>
        <time>2021-04-11 07:40:07</time>
      </trkpt>
      <trkpt lat="41.38497" lon="2.03608">
        <ele>93.2</ele>
        <time>2021-04-11 07:40:08</time>
      </trkpt>
      <trkpt lat="41.38502" lon="2.03604">
        <ele>93.2</ele>
        <time>2021-04-11 07:40:09</time>
      </trkpt>
      <trkpt lat="41.38508" lon="2.03601">
        <ele>93.2</ele>
        <time>2021-04-11 07:40:10</time>
      </trkpt>
      <trkpt lat="41.38514" lon="2.03597">
        <ele>93.2</ele>
        <time>2021-04-11 07:40:11</time>
      </trkpt>
      <trkpt lat="41.3852" lon="2.03594">
        <ele>93.2</ele>
        <time>2021-04-11 07:40:12</time>
      </trkpt>
      <trkpt lat="41.38525" lon="2.0359">
        <ele>93.2</ele>
        <time>2021-04-11 07:40:13</time>
      </trkpt>
      <trkpt lat="41.38531" lon="2.03587">
        <ele>93</ele>
        <time>2021-04-11 07:40:14</time>
      </trkpt>
      <trkpt lat="41.38537" lon="2.03583">
        <ele>93</ele>
        <time>2021-04-11 07:40:15</time>
      </trkpt>
      <trkpt lat="41.38543" lon="2.03579">
        <ele>93</ele>
        <time>2021-04-11 07:40:16</time>
      </trkpt>
      <trkpt lat="41.38549" lon="2.03576">
        <ele>93</ele>
        <time>2021-04-11 07:40:17</time>
      </trkpt>
      <trkpt lat="41.38555" lon="2.03572">
        <ele>93</ele>
        <time>2021-04-11 07:40:18</time>
      </trkpt>
      <trkpt lat="41.38561" lon="2.03568">
        <ele>93</ele>
        <time>2021-04-11 07:40:19</time>
      </trkpt>
      <trkpt lat="41.38567" lon="2.03564">
        <ele>93</ele>
        <time>2021-04-11 07:40:20</time>
      </trkpt>
      <trkpt lat="41.38574" lon="2.03561">
        <ele>93</ele>
        <time>2021-04-11 07:40:21</time>
      </trkpt>
      <trkpt lat="41.3858" lon="2.03557">
        <ele>93</ele>
        <time>2021-04-11 07:40:22</time>
      </trkpt>
      <trkpt lat="41.38586" lon="2.03553">
        <ele>93</ele>
        <time>2021-04-11 07:40:23</time>
      </trkpt>
      <trkpt lat="41.38592" lon="2.0355">
        <ele>92.8</ele>
        <time>2021-04-11 07:40:24</time>
      </trkpt>
      <trkpt lat="41.38598" lon="2.03546">
        <ele>92.8</ele>
        <time>2021-04-11 07:40:25</time>
      </trkpt>
      <trkpt lat="41.38604" lon="2.03543">
        <ele>93</ele>
        <time>2021-04-11 07:40:26</time>
      </trkpt>
      <trkpt lat="41.3861" lon="2.0354">
        <ele>93</ele>
        <time>2021-04-11 07:40:27</time>
      </trkpt>
      <trkpt lat="41.38617" lon="2.03537">
        <ele>93.2</ele>
        <time>2021-04-11 07:40:28</time>
      </trkpt>
      <trkpt lat="41.38622" lon="2.03534">
        <ele>93.2</ele>
        <time>2021-04-11 07:40:29</time>
      </trkpt>
      <trkpt lat="41.38629" lon="2.0353">
        <ele>93.2</ele>
        <time>2021-04-11 07:40:30</time>
      </trkpt>
      <trkpt lat="41.38635" lon="2.03526">
        <ele>93</ele>
        <time>2021-04-11 07:40:31</time>
      </trkpt>
      <trkpt lat="41.38641" lon="2.03523">
        <ele>93</ele>
        <time>2021-04-11 07:40:32</time>
      </trkpt>
      <trkpt lat="41.38646" lon="2.03519">
        <ele>93.2</ele>
        <time>2021-04-11 07:40:33</time>
      </trkpt>
      <trkpt lat="41.38653" lon="2.03516">
        <ele>93.2</ele>
        <time>2021-04-11 07:40:34</time>
      </trkpt>
      <trkpt lat="41.38659" lon="2.03512">
        <ele>93.2</ele>
        <time>2021-04-11 07:40:35</time>
      </trkpt>
      <trkpt lat="41.38665" lon="2.03509">
        <ele>93.2</ele>
        <time>2021-04-11 07:40:36</time>
      </trkpt>
      <trkpt lat="41.38671" lon="2.03505">
        <ele>93.2</ele>
        <time>2021-04-11 07:40:37</time>
      </trkpt>
      <trkpt lat="41.38678" lon="2.03501">
        <ele>93.2</ele>
        <time>2021-04-11 07:40:38</time>
      </trkpt>
      <trkpt lat="41.38684" lon="2.03498">
        <ele>93.2</ele>
        <time>2021-04-11 07:40:39</time>
      </trkpt>
      <trkpt lat="41.3869" lon="2.03494">
        <ele>93</ele>
        <time>2021-04-11 07:40:40</time>
      </trkpt>
      <trkpt lat="41.38696" lon="2.0349">
        <ele>93</ele>
        <time>2021-04-11 07:40:41</time>
      </trkpt>
      <trkpt lat="41.38703" lon="2.03487">
        <ele>93</ele>
        <time>2021-04-11 07:40:42</time>
      </trkpt>
      <trkpt lat="41.38709" lon="2.03483">
        <ele>92.8</ele>
        <time>2021-04-11 07:40:43</time>
      </trkpt>
      <trkpt lat="41.38715" lon="2.03479">
        <ele>92.8</ele>
        <time>2021-04-11 07:40:44</time>
      </trkpt>
      <trkpt lat="41.38722" lon="2.03476">
        <ele>93</ele>
        <time>2021-04-11 07:40:45</time>
      </trkpt>
      <trkpt lat="41.38728" lon="2.03472">
        <ele>93</ele>
        <time>2021-04-11 07:40:46</time>
      </trkpt>
      <trkpt lat="41.38734" lon="2.03468">
        <ele>93</ele>
        <time>2021-04-11 07:40:47</time>
      </trkpt>
      <trkpt lat="41.3874" lon="2.03464">
        <ele>93</ele>
        <time>2021-04-11 07:40:48</time>
      </trkpt>
      <trkpt lat="41.38747" lon="2.03461">
        <ele>93</ele>
        <time>2021-04-11 07:40:49</time>
      </trkpt>
      <trkpt lat="41.38752" lon="2.03458">
        <ele>93.2</ele>
        <time>2021-04-11 07:40:50</time>
      </trkpt>
      <trkpt lat="41.38759" lon="2.03454">
        <ele>93.2</ele>
        <time>2021-04-11 07:40:51</time>
      </trkpt>
      <trkpt lat="41.38765" lon="2.0345">
        <ele>93.2</ele>
        <time>2021-04-11 07:40:52</time>
      </trkpt>
      <trkpt lat="41.38771" lon="2.03447">
        <ele>93.2</ele>
        <time>2021-04-11 07:40:53</time>
      </trkpt>
      <trkpt lat="41.38778" lon="2.03443">
        <ele>93.2</ele>
        <time>2021-04-11 07:40:54</time>
      </trkpt>
      <trkpt lat="41.38784" lon="2.03439">
        <ele>93.2</ele>
        <time>2021-04-11 07:40:55</time>
      </trkpt>
      <trkpt lat="41.3879" lon="2.03435">
        <ele>93.2</ele>
        <time>2021-04-11 07:40:56</time>
      </trkpt>
      <trkpt lat="41.38796" lon="2.03431">
        <ele>93.2</ele>
        <time>2021-04-11 07:40:57</time>
      </trkpt>
      <trkpt lat="41.38803" lon="2.03428">
        <ele>93.2</ele>
        <time>2021-04-11 07:40:58</time>
      </trkpt>
      <trkpt lat="41.38809" lon="2.03424">
        <ele>93.2</ele>
        <time>2021-04-11 07:40:59</time>
      </trkpt>
      <trkpt lat="41.38815" lon="2.0342">
        <ele>93.4</ele>
        <time>2021-04-11 07:41:00</time>
      </trkpt>
      <trkpt lat="41.38821" lon="2.03416">
        <ele>93.4</ele>
        <time>2021-04-11 07:41:01</time>
      </trkpt>
      <trkpt lat="41.38828" lon="2.03412">
        <ele>93.4</ele>
        <time>2021-04-11 07:41:02</time>
      </trkpt>
      <trkpt lat="41.38834" lon="2.03409">
        <ele>93.4</ele>
        <time>2021-04-11 07:41:03</time>
      </trkpt>
      <trkpt lat="41.3884" lon="2.03405">
        <ele>93.4</ele>
        <time>2021-04-11 07:41:04</time>
      </trkpt>
      <trkpt lat="41.38846" lon="2.03401">
        <ele>93.4</ele>
        <time>2021-04-11 07:41:05</time>
      </trkpt>
      <trkpt lat="41.38852" lon="2.03397">
        <ele>93.4</ele>
        <time>2021-04-11 07:41:06</time>
      </trkpt>
      <trkpt lat="41.38859" lon="2.03393">
        <ele>93.4</ele>
        <time>2021-04-11 07:41:07</time>
      </trkpt>
      <trkpt lat="41.38865" lon="2.03389">
        <ele>93.6</ele>
        <time>2021-04-11 07:41:08</time>
      </trkpt>
      <trkpt lat="41.38871" lon="2.03386">
        <ele>93.6</ele>
        <time>2021-04-11 07:41:09</time>
      </trkpt>
      <trkpt lat="41.38877" lon="2.03382">
        <ele>93.6</ele>
        <time>2021-04-11 07:41:10</time>
      </trkpt>
      <trkpt lat="41.38883" lon="2.03378">
        <ele>93.6</ele>
        <time>2021-04-11 07:41:11</time>
      </trkpt>
      <trkpt lat="41.38889" lon="2.03374">
        <ele>93.6</ele>
        <time>2021-04-11 07:41:12</time>
      </trkpt>
      <trkpt lat="41.38895" lon="2.0337">
        <ele>93.8</ele>
        <time>2021-04-11 07:41:13</time>
      </trkpt>
      <trkpt lat="41.389" lon="2.03367">
        <ele>93.8</ele>
        <time>2021-04-11 07:41:14</time>
      </trkpt>
      <trkpt lat="41.38906" lon="2.03364">
        <ele>94</ele>
        <time>2021-04-11 07:41:15</time>
      </trkpt>
      <trkpt lat="41.38911" lon="2.03361">
        <ele>94</ele>
        <time>2021-04-11 07:41:16</time>
      </trkpt>
      <trkpt lat="41.38916" lon="2.03358">
        <ele>94</ele>
        <time>2021-04-11 07:41:17</time>
      </trkpt>
      <trkpt lat="41.38921" lon="2.03356">
        <ele>94.2</ele>
        <time>2021-04-11 07:41:18</time>
      </trkpt>
      <trkpt lat="41.38927" lon="2.03354">
        <ele>94.2</ele>
        <time>2021-04-11 07:41:19</time>
      </trkpt>
      <trkpt lat="41.38932" lon="2.03353">
        <ele>94.2</ele>
        <time>2021-04-11 07:41:20</time>
      </trkpt>
      <trkpt lat="41.38937" lon="2.03351">
        <ele>94.2</ele>
        <time>2021-04-11 07:41:21</time>
      </trkpt>
      <trkpt lat="41.38943" lon="2.03349">
        <ele>94.4</ele>
        <time>2021-04-11 07:41:22</time>
      </trkpt>
      <trkpt lat="41.38948" lon="2.03345">
        <ele>94.4</ele>
        <time>2021-04-11 07:41:23</time>
      </trkpt>
      <trkpt lat="41.38954" lon="2.0334">
        <ele>94.4</ele>
        <time>2021-04-11 07:41:24</time>
      </trkpt>
      <trkpt lat="41.38959" lon="2.03337">
        <ele>94.2</ele>
        <time>2021-04-11 07:41:25</time>
      </trkpt>
      <trkpt lat="41.38965" lon="2.03333">
        <ele>94.2</ele>
        <time>2021-04-11 07:41:26</time>
      </trkpt>
      <trkpt lat="41.38971" lon="2.0333">
        <ele>94.2</ele>
        <time>2021-04-11 07:41:27</time>
      </trkpt>
      <trkpt lat="41.38978" lon="2.03326">
        <ele>94</ele>
        <time>2021-04-11 07:41:28</time>
      </trkpt>
      <trkpt lat="41.38984" lon="2.03322">
        <ele>94</ele>
        <time>2021-04-11 07:41:29</time>
      </trkpt>
      <trkpt lat="41.38991" lon="2.03319">
        <ele>93.8</ele>
        <time>2021-04-11 07:41:30</time>
      </trkpt>
      <trkpt lat="41.38997" lon="2.03315">
        <ele>93.8</ele>
        <time>2021-04-11 07:41:31</time>
      </trkpt>
      <trkpt lat="41.39004" lon="2.03312">
        <ele>93.8</ele>
        <time>2021-04-11 07:41:32</time>
      </trkpt>
      <trkpt lat="41.3901" lon="2.03308">
        <ele>93.8</ele>
        <time>2021-04-11 07:41:33</time>
      </trkpt>
      <trkpt lat="41.39017" lon="2.03304">
        <ele>93.8</ele>
        <time>2021-04-11 07:41:34</time>
      </trkpt>
      <trkpt lat="41.39023" lon="2.033">
        <ele>93.8</ele>
        <time>2021-04-11 07:41:35</time>
      </trkpt>
      <trkpt lat="41.3903" lon="2.03296">
        <ele>93.8</ele>
        <time>2021-04-11 07:41:36</time>
      </trkpt>
      <trkpt lat="41.39037" lon="2.03292">
        <ele>93.8</ele>
        <time>2021-04-11 07:41:37</time>
      </trkpt>
      <trkpt lat="41.39043" lon="2.03289">
        <ele>93.8</ele>
        <time>2021-04-11 07:41:38</time>
      </trkpt>
      <trkpt lat="41.3905" lon="2.03285">
        <ele>93.8</ele>
        <time>2021-04-11 07:41:39</time>
      </trkpt>
      <trkpt lat="41.39057" lon="2.0328">
        <ele>93.8</ele>
        <time>2021-04-11 07:41:40</time>
      </trkpt>
      <trkpt lat="41.39063" lon="2.03277">
        <ele>93.8</ele>
        <time>2021-04-11 07:41:41</time>
      </trkpt>
      <trkpt lat="41.3907" lon="2.03273">
        <ele>93.8</ele>
        <time>2021-04-11 07:41:42</time>
      </trkpt>
      <trkpt lat="41.39076" lon="2.03269">
        <ele>93.8</ele>
        <time>2021-04-11 07:41:43</time>
      </trkpt>
      <trkpt lat="41.39083" lon="2.03265">
        <ele>94</ele>
        <time>2021-04-11 07:41:44</time>
      </trkpt>
      <trkpt lat="41.39089" lon="2.03261">
        <ele>94</ele>
        <time>2021-04-11 07:41:45</time>
      </trkpt>
      <trkpt lat="41.39096" lon="2.03258">
        <ele>94</ele>
        <time>2021-04-11 07:41:46</time>
      </trkpt>
      <trkpt lat="41.39103" lon="2.03254">
        <ele>93.8</ele>
        <time>2021-04-11 07:41:47</time>
      </trkpt>
      <trkpt lat="41.39109" lon="2.0325">
        <ele>93.8</ele>
        <time>2021-04-11 07:41:48</time>
      </trkpt>
      <trkpt lat="41.39116" lon="2.03246">
        <ele>93.8</ele>
        <time>2021-04-11 07:41:49</time>
      </trkpt>
      <trkpt lat="41.39123" lon="2.03242">
        <ele>93.8</ele>
        <time>2021-04-11 07:41:50</time>
      </trkpt>
      <trkpt lat="41.39129" lon="2.03238">
        <ele>93.8</ele>
        <time>2021-04-11 07:41:51</time>
      </trkpt>
      <trkpt lat="41.39135" lon="2.03234">
        <ele>94</ele>
        <time>2021-04-11 07:41:52</time>
      </trkpt>
      <trkpt lat="41.39142" lon="2.0323">
        <ele>94</ele>
        <time>2021-04-11 07:41:53</time>
      </trkpt>
      <trkpt lat="41.39149" lon="2.03226">
        <ele>94</ele>
        <time>2021-04-11 07:41:54</time>
      </trkpt>
      <trkpt lat="41.39155" lon="2.03222">
        <ele>94.2</ele>
        <time>2021-04-11 07:41:55</time>
      </trkpt>
      <trkpt lat="41.39162" lon="2.03218">
        <ele>94</ele>
        <time>2021-04-11 07:41:56</time>
      </trkpt>
      <trkpt lat="41.39169" lon="2.03215">
        <ele>94</ele>
        <time>2021-04-11 07:41:57</time>
      </trkpt>
      <trkpt lat="41.39176" lon="2.03211">
        <ele>94</ele>
        <time>2021-04-11 07:41:58</time>
      </trkpt>
      <trkpt lat="41.39183" lon="2.03207">
        <ele>93.8</ele>
        <time>2021-04-11 07:41:59</time>
      </trkpt>
      <trkpt lat="41.3919" lon="2.03203">
        <ele>93.8</ele>
        <time>2021-04-11 07:42:00</time>
      </trkpt>
      <trkpt lat="41.39197" lon="2.032">
        <ele>93.8</ele>
        <time>2021-04-11 07:42:01</time>
      </trkpt>
      <trkpt lat="41.39203" lon="2.03196">
        <ele>93.8</ele>
        <time>2021-04-11 07:42:02</time>
      </trkpt>
      <trkpt lat="41.3921" lon="2.03193">
        <ele>93.8</ele>
        <time>2021-04-11 07:42:03</time>
      </trkpt>
      <trkpt lat="41.39217" lon="2.03189">
        <ele>93.6</ele>
        <time>2021-04-11 07:42:04</time>
      </trkpt>
      <trkpt lat="41.39224" lon="2.03185">
        <ele>93.8</ele>
        <time>2021-04-11 07:42:05</time>
      </trkpt>
      <trkpt lat="41.39231" lon="2.03182">
        <ele>93.6</ele>
        <time>2021-04-11 07:42:06</time>
      </trkpt>
      <trkpt lat="41.39237" lon="2.03178">
        <ele>93.8</ele>
        <time>2021-04-11 07:42:07</time>
      </trkpt>
      <trkpt lat="41.39244" lon="2.03174">
        <ele>93.8</ele>
        <time>2021-04-11 07:42:08</time>
      </trkpt>
      <trkpt lat="41.3925" lon="2.03171">
        <ele>93.8</ele>
        <time>2021-04-11 07:42:09</time>
      </trkpt>
      <trkpt lat="41.39257" lon="2.03167">
        <ele>93.8</ele>
        <time>2021-04-11 07:42:10</time>
      </trkpt>
      <trkpt lat="41.39264" lon="2.03163">
        <ele>93.8</ele>
        <time>2021-04-11 07:42:11</time>
      </trkpt>
      <trkpt lat="41.3927" lon="2.03159">
        <ele>93.8</ele>
        <time>2021-04-11 07:42:12</time>
      </trkpt>
      <trkpt lat="41.39276" lon="2.03155">
        <ele>93.8</ele>
        <time>2021-04-11 07:42:13</time>
      </trkpt>
      <trkpt lat="41.39282" lon="2.03151">
        <ele>93.8</ele>
        <time>2021-04-11 07:42:14</time>
      </trkpt>
      <trkpt lat="41.39289" lon="2.03147">
        <ele>93.8</ele>
        <time>2021-04-11 07:42:15</time>
      </trkpt>
      <trkpt lat="41.39296" lon="2.03143">
        <ele>93.8</ele>
        <time>2021-04-11 07:42:16</time>
      </trkpt>
      <trkpt lat="41.39302" lon="2.03139">
        <ele>93.8</ele>
        <time>2021-04-11 07:42:17</time>
      </trkpt>
      <trkpt lat="41.39308" lon="2.03135">
        <ele>93.8</ele>
        <time>2021-04-11 07:42:18</time>
      </trkpt>
      <trkpt lat="41.39315" lon="2.03131">
        <ele>93.8</ele>
        <time>2021-04-11 07:42:19</time>
      </trkpt>
      <trkpt lat="41.39322" lon="2.03126">
        <ele>93.8</ele>
        <time>2021-04-11 07:42:20</time>
      </trkpt>
      <trkpt lat="41.39328" lon="2.03122">
        <ele>93.6</ele>
        <time>2021-04-11 07:42:21</time>
      </trkpt>
      <trkpt lat="41.39334" lon="2.03118">
        <ele>93.6</ele>
        <time>2021-04-11 07:42:22</time>
      </trkpt>
      <trkpt lat="41.3934" lon="2.03114">
        <ele>93.6</ele>
        <time>2021-04-11 07:42:23</time>
      </trkpt>
      <trkpt lat="41.39347" lon="2.0311">
        <ele>93.6</ele>
        <time>2021-04-11 07:42:24</time>
      </trkpt>
      <trkpt lat="41.39353" lon="2.03106">
        <ele>93.8</ele>
        <time>2021-04-11 07:42:25</time>
      </trkpt>
      <trkpt lat="41.39359" lon="2.03102">
        <ele>93.8</ele>
        <time>2021-04-11 07:42:26</time>
      </trkpt>
      <trkpt lat="41.39366" lon="2.03098">
        <ele>93.8</ele>
        <time>2021-04-11 07:42:27</time>
      </trkpt>
      <trkpt lat="41.39372" lon="2.03095">
        <ele>93.8</ele>
        <time>2021-04-11 07:42:28</time>
      </trkpt>
      <trkpt lat="41.39378" lon="2.0309">
        <ele>93.8</ele>
        <time>2021-04-11 07:42:29</time>
      </trkpt>
      <trkpt lat="41.39385" lon="2.03086">
        <ele>93.8</ele>
        <time>2021-04-11 07:42:30</time>
      </trkpt>
      <trkpt lat="41.39392" lon="2.03082">
        <ele>93.8</ele>
        <time>2021-04-11 07:42:31</time>
      </trkpt>
      <trkpt lat="41.39398" lon="2.03078">
        <ele>93.8</ele>
        <time>2021-04-11 07:42:32</time>
      </trkpt>
      <trkpt lat="41.39405" lon="2.03074">
        <ele>93.8</ele>
        <time>2021-04-11 07:42:33</time>
      </trkpt>
      <trkpt lat="41.39412" lon="2.0307">
        <ele>94</ele>
        <time>2021-04-11 07:42:34</time>
      </trkpt>
      <trkpt lat="41.39418" lon="2.03066">
        <ele>94</ele>
        <time>2021-04-11 07:42:35</time>
      </trkpt>
      <trkpt lat="41.39425" lon="2.03062">
        <ele>94.2</ele>
        <time>2021-04-11 07:42:36</time>
      </trkpt>
      <trkpt lat="41.39431" lon="2.03058">
        <ele>94.4</ele>
        <time>2021-04-11 07:42:37</time>
      </trkpt>
      <trkpt lat="41.39437" lon="2.03055">
        <ele>94.4</ele>
        <time>2021-04-11 07:42:38</time>
      </trkpt>
      <trkpt lat="41.39444" lon="2.03051">
        <ele>94.6</ele>
        <time>2021-04-11 07:42:39</time>
      </trkpt>
      <trkpt lat="41.3945" lon="2.03047">
        <ele>94.6</ele>
        <time>2021-04-11 07:42:40</time>
      </trkpt>
      <trkpt lat="41.39456" lon="2.03042">
        <ele>94.6</ele>
        <time>2021-04-11 07:42:41</time>
      </trkpt>
      <trkpt lat="41.39462" lon="2.03037">
        <ele>94.6</ele>
        <time>2021-04-11 07:42:42</time>
      </trkpt>
      <trkpt lat="41.39467" lon="2.03032">
        <ele>94.8</ele>
        <time>2021-04-11 07:42:43</time>
      </trkpt>
      <trkpt lat="41.39474" lon="2.03027">
        <ele>94.8</ele>
        <time>2021-04-11 07:42:44</time>
      </trkpt>
      <trkpt lat="41.39479" lon="2.03023">
        <ele>95</ele>
        <time>2021-04-11 07:42:45</time>
      </trkpt>
      <trkpt lat="41.39486" lon="2.03019">
        <ele>95</ele>
        <time>2021-04-11 07:42:46</time>
      </trkpt>
      <trkpt lat="41.39493" lon="2.03017">
        <ele>95</ele>
        <time>2021-04-11 07:42:47</time>
      </trkpt>
      <trkpt lat="41.39499" lon="2.03014">
        <ele>95.2</ele>
        <time>2021-04-11 07:42:48</time>
      </trkpt>
      <trkpt lat="41.39505" lon="2.03011">
        <ele>95.2</ele>
        <time>2021-04-11 07:42:49</time>
      </trkpt>
      <trkpt lat="41.39512" lon="2.03007">
        <ele>95.4</ele>
        <time>2021-04-11 07:42:50</time>
      </trkpt>
      <trkpt lat="41.39518" lon="2.03002">
        <ele>95.4</ele>
        <time>2021-04-11 07:42:51</time>
      </trkpt>
      <trkpt lat="41.39523" lon="2.02997">
        <ele>95.6</ele>
        <time>2021-04-11 07:42:52</time>
      </trkpt>
      <trkpt lat="41.39529" lon="2.02993">
        <ele>95.6</ele>
        <time>2021-04-11 07:42:53</time>
      </trkpt>
      <trkpt lat="41.39535" lon="2.02988">
        <ele>95.6</ele>
        <time>2021-04-11 07:42:54</time>
      </trkpt>
      <trkpt lat="41.39541" lon="2.02983">
        <ele>95.4</ele>
        <time>2021-04-11 07:42:55</time>
      </trkpt>
      <trkpt lat="41.39547" lon="2.02978">
        <ele>95.4</ele>
        <time>2021-04-11 07:42:56</time>
      </trkpt>
      <trkpt lat="41.39553" lon="2.02973">
        <ele>95.4</ele>
        <time>2021-04-11 07:42:57</time>
      </trkpt>
      <trkpt lat="41.39558" lon="2.02968">
        <ele>95.4</ele>
        <time>2021-04-11 07:42:58</time>
      </trkpt>
      <trkpt lat="41.39565" lon="2.02963">
        <ele>95.2</ele>
        <time>2021-04-11 07:42:59</time>
      </trkpt>
      <trkpt lat="41.39571" lon="2.02958">
        <ele>95.2</ele>
        <time>2021-04-11 07:43:00</time>
      </trkpt>
      <trkpt lat="41.39577" lon="2.02952">
        <ele>95.2</ele>
        <time>2021-04-11 07:43:01</time>
      </trkpt>
      <trkpt lat="41.39583" lon="2.02946">
        <ele>95.2</ele>
        <time>2021-04-11 07:43:02</time>
      </trkpt>
      <trkpt lat="41.39588" lon="2.02941">
        <ele>95.2</ele>
        <time>2021-04-11 07:43:03</time>
      </trkpt>
      <trkpt lat="41.39594" lon="2.02935">
        <ele>95</ele>
        <time>2021-04-11 07:43:04</time>
      </trkpt>
      <trkpt lat="41.39599" lon="2.02929">
        <ele>95</ele>
        <time>2021-04-11 07:43:05</time>
      </trkpt>
      <trkpt lat="41.39605" lon="2.02923">
        <ele>95</ele>
        <time>2021-04-11 07:43:06</time>
      </trkpt>
      <trkpt lat="41.3961" lon="2.02917">
        <ele>95.2</ele>
        <time>2021-04-11 07:43:07</time>
      </trkpt>
      <trkpt lat="41.39616" lon="2.02911">
        <ele>95.2</ele>
        <time>2021-04-11 07:43:08</time>
      </trkpt>
      <trkpt lat="41.39621" lon="2.02905">
        <ele>95.2</ele>
        <time>2021-04-11 07:43:09</time>
      </trkpt>
      <trkpt lat="41.39627" lon="2.02899">
        <ele>95.2</ele>
        <time>2021-04-11 07:43:10</time>
      </trkpt>
      <trkpt lat="41.39632" lon="2.02893">
        <ele>95.2</ele>
        <time>2021-04-11 07:43:11</time>
      </trkpt>
      <trkpt lat="41.39637" lon="2.02887">
        <ele>95.2</ele>
        <time>2021-04-11 07:43:12</time>
      </trkpt>
      <trkpt lat="41.39643" lon="2.0288">
        <ele>95.4</ele>
        <time>2021-04-11 07:43:13</time>
      </trkpt>
      <trkpt lat="41.39649" lon="2.02874">
        <ele>95.4</ele>
        <time>2021-04-11 07:43:14</time>
      </trkpt>
      <trkpt lat="41.39654" lon="2.02868">
        <ele>95.4</ele>
        <time>2021-04-11 07:43:15</time>
      </trkpt>
      <trkpt lat="41.3966" lon="2.02862">
        <ele>95.4</ele>
        <time>2021-04-11 07:43:16</time>
      </trkpt>
      <trkpt lat="41.39666" lon="2.02856">
        <ele>95.4</ele>
        <time>2021-04-11 07:43:17</time>
      </trkpt>
      <trkpt lat="41.39671" lon="2.0285">
        <ele>95.6</ele>
        <time>2021-04-11 07:43:18</time>
      </trkpt>
      <trkpt lat="41.39677" lon="2.02843">
        <ele>95.6</ele>
        <time>2021-04-11 07:43:19</time>
      </trkpt>
      <trkpt lat="41.39682" lon="2.02837">
        <ele>95.6</ele>
        <time>2021-04-11 07:43:20</time>
      </trkpt>
      <trkpt lat="41.39688" lon="2.02831">
        <ele>95.6</ele>
        <time>2021-04-11 07:43:21</time>
      </trkpt>
      <trkpt lat="41.39694" lon="2.02825">
        <ele>95.4</ele>
        <time>2021-04-11 07:43:22</time>
      </trkpt>
      <trkpt lat="41.397" lon="2.02819">
        <ele>95.4</ele>
        <time>2021-04-11 07:43:23</time>
      </trkpt>
      <trkpt lat="41.39706" lon="2.02813">
        <ele>95.4</ele>
        <time>2021-04-11 07:43:24</time>
      </trkpt>
      <trkpt lat="41.39711" lon="2.02806">
        <ele>95.4</ele>
        <time>2021-04-11 07:43:25</time>
      </trkpt>
      <trkpt lat="41.39717" lon="2.028">
        <ele>95.4</ele>
        <time>2021-04-11 07:43:26</time>
      </trkpt>
      <trkpt lat="41.39723" lon="2.02794">
        <ele>95.4</ele>
        <time>2021-04-11 07:43:27</time>
      </trkpt>
      <trkpt lat="41.39729" lon="2.02788">
        <ele>95.4</ele>
        <time>2021-04-11 07:43:28</time>
      </trkpt>
      <trkpt lat="41.39735" lon="2.02782">
        <ele>95.2</ele>
        <time>2021-04-11 07:43:29</time>
      </trkpt>
      <trkpt lat="41.39741" lon="2.02776">
        <ele>95.2</ele>
        <time>2021-04-11 07:43:30</time>
      </trkpt>
      <trkpt lat="41.39746" lon="2.0277">
        <ele>95.4</ele>
        <time>2021-04-11 07:43:31</time>
      </trkpt>
      <trkpt lat="41.39752" lon="2.02764">
        <ele>95.4</ele>
        <time>2021-04-11 07:43:32</time>
      </trkpt>
      <trkpt lat="41.39757" lon="2.02759">
        <ele>95.4</ele>
        <time>2021-04-11 07:43:33</time>
      </trkpt>
      <trkpt lat="41.39763" lon="2.02752">
        <ele>95.4</ele>
        <time>2021-04-11 07:43:34</time>
      </trkpt>
      <trkpt lat="41.39769" lon="2.02745">
        <ele>95.2</ele>
        <time>2021-04-11 07:43:35</time>
      </trkpt>
      <trkpt lat="41.39775" lon="2.02739">
        <ele>95.2</ele>
        <time>2021-04-11 07:43:36</time>
      </trkpt>
      <trkpt lat="41.39781" lon="2.02733">
        <ele>95.2</ele>
        <time>2021-04-11 07:43:37</time>
      </trkpt>
      <trkpt lat="41.39786" lon="2.02727">
        <ele>95.4</ele>
        <time>2021-04-11 07:43:38</time>
      </trkpt>
      <trkpt lat="41.39792" lon="2.0272">
        <ele>95.2</ele>
        <time>2021-04-11 07:43:39</time>
      </trkpt>
      <trkpt lat="41.39797" lon="2.02714">
        <ele>95.2</ele>
        <time>2021-04-11 07:43:40</time>
      </trkpt>
      <trkpt lat="41.39803" lon="2.02708">
        <ele>95.4</ele>
        <time>2021-04-11 07:43:41</time>
      </trkpt>
      <trkpt lat="41.39808" lon="2.02702">
        <ele>95.4</ele>
        <time>2021-04-11 07:43:42</time>
      </trkpt>
      <trkpt lat="41.39814" lon="2.02696">
        <ele>95.4</ele>
        <time>2021-04-11 07:43:43</time>
      </trkpt>
      <trkpt lat="41.39819" lon="2.02689">
        <ele>95.4</ele>
        <time>2021-04-11 07:43:44</time>
      </trkpt>
      <trkpt lat="41.39825" lon="2.02683">
        <ele>95.4</ele>
        <time>2021-04-11 07:43:45</time>
      </trkpt>
      <trkpt lat="41.39831" lon="2.02677">
        <ele>95.4</ele>
        <time>2021-04-11 07:43:46</time>
      </trkpt>
      <trkpt lat="41.39837" lon="2.02671">
        <ele>95.4</ele>
        <time>2021-04-11 07:43:47</time>
      </trkpt>
      <trkpt lat="41.39842" lon="2.02665">
        <ele>95.4</ele>
        <time>2021-04-11 07:43:48</time>
      </trkpt>
      <trkpt lat="41.39848" lon="2.02659">
        <ele>95.4</ele>
        <time>2021-04-11 07:43:49</time>
      </trkpt>
      <trkpt lat="41.39853" lon="2.02652">
        <ele>95.4</ele>
        <time>2021-04-11 07:43:50</time>
      </trkpt>
      <trkpt lat="41.39859" lon="2.02646">
        <ele>95.4</ele>
        <time>2021-04-11 07:43:51</time>
      </trkpt>
      <trkpt lat="41.39865" lon="2.0264">
        <ele>95.4</ele>
        <time>2021-04-11 07:43:52</time>
      </trkpt>
      <trkpt lat="41.3987" lon="2.02635">
        <ele>95.4</ele>
        <time>2021-04-11 07:43:53</time>
      </trkpt>
      <trkpt lat="41.39876" lon="2.02628">
        <ele>95.4</ele>
        <time>2021-04-11 07:43:54</time>
      </trkpt>
      <trkpt lat="41.39882" lon="2.02622">
        <ele>95.4</ele>
        <time>2021-04-11 07:43:55</time>
      </trkpt>
      <trkpt lat="41.39887" lon="2.02616">
        <ele>95.4</ele>
        <time>2021-04-11 07:43:56</time>
      </trkpt>
      <trkpt lat="41.39893" lon="2.0261">
        <ele>95.4</ele>
        <time>2021-04-11 07:43:57</time>
      </trkpt>
      <trkpt lat="41.39899" lon="2.02604">
        <ele>95.4</ele>
        <time>2021-04-11 07:43:58</time>
      </trkpt>
      <trkpt lat="41.39904" lon="2.02597">
        <ele>95.4</ele>
        <time>2021-04-11 07:43:59</time>
      </trkpt>
      <trkpt lat="41.3991" lon="2.02591">
        <ele>95.4</ele>
        <time>2021-04-11 07:44:00</time>
      </trkpt>
      <trkpt lat="41.39916" lon="2.02585">
        <ele>95.4</ele>
        <time>2021-04-11 07:44:01</time>
      </trkpt>
      <trkpt lat="41.39921" lon="2.02579">
        <ele>95.4</ele>
        <time>2021-04-11 07:44:02</time>
      </trkpt>
      <trkpt lat="41.39927" lon="2.02573">
        <ele>95.4</ele>
        <time>2021-04-11 07:44:03</time>
      </trkpt>
      <trkpt lat="41.39932" lon="2.02566">
        <ele>95.4</ele>
        <time>2021-04-11 07:44:04</time>
      </trkpt>
      <trkpt lat="41.39938" lon="2.0256">
        <ele>95.4</ele>
        <time>2021-04-11 07:44:05</time>
      </trkpt>
      <trkpt lat="41.39944" lon="2.02554">
        <ele>95.4</ele>
        <time>2021-04-11 07:44:06</time>
      </trkpt>
      <trkpt lat="41.3995" lon="2.02547">
        <ele>95.4</ele>
        <time>2021-04-11 07:44:07</time>
      </trkpt>
      <trkpt lat="41.39955" lon="2.02541">
        <ele>95.4</ele>
        <time>2021-04-11 07:44:08</time>
      </trkpt>
      <trkpt lat="41.39961" lon="2.02535">
        <ele>95.6</ele>
        <time>2021-04-11 07:44:09</time>
      </trkpt>
      <trkpt lat="41.39966" lon="2.02529">
        <ele>95.6</ele>
        <time>2021-04-11 07:44:10</time>
      </trkpt>
      <trkpt lat="41.39972" lon="2.02522">
        <ele>95.6</ele>
        <time>2021-04-11 07:44:11</time>
      </trkpt>
      <trkpt lat="41.39978" lon="2.02516">
        <ele>95.6</ele>
        <time>2021-04-11 07:44:12</time>
      </trkpt>
      <trkpt lat="41.39983" lon="2.0251">
        <ele>95.4</ele>
        <time>2021-04-11 07:44:13</time>
      </trkpt>
      <trkpt lat="41.39989" lon="2.02503">
        <ele>95.4</ele>
        <time>2021-04-11 07:44:14</time>
      </trkpt>
      <trkpt lat="41.39995" lon="2.02497">
        <ele>95.4</ele>
        <time>2021-04-11 07:44:15</time>
      </trkpt>
      <trkpt lat="41.4" lon="2.02491">
        <ele>95.4</ele>
        <time>2021-04-11 07:44:16</time>
      </trkpt>
      <trkpt lat="41.40006" lon="2.02485">
        <ele>95.4</ele>
        <time>2021-04-11 07:44:17</time>
      </trkpt>
      <trkpt lat="41.40011" lon="2.02479">
        <ele>95.4</ele>
        <time>2021-04-11 07:44:18</time>
      </trkpt>
      <trkpt lat="41.40017" lon="2.02473">
        <ele>95.4</ele>
        <time>2021-04-11 07:44:19</time>
      </trkpt>
      <trkpt lat="41.40023" lon="2.02467">
        <ele>95.6</ele>
        <time>2021-04-11 07:44:20</time>
      </trkpt>
      <trkpt lat="41.40028" lon="2.02461">
        <ele>95.4</ele>
        <time>2021-04-11 07:44:21</time>
      </trkpt>
      <trkpt lat="41.40034" lon="2.02455">
        <ele>95.4</ele>
        <time>2021-04-11 07:44:22</time>
      </trkpt>
      <trkpt lat="41.40039" lon="2.0245">
        <ele>95.6</ele>
        <time>2021-04-11 07:44:23</time>
      </trkpt>
      <trkpt lat="41.40045" lon="2.02443">
        <ele>95.6</ele>
        <time>2021-04-11 07:44:24</time>
      </trkpt>
      <trkpt lat="41.4005" lon="2.02437">
        <ele>95.6</ele>
        <time>2021-04-11 07:44:25</time>
      </trkpt>
      <trkpt lat="41.40055" lon="2.02431">
        <ele>95.6</ele>
        <time>2021-04-11 07:44:26</time>
      </trkpt>
      <trkpt lat="41.4006" lon="2.02426">
        <ele>95.6</ele>
        <time>2021-04-11 07:44:27</time>
      </trkpt>
      <trkpt lat="41.40066" lon="2.0242">
        <ele>95.8</ele>
        <time>2021-04-11 07:44:28</time>
      </trkpt>
      <trkpt lat="41.40071" lon="2.02414">
        <ele>95.8</ele>
        <time>2021-04-11 07:44:29</time>
      </trkpt>
      <trkpt lat="41.40077" lon="2.02408">
        <ele>95.8</ele>
        <time>2021-04-11 07:44:30</time>
      </trkpt>
      <trkpt lat="41.40083" lon="2.02402">
        <ele>95.8</ele>
        <time>2021-04-11 07:44:31</time>
      </trkpt>
      <trkpt lat="41.40088" lon="2.02396">
        <ele>95.8</ele>
        <time>2021-04-11 07:44:32</time>
      </trkpt>
      <trkpt lat="41.40093" lon="2.0239">
        <ele>95.8</ele>
        <time>2021-04-11 07:44:33</time>
      </trkpt>
      <trkpt lat="41.40099" lon="2.02384">
        <ele>95.8</ele>
        <time>2021-04-11 07:44:34</time>
      </trkpt>
      <trkpt lat="41.40104" lon="2.02378">
        <ele>95.8</ele>
        <time>2021-04-11 07:44:35</time>
      </trkpt>
      <trkpt lat="41.4011" lon="2.02372">
        <ele>95.6</ele>
        <time>2021-04-11 07:44:36</time>
      </trkpt>
      <trkpt lat="41.40115" lon="2.02366">
        <ele>95.8</ele>
        <time>2021-04-11 07:44:37</time>
      </trkpt>
      <trkpt lat="41.4012" lon="2.0236">
        <ele>95.8</ele>
        <time>2021-04-11 07:44:38</time>
      </trkpt>
      <trkpt lat="41.40126" lon="2.02354">
        <ele>95.8</ele>
        <time>2021-04-11 07:44:39</time>
      </trkpt>
      <trkpt lat="41.40131" lon="2.02348">
        <ele>96</ele>
        <time>2021-04-11 07:44:40</time>
      </trkpt>
      <trkpt lat="41.40137" lon="2.02342">
        <ele>96</ele>
        <time>2021-04-11 07:44:41</time>
      </trkpt>
      <trkpt lat="41.40142" lon="2.02336">
        <ele>96</ele>
        <time>2021-04-11 07:44:42</time>
      </trkpt>
      <trkpt lat="41.40147" lon="2.0233">
        <ele>96</ele>
        <time>2021-04-11 07:44:43</time>
      </trkpt>
      <trkpt lat="41.40152" lon="2.02324">
        <ele>96</ele>
        <time>2021-04-11 07:44:44</time>
      </trkpt>
      <trkpt lat="41.40158" lon="2.02319">
        <ele>96.2</ele>
        <time>2021-04-11 07:44:45</time>
      </trkpt>
      <trkpt lat="41.40164" lon="2.02313">
        <ele>96.2</ele>
        <time>2021-04-11 07:44:46</time>
      </trkpt>
      <trkpt lat="41.40169" lon="2.02308">
        <ele>96.2</ele>
        <time>2021-04-11 07:44:47</time>
      </trkpt>
      <trkpt lat="41.40175" lon="2.02304">
        <ele>96.4</ele>
        <time>2021-04-11 07:44:48</time>
      </trkpt>
      <trkpt lat="41.40181" lon="2.023">
        <ele>96.4</ele>
        <time>2021-04-11 07:44:49</time>
      </trkpt>
      <trkpt lat="41.40185" lon="2.02294">
        <ele>96.4</ele>
        <time>2021-04-11 07:44:50</time>
      </trkpt>
      <trkpt lat="41.40189" lon="2.02287">
        <ele>96.4</ele>
        <time>2021-04-11 07:44:51</time>
      </trkpt>
      <trkpt lat="41.40194" lon="2.0228">
        <ele>96.4</ele>
        <time>2021-04-11 07:44:52</time>
      </trkpt>
      <trkpt lat="41.40199" lon="2.02273">
        <ele>96.4</ele>
        <time>2021-04-11 07:44:53</time>
      </trkpt>
      <trkpt lat="41.40205" lon="2.02266">
        <ele>96.2</ele>
        <time>2021-04-11 07:44:54</time>
      </trkpt>
      <trkpt lat="41.4021" lon="2.02259">
        <ele>96.2</ele>
        <time>2021-04-11 07:44:55</time>
      </trkpt>
      <trkpt lat="41.40216" lon="2.02253">
        <ele>96.2</ele>
        <time>2021-04-11 07:44:56</time>
      </trkpt>
      <trkpt lat="41.40222" lon="2.02247">
        <ele>96</ele>
        <time>2021-04-11 07:44:57</time>
      </trkpt>
      <trkpt lat="41.40227" lon="2.02241">
        <ele>96</ele>
        <time>2021-04-11 07:44:58</time>
      </trkpt>
      <trkpt lat="41.40232" lon="2.02235">
        <ele>96</ele>
        <time>2021-04-11 07:44:59</time>
      </trkpt>
      <trkpt lat="41.40238" lon="2.02229">
        <ele>96</ele>
        <time>2021-04-11 07:45:00</time>
      </trkpt>
      <trkpt lat="41.40244" lon="2.02223">
        <ele>96</ele>
        <time>2021-04-11 07:45:01</time>
      </trkpt>
      <trkpt lat="41.40249" lon="2.02216">
        <ele>95.8</ele>
        <time>2021-04-11 07:45:02</time>
      </trkpt>
      <trkpt lat="41.40254" lon="2.0221">
        <ele>95.8</ele>
        <time>2021-04-11 07:45:03</time>
      </trkpt>
      <trkpt lat="41.4026" lon="2.02204">
        <ele>95.8</ele>
        <time>2021-04-11 07:45:04</time>
      </trkpt>
      <trkpt lat="41.40265" lon="2.02198">
        <ele>95.8</ele>
        <time>2021-04-11 07:45:05</time>
      </trkpt>
      <trkpt lat="41.40271" lon="2.02192">
        <ele>95.8</ele>
        <time>2021-04-11 07:45:06</time>
      </trkpt>
      <trkpt lat="41.40276" lon="2.02186">
        <ele>95.8</ele>
        <time>2021-04-11 07:45:07</time>
      </trkpt>
      <trkpt lat="41.40282" lon="2.0218">
        <ele>95.8</ele>
        <time>2021-04-11 07:45:08</time>
      </trkpt>
      <trkpt lat="41.40288" lon="2.02174">
        <ele>95.8</ele>
        <time>2021-04-11 07:45:09</time>
      </trkpt>
      <trkpt lat="41.40294" lon="2.02168">
        <ele>95.8</ele>
        <time>2021-04-11 07:45:10</time>
      </trkpt>
      <trkpt lat="41.403" lon="2.02162">
        <ele>95.6</ele>
        <time>2021-04-11 07:45:11</time>
      </trkpt>
      <trkpt lat="41.40306" lon="2.02156">
        <ele>95.6</ele>
        <time>2021-04-11 07:45:12</time>
      </trkpt>
      <trkpt lat="41.40311" lon="2.0215">
        <ele>95.6</ele>
        <time>2021-04-11 07:45:13</time>
      </trkpt>
      <trkpt lat="41.40317" lon="2.02143">
        <ele>95.6</ele>
        <time>2021-04-11 07:45:14</time>
      </trkpt>
      <trkpt lat="41.40323" lon="2.02137">
        <ele>95.6</ele>
        <time>2021-04-11 07:45:15</time>
      </trkpt>
      <trkpt lat="41.40328" lon="2.0213">
        <ele>95.6</ele>
        <time>2021-04-11 07:45:16</time>
      </trkpt>
      <trkpt lat="41.40334" lon="2.02124">
        <ele>95.4</ele>
        <time>2021-04-11 07:45:17</time>
      </trkpt>
      <trkpt lat="41.40339" lon="2.02119">
        <ele>95.4</ele>
        <time>2021-04-11 07:45:18</time>
      </trkpt>
      <trkpt lat="41.40345" lon="2.02112">
        <ele>95.4</ele>
        <time>2021-04-11 07:45:19</time>
      </trkpt>
      <trkpt lat="41.40351" lon="2.02106">
        <ele>95.4</ele>
        <time>2021-04-11 07:45:20</time>
      </trkpt>
      <trkpt lat="41.40356" lon="2.02101">
        <ele>95.4</ele>
        <time>2021-04-11 07:45:21</time>
      </trkpt>
      <trkpt lat="41.40362" lon="2.02097">
        <ele>95.6</ele>
        <time>2021-04-11 07:45:22</time>
      </trkpt>
      <trkpt lat="41.40368" lon="2.02093">
        <ele>95.6</ele>
        <time>2021-04-11 07:45:23</time>
      </trkpt>
      <trkpt lat="41.40375" lon="2.02091">
        <ele>95.4</ele>
        <time>2021-04-11 07:45:24</time>
      </trkpt>
      <trkpt lat="41.40382" lon="2.02091">
        <ele>95.6</ele>
        <time>2021-04-11 07:45:25</time>
      </trkpt>
      <trkpt lat="41.40389" lon="2.02091">
        <ele>95.6</ele>
        <time>2021-04-11 07:45:26</time>
      </trkpt>
      <trkpt lat="41.40396" lon="2.02093">
        <ele>95.6</ele>
        <time>2021-04-11 07:45:27</time>
      </trkpt>
      <trkpt lat="41.40403" lon="2.02097">
        <ele>95.6</ele>
        <time>2021-04-11 07:45:28</time>
      </trkpt>
      <trkpt lat="41.40409" lon="2.02102">
        <ele>95.4</ele>
        <time>2021-04-11 07:45:29</time>
      </trkpt>
      <trkpt lat="41.40415" lon="2.02107">
        <ele>95.4</ele>
        <time>2021-04-11 07:45:30</time>
      </trkpt>
      <trkpt lat="41.40421" lon="2.02113">
        <ele>95.4</ele>
        <time>2021-04-11 07:45:31</time>
      </trkpt>
      <trkpt lat="41.40426" lon="2.0212">
        <ele>95.4</ele>
        <time>2021-04-11 07:45:32</time>
      </trkpt>
      <trkpt lat="41.40431" lon="2.02127">
        <ele>95.4</ele>
        <time>2021-04-11 07:45:33</time>
      </trkpt>
      <trkpt lat="41.40436" lon="2.02134">
        <ele>95.4</ele>
        <time>2021-04-11 07:45:34</time>
      </trkpt>
      <trkpt lat="41.40441" lon="2.02141">
        <ele>95.4</ele>
        <time>2021-04-11 07:45:35</time>
      </trkpt>
      <trkpt lat="41.40446" lon="2.02148">
        <ele>95.6</ele>
        <time>2021-04-11 07:45:36</time>
      </trkpt>
      <trkpt lat="41.40451" lon="2.02154">
        <ele>95.6</ele>
        <time>2021-04-11 07:45:37</time>
      </trkpt>
      <trkpt lat="41.40455" lon="2.02161">
        <ele>95.6</ele>
        <time>2021-04-11 07:45:38</time>
      </trkpt>
      <trkpt lat="41.4046" lon="2.02168">
        <ele>95.6</ele>
        <time>2021-04-11 07:45:39</time>
      </trkpt>
      <trkpt lat="41.40465" lon="2.02174">
        <ele>95.8</ele>
        <time>2021-04-11 07:45:40</time>
      </trkpt>
      <trkpt lat="41.4047" lon="2.02181">
        <ele>95.8</ele>
        <time>2021-04-11 07:45:41</time>
      </trkpt>
      <trkpt lat="41.40475" lon="2.02188">
        <ele>95.8</ele>
        <time>2021-04-11 07:45:42</time>
      </trkpt>
      <trkpt lat="41.40479" lon="2.02194">
        <ele>95.8</ele>
        <time>2021-04-11 07:45:43</time>
      </trkpt>
      <trkpt lat="41.40484" lon="2.02201">
        <ele>95.8</ele>
        <time>2021-04-11 07:45:44</time>
      </trkpt>
      <trkpt lat="41.40488" lon="2.02208">
        <ele>96</ele>
        <time>2021-04-11 07:45:45</time>
      </trkpt>
      <trkpt lat="41.40493" lon="2.02215">
        <ele>96</ele>
        <time>2021-04-11 07:45:46</time>
      </trkpt>
      <trkpt lat="41.40498" lon="2.02222">
        <ele>96</ele>
        <time>2021-04-11 07:45:47</time>
      </trkpt>
      <trkpt lat="41.40502" lon="2.02229">
        <ele>96</ele>
        <time>2021-04-11 07:45:48</time>
      </trkpt>
      <trkpt lat="41.40507" lon="2.02236">
        <ele>96</ele>
        <time>2021-04-11 07:45:49</time>
      </trkpt>
      <trkpt lat="41.40512" lon="2.02243">
        <ele>96</ele>
        <time>2021-04-11 07:45:50</time>
      </trkpt>
      <trkpt lat="41.40517" lon="2.02249">
        <ele>96.2</ele>
        <time>2021-04-11 07:45:51</time>
      </trkpt>
      <trkpt lat="41.40522" lon="2.02255">
        <ele>96.2</ele>
        <time>2021-04-11 07:45:52</time>
      </trkpt>
      <trkpt lat="41.40527" lon="2.02261">
        <ele>96.2</ele>
        <time>2021-04-11 07:45:53</time>
      </trkpt>
      <trkpt lat="41.40532" lon="2.02268">
        <ele>96.2</ele>
        <time>2021-04-11 07:45:54</time>
      </trkpt>
      <trkpt lat="41.40537" lon="2.02275">
        <ele>96.4</ele>
        <time>2021-04-11 07:45:55</time>
      </trkpt>
      <trkpt lat="41.40542" lon="2.02282">
        <ele>96.4</ele>
        <time>2021-04-11 07:45:56</time>
      </trkpt>
      <trkpt lat="41.40548" lon="2.02288">
        <ele>96.4</ele>
        <time>2021-04-11 07:45:57</time>
      </trkpt>
      <trkpt lat="41.40553" lon="2.02295">
        <ele>96.6</ele>
        <time>2021-04-11 07:45:58</time>
      </trkpt>
      <trkpt lat="41.40558" lon="2.02301">
        <ele>96.6</ele>
        <time>2021-04-11 07:45:59</time>
      </trkpt>
      <trkpt lat="41.40563" lon="2.02307">
        <ele>96.8</ele>
        <time>2021-04-11 07:46:00</time>
      </trkpt>
      <trkpt lat="41.40568" lon="2.02313">
        <ele>96.8</ele>
        <time>2021-04-11 07:46:01</time>
      </trkpt>
      <trkpt lat="41.40572" lon="2.02319">
        <ele>97</ele>
        <time>2021-04-11 07:46:02</time>
      </trkpt>
      <trkpt lat="41.40577" lon="2.02325">
        <ele>97.2</ele>
        <time>2021-04-11 07:46:03</time>
      </trkpt>
      <trkpt lat="41.40581" lon="2.0233">
        <ele>97.4</ele>
        <time>2021-04-11 07:46:04</time>
      </trkpt>
      <trkpt lat="41.40584" lon="2.02336">
        <ele>97.8</ele>
        <time>2021-04-11 07:46:05</time>
      </trkpt>
      <trkpt lat="41.40588" lon="2.0234">
        <ele>98</ele>
        <time>2021-04-11 07:46:06</time>
      </trkpt>
      <trkpt lat="41.40592" lon="2.02345">
        <ele>98.2</ele>
        <time>2021-04-11 07:46:07</time>
      </trkpt>
      <trkpt lat="41.40595" lon="2.0235">
        <ele>98.4</ele>
        <time>2021-04-11 07:46:08</time>
      </trkpt>
      <trkpt lat="41.40598" lon="2.02354">
        <ele>98.6</ele>
        <time>2021-04-11 07:46:09</time>
      </trkpt>
      <trkpt lat="41.406" lon="2.02358">
        <ele>98.8</ele>
        <time>2021-04-11 07:46:10</time>
      </trkpt>
      <trkpt lat="41.40603" lon="2.02361">
        <ele>99</ele>
        <time>2021-04-11 07:46:11</time>
      </trkpt>
      <trkpt lat="41.40604" lon="2.02363">
        <ele>99.2</ele>
        <time>2021-04-11 07:46:12</time>
      </trkpt>
      <trkpt lat="41.40604" lon="2.02364">
        <ele>99.4</ele>
        <time>2021-04-11 07:46:13</time>
      </trkpt>
      <trkpt lat="41.40605" lon="2.02366">
        <ele>99.4</ele>
        <time>2021-04-11 07:46:14</time>
      </trkpt>
      <trkpt lat="41.40606" lon="2.02366">
        <ele>99.6</ele>
        <time>2021-04-11 07:46:15</time>
      </trkpt>
      <trkpt lat="41.40609" lon="2.0237">
        <ele>99.8</ele>
        <time>2021-04-11 07:47:04</time>
      </trkpt>
      <trkpt lat="41.40611" lon="2.02371">
        <ele>99.8</ele>
        <time>2021-04-11 07:47:05</time>
      </trkpt>
      <trkpt lat="41.40614" lon="2.02372">
        <ele>99.8</ele>
        <time>2021-04-11 07:47:06</time>
      </trkpt>
      <trkpt lat="41.40617" lon="2.02373">
        <ele>99.8</ele>
        <time>2021-04-11 07:47:07</time>
      </trkpt>
      <trkpt lat="41.4062" lon="2.02373">
        <ele>99.8</ele>
        <time>2021-04-11 07:47:08</time>
      </trkpt>
      <trkpt lat="41.40624" lon="2.02371">
        <ele>99.8</ele>
        <time>2021-04-11 07:47:09</time>
      </trkpt>
      <trkpt lat="41.40627" lon="2.02368">
        <ele>99.6</ele>
        <time>2021-04-11 07:47:10</time>
      </trkpt>
      <trkpt lat="41.40631" lon="2.02365">
        <ele>99.6</ele>
        <time>2021-04-11 07:47:11</time>
      </trkpt>
      <trkpt lat="41.40634" lon="2.02361">
        <ele>99.6</ele>
        <time>2021-04-11 07:47:12</time>
      </trkpt>
      <trkpt lat="41.40638" lon="2.02357">
        <ele>99.4</ele>
        <time>2021-04-11 07:47:13</time>
      </trkpt>
      <trkpt lat="41.40642" lon="2.02354">
        <ele>99.4</ele>
        <time>2021-04-11 07:47:14</time>
      </trkpt>
      <trkpt lat="41.40646" lon="2.0235">
        <ele>99.4</ele>
        <time>2021-04-11 07:47:15</time>
      </trkpt>
      <trkpt lat="41.40649" lon="2.02347">
        <ele>99.4</ele>
        <time>2021-04-11 07:47:16</time>
      </trkpt>
      <trkpt lat="41.40653" lon="2.02343">
        <ele>99.4</ele>
        <time>2021-04-11 07:47:17</time>
      </trkpt>
      <trkpt lat="41.40657" lon="2.02339">
        <ele>99.2</ele>
        <time>2021-04-11 07:47:18</time>
      </trkpt>
      <trkpt lat="41.40661" lon="2.02336">
        <ele>99.2</ele>
        <time>2021-04-11 07:47:19</time>
      </trkpt>
      <trkpt lat="41.40665" lon="2.02332">
        <ele>99.2</ele>
        <time>2021-04-11 07:47:20</time>
      </trkpt>
      <trkpt lat="41.40668" lon="2.02328">
        <ele>99.2</ele>
        <time>2021-04-11 07:47:21</time>
      </trkpt>
      <trkpt lat="41.40672" lon="2.02324">
        <ele>99.2</ele>
        <time>2021-04-11 07:47:22</time>
      </trkpt>
      <trkpt lat="41.40675" lon="2.02321">
        <ele>99.2</ele>
        <time>2021-04-11 07:47:23</time>
      </trkpt>
      <trkpt lat="41.40678" lon="2.02317">
        <ele>99.2</ele>
        <time>2021-04-11 07:47:24</time>
      </trkpt>
      <trkpt lat="41.40682" lon="2.02315">
        <ele>99.2</ele>
        <time>2021-04-11 07:47:25</time>
      </trkpt>
      <trkpt lat="41.40685" lon="2.02312">
        <ele>99.2</ele>
        <time>2021-04-11 07:47:26</time>
      </trkpt>
      <trkpt lat="41.40687" lon="2.0231">
        <ele>99.2</ele>
        <time>2021-04-11 07:47:27</time>
      </trkpt>
      <trkpt lat="41.4069" lon="2.02306">
        <ele>99.2</ele>
        <time>2021-04-11 07:47:28</time>
      </trkpt>
      <trkpt lat="41.40693" lon="2.02304">
        <ele>99.2</ele>
        <time>2021-04-11 07:47:29</time>
      </trkpt>
      <trkpt lat="41.40695" lon="2.02301">
        <ele>99.2</ele>
        <time>2021-04-11 07:47:30</time>
      </trkpt>
      <trkpt lat="41.40698" lon="2.02299">
        <ele>99.2</ele>
        <time>2021-04-11 07:47:31</time>
      </trkpt>
      <trkpt lat="41.40699" lon="2.02297">
        <ele>99.2</ele>
        <time>2021-04-11 07:47:32</time>
      </trkpt>
      <trkpt lat="41.40702" lon="2.02294">
        <ele>99.2</ele>
        <time>2021-04-11 07:47:33</time>
      </trkpt>
      <trkpt lat="41.40704" lon="2.02292">
        <ele>99.2</ele>
        <time>2021-04-11 07:47:34</time>
      </trkpt>
      <trkpt lat="41.40706" lon="2.0229">
        <ele>99.4</ele>
        <time>2021-04-11 07:47:35</time>
      </trkpt>
      <trkpt lat="41.40707" lon="2.02289">
        <ele>99.4</ele>
        <time>2021-04-11 07:47:36</time>
      </trkpt>
      <trkpt lat="41.40708" lon="2.02288">
        <ele>99.4</ele>
        <time>2021-04-11 07:47:37</time>
      </trkpt>
      <trkpt lat="41.40709" lon="2.02288">
        <ele>99.4</ele>
        <time>2021-04-11 07:47:38</time>
      </trkpt>
      <trkpt lat="41.40715" lon="2.02282">
        <ele>99.2</ele>
        <time>2021-04-11 07:47:52</time>
      </trkpt>
      <trkpt lat="41.40716" lon="2.02279">
        <ele>99.2</ele>
        <time>2021-04-11 07:47:53</time>
      </trkpt>
      <trkpt lat="41.40719" lon="2.02275">
        <ele>99.2</ele>
        <time>2021-04-11 07:47:54</time>
      </trkpt>
      <trkpt lat="41.40721" lon="2.0227">
        <ele>99.2</ele>
        <time>2021-04-11 07:47:55</time>
      </trkpt>
      <trkpt lat="41.40725" lon="2.02266">
        <ele>99.2</ele>
        <time>2021-04-11 07:47:56</time>
      </trkpt>
      <trkpt lat="41.40728" lon="2.02262">
        <ele>99.2</ele>
        <time>2021-04-11 07:47:57</time>
      </trkpt>
      <trkpt lat="41.40732" lon="2.02257">
        <ele>99.2</ele>
        <time>2021-04-11 07:47:58</time>
      </trkpt>
      <trkpt lat="41.40736" lon="2.02253">
        <ele>99.2</ele>
        <time>2021-04-11 07:47:59</time>
      </trkpt>
      <trkpt lat="41.40739" lon="2.02249">
        <ele>99.2</ele>
        <time>2021-04-11 07:48:00</time>
      </trkpt>
      <trkpt lat="41.40743" lon="2.02246">
        <ele>99.2</ele>
        <time>2021-04-11 07:48:01</time>
      </trkpt>
      <trkpt lat="41.40746" lon="2.02241">
        <ele>99</ele>
        <time>2021-04-11 07:48:02</time>
      </trkpt>
      <trkpt lat="41.4075" lon="2.02236">
        <ele>99</ele>
        <time>2021-04-11 07:48:03</time>
      </trkpt>
      <trkpt lat="41.40754" lon="2.0223">
        <ele>99</ele>
        <time>2021-04-11 07:48:04</time>
      </trkpt>
      <trkpt lat="41.40759" lon="2.02224">
        <ele>99</ele>
        <time>2021-04-11 07:48:05</time>
      </trkpt>
      <trkpt lat="41.40763" lon="2.0222">
        <ele>99</ele>
        <time>2021-04-11 07:48:06</time>
      </trkpt>
      <trkpt lat="41.40768" lon="2.02215">
        <ele>99</ele>
        <time>2021-04-11 07:48:07</time>
      </trkpt>
      <trkpt lat="41.40773" lon="2.0221">
        <ele>99</ele>
        <time>2021-04-11 07:48:08</time>
      </trkpt>
      <trkpt lat="41.40778" lon="2.02205">
        <ele>99</ele>
        <time>2021-04-11 07:48:09</time>
      </trkpt>
      <trkpt lat="41.40783" lon="2.022">
        <ele>99</ele>
        <time>2021-04-11 07:48:10</time>
      </trkpt>
      <trkpt lat="41.40787" lon="2.02195">
        <ele>99</ele>
        <time>2021-04-11 07:48:11</time>
      </trkpt>
      <trkpt lat="41.40792" lon="2.02189">
        <ele>98.8</ele>
        <time>2021-04-11 07:48:12</time>
      </trkpt>
      <trkpt lat="41.40796" lon="2.02184">
        <ele>98.8</ele>
        <time>2021-04-11 07:48:13</time>
      </trkpt>
      <trkpt lat="41.40801" lon="2.02179">
        <ele>98.8</ele>
        <time>2021-04-11 07:48:14</time>
      </trkpt>
      <trkpt lat="41.40806" lon="2.02174">
        <ele>98.8</ele>
        <time>2021-04-11 07:48:15</time>
      </trkpt>
      <trkpt lat="41.40811" lon="2.02169">
        <ele>98.8</ele>
        <time>2021-04-11 07:48:16</time>
      </trkpt>
      <trkpt lat="41.40816" lon="2.02164">
        <ele>98.8</ele>
        <time>2021-04-11 07:48:17</time>
      </trkpt>
      <trkpt lat="41.40821" lon="2.02158">
        <ele>98.8</ele>
        <time>2021-04-11 07:48:18</time>
      </trkpt>
      <trkpt lat="41.40826" lon="2.02152">
        <ele>98.8</ele>
        <time>2021-04-11 07:48:19</time>
      </trkpt>
      <trkpt lat="41.4083" lon="2.02145">
        <ele>98.8</ele>
        <time>2021-04-11 07:48:20</time>
      </trkpt>
      <trkpt lat="41.40835" lon="2.02139">
        <ele>98.8</ele>
        <time>2021-04-11 07:48:21</time>
      </trkpt>
      <trkpt lat="41.4084" lon="2.02134">
        <ele>98.8</ele>
        <time>2021-04-11 07:48:22</time>
      </trkpt>
      <trkpt lat="41.40844" lon="2.02129">
        <ele>98.8</ele>
        <time>2021-04-11 07:48:23</time>
      </trkpt>
      <trkpt lat="41.40849" lon="2.02123">
        <ele>99</ele>
        <time>2021-04-11 07:48:24</time>
      </trkpt>
      <trkpt lat="41.40853" lon="2.02119">
        <ele>99</ele>
        <time>2021-04-11 07:48:25</time>
      </trkpt>
      <trkpt lat="41.40857" lon="2.02115">
        <ele>99</ele>
        <time>2021-04-11 07:48:26</time>
      </trkpt>
      <trkpt lat="41.40861" lon="2.02111">
        <ele>99.2</ele>
        <time>2021-04-11 07:48:27</time>
      </trkpt>
      <trkpt lat="41.40864" lon="2.02108">
        <ele>99.2</ele>
        <time>2021-04-11 07:48:28</time>
      </trkpt>
      <trkpt lat="41.40867" lon="2.02105">
        <ele>99.4</ele>
        <time>2021-04-11 07:48:29</time>
      </trkpt>
      <trkpt lat="41.4087" lon="2.02103">
        <ele>99.4</ele>
        <time>2021-04-11 07:48:30</time>
      </trkpt>
      <trkpt lat="41.40872" lon="2.02101">
        <ele>99.6</ele>
        <time>2021-04-11 07:48:31</time>
      </trkpt>
      <trkpt lat="41.40874" lon="2.021">
        <ele>99.6</ele>
        <time>2021-04-11 07:48:32</time>
      </trkpt>
      <trkpt lat="41.40876" lon="2.02099">
        <ele>99.8</ele>
        <time>2021-04-11 07:48:33</time>
      </trkpt>
      <trkpt lat="41.40877" lon="2.02098">
        <ele>99.8</ele>
        <time>2021-04-11 07:48:34</time>
      </trkpt>
      <trkpt lat="41.40878" lon="2.02097">
        <ele>99.8</ele>
        <time>2021-04-11 07:48:35</time>
      </trkpt>
      <trkpt lat="41.40879" lon="2.02096">
        <ele>100</ele>
        <time>2021-04-11 07:48:36</time>
      </trkpt>
      <trkpt lat="41.4088" lon="2.02095">
        <ele>100</ele>
        <time>2021-04-11 07:48:37</time>
      </trkpt>
      <trkpt lat="41.40883" lon="2.02094">
        <ele>100</ele>
        <time>2021-04-11 07:48:58</time>
      </trkpt>
      <trkpt lat="41.40885" lon="2.02092">
        <ele>100</ele>
        <time>2021-04-11 07:48:59</time>
      </trkpt>
      <trkpt lat="41.40887" lon="2.02089">
        <ele>100</ele>
        <time>2021-04-11 07:49:00</time>
      </trkpt>
      <trkpt lat="41.40889" lon="2.02086">
        <ele>100</ele>
        <time>2021-04-11 07:49:01</time>
      </trkpt>
      <trkpt lat="41.40891" lon="2.02083">
        <ele>100</ele>
        <time>2021-04-11 07:49:02</time>
      </trkpt>
      <trkpt lat="41.40894" lon="2.0208">
        <ele>99.8</ele>
        <time>2021-04-11 07:49:03</time>
      </trkpt>
      <trkpt lat="41.40897" lon="2.02076">
        <ele>99.8</ele>
        <time>2021-04-11 07:49:04</time>
      </trkpt>
      <trkpt lat="41.409" lon="2.02072">
        <ele>99.8</ele>
        <time>2021-04-11 07:49:05</time>
      </trkpt>
      <trkpt lat="41.40903" lon="2.02068">
        <ele>99.6</ele>
        <time>2021-04-11 07:49:06</time>
      </trkpt>
      <trkpt lat="41.40906" lon="2.02063">
        <ele>99.6</ele>
        <time>2021-04-11 07:49:07</time>
      </trkpt>
      <trkpt lat="41.40909" lon="2.02059">
        <ele>99.6</ele>
        <time>2021-04-11 07:49:08</time>
      </trkpt>
      <trkpt lat="41.40912" lon="2.02055">
        <ele>99.4</ele>
        <time>2021-04-11 07:49:09</time>
      </trkpt>
      <trkpt lat="41.40917" lon="2.0205">
        <ele>99.4</ele>
        <time>2021-04-11 07:49:10</time>
      </trkpt>
      <trkpt lat="41.40921" lon="2.02045">
        <ele>99.4</ele>
        <time>2021-04-11 07:49:11</time>
      </trkpt>
      <trkpt lat="41.40924" lon="2.0204">
        <ele>99.2</ele>
        <time>2021-04-11 07:49:12</time>
      </trkpt>
      <trkpt lat="41.40927" lon="2.02035">
        <ele>99.2</ele>
        <time>2021-04-11 07:49:13</time>
      </trkpt>
      <trkpt lat="41.40931" lon="2.02029">
        <ele>99.2</ele>
        <time>2021-04-11 07:49:14</time>
      </trkpt>
      <trkpt lat="41.40935" lon="2.02023">
        <ele>99.2</ele>
        <time>2021-04-11 07:49:15</time>
      </trkpt>
      <trkpt lat="41.40938" lon="2.02017">
        <ele>99.2</ele>
        <time>2021-04-11 07:49:16</time>
      </trkpt>
      <trkpt lat="41.40942" lon="2.02011">
        <ele>99.2</ele>
        <time>2021-04-11 07:49:17</time>
      </trkpt>
      <trkpt lat="41.40946" lon="2.02005">
        <ele>99.2</ele>
        <time>2021-04-11 07:49:18</time>
      </trkpt>
      <trkpt lat="41.40949" lon="2.01998">
        <ele>99.2</ele>
        <time>2021-04-11 07:49:19</time>
      </trkpt>
      <trkpt lat="41.40952" lon="2.01992">
        <ele>99.2</ele>
        <time>2021-04-11 07:49:20</time>
      </trkpt>
      <trkpt lat="41.40955" lon="2.01985">
        <ele>99.2</ele>
        <time>2021-04-11 07:49:21</time>
      </trkpt>
      <trkpt lat="41.40958" lon="2.01979">
        <ele>99.2</ele>
        <time>2021-04-11 07:49:22</time>
      </trkpt>
      <trkpt lat="41.4096" lon="2.01973">
        <ele>99.4</ele>
        <time>2021-04-11 07:49:23</time>
      </trkpt>
      <trkpt lat="41.40964" lon="2.01966">
        <ele>99.4</ele>
        <time>2021-04-11 07:49:24</time>
      </trkpt>
      <trkpt lat="41.40966" lon="2.0196">
        <ele>99.4</ele>
        <time>2021-04-11 07:49:25</time>
      </trkpt>
      <trkpt lat="41.40968" lon="2.01954">
        <ele>99.4</ele>
        <time>2021-04-11 07:49:26</time>
      </trkpt>
      <trkpt lat="41.40971" lon="2.01949">
        <ele>99.6</ele>
        <time>2021-04-11 07:49:27</time>
      </trkpt>
      <trkpt lat="41.40973" lon="2.01944">
        <ele>99.6</ele>
        <time>2021-04-11 07:49:28</time>
      </trkpt>
      <trkpt lat="41.40974" lon="2.01939">
        <ele>99.8</ele>
        <time>2021-04-11 07:49:29</time>
      </trkpt>
      <trkpt lat="41.40975" lon="2.01935">
        <ele>100</ele>
        <time>2021-04-11 07:49:30</time>
      </trkpt>
      <trkpt lat="41.40976" lon="2.01931">
        <ele>100</ele>
        <time>2021-04-11 07:49:31</time>
      </trkpt>
      <trkpt lat="41.40976" lon="2.01928">
        <ele>100.2</ele>
        <time>2021-04-11 07:49:32</time>
      </trkpt>
      <trkpt lat="41.40977" lon="2.01926">
        <ele>100.2</ele>
        <time>2021-04-11 07:49:33</time>
      </trkpt>
      <trkpt lat="41.40977" lon="2.01924">
        <ele>100.4</ele>
        <time>2021-04-11 07:49:34</time>
      </trkpt>
      <trkpt lat="41.40977" lon="2.01923">
        <ele>100.4</ele>
        <time>2021-04-11 07:49:35</time>
      </trkpt>
      <trkpt lat="41.40977" lon="2.01921">
        <ele>100.4</ele>
        <time>2021-04-11 07:49:36</time>
      </trkpt>
      <trkpt lat="41.40977" lon="2.01918">
        <ele>100.6</ele>
        <time>2021-04-11 07:50:07</time>
      </trkpt>
      <trkpt lat="41.40979" lon="2.01916">
        <ele>100.6</ele>
        <time>2021-04-11 07:50:08</time>
      </trkpt>
      <trkpt lat="41.40981" lon="2.01914">
        <ele>100.6</ele>
        <time>2021-04-11 07:50:09</time>
      </trkpt>
      <trkpt lat="41.40982" lon="2.01911">
        <ele>100.6</ele>
        <time>2021-04-11 07:50:10</time>
      </trkpt>
      <trkpt lat="41.40984" lon="2.01906">
        <ele>100.6</ele>
        <time>2021-04-11 07:50:11</time>
      </trkpt>
      <trkpt lat="41.40985" lon="2.01902">
        <ele>100.6</ele>
        <time>2021-04-11 07:50:12</time>
      </trkpt>
      <trkpt lat="41.40987" lon="2.01897">
        <ele>100.6</ele>
        <time>2021-04-11 07:50:13</time>
      </trkpt>
      <trkpt lat="41.40988" lon="2.01891">
        <ele>100.4</ele>
        <time>2021-04-11 07:50:14</time>
      </trkpt>
      <trkpt lat="41.40989" lon="2.01885">
        <ele>100.4</ele>
        <time>2021-04-11 07:50:15</time>
      </trkpt>
      <trkpt lat="41.4099" lon="2.0188">
        <ele>100.4</ele>
        <time>2021-04-11 07:50:16</time>
      </trkpt>
      <trkpt lat="41.40991" lon="2.01874">
        <ele>100.2</ele>
        <time>2021-04-11 07:50:17</time>
      </trkpt>
      <trkpt lat="41.40992" lon="2.01867">
        <ele>100.2</ele>
        <time>2021-04-11 07:50:18</time>
      </trkpt>
      <trkpt lat="41.40994" lon="2.0186">
        <ele>100.2</ele>
        <time>2021-04-11 07:50:19</time>
      </trkpt>
      <trkpt lat="41.40994" lon="2.01854">
        <ele>100.2</ele>
        <time>2021-04-11 07:50:20</time>
      </trkpt>
      <trkpt lat="41.40995" lon="2.01848">
        <ele>100.2</ele>
        <time>2021-04-11 07:50:21</time>
      </trkpt>
      <trkpt lat="41.40997" lon="2.01841">
        <ele>100.2</ele>
        <time>2021-04-11 07:50:22</time>
      </trkpt>
      <trkpt lat="41.40997" lon="2.01834">
        <ele>100.2</ele>
        <time>2021-04-11 07:50:23</time>
      </trkpt>
      <trkpt lat="41.40997" lon="2.01827">
        <ele>100</ele>
        <time>2021-04-11 07:50:24</time>
      </trkpt>
      <trkpt lat="41.40997" lon="2.01819">
        <ele>100</ele>
        <time>2021-04-11 07:50:25</time>
      </trkpt>
      <trkpt lat="41.40998" lon="2.01813">
        <ele>100</ele>
        <time>2021-04-11 07:50:26</time>
      </trkpt>
      <trkpt lat="41.40998" lon="2.01805">
        <ele>100</ele>
        <time>2021-04-11 07:50:27</time>
      </trkpt>
      <trkpt lat="41.40998" lon="2.01797">
        <ele>100</ele>
        <time>2021-04-11 07:50:28</time>
      </trkpt>
      <trkpt lat="41.40998" lon="2.0179">
        <ele>100</ele>
        <time>2021-04-11 07:50:29</time>
      </trkpt>
      <trkpt lat="41.40997" lon="2.01782">
        <ele>100</ele>
        <time>2021-04-11 07:50:30</time>
      </trkpt>
      <trkpt lat="41.40997" lon="2.01774">
        <ele>100</ele>
        <time>2021-04-11 07:50:31</time>
      </trkpt>
      <trkpt lat="41.40996" lon="2.01766">
        <ele>100</ele>
        <time>2021-04-11 07:50:32</time>
      </trkpt>
      <trkpt lat="41.40995" lon="2.01758">
        <ele>100</ele>
        <time>2021-04-11 07:50:33</time>
      </trkpt>
      <trkpt lat="41.40994" lon="2.0175">
        <ele>100</ele>
        <time>2021-04-11 07:50:34</time>
      </trkpt>
      <trkpt lat="41.40994" lon="2.01742">
        <ele>100</ele>
        <time>2021-04-11 07:50:35</time>
      </trkpt>
      <trkpt lat="41.40993" lon="2.01733">
        <ele>100</ele>
        <time>2021-04-11 07:50:36</time>
      </trkpt>
      <trkpt lat="41.40992" lon="2.01724">
        <ele>100</ele>
        <time>2021-04-11 07:50:37</time>
      </trkpt>
      <trkpt lat="41.40991" lon="2.01715">
        <ele>99.8</ele>
        <time>2021-04-11 07:50:38</time>
      </trkpt>
      <trkpt lat="41.4099" lon="2.01706">
        <ele>99.8</ele>
        <time>2021-04-11 07:50:39</time>
      </trkpt>
      <trkpt lat="41.40988" lon="2.01698">
        <ele>99.8</ele>
        <time>2021-04-11 07:50:40</time>
      </trkpt>
      <trkpt lat="41.40987" lon="2.01689">
        <ele>99.8</ele>
        <time>2021-04-11 07:50:41</time>
      </trkpt>
      <trkpt lat="41.40985" lon="2.0168">
        <ele>99.6</ele>
        <time>2021-04-11 07:50:42</time>
      </trkpt>
      <trkpt lat="41.40983" lon="2.01672">
        <ele>99.6</ele>
        <time>2021-04-11 07:50:43</time>
      </trkpt>
      <trkpt lat="41.40981" lon="2.01664">
        <ele>99.6</ele>
        <time>2021-04-11 07:50:44</time>
      </trkpt>
      <trkpt lat="41.40979" lon="2.01657">
        <ele>99.6</ele>
        <time>2021-04-11 07:50:45</time>
      </trkpt>
      <trkpt lat="41.40977" lon="2.01649">
        <ele>99.6</ele>
        <time>2021-04-11 07:50:46</time>
      </trkpt>
      <trkpt lat="41.40974" lon="2.01642">
        <ele>99.6</ele>
        <time>2021-04-11 07:50:47</time>
      </trkpt>
      <trkpt lat="41.40972" lon="2.01634">
        <ele>99.6</ele>
        <time>2021-04-11 07:50:48</time>
      </trkpt>
      <trkpt lat="41.40969" lon="2.01626">
        <ele>99.6</ele>
        <time>2021-04-11 07:50:49</time>
      </trkpt>
      <trkpt lat="41.40967" lon="2.01618">
        <ele>99.8</ele>
        <time>2021-04-11 07:50:50</time>
      </trkpt>
      <trkpt lat="41.40965" lon="2.0161">
        <ele>99.8</ele>
        <time>2021-04-11 07:50:51</time>
      </trkpt>
      <trkpt lat="41.40963" lon="2.01603">
        <ele>100</ele>
        <time>2021-04-11 07:50:52</time>
      </trkpt>
      <trkpt lat="41.40961" lon="2.01596">
        <ele>100</ele>
        <time>2021-04-11 07:50:53</time>
      </trkpt>
      <trkpt lat="41.40959" lon="2.01589">
        <ele>100.2</ele>
        <time>2021-04-11 07:50:54</time>
      </trkpt>
      <trkpt lat="41.40959" lon="2.01583">
        <ele>100.2</ele>
        <time>2021-04-11 07:50:55</time>
      </trkpt>
      <trkpt lat="41.40959" lon="2.01575">
        <ele>100.4</ele>
        <time>2021-04-11 07:50:56</time>
      </trkpt>
      <trkpt lat="41.40962" lon="2.01569">
        <ele>100.6</ele>
        <time>2021-04-11 07:50:57</time>
      </trkpt>
      <trkpt lat="41.40966" lon="2.01564">
        <ele>100.8</ele>
        <time>2021-04-11 07:50:58</time>
      </trkpt>
      <trkpt lat="41.40971" lon="2.01559">
        <ele>100.8</ele>
        <time>2021-04-11 07:50:59</time>
      </trkpt>
      <trkpt lat="41.40976" lon="2.01555">
        <ele>100.8</ele>
        <time>2021-04-11 07:51:00</time>
      </trkpt>
      <trkpt lat="41.40982" lon="2.01549">
        <ele>100.8</ele>
        <time>2021-04-11 07:51:01</time>
      </trkpt>
      <trkpt lat="41.40987" lon="2.01543">
        <ele>100.8</ele>
        <time>2021-04-11 07:51:02</time>
      </trkpt>
      <trkpt lat="41.40992" lon="2.01538">
        <ele>100.8</ele>
        <time>2021-04-11 07:51:03</time>
      </trkpt>
      <trkpt lat="41.40997" lon="2.01533">
        <ele>100.8</ele>
        <time>2021-04-11 07:51:04</time>
      </trkpt>
      <trkpt lat="41.41002" lon="2.01527">
        <ele>100.8</ele>
        <time>2021-04-11 07:51:05</time>
      </trkpt>
      <trkpt lat="41.41007" lon="2.01521">
        <ele>100.8</ele>
        <time>2021-04-11 07:51:06</time>
      </trkpt>
      <trkpt lat="41.41013" lon="2.01516">
        <ele>100.6</ele>
        <time>2021-04-11 07:51:07</time>
      </trkpt>
      <trkpt lat="41.41018" lon="2.01511">
        <ele>100.6</ele>
        <time>2021-04-11 07:51:08</time>
      </trkpt>
      <trkpt lat="41.41023" lon="2.01505">
        <ele>100.6</ele>
        <time>2021-04-11 07:51:09</time>
      </trkpt>
      <trkpt lat="41.41028" lon="2.015">
        <ele>100.4</ele>
        <time>2021-04-11 07:51:10</time>
      </trkpt>
      <trkpt lat="41.41033" lon="2.01495">
        <ele>100.4</ele>
        <time>2021-04-11 07:51:11</time>
      </trkpt>
      <trkpt lat="41.41039" lon="2.0149">
        <ele>100.4</ele>
        <time>2021-04-11 07:51:12</time>
      </trkpt>
      <trkpt lat="41.41044" lon="2.01484">
        <ele>100.4</ele>
        <time>2021-04-11 07:51:13</time>
      </trkpt>
      <trkpt lat="41.41049" lon="2.01479">
        <ele>100.2</ele>
        <time>2021-04-11 07:51:14</time>
      </trkpt>
      <trkpt lat="41.41054" lon="2.01474">
        <ele>100.2</ele>
        <time>2021-04-11 07:51:15</time>
      </trkpt>
      <trkpt lat="41.4106" lon="2.01469">
        <ele>100.2</ele>
        <time>2021-04-11 07:51:16</time>
      </trkpt>
      <trkpt lat="41.41066" lon="2.01464">
        <ele>100.2</ele>
        <time>2021-04-11 07:51:17</time>
      </trkpt>
      <trkpt lat="41.41071" lon="2.0146">
        <ele>100.2</ele>
        <time>2021-04-11 07:51:18</time>
      </trkpt>
      <trkpt lat="41.41075" lon="2.01456">
        <ele>100.2</ele>
        <time>2021-04-11 07:51:19</time>
      </trkpt>
      <trkpt lat="41.41081" lon="2.0145">
        <ele>100.4</ele>
        <time>2021-04-11 07:51:20</time>
      </trkpt>
      <trkpt lat="41.41087" lon="2.01445">
        <ele>100.4</ele>
        <time>2021-04-11 07:51:21</time>
      </trkpt>
      <trkpt lat="41.41092" lon="2.0144">
        <ele>100.6</ele>
        <time>2021-04-11 07:51:22</time>
      </trkpt>
      <trkpt lat="41.41097" lon="2.01436">
        <ele>100.6</ele>
        <time>2021-04-11 07:51:23</time>
      </trkpt>
      <trkpt lat="41.41102" lon="2.01431">
        <ele>100.6</ele>
        <time>2021-04-11 07:51:24</time>
      </trkpt>
      <trkpt lat="41.41108" lon="2.01427">
        <ele>100.8</ele>
        <time>2021-04-11 07:51:25</time>
      </trkpt>
      <trkpt lat="41.41113" lon="2.01423">
        <ele>100.8</ele>
        <time>2021-04-11 07:51:26</time>
      </trkpt>
      <trkpt lat="41.41118" lon="2.01418">
        <ele>100.8</ele>
        <time>2021-04-11 07:51:27</time>
      </trkpt>
      <trkpt lat="41.41123" lon="2.01414">
        <ele>100.8</ele>
        <time>2021-04-11 07:51:28</time>
      </trkpt>
      <trkpt lat="41.41129" lon="2.0141">
        <ele>100.8</ele>
        <time>2021-04-11 07:51:29</time>
      </trkpt>
      <trkpt lat="41.41134" lon="2.01405">
        <ele>100.8</ele>
        <time>2021-04-11 07:51:30</time>
      </trkpt>
      <trkpt lat="41.4114" lon="2.01401">
        <ele>100.8</ele>
        <time>2021-04-11 07:51:31</time>
      </trkpt>
      <trkpt lat="41.41146" lon="2.01397">
        <ele>100.8</ele>
        <time>2021-04-11 07:51:32</time>
      </trkpt>
      <trkpt lat="41.41151" lon="2.01393">
        <ele>100.8</ele>
        <time>2021-04-11 07:51:33</time>
      </trkpt>
      <trkpt lat="41.41157" lon="2.01388">
        <ele>100.6</ele>
        <time>2021-04-11 07:51:34</time>
      </trkpt>
      <trkpt lat="41.41163" lon="2.01384">
        <ele>100.4</ele>
        <time>2021-04-11 07:51:35</time>
      </trkpt>
      <trkpt lat="41.41169" lon="2.0138">
        <ele>100.4</ele>
        <time>2021-04-11 07:51:36</time>
      </trkpt>
      <trkpt lat="41.41175" lon="2.01376">
        <ele>100.2</ele>
        <time>2021-04-11 07:51:37</time>
      </trkpt>
      <trkpt lat="41.4118" lon="2.01372">
        <ele>100</ele>
        <time>2021-04-11 07:51:38</time>
      </trkpt>
      <trkpt lat="41.41187" lon="2.01368">
        <ele>100</ele>
        <time>2021-04-11 07:51:39</time>
      </trkpt>
      <trkpt lat="41.41194" lon="2.01364">
        <ele>99.8</ele>
        <time>2021-04-11 07:51:40</time>
      </trkpt>
      <trkpt lat="41.412" lon="2.0136">
        <ele>99.8</ele>
        <time>2021-04-11 07:51:41</time>
      </trkpt>
      <trkpt lat="41.41206" lon="2.01356">
        <ele>99.6</ele>
        <time>2021-04-11 07:51:42</time>
      </trkpt>
      <trkpt lat="41.41212" lon="2.01352">
        <ele>99.6</ele>
        <time>2021-04-11 07:51:43</time>
      </trkpt>
      <trkpt lat="41.41218" lon="2.01348">
        <ele>99.8</ele>
        <time>2021-04-11 07:51:44</time>
      </trkpt>
      <trkpt lat="41.41224" lon="2.01345">
        <ele>99.8</ele>
        <time>2021-04-11 07:51:45</time>
      </trkpt>
      <trkpt lat="41.4123" lon="2.01341">
        <ele>99.8</ele>
        <time>2021-04-11 07:51:46</time>
      </trkpt>
      <trkpt lat="41.41236" lon="2.01337">
        <ele>99.8</ele>
        <time>2021-04-11 07:51:47</time>
      </trkpt>
      <trkpt lat="41.41242" lon="2.01333">
        <ele>100</ele>
        <time>2021-04-11 07:51:48</time>
      </trkpt>
      <trkpt lat="41.41247" lon="2.0133">
        <ele>100</ele>
        <time>2021-04-11 07:51:49</time>
      </trkpt>
      <trkpt lat="41.41253" lon="2.01327">
        <ele>100.2</ele>
        <time>2021-04-11 07:51:50</time>
      </trkpt>
      <trkpt lat="41.41259" lon="2.01323">
        <ele>100.2</ele>
        <time>2021-04-11 07:51:51</time>
      </trkpt>
      <trkpt lat="41.41264" lon="2.0132">
        <ele>100.4</ele>
        <time>2021-04-11 07:51:52</time>
      </trkpt>
      <trkpt lat="41.4127" lon="2.01316">
        <ele>100.4</ele>
        <time>2021-04-11 07:51:53</time>
      </trkpt>
      <trkpt lat="41.41275" lon="2.01313">
        <ele>100.6</ele>
        <time>2021-04-11 07:51:54</time>
      </trkpt>
      <trkpt lat="41.41281" lon="2.01309">
        <ele>100.8</ele>
        <time>2021-04-11 07:51:55</time>
      </trkpt>
      <trkpt lat="41.41286" lon="2.01306">
        <ele>100.8</ele>
        <time>2021-04-11 07:51:56</time>
      </trkpt>
      <trkpt lat="41.41292" lon="2.01302">
        <ele>100.8</ele>
        <time>2021-04-11 07:51:57</time>
      </trkpt>
      <trkpt lat="41.41297" lon="2.01299">
        <ele>101</ele>
        <time>2021-04-11 07:51:58</time>
      </trkpt>
      <trkpt lat="41.41302" lon="2.01296">
        <ele>101</ele>
        <time>2021-04-11 07:51:59</time>
      </trkpt>
      <trkpt lat="41.41307" lon="2.01292">
        <ele>101.2</ele>
        <time>2021-04-11 07:52:00</time>
      </trkpt>
      <trkpt lat="41.41312" lon="2.01289">
        <ele>101.2</ele>
        <time>2021-04-11 07:52:01</time>
      </trkpt>
      <trkpt lat="41.41316" lon="2.01286">
        <ele>101.4</ele>
        <time>2021-04-11 07:52:02</time>
      </trkpt>
      <trkpt lat="41.41322" lon="2.01283">
        <ele>101.4</ele>
        <time>2021-04-11 07:52:03</time>
      </trkpt>
      <trkpt lat="41.41327" lon="2.0128">
        <ele>101.6</ele>
        <time>2021-04-11 07:52:04</time>
      </trkpt>
      <trkpt lat="41.41332" lon="2.01277">
        <ele>101.6</ele>
        <time>2021-04-11 07:52:05</time>
      </trkpt>
      <trkpt lat="41.41336" lon="2.01274">
        <ele>101.8</ele>
        <time>2021-04-11 07:52:06</time>
      </trkpt>
      <trkpt lat="41.4134" lon="2.01272">
        <ele>101.8</ele>
        <time>2021-04-11 07:52:07</time>
      </trkpt>
      <trkpt lat="41.41343" lon="2.0127">
        <ele>101.8</ele>
        <time>2021-04-11 07:52:08</time>
      </trkpt>
      <trkpt lat="41.41347" lon="2.01267">
        <ele>102</ele>
        <time>2021-04-11 07:52:09</time>
      </trkpt>
      <trkpt lat="41.4135" lon="2.01266">
        <ele>102</ele>
        <time>2021-04-11 07:52:10</time>
      </trkpt>
      <trkpt lat="41.41353" lon="2.01264">
        <ele>102</ele>
        <time>2021-04-11 07:52:11</time>
      </trkpt>
      <trkpt lat="41.41355" lon="2.01262">
        <ele>102</ele>
        <time>2021-04-11 07:52:12</time>
      </trkpt>
      <trkpt lat="41.41357" lon="2.0126">
        <ele>102.2</ele>
        <time>2021-04-11 07:52:13</time>
      </trkpt>
      <trkpt lat="41.41359" lon="2.01259">
        <ele>102.2</ele>
        <time>2021-04-11 07:52:14</time>
      </trkpt>
      <trkpt lat="41.41361" lon="2.01258">
        <ele>102.2</ele>
        <time>2021-04-11 07:52:15</time>
      </trkpt>
      <trkpt lat="41.41363" lon="2.01257">
        <ele>102.2</ele>
        <time>2021-04-11 07:52:16</time>
      </trkpt>
      <trkpt lat="41.41365" lon="2.01256">
        <ele>102.4</ele>
        <time>2021-04-11 07:52:17</time>
      </trkpt>
      <trkpt lat="41.41366" lon="2.01255">
        <ele>102.4</ele>
        <time>2021-04-11 07:52:18</time>
      </trkpt>
      <trkpt lat="41.41368" lon="2.01254">
        <ele>102.4</ele>
        <time>2021-04-11 07:52:19</time>
      </trkpt>
      <trkpt lat="41.41369" lon="2.01254">
        <ele>102.4</ele>
        <time>2021-04-11 07:52:20</time>
      </trkpt>
      <trkpt lat="41.41372" lon="2.01252">
        <ele>102.4</ele>
        <time>2021-04-11 07:52:28</time>
      </trkpt>
      <trkpt lat="41.41374" lon="2.01251">
        <ele>102.4</ele>
        <time>2021-04-11 07:52:29</time>
      </trkpt>
      <trkpt lat="41.41376" lon="2.01249">
        <ele>102.4</ele>
        <time>2021-04-11 07:52:30</time>
      </trkpt>
      <trkpt lat="41.41378" lon="2.01247">
        <ele>102.2</ele>
        <time>2021-04-11 07:52:31</time>
      </trkpt>
      <trkpt lat="41.41381" lon="2.01246">
        <ele>102.2</ele>
        <time>2021-04-11 07:52:32</time>
      </trkpt>
      <trkpt lat="41.41386" lon="2.01243">
        <ele>102</ele>
        <time>2021-04-11 07:52:33</time>
      </trkpt>
      <trkpt lat="41.4139" lon="2.01241">
        <ele>102</ele>
        <time>2021-04-11 07:52:34</time>
      </trkpt>
      <trkpt lat="41.41393" lon="2.01239">
        <ele>101.8</ele>
        <time>2021-04-11 07:52:35</time>
      </trkpt>
      <trkpt lat="41.41397" lon="2.01237">
        <ele>101.8</ele>
        <time>2021-04-11 07:52:36</time>
      </trkpt>
      <trkpt lat="41.41401" lon="2.01235">
        <ele>101.8</ele>
        <time>2021-04-11 07:52:37</time>
      </trkpt>
      <trkpt lat="41.41406" lon="2.01233">
        <ele>101.6</ele>
        <time>2021-04-11 07:52:38</time>
      </trkpt>
      <trkpt lat="41.41411" lon="2.0123">
        <ele>101.4</ele>
        <time>2021-04-11 07:52:39</time>
      </trkpt>
      <trkpt lat="41.41415" lon="2.01228">
        <ele>101.4</ele>
        <time>2021-04-11 07:52:40</time>
      </trkpt>
      <trkpt lat="41.4142" lon="2.01226">
        <ele>101.4</ele>
        <time>2021-04-11 07:52:41</time>
      </trkpt>
      <trkpt lat="41.41425" lon="2.01222">
        <ele>101.2</ele>
        <time>2021-04-11 07:52:42</time>
      </trkpt>
      <trkpt lat="41.41431" lon="2.01219">
        <ele>101.2</ele>
        <time>2021-04-11 07:52:43</time>
      </trkpt>
      <trkpt lat="41.41437" lon="2.01215">
        <ele>101</ele>
        <time>2021-04-11 07:52:44</time>
      </trkpt>
      <trkpt lat="41.41443" lon="2.01212">
        <ele>101</ele>
        <time>2021-04-11 07:52:45</time>
      </trkpt>
      <trkpt lat="41.41448" lon="2.01208">
        <ele>101</ele>
        <time>2021-04-11 07:52:46</time>
      </trkpt>
      <trkpt lat="41.41454" lon="2.01204">
        <ele>101</ele>
        <time>2021-04-11 07:52:47</time>
      </trkpt>
      <trkpt lat="41.4146" lon="2.01201">
        <ele>100.8</ele>
        <time>2021-04-11 07:52:48</time>
      </trkpt>
      <trkpt lat="41.41467" lon="2.01197">
        <ele>100.8</ele>
        <time>2021-04-11 07:52:49</time>
      </trkpt>
      <trkpt lat="41.41472" lon="2.01193">
        <ele>100.8</ele>
        <time>2021-04-11 07:52:50</time>
      </trkpt>
      <trkpt lat="41.41478" lon="2.01189">
        <ele>100.6</ele>
        <time>2021-04-11 07:52:51</time>
      </trkpt>
      <trkpt lat="41.41485" lon="2.01185">
        <ele>100.6</ele>
        <time>2021-04-11 07:52:52</time>
      </trkpt>
      <trkpt lat="41.4149" lon="2.01182">
        <ele>100.6</ele>
        <time>2021-04-11 07:52:53</time>
      </trkpt>
      <trkpt lat="41.41496" lon="2.01178">
        <ele>100.6</ele>
        <time>2021-04-11 07:52:54</time>
      </trkpt>
      <trkpt lat="41.41503" lon="2.01174">
        <ele>100.6</ele>
        <time>2021-04-11 07:52:55</time>
      </trkpt>
      <trkpt lat="41.41509" lon="2.0117">
        <ele>100.6</ele>
        <time>2021-04-11 07:52:56</time>
      </trkpt>
      <trkpt lat="41.41516" lon="2.01166">
        <ele>100.6</ele>
        <time>2021-04-11 07:52:57</time>
      </trkpt>
      <trkpt lat="41.41522" lon="2.01162">
        <ele>100.6</ele>
        <time>2021-04-11 07:52:58</time>
      </trkpt>
      <trkpt lat="41.41529" lon="2.01158">
        <ele>100.6</ele>
        <time>2021-04-11 07:52:59</time>
      </trkpt>
      <trkpt lat="41.41535" lon="2.01154">
        <ele>100.6</ele>
        <time>2021-04-11 07:53:00</time>
      </trkpt>
      <trkpt lat="41.41541" lon="2.0115">
        <ele>100.6</ele>
        <time>2021-04-11 07:53:01</time>
      </trkpt>
      <trkpt lat="41.41547" lon="2.01146">
        <ele>100.6</ele>
        <time>2021-04-11 07:53:02</time>
      </trkpt>
      <trkpt lat="41.41553" lon="2.01142">
        <ele>100.6</ele>
        <time>2021-04-11 07:53:03</time>
      </trkpt>
      <trkpt lat="41.41559" lon="2.01138">
        <ele>100.6</ele>
        <time>2021-04-11 07:53:04</time>
      </trkpt>
      <trkpt lat="41.41566" lon="2.01134">
        <ele>100.6</ele>
        <time>2021-04-11 07:53:05</time>
      </trkpt>
      <trkpt lat="41.41571" lon="2.0113">
        <ele>100.8</ele>
        <time>2021-04-11 07:53:06</time>
      </trkpt>
      <trkpt lat="41.41578" lon="2.01126">
        <ele>100.8</ele>
        <time>2021-04-11 07:53:07</time>
      </trkpt>
      <trkpt lat="41.41584" lon="2.01123">
        <ele>100.8</ele>
        <time>2021-04-11 07:53:08</time>
      </trkpt>
      <trkpt lat="41.4159" lon="2.01119">
        <ele>100.8</ele>
        <time>2021-04-11 07:53:09</time>
      </trkpt>
      <trkpt lat="41.41596" lon="2.01115">
        <ele>101</ele>
        <time>2021-04-11 07:53:10</time>
      </trkpt>
      <trkpt lat="41.41603" lon="2.01111">
        <ele>101</ele>
        <time>2021-04-11 07:53:11</time>
      </trkpt>
      <trkpt lat="41.41609" lon="2.01107">
        <ele>101</ele>
        <time>2021-04-11 07:53:12</time>
      </trkpt>
      <trkpt lat="41.41614" lon="2.01103">
        <ele>101</ele>
        <time>2021-04-11 07:53:13</time>
      </trkpt>
      <trkpt lat="41.41621" lon="2.01099">
        <ele>101.2</ele>
        <time>2021-04-11 07:53:14</time>
      </trkpt>
      <trkpt lat="41.41627" lon="2.01095">
        <ele>101.2</ele>
        <time>2021-04-11 07:53:15</time>
      </trkpt>
      <trkpt lat="41.41633" lon="2.01092">
        <ele>101.4</ele>
        <time>2021-04-11 07:53:16</time>
      </trkpt>
      <trkpt lat="41.41639" lon="2.01088">
        <ele>101.4</ele>
        <time>2021-04-11 07:53:17</time>
      </trkpt>
      <trkpt lat="41.41645" lon="2.01084">
        <ele>101.6</ele>
        <time>2021-04-11 07:53:18</time>
      </trkpt>
      <trkpt lat="41.41651" lon="2.0108">
        <ele>101.6</ele>
        <time>2021-04-11 07:53:19</time>
      </trkpt>
      <trkpt lat="41.41657" lon="2.01076">
        <ele>101.8</ele>
        <time>2021-04-11 07:53:20</time>
      </trkpt>
      <trkpt lat="41.41662" lon="2.01073">
        <ele>101.8</ele>
        <time>2021-04-11 07:53:21</time>
      </trkpt>
      <trkpt lat="41.41668" lon="2.01069">
        <ele>102</ele>
        <time>2021-04-11 07:53:22</time>
      </trkpt>
      <trkpt lat="41.41674" lon="2.01065">
        <ele>102</ele>
        <time>2021-04-11 07:53:23</time>
      </trkpt>
      <trkpt lat="41.4168" lon="2.01062">
        <ele>102.2</ele>
        <time>2021-04-11 07:53:24</time>
      </trkpt>
      <trkpt lat="41.41686" lon="2.01058">
        <ele>102.4</ele>
        <time>2021-04-11 07:53:25</time>
      </trkpt>
      <trkpt lat="41.41692" lon="2.01054">
        <ele>102.4</ele>
        <time>2021-04-11 07:53:26</time>
      </trkpt>
      <trkpt lat="41.41698" lon="2.01051">
        <ele>102.6</ele>
        <time>2021-04-11 07:53:27</time>
      </trkpt>
      <trkpt lat="41.41704" lon="2.01047">
        <ele>102.6</ele>
        <time>2021-04-11 07:53:28</time>
      </trkpt>
      <trkpt lat="41.4171" lon="2.01043">
        <ele>102.6</ele>
        <time>2021-04-11 07:53:29</time>
      </trkpt>
      <trkpt lat="41.41716" lon="2.0104">
        <ele>102.8</ele>
        <time>2021-04-11 07:53:30</time>
      </trkpt>
      <trkpt lat="41.41721" lon="2.01036">
        <ele>102.8</ele>
        <time>2021-04-11 07:53:31</time>
      </trkpt>
      <trkpt lat="41.41728" lon="2.01032">
        <ele>103</ele>
        <time>2021-04-11 07:53:32</time>
      </trkpt>
      <trkpt lat="41.41734" lon="2.01028">
        <ele>103</ele>
        <time>2021-04-11 07:53:33</time>
      </trkpt>
      <trkpt lat="41.4174" lon="2.01025">
        <ele>103</ele>
        <time>2021-04-11 07:53:34</time>
      </trkpt>
      <trkpt lat="41.41745" lon="2.01021">
        <ele>103.2</ele>
        <time>2021-04-11 07:53:35</time>
      </trkpt>
      <trkpt lat="41.41751" lon="2.01017">
        <ele>103.2</ele>
        <time>2021-04-11 07:53:36</time>
      </trkpt>
      <trkpt lat="41.41757" lon="2.01013">
        <ele>103.2</ele>
        <time>2021-04-11 07:53:37</time>
      </trkpt>
      <trkpt lat="41.41763" lon="2.01009">
        <ele>103.4</ele>
        <time>2021-04-11 07:53:38</time>
      </trkpt>
      <trkpt lat="41.41769" lon="2.01006">
        <ele>103.4</ele>
        <time>2021-04-11 07:53:39</time>
      </trkpt>
      <trkpt lat="41.41776" lon="2.01002">
        <ele>103.4</ele>
        <time>2021-04-11 07:53:40</time>
      </trkpt>
      <trkpt lat="41.4178" lon="2.00999">
        <ele>103.6</ele>
        <time>2021-04-11 07:53:41</time>
      </trkpt>
      <trkpt lat="41.41787" lon="2.00995">
        <ele>103.6</ele>
        <time>2021-04-11 07:53:42</time>
      </trkpt>
      <trkpt lat="41.41793" lon="2.00991">
        <ele>103.8</ele>
        <time>2021-04-11 07:53:43</time>
      </trkpt>
      <trkpt lat="41.41799" lon="2.00987">
        <ele>103.8</ele>
        <time>2021-04-11 07:53:44</time>
      </trkpt>
      <trkpt lat="41.41805" lon="2.00983">
        <ele>103.8</ele>
        <time>2021-04-11 07:53:45</time>
      </trkpt>
      <trkpt lat="41.41811" lon="2.0098">
        <ele>104</ele>
        <time>2021-04-11 07:53:46</time>
      </trkpt>
      <trkpt lat="41.41817" lon="2.00976">
        <ele>104</ele>
        <time>2021-04-11 07:53:47</time>
      </trkpt>
      <trkpt lat="41.41823" lon="2.00972">
        <ele>104.2</ele>
        <time>2021-04-11 07:53:48</time>
      </trkpt>
      <trkpt lat="41.41829" lon="2.00968">
        <ele>104.2</ele>
        <time>2021-04-11 07:53:49</time>
      </trkpt>
      <trkpt lat="41.41835" lon="2.00964">
        <ele>104.4</ele>
        <time>2021-04-11 07:53:50</time>
      </trkpt>
      <trkpt lat="41.41841" lon="2.00961">
        <ele>104.4</ele>
        <time>2021-04-11 07:53:51</time>
      </trkpt>
      <trkpt lat="41.41848" lon="2.00957">
        <ele>104.4</ele>
        <time>2021-04-11 07:53:52</time>
      </trkpt>
      <trkpt lat="41.41854" lon="2.00953">
        <ele>104.6</ele>
        <time>2021-04-11 07:53:53</time>
      </trkpt>
      <trkpt lat="41.4186" lon="2.0095">
        <ele>104.6</ele>
        <time>2021-04-11 07:53:54</time>
      </trkpt>
      <trkpt lat="41.41866" lon="2.00947">
        <ele>104.6</ele>
        <time>2021-04-11 07:53:55</time>
      </trkpt>
      <trkpt lat="41.41872" lon="2.00944">
        <ele>104.8</ele>
        <time>2021-04-11 07:53:56</time>
      </trkpt>
      <trkpt lat="41.41879" lon="2.0094">
        <ele>104.8</ele>
        <time>2021-04-11 07:53:57</time>
      </trkpt>
      <trkpt lat="41.41885" lon="2.00936">
        <ele>105</ele>
        <time>2021-04-11 07:53:58</time>
      </trkpt>
      <trkpt lat="41.41892" lon="2.00933">
        <ele>105</ele>
        <time>2021-04-11 07:53:59</time>
      </trkpt>
      <trkpt lat="41.41898" lon="2.0093">
        <ele>105.2</ele>
        <time>2021-04-11 07:54:00</time>
      </trkpt>
      <trkpt lat="41.41904" lon="2.00927">
        <ele>105.2</ele>
        <time>2021-04-11 07:54:01</time>
      </trkpt>
      <trkpt lat="41.41911" lon="2.00924">
        <ele>105.2</ele>
        <time>2021-04-11 07:54:02</time>
      </trkpt>
      <trkpt lat="41.41917" lon="2.00921">
        <ele>105.4</ele>
        <time>2021-04-11 07:54:03</time>
      </trkpt>
      <trkpt lat="41.41923" lon="2.00918">
        <ele>105.4</ele>
        <time>2021-04-11 07:54:04</time>
      </trkpt>
      <trkpt lat="41.4193" lon="2.00915">
        <ele>105.6</ele>
        <time>2021-04-11 07:54:05</time>
      </trkpt>
      <trkpt lat="41.41936" lon="2.00912">
        <ele>105.6</ele>
        <time>2021-04-11 07:54:06</time>
      </trkpt>
      <trkpt lat="41.41943" lon="2.00909">
        <ele>105.8</ele>
        <time>2021-04-11 07:54:07</time>
      </trkpt>
      <trkpt lat="41.41949" lon="2.00906">
        <ele>105.8</ele>
        <time>2021-04-11 07:54:08</time>
      </trkpt>
      <trkpt lat="41.41955" lon="2.00904">
        <ele>106</ele>
        <time>2021-04-11 07:54:09</time>
      </trkpt>
      <trkpt lat="41.41962" lon="2.00901">
        <ele>106</ele>
        <time>2021-04-11 07:54:10</time>
      </trkpt>
      <trkpt lat="41.41968" lon="2.00898">
        <ele>106.2</ele>
        <time>2021-04-11 07:54:11</time>
      </trkpt>
      <trkpt lat="41.41975" lon="2.00896">
        <ele>106.4</ele>
        <time>2021-04-11 07:54:12</time>
      </trkpt>
      <trkpt lat="41.41982" lon="2.00893">
        <ele>106.4</ele>
        <time>2021-04-11 07:54:13</time>
      </trkpt>
      <trkpt lat="41.41988" lon="2.0089">
        <ele>106.6</ele>
        <time>2021-04-11 07:54:14</time>
      </trkpt>
      <trkpt lat="41.41994" lon="2.00888">
        <ele>106.8</ele>
        <time>2021-04-11 07:54:15</time>
      </trkpt>
      <trkpt lat="41.42" lon="2.00886">
        <ele>107</ele>
        <time>2021-04-11 07:54:16</time>
      </trkpt>
      <trkpt lat="41.42007" lon="2.00883">
        <ele>107</ele>
        <time>2021-04-11 07:54:17</time>
      </trkpt>
      <trkpt lat="41.42014" lon="2.00881">
        <ele>107.2</ele>
        <time>2021-04-11 07:54:18</time>
      </trkpt>
      <trkpt lat="41.4202" lon="2.00879">
        <ele>107.4</ele>
        <time>2021-04-11 07:54:19</time>
      </trkpt>
      <trkpt lat="41.42026" lon="2.00876">
        <ele>107.4</ele>
        <time>2021-04-11 07:54:20</time>
      </trkpt>
      <trkpt lat="41.42033" lon="2.00874">
        <ele>107.6</ele>
        <time>2021-04-11 07:54:21</time>
      </trkpt>
      <trkpt lat="41.42039" lon="2.00872">
        <ele>107.8</ele>
        <time>2021-04-11 07:54:22</time>
      </trkpt>
      <trkpt lat="41.42046" lon="2.00869">
        <ele>108</ele>
        <time>2021-04-11 07:54:23</time>
      </trkpt>
      <trkpt lat="41.42053" lon="2.00867">
        <ele>108.2</ele>
        <time>2021-04-11 07:54:24</time>
      </trkpt>
      <trkpt lat="41.42059" lon="2.00864">
        <ele>108.4</ele>
        <time>2021-04-11 07:54:25</time>
      </trkpt>
      <trkpt lat="41.42064" lon="2.00862">
        <ele>108.6</ele>
        <time>2021-04-11 07:54:26</time>
      </trkpt>
      <trkpt lat="41.42072" lon="2.00859">
        <ele>108.8</ele>
        <time>2021-04-11 07:54:27</time>
      </trkpt>
      <trkpt lat="41.42078" lon="2.00857">
        <ele>109</ele>
        <time>2021-04-11 07:54:28</time>
      </trkpt>
      <trkpt lat="41.42084" lon="2.00855">
        <ele>109.2</ele>
        <time>2021-04-11 07:54:29</time>
      </trkpt>
      <trkpt lat="41.4209" lon="2.00852">
        <ele>109.4</ele>
        <time>2021-04-11 07:54:30</time>
      </trkpt>
      <trkpt lat="41.42097" lon="2.00849">
        <ele>109.6</ele>
        <time>2021-04-11 07:54:31</time>
      </trkpt>
      <trkpt lat="41.42103" lon="2.00847">
        <ele>109.8</ele>
        <time>2021-04-11 07:54:32</time>
      </trkpt>
      <trkpt lat="41.42109" lon="2.00844">
        <ele>110</ele>
        <time>2021-04-11 07:54:33</time>
      </trkpt>
      <trkpt lat="41.42115" lon="2.00842">
        <ele>110.2</ele>
        <time>2021-04-11 07:54:34</time>
      </trkpt>
      <trkpt lat="41.42121" lon="2.00839">
        <ele>110.4</ele>
        <time>2021-04-11 07:54:35</time>
      </trkpt>
      <trkpt lat="41.42127" lon="2.00836">
        <ele>110.6</ele>
        <time>2021-04-11 07:54:36</time>
      </trkpt>
      <trkpt lat="41.42133" lon="2.00833">
        <ele>110.8</ele>
        <time>2021-04-11 07:54:37</time>
      </trkpt>
      <trkpt lat="41.42139" lon="2.0083">
        <ele>111</ele>
        <time>2021-04-11 07:54:38</time>
      </trkpt>
      <trkpt lat="41.42145" lon="2.00827">
        <ele>111.2</ele>
        <time>2021-04-11 07:54:39</time>
      </trkpt>
      <trkpt lat="41.42151" lon="2.00824">
        <ele>111.4</ele>
        <time>2021-04-11 07:54:40</time>
      </trkpt>
      <trkpt lat="41.42157" lon="2.00821">
        <ele>111.6</ele>
        <time>2021-04-11 07:54:41</time>
      </trkpt>
      <trkpt lat="41.42163" lon="2.00818">
        <ele>111.6</ele>
        <time>2021-04-11 07:54:42</time>
      </trkpt>
      <trkpt lat="41.42169" lon="2.00815">
        <ele>111.8</ele>
        <time>2021-04-11 07:54:43</time>
      </trkpt>
      <trkpt lat="41.42175" lon="2.00812">
        <ele>111.8</ele>
        <time>2021-04-11 07:54:44</time>
      </trkpt>
      <trkpt lat="41.42181" lon="2.00809">
        <ele>111.8</ele>
        <time>2021-04-11 07:54:45</time>
      </trkpt>
      <trkpt lat="41.42187" lon="2.00806">
        <ele>112</ele>
        <time>2021-04-11 07:54:46</time>
      </trkpt>
      <trkpt lat="41.42194" lon="2.00802">
        <ele>112</ele>
        <time>2021-04-11 07:54:47</time>
      </trkpt>
      <trkpt lat="41.422" lon="2.00799">
        <ele>112</ele>
        <time>2021-04-11 07:54:48</time>
      </trkpt>
      <trkpt lat="41.42206" lon="2.00796">
        <ele>112</ele>
        <time>2021-04-11 07:54:49</time>
      </trkpt>
      <trkpt lat="41.42212" lon="2.00792">
        <ele>112</ele>
        <time>2021-04-11 07:54:50</time>
      </trkpt>
      <trkpt lat="41.42218" lon="2.00788">
        <ele>112</ele>
        <time>2021-04-11 07:54:51</time>
      </trkpt>
      <trkpt lat="41.42224" lon="2.00785">
        <ele>112</ele>
        <time>2021-04-11 07:54:52</time>
      </trkpt>
      <trkpt lat="41.4223" lon="2.0078">
        <ele>112</ele>
        <time>2021-04-11 07:54:53</time>
      </trkpt>
      <trkpt lat="41.42236" lon="2.00777">
        <ele>112</ele>
        <time>2021-04-11 07:54:54</time>
      </trkpt>
      <trkpt lat="41.42242" lon="2.00773">
        <ele>112.2</ele>
        <time>2021-04-11 07:54:55</time>
      </trkpt>
      <trkpt lat="41.42248" lon="2.00769">
        <ele>112.2</ele>
        <time>2021-04-11 07:54:56</time>
      </trkpt>
      <trkpt lat="41.42255" lon="2.00764">
        <ele>112.2</ele>
        <time>2021-04-11 07:54:57</time>
      </trkpt>
      <trkpt lat="41.42261" lon="2.0076">
        <ele>112.2</ele>
        <time>2021-04-11 07:54:58</time>
      </trkpt>
      <trkpt lat="41.42268" lon="2.00756">
        <ele>112.2</ele>
        <time>2021-04-11 07:54:59</time>
      </trkpt>
      <trkpt lat="41.42274" lon="2.00751">
        <ele>112.2</ele>
        <time>2021-04-11 07:55:00</time>
      </trkpt>
      <trkpt lat="41.4228" lon="2.00746">
        <ele>112.2</ele>
        <time>2021-04-11 07:55:01</time>
      </trkpt>
      <trkpt lat="41.42286" lon="2.00742">
        <ele>112.2</ele>
        <time>2021-04-11 07:55:02</time>
      </trkpt>
      <trkpt lat="41.42292" lon="2.00738">
        <ele>112.2</ele>
        <time>2021-04-11 07:55:03</time>
      </trkpt>
      <trkpt lat="41.42297" lon="2.00734">
        <ele>112.2</ele>
        <time>2021-04-11 07:55:04</time>
      </trkpt>
      <trkpt lat="41.42304" lon="2.00729">
        <ele>112</ele>
        <time>2021-04-11 07:55:05</time>
      </trkpt>
      <trkpt lat="41.42309" lon="2.00725">
        <ele>112</ele>
        <time>2021-04-11 07:55:06</time>
      </trkpt>
      <trkpt lat="41.42315" lon="2.0072">
        <ele>112</ele>
        <time>2021-04-11 07:55:07</time>
      </trkpt>
      <trkpt lat="41.42321" lon="2.00715">
        <ele>112</ele>
        <time>2021-04-11 07:55:08</time>
      </trkpt>
      <trkpt lat="41.42326" lon="2.0071">
        <ele>112</ele>
        <time>2021-04-11 07:55:09</time>
      </trkpt>
      <trkpt lat="41.42331" lon="2.00707">
        <ele>112</ele>
        <time>2021-04-11 07:55:10</time>
      </trkpt>
      <trkpt lat="41.42338" lon="2.00702">
        <ele>111.8</ele>
        <time>2021-04-11 07:55:11</time>
      </trkpt>
      <trkpt lat="41.42345" lon="2.00698">
        <ele>111.8</ele>
        <time>2021-04-11 07:55:12</time>
      </trkpt>
      <trkpt lat="41.42351" lon="2.00694">
        <ele>111.8</ele>
        <time>2021-04-11 07:55:13</time>
      </trkpt>
      <trkpt lat="41.42358" lon="2.0069">
        <ele>111.6</ele>
        <time>2021-04-11 07:55:14</time>
      </trkpt>
      <trkpt lat="41.42365" lon="2.00686">
        <ele>111.4</ele>
        <time>2021-04-11 07:55:15</time>
      </trkpt>
      <trkpt lat="41.42372" lon="2.00682">
        <ele>111.2</ele>
        <time>2021-04-11 07:55:16</time>
      </trkpt>
      <trkpt lat="41.42379" lon="2.00677">
        <ele>111</ele>
        <time>2021-04-11 07:55:17</time>
      </trkpt>
      <trkpt lat="41.42387" lon="2.00672">
        <ele>110.8</ele>
        <time>2021-04-11 07:55:18</time>
      </trkpt>
      <trkpt lat="41.42395" lon="2.00666">
        <ele>110.4</ele>
        <time>2021-04-11 07:55:19</time>
      </trkpt>
      <trkpt lat="41.42402" lon="2.00661">
        <ele>110.2</ele>
        <time>2021-04-11 07:55:20</time>
      </trkpt>
      <trkpt lat="41.42412" lon="2.00655">
        <ele>110</ele>
        <time>2021-04-11 07:55:21</time>
      </trkpt>
      <trkpt lat="41.4242" lon="2.0065">
        <ele>109.6</ele>
        <time>2021-04-11 07:55:22</time>
      </trkpt>
      <trkpt lat="41.42428" lon="2.00645">
        <ele>109.2</ele>
        <time>2021-04-11 07:55:23</time>
      </trkpt>
      <trkpt lat="41.42437" lon="2.0064">
        <ele>109</ele>
        <time>2021-04-11 07:55:24</time>
      </trkpt>
      <trkpt lat="41.42445" lon="2.00634">
        <ele>108.6</ele>
        <time>2021-04-11 07:55:25</time>
      </trkpt>
      <trkpt lat="41.42454" lon="2.00628">
        <ele>108.4</ele>
        <time>2021-04-11 07:55:26</time>
      </trkpt>
      <trkpt lat="41.42463" lon="2.00621">
        <ele>108.2</ele>
        <time>2021-04-11 07:55:27</time>
      </trkpt>
      <trkpt lat="41.42471" lon="2.00615">
        <ele>107.8</ele>
        <time>2021-04-11 07:55:28</time>
      </trkpt>
      <trkpt lat="41.42481" lon="2.00609">
        <ele>107.4</ele>
        <time>2021-04-11 07:55:29</time>
      </trkpt>
      <trkpt lat="41.42491" lon="2.00604">
        <ele>107.2</ele>
        <time>2021-04-11 07:55:30</time>
      </trkpt>
      <trkpt lat="41.42501" lon="2.00598">
        <ele>106.8</ele>
        <time>2021-04-11 07:55:31</time>
      </trkpt>
      <trkpt lat="41.4251" lon="2.00594">
        <ele>106.6</ele>
        <time>2021-04-11 07:55:32</time>
      </trkpt>
      <trkpt lat="41.4252" lon="2.00589">
        <ele>106.2</ele>
        <time>2021-04-11 07:55:33</time>
      </trkpt>
      <trkpt lat="41.4253" lon="2.00584">
        <ele>106</ele>
        <time>2021-04-11 07:55:34</time>
      </trkpt>
      <trkpt lat="41.42539" lon="2.00579">
        <ele>105.6</ele>
        <time>2021-04-11 07:55:35</time>
      </trkpt>
      <trkpt lat="41.4255" lon="2.00575">
        <ele>105.6</ele>
        <time>2021-04-11 07:55:36</time>
      </trkpt>
      <trkpt lat="41.42559" lon="2.00572">
        <ele>105.4</ele>
        <time>2021-04-11 07:55:37</time>
      </trkpt>
      <trkpt lat="41.42567" lon="2.00568">
        <ele>105.2</ele>
        <time>2021-04-11 07:55:38</time>
      </trkpt>
      <trkpt lat="41.42578" lon="2.00564">
        <ele>105</ele>
        <time>2021-04-11 07:55:39</time>
      </trkpt>
      <trkpt lat="41.42586" lon="2.00561">
        <ele>104.8</ele>
        <time>2021-04-11 07:55:40</time>
      </trkpt>
      <trkpt lat="41.42597" lon="2.00557">
        <ele>104.8</ele>
        <time>2021-04-11 07:55:41</time>
      </trkpt>
      <trkpt lat="41.42607" lon="2.00554">
        <ele>104.8</ele>
        <time>2021-04-11 07:55:42</time>
      </trkpt>
      <trkpt lat="41.42616" lon="2.00551">
        <ele>104.6</ele>
        <time>2021-04-11 07:55:43</time>
      </trkpt>
      <trkpt lat="41.42625" lon="2.00547">
        <ele>104.6</ele>
        <time>2021-04-11 07:55:44</time>
      </trkpt>
      <trkpt lat="41.42635" lon="2.00544">
        <ele>104.6</ele>
        <time>2021-04-11 07:55:45</time>
      </trkpt>
      <trkpt lat="41.42644" lon="2.0054">
        <ele>104.4</ele>
        <time>2021-04-11 07:55:46</time>
      </trkpt>
      <trkpt lat="41.42653" lon="2.00536">
        <ele>104.4</ele>
        <time>2021-04-11 07:55:47</time>
      </trkpt>
      <trkpt lat="41.42662" lon="2.00532">
        <ele>104.4</ele>
        <time>2021-04-11 07:55:48</time>
      </trkpt>
      <trkpt lat="41.42671" lon="2.00527">
        <ele>104.2</ele>
        <time>2021-04-11 07:55:49</time>
      </trkpt>
      <trkpt lat="41.42679" lon="2.00522">
        <ele>104.2</ele>
        <time>2021-04-11 07:55:50</time>
      </trkpt>
      <trkpt lat="41.42687" lon="2.00515">
        <ele>104.2</ele>
        <time>2021-04-11 07:55:51</time>
      </trkpt>
      <trkpt lat="41.42695" lon="2.00508">
        <ele>104.2</ele>
        <time>2021-04-11 07:55:52</time>
      </trkpt>
      <trkpt lat="41.42703" lon="2.00502">
        <ele>104.4</ele>
        <time>2021-04-11 07:55:53</time>
      </trkpt>
      <trkpt lat="41.4271" lon="2.00496">
        <ele>104.2</ele>
        <time>2021-04-11 07:55:54</time>
      </trkpt>
      <trkpt lat="41.42717" lon="2.00491">
        <ele>104.2</ele>
        <time>2021-04-11 07:55:55</time>
      </trkpt>
      <trkpt lat="41.42725" lon="2.00486">
        <ele>104.2</ele>
        <time>2021-04-11 07:55:56</time>
      </trkpt>
      <trkpt lat="41.42733" lon="2.0048">
        <ele>104.2</ele>
        <time>2021-04-11 07:55:57</time>
      </trkpt>
      <trkpt lat="41.42741" lon="2.00475">
        <ele>104.2</ele>
        <time>2021-04-11 07:55:58</time>
      </trkpt>
      <trkpt lat="41.42748" lon="2.00471">
        <ele>104</ele>
        <time>2021-04-11 07:55:59</time>
      </trkpt>
      <trkpt lat="41.42756" lon="2.00466">
        <ele>104</ele>
        <time>2021-04-11 07:56:00</time>
      </trkpt>
      <trkpt lat="41.42765" lon="2.00461">
        <ele>104</ele>
        <time>2021-04-11 07:56:01</time>
      </trkpt>
      <trkpt lat="41.42773" lon="2.00457">
        <ele>104</ele>
        <time>2021-04-11 07:56:02</time>
      </trkpt>
      <trkpt lat="41.42781" lon="2.00453">
        <ele>104</ele>
        <time>2021-04-11 07:56:03</time>
      </trkpt>
      <trkpt lat="41.42789" lon="2.0045">
        <ele>104</ele>
        <time>2021-04-11 07:56:04</time>
      </trkpt>
      <trkpt lat="41.42798" lon="2.00447">
        <ele>104</ele>
        <time>2021-04-11 07:56:05</time>
      </trkpt>
      <trkpt lat="41.42806" lon="2.00445">
        <ele>104</ele>
        <time>2021-04-11 07:56:06</time>
      </trkpt>
      <trkpt lat="41.42814" lon="2.00442">
        <ele>104.2</ele>
        <time>2021-04-11 07:56:07</time>
      </trkpt>
      <trkpt lat="41.42823" lon="2.0044">
        <ele>104.2</ele>
        <time>2021-04-11 07:56:08</time>
      </trkpt>
      <trkpt lat="41.42831" lon="2.00438">
        <ele>104.2</ele>
        <time>2021-04-11 07:56:09</time>
      </trkpt>
      <trkpt lat="41.42839" lon="2.00437">
        <ele>104.4</ele>
        <time>2021-04-11 07:56:10</time>
      </trkpt>
      <trkpt lat="41.42847" lon="2.00435">
        <ele>104.4</ele>
        <time>2021-04-11 07:56:11</time>
      </trkpt>
      <trkpt lat="41.42855" lon="2.00434">
        <ele>104.6</ele>
        <time>2021-04-11 07:56:12</time>
      </trkpt>
      <trkpt lat="41.42863" lon="2.00432">
        <ele>104.6</ele>
        <time>2021-04-11 07:56:13</time>
      </trkpt>
      <trkpt lat="41.42871" lon="2.0043">
        <ele>104.6</ele>
        <time>2021-04-11 07:56:14</time>
      </trkpt>
      <trkpt lat="41.42879" lon="2.00429">
        <ele>104.8</ele>
        <time>2021-04-11 07:56:15</time>
      </trkpt>
      <trkpt lat="41.42887" lon="2.00427">
        <ele>104.8</ele>
        <time>2021-04-11 07:56:16</time>
      </trkpt>
      <trkpt lat="41.42896" lon="2.00426">
        <ele>105</ele>
        <time>2021-04-11 07:56:17</time>
      </trkpt>
      <trkpt lat="41.42904" lon="2.00424">
        <ele>105</ele>
        <time>2021-04-11 07:56:18</time>
      </trkpt>
      <trkpt lat="41.42911" lon="2.00423">
        <ele>105.2</ele>
        <time>2021-04-11 07:56:19</time>
      </trkpt>
      <trkpt lat="41.4292" lon="2.00421">
        <ele>105.2</ele>
        <time>2021-04-11 07:56:20</time>
      </trkpt>
      <trkpt lat="41.42928" lon="2.0042">
        <ele>105.4</ele>
        <time>2021-04-11 07:56:21</time>
      </trkpt>
      <trkpt lat="41.42935" lon="2.00419">
        <ele>105.4</ele>
        <time>2021-04-11 07:56:22</time>
      </trkpt>
      <trkpt lat="41.42943" lon="2.00417">
        <ele>105.4</ele>
        <time>2021-04-11 07:56:23</time>
      </trkpt>
      <trkpt lat="41.42951" lon="2.00416">
        <ele>105.6</ele>
        <time>2021-04-11 07:56:24</time>
      </trkpt>
      <trkpt lat="41.42958" lon="2.00414">
        <ele>105.6</ele>
        <time>2021-04-11 07:56:25</time>
      </trkpt>
      <trkpt lat="41.42967" lon="2.00413">
        <ele>105.6</ele>
        <time>2021-04-11 07:56:26</time>
      </trkpt>
      <trkpt lat="41.42975" lon="2.00411">
        <ele>105.8</ele>
        <time>2021-04-11 07:56:27</time>
      </trkpt>
      <trkpt lat="41.42982" lon="2.00409">
        <ele>105.8</ele>
        <time>2021-04-11 07:56:28</time>
      </trkpt>
      <trkpt lat="41.42988" lon="2.00408">
        <ele>106</ele>
        <time>2021-04-11 07:56:29</time>
      </trkpt>
      <trkpt lat="41.42997" lon="2.00407">
        <ele>106</ele>
        <time>2021-04-11 07:56:30</time>
      </trkpt>
      <trkpt lat="41.43004" lon="2.00405">
        <ele>106</ele>
        <time>2021-04-11 07:56:31</time>
      </trkpt>
      <trkpt lat="41.43012" lon="2.00403">
        <ele>106.2</ele>
        <time>2021-04-11 07:56:32</time>
      </trkpt>
      <trkpt lat="41.4302" lon="2.00402">
        <ele>106.2</ele>
        <time>2021-04-11 07:56:33</time>
      </trkpt>
      <trkpt lat="41.43028" lon="2.00401">
        <ele>106.2</ele>
        <time>2021-04-11 07:56:34</time>
      </trkpt>
      <trkpt lat="41.43036" lon="2.00399">
        <ele>106.2</ele>
        <time>2021-04-11 07:56:35</time>
      </trkpt>
      <trkpt lat="41.43044" lon="2.00398">
        <ele>106.4</ele>
        <time>2021-04-11 07:56:36</time>
      </trkpt>
      <trkpt lat="41.43052" lon="2.00396">
        <ele>106.4</ele>
        <time>2021-04-11 07:56:37</time>
      </trkpt>
      <trkpt lat="41.43059" lon="2.00395">
        <ele>106.4</ele>
        <time>2021-04-11 07:56:38</time>
      </trkpt>
      <trkpt lat="41.43068" lon="2.00393">
        <ele>106.4</ele>
        <time>2021-04-11 07:56:39</time>
      </trkpt>
      <trkpt lat="41.43076" lon="2.00392">
        <ele>106.4</ele>
        <time>2021-04-11 07:56:40</time>
      </trkpt>
      <trkpt lat="41.43084" lon="2.0039">
        <ele>106.4</ele>
        <time>2021-04-11 07:56:41</time>
      </trkpt>
      <trkpt lat="41.43092" lon="2.00389">
        <ele>106.4</ele>
        <time>2021-04-11 07:56:42</time>
      </trkpt>
      <trkpt lat="41.431" lon="2.00387">
        <ele>106.4</ele>
        <time>2021-04-11 07:56:43</time>
      </trkpt>
      <trkpt lat="41.43109" lon="2.00385">
        <ele>106.4</ele>
        <time>2021-04-11 07:56:44</time>
      </trkpt>
      <trkpt lat="41.43117" lon="2.00383">
        <ele>106.4</ele>
        <time>2021-04-11 07:56:45</time>
      </trkpt>
      <trkpt lat="41.43125" lon="2.00382">
        <ele>106.4</ele>
        <time>2021-04-11 07:56:46</time>
      </trkpt>
      <trkpt lat="41.43134" lon="2.0038">
        <ele>106.4</ele>
        <time>2021-04-11 07:56:47</time>
      </trkpt>
      <trkpt lat="41.43141" lon="2.00378">
        <ele>106.4</ele>
        <time>2021-04-11 07:56:48</time>
      </trkpt>
      <trkpt lat="41.4315" lon="2.00375">
        <ele>106.4</ele>
        <time>2021-04-11 07:56:49</time>
      </trkpt>
      <trkpt lat="41.43158" lon="2.00373">
        <ele>106.4</ele>
        <time>2021-04-11 07:56:50</time>
      </trkpt>
      <trkpt lat="41.43166" lon="2.0037">
        <ele>106.6</ele>
        <time>2021-04-11 07:56:51</time>
      </trkpt>
      <trkpt lat="41.43174" lon="2.00368">
        <ele>106.6</ele>
        <time>2021-04-11 07:56:52</time>
      </trkpt>
      <trkpt lat="41.43181" lon="2.00366">
        <ele>106.6</ele>
        <time>2021-04-11 07:56:53</time>
      </trkpt>
      <trkpt lat="41.4319" lon="2.00362">
        <ele>106.6</ele>
        <time>2021-04-11 07:56:54</time>
      </trkpt>
      <trkpt lat="41.43198" lon="2.00359">
        <ele>106.8</ele>
        <time>2021-04-11 07:56:55</time>
      </trkpt>
      <trkpt lat="41.43206" lon="2.00356">
        <ele>106.8</ele>
        <time>2021-04-11 07:56:56</time>
      </trkpt>
      <trkpt lat="41.43214" lon="2.00353">
        <ele>106.8</ele>
        <time>2021-04-11 07:56:57</time>
      </trkpt>
      <trkpt lat="41.43221" lon="2.00351">
        <ele>107</ele>
        <time>2021-04-11 07:56:58</time>
      </trkpt>
      <trkpt lat="41.43229" lon="2.00347">
        <ele>107</ele>
        <time>2021-04-11 07:56:59</time>
      </trkpt>
      <trkpt lat="41.43237" lon="2.00344">
        <ele>107</ele>
        <time>2021-04-11 07:57:00</time>
      </trkpt>
      <trkpt lat="41.43245" lon="2.0034">
        <ele>107.2</ele>
        <time>2021-04-11 07:57:01</time>
      </trkpt>
      <trkpt lat="41.43252" lon="2.00337">
        <ele>107.2</ele>
        <time>2021-04-11 07:57:02</time>
      </trkpt>
      <trkpt lat="41.4326" lon="2.00333">
        <ele>107.2</ele>
        <time>2021-04-11 07:57:03</time>
      </trkpt>
      <trkpt lat="41.43267" lon="2.0033">
        <ele>107.2</ele>
        <time>2021-04-11 07:57:04</time>
      </trkpt>
      <trkpt lat="41.43275" lon="2.00326">
        <ele>107.2</ele>
        <time>2021-04-11 07:57:05</time>
      </trkpt>
      <trkpt lat="41.43283" lon="2.00322">
        <ele>107.2</ele>
        <time>2021-04-11 07:57:06</time>
      </trkpt>
      <trkpt lat="41.43291" lon="2.00318">
        <ele>107.2</ele>
        <time>2021-04-11 07:57:07</time>
      </trkpt>
      <trkpt lat="41.43298" lon="2.00314">
        <ele>107.2</ele>
        <time>2021-04-11 07:57:08</time>
      </trkpt>
      <trkpt lat="41.43306" lon="2.0031">
        <ele>107.2</ele>
        <time>2021-04-11 07:57:09</time>
      </trkpt>
      <trkpt lat="41.43314" lon="2.00306">
        <ele>107.2</ele>
        <time>2021-04-11 07:57:10</time>
      </trkpt>
      <trkpt lat="41.43321" lon="2.00302">
        <ele>107</ele>
        <time>2021-04-11 07:57:11</time>
      </trkpt>
      <trkpt lat="41.43329" lon="2.00297">
        <ele>107</ele>
        <time>2021-04-11 07:57:12</time>
      </trkpt>
      <trkpt lat="41.43336" lon="2.00293">
        <ele>107</ele>
        <time>2021-04-11 07:57:13</time>
      </trkpt>
      <trkpt lat="41.43344" lon="2.00288">
        <ele>106.8</ele>
        <time>2021-04-11 07:57:14</time>
      </trkpt>
      <trkpt lat="41.43352" lon="2.00284">
        <ele>106.8</ele>
        <time>2021-04-11 07:57:15</time>
      </trkpt>
      <trkpt lat="41.43359" lon="2.00279">
        <ele>106.8</ele>
        <time>2021-04-11 07:57:16</time>
      </trkpt>
      <trkpt lat="41.43367" lon="2.00275">
        <ele>106.8</ele>
        <time>2021-04-11 07:57:17</time>
      </trkpt>
      <trkpt lat="41.43373" lon="2.00271">
        <ele>106.8</ele>
        <time>2021-04-11 07:57:18</time>
      </trkpt>
      <trkpt lat="41.4338" lon="2.00267">
        <ele>106.8</ele>
        <time>2021-04-11 07:57:19</time>
      </trkpt>
      <trkpt lat="41.43387" lon="2.00262">
        <ele>106.8</ele>
        <time>2021-04-11 07:57:20</time>
      </trkpt>
      <trkpt lat="41.43395" lon="2.00258">
        <ele>106.8</ele>
        <time>2021-04-11 07:57:21</time>
      </trkpt>
      <trkpt lat="41.43401" lon="2.00254">
        <ele>106.8</ele>
        <time>2021-04-11 07:57:22</time>
      </trkpt>
      <trkpt lat="41.43407" lon="2.0025">
        <ele>106.8</ele>
        <time>2021-04-11 07:57:23</time>
      </trkpt>
      <trkpt lat="41.43415" lon="2.00246">
        <ele>106.8</ele>
        <time>2021-04-11 07:57:24</time>
      </trkpt>
      <trkpt lat="41.43422" lon="2.00242">
        <ele>106.8</ele>
        <time>2021-04-11 07:57:25</time>
      </trkpt>
      <trkpt lat="41.43428" lon="2.00237">
        <ele>106.8</ele>
        <time>2021-04-11 07:57:26</time>
      </trkpt>
      <trkpt lat="41.43434" lon="2.00233">
        <ele>107</ele>
        <time>2021-04-11 07:57:27</time>
      </trkpt>
      <trkpt lat="41.43441" lon="2.00228">
        <ele>107</ele>
        <time>2021-04-11 07:57:28</time>
      </trkpt>
      <trkpt lat="41.43447" lon="2.00223">
        <ele>107</ele>
        <time>2021-04-11 07:57:29</time>
      </trkpt>
      <trkpt lat="41.43454" lon="2.00218">
        <ele>107</ele>
        <time>2021-04-11 07:57:30</time>
      </trkpt>
      <trkpt lat="41.4346" lon="2.00213">
        <ele>107</ele>
        <time>2021-04-11 07:57:31</time>
      </trkpt>
      <trkpt lat="41.43465" lon="2.00209">
        <ele>107</ele>
        <time>2021-04-11 07:57:32</time>
      </trkpt>
      <trkpt lat="41.43472" lon="2.00203">
        <ele>107</ele>
        <time>2021-04-11 07:57:33</time>
      </trkpt>
      <trkpt lat="41.43477" lon="2.00199">
        <ele>107</ele>
        <time>2021-04-11 07:57:34</time>
      </trkpt>
      <trkpt lat="41.43484" lon="2.00194">
        <ele>107</ele>
        <time>2021-04-11 07:57:35</time>
      </trkpt>
      <trkpt lat="41.4349" lon="2.00189">
        <ele>107</ele>
        <time>2021-04-11 07:57:36</time>
      </trkpt>
      <trkpt lat="41.43496" lon="2.00184">
        <ele>107</ele>
        <time>2021-04-11 07:57:37</time>
      </trkpt>
      <trkpt lat="41.43502" lon="2.00179">
        <ele>107</ele>
        <time>2021-04-11 07:57:38</time>
      </trkpt>
      <trkpt lat="41.43509" lon="2.00174">
        <ele>107</ele>
        <time>2021-04-11 07:57:39</time>
      </trkpt>
      <trkpt lat="41.43515" lon="2.00169">
        <ele>107</ele>
        <time>2021-04-11 07:57:40</time>
      </trkpt>
      <trkpt lat="41.43522" lon="2.00164">
        <ele>107</ele>
        <time>2021-04-11 07:57:41</time>
      </trkpt>
      <trkpt lat="41.43528" lon="2.00159">
        <ele>107</ele>
        <time>2021-04-11 07:57:42</time>
      </trkpt>
      <trkpt lat="41.43534" lon="2.00153">
        <ele>107</ele>
        <time>2021-04-11 07:57:43</time>
      </trkpt>
      <trkpt lat="41.43541" lon="2.00148">
        <ele>107</ele>
        <time>2021-04-11 07:57:44</time>
      </trkpt>
      <trkpt lat="41.43547" lon="2.00144">
        <ele>107.2</ele>
        <time>2021-04-11 07:57:45</time>
      </trkpt>
      <trkpt lat="41.43552" lon="2.00139">
        <ele>107.2</ele>
        <time>2021-04-11 07:57:46</time>
      </trkpt>
      <trkpt lat="41.43557" lon="2.00135">
        <ele>107.4</ele>
        <time>2021-04-11 07:57:47</time>
      </trkpt>
      <trkpt lat="41.43564" lon="2.00129">
        <ele>107.4</ele>
        <time>2021-04-11 07:57:48</time>
      </trkpt>
      <trkpt lat="41.43569" lon="2.00125">
        <ele>107.6</ele>
        <time>2021-04-11 07:57:49</time>
      </trkpt>
      <trkpt lat="41.43575" lon="2.00121">
        <ele>107.8</ele>
        <time>2021-04-11 07:57:50</time>
      </trkpt>
      <trkpt lat="41.43581" lon="2.00116">
        <ele>108</ele>
        <time>2021-04-11 07:57:51</time>
      </trkpt>
      <trkpt lat="41.43586" lon="2.00112">
        <ele>108.2</ele>
        <time>2021-04-11 07:57:52</time>
      </trkpt>
      <trkpt lat="41.43592" lon="2.00107">
        <ele>108.4</ele>
        <time>2021-04-11 07:57:53</time>
      </trkpt>
      <trkpt lat="41.43597" lon="2.00103">
        <ele>108.6</ele>
        <time>2021-04-11 07:57:54</time>
      </trkpt>
      <trkpt lat="41.43602" lon="2.00099">
        <ele>108.8</ele>
        <time>2021-04-11 07:57:55</time>
      </trkpt>
      <trkpt lat="41.43608" lon="2.00094">
        <ele>109</ele>
        <time>2021-04-11 07:57:56</time>
      </trkpt>
      <trkpt lat="41.43613" lon="2.0009">
        <ele>109.2</ele>
        <time>2021-04-11 07:57:57</time>
      </trkpt>
      <trkpt lat="41.43619" lon="2.00086">
        <ele>109.4</ele>
        <time>2021-04-11 07:57:58</time>
      </trkpt>
      <trkpt lat="41.43624" lon="2.00081">
        <ele>109.6</ele>
        <time>2021-04-11 07:57:59</time>
      </trkpt>
      <trkpt lat="41.43629" lon="2.00077">
        <ele>110</ele>
        <time>2021-04-11 07:58:00</time>
      </trkpt>
      <trkpt lat="41.43635" lon="2.00072">
        <ele>110</ele>
        <time>2021-04-11 07:58:01</time>
      </trkpt>
      <trkpt lat="41.4364" lon="2.00068">
        <ele>110.2</ele>
        <time>2021-04-11 07:58:02</time>
      </trkpt>
      <trkpt lat="41.43645" lon="2.00064">
        <ele>110.4</ele>
        <time>2021-04-11 07:58:03</time>
      </trkpt>
      <trkpt lat="41.43651" lon="2.00059">
        <ele>110.6</ele>
        <time>2021-04-11 07:58:04</time>
      </trkpt>
      <trkpt lat="41.43656" lon="2.00055">
        <ele>110.8</ele>
        <time>2021-04-11 07:58:05</time>
      </trkpt>
      <trkpt lat="41.43661" lon="2.00051">
        <ele>111</ele>
        <time>2021-04-11 07:58:06</time>
      </trkpt>
      <trkpt lat="41.43666" lon="2.00047">
        <ele>111.2</ele>
        <time>2021-04-11 07:58:07</time>
      </trkpt>
      <trkpt lat="41.43672" lon="2.00042">
        <ele>111.4</ele>
        <time>2021-04-11 07:58:08</time>
      </trkpt>
      <trkpt lat="41.43677" lon="2.00038">
        <ele>111.6</ele>
        <time>2021-04-11 07:58:09</time>
      </trkpt>
      <trkpt lat="41.43681" lon="2.00034">
        <ele>111.8</ele>
        <time>2021-04-11 07:58:10</time>
      </trkpt>
      <trkpt lat="41.43687" lon="2.0003">
        <ele>112</ele>
        <time>2021-04-11 07:58:11</time>
      </trkpt>
      <trkpt lat="41.43692" lon="2.00026">
        <ele>112.2</ele>
        <time>2021-04-11 07:58:12</time>
      </trkpt>
      <trkpt lat="41.43697" lon="2.00021">
        <ele>112.4</ele>
        <time>2021-04-11 07:58:13</time>
      </trkpt>
      <trkpt lat="41.43703" lon="2.00017">
        <ele>112.6</ele>
        <time>2021-04-11 07:58:14</time>
      </trkpt>
      <trkpt lat="41.43708" lon="2.00013">
        <ele>112.8</ele>
        <time>2021-04-11 07:58:15</time>
      </trkpt>
      <trkpt lat="41.43713" lon="2.00009">
        <ele>113</ele>
        <time>2021-04-11 07:58:16</time>
      </trkpt>
      <trkpt lat="41.43718" lon="2.00005">
        <ele>113.2</ele>
        <time>2021-04-11 07:58:17</time>
      </trkpt>
      <trkpt lat="41.43724" lon="2">
        <ele>113.2</ele>
        <time>2021-04-11 07:58:18</time>
      </trkpt>
      <trkpt lat="41.43728" lon="1.99996">
        <ele>113.4</ele>
        <time>2021-04-11 07:58:19</time>
      </trkpt>
      <trkpt lat="41.43733" lon="1.99992">
        <ele>113.6</ele>
        <time>2021-04-11 07:58:20</time>
      </trkpt>
      <trkpt lat="41.43739" lon="1.99988">
        <ele>114</ele>
        <time>2021-04-11 07:58:21</time>
      </trkpt>
      <trkpt lat="41.43743" lon="1.99984">
        <ele>114.2</ele>
        <time>2021-04-11 07:58:22</time>
      </trkpt>
      <trkpt lat="41.43749" lon="1.9998">
        <ele>114.4</ele>
        <time>2021-04-11 07:58:23</time>
      </trkpt>
      <trkpt lat="41.43754" lon="1.99976">
        <ele>114.6</ele>
        <time>2021-04-11 07:58:24</time>
      </trkpt>
      <trkpt lat="41.43759" lon="1.99973">
        <ele>114.8</ele>
        <time>2021-04-11 07:58:25</time>
      </trkpt>
      <trkpt lat="41.43765" lon="1.99969">
        <ele>115</ele>
        <time>2021-04-11 07:58:26</time>
      </trkpt>
      <trkpt lat="41.4377" lon="1.99966">
        <ele>115.2</ele>
        <time>2021-04-11 07:58:27</time>
      </trkpt>
      <trkpt lat="41.43775" lon="1.99962">
        <ele>115.4</ele>
        <time>2021-04-11 07:58:28</time>
      </trkpt>
      <trkpt lat="41.4378" lon="1.99959">
        <ele>115.6</ele>
        <time>2021-04-11 07:58:29</time>
      </trkpt>
      <trkpt lat="41.43786" lon="1.99956">
        <ele>116</ele>
        <time>2021-04-11 07:58:30</time>
      </trkpt>
      <trkpt lat="41.43791" lon="1.99953">
        <ele>116.2</ele>
        <time>2021-04-11 07:58:31</time>
      </trkpt>
      <trkpt lat="41.43796" lon="1.9995">
        <ele>116.4</ele>
        <time>2021-04-11 07:58:32</time>
      </trkpt>
      <trkpt lat="41.43802" lon="1.99947">
        <ele>116.6</ele>
        <time>2021-04-11 07:58:33</time>
      </trkpt>
      <trkpt lat="41.43807" lon="1.99945">
        <ele>116.8</ele>
        <time>2021-04-11 07:58:34</time>
      </trkpt>
      <trkpt lat="41.43812" lon="1.99942">
        <ele>117.2</ele>
        <time>2021-04-11 07:58:35</time>
      </trkpt>
      <trkpt lat="41.43817" lon="1.9994">
        <ele>117.4</ele>
        <time>2021-04-11 07:58:36</time>
      </trkpt>
      <trkpt lat="41.43822" lon="1.99937">
        <ele>117.8</ele>
        <time>2021-04-11 07:58:37</time>
      </trkpt>
      <trkpt lat="41.43827" lon="1.99935">
        <ele>118.2</ele>
        <time>2021-04-11 07:58:38</time>
      </trkpt>
      <trkpt lat="41.43833" lon="1.99933">
        <ele>118.4</ele>
        <time>2021-04-11 07:58:39</time>
      </trkpt>
      <trkpt lat="41.43838" lon="1.99931">
        <ele>118.8</ele>
        <time>2021-04-11 07:58:40</time>
      </trkpt>
      <trkpt lat="41.43844" lon="1.99929">
        <ele>119</ele>
        <time>2021-04-11 07:58:41</time>
      </trkpt>
      <trkpt lat="41.43849" lon="1.99928">
        <ele>119.4</ele>
        <time>2021-04-11 07:58:42</time>
      </trkpt>
      <trkpt lat="41.43854" lon="1.99926">
        <ele>119.8</ele>
        <time>2021-04-11 07:58:43</time>
      </trkpt>
      <trkpt lat="41.43859" lon="1.99924">
        <ele>120.2</ele>
        <time>2021-04-11 07:58:44</time>
      </trkpt>
      <trkpt lat="41.43865" lon="1.99923">
        <ele>120.6</ele>
        <time>2021-04-11 07:58:45</time>
      </trkpt>
      <trkpt lat="41.4387" lon="1.99921">
        <ele>120.8</ele>
        <time>2021-04-11 07:58:46</time>
      </trkpt>
      <trkpt lat="41.43876" lon="1.9992">
        <ele>121.2</ele>
        <time>2021-04-11 07:58:47</time>
      </trkpt>
      <trkpt lat="41.43881" lon="1.99919">
        <ele>121.6</ele>
        <time>2021-04-11 07:58:48</time>
      </trkpt>
      <trkpt lat="41.43887" lon="1.99917">
        <ele>121.8</ele>
        <time>2021-04-11 07:58:49</time>
      </trkpt>
      <trkpt lat="41.43892" lon="1.99916">
        <ele>122.2</ele>
        <time>2021-04-11 07:58:50</time>
      </trkpt>
      <trkpt lat="41.43897" lon="1.99914">
        <ele>122.4</ele>
        <time>2021-04-11 07:58:51</time>
      </trkpt>
      <trkpt lat="41.43903" lon="1.99913">
        <ele>122.8</ele>
        <time>2021-04-11 07:58:52</time>
      </trkpt>
      <trkpt lat="41.43909" lon="1.99912">
        <ele>123</ele>
        <time>2021-04-11 07:58:53</time>
      </trkpt>
      <trkpt lat="41.43914" lon="1.9991">
        <ele>123.4</ele>
        <time>2021-04-11 07:58:54</time>
      </trkpt>
      <trkpt lat="41.4392" lon="1.99909">
        <ele>123.6</ele>
        <time>2021-04-11 07:58:55</time>
      </trkpt>
      <trkpt lat="41.43925" lon="1.99907">
        <ele>123.8</ele>
        <time>2021-04-11 07:58:56</time>
      </trkpt>
      <trkpt lat="41.43931" lon="1.99906">
        <ele>124</ele>
        <time>2021-04-11 07:58:57</time>
      </trkpt>
      <trkpt lat="41.43936" lon="1.99905">
        <ele>124.4</ele>
        <time>2021-04-11 07:58:58</time>
      </trkpt>
      <trkpt lat="41.43941" lon="1.99904">
        <ele>124.6</ele>
        <time>2021-04-11 07:58:59</time>
      </trkpt>
      <trkpt lat="41.43946" lon="1.99904">
        <ele>124.8</ele>
        <time>2021-04-11 07:59:00</time>
      </trkpt>
      <trkpt lat="41.43951" lon="1.99904">
        <ele>125</ele>
        <time>2021-04-11 07:59:01</time>
      </trkpt>
      <trkpt lat="41.43955" lon="1.99904">
        <ele>125.2</ele>
        <time>2021-04-11 07:59:02</time>
      </trkpt>
      <trkpt lat="41.4396" lon="1.99906">
        <ele>125.2</ele>
        <time>2021-04-11 07:59:03</time>
      </trkpt>
      <trkpt lat="41.43964" lon="1.99908">
        <ele>125.4</ele>
        <time>2021-04-11 07:59:04</time>
      </trkpt>
      <trkpt lat="41.43968" lon="1.99911">
        <ele>125.4</ele>
        <time>2021-04-11 07:59:05</time>
      </trkpt>
      <trkpt lat="41.43971" lon="1.99916">
        <ele>125.4</ele>
        <time>2021-04-11 07:59:06</time>
      </trkpt>
      <trkpt lat="41.43975" lon="1.99921">
        <ele>125.4</ele>
        <time>2021-04-11 07:59:07</time>
      </trkpt>
      <trkpt lat="41.43978" lon="1.99927">
        <ele>125.2</ele>
        <time>2021-04-11 07:59:08</time>
      </trkpt>
      <trkpt lat="41.43982" lon="1.99932">
        <ele>125.2</ele>
        <time>2021-04-11 07:59:09</time>
      </trkpt>
      <trkpt lat="41.43987" lon="1.99936">
        <ele>125</ele>
        <time>2021-04-11 07:59:10</time>
      </trkpt>
      <trkpt lat="41.43992" lon="1.99938">
        <ele>125</ele>
        <time>2021-04-11 07:59:11</time>
      </trkpt>
      <trkpt lat="41.43996" lon="1.9994">
        <ele>125</ele>
        <time>2021-04-11 07:59:12</time>
      </trkpt>
      <trkpt lat="41.44003" lon="1.99941">
        <ele>125</ele>
        <time>2021-04-11 07:59:13</time>
      </trkpt>
      <trkpt lat="41.44008" lon="1.99941">
        <ele>125</ele>
        <time>2021-04-11 07:59:14</time>
      </trkpt>
      <trkpt lat="41.44013" lon="1.99939">
        <ele>125</ele>
        <time>2021-04-11 07:59:15</time>
      </trkpt>
      <trkpt lat="41.44017" lon="1.99937">
        <ele>125</ele>
        <time>2021-04-11 07:59:16</time>
      </trkpt>
      <trkpt lat="41.44022" lon="1.99933">
        <ele>125</ele>
        <time>2021-04-11 07:59:17</time>
      </trkpt>
      <trkpt lat="41.44027" lon="1.99929">
        <ele>125</ele>
        <time>2021-04-11 07:59:18</time>
      </trkpt>
      <trkpt lat="41.4403" lon="1.99924">
        <ele>125.2</ele>
        <time>2021-04-11 07:59:19</time>
      </trkpt>
      <trkpt lat="41.44034" lon="1.99919">
        <ele>125.2</ele>
        <time>2021-04-11 07:59:20</time>
      </trkpt>
      <trkpt lat="41.44037" lon="1.99914">
        <ele>125.4</ele>
        <time>2021-04-11 07:59:21</time>
      </trkpt>
      <trkpt lat="41.4404" lon="1.99909">
        <ele>125.4</ele>
        <time>2021-04-11 07:59:22</time>
      </trkpt>
      <trkpt lat="41.44043" lon="1.99903">
        <ele>125.4</ele>
        <time>2021-04-11 07:59:23</time>
      </trkpt>
      <trkpt lat="41.44047" lon="1.99897">
        <ele>125.4</ele>
        <time>2021-04-11 07:59:24</time>
      </trkpt>
      <trkpt lat="41.44051" lon="1.99891">
        <ele>125.2</ele>
        <time>2021-04-11 07:59:25</time>
      </trkpt>
      <trkpt lat="41.44055" lon="1.99887">
        <ele>125.2</ele>
        <time>2021-04-11 07:59:26</time>
      </trkpt>
      <trkpt lat="41.4406" lon="1.99882">
        <ele>125</ele>
        <time>2021-04-11 07:59:27</time>
      </trkpt>
      <trkpt lat="41.44066" lon="1.99878">
        <ele>124.8</ele>
        <time>2021-04-11 07:59:28</time>
      </trkpt>
      <trkpt lat="41.44072" lon="1.99875">
        <ele>124.6</ele>
        <time>2021-04-11 07:59:29</time>
      </trkpt>
      <trkpt lat="41.44077" lon="1.99873">
        <ele>124.4</ele>
        <time>2021-04-11 07:59:30</time>
      </trkpt>
      <trkpt lat="41.44084" lon="1.99871">
        <ele>124</ele>
        <time>2021-04-11 07:59:31</time>
      </trkpt>
      <trkpt lat="41.4409" lon="1.99869">
        <ele>123.8</ele>
        <time>2021-04-11 07:59:32</time>
      </trkpt>
      <trkpt lat="41.44096" lon="1.99867">
        <ele>123.6</ele>
        <time>2021-04-11 07:59:33</time>
      </trkpt>
      <trkpt lat="41.44103" lon="1.99865">
        <ele>123.2</ele>
        <time>2021-04-11 07:59:34</time>
      </trkpt>
      <trkpt lat="41.44109" lon="1.99864">
        <ele>122.8</ele>
        <time>2021-04-11 07:59:35</time>
      </trkpt>
      <trkpt lat="41.44116" lon="1.99862">
        <ele>122.6</ele>
        <time>2021-04-11 07:59:36</time>
      </trkpt>
      <trkpt lat="41.44123" lon="1.99861">
        <ele>122.2</ele>
        <time>2021-04-11 07:59:37</time>
      </trkpt>
      <trkpt lat="41.44131" lon="1.9986">
        <ele>122</ele>
        <time>2021-04-11 07:59:38</time>
      </trkpt>
      <trkpt lat="41.44138" lon="1.99859">
        <ele>121.6</ele>
        <time>2021-04-11 07:59:39</time>
      </trkpt>
      <trkpt lat="41.44144" lon="1.99859">
        <ele>121.4</ele>
        <time>2021-04-11 07:59:40</time>
      </trkpt>
      <trkpt lat="41.44153" lon="1.99858">
        <ele>121</ele>
        <time>2021-04-11 07:59:41</time>
      </trkpt>
      <trkpt lat="41.4416" lon="1.99858">
        <ele>120.8</ele>
        <time>2021-04-11 07:59:42</time>
      </trkpt>
      <trkpt lat="41.44168" lon="1.99859">
        <ele>120.6</ele>
        <time>2021-04-11 07:59:43</time>
      </trkpt>
      <trkpt lat="41.44175" lon="1.99859">
        <ele>120.4</ele>
        <time>2021-04-11 07:59:44</time>
      </trkpt>
      <trkpt lat="41.44182" lon="1.9986">
        <ele>120.2</ele>
        <time>2021-04-11 07:59:45</time>
      </trkpt>
      <trkpt lat="41.44189" lon="1.99861">
        <ele>120.2</ele>
        <time>2021-04-11 07:59:46</time>
      </trkpt>
      <trkpt lat="41.44197" lon="1.99862">
        <ele>120</ele>
        <time>2021-04-11 07:59:47</time>
      </trkpt>
      <trkpt lat="41.44203" lon="1.99864">
        <ele>120</ele>
        <time>2021-04-11 07:59:48</time>
      </trkpt>
      <trkpt lat="41.4421" lon="1.99865">
        <ele>120.2</ele>
        <time>2021-04-11 07:59:49</time>
      </trkpt>
      <trkpt lat="41.44217" lon="1.99867">
        <ele>120.2</ele>
        <time>2021-04-11 07:59:50</time>
      </trkpt>
      <trkpt lat="41.44223" lon="1.99867">
        <ele>120.4</ele>
        <time>2021-04-11 07:59:51</time>
      </trkpt>
      <trkpt lat="41.4423" lon="1.99868">
        <ele>120.6</ele>
        <time>2021-04-11 07:59:52</time>
      </trkpt>
      <trkpt lat="41.44237" lon="1.99868">
        <ele>120.8</ele>
        <time>2021-04-11 07:59:53</time>
      </trkpt>
      <trkpt lat="41.44244" lon="1.99867">
        <ele>120.8</ele>
        <time>2021-04-11 07:59:54</time>
      </trkpt>
      <trkpt lat="41.4425" lon="1.99867">
        <ele>121</ele>
        <time>2021-04-11 07:59:55</time>
      </trkpt>
      <trkpt lat="41.44257" lon="1.99866">
        <ele>121.2</ele>
        <time>2021-04-11 07:59:56</time>
      </trkpt>
      <trkpt lat="41.44263" lon="1.99864">
        <ele>121.4</ele>
        <time>2021-04-11 07:59:57</time>
      </trkpt>
      <trkpt lat="41.44269" lon="1.99863">
        <ele>121.6</ele>
        <time>2021-04-11 07:59:58</time>
      </trkpt>
      <trkpt lat="41.44276" lon="1.99861">
        <ele>121.8</ele>
        <time>2021-04-11 07:59:59</time>
      </trkpt>
      <trkpt lat="41.44282" lon="1.99858">
        <ele>122</ele>
        <time>2021-04-11 08:00:00</time>
      </trkpt>
      <trkpt lat="41.44288" lon="1.99855">
        <ele>122.2</ele>
        <time>2021-04-11 08:00:01</time>
      </trkpt>
      <trkpt lat="41.44295" lon="1.99852">
        <ele>122.4</ele>
        <time>2021-04-11 08:00:02</time>
      </trkpt>
      <trkpt lat="41.44301" lon="1.99849">
        <ele>122.4</ele>
        <time>2021-04-11 08:00:03</time>
      </trkpt>
      <trkpt lat="41.44307" lon="1.99845">
        <ele>122.6</ele>
        <time>2021-04-11 08:00:04</time>
      </trkpt>
      <trkpt lat="41.44313" lon="1.9984">
        <ele>122.8</ele>
        <time>2021-04-11 08:00:05</time>
      </trkpt>
      <trkpt lat="41.44319" lon="1.99836">
        <ele>122.8</ele>
        <time>2021-04-11 08:00:06</time>
      </trkpt>
      <trkpt lat="41.44324" lon="1.9983">
        <ele>122.8</ele>
        <time>2021-04-11 08:00:07</time>
      </trkpt>
      <trkpt lat="41.4433" lon="1.99825">
        <ele>123</ele>
        <time>2021-04-11 08:00:08</time>
      </trkpt>
      <trkpt lat="41.44335" lon="1.99819">
        <ele>123</ele>
        <time>2021-04-11 08:00:09</time>
      </trkpt>
      <trkpt lat="41.4434" lon="1.99814">
        <ele>123.2</ele>
        <time>2021-04-11 08:00:10</time>
      </trkpt>
      <trkpt lat="41.44345" lon="1.99807">
        <ele>123.2</ele>
        <time>2021-04-11 08:00:11</time>
      </trkpt>
      <trkpt lat="41.4435" lon="1.99801">
        <ele>123.4</ele>
        <time>2021-04-11 08:00:12</time>
      </trkpt>
      <trkpt lat="41.44355" lon="1.99796">
        <ele>123.4</ele>
        <time>2021-04-11 08:00:13</time>
      </trkpt>
      <trkpt lat="41.44359" lon="1.99789">
        <ele>123.6</ele>
        <time>2021-04-11 08:00:14</time>
      </trkpt>
      <trkpt lat="41.44364" lon="1.99783">
        <ele>123.6</ele>
        <time>2021-04-11 08:00:15</time>
      </trkpt>
      <trkpt lat="41.44369" lon="1.99776">
        <ele>123.8</ele>
        <time>2021-04-11 08:00:16</time>
      </trkpt>
      <trkpt lat="41.44373" lon="1.9977">
        <ele>123.6</ele>
        <time>2021-04-11 08:00:17</time>
      </trkpt>
      <trkpt lat="41.44378" lon="1.99763">
        <ele>123.6</ele>
        <time>2021-04-11 08:00:18</time>
      </trkpt>
      <trkpt lat="41.44383" lon="1.99757">
        <ele>123.6</ele>
        <time>2021-04-11 08:00:19</time>
      </trkpt>
      <trkpt lat="41.44388" lon="1.99751">
        <ele>123.6</ele>
        <time>2021-04-11 08:00:20</time>
      </trkpt>
      <trkpt lat="41.44393" lon="1.99744">
        <ele>123.4</ele>
        <time>2021-04-11 08:00:21</time>
      </trkpt>
      <trkpt lat="41.44399" lon="1.99738">
        <ele>123.4</ele>
        <time>2021-04-11 08:00:22</time>
      </trkpt>
      <trkpt lat="41.44404" lon="1.99733">
        <ele>123.2</ele>
        <time>2021-04-11 08:00:23</time>
      </trkpt>
      <trkpt lat="41.4441" lon="1.99727">
        <ele>123.2</ele>
        <time>2021-04-11 08:00:24</time>
      </trkpt>
      <trkpt lat="41.44416" lon="1.99722">
        <ele>123</ele>
        <time>2021-04-11 08:00:25</time>
      </trkpt>
      <trkpt lat="41.44423" lon="1.99717">
        <ele>123</ele>
        <time>2021-04-11 08:00:26</time>
      </trkpt>
      <trkpt lat="41.44429" lon="1.99712">
        <ele>122.8</ele>
        <time>2021-04-11 08:00:27</time>
      </trkpt>
      <trkpt lat="41.44436" lon="1.99707">
        <ele>122.4</ele>
        <time>2021-04-11 08:00:28</time>
      </trkpt>
      <trkpt lat="41.44443" lon="1.99703">
        <ele>122.2</ele>
        <time>2021-04-11 08:00:29</time>
      </trkpt>
      <trkpt lat="41.4445" lon="1.99699">
        <ele>121.8</ele>
        <time>2021-04-11 08:00:30</time>
      </trkpt>
      <trkpt lat="41.44458" lon="1.99694">
        <ele>121.6</ele>
        <time>2021-04-11 08:00:31</time>
      </trkpt>
      <trkpt lat="41.44465" lon="1.99691">
        <ele>121.2</ele>
        <time>2021-04-11 08:00:32</time>
      </trkpt>
      <trkpt lat="41.44473" lon="1.99688">
        <ele>120.8</ele>
        <time>2021-04-11 08:00:33</time>
      </trkpt>
      <trkpt lat="41.44481" lon="1.99685">
        <ele>120.4</ele>
        <time>2021-04-11 08:00:34</time>
      </trkpt>
      <trkpt lat="41.44489" lon="1.99683">
        <ele>120</ele>
        <time>2021-04-11 08:00:35</time>
      </trkpt>
      <trkpt lat="41.44499" lon="1.9968">
        <ele>119.4</ele>
        <time>2021-04-11 08:00:36</time>
      </trkpt>
      <trkpt lat="41.44509" lon="1.99678">
        <ele>118.8</ele>
        <time>2021-04-11 08:00:37</time>
      </trkpt>
      <trkpt lat="41.44518" lon="1.99678">
        <ele>118.2</ele>
        <time>2021-04-11 08:00:38</time>
      </trkpt>
      <trkpt lat="41.44527" lon="1.99677">
        <ele>117.6</ele>
        <time>2021-04-11 08:00:39</time>
      </trkpt>
      <trkpt lat="41.44536" lon="1.99676">
        <ele>117</ele>
        <time>2021-04-11 08:00:40</time>
      </trkpt>
      <trkpt lat="41.44545" lon="1.99675">
        <ele>116.4</ele>
        <time>2021-04-11 08:00:41</time>
      </trkpt>
      <trkpt lat="41.44555" lon="1.99673">
        <ele>115.8</ele>
        <time>2021-04-11 08:00:42</time>
      </trkpt>
      <trkpt lat="41.44564" lon="1.99671">
        <ele>115.4</ele>
        <time>2021-04-11 08:00:43</time>
      </trkpt>
      <trkpt lat="41.44573" lon="1.9967">
        <ele>114.8</ele>
        <time>2021-04-11 08:00:44</time>
      </trkpt>
      <trkpt lat="41.44583" lon="1.99669">
        <ele>114.2</ele>
        <time>2021-04-11 08:00:45</time>
      </trkpt>
      <trkpt lat="41.44594" lon="1.99673">
        <ele>113.8</ele>
        <time>2021-04-11 08:00:46</time>
      </trkpt>
      <trkpt lat="41.44606" lon="1.99674">
        <ele>113.2</ele>
        <time>2021-04-11 08:00:47</time>
      </trkpt>
      <trkpt lat="41.44616" lon="1.99674">
        <ele>112.8</ele>
        <time>2021-04-11 08:00:48</time>
      </trkpt>
      <trkpt lat="41.44624" lon="1.99676">
        <ele>112.8</ele>
        <time>2021-04-11 08:00:49</time>
      </trkpt>
      <trkpt lat="41.44634" lon="1.99678">
        <ele>112.8</ele>
        <time>2021-04-11 08:00:50</time>
      </trkpt>
      <trkpt lat="41.44643" lon="1.99679">
        <ele>112.6</ele>
        <time>2021-04-11 08:00:51</time>
      </trkpt>
      <trkpt lat="41.44652" lon="1.99681">
        <ele>112.8</ele>
        <time>2021-04-11 08:00:52</time>
      </trkpt>
      <trkpt lat="41.4466" lon="1.99684">
        <ele>113</ele>
        <time>2021-04-11 08:00:53</time>
      </trkpt>
      <trkpt lat="41.44668" lon="1.99686">
        <ele>113.2</ele>
        <time>2021-04-11 08:00:54</time>
      </trkpt>
      <trkpt lat="41.44676" lon="1.99688">
        <ele>113.4</ele>
        <time>2021-04-11 08:00:55</time>
      </trkpt>
      <trkpt lat="41.44684" lon="1.9969">
        <ele>113.8</ele>
        <time>2021-04-11 08:00:56</time>
      </trkpt>
      <trkpt lat="41.44692" lon="1.99691">
        <ele>114</ele>
        <time>2021-04-11 08:00:57</time>
      </trkpt>
      <trkpt lat="41.447" lon="1.99691">
        <ele>114.4</ele>
        <time>2021-04-11 08:00:58</time>
      </trkpt>
      <trkpt lat="41.44707" lon="1.99691">
        <ele>114.8</ele>
        <time>2021-04-11 08:00:59</time>
      </trkpt>
      <trkpt lat="41.44714" lon="1.99692">
        <ele>115.2</ele>
        <time>2021-04-11 08:01:00</time>
      </trkpt>
      <trkpt lat="41.44721" lon="1.99691">
        <ele>115.6</ele>
        <time>2021-04-11 08:01:01</time>
      </trkpt>
      <trkpt lat="41.44727" lon="1.99691">
        <ele>116</ele>
        <time>2021-04-11 08:01:02</time>
      </trkpt>
      <trkpt lat="41.44734" lon="1.99691">
        <ele>116.6</ele>
        <time>2021-04-11 08:01:03</time>
      </trkpt>
      <trkpt lat="41.4474" lon="1.99691">
        <ele>117</ele>
        <time>2021-04-11 08:01:04</time>
      </trkpt>
      <trkpt lat="41.44746" lon="1.99691">
        <ele>117.4</ele>
        <time>2021-04-11 08:01:05</time>
      </trkpt>
      <trkpt lat="41.44752" lon="1.99691">
        <ele>117.8</ele>
        <time>2021-04-11 08:01:06</time>
      </trkpt>
      <trkpt lat="41.44758" lon="1.99691">
        <ele>118.2</ele>
        <time>2021-04-11 08:01:07</time>
      </trkpt>
      <trkpt lat="41.44764" lon="1.99691">
        <ele>118.6</ele>
        <time>2021-04-11 08:01:08</time>
      </trkpt>
      <trkpt lat="41.44769" lon="1.99691">
        <ele>119</ele>
        <time>2021-04-11 08:01:09</time>
      </trkpt>
      <trkpt lat="41.44775" lon="1.9969">
        <ele>119.4</ele>
        <time>2021-04-11 08:01:10</time>
      </trkpt>
      <trkpt lat="41.4478" lon="1.9969">
        <ele>119.8</ele>
        <time>2021-04-11 08:01:11</time>
      </trkpt>
      <trkpt lat="41.44785" lon="1.99689">
        <ele>120.2</ele>
        <time>2021-04-11 08:01:12</time>
      </trkpt>
      <trkpt lat="41.44791" lon="1.99688">
        <ele>120.6</ele>
        <time>2021-04-11 08:01:13</time>
      </trkpt>
      <trkpt lat="41.44796" lon="1.99687">
        <ele>121</ele>
        <time>2021-04-11 08:01:14</time>
      </trkpt>
      <trkpt lat="41.44802" lon="1.99686">
        <ele>121.4</ele>
        <time>2021-04-11 08:01:15</time>
      </trkpt>
      <trkpt lat="41.44807" lon="1.99684">
        <ele>121.6</ele>
        <time>2021-04-11 08:01:16</time>
      </trkpt>
      <trkpt lat="41.44812" lon="1.99683">
        <ele>122</ele>
        <time>2021-04-11 08:01:17</time>
      </trkpt>
      <trkpt lat="41.44816" lon="1.99682">
        <ele>122.2</ele>
        <time>2021-04-11 08:01:18</time>
      </trkpt>
      <trkpt lat="41.44822" lon="1.9968">
        <ele>122.2</ele>
        <time>2021-04-11 08:01:19</time>
      </trkpt>
      <trkpt lat="41.44827" lon="1.99679">
        <ele>122.4</ele>
        <time>2021-04-11 08:01:20</time>
      </trkpt>
      <trkpt lat="41.44832" lon="1.99677">
        <ele>122.4</ele>
        <time>2021-04-11 08:01:21</time>
      </trkpt>
      <trkpt lat="41.44837" lon="1.99676">
        <ele>122.6</ele>
        <time>2021-04-11 08:01:22</time>
      </trkpt>
      <trkpt lat="41.44842" lon="1.99674">
        <ele>122.6</ele>
        <time>2021-04-11 08:01:23</time>
      </trkpt>
      <trkpt lat="41.44847" lon="1.99673">
        <ele>122.6</ele>
        <time>2021-04-11 08:01:24</time>
      </trkpt>
      <trkpt lat="41.44852" lon="1.99672">
        <ele>122.6</ele>
        <time>2021-04-11 08:01:25</time>
      </trkpt>
      <trkpt lat="41.44857" lon="1.99671">
        <ele>122.6</ele>
        <time>2021-04-11 08:01:26</time>
      </trkpt>
      <trkpt lat="41.44863" lon="1.99671">
        <ele>122.6</ele>
        <time>2021-04-11 08:01:27</time>
      </trkpt>
      <trkpt lat="41.44868" lon="1.99671">
        <ele>122.6</ele>
        <time>2021-04-11 08:01:28</time>
      </trkpt>
      <trkpt lat="41.44873" lon="1.99671">
        <ele>122.6</ele>
        <time>2021-04-11 08:01:29</time>
      </trkpt>
      <trkpt lat="41.44879" lon="1.99671">
        <ele>122.6</ele>
        <time>2021-04-11 08:01:30</time>
      </trkpt>
      <trkpt lat="41.44884" lon="1.99671">
        <ele>122.6</ele>
        <time>2021-04-11 08:01:31</time>
      </trkpt>
      <trkpt lat="41.4489" lon="1.99671">
        <ele>122.4</ele>
        <time>2021-04-11 08:01:32</time>
      </trkpt>
      <trkpt lat="41.44896" lon="1.99671">
        <ele>122.4</ele>
        <time>2021-04-11 08:01:33</time>
      </trkpt>
      <trkpt lat="41.44902" lon="1.99671">
        <ele>122.4</ele>
        <time>2021-04-11 08:01:34</time>
      </trkpt>
      <trkpt lat="41.44908" lon="1.99671">
        <ele>122.2</ele>
        <time>2021-04-11 08:01:35</time>
      </trkpt>
      <trkpt lat="41.44914" lon="1.99672">
        <ele>122.2</ele>
        <time>2021-04-11 08:01:36</time>
      </trkpt>
      <trkpt lat="41.4492" lon="1.99673">
        <ele>122.2</ele>
        <time>2021-04-11 08:01:37</time>
      </trkpt>
      <trkpt lat="41.44926" lon="1.99674">
        <ele>122</ele>
        <time>2021-04-11 08:01:38</time>
      </trkpt>
      <trkpt lat="41.44932" lon="1.99675">
        <ele>122</ele>
        <time>2021-04-11 08:01:39</time>
      </trkpt>
      <trkpt lat="41.44939" lon="1.99676">
        <ele>122</ele>
        <time>2021-04-11 08:01:40</time>
      </trkpt>
      <trkpt lat="41.44945" lon="1.99678">
        <ele>122</ele>
        <time>2021-04-11 08:01:41</time>
      </trkpt>
      <trkpt lat="41.44952" lon="1.9968">
        <ele>122</ele>
        <time>2021-04-11 08:01:42</time>
      </trkpt>
      <trkpt lat="41.44959" lon="1.99682">
        <ele>122</ele>
        <time>2021-04-11 08:01:43</time>
      </trkpt>
      <trkpt lat="41.44965" lon="1.99684">
        <ele>122</ele>
        <time>2021-04-11 08:01:44</time>
      </trkpt>
      <trkpt lat="41.44971" lon="1.99687">
        <ele>122</ele>
        <time>2021-04-11 08:01:45</time>
      </trkpt>
      <trkpt lat="41.44977" lon="1.99689">
        <ele>122.2</ele>
        <time>2021-04-11 08:01:46</time>
      </trkpt>
      <trkpt lat="41.44983" lon="1.99692">
        <ele>122.2</ele>
        <time>2021-04-11 08:01:47</time>
      </trkpt>
      <trkpt lat="41.44989" lon="1.99695">
        <ele>122.4</ele>
        <time>2021-04-11 08:01:48</time>
      </trkpt>
      <trkpt lat="41.44995" lon="1.99697">
        <ele>122.4</ele>
        <time>2021-04-11 08:01:49</time>
      </trkpt>
      <trkpt lat="41.45002" lon="1.99701">
        <ele>122.6</ele>
        <time>2021-04-11 08:01:50</time>
      </trkpt>
      <trkpt lat="41.45008" lon="1.99704">
        <ele>122.8</ele>
        <time>2021-04-11 08:01:51</time>
      </trkpt>
      <trkpt lat="41.45013" lon="1.99707">
        <ele>122.8</ele>
        <time>2021-04-11 08:01:52</time>
      </trkpt>
      <trkpt lat="41.45019" lon="1.99711">
        <ele>123</ele>
        <time>2021-04-11 08:01:53</time>
      </trkpt>
      <trkpt lat="41.45024" lon="1.99714">
        <ele>123.2</ele>
        <time>2021-04-11 08:01:54</time>
      </trkpt>
      <trkpt lat="41.4503" lon="1.99719">
        <ele>123.4</ele>
        <time>2021-04-11 08:01:55</time>
      </trkpt>
      <trkpt lat="41.45035" lon="1.99723">
        <ele>123.6</ele>
        <time>2021-04-11 08:01:56</time>
      </trkpt>
      <trkpt lat="41.45041" lon="1.99727">
        <ele>123.8</ele>
        <time>2021-04-11 08:01:57</time>
      </trkpt>
      <trkpt lat="41.45046" lon="1.99732">
        <ele>124</ele>
        <time>2021-04-11 08:01:58</time>
      </trkpt>
      <trkpt lat="41.45051" lon="1.99736">
        <ele>124.2</ele>
        <time>2021-04-11 08:01:59</time>
      </trkpt>
      <trkpt lat="41.45056" lon="1.99741">
        <ele>124.4</ele>
        <time>2021-04-11 08:02:00</time>
      </trkpt>
      <trkpt lat="41.45061" lon="1.99747">
        <ele>124.6</ele>
        <time>2021-04-11 08:02:01</time>
      </trkpt>
      <trkpt lat="41.45066" lon="1.99751">
        <ele>124.8</ele>
        <time>2021-04-11 08:02:02</time>
      </trkpt>
      <trkpt lat="41.4507" lon="1.99757">
        <ele>125</ele>
        <time>2021-04-11 08:02:03</time>
      </trkpt>
      <trkpt lat="41.45074" lon="1.99762">
        <ele>125.2</ele>
        <time>2021-04-11 08:02:04</time>
      </trkpt>
      <trkpt lat="41.4508" lon="1.99768">
        <ele>125.4</ele>
        <time>2021-04-11 08:02:05</time>
      </trkpt>
      <trkpt lat="41.45084" lon="1.99774">
        <ele>125.4</ele>
        <time>2021-04-11 08:02:06</time>
      </trkpt>
      <trkpt lat="41.45088" lon="1.99779">
        <ele>125.8</ele>
        <time>2021-04-11 08:02:07</time>
      </trkpt>
      <trkpt lat="41.45092" lon="1.99785">
        <ele>126</ele>
        <time>2021-04-11 08:02:08</time>
      </trkpt>
      <trkpt lat="41.45096" lon="1.99791">
        <ele>126.2</ele>
        <time>2021-04-11 08:02:09</time>
      </trkpt>
      <trkpt lat="41.451" lon="1.99797">
        <ele>126.4</ele>
        <time>2021-04-11 08:02:10</time>
      </trkpt>
      <trkpt lat="41.45105" lon="1.99803">
        <ele>126.6</ele>
        <time>2021-04-11 08:02:11</time>
      </trkpt>
      <trkpt lat="41.45109" lon="1.9981">
        <ele>126.8</ele>
        <time>2021-04-11 08:02:12</time>
      </trkpt>
      <trkpt lat="41.45112" lon="1.99815">
        <ele>127</ele>
        <time>2021-04-11 08:02:13</time>
      </trkpt>
      <trkpt lat="41.45116" lon="1.99822">
        <ele>127.4</ele>
        <time>2021-04-11 08:02:14</time>
      </trkpt>
      <trkpt lat="41.4512" lon="1.99828">
        <ele>127.6</ele>
        <time>2021-04-11 08:02:15</time>
      </trkpt>
      <trkpt lat="41.45123" lon="1.99834">
        <ele>127.8</ele>
        <time>2021-04-11 08:02:16</time>
      </trkpt>
      <trkpt lat="41.45127" lon="1.9984">
        <ele>128</ele>
        <time>2021-04-11 08:02:17</time>
      </trkpt>
      <trkpt lat="41.4513" lon="1.99846">
        <ele>128.4</ele>
        <time>2021-04-11 08:02:18</time>
      </trkpt>
      <trkpt lat="41.45134" lon="1.99852">
        <ele>128.6</ele>
        <time>2021-04-11 08:02:19</time>
      </trkpt>
      <trkpt lat="41.45138" lon="1.99857">
        <ele>129</ele>
        <time>2021-04-11 08:02:20</time>
      </trkpt>
      <trkpt lat="41.45141" lon="1.99863">
        <ele>129.2</ele>
        <time>2021-04-11 08:02:21</time>
      </trkpt>
      <trkpt lat="41.45145" lon="1.99869">
        <ele>129.6</ele>
        <time>2021-04-11 08:02:22</time>
      </trkpt>
      <trkpt lat="41.45148" lon="1.99874">
        <ele>130</ele>
        <time>2021-04-11 08:02:23</time>
      </trkpt>
      <trkpt lat="41.45153" lon="1.9988">
        <ele>130.2</ele>
        <time>2021-04-11 08:02:24</time>
      </trkpt>
      <trkpt lat="41.45156" lon="1.99886">
        <ele>130.6</ele>
        <time>2021-04-11 08:02:25</time>
      </trkpt>
      <trkpt lat="41.4516" lon="1.99891">
        <ele>130.8</ele>
        <time>2021-04-11 08:02:26</time>
      </trkpt>
      <trkpt lat="41.45164" lon="1.99896">
        <ele>131</ele>
        <time>2021-04-11 08:02:27</time>
      </trkpt>
      <trkpt lat="41.45167" lon="1.99901">
        <ele>131.4</ele>
        <time>2021-04-11 08:02:28</time>
      </trkpt>
      <trkpt lat="41.45172" lon="1.99906">
        <ele>131.6</ele>
        <time>2021-04-11 08:02:29</time>
      </trkpt>
      <trkpt lat="41.45176" lon="1.99911">
        <ele>131.8</ele>
        <time>2021-04-11 08:02:30</time>
      </trkpt>
      <trkpt lat="41.45181" lon="1.99915">
        <ele>132.2</ele>
        <time>2021-04-11 08:02:31</time>
      </trkpt>
      <trkpt lat="41.45185" lon="1.99919">
        <ele>132.4</ele>
        <time>2021-04-11 08:02:32</time>
      </trkpt>
      <trkpt lat="41.4519" lon="1.99924">
        <ele>132.6</ele>
        <time>2021-04-11 08:02:33</time>
      </trkpt>
      <trkpt lat="41.45194" lon="1.99927">
        <ele>132.8</ele>
        <time>2021-04-11 08:02:34</time>
      </trkpt>
      <trkpt lat="41.45199" lon="1.99932">
        <ele>133</ele>
        <time>2021-04-11 08:02:35</time>
      </trkpt>
      <trkpt lat="41.45204" lon="1.99936">
        <ele>133.2</ele>
        <time>2021-04-11 08:02:36</time>
      </trkpt>
      <trkpt lat="41.45208" lon="1.99939">
        <ele>133.4</ele>
        <time>2021-04-11 08:02:37</time>
      </trkpt>
      <trkpt lat="41.45213" lon="1.99943">
        <ele>133.4</ele>
        <time>2021-04-11 08:02:38</time>
      </trkpt>
      <trkpt lat="41.45218" lon="1.99946">
        <ele>133.6</ele>
        <time>2021-04-11 08:02:39</time>
      </trkpt>
      <trkpt lat="41.45223" lon="1.9995">
        <ele>133.6</ele>
        <time>2021-04-11 08:02:40</time>
      </trkpt>
      <trkpt lat="41.45228" lon="1.99953">
        <ele>133.8</ele>
        <time>2021-04-11 08:02:41</time>
      </trkpt>
      <trkpt lat="41.45232" lon="1.99955">
        <ele>133.8</ele>
        <time>2021-04-11 08:02:42</time>
      </trkpt>
      <trkpt lat="41.45237" lon="1.99958">
        <ele>134</ele>
        <time>2021-04-11 08:02:43</time>
      </trkpt>
      <trkpt lat="41.45241" lon="1.99961">
        <ele>134</ele>
        <time>2021-04-11 08:02:44</time>
      </trkpt>
      <trkpt lat="41.45246" lon="1.99963">
        <ele>133.8</ele>
        <time>2021-04-11 08:02:45</time>
      </trkpt>
      <trkpt lat="41.45251" lon="1.99966">
        <ele>133.8</ele>
        <time>2021-04-11 08:02:46</time>
      </trkpt>
      <trkpt lat="41.45255" lon="1.99968">
        <ele>133.8</ele>
        <time>2021-04-11 08:02:47</time>
      </trkpt>
      <trkpt lat="41.4526" lon="1.9997">
        <ele>133.6</ele>
        <time>2021-04-11 08:02:48</time>
      </trkpt>
      <trkpt lat="41.45266" lon="1.99973">
        <ele>133.4</ele>
        <time>2021-04-11 08:02:49</time>
      </trkpt>
      <trkpt lat="41.45271" lon="1.99975">
        <ele>133.2</ele>
        <time>2021-04-11 08:02:50</time>
      </trkpt>
      <trkpt lat="41.45277" lon="1.99978">
        <ele>133</ele>
        <time>2021-04-11 08:02:51</time>
      </trkpt>
      <trkpt lat="41.45282" lon="1.99981">
        <ele>132.6</ele>
        <time>2021-04-11 08:02:52</time>
      </trkpt>
      <trkpt lat="41.45288" lon="1.99985">
        <ele>132.4</ele>
        <time>2021-04-11 08:02:53</time>
      </trkpt>
      <trkpt lat="41.45293" lon="1.9999">
        <ele>132.2</ele>
        <time>2021-04-11 08:02:54</time>
      </trkpt>
      <trkpt lat="41.45297" lon="1.99996">
        <ele>132</ele>
        <time>2021-04-11 08:02:55</time>
      </trkpt>
      <trkpt lat="41.453" lon="2.00003">
        <ele>132</ele>
        <time>2021-04-11 08:02:56</time>
      </trkpt>
      <trkpt lat="41.45304" lon="2.0001">
        <ele>132</ele>
        <time>2021-04-11 08:02:57</time>
      </trkpt>
      <trkpt lat="41.45307" lon="2.00016">
        <ele>132</ele>
        <time>2021-04-11 08:02:58</time>
      </trkpt>
      <trkpt lat="41.4531" lon="2.00023">
        <ele>132</ele>
        <time>2021-04-11 08:02:59</time>
      </trkpt>
      <trkpt lat="41.45314" lon="2.00028">
        <ele>132</ele>
        <time>2021-04-11 08:03:00</time>
      </trkpt>
      <trkpt lat="41.45319" lon="2.00031">
        <ele>132</ele>
        <time>2021-04-11 08:03:01</time>
      </trkpt>
      <trkpt lat="41.45323" lon="2.00033">
        <ele>132</ele>
        <time>2021-04-11 08:03:02</time>
      </trkpt>
      <trkpt lat="41.45329" lon="2.00034">
        <ele>132.2</ele>
        <time>2021-04-11 08:03:03</time>
      </trkpt>
      <trkpt lat="41.45334" lon="2.00034">
        <ele>132.2</ele>
        <time>2021-04-11 08:03:04</time>
      </trkpt>
      <trkpt lat="41.4534" lon="2.00033">
        <ele>132.2</ele>
        <time>2021-04-11 08:03:05</time>
      </trkpt>
      <trkpt lat="41.45344" lon="2.00031">
        <ele>132.2</ele>
        <time>2021-04-11 08:03:06</time>
      </trkpt>
      <trkpt lat="41.45349" lon="2.00028">
        <ele>132</ele>
        <time>2021-04-11 08:03:07</time>
      </trkpt>
      <trkpt lat="41.45353" lon="2.00024">
        <ele>132</ele>
        <time>2021-04-11 08:03:08</time>
      </trkpt>
      <trkpt lat="41.45358" lon="2.00018">
        <ele>131.8</ele>
        <time>2021-04-11 08:03:09</time>
      </trkpt>
      <trkpt lat="41.4536" lon="2.00012">
        <ele>131.8</ele>
        <time>2021-04-11 08:03:10</time>
      </trkpt>
      <trkpt lat="41.45362" lon="2.00006">
        <ele>131.6</ele>
        <time>2021-04-11 08:03:11</time>
      </trkpt>
      <trkpt lat="41.45364" lon="1.99999">
        <ele>131.6</ele>
        <time>2021-04-11 08:03:12</time>
      </trkpt>
      <trkpt lat="41.45364" lon="1.99991">
        <ele>131.4</ele>
        <time>2021-04-11 08:03:13</time>
      </trkpt>
      <trkpt lat="41.45364" lon="1.99983">
        <ele>131.2</ele>
        <time>2021-04-11 08:03:14</time>
      </trkpt>
      <trkpt lat="41.45363" lon="1.99976">
        <ele>131</ele>
        <time>2021-04-11 08:03:15</time>
      </trkpt>
      <trkpt lat="41.45363" lon="1.99968">
        <ele>130.8</ele>
        <time>2021-04-11 08:03:16</time>
      </trkpt>
      <trkpt lat="41.45364" lon="1.99961">
        <ele>130.6</ele>
        <time>2021-04-11 08:03:17</time>
      </trkpt>
      <trkpt lat="41.45367" lon="1.99954">
        <ele>130.4</ele>
        <time>2021-04-11 08:03:18</time>
      </trkpt>
      <trkpt lat="41.45371" lon="1.99948">
        <ele>130</ele>
        <time>2021-04-11 08:03:19</time>
      </trkpt>
      <trkpt lat="41.45376" lon="1.99942">
        <ele>129.8</ele>
        <time>2021-04-11 08:03:20</time>
      </trkpt>
      <trkpt lat="41.45381" lon="1.99938">
        <ele>129.4</ele>
        <time>2021-04-11 08:03:21</time>
      </trkpt>
      <trkpt lat="41.45386" lon="1.99935">
        <ele>129.2</ele>
        <time>2021-04-11 08:03:22</time>
      </trkpt>
      <trkpt lat="41.45393" lon="1.99932">
        <ele>128.8</ele>
        <time>2021-04-11 08:03:23</time>
      </trkpt>
      <trkpt lat="41.454" lon="1.9993">
        <ele>128.6</ele>
        <time>2021-04-11 08:03:24</time>
      </trkpt>
      <trkpt lat="41.45406" lon="1.99928">
        <ele>128.4</ele>
        <time>2021-04-11 08:03:25</time>
      </trkpt>
      <trkpt lat="41.45413" lon="1.99926">
        <ele>128.2</ele>
        <time>2021-04-11 08:03:26</time>
      </trkpt>
      <trkpt lat="41.45419" lon="1.99924">
        <ele>128</ele>
        <time>2021-04-11 08:03:27</time>
      </trkpt>
      <trkpt lat="41.45426" lon="1.99921">
        <ele>127.8</ele>
        <time>2021-04-11 08:03:28</time>
      </trkpt>
      <trkpt lat="41.45432" lon="1.99919">
        <ele>127.6</ele>
        <time>2021-04-11 08:03:29</time>
      </trkpt>
      <trkpt lat="41.45439" lon="1.99917">
        <ele>127.4</ele>
        <time>2021-04-11 08:03:30</time>
      </trkpt>
      <trkpt lat="41.45446" lon="1.99914">
        <ele>127.2</ele>
        <time>2021-04-11 08:03:31</time>
      </trkpt>
      <trkpt lat="41.45452" lon="1.99912">
        <ele>127</ele>
        <time>2021-04-11 08:03:32</time>
      </trkpt>
      <trkpt lat="41.4546" lon="1.9991">
        <ele>126.8</ele>
        <time>2021-04-11 08:03:33</time>
      </trkpt>
      <trkpt lat="41.45467" lon="1.99907">
        <ele>126.6</ele>
        <time>2021-04-11 08:03:34</time>
      </trkpt>
      <trkpt lat="41.45473" lon="1.99905">
        <ele>126.4</ele>
        <time>2021-04-11 08:03:35</time>
      </trkpt>
      <trkpt lat="41.45481" lon="1.99902">
        <ele>126.2</ele>
        <time>2021-04-11 08:03:36</time>
      </trkpt>
      <trkpt lat="41.45488" lon="1.999">
        <ele>126</ele>
        <time>2021-04-11 08:03:37</time>
      </trkpt>
      <trkpt lat="41.45495" lon="1.99897">
        <ele>125.8</ele>
        <time>2021-04-11 08:03:38</time>
      </trkpt>
      <trkpt lat="41.45503" lon="1.99895">
        <ele>125.8</ele>
        <time>2021-04-11 08:03:39</time>
      </trkpt>
      <trkpt lat="41.45509" lon="1.99892">
        <ele>125.6</ele>
        <time>2021-04-11 08:03:40</time>
      </trkpt>
      <trkpt lat="41.45517" lon="1.9989">
        <ele>125.4</ele>
        <time>2021-04-11 08:03:41</time>
      </trkpt>
      <trkpt lat="41.45523" lon="1.99888">
        <ele>125.4</ele>
        <time>2021-04-11 08:03:42</time>
      </trkpt>
      <trkpt lat="41.45531" lon="1.99886">
        <ele>125.6</ele>
        <time>2021-04-11 08:03:43</time>
      </trkpt>
      <trkpt lat="41.45537" lon="1.99884">
        <ele>125.8</ele>
        <time>2021-04-11 08:03:44</time>
      </trkpt>
      <trkpt lat="41.45543" lon="1.99882">
        <ele>126.2</ele>
        <time>2021-04-11 08:03:45</time>
      </trkpt>
      <trkpt lat="41.45548" lon="1.9988">
        <ele>126.6</ele>
        <time>2021-04-11 08:03:46</time>
      </trkpt>
      <trkpt lat="41.45554" lon="1.99878">
        <ele>127</ele>
        <time>2021-04-11 08:03:47</time>
      </trkpt>
      <trkpt lat="41.45559" lon="1.99877">
        <ele>127.4</ele>
        <time>2021-04-11 08:03:48</time>
      </trkpt>
      <trkpt lat="41.45564" lon="1.99875">
        <ele>127.8</ele>
        <time>2021-04-11 08:03:49</time>
      </trkpt>
      <trkpt lat="41.45568" lon="1.99874">
        <ele>128.4</ele>
        <time>2021-04-11 08:03:50</time>
      </trkpt>
      <trkpt lat="41.45572" lon="1.99872">
        <ele>128.8</ele>
        <time>2021-04-11 08:03:51</time>
      </trkpt>
      <trkpt lat="41.45577" lon="1.99871">
        <ele>129.2</ele>
        <time>2021-04-11 08:03:52</time>
      </trkpt>
      <trkpt lat="41.45582" lon="1.99869">
        <ele>129.6</ele>
        <time>2021-04-11 08:03:53</time>
      </trkpt>
      <trkpt lat="41.45586" lon="1.99868">
        <ele>130</ele>
        <time>2021-04-11 08:03:54</time>
      </trkpt>
      <trkpt lat="41.4559" lon="1.99867">
        <ele>130.4</ele>
        <time>2021-04-11 08:03:55</time>
      </trkpt>
      <trkpt lat="41.45593" lon="1.99865">
        <ele>130.8</ele>
        <time>2021-04-11 08:03:56</time>
      </trkpt>
      <trkpt lat="41.45598" lon="1.99864">
        <ele>131.2</ele>
        <time>2021-04-11 08:03:57</time>
      </trkpt>
      <trkpt lat="41.45602" lon="1.99863">
        <ele>131.4</ele>
        <time>2021-04-11 08:03:58</time>
      </trkpt>
      <trkpt lat="41.45606" lon="1.99861">
        <ele>131.8</ele>
        <time>2021-04-11 08:03:59</time>
      </trkpt>
      <trkpt lat="41.45609" lon="1.9986">
        <ele>132.2</ele>
        <time>2021-04-11 08:04:00</time>
      </trkpt>
      <trkpt lat="41.45613" lon="1.99859">
        <ele>132.4</ele>
        <time>2021-04-11 08:04:01</time>
      </trkpt>
      <trkpt lat="41.45617" lon="1.99857">
        <ele>132.6</ele>
        <time>2021-04-11 08:04:02</time>
      </trkpt>
      <trkpt lat="41.4562" lon="1.99856">
        <ele>132.8</ele>
        <time>2021-04-11 08:04:03</time>
      </trkpt>
      <trkpt lat="41.45624" lon="1.99855">
        <ele>133.2</ele>
        <time>2021-04-11 08:04:04</time>
      </trkpt>
      <trkpt lat="41.45628" lon="1.99854">
        <ele>133.6</ele>
        <time>2021-04-11 08:04:05</time>
      </trkpt>
      <trkpt lat="41.45631" lon="1.99853">
        <ele>134</ele>
        <time>2021-04-11 08:04:06</time>
      </trkpt>
      <trkpt lat="41.45635" lon="1.99851">
        <ele>134.2</ele>
        <time>2021-04-11 08:04:07</time>
      </trkpt>
      <trkpt lat="41.45639" lon="1.9985">
        <ele>134.6</ele>
        <time>2021-04-11 08:04:08</time>
      </trkpt>
      <trkpt lat="41.45642" lon="1.99849">
        <ele>135</ele>
        <time>2021-04-11 08:04:09</time>
      </trkpt>
      <trkpt lat="41.45646" lon="1.99848">
        <ele>135.4</ele>
        <time>2021-04-11 08:04:10</time>
      </trkpt>
      <trkpt lat="41.45649" lon="1.99847">
        <ele>135.6</ele>
        <time>2021-04-11 08:04:11</time>
      </trkpt>
      <trkpt lat="41.45653" lon="1.99846">
        <ele>136</ele>
        <time>2021-04-11 08:04:12</time>
      </trkpt>
      <trkpt lat="41.45657" lon="1.99844">
        <ele>136.2</ele>
        <time>2021-04-11 08:04:13</time>
      </trkpt>
      <trkpt lat="41.4566" lon="1.99843">
        <ele>136.6</ele>
        <time>2021-04-11 08:04:14</time>
      </trkpt>
      <trkpt lat="41.45663" lon="1.99842">
        <ele>137</ele>
        <time>2021-04-11 08:04:15</time>
      </trkpt>
      <trkpt lat="41.45666" lon="1.9984">
        <ele>137.2</ele>
        <time>2021-04-11 08:04:16</time>
      </trkpt>
      <trkpt lat="41.45669" lon="1.99838">
        <ele>137.6</ele>
        <time>2021-04-11 08:04:17</time>
      </trkpt>
      <trkpt lat="41.45672" lon="1.99836">
        <ele>137.8</ele>
        <time>2021-04-11 08:04:18</time>
      </trkpt>
      <trkpt lat="41.45676" lon="1.99834">
        <ele>138.2</ele>
        <time>2021-04-11 08:04:19</time>
      </trkpt>
      <trkpt lat="41.45678" lon="1.99831">
        <ele>138.4</ele>
        <time>2021-04-11 08:04:20</time>
      </trkpt>
      <trkpt lat="41.45681" lon="1.99828">
        <ele>138.6</ele>
        <time>2021-04-11 08:04:21</time>
      </trkpt>
      <trkpt lat="41.45684" lon="1.99825">
        <ele>139</ele>
        <time>2021-04-11 08:04:22</time>
      </trkpt>
      <trkpt lat="41.45686" lon="1.99822">
        <ele>139.2</ele>
        <time>2021-04-11 08:04:23</time>
      </trkpt>
      <trkpt lat="41.45689" lon="1.99818">
        <ele>139.6</ele>
        <time>2021-04-11 08:04:24</time>
      </trkpt>
      <trkpt lat="41.45691" lon="1.99814">
        <ele>139.8</ele>
        <time>2021-04-11 08:04:25</time>
      </trkpt>
      <trkpt lat="41.45693" lon="1.9981">
        <ele>140</ele>
        <time>2021-04-11 08:04:26</time>
      </trkpt>
      <trkpt lat="41.45695" lon="1.99806">
        <ele>140.4</ele>
        <time>2021-04-11 08:04:27</time>
      </trkpt>
      <trkpt lat="41.45696" lon="1.99801">
        <ele>140.6</ele>
        <time>2021-04-11 08:04:28</time>
      </trkpt>
      <trkpt lat="41.45697" lon="1.99797">
        <ele>141</ele>
        <time>2021-04-11 08:04:29</time>
      </trkpt>
      <trkpt lat="41.45698" lon="1.99792">
        <ele>141.2</ele>
        <time>2021-04-11 08:04:30</time>
      </trkpt>
      <trkpt lat="41.45698" lon="1.99788">
        <ele>141.6</ele>
        <time>2021-04-11 08:04:31</time>
      </trkpt>
      <trkpt lat="41.45698" lon="1.99783">
        <ele>141.8</ele>
        <time>2021-04-11 08:04:32</time>
      </trkpt>
      <trkpt lat="41.45697" lon="1.99778">
        <ele>142.2</ele>
        <time>2021-04-11 08:04:33</time>
      </trkpt>
      <trkpt lat="41.45697" lon="1.99773">
        <ele>142.4</ele>
        <time>2021-04-11 08:04:34</time>
      </trkpt>
      <trkpt lat="41.45697" lon="1.99769">
        <ele>142.6</ele>
        <time>2021-04-11 08:04:35</time>
      </trkpt>
      <trkpt lat="41.45696" lon="1.99764">
        <ele>143</ele>
        <time>2021-04-11 08:04:36</time>
      </trkpt>
      <trkpt lat="41.45696" lon="1.99759">
        <ele>143.2</ele>
        <time>2021-04-11 08:04:37</time>
      </trkpt>
      <trkpt lat="41.45695" lon="1.99755">
        <ele>143.4</ele>
        <time>2021-04-11 08:04:38</time>
      </trkpt>
      <trkpt lat="41.45694" lon="1.9975">
        <ele>143.6</ele>
        <time>2021-04-11 08:04:39</time>
      </trkpt>
      <trkpt lat="41.45694" lon="1.99746">
        <ele>144</ele>
        <time>2021-04-11 08:04:40</time>
      </trkpt>
      <trkpt lat="41.45693" lon="1.99742">
        <ele>144.2</ele>
        <time>2021-04-11 08:04:41</time>
      </trkpt>
      <trkpt lat="41.45692" lon="1.99737">
        <ele>144.4</ele>
        <time>2021-04-11 08:04:42</time>
      </trkpt>
      <trkpt lat="41.45692" lon="1.99733">
        <ele>144.6</ele>
        <time>2021-04-11 08:04:43</time>
      </trkpt>
      <trkpt lat="41.45691" lon="1.99727">
        <ele>144.8</ele>
        <time>2021-04-11 08:04:44</time>
      </trkpt>
      <trkpt lat="41.45691" lon="1.99723">
        <ele>145</ele>
        <time>2021-04-11 08:04:45</time>
      </trkpt>
      <trkpt lat="41.4569" lon="1.99719">
        <ele>145.4</ele>
        <time>2021-04-11 08:04:46</time>
      </trkpt>
      <trkpt lat="41.45689" lon="1.99714">
        <ele>145.6</ele>
        <time>2021-04-11 08:04:47</time>
      </trkpt>
      <trkpt lat="41.45689" lon="1.9971">
        <ele>145.8</ele>
        <time>2021-04-11 08:04:48</time>
      </trkpt>
      <trkpt lat="41.45688" lon="1.99705">
        <ele>146</ele>
        <time>2021-04-11 08:04:49</time>
      </trkpt>
      <trkpt lat="41.45688" lon="1.997">
        <ele>146.4</ele>
        <time>2021-04-11 08:04:50</time>
      </trkpt>
      <trkpt lat="41.45687" lon="1.99696">
        <ele>146.6</ele>
        <time>2021-04-11 08:04:51</time>
      </trkpt>
      <trkpt lat="41.45687" lon="1.99691">
        <ele>146.8</ele>
        <time>2021-04-11 08:04:52</time>
      </trkpt>
      <trkpt lat="41.45686" lon="1.99687">
        <ele>147</ele>
        <time>2021-04-11 08:04:53</time>
      </trkpt>
      <trkpt lat="41.45686" lon="1.99682">
        <ele>147.2</ele>
        <time>2021-04-11 08:04:54</time>
      </trkpt>
      <trkpt lat="41.45685" lon="1.99678">
        <ele>147.4</ele>
        <time>2021-04-11 08:04:55</time>
      </trkpt>
      <trkpt lat="41.45685" lon="1.99673">
        <ele>147.6</ele>
        <time>2021-04-11 08:04:56</time>
      </trkpt>
      <trkpt lat="41.45685" lon="1.99668">
        <ele>147.8</ele>
        <time>2021-04-11 08:04:57</time>
      </trkpt>
      <trkpt lat="41.45685" lon="1.99663">
        <ele>148</ele>
        <time>2021-04-11 08:04:58</time>
      </trkpt>
      <trkpt lat="41.45685" lon="1.99659">
        <ele>148.2</ele>
        <time>2021-04-11 08:04:59</time>
      </trkpt>
      <trkpt lat="41.45686" lon="1.99654">
        <ele>148.4</ele>
        <time>2021-04-11 08:05:00</time>
      </trkpt>
      <trkpt lat="41.45686" lon="1.99649">
        <ele>148.6</ele>
        <time>2021-04-11 08:05:01</time>
      </trkpt>
      <trkpt lat="41.45687" lon="1.99644">
        <ele>148.8</ele>
        <time>2021-04-11 08:05:02</time>
      </trkpt>
      <trkpt lat="41.45689" lon="1.9964">
        <ele>149</ele>
        <time>2021-04-11 08:05:03</time>
      </trkpt>
      <trkpt lat="41.4569" lon="1.99635">
        <ele>149.2</ele>
        <time>2021-04-11 08:05:04</time>
      </trkpt>
      <trkpt lat="41.45691" lon="1.99631">
        <ele>149.4</ele>
        <time>2021-04-11 08:05:05</time>
      </trkpt>
      <trkpt lat="41.45693" lon="1.99627">
        <ele>149.6</ele>
        <time>2021-04-11 08:05:06</time>
      </trkpt>
      <trkpt lat="41.45694" lon="1.99622">
        <ele>150</ele>
        <time>2021-04-11 08:05:07</time>
      </trkpt>
      <trkpt lat="41.45696" lon="1.99618">
        <ele>150.2</ele>
        <time>2021-04-11 08:05:08</time>
      </trkpt>
      <trkpt lat="41.45697" lon="1.99615">
        <ele>150.4</ele>
        <time>2021-04-11 08:05:09</time>
      </trkpt>
      <trkpt lat="41.45699" lon="1.9961">
        <ele>150.6</ele>
        <time>2021-04-11 08:05:10</time>
      </trkpt>
      <trkpt lat="41.45701" lon="1.99606">
        <ele>150.8</ele>
        <time>2021-04-11 08:05:11</time>
      </trkpt>
      <trkpt lat="41.45702" lon="1.99602">
        <ele>151</ele>
        <time>2021-04-11 08:05:12</time>
      </trkpt>
      <trkpt lat="41.45704" lon="1.99599">
        <ele>151.2</ele>
        <time>2021-04-11 08:05:13</time>
      </trkpt>
      <trkpt lat="41.45706" lon="1.99595">
        <ele>151.4</ele>
        <time>2021-04-11 08:05:14</time>
      </trkpt>
      <trkpt lat="41.45708" lon="1.9959">
        <ele>151.6</ele>
        <time>2021-04-11 08:05:15</time>
      </trkpt>
      <trkpt lat="41.4571" lon="1.99587">
        <ele>151.8</ele>
        <time>2021-04-11 08:05:16</time>
      </trkpt>
      <trkpt lat="41.45712" lon="1.99583">
        <ele>152</ele>
        <time>2021-04-11 08:05:17</time>
      </trkpt>
      <trkpt lat="41.45713" lon="1.99579">
        <ele>152.2</ele>
        <time>2021-04-11 08:05:18</time>
      </trkpt>
      <trkpt lat="41.45715" lon="1.99576">
        <ele>152.4</ele>
        <time>2021-04-11 08:05:19</time>
      </trkpt>
      <trkpt lat="41.45717" lon="1.99572">
        <ele>152.6</ele>
        <time>2021-04-11 08:05:20</time>
      </trkpt>
      <trkpt lat="41.45718" lon="1.99568">
        <ele>152.8</ele>
        <time>2021-04-11 08:05:21</time>
      </trkpt>
      <trkpt lat="41.4572" lon="1.99565">
        <ele>153</ele>
        <time>2021-04-11 08:05:22</time>
      </trkpt>
      <trkpt lat="41.45722" lon="1.99561">
        <ele>153.2</ele>
        <time>2021-04-11 08:05:23</time>
      </trkpt>
      <trkpt lat="41.45724" lon="1.99558">
        <ele>153.6</ele>
        <time>2021-04-11 08:05:24</time>
      </trkpt>
      <trkpt lat="41.45727" lon="1.99554">
        <ele>153.8</ele>
        <time>2021-04-11 08:05:25</time>
      </trkpt>
      <trkpt lat="41.4573" lon="1.99552">
        <ele>154</ele>
        <time>2021-04-11 08:05:26</time>
      </trkpt>
      <trkpt lat="41.45732" lon="1.99549">
        <ele>154.2</ele>
        <time>2021-04-11 08:05:27</time>
      </trkpt>
      <trkpt lat="41.45735" lon="1.99546">
        <ele>154.4</ele>
        <time>2021-04-11 08:05:28</time>
      </trkpt>
      <trkpt lat="41.45737" lon="1.99543">
        <ele>154.6</ele>
        <time>2021-04-11 08:05:29</time>
      </trkpt>
      <trkpt lat="41.4574" lon="1.9954">
        <ele>154.8</ele>
        <time>2021-04-11 08:05:30</time>
      </trkpt>
      <trkpt lat="41.45743" lon="1.99537">
        <ele>155</ele>
        <time>2021-04-11 08:05:31</time>
      </trkpt>
      <trkpt lat="41.45746" lon="1.99535">
        <ele>155.4</ele>
        <time>2021-04-11 08:05:32</time>
      </trkpt>
      <trkpt lat="41.45749" lon="1.99532">
        <ele>155.6</ele>
        <time>2021-04-11 08:05:33</time>
      </trkpt>
      <trkpt lat="41.45751" lon="1.9953">
        <ele>155.8</ele>
        <time>2021-04-11 08:05:34</time>
      </trkpt>
      <trkpt lat="41.45755" lon="1.99527">
        <ele>156</ele>
        <time>2021-04-11 08:05:35</time>
      </trkpt>
      <trkpt lat="41.45757" lon="1.99525">
        <ele>156.4</ele>
        <time>2021-04-11 08:05:36</time>
      </trkpt>
      <trkpt lat="41.4576" lon="1.99523">
        <ele>156.6</ele>
        <time>2021-04-11 08:05:37</time>
      </trkpt>
      <trkpt lat="41.45763" lon="1.9952">
        <ele>156.8</ele>
        <time>2021-04-11 08:05:38</time>
      </trkpt>
      <trkpt lat="41.45767" lon="1.99517">
        <ele>157</ele>
        <time>2021-04-11 08:05:39</time>
      </trkpt>
      <trkpt lat="41.4577" lon="1.99514">
        <ele>157.2</ele>
        <time>2021-04-11 08:05:40</time>
      </trkpt>
      <trkpt lat="41.45772" lon="1.99512">
        <ele>157.6</ele>
        <time>2021-04-11 08:05:41</time>
      </trkpt>
      <trkpt lat="41.45776" lon="1.99509">
        <ele>157.8</ele>
        <time>2021-04-11 08:05:42</time>
      </trkpt>
      <trkpt lat="41.45779" lon="1.99506">
        <ele>158</ele>
        <time>2021-04-11 08:05:43</time>
      </trkpt>
      <trkpt lat="41.45782" lon="1.99504">
        <ele>158.4</ele>
        <time>2021-04-11 08:05:44</time>
      </trkpt>
      <trkpt lat="41.45785" lon="1.99501">
        <ele>158.6</ele>
        <time>2021-04-11 08:05:45</time>
      </trkpt>
      <trkpt lat="41.45788" lon="1.99498">
        <ele>158.8</ele>
        <time>2021-04-11 08:05:46</time>
      </trkpt>
      <trkpt lat="41.45791" lon="1.99495">
        <ele>159</ele>
        <time>2021-04-11 08:05:47</time>
      </trkpt>
      <trkpt lat="41.45794" lon="1.99492">
        <ele>159.4</ele>
        <time>2021-04-11 08:05:48</time>
      </trkpt>
      <trkpt lat="41.45796" lon="1.9949">
        <ele>159.4</ele>
        <time>2021-04-11 08:05:49</time>
      </trkpt>
      <trkpt lat="41.45799" lon="1.99486">
        <ele>159.8</ele>
        <time>2021-04-11 08:05:50</time>
      </trkpt>
      <trkpt lat="41.45802" lon="1.99483">
        <ele>160</ele>
        <time>2021-04-11 08:05:51</time>
      </trkpt>
      <trkpt lat="41.45804" lon="1.9948">
        <ele>160.2</ele>
        <time>2021-04-11 08:05:52</time>
      </trkpt>
      <trkpt lat="41.45807" lon="1.99477">
        <ele>160.4</ele>
        <time>2021-04-11 08:05:53</time>
      </trkpt>
      <trkpt lat="41.45809" lon="1.99474">
        <ele>160.6</ele>
        <time>2021-04-11 08:05:54</time>
      </trkpt>
      <trkpt lat="41.45812" lon="1.99471">
        <ele>160.8</ele>
        <time>2021-04-11 08:05:55</time>
      </trkpt>
      <trkpt lat="41.45815" lon="1.99468">
        <ele>161</ele>
        <time>2021-04-11 08:05:56</time>
      </trkpt>
      <trkpt lat="41.45817" lon="1.99465">
        <ele>161.4</ele>
        <time>2021-04-11 08:05:57</time>
      </trkpt>
      <trkpt lat="41.45819" lon="1.99462">
        <ele>161.6</ele>
        <time>2021-04-11 08:05:58</time>
      </trkpt>
      <trkpt lat="41.45822" lon="1.99459">
        <ele>161.8</ele>
        <time>2021-04-11 08:05:59</time>
      </trkpt>
      <trkpt lat="41.45825" lon="1.99455">
        <ele>162</ele>
        <time>2021-04-11 08:06:00</time>
      </trkpt>
      <trkpt lat="41.45827" lon="1.99452">
        <ele>162.2</ele>
        <time>2021-04-11 08:06:01</time>
      </trkpt>
      <trkpt lat="41.4583" lon="1.9945">
        <ele>162.4</ele>
        <time>2021-04-11 08:06:02</time>
      </trkpt>
      <trkpt lat="41.45833" lon="1.99446">
        <ele>162.8</ele>
        <time>2021-04-11 08:06:03</time>
      </trkpt>
      <trkpt lat="41.45835" lon="1.99443">
        <ele>163</ele>
        <time>2021-04-11 08:06:04</time>
      </trkpt>
      <trkpt lat="41.45838" lon="1.9944">
        <ele>163.2</ele>
        <time>2021-04-11 08:06:05</time>
      </trkpt>
      <trkpt lat="41.45841" lon="1.99436">
        <ele>163.4</ele>
        <time>2021-04-11 08:06:06</time>
      </trkpt>
      <trkpt lat="41.45844" lon="1.99433">
        <ele>163.6</ele>
        <time>2021-04-11 08:06:07</time>
      </trkpt>
      <trkpt lat="41.45846" lon="1.9943">
        <ele>163.8</ele>
        <time>2021-04-11 08:06:08</time>
      </trkpt>
      <trkpt lat="41.45849" lon="1.99427">
        <ele>164</ele>
        <time>2021-04-11 08:06:09</time>
      </trkpt>
      <trkpt lat="41.45852" lon="1.99423">
        <ele>164.2</ele>
        <time>2021-04-11 08:06:10</time>
      </trkpt>
      <trkpt lat="41.45854" lon="1.9942">
        <ele>164.6</ele>
        <time>2021-04-11 08:06:11</time>
      </trkpt>
      <trkpt lat="41.45857" lon="1.99417">
        <ele>164.8</ele>
        <time>2021-04-11 08:06:12</time>
      </trkpt>
      <trkpt lat="41.45859" lon="1.99414">
        <ele>165</ele>
        <time>2021-04-11 08:06:13</time>
      </trkpt>
      <trkpt lat="41.45862" lon="1.99411">
        <ele>165.2</ele>
        <time>2021-04-11 08:06:14</time>
      </trkpt>
      <trkpt lat="41.45865" lon="1.99407">
        <ele>165.4</ele>
        <time>2021-04-11 08:06:15</time>
      </trkpt>
      <trkpt lat="41.45867" lon="1.99404">
        <ele>165.6</ele>
        <time>2021-04-11 08:06:16</time>
      </trkpt>
      <trkpt lat="41.45869" lon="1.994">
        <ele>165.8</ele>
        <time>2021-04-11 08:06:17</time>
      </trkpt>
      <trkpt lat="41.45871" lon="1.99397">
        <ele>166</ele>
        <time>2021-04-11 08:06:18</time>
      </trkpt>
      <trkpt lat="41.45874" lon="1.99393">
        <ele>166.2</ele>
        <time>2021-04-11 08:06:19</time>
      </trkpt>
      <trkpt lat="41.45876" lon="1.99389">
        <ele>166.4</ele>
        <time>2021-04-11 08:06:20</time>
      </trkpt>
      <trkpt lat="41.45878" lon="1.99386">
        <ele>166.6</ele>
        <time>2021-04-11 08:06:21</time>
      </trkpt>
      <trkpt lat="41.4588" lon="1.99382">
        <ele>166.8</ele>
        <time>2021-04-11 08:06:22</time>
      </trkpt>
      <trkpt lat="41.45882" lon="1.99379">
        <ele>166.8</ele>
        <time>2021-04-11 08:06:23</time>
      </trkpt>
      <trkpt lat="41.45884" lon="1.99375">
        <ele>167</ele>
        <time>2021-04-11 08:06:24</time>
      </trkpt>
      <trkpt lat="41.45887" lon="1.99371">
        <ele>167</ele>
        <time>2021-04-11 08:06:25</time>
      </trkpt>
      <trkpt lat="41.45889" lon="1.99367">
        <ele>167</ele>
        <time>2021-04-11 08:06:26</time>
      </trkpt>
      <trkpt lat="41.45891" lon="1.99363">
        <ele>167</ele>
        <time>2021-04-11 08:06:27</time>
      </trkpt>
      <trkpt lat="41.45893" lon="1.99359">
        <ele>167</ele>
        <time>2021-04-11 08:06:28</time>
      </trkpt>
      <trkpt lat="41.45896" lon="1.99355">
        <ele>167</ele>
        <time>2021-04-11 08:06:29</time>
      </trkpt>
      <trkpt lat="41.45898" lon="1.99351">
        <ele>167.2</ele>
        <time>2021-04-11 08:06:30</time>
      </trkpt>
      <trkpt lat="41.45901" lon="1.99347">
        <ele>167.2</ele>
        <time>2021-04-11 08:06:31</time>
      </trkpt>
      <trkpt lat="41.45903" lon="1.99343">
        <ele>167.2</ele>
        <time>2021-04-11 08:06:32</time>
      </trkpt>
      <trkpt lat="41.45906" lon="1.99338">
        <ele>167.2</ele>
        <time>2021-04-11 08:06:33</time>
      </trkpt>
      <trkpt lat="41.45908" lon="1.99335">
        <ele>167.2</ele>
        <time>2021-04-11 08:06:34</time>
      </trkpt>
      <trkpt lat="41.4591" lon="1.9933">
        <ele>167.2</ele>
        <time>2021-04-11 08:06:35</time>
      </trkpt>
      <trkpt lat="41.45912" lon="1.99326">
        <ele>167.4</ele>
        <time>2021-04-11 08:06:36</time>
      </trkpt>
      <trkpt lat="41.45914" lon="1.99321">
        <ele>167.4</ele>
        <time>2021-04-11 08:06:37</time>
      </trkpt>
      <trkpt lat="41.45917" lon="1.99317">
        <ele>167.4</ele>
        <time>2021-04-11 08:06:38</time>
      </trkpt>
      <trkpt lat="41.45919" lon="1.99312">
        <ele>167.4</ele>
        <time>2021-04-11 08:06:39</time>
      </trkpt>
      <trkpt lat="41.45922" lon="1.99307">
        <ele>167.4</ele>
        <time>2021-04-11 08:06:40</time>
      </trkpt>
      <trkpt lat="41.45924" lon="1.99303">
        <ele>167.4</ele>
        <time>2021-04-11 08:06:41</time>
      </trkpt>
      <trkpt lat="41.45927" lon="1.99299">
        <ele>167.6</ele>
        <time>2021-04-11 08:06:42</time>
      </trkpt>
      <trkpt lat="41.4593" lon="1.99295">
        <ele>167.6</ele>
        <time>2021-04-11 08:06:43</time>
      </trkpt>
      <trkpt lat="41.45932" lon="1.99291">
        <ele>167.6</ele>
        <time>2021-04-11 08:06:44</time>
      </trkpt>
      <trkpt lat="41.45935" lon="1.99287">
        <ele>167.6</ele>
        <time>2021-04-11 08:06:45</time>
      </trkpt>
      <trkpt lat="41.45938" lon="1.99282">
        <ele>167.6</ele>
        <time>2021-04-11 08:06:46</time>
      </trkpt>
      <trkpt lat="41.45941" lon="1.99278">
        <ele>167.6</ele>
        <time>2021-04-11 08:06:47</time>
      </trkpt>
      <trkpt lat="41.45944" lon="1.99274">
        <ele>167.6</ele>
        <time>2021-04-11 08:06:48</time>
      </trkpt>
      <trkpt lat="41.45948" lon="1.9927">
        <ele>167.8</ele>
        <time>2021-04-11 08:06:49</time>
      </trkpt>
      <trkpt lat="41.45951" lon="1.99267">
        <ele>167.8</ele>
        <time>2021-04-11 08:06:50</time>
      </trkpt>
      <trkpt lat="41.45955" lon="1.99263">
        <ele>167.8</ele>
        <time>2021-04-11 08:06:51</time>
      </trkpt>
      <trkpt lat="41.45959" lon="1.9926">
        <ele>168</ele>
        <time>2021-04-11 08:06:52</time>
      </trkpt>
      <trkpt lat="41.45962" lon="1.99256">
        <ele>168</ele>
        <time>2021-04-11 08:06:53</time>
      </trkpt>
      <trkpt lat="41.45965" lon="1.99253">
        <ele>168</ele>
        <time>2021-04-11 08:06:54</time>
      </trkpt>
      <trkpt lat="41.45969" lon="1.99249">
        <ele>168.2</ele>
        <time>2021-04-11 08:06:55</time>
      </trkpt>
      <trkpt lat="41.45973" lon="1.99245">
        <ele>168.2</ele>
        <time>2021-04-11 08:06:56</time>
      </trkpt>
      <trkpt lat="41.45977" lon="1.99242">
        <ele>168.2</ele>
        <time>2021-04-11 08:06:57</time>
      </trkpt>
      <trkpt lat="41.4598" lon="1.99238">
        <ele>168.4</ele>
        <time>2021-04-11 08:06:58</time>
      </trkpt>
      <trkpt lat="41.45983" lon="1.99235">
        <ele>168.4</ele>
        <time>2021-04-11 08:06:59</time>
      </trkpt>
      <trkpt lat="41.45987" lon="1.99231">
        <ele>168.4</ele>
        <time>2021-04-11 08:07:00</time>
      </trkpt>
      <trkpt lat="41.45991" lon="1.99228">
        <ele>168.6</ele>
        <time>2021-04-11 08:07:01</time>
      </trkpt>
      <trkpt lat="41.45994" lon="1.99225">
        <ele>168.6</ele>
        <time>2021-04-11 08:07:02</time>
      </trkpt>
      <trkpt lat="41.45998" lon="1.99221">
        <ele>168.6</ele>
        <time>2021-04-11 08:07:03</time>
      </trkpt>
      <trkpt lat="41.46001" lon="1.99218">
        <ele>168.6</ele>
        <time>2021-04-11 08:07:04</time>
      </trkpt>
      <trkpt lat="41.46005" lon="1.99214">
        <ele>168.8</ele>
        <time>2021-04-11 08:07:05</time>
      </trkpt>
      <trkpt lat="41.46009" lon="1.99211">
        <ele>168.8</ele>
        <time>2021-04-11 08:07:06</time>
      </trkpt>
      <trkpt lat="41.46012" lon="1.99207">
        <ele>168.8</ele>
        <time>2021-04-11 08:07:07</time>
      </trkpt>
      <trkpt lat="41.46016" lon="1.99203">
        <ele>168.8</ele>
        <time>2021-04-11 08:07:08</time>
      </trkpt>
      <trkpt lat="41.4602" lon="1.992">
        <ele>168.8</ele>
        <time>2021-04-11 08:07:09</time>
      </trkpt>
      <trkpt lat="41.46024" lon="1.99196">
        <ele>168.6</ele>
        <time>2021-04-11 08:07:10</time>
      </trkpt>
      <trkpt lat="41.46028" lon="1.99192">
        <ele>168.6</ele>
        <time>2021-04-11 08:07:11</time>
      </trkpt>
      <trkpt lat="41.46032" lon="1.99188">
        <ele>168.6</ele>
        <time>2021-04-11 08:07:12</time>
      </trkpt>
      <trkpt lat="41.46036" lon="1.99184">
        <ele>168.4</ele>
        <time>2021-04-11 08:07:13</time>
      </trkpt>
      <trkpt lat="41.46041" lon="1.9918">
        <ele>168.4</ele>
        <time>2021-04-11 08:07:14</time>
      </trkpt>
      <trkpt lat="41.46045" lon="1.99175">
        <ele>168.2</ele>
        <time>2021-04-11 08:07:15</time>
      </trkpt>
      <trkpt lat="41.46049" lon="1.99171">
        <ele>168</ele>
        <time>2021-04-11 08:07:16</time>
      </trkpt>
      <trkpt lat="41.46054" lon="1.99167">
        <ele>168</ele>
        <time>2021-04-11 08:07:17</time>
      </trkpt>
      <trkpt lat="41.46059" lon="1.99163">
        <ele>167.8</ele>
        <time>2021-04-11 08:07:18</time>
      </trkpt>
      <trkpt lat="41.46063" lon="1.99158">
        <ele>167.6</ele>
        <time>2021-04-11 08:07:19</time>
      </trkpt>
      <trkpt lat="41.46067" lon="1.99154">
        <ele>167.6</ele>
        <time>2021-04-11 08:07:20</time>
      </trkpt>
      <trkpt lat="41.46071" lon="1.99149">
        <ele>167.4</ele>
        <time>2021-04-11 08:07:21</time>
      </trkpt>
      <trkpt lat="41.46076" lon="1.99145">
        <ele>167.4</ele>
        <time>2021-04-11 08:07:22</time>
      </trkpt>
      <trkpt lat="41.46081" lon="1.9914">
        <ele>167.2</ele>
        <time>2021-04-11 08:07:23</time>
      </trkpt>
      <trkpt lat="41.46085" lon="1.99136">
        <ele>167.2</ele>
        <time>2021-04-11 08:07:24</time>
      </trkpt>
      <trkpt lat="41.4609" lon="1.99131">
        <ele>167.2</ele>
        <time>2021-04-11 08:07:25</time>
      </trkpt>
      <trkpt lat="41.46095" lon="1.99127">
        <ele>167.2</ele>
        <time>2021-04-11 08:07:26</time>
      </trkpt>
      <trkpt lat="41.46099" lon="1.99122">
        <ele>167.2</ele>
        <time>2021-04-11 08:07:27</time>
      </trkpt>
      <trkpt lat="41.46104" lon="1.99118">
        <ele>167.2</ele>
        <time>2021-04-11 08:07:28</time>
      </trkpt>
      <trkpt lat="41.46108" lon="1.99114">
        <ele>167.2</ele>
        <time>2021-04-11 08:07:29</time>
      </trkpt>
      <trkpt lat="41.46113" lon="1.99109">
        <ele>167.2</ele>
        <time>2021-04-11 08:07:30</time>
      </trkpt>
      <trkpt lat="41.46117" lon="1.99104">
        <ele>167.2</ele>
        <time>2021-04-11 08:07:31</time>
      </trkpt>
      <trkpt lat="41.46122" lon="1.991">
        <ele>167.4</ele>
        <time>2021-04-11 08:07:32</time>
      </trkpt>
      <trkpt lat="41.46127" lon="1.99095">
        <ele>167.4</ele>
        <time>2021-04-11 08:07:33</time>
      </trkpt>
      <trkpt lat="41.46131" lon="1.99091">
        <ele>167.4</ele>
        <time>2021-04-11 08:07:34</time>
      </trkpt>
      <trkpt lat="41.46136" lon="1.99086">
        <ele>167.4</ele>
        <time>2021-04-11 08:07:35</time>
      </trkpt>
      <trkpt lat="41.46141" lon="1.99082">
        <ele>167.4</ele>
        <time>2021-04-11 08:07:36</time>
      </trkpt>
      <trkpt lat="41.46146" lon="1.99078">
        <ele>167.4</ele>
        <time>2021-04-11 08:07:37</time>
      </trkpt>
      <trkpt lat="41.46151" lon="1.99073">
        <ele>167.4</ele>
        <time>2021-04-11 08:07:38</time>
      </trkpt>
      <trkpt lat="41.46156" lon="1.99069">
        <ele>167.4</ele>
        <time>2021-04-11 08:07:39</time>
      </trkpt>
      <trkpt lat="41.46161" lon="1.99065">
        <ele>167.6</ele>
        <time>2021-04-11 08:07:40</time>
      </trkpt>
      <trkpt lat="41.46166" lon="1.99061">
        <ele>167.6</ele>
        <time>2021-04-11 08:07:41</time>
      </trkpt>
      <trkpt lat="41.46172" lon="1.99058">
        <ele>167.6</ele>
        <time>2021-04-11 08:07:42</time>
      </trkpt>
      <trkpt lat="41.46177" lon="1.99055">
        <ele>167.6</ele>
        <time>2021-04-11 08:07:43</time>
      </trkpt>
      <trkpt lat="41.46183" lon="1.99053">
        <ele>167.6</ele>
        <time>2021-04-11 08:07:44</time>
      </trkpt>
      <trkpt lat="41.4619" lon="1.99051">
        <ele>167.6</ele>
        <time>2021-04-11 08:07:45</time>
      </trkpt>
      <trkpt lat="41.46196" lon="1.9905">
        <ele>167.6</ele>
        <time>2021-04-11 08:07:46</time>
      </trkpt>
      <trkpt lat="41.46202" lon="1.99049">
        <ele>167.6</ele>
        <time>2021-04-11 08:07:47</time>
      </trkpt>
      <trkpt lat="41.46208" lon="1.99048">
        <ele>167.8</ele>
        <time>2021-04-11 08:07:48</time>
      </trkpt>
      <trkpt lat="41.46213" lon="1.99048">
        <ele>167.8</ele>
        <time>2021-04-11 08:07:49</time>
      </trkpt>
      <trkpt lat="41.46219" lon="1.99048">
        <ele>168</ele>
        <time>2021-04-11 08:07:50</time>
      </trkpt>
      <trkpt lat="41.46225" lon="1.99049">
        <ele>168</ele>
        <time>2021-04-11 08:07:51</time>
      </trkpt>
      <trkpt lat="41.46231" lon="1.99049">
        <ele>168</ele>
        <time>2021-04-11 08:07:52</time>
      </trkpt>
      <trkpt lat="41.46237" lon="1.99049">
        <ele>168.2</ele>
        <time>2021-04-11 08:07:53</time>
      </trkpt>
      <trkpt lat="41.46243" lon="1.99049">
        <ele>168.2</ele>
        <time>2021-04-11 08:07:54</time>
      </trkpt>
      <trkpt lat="41.46249" lon="1.9905">
        <ele>168.4</ele>
        <time>2021-04-11 08:07:55</time>
      </trkpt>
      <trkpt lat="41.46255" lon="1.9905">
        <ele>168.4</ele>
        <time>2021-04-11 08:07:56</time>
      </trkpt>
      <trkpt lat="41.46261" lon="1.9905">
        <ele>168.4</ele>
        <time>2021-04-11 08:07:57</time>
      </trkpt>
      <trkpt lat="41.46266" lon="1.9905">
        <ele>168.6</ele>
        <time>2021-04-11 08:07:58</time>
      </trkpt>
      <trkpt lat="41.46272" lon="1.99051">
        <ele>168.6</ele>
        <time>2021-04-11 08:07:59</time>
      </trkpt>
      <trkpt lat="41.46278" lon="1.99051">
        <ele>168.8</ele>
        <time>2021-04-11 08:08:00</time>
      </trkpt>
      <trkpt lat="41.46284" lon="1.99051">
        <ele>169</ele>
        <time>2021-04-11 08:08:01</time>
      </trkpt>
      <trkpt lat="41.4629" lon="1.99051">
        <ele>169.2</ele>
        <time>2021-04-11 08:08:02</time>
      </trkpt>
      <trkpt lat="41.46295" lon="1.99052">
        <ele>169.2</ele>
        <time>2021-04-11 08:08:03</time>
      </trkpt>
      <trkpt lat="41.463" lon="1.99052">
        <ele>169.4</ele>
        <time>2021-04-11 08:08:04</time>
      </trkpt>
      <trkpt lat="41.46306" lon="1.99052">
        <ele>169.6</ele>
        <time>2021-04-11 08:08:05</time>
      </trkpt>
      <trkpt lat="41.46311" lon="1.99052">
        <ele>169.8</ele>
        <time>2021-04-11 08:08:06</time>
      </trkpt>
      <trkpt lat="41.46316" lon="1.99053">
        <ele>170.2</ele>
        <time>2021-04-11 08:08:07</time>
      </trkpt>
      <trkpt lat="41.46321" lon="1.99053">
        <ele>170.4</ele>
        <time>2021-04-11 08:08:08</time>
      </trkpt>
      <trkpt lat="41.46327" lon="1.99054">
        <ele>170.8</ele>
        <time>2021-04-11 08:08:09</time>
      </trkpt>
      <trkpt lat="41.46332" lon="1.99056">
        <ele>171</ele>
        <time>2021-04-11 08:08:10</time>
      </trkpt>
      <trkpt lat="41.46336" lon="1.99057">
        <ele>171.4</ele>
        <time>2021-04-11 08:08:11</time>
      </trkpt>
      <trkpt lat="41.46341" lon="1.9906">
        <ele>171.6</ele>
        <time>2021-04-11 08:08:12</time>
      </trkpt>
      <trkpt lat="41.46345" lon="1.99063">
        <ele>172</ele>
        <time>2021-04-11 08:08:13</time>
      </trkpt>
      <trkpt lat="41.46349" lon="1.99067">
        <ele>172.2</ele>
        <time>2021-04-11 08:08:14</time>
      </trkpt>
      <trkpt lat="41.46353" lon="1.9907">
        <ele>172.6</ele>
        <time>2021-04-11 08:08:15</time>
      </trkpt>
      <trkpt lat="41.46358" lon="1.99073">
        <ele>173</ele>
        <time>2021-04-11 08:08:16</time>
      </trkpt>
      <trkpt lat="41.46362" lon="1.99075">
        <ele>173.2</ele>
        <time>2021-04-11 08:08:17</time>
      </trkpt>
      <trkpt lat="41.46366" lon="1.99075">
        <ele>173.6</ele>
        <time>2021-04-11 08:08:18</time>
      </trkpt>
      <trkpt lat="41.46371" lon="1.99074">
        <ele>173.8</ele>
        <time>2021-04-11 08:08:19</time>
      </trkpt>
      <trkpt lat="41.46376" lon="1.99072">
        <ele>174</ele>
        <time>2021-04-11 08:08:20</time>
      </trkpt>
      <trkpt lat="41.4638" lon="1.99069">
        <ele>174.2</ele>
        <time>2021-04-11 08:08:21</time>
      </trkpt>
      <trkpt lat="41.46384" lon="1.99065">
        <ele>174.6</ele>
        <time>2021-04-11 08:08:22</time>
      </trkpt>
      <trkpt lat="41.46387" lon="1.99062">
        <ele>174.8</ele>
        <time>2021-04-11 08:08:23</time>
      </trkpt>
      <trkpt lat="41.46391" lon="1.99059">
        <ele>175</ele>
        <time>2021-04-11 08:08:24</time>
      </trkpt>
      <trkpt lat="41.46395" lon="1.99056">
        <ele>175.4</ele>
        <time>2021-04-11 08:08:25</time>
      </trkpt>
      <trkpt lat="41.464" lon="1.99055">
        <ele>175.8</ele>
        <time>2021-04-11 08:08:26</time>
      </trkpt>
      <trkpt lat="41.46404" lon="1.99054">
        <ele>176</ele>
        <time>2021-04-11 08:08:27</time>
      </trkpt>
      <trkpt lat="41.46408" lon="1.99053">
        <ele>176.4</ele>
        <time>2021-04-11 08:08:28</time>
      </trkpt>
      <trkpt lat="41.46413" lon="1.99052">
        <ele>176.6</ele>
        <time>2021-04-11 08:08:29</time>
      </trkpt>
      <trkpt lat="41.46417" lon="1.99052">
        <ele>177</ele>
        <time>2021-04-11 08:08:30</time>
      </trkpt>
      <trkpt lat="41.46421" lon="1.99051">
        <ele>177.2</ele>
        <time>2021-04-11 08:08:31</time>
      </trkpt>
      <trkpt lat="41.46425" lon="1.99049">
        <ele>177.6</ele>
        <time>2021-04-11 08:08:32</time>
      </trkpt>
      <trkpt lat="41.46429" lon="1.99048">
        <ele>177.8</ele>
        <time>2021-04-11 08:08:33</time>
      </trkpt>
      <trkpt lat="41.46433" lon="1.99047">
        <ele>178.2</ele>
        <time>2021-04-11 08:08:34</time>
      </trkpt>
      <trkpt lat="41.46438" lon="1.99045">
        <ele>178.4</ele>
        <time>2021-04-11 08:08:35</time>
      </trkpt>
      <trkpt lat="41.46442" lon="1.99043">
        <ele>178.6</ele>
        <time>2021-04-11 08:08:36</time>
      </trkpt>
      <trkpt lat="41.46446" lon="1.99041">
        <ele>178.8</ele>
        <time>2021-04-11 08:08:37</time>
      </trkpt>
      <trkpt lat="41.4645" lon="1.99039">
        <ele>179.2</ele>
        <time>2021-04-11 08:08:38</time>
      </trkpt>
      <trkpt lat="41.46453" lon="1.99036">
        <ele>179.4</ele>
        <time>2021-04-11 08:08:39</time>
      </trkpt>
      <trkpt lat="41.46457" lon="1.99034">
        <ele>179.6</ele>
        <time>2021-04-11 08:08:40</time>
      </trkpt>
      <trkpt lat="41.46461" lon="1.99031">
        <ele>179.8</ele>
        <time>2021-04-11 08:08:41</time>
      </trkpt>
      <trkpt lat="41.46464" lon="1.99028">
        <ele>180.2</ele>
        <time>2021-04-11 08:08:42</time>
      </trkpt>
      <trkpt lat="41.46468" lon="1.99025">
        <ele>180.4</ele>
        <time>2021-04-11 08:08:43</time>
      </trkpt>
      <trkpt lat="41.46471" lon="1.99022">
        <ele>180.6</ele>
        <time>2021-04-11 08:08:44</time>
      </trkpt>
      <trkpt lat="41.46475" lon="1.99019">
        <ele>180.8</ele>
        <time>2021-04-11 08:08:45</time>
      </trkpt>
      <trkpt lat="41.46478" lon="1.99015">
        <ele>181</ele>
        <time>2021-04-11 08:08:46</time>
      </trkpt>
      <trkpt lat="41.46482" lon="1.99011">
        <ele>181</ele>
        <time>2021-04-11 08:08:47</time>
      </trkpt>
      <trkpt lat="41.46486" lon="1.99007">
        <ele>181.2</ele>
        <time>2021-04-11 08:08:48</time>
      </trkpt>
      <trkpt lat="41.46489" lon="1.99003">
        <ele>181.2</ele>
        <time>2021-04-11 08:08:49</time>
      </trkpt>
      <trkpt lat="41.46493" lon="1.98998">
        <ele>181.4</ele>
        <time>2021-04-11 08:08:50</time>
      </trkpt>
      <trkpt lat="41.46496" lon="1.98994">
        <ele>181.4</ele>
        <time>2021-04-11 08:08:51</time>
      </trkpt>
      <trkpt lat="41.465" lon="1.98989">
        <ele>181.4</ele>
        <time>2021-04-11 08:08:52</time>
      </trkpt>
      <trkpt lat="41.46503" lon="1.98984">
        <ele>181.4</ele>
        <time>2021-04-11 08:08:53</time>
      </trkpt>
      <trkpt lat="41.46507" lon="1.98978">
        <ele>181.2</ele>
        <time>2021-04-11 08:08:54</time>
      </trkpt>
      <trkpt lat="41.46511" lon="1.98973">
        <ele>181.2</ele>
        <time>2021-04-11 08:08:55</time>
      </trkpt>
      <trkpt lat="41.46514" lon="1.98967">
        <ele>181</ele>
        <time>2021-04-11 08:08:56</time>
      </trkpt>
      <trkpt lat="41.46518" lon="1.98962">
        <ele>181</ele>
        <time>2021-04-11 08:08:57</time>
      </trkpt>
      <trkpt lat="41.46521" lon="1.98957">
        <ele>181</ele>
        <time>2021-04-11 08:08:58</time>
      </trkpt>
      <trkpt lat="41.46525" lon="1.9895">
        <ele>180.8</ele>
        <time>2021-04-11 08:08:59</time>
      </trkpt>
      <trkpt lat="41.46529" lon="1.98944">
        <ele>180.8</ele>
        <time>2021-04-11 08:09:00</time>
      </trkpt>
      <trkpt lat="41.46533" lon="1.98938">
        <ele>180.6</ele>
        <time>2021-04-11 08:09:01</time>
      </trkpt>
      <trkpt lat="41.46537" lon="1.98932">
        <ele>180.6</ele>
        <time>2021-04-11 08:09:02</time>
      </trkpt>
      <trkpt lat="41.46541" lon="1.98926">
        <ele>180.4</ele>
        <time>2021-04-11 08:09:03</time>
      </trkpt>
      <trkpt lat="41.46545" lon="1.98919">
        <ele>180.2</ele>
        <time>2021-04-11 08:09:04</time>
      </trkpt>
      <trkpt lat="41.46549" lon="1.98913">
        <ele>180.2</ele>
        <time>2021-04-11 08:09:05</time>
      </trkpt>
      <trkpt lat="41.46553" lon="1.98906">
        <ele>180.2</ele>
        <time>2021-04-11 08:09:06</time>
      </trkpt>
      <trkpt lat="41.46557" lon="1.989">
        <ele>180</ele>
        <time>2021-04-11 08:09:07</time>
      </trkpt>
      <trkpt lat="41.46561" lon="1.98894">
        <ele>179.8</ele>
        <time>2021-04-11 08:09:08</time>
      </trkpt>
      <trkpt lat="41.46566" lon="1.98887">
        <ele>179.8</ele>
        <time>2021-04-11 08:09:09</time>
      </trkpt>
      <trkpt lat="41.4657" lon="1.9888">
        <ele>179.6</ele>
        <time>2021-04-11 08:09:10</time>
      </trkpt>
      <trkpt lat="41.46574" lon="1.98874">
        <ele>179.6</ele>
        <time>2021-04-11 08:09:11</time>
      </trkpt>
      <trkpt lat="41.46578" lon="1.98866">
        <ele>179.4</ele>
        <time>2021-04-11 08:09:12</time>
      </trkpt>
      <trkpt lat="41.46582" lon="1.9886">
        <ele>179.4</ele>
        <time>2021-04-11 08:09:13</time>
      </trkpt>
      <trkpt lat="41.46586" lon="1.98853">
        <ele>179.4</ele>
        <time>2021-04-11 08:09:14</time>
      </trkpt>
      <trkpt lat="41.4659" lon="1.98847">
        <ele>179.4</ele>
        <time>2021-04-11 08:09:15</time>
      </trkpt>
      <trkpt lat="41.46594" lon="1.9884">
        <ele>179.4</ele>
        <time>2021-04-11 08:09:16</time>
      </trkpt>
      <trkpt lat="41.46598" lon="1.98834">
        <ele>179.6</ele>
        <time>2021-04-11 08:09:17</time>
      </trkpt>
      <trkpt lat="41.46602" lon="1.98828">
        <ele>179.6</ele>
        <time>2021-04-11 08:09:18</time>
      </trkpt>
      <trkpt lat="41.46606" lon="1.98822">
        <ele>179.8</ele>
        <time>2021-04-11 08:09:19</time>
      </trkpt>
      <trkpt lat="41.46609" lon="1.98816">
        <ele>179.8</ele>
        <time>2021-04-11 08:09:20</time>
      </trkpt>
      <trkpt lat="41.46613" lon="1.98809">
        <ele>179.8</ele>
        <time>2021-04-11 08:09:21</time>
      </trkpt>
      <trkpt lat="41.46617" lon="1.98803">
        <ele>179.8</ele>
        <time>2021-04-11 08:09:22</time>
      </trkpt>
      <trkpt lat="41.4662" lon="1.98798">
        <ele>180</ele>
        <time>2021-04-11 08:09:23</time>
      </trkpt>
      <trkpt lat="41.46624" lon="1.98792">
        <ele>180</ele>
        <time>2021-04-11 08:09:24</time>
      </trkpt>
      <trkpt lat="41.46627" lon="1.98786">
        <ele>180</ele>
        <time>2021-04-11 08:09:25</time>
      </trkpt>
      <trkpt lat="41.46631" lon="1.98781">
        <ele>180.2</ele>
        <time>2021-04-11 08:09:26</time>
      </trkpt>
      <trkpt lat="41.46635" lon="1.98775">
        <ele>180.4</ele>
        <time>2021-04-11 08:09:27</time>
      </trkpt>
      <trkpt lat="41.46638" lon="1.98769">
        <ele>180.6</ele>
        <time>2021-04-11 08:09:28</time>
      </trkpt>
      <trkpt lat="41.46642" lon="1.98764">
        <ele>180.6</ele>
        <time>2021-04-11 08:09:29</time>
      </trkpt>
      <trkpt lat="41.46646" lon="1.98759">
        <ele>180.8</ele>
        <time>2021-04-11 08:09:30</time>
      </trkpt>
      <trkpt lat="41.4665" lon="1.98753">
        <ele>180.8</ele>
        <time>2021-04-11 08:09:31</time>
      </trkpt>
      <trkpt lat="41.46653" lon="1.98748">
        <ele>181</ele>
        <time>2021-04-11 08:09:32</time>
      </trkpt>
      <trkpt lat="41.46657" lon="1.98742">
        <ele>181</ele>
        <time>2021-04-11 08:09:33</time>
      </trkpt>
      <trkpt lat="41.46662" lon="1.98737">
        <ele>181.2</ele>
        <time>2021-04-11 08:09:34</time>
      </trkpt>
      <trkpt lat="41.46666" lon="1.98732">
        <ele>181.2</ele>
        <time>2021-04-11 08:09:35</time>
      </trkpt>
      <trkpt lat="41.4667" lon="1.98727">
        <ele>181.4</ele>
        <time>2021-04-11 08:09:36</time>
      </trkpt>
      <trkpt lat="41.46674" lon="1.98722">
        <ele>181.4</ele>
        <time>2021-04-11 08:09:37</time>
      </trkpt>
      <trkpt lat="41.46678" lon="1.98718">
        <ele>181.4</ele>
        <time>2021-04-11 08:09:38</time>
      </trkpt>
      <trkpt lat="41.46682" lon="1.98713">
        <ele>181.6</ele>
        <time>2021-04-11 08:09:39</time>
      </trkpt>
      <trkpt lat="41.46687" lon="1.98708">
        <ele>181.8</ele>
        <time>2021-04-11 08:09:40</time>
      </trkpt>
      <trkpt lat="41.46691" lon="1.98703">
        <ele>181.8</ele>
        <time>2021-04-11 08:09:41</time>
      </trkpt>
      <trkpt lat="41.46695" lon="1.98699">
        <ele>181.8</ele>
        <time>2021-04-11 08:09:42</time>
      </trkpt>
      <trkpt lat="41.46699" lon="1.98695">
        <ele>182</ele>
        <time>2021-04-11 08:09:43</time>
      </trkpt>
      <trkpt lat="41.46704" lon="1.98691">
        <ele>182</ele>
        <time>2021-04-11 08:09:44</time>
      </trkpt>
      <trkpt lat="41.46709" lon="1.98687">
        <ele>182</ele>
        <time>2021-04-11 08:09:45</time>
      </trkpt>
      <trkpt lat="41.46714" lon="1.98682">
        <ele>182.2</ele>
        <time>2021-04-11 08:09:46</time>
      </trkpt>
      <trkpt lat="41.46718" lon="1.98678">
        <ele>182.2</ele>
        <time>2021-04-11 08:09:47</time>
      </trkpt>
      <trkpt lat="41.46723" lon="1.98675">
        <ele>182.4</ele>
        <time>2021-04-11 08:09:48</time>
      </trkpt>
      <trkpt lat="41.46727" lon="1.98671">
        <ele>182.6</ele>
        <time>2021-04-11 08:09:49</time>
      </trkpt>
      <trkpt lat="41.46732" lon="1.98668">
        <ele>182.8</ele>
        <time>2021-04-11 08:09:50</time>
      </trkpt>
      <trkpt lat="41.46736" lon="1.98665">
        <ele>183</ele>
        <time>2021-04-11 08:09:51</time>
      </trkpt>
      <trkpt lat="41.46741" lon="1.98662">
        <ele>183.2</ele>
        <time>2021-04-11 08:09:52</time>
      </trkpt>
      <trkpt lat="41.46745" lon="1.9866">
        <ele>183.2</ele>
        <time>2021-04-11 08:09:53</time>
      </trkpt>
      <trkpt lat="41.46751" lon="1.98658">
        <ele>183.4</ele>
        <time>2021-04-11 08:09:54</time>
      </trkpt>
      <trkpt lat="41.46756" lon="1.98656">
        <ele>183.6</ele>
        <time>2021-04-11 08:09:55</time>
      </trkpt>
      <trkpt lat="41.4676" lon="1.98654">
        <ele>183.8</ele>
        <time>2021-04-11 08:09:56</time>
      </trkpt>
      <trkpt lat="41.46765" lon="1.98653">
        <ele>184</ele>
        <time>2021-04-11 08:09:57</time>
      </trkpt>
      <trkpt lat="41.46771" lon="1.98652">
        <ele>184.2</ele>
        <time>2021-04-11 08:09:58</time>
      </trkpt>
      <trkpt lat="41.46776" lon="1.98652">
        <ele>184.2</ele>
        <time>2021-04-11 08:09:59</time>
      </trkpt>
      <trkpt lat="41.46781" lon="1.98653">
        <ele>184.4</ele>
        <time>2021-04-11 08:10:00</time>
      </trkpt>
      <trkpt lat="41.46786" lon="1.98653">
        <ele>184.6</ele>
        <time>2021-04-11 08:10:01</time>
      </trkpt>
      <trkpt lat="41.46791" lon="1.98655">
        <ele>184.6</ele>
        <time>2021-04-11 08:10:02</time>
      </trkpt>
      <trkpt lat="41.46796" lon="1.98656">
        <ele>184.8</ele>
        <time>2021-04-11 08:10:03</time>
      </trkpt>
      <trkpt lat="41.46802" lon="1.98657">
        <ele>184.8</ele>
        <time>2021-04-11 08:10:04</time>
      </trkpt>
      <trkpt lat="41.46808" lon="1.98658">
        <ele>184.8</ele>
        <time>2021-04-11 08:10:05</time>
      </trkpt>
      <trkpt lat="41.46813" lon="1.98658">
        <ele>184.8</ele>
        <time>2021-04-11 08:10:06</time>
      </trkpt>
      <trkpt lat="41.46818" lon="1.98656">
        <ele>185</ele>
        <time>2021-04-11 08:10:07</time>
      </trkpt>
      <trkpt lat="41.46823" lon="1.98653">
        <ele>185</ele>
        <time>2021-04-11 08:10:08</time>
      </trkpt>
      <trkpt lat="41.46827" lon="1.98648">
        <ele>185</ele>
        <time>2021-04-11 08:10:09</time>
      </trkpt>
      <trkpt lat="41.4683" lon="1.98643">
        <ele>185</ele>
        <time>2021-04-11 08:10:10</time>
      </trkpt>
      <trkpt lat="41.46835" lon="1.98637">
        <ele>185</ele>
        <time>2021-04-11 08:10:11</time>
      </trkpt>
      <trkpt lat="41.46839" lon="1.98632">
        <ele>185</ele>
        <time>2021-04-11 08:10:12</time>
      </trkpt>
      <trkpt lat="41.46843" lon="1.98628">
        <ele>185</ele>
        <time>2021-04-11 08:10:13</time>
      </trkpt>
      <trkpt lat="41.46848" lon="1.98624">
        <ele>185</ele>
        <time>2021-04-11 08:10:14</time>
      </trkpt>
      <trkpt lat="41.46854" lon="1.98621">
        <ele>184.8</ele>
        <time>2021-04-11 08:10:15</time>
      </trkpt>
      <trkpt lat="41.4686" lon="1.98618">
        <ele>184.8</ele>
        <time>2021-04-11 08:10:16</time>
      </trkpt>
      <trkpt lat="41.46866" lon="1.98615">
        <ele>184.6</ele>
        <time>2021-04-11 08:10:17</time>
      </trkpt>
      <trkpt lat="41.46872" lon="1.98613">
        <ele>184.4</ele>
        <time>2021-04-11 08:10:18</time>
      </trkpt>
      <trkpt lat="41.46879" lon="1.9861">
        <ele>184.4</ele>
        <time>2021-04-11 08:10:19</time>
      </trkpt>
      <trkpt lat="41.46885" lon="1.98608">
        <ele>184.2</ele>
        <time>2021-04-11 08:10:20</time>
      </trkpt>
      <trkpt lat="41.46892" lon="1.98607">
        <ele>184.2</ele>
        <time>2021-04-11 08:10:21</time>
      </trkpt>
      <trkpt lat="41.46898" lon="1.98606">
        <ele>184.2</ele>
        <time>2021-04-11 08:10:22</time>
      </trkpt>
      <trkpt lat="41.46904" lon="1.98604">
        <ele>184.2</ele>
        <time>2021-04-11 08:10:23</time>
      </trkpt>
      <trkpt lat="41.46911" lon="1.98603">
        <ele>184.2</ele>
        <time>2021-04-11 08:10:24</time>
      </trkpt>
      <trkpt lat="41.46917" lon="1.98601">
        <ele>184.2</ele>
        <time>2021-04-11 08:10:25</time>
      </trkpt>
      <trkpt lat="41.46923" lon="1.986">
        <ele>184.2</ele>
        <time>2021-04-11 08:10:26</time>
      </trkpt>
      <trkpt lat="41.46929" lon="1.98599">
        <ele>184.2</ele>
        <time>2021-04-11 08:10:27</time>
      </trkpt>
      <trkpt lat="41.46935" lon="1.98598">
        <ele>184.4</ele>
        <time>2021-04-11 08:10:28</time>
      </trkpt>
      <trkpt lat="41.4694" lon="1.98596">
        <ele>184.4</ele>
        <time>2021-04-11 08:10:29</time>
      </trkpt>
      <trkpt lat="41.46946" lon="1.98595">
        <ele>184.4</ele>
        <time>2021-04-11 08:10:30</time>
      </trkpt>
      <trkpt lat="41.46952" lon="1.98593">
        <ele>184.4</ele>
        <time>2021-04-11 08:10:31</time>
      </trkpt>
      <trkpt lat="41.46958" lon="1.98592">
        <ele>184.6</ele>
        <time>2021-04-11 08:10:32</time>
      </trkpt>
      <trkpt lat="41.46964" lon="1.98591">
        <ele>184.6</ele>
        <time>2021-04-11 08:10:33</time>
      </trkpt>
      <trkpt lat="41.4697" lon="1.98589">
        <ele>184.6</ele>
        <time>2021-04-11 08:10:34</time>
      </trkpt>
      <trkpt lat="41.46975" lon="1.98588">
        <ele>184.6</ele>
        <time>2021-04-11 08:10:35</time>
      </trkpt>
      <trkpt lat="41.46981" lon="1.98587">
        <ele>184.8</ele>
        <time>2021-04-11 08:10:36</time>
      </trkpt>
      <trkpt lat="41.46987" lon="1.98586">
        <ele>184.8</ele>
        <time>2021-04-11 08:10:37</time>
      </trkpt>
      <trkpt lat="41.46992" lon="1.98584">
        <ele>184.8</ele>
        <time>2021-04-11 08:10:38</time>
      </trkpt>
      <trkpt lat="41.46998" lon="1.98583">
        <ele>184.8</ele>
        <time>2021-04-11 08:10:39</time>
      </trkpt>
      <trkpt lat="41.47004" lon="1.98582">
        <ele>185</ele>
        <time>2021-04-11 08:10:40</time>
      </trkpt>
      <trkpt lat="41.4701" lon="1.98581">
        <ele>185</ele>
        <time>2021-04-11 08:10:41</time>
      </trkpt>
      <trkpt lat="41.47016" lon="1.98579">
        <ele>185</ele>
        <time>2021-04-11 08:10:42</time>
      </trkpt>
      <trkpt lat="41.47022" lon="1.98578">
        <ele>185.2</ele>
        <time>2021-04-11 08:10:43</time>
      </trkpt>
      <trkpt lat="41.47027" lon="1.98577">
        <ele>185.2</ele>
        <time>2021-04-11 08:10:44</time>
      </trkpt>
      <trkpt lat="41.47033" lon="1.98575">
        <ele>185.2</ele>
        <time>2021-04-11 08:10:45</time>
      </trkpt>
      <trkpt lat="41.47039" lon="1.98574">
        <ele>185.2</ele>
        <time>2021-04-11 08:10:46</time>
      </trkpt>
      <trkpt lat="41.47044" lon="1.98573">
        <ele>185.4</ele>
        <time>2021-04-11 08:10:47</time>
      </trkpt>
      <trkpt lat="41.4705" lon="1.98572">
        <ele>185.4</ele>
        <time>2021-04-11 08:10:48</time>
      </trkpt>
      <trkpt lat="41.47056" lon="1.98571">
        <ele>185.4</ele>
        <time>2021-04-11 08:10:49</time>
      </trkpt>
      <trkpt lat="41.47062" lon="1.98569">
        <ele>185.6</ele>
        <time>2021-04-11 08:10:50</time>
      </trkpt>
      <trkpt lat="41.47068" lon="1.98568">
        <ele>185.6</ele>
        <time>2021-04-11 08:10:51</time>
      </trkpt>
      <trkpt lat="41.47073" lon="1.98567">
        <ele>185.8</ele>
        <time>2021-04-11 08:10:52</time>
      </trkpt>
      <trkpt lat="41.47079" lon="1.98565">
        <ele>185.8</ele>
        <time>2021-04-11 08:10:53</time>
      </trkpt>
      <trkpt lat="41.47085" lon="1.98564">
        <ele>185.8</ele>
        <time>2021-04-11 08:10:54</time>
      </trkpt>
      <trkpt lat="41.47091" lon="1.98563">
        <ele>186</ele>
        <time>2021-04-11 08:10:55</time>
      </trkpt>
      <trkpt lat="41.47096" lon="1.98562">
        <ele>186</ele>
        <time>2021-04-11 08:10:56</time>
      </trkpt>
      <trkpt lat="41.47102" lon="1.9856">
        <ele>186</ele>
        <time>2021-04-11 08:10:57</time>
      </trkpt>
      <trkpt lat="41.47107" lon="1.98559">
        <ele>186.2</ele>
        <time>2021-04-11 08:10:58</time>
      </trkpt>
      <trkpt lat="41.47113" lon="1.98558">
        <ele>186.2</ele>
        <time>2021-04-11 08:10:59</time>
      </trkpt>
      <trkpt lat="41.47119" lon="1.98557">
        <ele>186.2</ele>
        <time>2021-04-11 08:11:00</time>
      </trkpt>
      <trkpt lat="41.47124" lon="1.98555">
        <ele>186.2</ele>
        <time>2021-04-11 08:11:01</time>
      </trkpt>
      <trkpt lat="41.4713" lon="1.98554">
        <ele>186.4</ele>
        <time>2021-04-11 08:11:02</time>
      </trkpt>
      <trkpt lat="41.47135" lon="1.98553">
        <ele>186.4</ele>
        <time>2021-04-11 08:11:03</time>
      </trkpt>
      <trkpt lat="41.47141" lon="1.98551">
        <ele>186.6</ele>
        <time>2021-04-11 08:11:04</time>
      </trkpt>
      <trkpt lat="41.47146" lon="1.9855">
        <ele>186.6</ele>
        <time>2021-04-11 08:11:05</time>
      </trkpt>
      <trkpt lat="41.47152" lon="1.98549">
        <ele>186.6</ele>
        <time>2021-04-11 08:11:06</time>
      </trkpt>
      <trkpt lat="41.47158" lon="1.98548">
        <ele>186.6</ele>
        <time>2021-04-11 08:11:07</time>
      </trkpt>
      <trkpt lat="41.47163" lon="1.98547">
        <ele>186.6</ele>
        <time>2021-04-11 08:11:08</time>
      </trkpt>
      <trkpt lat="41.47169" lon="1.98545">
        <ele>186.8</ele>
        <time>2021-04-11 08:11:09</time>
      </trkpt>
      <trkpt lat="41.47175" lon="1.98544">
        <ele>186.8</ele>
        <time>2021-04-11 08:11:10</time>
      </trkpt>
      <trkpt lat="41.47181" lon="1.98543">
        <ele>187</ele>
        <time>2021-04-11 08:11:11</time>
      </trkpt>
      <trkpt lat="41.47186" lon="1.98541">
        <ele>187</ele>
        <time>2021-04-11 08:11:12</time>
      </trkpt>
      <trkpt lat="41.47192" lon="1.9854">
        <ele>187.2</ele>
        <time>2021-04-11 08:11:13</time>
      </trkpt>
      <trkpt lat="41.47198" lon="1.98539">
        <ele>187.2</ele>
        <time>2021-04-11 08:11:14</time>
      </trkpt>
      <trkpt lat="41.47204" lon="1.98538">
        <ele>187.2</ele>
        <time>2021-04-11 08:11:15</time>
      </trkpt>
      <trkpt lat="41.4721" lon="1.98536">
        <ele>187.4</ele>
        <time>2021-04-11 08:11:16</time>
      </trkpt>
      <trkpt lat="41.47215" lon="1.98535">
        <ele>187.4</ele>
        <time>2021-04-11 08:11:17</time>
      </trkpt>
      <trkpt lat="41.4722" lon="1.98534">
        <ele>187.4</ele>
        <time>2021-04-11 08:11:18</time>
      </trkpt>
      <trkpt lat="41.47227" lon="1.98533">
        <ele>187.6</ele>
        <time>2021-04-11 08:11:19</time>
      </trkpt>
      <trkpt lat="41.47232" lon="1.98531">
        <ele>187.6</ele>
        <time>2021-04-11 08:11:20</time>
      </trkpt>
      <trkpt lat="41.47238" lon="1.9853">
        <ele>187.6</ele>
        <time>2021-04-11 08:11:21</time>
      </trkpt>
      <trkpt lat="41.47244" lon="1.98529">
        <ele>187.6</ele>
        <time>2021-04-11 08:11:22</time>
      </trkpt>
      <trkpt lat="41.47249" lon="1.98528">
        <ele>187.6</ele>
        <time>2021-04-11 08:11:23</time>
      </trkpt>
      <trkpt lat="41.47255" lon="1.98527">
        <ele>187.8</ele>
        <time>2021-04-11 08:11:24</time>
      </trkpt>
      <trkpt lat="41.47261" lon="1.98525">
        <ele>187.8</ele>
        <time>2021-04-11 08:11:25</time>
      </trkpt>
      <trkpt lat="41.47267" lon="1.98524">
        <ele>187.8</ele>
        <time>2021-04-11 08:11:26</time>
      </trkpt>
      <trkpt lat="41.47272" lon="1.98522">
        <ele>188</ele>
        <time>2021-04-11 08:11:27</time>
      </trkpt>
      <trkpt lat="41.47278" lon="1.98521">
        <ele>188</ele>
        <time>2021-04-11 08:11:28</time>
      </trkpt>
      <trkpt lat="41.47284" lon="1.9852">
        <ele>188</ele>
        <time>2021-04-11 08:11:29</time>
      </trkpt>
      <trkpt lat="41.47289" lon="1.98519">
        <ele>188.2</ele>
        <time>2021-04-11 08:11:30</time>
      </trkpt>
      <trkpt lat="41.47294" lon="1.98518">
        <ele>188.2</ele>
        <time>2021-04-11 08:11:31</time>
      </trkpt>
      <trkpt lat="41.473" lon="1.98516">
        <ele>188.2</ele>
        <time>2021-04-11 08:11:32</time>
      </trkpt>
      <trkpt lat="41.47305" lon="1.98515">
        <ele>188.4</ele>
        <time>2021-04-11 08:11:33</time>
      </trkpt>
      <trkpt lat="41.47311" lon="1.98514">
        <ele>188.4</ele>
        <time>2021-04-11 08:11:34</time>
      </trkpt>
      <trkpt lat="41.47316" lon="1.98513">
        <ele>188.4</ele>
        <time>2021-04-11 08:11:35</time>
      </trkpt>
      <trkpt lat="41.47322" lon="1.98511">
        <ele>188.6</ele>
        <time>2021-04-11 08:11:36</time>
      </trkpt>
      <trkpt lat="41.47328" lon="1.9851">
        <ele>188.6</ele>
        <time>2021-04-11 08:11:37</time>
      </trkpt>
      <trkpt lat="41.47333" lon="1.98509">
        <ele>188.8</ele>
        <time>2021-04-11 08:11:38</time>
      </trkpt>
      <trkpt lat="41.47339" lon="1.98508">
        <ele>188.8</ele>
        <time>2021-04-11 08:11:39</time>
      </trkpt>
      <trkpt lat="41.47344" lon="1.98507">
        <ele>189</ele>
        <time>2021-04-11 08:11:40</time>
      </trkpt>
      <trkpt lat="41.4735" lon="1.98505">
        <ele>189</ele>
        <time>2021-04-11 08:11:41</time>
      </trkpt>
      <trkpt lat="41.47355" lon="1.98504">
        <ele>189.2</ele>
        <time>2021-04-11 08:11:42</time>
      </trkpt>
      <trkpt lat="41.4736" lon="1.98503">
        <ele>189.4</ele>
        <time>2021-04-11 08:11:43</time>
      </trkpt>
      <trkpt lat="41.47366" lon="1.98502">
        <ele>189.4</ele>
        <time>2021-04-11 08:11:44</time>
      </trkpt>
      <trkpt lat="41.47371" lon="1.98501">
        <ele>189.6</ele>
        <time>2021-04-11 08:11:45</time>
      </trkpt>
      <trkpt lat="41.47377" lon="1.985">
        <ele>189.6</ele>
        <time>2021-04-11 08:11:46</time>
      </trkpt>
      <trkpt lat="41.47382" lon="1.98499">
        <ele>189.8</ele>
        <time>2021-04-11 08:11:47</time>
      </trkpt>
      <trkpt lat="41.47387" lon="1.98498">
        <ele>190</ele>
        <time>2021-04-11 08:11:48</time>
      </trkpt>
      <trkpt lat="41.47393" lon="1.98497">
        <ele>190</ele>
        <time>2021-04-11 08:11:49</time>
      </trkpt>
      <trkpt lat="41.47398" lon="1.98496">
        <ele>190.2</ele>
        <time>2021-04-11 08:11:50</time>
      </trkpt>
      <trkpt lat="41.47404" lon="1.98495">
        <ele>190.2</ele>
        <time>2021-04-11 08:11:51</time>
      </trkpt>
      <trkpt lat="41.4741" lon="1.98494">
        <ele>190.4</ele>
        <time>2021-04-11 08:11:52</time>
      </trkpt>
      <trkpt lat="41.47415" lon="1.98493">
        <ele>190.6</ele>
        <time>2021-04-11 08:11:53</time>
      </trkpt>
      <trkpt lat="41.4742" lon="1.98492">
        <ele>190.6</ele>
        <time>2021-04-11 08:11:54</time>
      </trkpt>
      <trkpt lat="41.47426" lon="1.9849">
        <ele>190.6</ele>
        <time>2021-04-11 08:11:55</time>
      </trkpt>
      <trkpt lat="41.47431" lon="1.98489">
        <ele>190.8</ele>
        <time>2021-04-11 08:11:56</time>
      </trkpt>
      <trkpt lat="41.47437" lon="1.98488">
        <ele>191</ele>
        <time>2021-04-11 08:11:57</time>
      </trkpt>
      <trkpt lat="41.47442" lon="1.98487">
        <ele>191.2</ele>
        <time>2021-04-11 08:11:58</time>
      </trkpt>
      <trkpt lat="41.47447" lon="1.98487">
        <ele>191.4</ele>
        <time>2021-04-11 08:11:59</time>
      </trkpt>
      <trkpt lat="41.47452" lon="1.98486">
        <ele>191.4</ele>
        <time>2021-04-11 08:12:00</time>
      </trkpt>
      <trkpt lat="41.47458" lon="1.98485">
        <ele>191.6</ele>
        <time>2021-04-11 08:12:01</time>
      </trkpt>
      <trkpt lat="41.47464" lon="1.98484">
        <ele>191.8</ele>
        <time>2021-04-11 08:12:02</time>
      </trkpt>
      <trkpt lat="41.47469" lon="1.98483">
        <ele>191.8</ele>
        <time>2021-04-11 08:12:03</time>
      </trkpt>
      <trkpt lat="41.47474" lon="1.98482">
        <ele>192</ele>
        <time>2021-04-11 08:12:04</time>
      </trkpt>
      <trkpt lat="41.4748" lon="1.98481">
        <ele>192.2</ele>
        <time>2021-04-11 08:12:05</time>
      </trkpt>
      <trkpt lat="41.47485" lon="1.9848">
        <ele>192.4</ele>
        <time>2021-04-11 08:12:06</time>
      </trkpt>
      <trkpt lat="41.47491" lon="1.98479">
        <ele>192.6</ele>
        <time>2021-04-11 08:12:07</time>
      </trkpt>
      <trkpt lat="41.47496" lon="1.98478">
        <ele>192.8</ele>
        <time>2021-04-11 08:12:08</time>
      </trkpt>
      <trkpt lat="41.47502" lon="1.98478">
        <ele>192.8</ele>
        <time>2021-04-11 08:12:09</time>
      </trkpt>
      <trkpt lat="41.47508" lon="1.98477">
        <ele>193</ele>
        <time>2021-04-11 08:12:10</time>
      </trkpt>
      <trkpt lat="41.47513" lon="1.98476">
        <ele>193</ele>
        <time>2021-04-11 08:12:11</time>
      </trkpt>
      <trkpt lat="41.47519" lon="1.98475">
        <ele>193</ele>
        <time>2021-04-11 08:12:12</time>
      </trkpt>
      <trkpt lat="41.47524" lon="1.98474">
        <ele>193.2</ele>
        <time>2021-04-11 08:12:13</time>
      </trkpt>
      <trkpt lat="41.4753" lon="1.98473">
        <ele>193.4</ele>
        <time>2021-04-11 08:12:14</time>
      </trkpt>
      <trkpt lat="41.47535" lon="1.98473">
        <ele>193.4</ele>
        <time>2021-04-11 08:12:15</time>
      </trkpt>
      <trkpt lat="41.47541" lon="1.98472">
        <ele>193.6</ele>
        <time>2021-04-11 08:12:16</time>
      </trkpt>
      <trkpt lat="41.47546" lon="1.98471">
        <ele>193.8</ele>
        <time>2021-04-11 08:12:17</time>
      </trkpt>
      <trkpt lat="41.47552" lon="1.9847">
        <ele>193.8</ele>
        <time>2021-04-11 08:12:18</time>
      </trkpt>
      <trkpt lat="41.47557" lon="1.98469">
        <ele>194</ele>
        <time>2021-04-11 08:12:19</time>
      </trkpt>
      <trkpt lat="41.47562" lon="1.98468">
        <ele>194.2</ele>
        <time>2021-04-11 08:12:20</time>
      </trkpt>
      <trkpt lat="41.47568" lon="1.98468">
        <ele>194.2</ele>
        <time>2021-04-11 08:12:21</time>
      </trkpt>
      <trkpt lat="41.47573" lon="1.98467">
        <ele>194.6</ele>
        <time>2021-04-11 08:12:22</time>
      </trkpt>
      <trkpt lat="41.47578" lon="1.98466">
        <ele>194.8</ele>
        <time>2021-04-11 08:12:23</time>
      </trkpt>
      <trkpt lat="41.47583" lon="1.98465">
        <ele>194.8</ele>
        <time>2021-04-11 08:12:24</time>
      </trkpt>
      <trkpt lat="41.47589" lon="1.98465">
        <ele>195</ele>
        <time>2021-04-11 08:12:25</time>
      </trkpt>
      <trkpt lat="41.47594" lon="1.98464">
        <ele>195.2</ele>
        <time>2021-04-11 08:12:26</time>
      </trkpt>
      <trkpt lat="41.47599" lon="1.98463">
        <ele>195.4</ele>
        <time>2021-04-11 08:12:27</time>
      </trkpt>
      <trkpt lat="41.47603" lon="1.98462">
        <ele>195.8</ele>
        <time>2021-04-11 08:12:28</time>
      </trkpt>
      <trkpt lat="41.47609" lon="1.98462">
        <ele>196</ele>
        <time>2021-04-11 08:12:29</time>
      </trkpt>
      <trkpt lat="41.47613" lon="1.98461">
        <ele>196.2</ele>
        <time>2021-04-11 08:12:30</time>
      </trkpt>
      <trkpt lat="41.47618" lon="1.98461">
        <ele>196.4</ele>
        <time>2021-04-11 08:12:31</time>
      </trkpt>
      <trkpt lat="41.47622" lon="1.9846">
        <ele>196.6</ele>
        <time>2021-04-11 08:12:32</time>
      </trkpt>
      <trkpt lat="41.47627" lon="1.9846">
        <ele>196.8</ele>
        <time>2021-04-11 08:12:33</time>
      </trkpt>
      <trkpt lat="41.47631" lon="1.98459">
        <ele>197.2</ele>
        <time>2021-04-11 08:12:34</time>
      </trkpt>
      <trkpt lat="41.47636" lon="1.98459">
        <ele>197.4</ele>
        <time>2021-04-11 08:12:35</time>
      </trkpt>
      <trkpt lat="41.47641" lon="1.98458">
        <ele>197.6</ele>
        <time>2021-04-11 08:12:36</time>
      </trkpt>
      <trkpt lat="41.47646" lon="1.98458">
        <ele>197.8</ele>
        <time>2021-04-11 08:12:37</time>
      </trkpt>
      <trkpt lat="41.4765" lon="1.98458">
        <ele>198</ele>
        <time>2021-04-11 08:12:38</time>
      </trkpt>
      <trkpt lat="41.47655" lon="1.98457">
        <ele>198.2</ele>
        <time>2021-04-11 08:12:39</time>
      </trkpt>
      <trkpt lat="41.47659" lon="1.98457">
        <ele>198.4</ele>
        <time>2021-04-11 08:12:40</time>
      </trkpt>
      <trkpt lat="41.47664" lon="1.98456">
        <ele>198.6</ele>
        <time>2021-04-11 08:12:41</time>
      </trkpt>
      <trkpt lat="41.47669" lon="1.98456">
        <ele>199</ele>
        <time>2021-04-11 08:12:42</time>
      </trkpt>
      <trkpt lat="41.47673" lon="1.98455">
        <ele>199.2</ele>
        <time>2021-04-11 08:12:43</time>
      </trkpt>
      <trkpt lat="41.47678" lon="1.98455">
        <ele>199.4</ele>
        <time>2021-04-11 08:12:44</time>
      </trkpt>
      <trkpt lat="41.47683" lon="1.98455">
        <ele>199.6</ele>
        <time>2021-04-11 08:12:45</time>
      </trkpt>
      <trkpt lat="41.47687" lon="1.98454">
        <ele>199.8</ele>
        <time>2021-04-11 08:12:46</time>
      </trkpt>
      <trkpt lat="41.47691" lon="1.98453">
        <ele>200</ele>
        <time>2021-04-11 08:12:47</time>
      </trkpt>
      <trkpt lat="41.47695" lon="1.98453">
        <ele>200.4</ele>
        <time>2021-04-11 08:12:48</time>
      </trkpt>
      <trkpt lat="41.477" lon="1.98452">
        <ele>200.6</ele>
        <time>2021-04-11 08:12:49</time>
      </trkpt>
      <trkpt lat="41.47703" lon="1.98452">
        <ele>200.8</ele>
        <time>2021-04-11 08:12:50</time>
      </trkpt>
      <trkpt lat="41.47708" lon="1.98451">
        <ele>201</ele>
        <time>2021-04-11 08:12:51</time>
      </trkpt>
      <trkpt lat="41.47712" lon="1.9845">
        <ele>201.2</ele>
        <time>2021-04-11 08:12:52</time>
      </trkpt>
      <trkpt lat="41.47716" lon="1.9845">
        <ele>201.6</ele>
        <time>2021-04-11 08:12:53</time>
      </trkpt>
      <trkpt lat="41.47721" lon="1.9845">
        <ele>201.8</ele>
        <time>2021-04-11 08:12:54</time>
      </trkpt>
      <trkpt lat="41.47725" lon="1.98449">
        <ele>202</ele>
        <time>2021-04-11 08:12:55</time>
      </trkpt>
      <trkpt lat="41.47729" lon="1.98449">
        <ele>202.2</ele>
        <time>2021-04-11 08:12:56</time>
      </trkpt>
      <trkpt lat="41.47734" lon="1.98448">
        <ele>202.4</ele>
        <time>2021-04-11 08:12:57</time>
      </trkpt>
      <trkpt lat="41.47737" lon="1.98448">
        <ele>202.6</ele>
        <time>2021-04-11 08:12:58</time>
      </trkpt>
      <trkpt lat="41.47742" lon="1.98447">
        <ele>203</ele>
        <time>2021-04-11 08:12:59</time>
      </trkpt>
      <trkpt lat="41.47746" lon="1.98446">
        <ele>203.2</ele>
        <time>2021-04-11 08:13:00</time>
      </trkpt>
      <trkpt lat="41.4775" lon="1.98445">
        <ele>203.4</ele>
        <time>2021-04-11 08:13:01</time>
      </trkpt>
      <trkpt lat="41.47754" lon="1.98445">
        <ele>203.6</ele>
        <time>2021-04-11 08:13:02</time>
      </trkpt>
      <trkpt lat="41.47758" lon="1.98444">
        <ele>204</ele>
        <time>2021-04-11 08:13:03</time>
      </trkpt>
      <trkpt lat="41.47762" lon="1.98444">
        <ele>204.2</ele>
        <time>2021-04-11 08:13:04</time>
      </trkpt>
      <trkpt lat="41.47766" lon="1.98443">
        <ele>204.4</ele>
        <time>2021-04-11 08:13:05</time>
      </trkpt>
      <trkpt lat="41.4777" lon="1.98443">
        <ele>204.6</ele>
        <time>2021-04-11 08:13:06</time>
      </trkpt>
      <trkpt lat="41.47774" lon="1.98442">
        <ele>204.8</ele>
        <time>2021-04-11 08:13:07</time>
      </trkpt>
      <trkpt lat="41.47778" lon="1.98442">
        <ele>205.2</ele>
        <time>2021-04-11 08:13:08</time>
      </trkpt>
      <trkpt lat="41.47782" lon="1.98441">
        <ele>205.4</ele>
        <time>2021-04-11 08:13:09</time>
      </trkpt>
      <trkpt lat="41.47786" lon="1.98441">
        <ele>205.6</ele>
        <time>2021-04-11 08:13:10</time>
      </trkpt>
      <trkpt lat="41.47791" lon="1.9844">
        <ele>206</ele>
        <time>2021-04-11 08:13:11</time>
      </trkpt>
      <trkpt lat="41.47795" lon="1.9844">
        <ele>206.2</ele>
        <time>2021-04-11 08:13:12</time>
      </trkpt>
      <trkpt lat="41.47798" lon="1.9844">
        <ele>206.4</ele>
        <time>2021-04-11 08:13:13</time>
      </trkpt>
      <trkpt lat="41.47803" lon="1.98439">
        <ele>206.6</ele>
        <time>2021-04-11 08:13:14</time>
      </trkpt>
      <trkpt lat="41.47806" lon="1.98439">
        <ele>206.8</ele>
        <time>2021-04-11 08:13:15</time>
      </trkpt>
      <trkpt lat="41.4781" lon="1.98439">
        <ele>207</ele>
        <time>2021-04-11 08:13:16</time>
      </trkpt>
      <trkpt lat="41.47814" lon="1.98439">
        <ele>207.2</ele>
        <time>2021-04-11 08:13:17</time>
      </trkpt>
      <trkpt lat="41.47818" lon="1.98439">
        <ele>207.6</ele>
        <time>2021-04-11 08:13:18</time>
      </trkpt>
      <trkpt lat="41.47822" lon="1.98438">
        <ele>207.8</ele>
        <time>2021-04-11 08:13:19</time>
      </trkpt>
      <trkpt lat="41.47826" lon="1.98438">
        <ele>208</ele>
        <time>2021-04-11 08:13:20</time>
      </trkpt>
      <trkpt lat="41.4783" lon="1.98438">
        <ele>208.2</ele>
        <time>2021-04-11 08:13:21</time>
      </trkpt>
      <trkpt lat="41.47834" lon="1.98438">
        <ele>208.6</ele>
        <time>2021-04-11 08:13:22</time>
      </trkpt>
      <trkpt lat="41.47838" lon="1.98438">
        <ele>208.8</ele>
        <time>2021-04-11 08:13:23</time>
      </trkpt>
      <trkpt lat="41.47842" lon="1.98438">
        <ele>209</ele>
        <time>2021-04-11 08:13:24</time>
      </trkpt>
      <trkpt lat="41.47846" lon="1.98438">
        <ele>209.2</ele>
        <time>2021-04-11 08:13:25</time>
      </trkpt>
      <trkpt lat="41.47849" lon="1.98438">
        <ele>209.4</ele>
        <time>2021-04-11 08:13:26</time>
      </trkpt>
      <trkpt lat="41.47853" lon="1.98438">
        <ele>209.8</ele>
        <time>2021-04-11 08:13:27</time>
      </trkpt>
      <trkpt lat="41.47857" lon="1.98438">
        <ele>210</ele>
        <time>2021-04-11 08:13:28</time>
      </trkpt>
      <trkpt lat="41.47861" lon="1.98438">
        <ele>210.2</ele>
        <time>2021-04-11 08:13:29</time>
      </trkpt>
      <trkpt lat="41.47865" lon="1.98438">
        <ele>210.4</ele>
        <time>2021-04-11 08:13:30</time>
      </trkpt>
      <trkpt lat="41.47869" lon="1.98437">
        <ele>210.6</ele>
        <time>2021-04-11 08:13:31</time>
      </trkpt>
      <trkpt lat="41.47873" lon="1.98437">
        <ele>210.8</ele>
        <time>2021-04-11 08:13:32</time>
      </trkpt>
      <trkpt lat="41.47877" lon="1.98437">
        <ele>211</ele>
        <time>2021-04-11 08:13:33</time>
      </trkpt>
      <trkpt lat="41.47882" lon="1.98437">
        <ele>211.2</ele>
        <time>2021-04-11 08:13:34</time>
      </trkpt>
      <trkpt lat="41.47885" lon="1.98437">
        <ele>211.4</ele>
        <time>2021-04-11 08:13:35</time>
      </trkpt>
      <trkpt lat="41.4789" lon="1.98436">
        <ele>211.6</ele>
        <time>2021-04-11 08:13:36</time>
      </trkpt>
      <trkpt lat="41.47893" lon="1.98436">
        <ele>211.8</ele>
        <time>2021-04-11 08:13:37</time>
      </trkpt>
      <trkpt lat="41.47897" lon="1.98436">
        <ele>212.2</ele>
        <time>2021-04-11 08:13:38</time>
      </trkpt>
      <trkpt lat="41.47901" lon="1.98436">
        <ele>212.4</ele>
        <time>2021-04-11 08:13:39</time>
      </trkpt>
      <trkpt lat="41.47905" lon="1.98435">
        <ele>212.6</ele>
        <time>2021-04-11 08:13:40</time>
      </trkpt>
      <trkpt lat="41.47909" lon="1.98435">
        <ele>212.8</ele>
        <time>2021-04-11 08:13:41</time>
      </trkpt>
      <trkpt lat="41.47913" lon="1.98434">
        <ele>213</ele>
        <time>2021-04-11 08:13:42</time>
      </trkpt>
      <trkpt lat="41.47916" lon="1.98434">
        <ele>213.2</ele>
        <time>2021-04-11 08:13:43</time>
      </trkpt>
      <trkpt lat="41.4792" lon="1.98433">
        <ele>213.4</ele>
        <time>2021-04-11 08:13:44</time>
      </trkpt>
      <trkpt lat="41.47924" lon="1.98432">
        <ele>213.6</ele>
        <time>2021-04-11 08:13:45</time>
      </trkpt>
      <trkpt lat="41.47928" lon="1.98431">
        <ele>213.8</ele>
        <time>2021-04-11 08:13:46</time>
      </trkpt>
      <trkpt lat="41.47932" lon="1.98429">
        <ele>214</ele>
        <time>2021-04-11 08:13:47</time>
      </trkpt>
      <trkpt lat="41.47935" lon="1.98428">
        <ele>214.2</ele>
        <time>2021-04-11 08:13:48</time>
      </trkpt>
      <trkpt lat="41.47939" lon="1.98427">
        <ele>214.6</ele>
        <time>2021-04-11 08:13:49</time>
      </trkpt>
      <trkpt lat="41.47943" lon="1.98426">
        <ele>214.8</ele>
        <time>2021-04-11 08:13:50</time>
      </trkpt>
      <trkpt lat="41.47947" lon="1.98424">
        <ele>215</ele>
        <time>2021-04-11 08:13:51</time>
      </trkpt>
      <trkpt lat="41.47951" lon="1.98423">
        <ele>215.2</ele>
        <time>2021-04-11 08:13:52</time>
      </trkpt>
      <trkpt lat="41.47955" lon="1.98422">
        <ele>215.4</ele>
        <time>2021-04-11 08:13:53</time>
      </trkpt>
      <trkpt lat="41.47958" lon="1.98421">
        <ele>215.6</ele>
        <time>2021-04-11 08:13:54</time>
      </trkpt>
      <trkpt lat="41.47962" lon="1.98419">
        <ele>215.8</ele>
        <time>2021-04-11 08:13:55</time>
      </trkpt>
      <trkpt lat="41.47966" lon="1.98418">
        <ele>216</ele>
        <time>2021-04-11 08:13:56</time>
      </trkpt>
      <trkpt lat="41.47969" lon="1.98416">
        <ele>216.2</ele>
        <time>2021-04-11 08:13:57</time>
      </trkpt>
      <trkpt lat="41.47973" lon="1.98415">
        <ele>216.4</ele>
        <time>2021-04-11 08:13:58</time>
      </trkpt>
      <trkpt lat="41.47977" lon="1.98413">
        <ele>216.6</ele>
        <time>2021-04-11 08:13:59</time>
      </trkpt>
      <trkpt lat="41.47981" lon="1.98412">
        <ele>216.8</ele>
        <time>2021-04-11 08:14:00</time>
      </trkpt>
      <trkpt lat="41.47984" lon="1.9841">
        <ele>217.2</ele>
        <time>2021-04-11 08:14:01</time>
      </trkpt>
      <trkpt lat="41.47988" lon="1.98408">
        <ele>217.4</ele>
        <time>2021-04-11 08:14:02</time>
      </trkpt>
      <trkpt lat="41.47991" lon="1.98406">
        <ele>217.6</ele>
        <time>2021-04-11 08:14:03</time>
      </trkpt>
      <trkpt lat="41.47995" lon="1.98404">
        <ele>217.8</ele>
        <time>2021-04-11 08:14:04</time>
      </trkpt>
      <trkpt lat="41.47999" lon="1.98402">
        <ele>218</ele>
        <time>2021-04-11 08:14:05</time>
      </trkpt>
      <trkpt lat="41.48003" lon="1.98401">
        <ele>218.2</ele>
        <time>2021-04-11 08:14:06</time>
      </trkpt>
      <trkpt lat="41.48006" lon="1.98399">
        <ele>218.4</ele>
        <time>2021-04-11 08:14:07</time>
      </trkpt>
      <trkpt lat="41.4801" lon="1.98397">
        <ele>218.6</ele>
        <time>2021-04-11 08:14:08</time>
      </trkpt>
      <trkpt lat="41.48013" lon="1.98395">
        <ele>218.8</ele>
        <time>2021-04-11 08:14:09</time>
      </trkpt>
      <trkpt lat="41.48016" lon="1.98393">
        <ele>219</ele>
        <time>2021-04-11 08:14:10</time>
      </trkpt>
      <trkpt lat="41.4802" lon="1.98391">
        <ele>219.2</ele>
        <time>2021-04-11 08:14:11</time>
      </trkpt>
      <trkpt lat="41.48023" lon="1.98389">
        <ele>219.4</ele>
        <time>2021-04-11 08:14:12</time>
      </trkpt>
      <trkpt lat="41.48027" lon="1.98387">
        <ele>219.6</ele>
        <time>2021-04-11 08:14:13</time>
      </trkpt>
      <trkpt lat="41.48031" lon="1.98385">
        <ele>220</ele>
        <time>2021-04-11 08:14:14</time>
      </trkpt>
      <trkpt lat="41.48034" lon="1.98383">
        <ele>220.2</ele>
        <time>2021-04-11 08:14:15</time>
      </trkpt>
      <trkpt lat="41.48038" lon="1.98381">
        <ele>220.4</ele>
        <time>2021-04-11 08:14:16</time>
      </trkpt>
      <trkpt lat="41.48041" lon="1.98379">
        <ele>220.6</ele>
        <time>2021-04-11 08:14:17</time>
      </trkpt>
      <trkpt lat="41.48044" lon="1.98377">
        <ele>220.8</ele>
        <time>2021-04-11 08:14:18</time>
      </trkpt>
      <trkpt lat="41.48047" lon="1.98375">
        <ele>221</ele>
        <time>2021-04-11 08:14:19</time>
      </trkpt>
      <trkpt lat="41.48051" lon="1.98374">
        <ele>221.2</ele>
        <time>2021-04-11 08:14:20</time>
      </trkpt>
      <trkpt lat="41.48054" lon="1.98372">
        <ele>221.4</ele>
        <time>2021-04-11 08:14:21</time>
      </trkpt>
      <trkpt lat="41.48057" lon="1.9837">
        <ele>221.6</ele>
        <time>2021-04-11 08:14:22</time>
      </trkpt>
      <trkpt lat="41.4806" lon="1.98368">
        <ele>221.8</ele>
        <time>2021-04-11 08:14:23</time>
      </trkpt>
      <trkpt lat="41.48064" lon="1.98367">
        <ele>222.2</ele>
        <time>2021-04-11 08:14:24</time>
      </trkpt>
      <trkpt lat="41.48067" lon="1.98365">
        <ele>222.4</ele>
        <time>2021-04-11 08:14:25</time>
      </trkpt>
      <trkpt lat="41.4807" lon="1.98363">
        <ele>222.6</ele>
        <time>2021-04-11 08:14:26</time>
      </trkpt>
      <trkpt lat="41.48073" lon="1.98362">
        <ele>222.8</ele>
        <time>2021-04-11 08:14:27</time>
      </trkpt>
      <trkpt lat="41.48076" lon="1.9836">
        <ele>223</ele>
        <time>2021-04-11 08:14:28</time>
      </trkpt>
      <trkpt lat="41.48079" lon="1.98358">
        <ele>223.2</ele>
        <time>2021-04-11 08:14:29</time>
      </trkpt>
      <trkpt lat="41.48083" lon="1.98356">
        <ele>223.4</ele>
        <time>2021-04-11 08:14:30</time>
      </trkpt>
      <trkpt lat="41.48086" lon="1.98354">
        <ele>223.6</ele>
        <time>2021-04-11 08:14:31</time>
      </trkpt>
      <trkpt lat="41.48089" lon="1.98353">
        <ele>224</ele>
        <time>2021-04-11 08:14:32</time>
      </trkpt>
      <trkpt lat="41.48092" lon="1.98351">
        <ele>224.2</ele>
        <time>2021-04-11 08:14:33</time>
      </trkpt>
      <trkpt lat="41.48095" lon="1.98349">
        <ele>224.4</ele>
        <time>2021-04-11 08:14:34</time>
      </trkpt>
      <trkpt lat="41.48098" lon="1.98347">
        <ele>224.6</ele>
        <time>2021-04-11 08:14:35</time>
      </trkpt>
      <trkpt lat="41.48101" lon="1.98345">
        <ele>224.8</ele>
        <time>2021-04-11 08:14:36</time>
      </trkpt>
      <trkpt lat="41.48105" lon="1.98343">
        <ele>225</ele>
        <time>2021-04-11 08:14:37</time>
      </trkpt>
      <trkpt lat="41.48108" lon="1.98341">
        <ele>225.4</ele>
        <time>2021-04-11 08:14:38</time>
      </trkpt>
      <trkpt lat="41.48111" lon="1.98339">
        <ele>225.6</ele>
        <time>2021-04-11 08:14:39</time>
      </trkpt>
      <trkpt lat="41.48114" lon="1.98337">
        <ele>225.8</ele>
        <time>2021-04-11 08:14:40</time>
      </trkpt>
      <trkpt lat="41.48117" lon="1.98335">
        <ele>226</ele>
        <time>2021-04-11 08:14:41</time>
      </trkpt>
      <trkpt lat="41.4812" lon="1.98334">
        <ele>226.2</ele>
        <time>2021-04-11 08:14:42</time>
      </trkpt>
      <trkpt lat="41.48123" lon="1.98332">
        <ele>226.6</ele>
        <time>2021-04-11 08:14:43</time>
      </trkpt>
      <trkpt lat="41.48127" lon="1.9833">
        <ele>226.8</ele>
        <time>2021-04-11 08:14:44</time>
      </trkpt>
      <trkpt lat="41.4813" lon="1.98328">
        <ele>227</ele>
        <time>2021-04-11 08:14:45</time>
      </trkpt>
      <trkpt lat="41.48133" lon="1.98326">
        <ele>227.4</ele>
        <time>2021-04-11 08:14:46</time>
      </trkpt>
      <trkpt lat="41.48136" lon="1.98324">
        <ele>227.6</ele>
        <time>2021-04-11 08:14:47</time>
      </trkpt>
      <trkpt lat="41.48139" lon="1.98322">
        <ele>227.8</ele>
        <time>2021-04-11 08:14:48</time>
      </trkpt>
      <trkpt lat="41.48142" lon="1.9832">
        <ele>228.2</ele>
        <time>2021-04-11 08:14:49</time>
      </trkpt>
      <trkpt lat="41.48146" lon="1.98319">
        <ele>228.4</ele>
        <time>2021-04-11 08:14:50</time>
      </trkpt>
      <trkpt lat="41.48149" lon="1.98317">
        <ele>228.6</ele>
        <time>2021-04-11 08:14:51</time>
      </trkpt>
      <trkpt lat="41.48152" lon="1.98315">
        <ele>228.8</ele>
        <time>2021-04-11 08:14:52</time>
      </trkpt>
      <trkpt lat="41.48155" lon="1.98314">
        <ele>229.2</ele>
        <time>2021-04-11 08:14:53</time>
      </trkpt>
      <trkpt lat="41.48158" lon="1.98312">
        <ele>229.4</ele>
        <time>2021-04-11 08:14:54</time>
      </trkpt>
      <trkpt lat="41.48161" lon="1.98311">
        <ele>229.6</ele>
        <time>2021-04-11 08:14:55</time>
      </trkpt>
      <trkpt lat="41.48165" lon="1.98311">
        <ele>229.8</ele>
        <time>2021-04-11 08:14:56</time>
      </trkpt>
      <trkpt lat="41.48168" lon="1.98312">
        <ele>230</ele>
        <time>2021-04-11 08:14:57</time>
      </trkpt>
      <trkpt lat="41.48171" lon="1.98313">
        <ele>230.2</ele>
        <time>2021-04-11 08:14:58</time>
      </trkpt>
      <trkpt lat="41.48175" lon="1.98314">
        <ele>230.4</ele>
        <time>2021-04-11 08:14:59</time>
      </trkpt>
      <trkpt lat="41.48178" lon="1.98316">
        <ele>230.6</ele>
        <time>2021-04-11 08:15:00</time>
      </trkpt>
      <trkpt lat="41.48181" lon="1.98316">
        <ele>230.8</ele>
        <time>2021-04-11 08:15:01</time>
      </trkpt>
      <trkpt lat="41.48185" lon="1.98316">
        <ele>231</ele>
        <time>2021-04-11 08:15:02</time>
      </trkpt>
      <trkpt lat="41.48188" lon="1.98316">
        <ele>231</ele>
        <time>2021-04-11 08:15:03</time>
      </trkpt>
      <trkpt lat="41.48191" lon="1.98315">
        <ele>231.2</ele>
        <time>2021-04-11 08:15:04</time>
      </trkpt>
      <trkpt lat="41.48194" lon="1.98314">
        <ele>231.4</ele>
        <time>2021-04-11 08:15:05</time>
      </trkpt>
      <trkpt lat="41.48197" lon="1.98312">
        <ele>231.6</ele>
        <time>2021-04-11 08:15:06</time>
      </trkpt>
      <trkpt lat="41.482" lon="1.98311">
        <ele>231.6</ele>
        <time>2021-04-11 08:15:07</time>
      </trkpt>
      <trkpt lat="41.48203" lon="1.98309">
        <ele>231.6</ele>
        <time>2021-04-11 08:15:08</time>
      </trkpt>
      <trkpt lat="41.48206" lon="1.98307">
        <ele>231.6</ele>
        <time>2021-04-11 08:15:09</time>
      </trkpt>
      <trkpt lat="41.48209" lon="1.98305">
        <ele>231.6</ele>
        <time>2021-04-11 08:15:10</time>
      </trkpt>
      <trkpt lat="41.48212" lon="1.98304">
        <ele>231.6</ele>
        <time>2021-04-11 08:15:11</time>
      </trkpt>
      <trkpt lat="41.48216" lon="1.98303">
        <ele>231.6</ele>
        <time>2021-04-11 08:15:12</time>
      </trkpt>
      <trkpt lat="41.4822" lon="1.98303">
        <ele>231.4</ele>
        <time>2021-04-11 08:15:13</time>
      </trkpt>
      <trkpt lat="41.48224" lon="1.98303">
        <ele>231.4</ele>
        <time>2021-04-11 08:15:14</time>
      </trkpt>
      <trkpt lat="41.48229" lon="1.98304">
        <ele>231.2</ele>
        <time>2021-04-11 08:15:15</time>
      </trkpt>
      <trkpt lat="41.48233" lon="1.98305">
        <ele>231</ele>
        <time>2021-04-11 08:15:16</time>
      </trkpt>
      <trkpt lat="41.48237" lon="1.98306">
        <ele>230.8</ele>
        <time>2021-04-11 08:15:17</time>
      </trkpt>
      <trkpt lat="41.4824" lon="1.98306">
        <ele>230.6</ele>
        <time>2021-04-11 08:15:18</time>
      </trkpt>
      <trkpt lat="41.48244" lon="1.98307">
        <ele>230.6</ele>
        <time>2021-04-11 08:15:19</time>
      </trkpt>
      <trkpt lat="41.48248" lon="1.98308">
        <ele>230.4</ele>
        <time>2021-04-11 08:15:20</time>
      </trkpt>
      <trkpt lat="41.48251" lon="1.98308">
        <ele>230.4</ele>
        <time>2021-04-11 08:15:21</time>
      </trkpt>
      <trkpt lat="41.48254" lon="1.98308">
        <ele>230.2</ele>
        <time>2021-04-11 08:15:22</time>
      </trkpt>
      <trkpt lat="41.48257" lon="1.98309">
        <ele>230</ele>
        <time>2021-04-11 08:15:23</time>
      </trkpt>
      <trkpt lat="41.48261" lon="1.98309">
        <ele>230</ele>
        <time>2021-04-11 08:15:24</time>
      </trkpt>
      <trkpt lat="41.48263" lon="1.9831">
        <ele>229.8</ele>
        <time>2021-04-11 08:15:25</time>
      </trkpt>
      <trkpt lat="41.48266" lon="1.9831">
        <ele>229.6</ele>
        <time>2021-04-11 08:15:26</time>
      </trkpt>
      <trkpt lat="41.48269" lon="1.98311">
        <ele>229.6</ele>
        <time>2021-04-11 08:15:27</time>
      </trkpt>
      <trkpt lat="41.48272" lon="1.98312">
        <ele>229.4</ele>
        <time>2021-04-11 08:15:28</time>
      </trkpt>
      <trkpt lat="41.48275" lon="1.98313">
        <ele>229.2</ele>
        <time>2021-04-11 08:15:29</time>
      </trkpt>
      <trkpt lat="41.48279" lon="1.98313">
        <ele>229</ele>
        <time>2021-04-11 08:15:30</time>
      </trkpt>
      <trkpt lat="41.48282" lon="1.98314">
        <ele>229</ele>
        <time>2021-04-11 08:15:31</time>
      </trkpt>
      <trkpt lat="41.48286" lon="1.98315">
        <ele>228.8</ele>
        <time>2021-04-11 08:15:32</time>
      </trkpt>
      <trkpt lat="41.4829" lon="1.98316">
        <ele>228.6</ele>
        <time>2021-04-11 08:15:33</time>
      </trkpt>
      <trkpt lat="41.48294" lon="1.98317">
        <ele>228.4</ele>
        <time>2021-04-11 08:15:34</time>
      </trkpt>
      <trkpt lat="41.48298" lon="1.98318">
        <ele>228.2</ele>
        <time>2021-04-11 08:15:35</time>
      </trkpt>
      <trkpt lat="41.48302" lon="1.98319">
        <ele>228</ele>
        <time>2021-04-11 08:15:36</time>
      </trkpt>
      <trkpt lat="41.48307" lon="1.9832">
        <ele>227.8</ele>
        <time>2021-04-11 08:15:37</time>
      </trkpt>
      <trkpt lat="41.48311" lon="1.98321">
        <ele>227.6</ele>
        <time>2021-04-11 08:15:38</time>
      </trkpt>
      <trkpt lat="41.48317" lon="1.98322">
        <ele>227.4</ele>
        <time>2021-04-11 08:15:39</time>
      </trkpt>
      <trkpt lat="41.48322" lon="1.98323">
        <ele>227</ele>
        <time>2021-04-11 08:15:40</time>
      </trkpt>
      <trkpt lat="41.48327" lon="1.98325">
        <ele>226.8</ele>
        <time>2021-04-11 08:15:41</time>
      </trkpt>
      <trkpt lat="41.48333" lon="1.98327">
        <ele>226.4</ele>
        <time>2021-04-11 08:15:42</time>
      </trkpt>
      <trkpt lat="41.48338" lon="1.98329">
        <ele>226.2</ele>
        <time>2021-04-11 08:15:43</time>
      </trkpt>
      <trkpt lat="41.48344" lon="1.98331">
        <ele>226</ele>
        <time>2021-04-11 08:15:44</time>
      </trkpt>
      <trkpt lat="41.4835" lon="1.98334">
        <ele>225.6</ele>
        <time>2021-04-11 08:15:45</time>
      </trkpt>
      <trkpt lat="41.48355" lon="1.98339">
        <ele>225.4</ele>
        <time>2021-04-11 08:15:46</time>
      </trkpt>
      <trkpt lat="41.4836" lon="1.98344">
        <ele>225.2</ele>
        <time>2021-04-11 08:15:47</time>
      </trkpt>
      <trkpt lat="41.48364" lon="1.98349">
        <ele>224.8</ele>
        <time>2021-04-11 08:15:48</time>
      </trkpt>
      <trkpt lat="41.48369" lon="1.98355">
        <ele>224.6</ele>
        <time>2021-04-11 08:15:49</time>
      </trkpt>
      <trkpt lat="41.48373" lon="1.9836">
        <ele>224.4</ele>
        <time>2021-04-11 08:15:50</time>
      </trkpt>
      <trkpt lat="41.48378" lon="1.98366">
        <ele>224.2</ele>
        <time>2021-04-11 08:15:51</time>
      </trkpt>
      <trkpt lat="41.48382" lon="1.98372">
        <ele>224</ele>
        <time>2021-04-11 08:15:52</time>
      </trkpt>
      <trkpt lat="41.48386" lon="1.98377">
        <ele>223.8</ele>
        <time>2021-04-11 08:15:53</time>
      </trkpt>
      <trkpt lat="41.4839" lon="1.98383">
        <ele>223.6</ele>
        <time>2021-04-11 08:15:54</time>
      </trkpt>
      <trkpt lat="41.48395" lon="1.98388">
        <ele>223.6</ele>
        <time>2021-04-11 08:15:55</time>
      </trkpt>
      <trkpt lat="41.484" lon="1.98393">
        <ele>223.4</ele>
        <time>2021-04-11 08:15:56</time>
      </trkpt>
      <trkpt lat="41.48405" lon="1.98397">
        <ele>223.4</ele>
        <time>2021-04-11 08:15:57</time>
      </trkpt>
      <trkpt lat="41.4841" lon="1.98401">
        <ele>223.2</ele>
        <time>2021-04-11 08:15:58</time>
      </trkpt>
      <trkpt lat="41.48415" lon="1.98404">
        <ele>223.2</ele>
        <time>2021-04-11 08:15:59</time>
      </trkpt>
      <trkpt lat="41.4842" lon="1.98407">
        <ele>223</ele>
        <time>2021-04-11 08:16:00</time>
      </trkpt>
      <trkpt lat="41.48425" lon="1.98409">
        <ele>223</ele>
        <time>2021-04-11 08:16:01</time>
      </trkpt>
      <trkpt lat="41.48431" lon="1.98412">
        <ele>223</ele>
        <time>2021-04-11 08:16:02</time>
      </trkpt>
      <trkpt lat="41.48437" lon="1.98414">
        <ele>222.8</ele>
        <time>2021-04-11 08:16:03</time>
      </trkpt>
      <trkpt lat="41.48443" lon="1.98416">
        <ele>222.8</ele>
        <time>2021-04-11 08:16:04</time>
      </trkpt>
      <trkpt lat="41.48449" lon="1.98419">
        <ele>222.6</ele>
        <time>2021-04-11 08:16:05</time>
      </trkpt>
      <trkpt lat="41.48455" lon="1.98421">
        <ele>222.6</ele>
        <time>2021-04-11 08:16:06</time>
      </trkpt>
      <trkpt lat="41.48461" lon="1.98423">
        <ele>222.4</ele>
        <time>2021-04-11 08:16:07</time>
      </trkpt>
      <trkpt lat="41.48467" lon="1.98425">
        <ele>222.4</ele>
        <time>2021-04-11 08:16:08</time>
      </trkpt>
      <trkpt lat="41.48473" lon="1.98427">
        <ele>222.2</ele>
        <time>2021-04-11 08:16:09</time>
      </trkpt>
      <trkpt lat="41.48479" lon="1.98429">
        <ele>222.2</ele>
        <time>2021-04-11 08:16:10</time>
      </trkpt>
      <trkpt lat="41.48485" lon="1.98431">
        <ele>222</ele>
        <time>2021-04-11 08:16:11</time>
      </trkpt>
      <trkpt lat="41.48491" lon="1.98434">
        <ele>222</ele>
        <time>2021-04-11 08:16:12</time>
      </trkpt>
      <trkpt lat="41.48497" lon="1.98436">
        <ele>222</ele>
        <time>2021-04-11 08:16:13</time>
      </trkpt>
      <trkpt lat="41.48503" lon="1.98438">
        <ele>222.2</ele>
        <time>2021-04-11 08:16:14</time>
      </trkpt>
      <trkpt lat="41.48509" lon="1.9844">
        <ele>222.2</ele>
        <time>2021-04-11 08:16:15</time>
      </trkpt>
      <trkpt lat="41.48514" lon="1.98442">
        <ele>222.4</ele>
        <time>2021-04-11 08:16:16</time>
      </trkpt>
      <trkpt lat="41.48519" lon="1.98444">
        <ele>222.6</ele>
        <time>2021-04-11 08:16:17</time>
      </trkpt>
      <trkpt lat="41.48524" lon="1.98445">
        <ele>222.8</ele>
        <time>2021-04-11 08:16:18</time>
      </trkpt>
      <trkpt lat="41.48529" lon="1.98447">
        <ele>223</ele>
        <time>2021-04-11 08:16:19</time>
      </trkpt>
      <trkpt lat="41.48534" lon="1.98449">
        <ele>223.4</ele>
        <time>2021-04-11 08:16:20</time>
      </trkpt>
      <trkpt lat="41.48539" lon="1.98451">
        <ele>223.6</ele>
        <time>2021-04-11 08:16:21</time>
      </trkpt>
      <trkpt lat="41.48543" lon="1.98452">
        <ele>223.8</ele>
        <time>2021-04-11 08:16:22</time>
      </trkpt>
      <trkpt lat="41.48549" lon="1.98454">
        <ele>224</ele>
        <time>2021-04-11 08:16:23</time>
      </trkpt>
      <trkpt lat="41.48553" lon="1.98456">
        <ele>224.4</ele>
        <time>2021-04-11 08:16:24</time>
      </trkpt>
      <trkpt lat="41.48558" lon="1.98457">
        <ele>224.6</ele>
        <time>2021-04-11 08:16:25</time>
      </trkpt>
      <trkpt lat="41.48563" lon="1.98459">
        <ele>224.8</ele>
        <time>2021-04-11 08:16:26</time>
      </trkpt>
      <trkpt lat="41.48567" lon="1.9846">
        <ele>225</ele>
        <time>2021-04-11 08:16:27</time>
      </trkpt>
      <trkpt lat="41.48573" lon="1.98461">
        <ele>225.4</ele>
        <time>2021-04-11 08:16:28</time>
      </trkpt>
      <trkpt lat="41.48578" lon="1.98461">
        <ele>225.6</ele>
        <time>2021-04-11 08:16:29</time>
      </trkpt>
      <trkpt lat="41.48582" lon="1.98461">
        <ele>225.8</ele>
        <time>2021-04-11 08:16:30</time>
      </trkpt>
      <trkpt lat="41.48587" lon="1.9846">
        <ele>225.8</ele>
        <time>2021-04-11 08:16:31</time>
      </trkpt>
      <trkpt lat="41.48591" lon="1.98459">
        <ele>226</ele>
        <time>2021-04-11 08:16:32</time>
      </trkpt>
      <trkpt lat="41.48596" lon="1.98458">
        <ele>226</ele>
        <time>2021-04-11 08:16:33</time>
      </trkpt>
      <trkpt lat="41.48601" lon="1.98455">
        <ele>226.2</ele>
        <time>2021-04-11 08:16:34</time>
      </trkpt>
      <trkpt lat="41.48606" lon="1.98453">
        <ele>226.2</ele>
        <time>2021-04-11 08:16:35</time>
      </trkpt>
      <trkpt lat="41.48611" lon="1.9845">
        <ele>226.2</ele>
        <time>2021-04-11 08:16:36</time>
      </trkpt>
      <trkpt lat="41.48616" lon="1.98447">
        <ele>226.2</ele>
        <time>2021-04-11 08:16:37</time>
      </trkpt>
      <trkpt lat="41.48621" lon="1.98443">
        <ele>226.2</ele>
        <time>2021-04-11 08:16:38</time>
      </trkpt>
      <trkpt lat="41.48626" lon="1.9844">
        <ele>226.2</ele>
        <time>2021-04-11 08:16:39</time>
      </trkpt>
      <trkpt lat="41.48632" lon="1.98437">
        <ele>226.2</ele>
        <time>2021-04-11 08:16:40</time>
      </trkpt>
      <trkpt lat="41.48637" lon="1.98434">
        <ele>226.2</ele>
        <time>2021-04-11 08:16:41</time>
      </trkpt>
      <trkpt lat="41.48642" lon="1.9843">
        <ele>226.2</ele>
        <time>2021-04-11 08:16:42</time>
      </trkpt>
      <trkpt lat="41.48647" lon="1.98427">
        <ele>226.2</ele>
        <time>2021-04-11 08:16:43</time>
      </trkpt>
      <trkpt lat="41.48652" lon="1.98424">
        <ele>226.2</ele>
        <time>2021-04-11 08:16:44</time>
      </trkpt>
      <trkpt lat="41.48658" lon="1.98421">
        <ele>226.2</ele>
        <time>2021-04-11 08:16:45</time>
      </trkpt>
      <trkpt lat="41.48663" lon="1.98417">
        <ele>226.2</ele>
        <time>2021-04-11 08:16:46</time>
      </trkpt>
      <trkpt lat="41.48668" lon="1.98415">
        <ele>226.2</ele>
        <time>2021-04-11 08:16:47</time>
      </trkpt>
      <trkpt lat="41.48674" lon="1.98412">
        <ele>226.2</ele>
        <time>2021-04-11 08:16:48</time>
      </trkpt>
      <trkpt lat="41.4868" lon="1.98411">
        <ele>226.2</ele>
        <time>2021-04-11 08:16:49</time>
      </trkpt>
      <trkpt lat="41.48686" lon="1.9841">
        <ele>226.2</ele>
        <time>2021-04-11 08:16:50</time>
      </trkpt>
      <trkpt lat="41.48692" lon="1.9841">
        <ele>226.4</ele>
        <time>2021-04-11 08:16:51</time>
      </trkpt>
      <trkpt lat="41.48697" lon="1.98411">
        <ele>226.4</ele>
        <time>2021-04-11 08:16:52</time>
      </trkpt>
      <trkpt lat="41.48703" lon="1.98412">
        <ele>226.6</ele>
        <time>2021-04-11 08:16:53</time>
      </trkpt>
      <trkpt lat="41.48709" lon="1.98413">
        <ele>226.8</ele>
        <time>2021-04-11 08:16:54</time>
      </trkpt>
      <trkpt lat="41.48714" lon="1.98414">
        <ele>226.8</ele>
        <time>2021-04-11 08:16:55</time>
      </trkpt>
      <trkpt lat="41.48719" lon="1.98416">
        <ele>227</ele>
        <time>2021-04-11 08:16:56</time>
      </trkpt>
      <trkpt lat="41.48724" lon="1.98417">
        <ele>227.2</ele>
        <time>2021-04-11 08:16:57</time>
      </trkpt>
      <trkpt lat="41.48729" lon="1.98418">
        <ele>227.4</ele>
        <time>2021-04-11 08:16:58</time>
      </trkpt>
      <trkpt lat="41.48735" lon="1.9842">
        <ele>227.6</ele>
        <time>2021-04-11 08:16:59</time>
      </trkpt>
      <trkpt lat="41.4874" lon="1.98421">
        <ele>227.8</ele>
        <time>2021-04-11 08:17:00</time>
      </trkpt>
      <trkpt lat="41.48744" lon="1.98423">
        <ele>228</ele>
        <time>2021-04-11 08:17:01</time>
      </trkpt>
      <trkpt lat="41.48749" lon="1.98425">
        <ele>228.2</ele>
        <time>2021-04-11 08:17:02</time>
      </trkpt>
      <trkpt lat="41.48754" lon="1.98427">
        <ele>228.4</ele>
        <time>2021-04-11 08:17:03</time>
      </trkpt>
      <trkpt lat="41.48759" lon="1.98428">
        <ele>228.8</ele>
        <time>2021-04-11 08:17:04</time>
      </trkpt>
      <trkpt lat="41.48764" lon="1.9843">
        <ele>229</ele>
        <time>2021-04-11 08:17:05</time>
      </trkpt>
      <trkpt lat="41.48768" lon="1.98431">
        <ele>229.2</ele>
        <time>2021-04-11 08:17:06</time>
      </trkpt>
      <trkpt lat="41.48773" lon="1.98432">
        <ele>229.4</ele>
        <time>2021-04-11 08:17:07</time>
      </trkpt>
      <trkpt lat="41.48777" lon="1.98433">
        <ele>229.8</ele>
        <time>2021-04-11 08:17:08</time>
      </trkpt>
      <trkpt lat="41.48781" lon="1.98434">
        <ele>230</ele>
        <time>2021-04-11 08:17:09</time>
      </trkpt>
      <trkpt lat="41.48785" lon="1.98434">
        <ele>230.2</ele>
        <time>2021-04-11 08:17:10</time>
      </trkpt>
      <trkpt lat="41.4879" lon="1.98435">
        <ele>230.6</ele>
        <time>2021-04-11 08:17:11</time>
      </trkpt>
      <trkpt lat="41.48794" lon="1.98435">
        <ele>230.8</ele>
        <time>2021-04-11 08:17:12</time>
      </trkpt>
      <trkpt lat="41.48798" lon="1.98435">
        <ele>231</ele>
        <time>2021-04-11 08:17:13</time>
      </trkpt>
      <trkpt lat="41.48802" lon="1.98435">
        <ele>231.2</ele>
        <time>2021-04-11 08:17:14</time>
      </trkpt>
      <trkpt lat="41.48807" lon="1.98435">
        <ele>231.4</ele>
        <time>2021-04-11 08:17:15</time>
      </trkpt>
      <trkpt lat="41.48811" lon="1.98434">
        <ele>231.6</ele>
        <time>2021-04-11 08:17:16</time>
      </trkpt>
      <trkpt lat="41.48815" lon="1.98433">
        <ele>231.8</ele>
        <time>2021-04-11 08:17:17</time>
      </trkpt>
      <trkpt lat="41.4882" lon="1.98432">
        <ele>232</ele>
        <time>2021-04-11 08:17:18</time>
      </trkpt>
      <trkpt lat="41.48825" lon="1.98431">
        <ele>232</ele>
        <time>2021-04-11 08:17:19</time>
      </trkpt>
      <trkpt lat="41.48829" lon="1.98431">
        <ele>232.2</ele>
        <time>2021-04-11 08:17:20</time>
      </trkpt>
      <trkpt lat="41.48833" lon="1.9843">
        <ele>232.4</ele>
        <time>2021-04-11 08:17:21</time>
      </trkpt>
      <trkpt lat="41.48838" lon="1.98429">
        <ele>232.4</ele>
        <time>2021-04-11 08:17:22</time>
      </trkpt>
      <trkpt lat="41.48843" lon="1.98428">
        <ele>232.4</ele>
        <time>2021-04-11 08:17:23</time>
      </trkpt>
      <trkpt lat="41.48847" lon="1.98427">
        <ele>232.4</ele>
        <time>2021-04-11 08:17:24</time>
      </trkpt>
      <trkpt lat="41.48853" lon="1.98426">
        <ele>232.4</ele>
        <time>2021-04-11 08:17:25</time>
      </trkpt>
      <trkpt lat="41.48857" lon="1.98424">
        <ele>232.4</ele>
        <time>2021-04-11 08:17:26</time>
      </trkpt>
      <trkpt lat="41.48862" lon="1.98423">
        <ele>232.4</ele>
        <time>2021-04-11 08:17:27</time>
      </trkpt>
      <trkpt lat="41.48867" lon="1.98422">
        <ele>232.4</ele>
        <time>2021-04-11 08:17:28</time>
      </trkpt>
      <trkpt lat="41.48872" lon="1.98421">
        <ele>232.4</ele>
        <time>2021-04-11 08:17:29</time>
      </trkpt>
      <trkpt lat="41.48878" lon="1.9842">
        <ele>232.4</ele>
        <time>2021-04-11 08:17:30</time>
      </trkpt>
      <trkpt lat="41.48883" lon="1.9842">
        <ele>232.4</ele>
        <time>2021-04-11 08:17:31</time>
      </trkpt>
      <trkpt lat="41.48888" lon="1.98419">
        <ele>232.4</ele>
        <time>2021-04-11 08:17:32</time>
      </trkpt>
      <trkpt lat="41.48894" lon="1.98418">
        <ele>232.4</ele>
        <time>2021-04-11 08:17:33</time>
      </trkpt>
      <trkpt lat="41.48899" lon="1.98417">
        <ele>232.6</ele>
        <time>2021-04-11 08:17:34</time>
      </trkpt>
      <trkpt lat="41.48904" lon="1.98416">
        <ele>232.6</ele>
        <time>2021-04-11 08:17:35</time>
      </trkpt>
      <trkpt lat="41.48909" lon="1.98416">
        <ele>232.6</ele>
        <time>2021-04-11 08:17:36</time>
      </trkpt>
      <trkpt lat="41.48913" lon="1.98415">
        <ele>232.8</ele>
        <time>2021-04-11 08:17:37</time>
      </trkpt>
      <trkpt lat="41.48919" lon="1.98414">
        <ele>233</ele>
        <time>2021-04-11 08:17:38</time>
      </trkpt>
      <trkpt lat="41.48923" lon="1.98414">
        <ele>233</ele>
        <time>2021-04-11 08:17:39</time>
      </trkpt>
      <trkpt lat="41.48928" lon="1.98413">
        <ele>233.2</ele>
        <time>2021-04-11 08:17:40</time>
      </trkpt>
      <trkpt lat="41.48932" lon="1.98413">
        <ele>233.4</ele>
        <time>2021-04-11 08:17:41</time>
      </trkpt>
      <trkpt lat="41.48937" lon="1.98412">
        <ele>233.6</ele>
        <time>2021-04-11 08:17:42</time>
      </trkpt>
      <trkpt lat="41.48941" lon="1.98412">
        <ele>233.8</ele>
        <time>2021-04-11 08:17:43</time>
      </trkpt>
      <trkpt lat="41.48946" lon="1.98411">
        <ele>234</ele>
        <time>2021-04-11 08:17:44</time>
      </trkpt>
      <trkpt lat="41.4895" lon="1.98411">
        <ele>234.2</ele>
        <time>2021-04-11 08:17:45</time>
      </trkpt>
      <trkpt lat="41.48954" lon="1.9841">
        <ele>234.6</ele>
        <time>2021-04-11 08:17:46</time>
      </trkpt>
      <trkpt lat="41.48958" lon="1.9841">
        <ele>234.8</ele>
        <time>2021-04-11 08:17:47</time>
      </trkpt>
      <trkpt lat="41.48962" lon="1.98409">
        <ele>235</ele>
        <time>2021-04-11 08:17:48</time>
      </trkpt>
      <trkpt lat="41.48966" lon="1.98408">
        <ele>235.2</ele>
        <time>2021-04-11 08:17:49</time>
      </trkpt>
      <trkpt lat="41.4897" lon="1.98407">
        <ele>235.6</ele>
        <time>2021-04-11 08:17:50</time>
      </trkpt>
      <trkpt lat="41.48974" lon="1.98406">
        <ele>235.8</ele>
        <time>2021-04-11 08:17:51</time>
      </trkpt>
      <trkpt lat="41.48978" lon="1.98405">
        <ele>236</ele>
        <time>2021-04-11 08:17:52</time>
      </trkpt>
      <trkpt lat="41.48982" lon="1.98403">
        <ele>236.2</ele>
        <time>2021-04-11 08:17:53</time>
      </trkpt>
      <trkpt lat="41.48986" lon="1.98401">
        <ele>236.4</ele>
        <time>2021-04-11 08:17:54</time>
      </trkpt>
      <trkpt lat="41.4899" lon="1.98399">
        <ele>236.6</ele>
        <time>2021-04-11 08:17:55</time>
      </trkpt>
      <trkpt lat="41.48994" lon="1.98397">
        <ele>237</ele>
        <time>2021-04-11 08:17:56</time>
      </trkpt>
      <trkpt lat="41.48997" lon="1.98394">
        <ele>237.2</ele>
        <time>2021-04-11 08:17:57</time>
      </trkpt>
      <trkpt lat="41.49001" lon="1.98392">
        <ele>237.4</ele>
        <time>2021-04-11 08:17:58</time>
      </trkpt>
      <trkpt lat="41.49005" lon="1.98389">
        <ele>237.6</ele>
        <time>2021-04-11 08:17:59</time>
      </trkpt>
      <trkpt lat="41.49008" lon="1.98386">
        <ele>237.6</ele>
        <time>2021-04-11 08:18:00</time>
      </trkpt>
      <trkpt lat="41.49012" lon="1.98383">
        <ele>237.8</ele>
        <time>2021-04-11 08:18:01</time>
      </trkpt>
      <trkpt lat="41.49016" lon="1.9838">
        <ele>237.8</ele>
        <time>2021-04-11 08:18:02</time>
      </trkpt>
      <trkpt lat="41.4902" lon="1.98376">
        <ele>237.8</ele>
        <time>2021-04-11 08:18:03</time>
      </trkpt>
      <trkpt lat="41.49024" lon="1.98373">
        <ele>237.8</ele>
        <time>2021-04-11 08:18:04</time>
      </trkpt>
      <trkpt lat="41.49028" lon="1.9837">
        <ele>237.6</ele>
        <time>2021-04-11 08:18:05</time>
      </trkpt>
      <trkpt lat="41.49033" lon="1.98366">
        <ele>237.6</ele>
        <time>2021-04-11 08:18:06</time>
      </trkpt>
      <trkpt lat="41.49037" lon="1.98363">
        <ele>237.4</ele>
        <time>2021-04-11 08:18:07</time>
      </trkpt>
      <trkpt lat="41.49041" lon="1.98359">
        <ele>237.4</ele>
        <time>2021-04-11 08:18:08</time>
      </trkpt>
      <trkpt lat="41.49046" lon="1.98355">
        <ele>237.2</ele>
        <time>2021-04-11 08:18:09</time>
      </trkpt>
      <trkpt lat="41.4905" lon="1.98351">
        <ele>237</ele>
        <time>2021-04-11 08:18:10</time>
      </trkpt>
      <trkpt lat="41.49055" lon="1.98347">
        <ele>237</ele>
        <time>2021-04-11 08:18:11</time>
      </trkpt>
      <trkpt lat="41.4906" lon="1.98343">
        <ele>236.8</ele>
        <time>2021-04-11 08:18:12</time>
      </trkpt>
      <trkpt lat="41.49065" lon="1.9834">
        <ele>236.8</ele>
        <time>2021-04-11 08:18:13</time>
      </trkpt>
      <trkpt lat="41.4907" lon="1.98336">
        <ele>236.6</ele>
        <time>2021-04-11 08:18:14</time>
      </trkpt>
      <trkpt lat="41.49075" lon="1.98332">
        <ele>236.6</ele>
        <time>2021-04-11 08:18:15</time>
      </trkpt>
      <trkpt lat="41.4908" lon="1.98327">
        <ele>236.4</ele>
        <time>2021-04-11 08:18:16</time>
      </trkpt>
      <trkpt lat="41.49085" lon="1.98323">
        <ele>236.2</ele>
        <time>2021-04-11 08:18:17</time>
      </trkpt>
      <trkpt lat="41.4909" lon="1.98319">
        <ele>236.2</ele>
        <time>2021-04-11 08:18:18</time>
      </trkpt>
      <trkpt lat="41.49095" lon="1.98315">
        <ele>236</ele>
        <time>2021-04-11 08:18:19</time>
      </trkpt>
      <trkpt lat="41.49101" lon="1.98311">
        <ele>236</ele>
        <time>2021-04-11 08:18:20</time>
      </trkpt>
      <trkpt lat="41.49106" lon="1.98307">
        <ele>236</ele>
        <time>2021-04-11 08:18:21</time>
      </trkpt>
      <trkpt lat="41.49111" lon="1.98304">
        <ele>235.8</ele>
        <time>2021-04-11 08:18:22</time>
      </trkpt>
      <trkpt lat="41.49117" lon="1.98301">
        <ele>235.8</ele>
        <time>2021-04-11 08:18:23</time>
      </trkpt>
      <trkpt lat="41.49122" lon="1.98299">
        <ele>236</ele>
        <time>2021-04-11 08:18:24</time>
      </trkpt>
      <trkpt lat="41.49128" lon="1.98298">
        <ele>236</ele>
        <time>2021-04-11 08:18:25</time>
      </trkpt>
      <trkpt lat="41.49134" lon="1.98297">
        <ele>236.2</ele>
        <time>2021-04-11 08:18:26</time>
      </trkpt>
      <trkpt lat="41.49139" lon="1.98297">
        <ele>236.4</ele>
        <time>2021-04-11 08:18:27</time>
      </trkpt>
      <trkpt lat="41.49144" lon="1.98297">
        <ele>236.4</ele>
        <time>2021-04-11 08:18:28</time>
      </trkpt>
      <trkpt lat="41.4915" lon="1.98297">
        <ele>236.6</ele>
        <time>2021-04-11 08:18:29</time>
      </trkpt>
      <trkpt lat="41.49155" lon="1.98297">
        <ele>236.8</ele>
        <time>2021-04-11 08:18:30</time>
      </trkpt>
      <trkpt lat="41.4916" lon="1.98297">
        <ele>237.2</ele>
        <time>2021-04-11 08:18:31</time>
      </trkpt>
      <trkpt lat="41.49164" lon="1.98298">
        <ele>237.4</ele>
        <time>2021-04-11 08:18:32</time>
      </trkpt>
      <trkpt lat="41.49169" lon="1.98298">
        <ele>237.6</ele>
        <time>2021-04-11 08:18:33</time>
      </trkpt>
      <trkpt lat="41.49174" lon="1.98298">
        <ele>237.8</ele>
        <time>2021-04-11 08:18:34</time>
      </trkpt>
      <trkpt lat="41.49179" lon="1.98299">
        <ele>238</ele>
        <time>2021-04-11 08:18:35</time>
      </trkpt>
      <trkpt lat="41.49183" lon="1.983">
        <ele>238.2</ele>
        <time>2021-04-11 08:18:36</time>
      </trkpt>
      <trkpt lat="41.49188" lon="1.98301">
        <ele>238.4</ele>
        <time>2021-04-11 08:18:37</time>
      </trkpt>
      <trkpt lat="41.49192" lon="1.98302">
        <ele>238.6</ele>
        <time>2021-04-11 08:18:38</time>
      </trkpt>
      <trkpt lat="41.49197" lon="1.98303">
        <ele>238.8</ele>
        <time>2021-04-11 08:18:39</time>
      </trkpt>
      <trkpt lat="41.49201" lon="1.98304">
        <ele>239</ele>
        <time>2021-04-11 08:18:40</time>
      </trkpt>
      <trkpt lat="41.49206" lon="1.98306">
        <ele>239.2</ele>
        <time>2021-04-11 08:18:41</time>
      </trkpt>
      <trkpt lat="41.4921" lon="1.98308">
        <ele>239.4</ele>
        <time>2021-04-11 08:18:42</time>
      </trkpt>
      <trkpt lat="41.49214" lon="1.9831">
        <ele>239.6</ele>
        <time>2021-04-11 08:18:43</time>
      </trkpt>
      <trkpt lat="41.49218" lon="1.98312">
        <ele>239.8</ele>
        <time>2021-04-11 08:18:44</time>
      </trkpt>
      <trkpt lat="41.49223" lon="1.98314">
        <ele>240</ele>
        <time>2021-04-11 08:18:45</time>
      </trkpt>
      <trkpt lat="41.49226" lon="1.98316">
        <ele>240.2</ele>
        <time>2021-04-11 08:18:46</time>
      </trkpt>
      <trkpt lat="41.4923" lon="1.98318">
        <ele>240.4</ele>
        <time>2021-04-11 08:18:47</time>
      </trkpt>
      <trkpt lat="41.49234" lon="1.9832">
        <ele>240.6</ele>
        <time>2021-04-11 08:18:48</time>
      </trkpt>
      <trkpt lat="41.49238" lon="1.98322">
        <ele>240.8</ele>
        <time>2021-04-11 08:18:49</time>
      </trkpt>
      <trkpt lat="41.49242" lon="1.98325">
        <ele>241</ele>
        <time>2021-04-11 08:18:50</time>
      </trkpt>
      <trkpt lat="41.49245" lon="1.98327">
        <ele>241.4</ele>
        <time>2021-04-11 08:18:51</time>
      </trkpt>
      <trkpt lat="41.49249" lon="1.98329">
        <ele>241.6</ele>
        <time>2021-04-11 08:18:52</time>
      </trkpt>
      <trkpt lat="41.49253" lon="1.98331">
        <ele>241.8</ele>
        <time>2021-04-11 08:18:53</time>
      </trkpt>
      <trkpt lat="41.49256" lon="1.98333">
        <ele>242</ele>
        <time>2021-04-11 08:18:54</time>
      </trkpt>
      <trkpt lat="41.4926" lon="1.98335">
        <ele>242.2</ele>
        <time>2021-04-11 08:18:55</time>
      </trkpt>
      <trkpt lat="41.49264" lon="1.98337">
        <ele>242.6</ele>
        <time>2021-04-11 08:18:56</time>
      </trkpt>
      <trkpt lat="41.49267" lon="1.98339">
        <ele>242.8</ele>
        <time>2021-04-11 08:18:57</time>
      </trkpt>
      <trkpt lat="41.49271" lon="1.98341">
        <ele>243</ele>
        <time>2021-04-11 08:18:58</time>
      </trkpt>
      <trkpt lat="41.49274" lon="1.98343">
        <ele>243.4</ele>
        <time>2021-04-11 08:18:59</time>
      </trkpt>
      <trkpt lat="41.49278" lon="1.98345">
        <ele>243.6</ele>
        <time>2021-04-11 08:19:00</time>
      </trkpt>
      <trkpt lat="41.49281" lon="1.98346">
        <ele>244</ele>
        <time>2021-04-11 08:19:01</time>
      </trkpt>
      <trkpt lat="41.49284" lon="1.98348">
        <ele>244.2</ele>
        <time>2021-04-11 08:19:02</time>
      </trkpt>
      <trkpt lat="41.49288" lon="1.9835">
        <ele>244.4</ele>
        <time>2021-04-11 08:19:03</time>
      </trkpt>
      <trkpt lat="41.49292" lon="1.98352">
        <ele>244.8</ele>
        <time>2021-04-11 08:19:04</time>
      </trkpt>
      <trkpt lat="41.49295" lon="1.98353">
        <ele>245</ele>
        <time>2021-04-11 08:19:05</time>
      </trkpt>
      <trkpt lat="41.49298" lon="1.98355">
        <ele>245.4</ele>
        <time>2021-04-11 08:19:06</time>
      </trkpt>
      <trkpt lat="41.49302" lon="1.98357">
        <ele>245.6</ele>
        <time>2021-04-11 08:19:07</time>
      </trkpt>
      <trkpt lat="41.49305" lon="1.98358">
        <ele>246</ele>
        <time>2021-04-11 08:19:08</time>
      </trkpt>
      <trkpt lat="41.49309" lon="1.9836">
        <ele>246.2</ele>
        <time>2021-04-11 08:19:09</time>
      </trkpt>
      <trkpt lat="41.49312" lon="1.98361">
        <ele>246.6</ele>
        <time>2021-04-11 08:19:10</time>
      </trkpt>
      <trkpt lat="41.49315" lon="1.98362">
        <ele>246.8</ele>
        <time>2021-04-11 08:19:11</time>
      </trkpt>
      <trkpt lat="41.49319" lon="1.98364">
        <ele>247.2</ele>
        <time>2021-04-11 08:19:12</time>
      </trkpt>
      <trkpt lat="41.49323" lon="1.98365">
        <ele>247.4</ele>
        <time>2021-04-11 08:19:13</time>
      </trkpt>
      <trkpt lat="41.49326" lon="1.98366">
        <ele>247.8</ele>
        <time>2021-04-11 08:19:14</time>
      </trkpt>
      <trkpt lat="41.49329" lon="1.98366">
        <ele>248</ele>
        <time>2021-04-11 08:19:15</time>
      </trkpt>
      <trkpt lat="41.49333" lon="1.98367">
        <ele>248.4</ele>
        <time>2021-04-11 08:19:16</time>
      </trkpt>
      <trkpt lat="41.49336" lon="1.98368">
        <ele>248.8</ele>
        <time>2021-04-11 08:19:17</time>
      </trkpt>
      <trkpt lat="41.4934" lon="1.98368">
        <ele>249</ele>
        <time>2021-04-11 08:19:18</time>
      </trkpt>
      <trkpt lat="41.49344" lon="1.98368">
        <ele>249.4</ele>
        <time>2021-04-11 08:19:19</time>
      </trkpt>
      <trkpt lat="41.49347" lon="1.98369">
        <ele>249.6</ele>
        <time>2021-04-11 08:19:20</time>
      </trkpt>
      <trkpt lat="41.4935" lon="1.98369">
        <ele>250</ele>
        <time>2021-04-11 08:19:21</time>
      </trkpt>
      <trkpt lat="41.49354" lon="1.98368">
        <ele>250.4</ele>
        <time>2021-04-11 08:19:22</time>
      </trkpt>
      <trkpt lat="41.49358" lon="1.98368">
        <ele>250.6</ele>
        <time>2021-04-11 08:19:23</time>
      </trkpt>
      <trkpt lat="41.49361" lon="1.98367">
        <ele>251</ele>
        <time>2021-04-11 08:19:24</time>
      </trkpt>
      <trkpt lat="41.49364" lon="1.98367">
        <ele>251.2</ele>
        <time>2021-04-11 08:19:25</time>
      </trkpt>
      <trkpt lat="41.49368" lon="1.98366">
        <ele>251.6</ele>
        <time>2021-04-11 08:19:26</time>
      </trkpt>
      <trkpt lat="41.49372" lon="1.98365">
        <ele>251.8</ele>
        <time>2021-04-11 08:19:27</time>
      </trkpt>
      <trkpt lat="41.49375" lon="1.98365">
        <ele>252</ele>
        <time>2021-04-11 08:19:28</time>
      </trkpt>
      <trkpt lat="41.49379" lon="1.98364">
        <ele>252.4</ele>
        <time>2021-04-11 08:19:29</time>
      </trkpt>
      <trkpt lat="41.49382" lon="1.98363">
        <ele>252.6</ele>
        <time>2021-04-11 08:19:30</time>
      </trkpt>
      <trkpt lat="41.49386" lon="1.98362">
        <ele>253</ele>
        <time>2021-04-11 08:19:31</time>
      </trkpt>
      <trkpt lat="41.4939" lon="1.98361">
        <ele>253.2</ele>
        <time>2021-04-11 08:19:32</time>
      </trkpt>
      <trkpt lat="41.49393" lon="1.98359">
        <ele>253.4</ele>
        <time>2021-04-11 08:19:33</time>
      </trkpt>
      <trkpt lat="41.49396" lon="1.98358">
        <ele>253.6</ele>
        <time>2021-04-11 08:19:34</time>
      </trkpt>
      <trkpt lat="41.494" lon="1.98357">
        <ele>254</ele>
        <time>2021-04-11 08:19:35</time>
      </trkpt>
      <trkpt lat="41.49404" lon="1.98355">
        <ele>254.2</ele>
        <time>2021-04-11 08:19:36</time>
      </trkpt>
      <trkpt lat="41.49407" lon="1.98354">
        <ele>254.4</ele>
        <time>2021-04-11 08:19:37</time>
      </trkpt>
      <trkpt lat="41.4941" lon="1.98352">
        <ele>254.6</ele>
        <time>2021-04-11 08:19:38</time>
      </trkpt>
      <trkpt lat="41.49414" lon="1.98351">
        <ele>254.8</ele>
        <time>2021-04-11 08:19:39</time>
      </trkpt>
      <trkpt lat="41.49418" lon="1.98349">
        <ele>255</ele>
        <time>2021-04-11 08:19:40</time>
      </trkpt>
      <trkpt lat="41.49422" lon="1.98347">
        <ele>255</ele>
        <time>2021-04-11 08:19:41</time>
      </trkpt>
      <trkpt lat="41.49426" lon="1.98346">
        <ele>255.2</ele>
        <time>2021-04-11 08:19:42</time>
      </trkpt>
      <trkpt lat="41.4943" lon="1.98344">
        <ele>255.4</ele>
        <time>2021-04-11 08:19:43</time>
      </trkpt>
      <trkpt lat="41.49434" lon="1.98343">
        <ele>255.4</ele>
        <time>2021-04-11 08:19:44</time>
      </trkpt>
      <trkpt lat="41.49438" lon="1.98341">
        <ele>255.6</ele>
        <time>2021-04-11 08:19:45</time>
      </trkpt>
      <trkpt lat="41.49443" lon="1.9834">
        <ele>255.6</ele>
        <time>2021-04-11 08:19:46</time>
      </trkpt>
      <trkpt lat="41.49447" lon="1.98339">
        <ele>255.6</ele>
        <time>2021-04-11 08:19:47</time>
      </trkpt>
      <trkpt lat="41.49452" lon="1.98337">
        <ele>255.6</ele>
        <time>2021-04-11 08:19:48</time>
      </trkpt>
      <trkpt lat="41.49457" lon="1.98336">
        <ele>255.6</ele>
        <time>2021-04-11 08:19:49</time>
      </trkpt>
      <trkpt lat="41.49462" lon="1.98335">
        <ele>255.6</ele>
        <time>2021-04-11 08:19:50</time>
      </trkpt>
      <trkpt lat="41.49467" lon="1.98334">
        <ele>255.6</ele>
        <time>2021-04-11 08:19:51</time>
      </trkpt>
      <trkpt lat="41.49472" lon="1.98333">
        <ele>255.6</ele>
        <time>2021-04-11 08:19:52</time>
      </trkpt>
      <trkpt lat="41.49477" lon="1.98333">
        <ele>255.6</ele>
        <time>2021-04-11 08:19:53</time>
      </trkpt>
      <trkpt lat="41.49482" lon="1.98332">
        <ele>255.8</ele>
        <time>2021-04-11 08:19:54</time>
      </trkpt>
      <trkpt lat="41.49487" lon="1.98332">
        <ele>255.8</ele>
        <time>2021-04-11 08:19:55</time>
      </trkpt>
      <trkpt lat="41.49492" lon="1.98331">
        <ele>255.8</ele>
        <time>2021-04-11 08:19:56</time>
      </trkpt>
      <trkpt lat="41.49497" lon="1.98331">
        <ele>255.8</ele>
        <time>2021-04-11 08:19:57</time>
      </trkpt>
      <trkpt lat="41.49502" lon="1.98331">
        <ele>255.8</ele>
        <time>2021-04-11 08:19:58</time>
      </trkpt>
      <trkpt lat="41.49508" lon="1.9833">
        <ele>255.8</ele>
        <time>2021-04-11 08:19:59</time>
      </trkpt>
      <trkpt lat="41.49513" lon="1.9833">
        <ele>255.8</ele>
        <time>2021-04-11 08:20:00</time>
      </trkpt>
      <trkpt lat="41.49518" lon="1.9833">
        <ele>256</ele>
        <time>2021-04-11 08:20:01</time>
      </trkpt>
      <trkpt lat="41.49523" lon="1.9833">
        <ele>256</ele>
        <time>2021-04-11 08:20:02</time>
      </trkpt>
      <trkpt lat="41.49529" lon="1.98329">
        <ele>256</ele>
        <time>2021-04-11 08:20:03</time>
      </trkpt>
      <trkpt lat="41.49533" lon="1.98329">
        <ele>256.2</ele>
        <time>2021-04-11 08:20:04</time>
      </trkpt>
      <trkpt lat="41.49538" lon="1.98329">
        <ele>256.2</ele>
        <time>2021-04-11 08:20:05</time>
      </trkpt>
      <trkpt lat="41.49543" lon="1.98329">
        <ele>256.2</ele>
        <time>2021-04-11 08:20:06</time>
      </trkpt>
      <trkpt lat="41.49548" lon="1.98328">
        <ele>256.4</ele>
        <time>2021-04-11 08:20:07</time>
      </trkpt>
      <trkpt lat="41.49553" lon="1.98328">
        <ele>256.4</ele>
        <time>2021-04-11 08:20:08</time>
      </trkpt>
      <trkpt lat="41.49558" lon="1.98328">
        <ele>256.6</ele>
        <time>2021-04-11 08:20:09</time>
      </trkpt>
      <trkpt lat="41.49563" lon="1.98327">
        <ele>256.8</ele>
        <time>2021-04-11 08:20:10</time>
      </trkpt>
      <trkpt lat="41.49567" lon="1.98327">
        <ele>257</ele>
        <time>2021-04-11 08:20:11</time>
      </trkpt>
      <trkpt lat="41.49572" lon="1.98326">
        <ele>257</ele>
        <time>2021-04-11 08:20:12</time>
      </trkpt>
      <trkpt lat="41.49576" lon="1.98325">
        <ele>257.2</ele>
        <time>2021-04-11 08:20:13</time>
      </trkpt>
      <trkpt lat="41.49581" lon="1.98323">
        <ele>257.2</ele>
        <time>2021-04-11 08:20:14</time>
      </trkpt>
      <trkpt lat="41.49585" lon="1.98322">
        <ele>257.4</ele>
        <time>2021-04-11 08:20:15</time>
      </trkpt>
      <trkpt lat="41.4959" lon="1.9832">
        <ele>257.4</ele>
        <time>2021-04-11 08:20:16</time>
      </trkpt>
      <trkpt lat="41.49594" lon="1.98317">
        <ele>257.4</ele>
        <time>2021-04-11 08:20:17</time>
      </trkpt>
      <trkpt lat="41.49598" lon="1.98314">
        <ele>257.6</ele>
        <time>2021-04-11 08:20:18</time>
      </trkpt>
      <trkpt lat="41.49602" lon="1.98311">
        <ele>257.4</ele>
        <time>2021-04-11 08:20:19</time>
      </trkpt>
      <trkpt lat="41.49607" lon="1.98308">
        <ele>257.4</ele>
        <time>2021-04-11 08:20:20</time>
      </trkpt>
      <trkpt lat="41.49611" lon="1.98304">
        <ele>257.4</ele>
        <time>2021-04-11 08:20:21</time>
      </trkpt>
      <trkpt lat="41.49616" lon="1.98301">
        <ele>257.4</ele>
        <time>2021-04-11 08:20:22</time>
      </trkpt>
      <trkpt lat="41.4962" lon="1.98297">
        <ele>257.4</ele>
        <time>2021-04-11 08:20:23</time>
      </trkpt>
      <trkpt lat="41.49625" lon="1.98294">
        <ele>257.4</ele>
        <time>2021-04-11 08:20:24</time>
      </trkpt>
      <trkpt lat="41.49629" lon="1.98291">
        <ele>257.4</ele>
        <time>2021-04-11 08:20:25</time>
      </trkpt>
      <trkpt lat="41.49633" lon="1.98287">
        <ele>257.4</ele>
        <time>2021-04-11 08:20:26</time>
      </trkpt>
      <trkpt lat="41.49638" lon="1.98284">
        <ele>257.4</ele>
        <time>2021-04-11 08:20:27</time>
      </trkpt>
      <trkpt lat="41.49643" lon="1.98282">
        <ele>257.4</ele>
        <time>2021-04-11 08:20:28</time>
      </trkpt>
      <trkpt lat="41.49648" lon="1.98279">
        <ele>257.4</ele>
        <time>2021-04-11 08:20:29</time>
      </trkpt>
      <trkpt lat="41.49653" lon="1.98277">
        <ele>257.4</ele>
        <time>2021-04-11 08:20:30</time>
      </trkpt>
      <trkpt lat="41.49659" lon="1.98275">
        <ele>257.4</ele>
        <time>2021-04-11 08:20:31</time>
      </trkpt>
      <trkpt lat="41.49664" lon="1.98274">
        <ele>257.4</ele>
        <time>2021-04-11 08:20:32</time>
      </trkpt>
      <trkpt lat="41.49669" lon="1.98272">
        <ele>257.4</ele>
        <time>2021-04-11 08:20:33</time>
      </trkpt>
      <trkpt lat="41.49675" lon="1.98271">
        <ele>257.4</ele>
        <time>2021-04-11 08:20:34</time>
      </trkpt>
      <trkpt lat="41.4968" lon="1.9827">
        <ele>257.4</ele>
        <time>2021-04-11 08:20:35</time>
      </trkpt>
      <trkpt lat="41.49685" lon="1.9827">
        <ele>257.4</ele>
        <time>2021-04-11 08:20:36</time>
      </trkpt>
      <trkpt lat="41.49691" lon="1.98269">
        <ele>257.4</ele>
        <time>2021-04-11 08:20:37</time>
      </trkpt>
      <trkpt lat="41.49696" lon="1.98268">
        <ele>257.4</ele>
        <time>2021-04-11 08:20:38</time>
      </trkpt>
      <trkpt lat="41.49702" lon="1.98268">
        <ele>257.4</ele>
        <time>2021-04-11 08:20:39</time>
      </trkpt>
      <trkpt lat="41.49707" lon="1.98267">
        <ele>257.4</ele>
        <time>2021-04-11 08:20:40</time>
      </trkpt>
      <trkpt lat="41.49712" lon="1.98266">
        <ele>257.4</ele>
        <time>2021-04-11 08:20:41</time>
      </trkpt>
      <trkpt lat="41.49718" lon="1.98265">
        <ele>257.4</ele>
        <time>2021-04-11 08:20:42</time>
      </trkpt>
      <trkpt lat="41.49723" lon="1.98264">
        <ele>257.4</ele>
        <time>2021-04-11 08:20:43</time>
      </trkpt>
      <trkpt lat="41.49728" lon="1.98263">
        <ele>257.4</ele>
        <time>2021-04-11 08:20:44</time>
      </trkpt>
      <trkpt lat="41.49734" lon="1.98263">
        <ele>257.4</ele>
        <time>2021-04-11 08:20:45</time>
      </trkpt>
      <trkpt lat="41.49739" lon="1.98262">
        <ele>257.4</ele>
        <time>2021-04-11 08:20:46</time>
      </trkpt>
      <trkpt lat="41.49744" lon="1.98261">
        <ele>257.6</ele>
        <time>2021-04-11 08:20:47</time>
      </trkpt>
      <trkpt lat="41.49749" lon="1.9826">
        <ele>257.6</ele>
        <time>2021-04-11 08:20:48</time>
      </trkpt>
      <trkpt lat="41.49755" lon="1.9826">
        <ele>257.8</ele>
        <time>2021-04-11 08:20:49</time>
      </trkpt>
      <trkpt lat="41.4976" lon="1.98259">
        <ele>257.8</ele>
        <time>2021-04-11 08:20:50</time>
      </trkpt>
      <trkpt lat="41.49765" lon="1.98258">
        <ele>258</ele>
        <time>2021-04-11 08:20:51</time>
      </trkpt>
      <trkpt lat="41.49771" lon="1.98257">
        <ele>258</ele>
        <time>2021-04-11 08:20:52</time>
      </trkpt>
      <trkpt lat="41.49776" lon="1.98256">
        <ele>258.2</ele>
        <time>2021-04-11 08:20:53</time>
      </trkpt>
      <trkpt lat="41.49781" lon="1.98256">
        <ele>258.4</ele>
        <time>2021-04-11 08:20:54</time>
      </trkpt>
      <trkpt lat="41.49786" lon="1.98255">
        <ele>258.6</ele>
        <time>2021-04-11 08:20:55</time>
      </trkpt>
      <trkpt lat="41.49791" lon="1.98254">
        <ele>258.6</ele>
        <time>2021-04-11 08:20:56</time>
      </trkpt>
      <trkpt lat="41.49796" lon="1.98253">
        <ele>258.8</ele>
        <time>2021-04-11 08:20:57</time>
      </trkpt>
      <trkpt lat="41.49801" lon="1.98253">
        <ele>259</ele>
        <time>2021-04-11 08:20:58</time>
      </trkpt>
      <trkpt lat="41.49805" lon="1.98252">
        <ele>259</ele>
        <time>2021-04-11 08:20:59</time>
      </trkpt>
      <trkpt lat="41.4981" lon="1.98252">
        <ele>259.2</ele>
        <time>2021-04-11 08:21:00</time>
      </trkpt>
      <trkpt lat="41.49815" lon="1.98252">
        <ele>259.4</ele>
        <time>2021-04-11 08:21:01</time>
      </trkpt>
      <trkpt lat="41.4982" lon="1.98252">
        <ele>259.6</ele>
        <time>2021-04-11 08:21:02</time>
      </trkpt>
      <trkpt lat="41.49824" lon="1.98252">
        <ele>259.8</ele>
        <time>2021-04-11 08:21:03</time>
      </trkpt>
      <trkpt lat="41.49828" lon="1.98252">
        <ele>260</ele>
        <time>2021-04-11 08:21:04</time>
      </trkpt>
      <trkpt lat="41.49833" lon="1.98253">
        <ele>260.2</ele>
        <time>2021-04-11 08:21:05</time>
      </trkpt>
      <trkpt lat="41.49837" lon="1.98255">
        <ele>260.4</ele>
        <time>2021-04-11 08:21:06</time>
      </trkpt>
      <trkpt lat="41.4984" lon="1.98258">
        <ele>260.6</ele>
        <time>2021-04-11 08:21:07</time>
      </trkpt>
      <trkpt lat="41.49844" lon="1.9826">
        <ele>260.8</ele>
        <time>2021-04-11 08:21:08</time>
      </trkpt>
      <trkpt lat="41.49847" lon="1.98263">
        <ele>261</ele>
        <time>2021-04-11 08:21:09</time>
      </trkpt>
      <trkpt lat="41.4985" lon="1.98265">
        <ele>261.2</ele>
        <time>2021-04-11 08:21:10</time>
      </trkpt>
      <trkpt lat="41.49854" lon="1.98268">
        <ele>261.4</ele>
        <time>2021-04-11 08:21:11</time>
      </trkpt>
      <trkpt lat="41.49857" lon="1.98271">
        <ele>261.8</ele>
        <time>2021-04-11 08:21:12</time>
      </trkpt>
      <trkpt lat="41.49861" lon="1.98274">
        <ele>261.8</ele>
        <time>2021-04-11 08:21:13</time>
      </trkpt>
      <trkpt lat="41.49864" lon="1.98277">
        <ele>262.2</ele>
        <time>2021-04-11 08:21:14</time>
      </trkpt>
      <trkpt lat="41.49867" lon="1.98281">
        <ele>262.4</ele>
        <time>2021-04-11 08:21:15</time>
      </trkpt>
      <trkpt lat="41.4987" lon="1.98285">
        <ele>262.6</ele>
        <time>2021-04-11 08:21:16</time>
      </trkpt>
      <trkpt lat="41.49873" lon="1.98289">
        <ele>262.8</ele>
        <time>2021-04-11 08:21:17</time>
      </trkpt>
      <trkpt lat="41.49876" lon="1.98293">
        <ele>263</ele>
        <time>2021-04-11 08:21:18</time>
      </trkpt>
      <trkpt lat="41.49878" lon="1.98297">
        <ele>263.2</ele>
        <time>2021-04-11 08:21:19</time>
      </trkpt>
      <trkpt lat="41.4988" lon="1.98301">
        <ele>263.4</ele>
        <time>2021-04-11 08:21:20</time>
      </trkpt>
      <trkpt lat="41.49883" lon="1.98305">
        <ele>263.6</ele>
        <time>2021-04-11 08:21:21</time>
      </trkpt>
      <trkpt lat="41.49885" lon="1.98309">
        <ele>263.8</ele>
        <time>2021-04-11 08:21:22</time>
      </trkpt>
      <trkpt lat="41.49886" lon="1.98314">
        <ele>264</ele>
        <time>2021-04-11 08:21:23</time>
      </trkpt>
      <trkpt lat="41.49888" lon="1.98318">
        <ele>264.4</ele>
        <time>2021-04-11 08:21:24</time>
      </trkpt>
      <trkpt lat="41.4989" lon="1.98321">
        <ele>264.6</ele>
        <time>2021-04-11 08:21:25</time>
      </trkpt>
      <trkpt lat="41.49893" lon="1.98326">
        <ele>264.8</ele>
        <time>2021-04-11 08:21:26</time>
      </trkpt>
      <trkpt lat="41.49895" lon="1.98329">
        <ele>264.8</ele>
        <time>2021-04-11 08:21:27</time>
      </trkpt>
      <trkpt lat="41.49897" lon="1.98333">
        <ele>265</ele>
        <time>2021-04-11 08:21:28</time>
      </trkpt>
      <trkpt lat="41.499" lon="1.98337">
        <ele>265.2</ele>
        <time>2021-04-11 08:21:29</time>
      </trkpt>
      <trkpt lat="41.49903" lon="1.9834">
        <ele>265.4</ele>
        <time>2021-04-11 08:21:30</time>
      </trkpt>
      <trkpt lat="41.49906" lon="1.98342">
        <ele>265.6</ele>
        <time>2021-04-11 08:21:31</time>
      </trkpt>
      <trkpt lat="41.49909" lon="1.98344">
        <ele>265.8</ele>
        <time>2021-04-11 08:21:32</time>
      </trkpt>
      <trkpt lat="41.49912" lon="1.98346">
        <ele>266</ele>
        <time>2021-04-11 08:21:33</time>
      </trkpt>
      <trkpt lat="41.49916" lon="1.98347">
        <ele>266.2</ele>
        <time>2021-04-11 08:21:34</time>
      </trkpt>
      <trkpt lat="41.49919" lon="1.98348">
        <ele>266.4</ele>
        <time>2021-04-11 08:21:35</time>
      </trkpt>
      <trkpt lat="41.49922" lon="1.98348">
        <ele>266.8</ele>
        <time>2021-04-11 08:21:36</time>
      </trkpt>
      <trkpt lat="41.49926" lon="1.98348">
        <ele>267</ele>
        <time>2021-04-11 08:21:37</time>
      </trkpt>
      <trkpt lat="41.49929" lon="1.98348">
        <ele>267.2</ele>
        <time>2021-04-11 08:21:38</time>
      </trkpt>
      <trkpt lat="41.49933" lon="1.98347">
        <ele>267.4</ele>
        <time>2021-04-11 08:21:39</time>
      </trkpt>
      <trkpt lat="41.49936" lon="1.98345">
        <ele>267.6</ele>
        <time>2021-04-11 08:21:40</time>
      </trkpt>
      <trkpt lat="41.49939" lon="1.98343">
        <ele>267.8</ele>
        <time>2021-04-11 08:21:41</time>
      </trkpt>
      <trkpt lat="41.49942" lon="1.9834">
        <ele>268</ele>
        <time>2021-04-11 08:21:42</time>
      </trkpt>
      <trkpt lat="41.49944" lon="1.98337">
        <ele>268.2</ele>
        <time>2021-04-11 08:21:43</time>
      </trkpt>
      <trkpt lat="41.49946" lon="1.98334">
        <ele>268.6</ele>
        <time>2021-04-11 08:21:44</time>
      </trkpt>
      <trkpt lat="41.49949" lon="1.9833">
        <ele>268.8</ele>
        <time>2021-04-11 08:21:45</time>
      </trkpt>
      <trkpt lat="41.49951" lon="1.98327">
        <ele>269</ele>
        <time>2021-04-11 08:21:46</time>
      </trkpt>
      <trkpt lat="41.49953" lon="1.98323">
        <ele>269.2</ele>
        <time>2021-04-11 08:21:47</time>
      </trkpt>
      <trkpt lat="41.49955" lon="1.98319">
        <ele>269.4</ele>
        <time>2021-04-11 08:21:48</time>
      </trkpt>
      <trkpt lat="41.49957" lon="1.98315">
        <ele>269.6</ele>
        <time>2021-04-11 08:21:49</time>
      </trkpt>
      <trkpt lat="41.49959" lon="1.98311">
        <ele>270</ele>
        <time>2021-04-11 08:21:50</time>
      </trkpt>
      <trkpt lat="41.49961" lon="1.98307">
        <ele>270.2</ele>
        <time>2021-04-11 08:21:51</time>
      </trkpt>
      <trkpt lat="41.49963" lon="1.98303">
        <ele>270.4</ele>
        <time>2021-04-11 08:21:52</time>
      </trkpt>
      <trkpt lat="41.49965" lon="1.98298">
        <ele>270.6</ele>
        <time>2021-04-11 08:21:53</time>
      </trkpt>
      <trkpt lat="41.49967" lon="1.98294">
        <ele>270.8</ele>
        <time>2021-04-11 08:21:54</time>
      </trkpt>
      <trkpt lat="41.49968" lon="1.9829">
        <ele>271</ele>
        <time>2021-04-11 08:21:55</time>
      </trkpt>
      <trkpt lat="41.4997" lon="1.98285">
        <ele>271.2</ele>
        <time>2021-04-11 08:21:56</time>
      </trkpt>
      <trkpt lat="41.49972" lon="1.98281">
        <ele>271.6</ele>
        <time>2021-04-11 08:21:57</time>
      </trkpt>
      <trkpt lat="41.49974" lon="1.98277">
        <ele>271.8</ele>
        <time>2021-04-11 08:21:58</time>
      </trkpt>
      <trkpt lat="41.49976" lon="1.98273">
        <ele>272</ele>
        <time>2021-04-11 08:21:59</time>
      </trkpt>
      <trkpt lat="41.49978" lon="1.98269">
        <ele>272.2</ele>
        <time>2021-04-11 08:22:00</time>
      </trkpt>
      <trkpt lat="41.4998" lon="1.98265">
        <ele>272.4</ele>
        <time>2021-04-11 08:22:01</time>
      </trkpt>
      <trkpt lat="41.49982" lon="1.9826">
        <ele>272.6</ele>
        <time>2021-04-11 08:22:02</time>
      </trkpt>
      <trkpt lat="41.49985" lon="1.98256">
        <ele>272.8</ele>
        <time>2021-04-11 08:22:03</time>
      </trkpt>
      <trkpt lat="41.49987" lon="1.98252">
        <ele>273</ele>
        <time>2021-04-11 08:22:04</time>
      </trkpt>
      <trkpt lat="41.4999" lon="1.98248">
        <ele>273.2</ele>
        <time>2021-04-11 08:22:05</time>
      </trkpt>
      <trkpt lat="41.49992" lon="1.98244">
        <ele>273.6</ele>
        <time>2021-04-11 08:22:06</time>
      </trkpt>
      <trkpt lat="41.49994" lon="1.98241">
        <ele>273.8</ele>
        <time>2021-04-11 08:22:07</time>
      </trkpt>
      <trkpt lat="41.49997" lon="1.98237">
        <ele>274</ele>
        <time>2021-04-11 08:22:08</time>
      </trkpt>
      <trkpt lat="41.5" lon="1.98234">
        <ele>274.4</ele>
        <time>2021-04-11 08:22:09</time>
      </trkpt>
      <trkpt lat="41.50003" lon="1.98231">
        <ele>274.6</ele>
        <time>2021-04-11 08:22:10</time>
      </trkpt>
      <trkpt lat="41.50005" lon="1.98228">
        <ele>274.8</ele>
        <time>2021-04-11 08:22:11</time>
      </trkpt>
      <trkpt lat="41.50008" lon="1.98225">
        <ele>275.2</ele>
        <time>2021-04-11 08:22:12</time>
      </trkpt>
      <trkpt lat="41.50011" lon="1.98223">
        <ele>275.4</ele>
        <time>2021-04-11 08:22:13</time>
      </trkpt>
      <trkpt lat="41.50014" lon="1.9822">
        <ele>275.6</ele>
        <time>2021-04-11 08:22:14</time>
      </trkpt>
      <trkpt lat="41.50016" lon="1.98216">
        <ele>276</ele>
        <time>2021-04-11 08:22:15</time>
      </trkpt>
      <trkpt lat="41.50019" lon="1.98213">
        <ele>276.2</ele>
        <time>2021-04-11 08:22:16</time>
      </trkpt>
      <trkpt lat="41.50022" lon="1.9821">
        <ele>276.4</ele>
        <time>2021-04-11 08:22:17</time>
      </trkpt>
      <trkpt lat="41.50025" lon="1.98207">
        <ele>276.8</ele>
        <time>2021-04-11 08:22:18</time>
      </trkpt>
      <trkpt lat="41.50028" lon="1.98204">
        <ele>277</ele>
        <time>2021-04-11 08:22:19</time>
      </trkpt>
      <trkpt lat="41.50031" lon="1.98201">
        <ele>277.4</ele>
        <time>2021-04-11 08:22:20</time>
      </trkpt>
      <trkpt lat="41.50033" lon="1.98197">
        <ele>277.6</ele>
        <time>2021-04-11 08:22:21</time>
      </trkpt>
      <trkpt lat="41.50036" lon="1.98194">
        <ele>277.8</ele>
        <time>2021-04-11 08:22:22</time>
      </trkpt>
      <trkpt lat="41.50039" lon="1.98191">
        <ele>278.2</ele>
        <time>2021-04-11 08:22:23</time>
      </trkpt>
      <trkpt lat="41.50041" lon="1.98188">
        <ele>278.4</ele>
        <time>2021-04-11 08:22:24</time>
      </trkpt>
      <trkpt lat="41.50044" lon="1.98185">
        <ele>278.6</ele>
        <time>2021-04-11 08:22:25</time>
      </trkpt>
      <trkpt lat="41.50047" lon="1.98182">
        <ele>279</ele>
        <time>2021-04-11 08:22:26</time>
      </trkpt>
      <trkpt lat="41.5005" lon="1.98179">
        <ele>279.2</ele>
        <time>2021-04-11 08:22:27</time>
      </trkpt>
      <trkpt lat="41.50053" lon="1.98175">
        <ele>279.4</ele>
        <time>2021-04-11 08:22:28</time>
      </trkpt>
      <trkpt lat="41.50056" lon="1.98172">
        <ele>279.6</ele>
        <time>2021-04-11 08:22:29</time>
      </trkpt>
      <trkpt lat="41.50058" lon="1.98169">
        <ele>279.8</ele>
        <time>2021-04-11 08:22:30</time>
      </trkpt>
      <trkpt lat="41.50061" lon="1.98165">
        <ele>280</ele>
        <time>2021-04-11 08:22:31</time>
      </trkpt>
      <trkpt lat="41.50064" lon="1.98162">
        <ele>280.2</ele>
        <time>2021-04-11 08:22:32</time>
      </trkpt>
      <trkpt lat="41.50067" lon="1.98158">
        <ele>280.2</ele>
        <time>2021-04-11 08:22:33</time>
      </trkpt>
      <trkpt lat="41.5007" lon="1.98155">
        <ele>280.4</ele>
        <time>2021-04-11 08:22:34</time>
      </trkpt>
      <trkpt lat="41.50073" lon="1.98151">
        <ele>280.4</ele>
        <time>2021-04-11 08:22:35</time>
      </trkpt>
      <trkpt lat="41.50077" lon="1.98147">
        <ele>280.6</ele>
        <time>2021-04-11 08:22:36</time>
      </trkpt>
      <trkpt lat="41.5008" lon="1.98144">
        <ele>280.6</ele>
        <time>2021-04-11 08:22:37</time>
      </trkpt>
      <trkpt lat="41.50083" lon="1.9814">
        <ele>280.6</ele>
        <time>2021-04-11 08:22:38</time>
      </trkpt>
      <trkpt lat="41.50086" lon="1.98137">
        <ele>280.8</ele>
        <time>2021-04-11 08:22:39</time>
      </trkpt>
      <trkpt lat="41.50089" lon="1.98133">
        <ele>280.8</ele>
        <time>2021-04-11 08:22:40</time>
      </trkpt>
      <trkpt lat="41.50093" lon="1.9813">
        <ele>280.8</ele>
        <time>2021-04-11 08:22:41</time>
      </trkpt>
      <trkpt lat="41.50096" lon="1.98127">
        <ele>280.8</ele>
        <time>2021-04-11 08:22:42</time>
      </trkpt>
      <trkpt lat="41.50099" lon="1.98124">
        <ele>281</ele>
        <time>2021-04-11 08:22:43</time>
      </trkpt>
      <trkpt lat="41.50103" lon="1.98121">
        <ele>281</ele>
        <time>2021-04-11 08:22:44</time>
      </trkpt>
      <trkpt lat="41.50107" lon="1.98118">
        <ele>281</ele>
        <time>2021-04-11 08:22:45</time>
      </trkpt>
      <trkpt lat="41.50112" lon="1.98116">
        <ele>281</ele>
        <time>2021-04-11 08:22:46</time>
      </trkpt>
      <trkpt lat="41.50117" lon="1.98114">
        <ele>281</ele>
        <time>2021-04-11 08:22:47</time>
      </trkpt>
      <trkpt lat="41.50121" lon="1.98113">
        <ele>281.2</ele>
        <time>2021-04-11 08:22:48</time>
      </trkpt>
      <trkpt lat="41.50126" lon="1.98112">
        <ele>281.2</ele>
        <time>2021-04-11 08:22:49</time>
      </trkpt>
      <trkpt lat="41.5013" lon="1.98112">
        <ele>281.4</ele>
        <time>2021-04-11 08:22:50</time>
      </trkpt>
      <trkpt lat="41.50135" lon="1.98112">
        <ele>281.6</ele>
        <time>2021-04-11 08:22:51</time>
      </trkpt>
      <trkpt lat="41.50139" lon="1.98112">
        <ele>281.8</ele>
        <time>2021-04-11 08:22:52</time>
      </trkpt>
      <trkpt lat="41.50143" lon="1.98113">
        <ele>282</ele>
        <time>2021-04-11 08:22:53</time>
      </trkpt>
      <trkpt lat="41.50147" lon="1.98114">
        <ele>282.2</ele>
        <time>2021-04-11 08:22:54</time>
      </trkpt>
      <trkpt lat="41.50151" lon="1.98114">
        <ele>282.4</ele>
        <time>2021-04-11 08:22:55</time>
      </trkpt>
      <trkpt lat="41.50156" lon="1.98115">
        <ele>282.6</ele>
        <time>2021-04-11 08:22:56</time>
      </trkpt>
      <trkpt lat="41.50159" lon="1.98116">
        <ele>283</ele>
        <time>2021-04-11 08:22:57</time>
      </trkpt>
      <trkpt lat="41.50163" lon="1.98117">
        <ele>283.2</ele>
        <time>2021-04-11 08:22:58</time>
      </trkpt>
      <trkpt lat="41.50167" lon="1.98118">
        <ele>283.4</ele>
        <time>2021-04-11 08:22:59</time>
      </trkpt>
      <trkpt lat="41.5017" lon="1.98122">
        <ele>283.6</ele>
        <time>2021-04-11 08:23:00</time>
      </trkpt>
      <trkpt lat="41.50173" lon="1.98125">
        <ele>284</ele>
        <time>2021-04-11 08:23:01</time>
      </trkpt>
      <trkpt lat="41.50176" lon="1.98129">
        <ele>284.2</ele>
        <time>2021-04-11 08:23:02</time>
      </trkpt>
      <trkpt lat="41.50181" lon="1.9813">
        <ele>284.4</ele>
        <time>2021-04-11 08:23:03</time>
      </trkpt>
      <trkpt lat="41.50185" lon="1.98129">
        <ele>284.8</ele>
        <time>2021-04-11 08:23:04</time>
      </trkpt>
      <trkpt lat="41.50189" lon="1.98129">
        <ele>285</ele>
        <time>2021-04-11 08:23:05</time>
      </trkpt>
      <trkpt lat="41.50193" lon="1.98128">
        <ele>285.2</ele>
        <time>2021-04-11 08:23:06</time>
      </trkpt>
      <trkpt lat="41.50198" lon="1.98127">
        <ele>285.6</ele>
        <time>2021-04-11 08:23:07</time>
      </trkpt>
      <trkpt lat="41.50201" lon="1.98127">
        <ele>285.8</ele>
        <time>2021-04-11 08:23:08</time>
      </trkpt>
      <trkpt lat="41.50206" lon="1.98126">
        <ele>286</ele>
        <time>2021-04-11 08:23:09</time>
      </trkpt>
      <trkpt lat="41.5021" lon="1.98126">
        <ele>286.2</ele>
        <time>2021-04-11 08:23:10</time>
      </trkpt>
      <trkpt lat="41.50214" lon="1.98125">
        <ele>286.6</ele>
        <time>2021-04-11 08:23:11</time>
      </trkpt>
      <trkpt lat="41.50218" lon="1.98124">
        <ele>286.8</ele>
        <time>2021-04-11 08:23:12</time>
      </trkpt>
      <trkpt lat="41.50222" lon="1.98123">
        <ele>287</ele>
        <time>2021-04-11 08:23:13</time>
      </trkpt>
      <trkpt lat="41.50226" lon="1.98122">
        <ele>287.2</ele>
        <time>2021-04-11 08:23:14</time>
      </trkpt>
      <trkpt lat="41.5023" lon="1.98121">
        <ele>287.4</ele>
        <time>2021-04-11 08:23:15</time>
      </trkpt>
      <trkpt lat="41.50233" lon="1.98121">
        <ele>287.6</ele>
        <time>2021-04-11 08:23:16</time>
      </trkpt>
      <trkpt lat="41.50237" lon="1.9812">
        <ele>287.8</ele>
        <time>2021-04-11 08:23:17</time>
      </trkpt>
      <trkpt lat="41.5024" lon="1.98119">
        <ele>288</ele>
        <time>2021-04-11 08:23:18</time>
      </trkpt>
      <trkpt lat="41.50243" lon="1.98118">
        <ele>288.2</ele>
        <time>2021-04-11 08:23:19</time>
      </trkpt>
      <trkpt lat="41.50246" lon="1.98118">
        <ele>288.2</ele>
        <time>2021-04-11 08:23:20</time>
      </trkpt>
      <trkpt lat="41.50249" lon="1.98118">
        <ele>288.2</ele>
        <time>2021-04-11 08:23:21</time>
      </trkpt>
      <trkpt lat="41.50252" lon="1.98118">
        <ele>288.4</ele>
        <time>2021-04-11 08:23:22</time>
      </trkpt>
      <trkpt lat="41.50256" lon="1.98118">
        <ele>288.4</ele>
        <time>2021-04-11 08:23:23</time>
      </trkpt>
      <trkpt lat="41.50259" lon="1.98117">
        <ele>288.4</ele>
        <time>2021-04-11 08:23:24</time>
      </trkpt>
      <trkpt lat="41.50262" lon="1.98117">
        <ele>288.4</ele>
        <time>2021-04-11 08:23:25</time>
      </trkpt>
      <trkpt lat="41.50266" lon="1.98117">
        <ele>288.4</ele>
        <time>2021-04-11 08:23:26</time>
      </trkpt>
      <trkpt lat="41.5027" lon="1.98117">
        <ele>288.4</ele>
        <time>2021-04-11 08:23:27</time>
      </trkpt>
      <trkpt lat="41.50274" lon="1.98116">
        <ele>288.4</ele>
        <time>2021-04-11 08:23:28</time>
      </trkpt>
      <trkpt lat="41.50278" lon="1.98116">
        <ele>288.4</ele>
        <time>2021-04-11 08:23:29</time>
      </trkpt>
      <trkpt lat="41.50281" lon="1.98115">
        <ele>288.4</ele>
        <time>2021-04-11 08:23:30</time>
      </trkpt>
      <trkpt lat="41.50285" lon="1.98115">
        <ele>288.4</ele>
        <time>2021-04-11 08:23:31</time>
      </trkpt>
      <trkpt lat="41.50289" lon="1.98114">
        <ele>288.4</ele>
        <time>2021-04-11 08:23:32</time>
      </trkpt>
      <trkpt lat="41.50293" lon="1.98114">
        <ele>288.4</ele>
        <time>2021-04-11 08:23:33</time>
      </trkpt>
      <trkpt lat="41.50297" lon="1.98114">
        <ele>288.4</ele>
        <time>2021-04-11 08:23:34</time>
      </trkpt>
      <trkpt lat="41.50301" lon="1.98113">
        <ele>288.4</ele>
        <time>2021-04-11 08:23:35</time>
      </trkpt>
      <trkpt lat="41.50305" lon="1.98113">
        <ele>288.4</ele>
        <time>2021-04-11 08:23:36</time>
      </trkpt>
      <trkpt lat="41.50309" lon="1.98112">
        <ele>288.4</ele>
        <time>2021-04-11 08:23:37</time>
      </trkpt>
      <trkpt lat="41.50313" lon="1.98112">
        <ele>288.4</ele>
        <time>2021-04-11 08:23:38</time>
      </trkpt>
      <trkpt lat="41.50317" lon="1.98111">
        <ele>288.4</ele>
        <time>2021-04-11 08:23:39</time>
      </trkpt>
      <trkpt lat="41.50322" lon="1.98111">
        <ele>288.6</ele>
        <time>2021-04-11 08:23:40</time>
      </trkpt>
      <trkpt lat="41.50325" lon="1.98111">
        <ele>288.6</ele>
        <time>2021-04-11 08:23:41</time>
      </trkpt>
      <trkpt lat="41.5033" lon="1.9811">
        <ele>288.6</ele>
        <time>2021-04-11 08:23:42</time>
      </trkpt>
      <trkpt lat="41.50334" lon="1.9811">
        <ele>288.6</ele>
        <time>2021-04-11 08:23:43</time>
      </trkpt>
      <trkpt lat="41.50338" lon="1.98109">
        <ele>288.6</ele>
        <time>2021-04-11 08:23:44</time>
      </trkpt>
      <trkpt lat="41.50342" lon="1.98109">
        <ele>288.6</ele>
        <time>2021-04-11 08:23:45</time>
      </trkpt>
      <trkpt lat="41.50346" lon="1.98108">
        <ele>288.6</ele>
        <time>2021-04-11 08:23:46</time>
      </trkpt>
      <trkpt lat="41.50351" lon="1.98108">
        <ele>288.8</ele>
        <time>2021-04-11 08:23:47</time>
      </trkpt>
      <trkpt lat="41.50354" lon="1.98108">
        <ele>288.8</ele>
        <time>2021-04-11 08:23:48</time>
      </trkpt>
      <trkpt lat="41.50359" lon="1.98107">
        <ele>288.8</ele>
        <time>2021-04-11 08:23:49</time>
      </trkpt>
      <trkpt lat="41.50363" lon="1.98107">
        <ele>288.8</ele>
        <time>2021-04-11 08:23:50</time>
      </trkpt>
      <trkpt lat="41.50367" lon="1.98106">
        <ele>288.8</ele>
        <time>2021-04-11 08:23:51</time>
      </trkpt>
      <trkpt lat="41.50371" lon="1.98106">
        <ele>288.6</ele>
        <time>2021-04-11 08:23:52</time>
      </trkpt>
      <trkpt lat="41.50376" lon="1.98105">
        <ele>288.6</ele>
        <time>2021-04-11 08:23:53</time>
      </trkpt>
      <trkpt lat="41.50381" lon="1.98104">
        <ele>288.6</ele>
        <time>2021-04-11 08:23:54</time>
      </trkpt>
      <trkpt lat="41.50385" lon="1.98104">
        <ele>288.6</ele>
        <time>2021-04-11 08:23:55</time>
      </trkpt>
      <trkpt lat="41.50389" lon="1.98103">
        <ele>288.6</ele>
        <time>2021-04-11 08:23:56</time>
      </trkpt>
      <trkpt lat="41.50394" lon="1.98103">
        <ele>288.6</ele>
        <time>2021-04-11 08:23:57</time>
      </trkpt>
      <trkpt lat="41.50398" lon="1.98102">
        <ele>288.6</ele>
        <time>2021-04-11 08:23:58</time>
      </trkpt>
      <trkpt lat="41.50403" lon="1.98101">
        <ele>288.6</ele>
        <time>2021-04-11 08:23:59</time>
      </trkpt>
      <trkpt lat="41.50407" lon="1.98101">
        <ele>288.6</ele>
        <time>2021-04-11 08:24:00</time>
      </trkpt>
      <trkpt lat="41.50412" lon="1.98101">
        <ele>288.6</ele>
        <time>2021-04-11 08:24:01</time>
      </trkpt>
      <trkpt lat="41.50416" lon="1.981">
        <ele>288.6</ele>
        <time>2021-04-11 08:24:02</time>
      </trkpt>
      <trkpt lat="41.5042" lon="1.981">
        <ele>288.8</ele>
        <time>2021-04-11 08:24:03</time>
      </trkpt>
      <trkpt lat="41.50425" lon="1.98099">
        <ele>288.6</ele>
        <time>2021-04-11 08:24:04</time>
      </trkpt>
      <trkpt lat="41.50429" lon="1.98099">
        <ele>288.8</ele>
        <time>2021-04-11 08:24:05</time>
      </trkpt>
      <trkpt lat="41.50434" lon="1.98098">
        <ele>288.8</ele>
        <time>2021-04-11 08:24:06</time>
      </trkpt>
      <trkpt lat="41.50438" lon="1.98098">
        <ele>288.6</ele>
        <time>2021-04-11 08:24:07</time>
      </trkpt>
      <trkpt lat="41.50443" lon="1.98097">
        <ele>288.8</ele>
        <time>2021-04-11 08:24:08</time>
      </trkpt>
      <trkpt lat="41.50447" lon="1.98097">
        <ele>288.6</ele>
        <time>2021-04-11 08:24:09</time>
      </trkpt>
      <trkpt lat="41.50451" lon="1.98097">
        <ele>288.6</ele>
        <time>2021-04-11 08:24:10</time>
      </trkpt>
      <trkpt lat="41.50456" lon="1.98096">
        <ele>288.6</ele>
        <time>2021-04-11 08:24:11</time>
      </trkpt>
      <trkpt lat="41.5046" lon="1.98096">
        <ele>288.6</ele>
        <time>2021-04-11 08:24:12</time>
      </trkpt>
      <trkpt lat="41.50465" lon="1.98095">
        <ele>288.6</ele>
        <time>2021-04-11 08:24:13</time>
      </trkpt>
      <trkpt lat="41.50469" lon="1.98095">
        <ele>288.6</ele>
        <time>2021-04-11 08:24:14</time>
      </trkpt>
      <trkpt lat="41.50474" lon="1.98094">
        <ele>288.6</ele>
        <time>2021-04-11 08:24:15</time>
      </trkpt>
      <trkpt lat="41.50478" lon="1.98094">
        <ele>288.4</ele>
        <time>2021-04-11 08:24:16</time>
      </trkpt>
      <trkpt lat="41.50483" lon="1.98094">
        <ele>288.4</ele>
        <time>2021-04-11 08:24:17</time>
      </trkpt>
      <trkpt lat="41.50488" lon="1.98094">
        <ele>288.2</ele>
        <time>2021-04-11 08:24:18</time>
      </trkpt>
      <trkpt lat="41.50493" lon="1.98094">
        <ele>288.2</ele>
        <time>2021-04-11 08:24:19</time>
      </trkpt>
      <trkpt lat="41.50498" lon="1.98094">
        <ele>288</ele>
        <time>2021-04-11 08:24:20</time>
      </trkpt>
      <trkpt lat="41.50504" lon="1.98094">
        <ele>287.8</ele>
        <time>2021-04-11 08:24:21</time>
      </trkpt>
      <trkpt lat="41.50509" lon="1.98095">
        <ele>287.6</ele>
        <time>2021-04-11 08:24:22</time>
      </trkpt>
      <trkpt lat="41.50515" lon="1.98097">
        <ele>287.4</ele>
        <time>2021-04-11 08:24:23</time>
      </trkpt>
      <trkpt lat="41.50521" lon="1.98099">
        <ele>287.2</ele>
        <time>2021-04-11 08:24:24</time>
      </trkpt>
      <trkpt lat="41.50526" lon="1.98102">
        <ele>287</ele>
        <time>2021-04-11 08:24:25</time>
      </trkpt>
      <trkpt lat="41.50531" lon="1.98106">
        <ele>286.8</ele>
        <time>2021-04-11 08:24:26</time>
      </trkpt>
      <trkpt lat="41.50535" lon="1.98111">
        <ele>286.6</ele>
        <time>2021-04-11 08:24:27</time>
      </trkpt>
      <trkpt lat="41.50539" lon="1.98117">
        <ele>286.4</ele>
        <time>2021-04-11 08:24:28</time>
      </trkpt>
      <trkpt lat="41.50543" lon="1.98124">
        <ele>286.2</ele>
        <time>2021-04-11 08:24:29</time>
      </trkpt>
      <trkpt lat="41.50546" lon="1.98131">
        <ele>286</ele>
        <time>2021-04-11 08:24:30</time>
      </trkpt>
      <trkpt lat="41.5055" lon="1.98138">
        <ele>285.6</ele>
        <time>2021-04-11 08:24:31</time>
      </trkpt>
      <trkpt lat="41.50553" lon="1.98146">
        <ele>285.4</ele>
        <time>2021-04-11 08:24:32</time>
      </trkpt>
      <trkpt lat="41.50557" lon="1.98154">
        <ele>285.2</ele>
        <time>2021-04-11 08:24:33</time>
      </trkpt>
      <trkpt lat="41.50561" lon="1.98162">
        <ele>285</ele>
        <time>2021-04-11 08:24:34</time>
      </trkpt>
      <trkpt lat="41.50565" lon="1.98169">
        <ele>284.8</ele>
        <time>2021-04-11 08:24:35</time>
      </trkpt>
      <trkpt lat="41.5057" lon="1.98177">
        <ele>284.4</ele>
        <time>2021-04-11 08:24:36</time>
      </trkpt>
      <trkpt lat="41.50574" lon="1.98183">
        <ele>284.2</ele>
        <time>2021-04-11 08:24:37</time>
      </trkpt>
      <trkpt lat="41.5058" lon="1.98189">
        <ele>284</ele>
        <time>2021-04-11 08:24:38</time>
      </trkpt>
      <trkpt lat="41.50586" lon="1.98193">
        <ele>283.8</ele>
        <time>2021-04-11 08:24:39</time>
      </trkpt>
      <trkpt lat="41.50592" lon="1.98197">
        <ele>283.8</ele>
        <time>2021-04-11 08:24:40</time>
      </trkpt>
      <trkpt lat="41.50599" lon="1.982">
        <ele>283.8</ele>
        <time>2021-04-11 08:24:41</time>
      </trkpt>
      <trkpt lat="41.50605" lon="1.98203">
        <ele>283.8</ele>
        <time>2021-04-11 08:24:42</time>
      </trkpt>
      <trkpt lat="41.50611" lon="1.98206">
        <ele>283.8</ele>
        <time>2021-04-11 08:24:43</time>
      </trkpt>
      <trkpt lat="41.50617" lon="1.98208">
        <ele>283.8</ele>
        <time>2021-04-11 08:24:44</time>
      </trkpt>
      <trkpt lat="41.50623" lon="1.98211">
        <ele>284</ele>
        <time>2021-04-11 08:24:45</time>
      </trkpt>
      <trkpt lat="41.50628" lon="1.98213">
        <ele>284</ele>
        <time>2021-04-11 08:24:46</time>
      </trkpt>
      <trkpt lat="41.50633" lon="1.98216">
        <ele>284.2</ele>
        <time>2021-04-11 08:24:47</time>
      </trkpt>
      <trkpt lat="41.50639" lon="1.98218">
        <ele>284.4</ele>
        <time>2021-04-11 08:24:48</time>
      </trkpt>
      <trkpt lat="41.50644" lon="1.9822">
        <ele>284.6</ele>
        <time>2021-04-11 08:24:49</time>
      </trkpt>
      <trkpt lat="41.50649" lon="1.98222">
        <ele>284.8</ele>
        <time>2021-04-11 08:24:50</time>
      </trkpt>
      <trkpt lat="41.50654" lon="1.98224">
        <ele>285.2</ele>
        <time>2021-04-11 08:24:51</time>
      </trkpt>
      <trkpt lat="41.50659" lon="1.98226">
        <ele>285.4</ele>
        <time>2021-04-11 08:24:52</time>
      </trkpt>
      <trkpt lat="41.50663" lon="1.98228">
        <ele>285.6</ele>
        <time>2021-04-11 08:24:53</time>
      </trkpt>
      <trkpt lat="41.50668" lon="1.9823">
        <ele>285.8</ele>
        <time>2021-04-11 08:24:54</time>
      </trkpt>
      <trkpt lat="41.50673" lon="1.98233">
        <ele>286.2</ele>
        <time>2021-04-11 08:24:55</time>
      </trkpt>
      <trkpt lat="41.50677" lon="1.98235">
        <ele>286.4</ele>
        <time>2021-04-11 08:24:56</time>
      </trkpt>
      <trkpt lat="41.50682" lon="1.98237">
        <ele>286.6</ele>
        <time>2021-04-11 08:24:57</time>
      </trkpt>
      <trkpt lat="41.50687" lon="1.98239">
        <ele>287</ele>
        <time>2021-04-11 08:24:58</time>
      </trkpt>
      <trkpt lat="41.50691" lon="1.98241">
        <ele>287</ele>
        <time>2021-04-11 08:24:59</time>
      </trkpt>
      <trkpt lat="41.50696" lon="1.98243">
        <ele>287.2</ele>
        <time>2021-04-11 08:25:00</time>
      </trkpt>
      <trkpt lat="41.507" lon="1.98245">
        <ele>287.4</ele>
        <time>2021-04-11 08:25:01</time>
      </trkpt>
      <trkpt lat="41.50705" lon="1.98247">
        <ele>287.4</ele>
        <time>2021-04-11 08:25:02</time>
      </trkpt>
      <trkpt lat="41.5071" lon="1.98249">
        <ele>287.6</ele>
        <time>2021-04-11 08:25:03</time>
      </trkpt>
      <trkpt lat="41.50715" lon="1.9825">
        <ele>287.6</ele>
        <time>2021-04-11 08:25:04</time>
      </trkpt>
      <trkpt lat="41.50721" lon="1.98251">
        <ele>287.8</ele>
        <time>2021-04-11 08:25:05</time>
      </trkpt>
      <trkpt lat="41.50726" lon="1.98252">
        <ele>287.8</ele>
        <time>2021-04-11 08:25:06</time>
      </trkpt>
      <trkpt lat="41.50731" lon="1.98251">
        <ele>287.8</ele>
        <time>2021-04-11 08:25:07</time>
      </trkpt>
      <trkpt lat="41.50736" lon="1.98251">
        <ele>288</ele>
        <time>2021-04-11 08:25:08</time>
      </trkpt>
      <trkpt lat="41.50742" lon="1.9825">
        <ele>288</ele>
        <time>2021-04-11 08:25:09</time>
      </trkpt>
      <trkpt lat="41.50747" lon="1.98248">
        <ele>288.2</ele>
        <time>2021-04-11 08:25:10</time>
      </trkpt>
      <trkpt lat="41.50752" lon="1.98246">
        <ele>288.2</ele>
        <time>2021-04-11 08:25:11</time>
      </trkpt>
      <trkpt lat="41.50757" lon="1.98244">
        <ele>288.4</ele>
        <time>2021-04-11 08:25:12</time>
      </trkpt>
      <trkpt lat="41.50761" lon="1.98241">
        <ele>288.4</ele>
        <time>2021-04-11 08:25:13</time>
      </trkpt>
      <trkpt lat="41.50766" lon="1.98239">
        <ele>288.6</ele>
        <time>2021-04-11 08:25:14</time>
      </trkpt>
      <trkpt lat="41.50771" lon="1.98236">
        <ele>288.6</ele>
        <time>2021-04-11 08:25:15</time>
      </trkpt>
      <trkpt lat="41.50776" lon="1.98233">
        <ele>288.6</ele>
        <time>2021-04-11 08:25:16</time>
      </trkpt>
      <trkpt lat="41.50781" lon="1.98231">
        <ele>288.8</ele>
        <time>2021-04-11 08:25:17</time>
      </trkpt>
      <trkpt lat="41.50786" lon="1.98228">
        <ele>288.8</ele>
        <time>2021-04-11 08:25:18</time>
      </trkpt>
      <trkpt lat="41.5079" lon="1.98225">
        <ele>289</ele>
        <time>2021-04-11 08:25:19</time>
      </trkpt>
      <trkpt lat="41.50795" lon="1.98222">
        <ele>289</ele>
        <time>2021-04-11 08:25:20</time>
      </trkpt>
      <trkpt lat="41.508" lon="1.9822">
        <ele>289.2</ele>
        <time>2021-04-11 08:25:21</time>
      </trkpt>
      <trkpt lat="41.50805" lon="1.98217">
        <ele>289.2</ele>
        <time>2021-04-11 08:25:22</time>
      </trkpt>
      <trkpt lat="41.5081" lon="1.98214">
        <ele>289.4</ele>
        <time>2021-04-11 08:25:23</time>
      </trkpt>
      <trkpt lat="41.50815" lon="1.98212">
        <ele>289.4</ele>
        <time>2021-04-11 08:25:24</time>
      </trkpt>
      <trkpt lat="41.50819" lon="1.98209">
        <ele>289.6</ele>
        <time>2021-04-11 08:25:25</time>
      </trkpt>
      <trkpt lat="41.50824" lon="1.98206">
        <ele>289.6</ele>
        <time>2021-04-11 08:25:26</time>
      </trkpt>
      <trkpt lat="41.50829" lon="1.98203">
        <ele>289.6</ele>
        <time>2021-04-11 08:25:27</time>
      </trkpt>
      <trkpt lat="41.50834" lon="1.98201">
        <ele>289.8</ele>
        <time>2021-04-11 08:25:28</time>
      </trkpt>
      <trkpt lat="41.50839" lon="1.98198">
        <ele>289.8</ele>
        <time>2021-04-11 08:25:29</time>
      </trkpt>
      <trkpt lat="41.50844" lon="1.98196">
        <ele>290</ele>
        <time>2021-04-11 08:25:30</time>
      </trkpt>
      <trkpt lat="41.50849" lon="1.98193">
        <ele>290</ele>
        <time>2021-04-11 08:25:31</time>
      </trkpt>
      <trkpt lat="41.50854" lon="1.98191">
        <ele>290.2</ele>
        <time>2021-04-11 08:25:32</time>
      </trkpt>
      <trkpt lat="41.50859" lon="1.98189">
        <ele>290.4</ele>
        <time>2021-04-11 08:25:33</time>
      </trkpt>
      <trkpt lat="41.50864" lon="1.98187">
        <ele>290.4</ele>
        <time>2021-04-11 08:25:34</time>
      </trkpt>
      <trkpt lat="41.50868" lon="1.98185">
        <ele>290.6</ele>
        <time>2021-04-11 08:25:35</time>
      </trkpt>
      <trkpt lat="41.50873" lon="1.98183">
        <ele>290.8</ele>
        <time>2021-04-11 08:25:36</time>
      </trkpt>
      <trkpt lat="41.50878" lon="1.98182">
        <ele>291</ele>
        <time>2021-04-11 08:25:37</time>
      </trkpt>
      <trkpt lat="41.50883" lon="1.9818">
        <ele>291.2</ele>
        <time>2021-04-11 08:25:38</time>
      </trkpt>
      <trkpt lat="41.50887" lon="1.98179">
        <ele>291.4</ele>
        <time>2021-04-11 08:25:39</time>
      </trkpt>
      <trkpt lat="41.50891" lon="1.98178">
        <ele>291.8</ele>
        <time>2021-04-11 08:25:40</time>
      </trkpt>
      <trkpt lat="41.50896" lon="1.98177">
        <ele>292</ele>
        <time>2021-04-11 08:25:41</time>
      </trkpt>
      <trkpt lat="41.50899" lon="1.98176">
        <ele>292.4</ele>
        <time>2021-04-11 08:25:42</time>
      </trkpt>
      <trkpt lat="41.50904" lon="1.98175">
        <ele>292.8</ele>
        <time>2021-04-11 08:25:43</time>
      </trkpt>
      <trkpt lat="41.50908" lon="1.98174">
        <ele>293</ele>
        <time>2021-04-11 08:25:44</time>
      </trkpt>
      <trkpt lat="41.50912" lon="1.98173">
        <ele>293.4</ele>
        <time>2021-04-11 08:25:45</time>
      </trkpt>
      <trkpt lat="41.50916" lon="1.98172">
        <ele>293.8</ele>
        <time>2021-04-11 08:25:46</time>
      </trkpt>
      <trkpt lat="41.5092" lon="1.98171">
        <ele>294.2</ele>
        <time>2021-04-11 08:25:47</time>
      </trkpt>
      <trkpt lat="41.50924" lon="1.9817">
        <ele>294.4</ele>
        <time>2021-04-11 08:25:48</time>
      </trkpt>
      <trkpt lat="41.50928" lon="1.98169">
        <ele>294.8</ele>
        <time>2021-04-11 08:25:49</time>
      </trkpt>
      <trkpt lat="41.50931" lon="1.98168">
        <ele>295.2</ele>
        <time>2021-04-11 08:25:50</time>
      </trkpt>
      <trkpt lat="41.50935" lon="1.98167">
        <ele>295.4</ele>
        <time>2021-04-11 08:25:51</time>
      </trkpt>
      <trkpt lat="41.50939" lon="1.98167">
        <ele>295.8</ele>
        <time>2021-04-11 08:25:52</time>
      </trkpt>
      <trkpt lat="41.50943" lon="1.98166">
        <ele>296.2</ele>
        <time>2021-04-11 08:25:53</time>
      </trkpt>
      <trkpt lat="41.50947" lon="1.98165">
        <ele>296.6</ele>
        <time>2021-04-11 08:25:54</time>
      </trkpt>
      <trkpt lat="41.5095" lon="1.98164">
        <ele>297</ele>
        <time>2021-04-11 08:25:55</time>
      </trkpt>
      <trkpt lat="41.50954" lon="1.98163">
        <ele>297.4</ele>
        <time>2021-04-11 08:25:56</time>
      </trkpt>
      <trkpt lat="41.50958" lon="1.98163">
        <ele>297.6</ele>
        <time>2021-04-11 08:25:57</time>
      </trkpt>
      <trkpt lat="41.50962" lon="1.98162">
        <ele>298</ele>
        <time>2021-04-11 08:25:58</time>
      </trkpt>
      <trkpt lat="41.50966" lon="1.98161">
        <ele>298.2</ele>
        <time>2021-04-11 08:25:59</time>
      </trkpt>
      <trkpt lat="41.5097" lon="1.98161">
        <ele>298.6</ele>
        <time>2021-04-11 08:26:00</time>
      </trkpt>
      <trkpt lat="41.50974" lon="1.98161">
        <ele>298.8</ele>
        <time>2021-04-11 08:26:01</time>
      </trkpt>
      <trkpt lat="41.50978" lon="1.98161">
        <ele>299.2</ele>
        <time>2021-04-11 08:26:02</time>
      </trkpt>
      <trkpt lat="41.50982" lon="1.98161">
        <ele>299.4</ele>
        <time>2021-04-11 08:26:03</time>
      </trkpt>
      <trkpt lat="41.50985" lon="1.98161">
        <ele>299.8</ele>
        <time>2021-04-11 08:26:04</time>
      </trkpt>
      <trkpt lat="41.50989" lon="1.98161">
        <ele>300</ele>
        <time>2021-04-11 08:26:05</time>
      </trkpt>
      <trkpt lat="41.50994" lon="1.98161">
        <ele>300.4</ele>
        <time>2021-04-11 08:26:06</time>
      </trkpt>
      <trkpt lat="41.50997" lon="1.98162">
        <ele>300.6</ele>
        <time>2021-04-11 08:26:07</time>
      </trkpt>
      <trkpt lat="41.51002" lon="1.98163">
        <ele>301</ele>
        <time>2021-04-11 08:26:08</time>
      </trkpt>
      <trkpt lat="41.51005" lon="1.98164">
        <ele>301.2</ele>
        <time>2021-04-11 08:26:09</time>
      </trkpt>
      <trkpt lat="41.51009" lon="1.98166">
        <ele>301.6</ele>
        <time>2021-04-11 08:26:10</time>
      </trkpt>
      <trkpt lat="41.51013" lon="1.98168">
        <ele>301.8</ele>
        <time>2021-04-11 08:26:11</time>
      </trkpt>
      <trkpt lat="41.51016" lon="1.98169">
        <ele>301.8</ele>
        <time>2021-04-11 08:26:12</time>
      </trkpt>
      <trkpt lat="41.5102" lon="1.98171">
        <ele>302</ele>
        <time>2021-04-11 08:26:13</time>
      </trkpt>
      <trkpt lat="41.51024" lon="1.98173">
        <ele>302.2</ele>
        <time>2021-04-11 08:26:14</time>
      </trkpt>
      <trkpt lat="41.51028" lon="1.98175">
        <ele>302.2</ele>
        <time>2021-04-11 08:26:15</time>
      </trkpt>
      <trkpt lat="41.51032" lon="1.98177">
        <ele>302.4</ele>
        <time>2021-04-11 08:26:16</time>
      </trkpt>
      <trkpt lat="41.51036" lon="1.9818">
        <ele>302.4</ele>
        <time>2021-04-11 08:26:17</time>
      </trkpt>
      <trkpt lat="41.51041" lon="1.98182">
        <ele>302.4</ele>
        <time>2021-04-11 08:26:18</time>
      </trkpt>
      <trkpt lat="41.51045" lon="1.98185">
        <ele>302.4</ele>
        <time>2021-04-11 08:26:19</time>
      </trkpt>
      <trkpt lat="41.51049" lon="1.98187">
        <ele>302.4</ele>
        <time>2021-04-11 08:26:20</time>
      </trkpt>
      <trkpt lat="41.51055" lon="1.9819">
        <ele>302.2</ele>
        <time>2021-04-11 08:26:21</time>
      </trkpt>
      <trkpt lat="41.5106" lon="1.98193">
        <ele>302.2</ele>
        <time>2021-04-11 08:26:22</time>
      </trkpt>
      <trkpt lat="41.51065" lon="1.98195">
        <ele>302.2</ele>
        <time>2021-04-11 08:26:23</time>
      </trkpt>
      <trkpt lat="41.5107" lon="1.98198">
        <ele>302</ele>
        <time>2021-04-11 08:26:24</time>
      </trkpt>
      <trkpt lat="41.51075" lon="1.98201">
        <ele>302</ele>
        <time>2021-04-11 08:26:25</time>
      </trkpt>
      <trkpt lat="41.51081" lon="1.98203">
        <ele>301.8</ele>
        <time>2021-04-11 08:26:26</time>
      </trkpt>
      <trkpt lat="41.51086" lon="1.98205">
        <ele>301.8</ele>
        <time>2021-04-11 08:26:27</time>
      </trkpt>
      <trkpt lat="41.51092" lon="1.98207">
        <ele>301.6</ele>
        <time>2021-04-11 08:26:28</time>
      </trkpt>
      <trkpt lat="41.51098" lon="1.98208">
        <ele>301.6</ele>
        <time>2021-04-11 08:26:29</time>
      </trkpt>
      <trkpt lat="41.51103" lon="1.98209">
        <ele>301.8</ele>
        <time>2021-04-11 08:26:30</time>
      </trkpt>
      <trkpt lat="41.51108" lon="1.9821">
        <ele>301.8</ele>
        <time>2021-04-11 08:26:31</time>
      </trkpt>
      <trkpt lat="41.51114" lon="1.98211">
        <ele>302</ele>
        <time>2021-04-11 08:26:32</time>
      </trkpt>
      <trkpt lat="41.51118" lon="1.98212">
        <ele>302.2</ele>
        <time>2021-04-11 08:26:33</time>
      </trkpt>
      <trkpt lat="41.51123" lon="1.98213">
        <ele>302.4</ele>
        <time>2021-04-11 08:26:34</time>
      </trkpt>
      <trkpt lat="41.51128" lon="1.98214">
        <ele>302.6</ele>
        <time>2021-04-11 08:26:35</time>
      </trkpt>
      <trkpt lat="41.51133" lon="1.98215">
        <ele>302.8</ele>
        <time>2021-04-11 08:26:36</time>
      </trkpt>
      <trkpt lat="41.51137" lon="1.98216">
        <ele>303</ele>
        <time>2021-04-11 08:26:37</time>
      </trkpt>
      <trkpt lat="41.51141" lon="1.98217">
        <ele>303.2</ele>
        <time>2021-04-11 08:26:38</time>
      </trkpt>
      <trkpt lat="41.51145" lon="1.98218">
        <ele>303.6</ele>
        <time>2021-04-11 08:26:39</time>
      </trkpt>
      <trkpt lat="41.5115" lon="1.98218">
        <ele>303.8</ele>
        <time>2021-04-11 08:26:40</time>
      </trkpt>
      <trkpt lat="41.51154" lon="1.98219">
        <ele>304.2</ele>
        <time>2021-04-11 08:26:41</time>
      </trkpt>
      <trkpt lat="41.51158" lon="1.9822">
        <ele>304.4</ele>
        <time>2021-04-11 08:26:42</time>
      </trkpt>
      <trkpt lat="41.51163" lon="1.98221">
        <ele>304.6</ele>
        <time>2021-04-11 08:26:43</time>
      </trkpt>
      <trkpt lat="41.51166" lon="1.98222">
        <ele>305</ele>
        <time>2021-04-11 08:26:44</time>
      </trkpt>
      <trkpt lat="41.51171" lon="1.98222">
        <ele>305.2</ele>
        <time>2021-04-11 08:26:45</time>
      </trkpt>
      <trkpt lat="41.51174" lon="1.98223">
        <ele>305.4</ele>
        <time>2021-04-11 08:26:46</time>
      </trkpt>
      <trkpt lat="41.51178" lon="1.98224">
        <ele>305.8</ele>
        <time>2021-04-11 08:26:47</time>
      </trkpt>
      <trkpt lat="41.51182" lon="1.98225">
        <ele>306</ele>
        <time>2021-04-11 08:26:48</time>
      </trkpt>
      <trkpt lat="41.51186" lon="1.98225">
        <ele>306.4</ele>
        <time>2021-04-11 08:26:49</time>
      </trkpt>
      <trkpt lat="41.5119" lon="1.98226">
        <ele>306.6</ele>
        <time>2021-04-11 08:26:50</time>
      </trkpt>
      <trkpt lat="41.51194" lon="1.98227">
        <ele>306.8</ele>
        <time>2021-04-11 08:26:51</time>
      </trkpt>
      <trkpt lat="41.51198" lon="1.98227">
        <ele>307.2</ele>
        <time>2021-04-11 08:26:52</time>
      </trkpt>
      <trkpt lat="41.51202" lon="1.98228">
        <ele>307.4</ele>
        <time>2021-04-11 08:26:53</time>
      </trkpt>
      <trkpt lat="41.51205" lon="1.98229">
        <ele>307.6</ele>
        <time>2021-04-11 08:26:54</time>
      </trkpt>
      <trkpt lat="41.5121" lon="1.98229">
        <ele>308</ele>
        <time>2021-04-11 08:26:55</time>
      </trkpt>
      <trkpt lat="41.51213" lon="1.9823">
        <ele>308.2</ele>
        <time>2021-04-11 08:26:56</time>
      </trkpt>
      <trkpt lat="41.51217" lon="1.98231">
        <ele>308.6</ele>
        <time>2021-04-11 08:26:57</time>
      </trkpt>
      <trkpt lat="41.51221" lon="1.98231">
        <ele>308.8</ele>
        <time>2021-04-11 08:26:58</time>
      </trkpt>
      <trkpt lat="41.51224" lon="1.98232">
        <ele>309</ele>
        <time>2021-04-11 08:26:59</time>
      </trkpt>
      <trkpt lat="41.51228" lon="1.98233">
        <ele>309.4</ele>
        <time>2021-04-11 08:27:00</time>
      </trkpt>
      <trkpt lat="41.51232" lon="1.98233">
        <ele>309.6</ele>
        <time>2021-04-11 08:27:01</time>
      </trkpt>
      <trkpt lat="41.51235" lon="1.98234">
        <ele>310</ele>
        <time>2021-04-11 08:27:02</time>
      </trkpt>
      <trkpt lat="41.51239" lon="1.98234">
        <ele>310.2</ele>
        <time>2021-04-11 08:27:03</time>
      </trkpt>
      <trkpt lat="41.51242" lon="1.98235">
        <ele>310.4</ele>
        <time>2021-04-11 08:27:04</time>
      </trkpt>
      <trkpt lat="41.51246" lon="1.98235">
        <ele>310.8</ele>
        <time>2021-04-11 08:27:05</time>
      </trkpt>
      <trkpt lat="41.5125" lon="1.98235">
        <ele>311</ele>
        <time>2021-04-11 08:27:06</time>
      </trkpt>
      <trkpt lat="41.51254" lon="1.98234">
        <ele>311.2</ele>
        <time>2021-04-11 08:27:07</time>
      </trkpt>
      <trkpt lat="41.51258" lon="1.98234">
        <ele>311.6</ele>
        <time>2021-04-11 08:27:08</time>
      </trkpt>
      <trkpt lat="41.51261" lon="1.98234">
        <ele>311.8</ele>
        <time>2021-04-11 08:27:09</time>
      </trkpt>
      <trkpt lat="41.51264" lon="1.98233">
        <ele>312</ele>
        <time>2021-04-11 08:27:10</time>
      </trkpt>
      <trkpt lat="41.51268" lon="1.98232">
        <ele>312.4</ele>
        <time>2021-04-11 08:27:11</time>
      </trkpt>
      <trkpt lat="41.51272" lon="1.98231">
        <ele>312.6</ele>
        <time>2021-04-11 08:27:12</time>
      </trkpt>
      <trkpt lat="41.51275" lon="1.98229">
        <ele>312.8</ele>
        <time>2021-04-11 08:27:13</time>
      </trkpt>
      <trkpt lat="41.51278" lon="1.98227">
        <ele>313.2</ele>
        <time>2021-04-11 08:27:14</time>
      </trkpt>
      <trkpt lat="41.51281" lon="1.98226">
        <ele>313.4</ele>
        <time>2021-04-11 08:27:15</time>
      </trkpt>
      <trkpt lat="41.51285" lon="1.98224">
        <ele>313.6</ele>
        <time>2021-04-11 08:27:16</time>
      </trkpt>
      <trkpt lat="41.51288" lon="1.98222">
        <ele>314</ele>
        <time>2021-04-11 08:27:17</time>
      </trkpt>
      <trkpt lat="41.51291" lon="1.9822">
        <ele>314.2</ele>
        <time>2021-04-11 08:27:18</time>
      </trkpt>
      <trkpt lat="41.51294" lon="1.98218">
        <ele>314.4</ele>
        <time>2021-04-11 08:27:19</time>
      </trkpt>
      <trkpt lat="41.51298" lon="1.98217">
        <ele>314.6</ele>
        <time>2021-04-11 08:27:20</time>
      </trkpt>
      <trkpt lat="41.51301" lon="1.98215">
        <ele>314.8</ele>
        <time>2021-04-11 08:27:21</time>
      </trkpt>
      <trkpt lat="41.51304" lon="1.98213">
        <ele>315</ele>
        <time>2021-04-11 08:27:22</time>
      </trkpt>
      <trkpt lat="41.51307" lon="1.98211">
        <ele>315.2</ele>
        <time>2021-04-11 08:27:23</time>
      </trkpt>
      <trkpt lat="41.51311" lon="1.98209">
        <ele>315.6</ele>
        <time>2021-04-11 08:27:24</time>
      </trkpt>
      <trkpt lat="41.51314" lon="1.98207">
        <ele>315.8</ele>
        <time>2021-04-11 08:27:25</time>
      </trkpt>
      <trkpt lat="41.51317" lon="1.98205">
        <ele>316</ele>
        <time>2021-04-11 08:27:26</time>
      </trkpt>
      <trkpt lat="41.5132" lon="1.98203">
        <ele>316.4</ele>
        <time>2021-04-11 08:27:27</time>
      </trkpt>
      <trkpt lat="41.51323" lon="1.98202">
        <ele>316.6</ele>
        <time>2021-04-11 08:27:28</time>
      </trkpt>
      <trkpt lat="41.51326" lon="1.982">
        <ele>316.8</ele>
        <time>2021-04-11 08:27:29</time>
      </trkpt>
      <trkpt lat="41.51329" lon="1.98199">
        <ele>317</ele>
        <time>2021-04-11 08:27:30</time>
      </trkpt>
      <trkpt lat="41.51332" lon="1.98198">
        <ele>317.2</ele>
        <time>2021-04-11 08:27:31</time>
      </trkpt>
      <trkpt lat="41.51335" lon="1.98197">
        <ele>317.4</ele>
        <time>2021-04-11 08:27:32</time>
      </trkpt>
      <trkpt lat="41.51338" lon="1.98197">
        <ele>317.8</ele>
        <time>2021-04-11 08:27:33</time>
      </trkpt>
      <trkpt lat="41.51342" lon="1.98196">
        <ele>318</ele>
        <time>2021-04-11 08:27:34</time>
      </trkpt>
      <trkpt lat="41.51345" lon="1.98196">
        <ele>318.2</ele>
        <time>2021-04-11 08:27:35</time>
      </trkpt>
      <trkpt lat="41.51348" lon="1.98196">
        <ele>318.4</ele>
        <time>2021-04-11 08:27:36</time>
      </trkpt>
      <trkpt lat="41.51351" lon="1.98196">
        <ele>318.6</ele>
        <time>2021-04-11 08:27:37</time>
      </trkpt>
      <trkpt lat="41.51355" lon="1.98196">
        <ele>319</ele>
        <time>2021-04-11 08:27:38</time>
      </trkpt>
      <trkpt lat="41.51358" lon="1.98196">
        <ele>319.2</ele>
        <time>2021-04-11 08:27:39</time>
      </trkpt>
      <trkpt lat="41.51361" lon="1.98196">
        <ele>319.4</ele>
        <time>2021-04-11 08:27:40</time>
      </trkpt>
      <trkpt lat="41.51365" lon="1.98197">
        <ele>319.6</ele>
        <time>2021-04-11 08:27:41</time>
      </trkpt>
      <trkpt lat="41.51368" lon="1.98197">
        <ele>319.8</ele>
        <time>2021-04-11 08:27:42</time>
      </trkpt>
      <trkpt lat="41.51371" lon="1.98197">
        <ele>320.2</ele>
        <time>2021-04-11 08:27:43</time>
      </trkpt>
      <trkpt lat="41.51374" lon="1.98197">
        <ele>320.4</ele>
        <time>2021-04-11 08:27:44</time>
      </trkpt>
      <trkpt lat="41.51377" lon="1.98197">
        <ele>320.6</ele>
        <time>2021-04-11 08:27:45</time>
      </trkpt>
      <trkpt lat="41.5138" lon="1.98197">
        <ele>320.8</ele>
        <time>2021-04-11 08:27:46</time>
      </trkpt>
      <trkpt lat="41.51384" lon="1.98197">
        <ele>321</ele>
        <time>2021-04-11 08:27:47</time>
      </trkpt>
      <trkpt lat="41.51387" lon="1.98197">
        <ele>321.2</ele>
        <time>2021-04-11 08:27:48</time>
      </trkpt>
      <trkpt lat="41.5139" lon="1.98198">
        <ele>321.6</ele>
        <time>2021-04-11 08:27:49</time>
      </trkpt>
      <trkpt lat="41.51394" lon="1.98198">
        <ele>321.8</ele>
        <time>2021-04-11 08:27:50</time>
      </trkpt>
      <trkpt lat="41.51396" lon="1.98198">
        <ele>322</ele>
        <time>2021-04-11 08:27:51</time>
      </trkpt>
      <trkpt lat="41.514" lon="1.98198">
        <ele>322.2</ele>
        <time>2021-04-11 08:27:52</time>
      </trkpt>
      <trkpt lat="41.51403" lon="1.98199">
        <ele>322.4</ele>
        <time>2021-04-11 08:27:53</time>
      </trkpt>
      <trkpt lat="41.51406" lon="1.98199">
        <ele>322.6</ele>
        <time>2021-04-11 08:27:54</time>
      </trkpt>
      <trkpt lat="41.51409" lon="1.98199">
        <ele>323</ele>
        <time>2021-04-11 08:27:55</time>
      </trkpt>
      <trkpt lat="41.51413" lon="1.98199">
        <ele>323.2</ele>
        <time>2021-04-11 08:27:56</time>
      </trkpt>
      <trkpt lat="41.51416" lon="1.98199">
        <ele>323.4</ele>
        <time>2021-04-11 08:27:57</time>
      </trkpt>
      <trkpt lat="41.51419" lon="1.98199">
        <ele>323.8</ele>
        <time>2021-04-11 08:27:58</time>
      </trkpt>
      <trkpt lat="41.51422" lon="1.98199">
        <ele>324</ele>
        <time>2021-04-11 08:27:59</time>
      </trkpt>
      <trkpt lat="41.51425" lon="1.98198">
        <ele>324.2</ele>
        <time>2021-04-11 08:28:00</time>
      </trkpt>
      <trkpt lat="41.51429" lon="1.98198">
        <ele>324.4</ele>
        <time>2021-04-11 08:28:01</time>
      </trkpt>
      <trkpt lat="41.51432" lon="1.98197">
        <ele>324.8</ele>
        <time>2021-04-11 08:28:02</time>
      </trkpt>
      <trkpt lat="41.51435" lon="1.98196">
        <ele>325</ele>
        <time>2021-04-11 08:28:03</time>
      </trkpt>
      <trkpt lat="41.51438" lon="1.98195">
        <ele>325.2</ele>
        <time>2021-04-11 08:28:04</time>
      </trkpt>
      <trkpt lat="41.51441" lon="1.98194">
        <ele>325.4</ele>
        <time>2021-04-11 08:28:05</time>
      </trkpt>
      <trkpt lat="41.51444" lon="1.98192">
        <ele>325.6</ele>
        <time>2021-04-11 08:28:06</time>
      </trkpt>
      <trkpt lat="41.51447" lon="1.98191">
        <ele>326</ele>
        <time>2021-04-11 08:28:07</time>
      </trkpt>
      <trkpt lat="41.5145" lon="1.98189">
        <ele>326.2</ele>
        <time>2021-04-11 08:28:08</time>
      </trkpt>
      <trkpt lat="41.51453" lon="1.98187">
        <ele>326.4</ele>
        <time>2021-04-11 08:28:09</time>
      </trkpt>
      <trkpt lat="41.51456" lon="1.98184">
        <ele>326.6</ele>
        <time>2021-04-11 08:28:10</time>
      </trkpt>
      <trkpt lat="41.51458" lon="1.98182">
        <ele>326.8</ele>
        <time>2021-04-11 08:28:11</time>
      </trkpt>
      <trkpt lat="41.51461" lon="1.98179">
        <ele>326.8</ele>
        <time>2021-04-11 08:28:12</time>
      </trkpt>
      <trkpt lat="41.51464" lon="1.98176">
        <ele>327</ele>
        <time>2021-04-11 08:28:13</time>
      </trkpt>
      <trkpt lat="41.51467" lon="1.98173">
        <ele>327.2</ele>
        <time>2021-04-11 08:28:14</time>
      </trkpt>
      <trkpt lat="41.5147" lon="1.9817">
        <ele>327.2</ele>
        <time>2021-04-11 08:28:15</time>
      </trkpt>
      <trkpt lat="41.51473" lon="1.98167">
        <ele>327.2</ele>
        <time>2021-04-11 08:28:16</time>
      </trkpt>
      <trkpt lat="41.51476" lon="1.98165">
        <ele>327.4</ele>
        <time>2021-04-11 08:28:17</time>
      </trkpt>
      <trkpt lat="41.51479" lon="1.98162">
        <ele>327.4</ele>
        <time>2021-04-11 08:28:18</time>
      </trkpt>
      <trkpt lat="41.51482" lon="1.98159">
        <ele>327.4</ele>
        <time>2021-04-11 08:28:19</time>
      </trkpt>
      <trkpt lat="41.51485" lon="1.98156">
        <ele>327.6</ele>
        <time>2021-04-11 08:28:20</time>
      </trkpt>
      <trkpt lat="41.51488" lon="1.98153">
        <ele>327.6</ele>
        <time>2021-04-11 08:28:21</time>
      </trkpt>
      <trkpt lat="41.5149" lon="1.98151">
        <ele>327.8</ele>
        <time>2021-04-11 08:28:22</time>
      </trkpt>
      <trkpt lat="41.51493" lon="1.98148">
        <ele>327.8</ele>
        <time>2021-04-11 08:28:23</time>
      </trkpt>
      <trkpt lat="41.51496" lon="1.98146">
        <ele>327.8</ele>
        <time>2021-04-11 08:28:24</time>
      </trkpt>
      <trkpt lat="41.51499" lon="1.98143">
        <ele>328</ele>
        <time>2021-04-11 08:28:25</time>
      </trkpt>
      <trkpt lat="41.51501" lon="1.98141">
        <ele>328</ele>
        <time>2021-04-11 08:28:26</time>
      </trkpt>
      <trkpt lat="41.51504" lon="1.98138">
        <ele>328.2</ele>
        <time>2021-04-11 08:28:27</time>
      </trkpt>
      <trkpt lat="41.51507" lon="1.98136">
        <ele>328.2</ele>
        <time>2021-04-11 08:28:28</time>
      </trkpt>
      <trkpt lat="41.5151" lon="1.98134">
        <ele>328.2</ele>
        <time>2021-04-11 08:28:29</time>
      </trkpt>
      <trkpt lat="41.51512" lon="1.98132">
        <ele>328.4</ele>
        <time>2021-04-11 08:28:30</time>
      </trkpt>
      <trkpt lat="41.51515" lon="1.9813">
        <ele>328.4</ele>
        <time>2021-04-11 08:28:31</time>
      </trkpt>
      <trkpt lat="41.51519" lon="1.98128">
        <ele>328.4</ele>
        <time>2021-04-11 08:28:32</time>
      </trkpt>
      <trkpt lat="41.51522" lon="1.98126">
        <ele>328.6</ele>
        <time>2021-04-11 08:28:33</time>
      </trkpt>
      <trkpt lat="41.51526" lon="1.98125">
        <ele>328.6</ele>
        <time>2021-04-11 08:28:34</time>
      </trkpt>
      <trkpt lat="41.5153" lon="1.98124">
        <ele>328.8</ele>
        <time>2021-04-11 08:28:35</time>
      </trkpt>
      <trkpt lat="41.51533" lon="1.98122">
        <ele>328.8</ele>
        <time>2021-04-11 08:28:36</time>
      </trkpt>
      <trkpt lat="41.51537" lon="1.98122">
        <ele>328.8</ele>
        <time>2021-04-11 08:28:37</time>
      </trkpt>
      <trkpt lat="41.51541" lon="1.98121">
        <ele>328.8</ele>
        <time>2021-04-11 08:28:38</time>
      </trkpt>
      <trkpt lat="41.51545" lon="1.9812">
        <ele>329</ele>
        <time>2021-04-11 08:28:39</time>
      </trkpt>
      <trkpt lat="41.51549" lon="1.9812">
        <ele>329</ele>
        <time>2021-04-11 08:28:40</time>
      </trkpt>
      <trkpt lat="41.51553" lon="1.9812">
        <ele>329.2</ele>
        <time>2021-04-11 08:28:41</time>
      </trkpt>
      <trkpt lat="41.51557" lon="1.98121">
        <ele>329.2</ele>
        <time>2021-04-11 08:28:42</time>
      </trkpt>
      <trkpt lat="41.51561" lon="1.98121">
        <ele>329.4</ele>
        <time>2021-04-11 08:28:43</time>
      </trkpt>
      <trkpt lat="41.51564" lon="1.98122">
        <ele>329.4</ele>
        <time>2021-04-11 08:28:44</time>
      </trkpt>
      <trkpt lat="41.51568" lon="1.98123">
        <ele>329.4</ele>
        <time>2021-04-11 08:28:45</time>
      </trkpt>
      <trkpt lat="41.51572" lon="1.98124">
        <ele>329.6</ele>
        <time>2021-04-11 08:28:46</time>
      </trkpt>
      <trkpt lat="41.51575" lon="1.98126">
        <ele>329.6</ele>
        <time>2021-04-11 08:28:47</time>
      </trkpt>
      <trkpt lat="41.51579" lon="1.98127">
        <ele>329.8</ele>
        <time>2021-04-11 08:28:48</time>
      </trkpt>
      <trkpt lat="41.51583" lon="1.98128">
        <ele>329.8</ele>
        <time>2021-04-11 08:28:49</time>
      </trkpt>
      <trkpt lat="41.51586" lon="1.98129">
        <ele>330</ele>
        <time>2021-04-11 08:28:50</time>
      </trkpt>
      <trkpt lat="41.5159" lon="1.98131">
        <ele>330</ele>
        <time>2021-04-11 08:28:51</time>
      </trkpt>
      <trkpt lat="41.51593" lon="1.98132">
        <ele>330.2</ele>
        <time>2021-04-11 08:28:52</time>
      </trkpt>
      <trkpt lat="41.51597" lon="1.98133">
        <ele>330.2</ele>
        <time>2021-04-11 08:28:53</time>
      </trkpt>
      <trkpt lat="41.51601" lon="1.98135">
        <ele>330.4</ele>
        <time>2021-04-11 08:28:54</time>
      </trkpt>
      <trkpt lat="41.51604" lon="1.98136">
        <ele>330.4</ele>
        <time>2021-04-11 08:28:55</time>
      </trkpt>
      <trkpt lat="41.51608" lon="1.98137">
        <ele>330.4</ele>
        <time>2021-04-11 08:28:56</time>
      </trkpt>
      <trkpt lat="41.51612" lon="1.98139">
        <ele>330.6</ele>
        <time>2021-04-11 08:28:57</time>
      </trkpt>
      <trkpt lat="41.51615" lon="1.98141">
        <ele>330.6</ele>
        <time>2021-04-11 08:28:58</time>
      </trkpt>
      <trkpt lat="41.51619" lon="1.98142">
        <ele>330.6</ele>
        <time>2021-04-11 08:28:59</time>
      </trkpt>
      <trkpt lat="41.51623" lon="1.98143">
        <ele>330.8</ele>
        <time>2021-04-11 08:29:00</time>
      </trkpt>
      <trkpt lat="41.51627" lon="1.98145">
        <ele>330.8</ele>
        <time>2021-04-11 08:29:01</time>
      </trkpt>
      <trkpt lat="41.5163" lon="1.98146">
        <ele>330.8</ele>
        <time>2021-04-11 08:29:02</time>
      </trkpt>
      <trkpt lat="41.51634" lon="1.98147">
        <ele>331</ele>
        <time>2021-04-11 08:29:03</time>
      </trkpt>
      <trkpt lat="41.51638" lon="1.98149">
        <ele>331</ele>
        <time>2021-04-11 08:29:04</time>
      </trkpt>
      <trkpt lat="41.51642" lon="1.9815">
        <ele>331.2</ele>
        <time>2021-04-11 08:29:05</time>
      </trkpt>
      <trkpt lat="41.51645" lon="1.98151">
        <ele>331.4</ele>
        <time>2021-04-11 08:29:06</time>
      </trkpt>
      <trkpt lat="41.51649" lon="1.98153">
        <ele>331.4</ele>
        <time>2021-04-11 08:29:07</time>
      </trkpt>
      <trkpt lat="41.51652" lon="1.98154">
        <ele>331.6</ele>
        <time>2021-04-11 08:29:08</time>
      </trkpt>
      <trkpt lat="41.51657" lon="1.98155">
        <ele>331.6</ele>
        <time>2021-04-11 08:29:09</time>
      </trkpt>
      <trkpt lat="41.5166" lon="1.98157">
        <ele>331.8</ele>
        <time>2021-04-11 08:29:10</time>
      </trkpt>
      <trkpt lat="41.51664" lon="1.98158">
        <ele>331.8</ele>
        <time>2021-04-11 08:29:11</time>
      </trkpt>
      <trkpt lat="41.51668" lon="1.9816">
        <ele>332</ele>
        <time>2021-04-11 08:29:12</time>
      </trkpt>
      <trkpt lat="41.51672" lon="1.98161">
        <ele>332</ele>
        <time>2021-04-11 08:29:13</time>
      </trkpt>
      <trkpt lat="41.51676" lon="1.98163">
        <ele>332.2</ele>
        <time>2021-04-11 08:29:14</time>
      </trkpt>
      <trkpt lat="41.5168" lon="1.98164">
        <ele>332.2</ele>
        <time>2021-04-11 08:29:15</time>
      </trkpt>
      <trkpt lat="41.51684" lon="1.98166">
        <ele>332.4</ele>
        <time>2021-04-11 08:29:16</time>
      </trkpt>
      <trkpt lat="41.51688" lon="1.98167">
        <ele>332.4</ele>
        <time>2021-04-11 08:29:17</time>
      </trkpt>
      <trkpt lat="41.51692" lon="1.98168">
        <ele>332.6</ele>
        <time>2021-04-11 08:29:18</time>
      </trkpt>
      <trkpt lat="41.51696" lon="1.98169">
        <ele>332.8</ele>
        <time>2021-04-11 08:29:19</time>
      </trkpt>
      <trkpt lat="41.517" lon="1.98171">
        <ele>332.8</ele>
        <time>2021-04-11 08:29:20</time>
      </trkpt>
      <trkpt lat="41.51704" lon="1.98173">
        <ele>333</ele>
        <time>2021-04-11 08:29:21</time>
      </trkpt>
      <trkpt lat="41.51709" lon="1.98174">
        <ele>333.2</ele>
        <time>2021-04-11 08:29:22</time>
      </trkpt>
      <trkpt lat="41.51713" lon="1.98175">
        <ele>333.2</ele>
        <time>2021-04-11 08:29:23</time>
      </trkpt>
      <trkpt lat="41.51717" lon="1.98177">
        <ele>333.4</ele>
        <time>2021-04-11 08:29:24</time>
      </trkpt>
      <trkpt lat="41.51721" lon="1.98178">
        <ele>333.4</ele>
        <time>2021-04-11 08:29:25</time>
      </trkpt>
      <trkpt lat="41.51725" lon="1.9818">
        <ele>333.6</ele>
        <time>2021-04-11 08:29:26</time>
      </trkpt>
      <trkpt lat="41.51729" lon="1.98182">
        <ele>333.6</ele>
        <time>2021-04-11 08:29:27</time>
      </trkpt>
      <trkpt lat="41.51733" lon="1.98183">
        <ele>333.8</ele>
        <time>2021-04-11 08:29:28</time>
      </trkpt>
      <trkpt lat="41.51737" lon="1.98184">
        <ele>333.8</ele>
        <time>2021-04-11 08:29:29</time>
      </trkpt>
      <trkpt lat="41.51741" lon="1.98185">
        <ele>334</ele>
        <time>2021-04-11 08:29:30</time>
      </trkpt>
      <trkpt lat="41.51746" lon="1.98186">
        <ele>334.2</ele>
        <time>2021-04-11 08:29:31</time>
      </trkpt>
      <trkpt lat="41.51749" lon="1.98188">
        <ele>334.4</ele>
        <time>2021-04-11 08:29:32</time>
      </trkpt>
      <trkpt lat="41.51753" lon="1.98189">
        <ele>334.6</ele>
        <time>2021-04-11 08:29:33</time>
      </trkpt>
      <trkpt lat="41.51757" lon="1.9819">
        <ele>334.6</ele>
        <time>2021-04-11 08:29:34</time>
      </trkpt>
      <trkpt lat="41.51761" lon="1.9819">
        <ele>334.8</ele>
        <time>2021-04-11 08:29:35</time>
      </trkpt>
      <trkpt lat="41.51765" lon="1.98191">
        <ele>335</ele>
        <time>2021-04-11 08:29:36</time>
      </trkpt>
      <trkpt lat="41.51769" lon="1.98191">
        <ele>335.2</ele>
        <time>2021-04-11 08:29:37</time>
      </trkpt>
      <trkpt lat="41.51773" lon="1.9819">
        <ele>335.4</ele>
        <time>2021-04-11 08:29:38</time>
      </trkpt>
      <trkpt lat="41.51777" lon="1.98189">
        <ele>335.6</ele>
        <time>2021-04-11 08:29:39</time>
      </trkpt>
      <trkpt lat="41.51781" lon="1.98188">
        <ele>335.8</ele>
        <time>2021-04-11 08:29:40</time>
      </trkpt>
      <trkpt lat="41.51784" lon="1.98185">
        <ele>336</ele>
        <time>2021-04-11 08:29:41</time>
      </trkpt>
      <trkpt lat="41.51788" lon="1.98183">
        <ele>336</ele>
        <time>2021-04-11 08:29:42</time>
      </trkpt>
      <trkpt lat="41.51792" lon="1.98181">
        <ele>336.2</ele>
        <time>2021-04-11 08:29:43</time>
      </trkpt>
      <trkpt lat="41.51795" lon="1.98178">
        <ele>336.4</ele>
        <time>2021-04-11 08:29:44</time>
      </trkpt>
      <trkpt lat="41.51798" lon="1.98176">
        <ele>336.4</ele>
        <time>2021-04-11 08:29:45</time>
      </trkpt>
      <trkpt lat="41.51802" lon="1.98173">
        <ele>336.6</ele>
        <time>2021-04-11 08:29:46</time>
      </trkpt>
      <trkpt lat="41.51806" lon="1.9817">
        <ele>336.8</ele>
        <time>2021-04-11 08:29:47</time>
      </trkpt>
      <trkpt lat="41.51809" lon="1.98167">
        <ele>337</ele>
        <time>2021-04-11 08:29:48</time>
      </trkpt>
      <trkpt lat="41.51812" lon="1.98165">
        <ele>337</ele>
        <time>2021-04-11 08:29:49</time>
      </trkpt>
      <trkpt lat="41.51816" lon="1.98162">
        <ele>337.2</ele>
        <time>2021-04-11 08:29:50</time>
      </trkpt>
      <trkpt lat="41.51819" lon="1.98159">
        <ele>337.4</ele>
        <time>2021-04-11 08:29:51</time>
      </trkpt>
      <trkpt lat="41.51823" lon="1.98156">
        <ele>337.4</ele>
        <time>2021-04-11 08:29:52</time>
      </trkpt>
      <trkpt lat="41.51827" lon="1.98154">
        <ele>337.6</ele>
        <time>2021-04-11 08:29:53</time>
      </trkpt>
      <trkpt lat="41.5183" lon="1.98151">
        <ele>337.6</ele>
        <time>2021-04-11 08:29:54</time>
      </trkpt>
      <trkpt lat="41.51834" lon="1.98148">
        <ele>337.8</ele>
        <time>2021-04-11 08:29:55</time>
      </trkpt>
      <trkpt lat="41.51837" lon="1.98145">
        <ele>338</ele>
        <time>2021-04-11 08:29:56</time>
      </trkpt>
      <trkpt lat="41.51841" lon="1.98142">
        <ele>338</ele>
        <time>2021-04-11 08:29:57</time>
      </trkpt>
      <trkpt lat="41.51845" lon="1.98139">
        <ele>338.2</ele>
        <time>2021-04-11 08:29:58</time>
      </trkpt>
      <trkpt lat="41.51848" lon="1.98136">
        <ele>338.2</ele>
        <time>2021-04-11 08:29:59</time>
      </trkpt>
      <trkpt lat="41.51852" lon="1.98133">
        <ele>338.4</ele>
        <time>2021-04-11 08:30:00</time>
      </trkpt>
      <trkpt lat="41.51856" lon="1.9813">
        <ele>338.4</ele>
        <time>2021-04-11 08:30:01</time>
      </trkpt>
      <trkpt lat="41.5186" lon="1.98127">
        <ele>338.6</ele>
        <time>2021-04-11 08:30:02</time>
      </trkpt>
      <trkpt lat="41.51863" lon="1.98125">
        <ele>338.6</ele>
        <time>2021-04-11 08:30:03</time>
      </trkpt>
      <trkpt lat="41.51866" lon="1.98122">
        <ele>338.8</ele>
        <time>2021-04-11 08:30:04</time>
      </trkpt>
      <trkpt lat="41.51871" lon="1.98119">
        <ele>338.8</ele>
        <time>2021-04-11 08:30:05</time>
      </trkpt>
      <trkpt lat="41.51874" lon="1.98116">
        <ele>339</ele>
        <time>2021-04-11 08:30:06</time>
      </trkpt>
      <trkpt lat="41.51878" lon="1.98113">
        <ele>339</ele>
        <time>2021-04-11 08:30:07</time>
      </trkpt>
      <trkpt lat="41.51882" lon="1.9811">
        <ele>339</ele>
        <time>2021-04-11 08:30:08</time>
      </trkpt>
      <trkpt lat="41.51886" lon="1.98107">
        <ele>339</ele>
        <time>2021-04-11 08:30:09</time>
      </trkpt>
      <trkpt lat="41.5189" lon="1.98104">
        <ele>339.2</ele>
        <time>2021-04-11 08:30:10</time>
      </trkpt>
      <trkpt lat="41.51893" lon="1.98101">
        <ele>339.2</ele>
        <time>2021-04-11 08:30:11</time>
      </trkpt>
      <trkpt lat="41.51897" lon="1.98098">
        <ele>339.2</ele>
        <time>2021-04-11 08:30:12</time>
      </trkpt>
      <trkpt lat="41.51901" lon="1.98095">
        <ele>339.2</ele>
        <time>2021-04-11 08:30:13</time>
      </trkpt>
      <trkpt lat="41.51905" lon="1.98092">
        <ele>339.2</ele>
        <time>2021-04-11 08:30:14</time>
      </trkpt>
      <trkpt lat="41.5191" lon="1.98089">
        <ele>339.2</ele>
        <time>2021-04-11 08:30:15</time>
      </trkpt>
      <trkpt lat="41.51914" lon="1.98085">
        <ele>339.2</ele>
        <time>2021-04-11 08:30:16</time>
      </trkpt>
      <trkpt lat="41.51918" lon="1.98082">
        <ele>339.2</ele>
        <time>2021-04-11 08:30:17</time>
      </trkpt>
      <trkpt lat="41.51923" lon="1.98079">
        <ele>339.2</ele>
        <time>2021-04-11 08:30:18</time>
      </trkpt>
      <trkpt lat="41.51928" lon="1.98076">
        <ele>339</ele>
        <time>2021-04-11 08:30:19</time>
      </trkpt>
      <trkpt lat="41.51932" lon="1.98073">
        <ele>339</ele>
        <time>2021-04-11 08:30:20</time>
      </trkpt>
      <trkpt lat="41.51937" lon="1.9807">
        <ele>339</ele>
        <time>2021-04-11 08:30:21</time>
      </trkpt>
      <trkpt lat="41.51942" lon="1.98067">
        <ele>338.8</ele>
        <time>2021-04-11 08:30:22</time>
      </trkpt>
      <trkpt lat="41.51946" lon="1.98064">
        <ele>338.8</ele>
        <time>2021-04-11 08:30:23</time>
      </trkpt>
      <trkpt lat="41.51951" lon="1.98061">
        <ele>338.8</ele>
        <time>2021-04-11 08:30:24</time>
      </trkpt>
      <trkpt lat="41.51956" lon="1.98058">
        <ele>338.6</ele>
        <time>2021-04-11 08:30:25</time>
      </trkpt>
      <trkpt lat="41.51961" lon="1.98054">
        <ele>338.6</ele>
        <time>2021-04-11 08:30:26</time>
      </trkpt>
      <trkpt lat="41.51966" lon="1.98051">
        <ele>338.6</ele>
        <time>2021-04-11 08:30:27</time>
      </trkpt>
      <trkpt lat="41.51971" lon="1.98048">
        <ele>338.6</ele>
        <time>2021-04-11 08:30:28</time>
      </trkpt>
      <trkpt lat="41.51976" lon="1.98044">
        <ele>338.6</ele>
        <time>2021-04-11 08:30:29</time>
      </trkpt>
      <trkpt lat="41.51981" lon="1.98041">
        <ele>338.4</ele>
        <time>2021-04-11 08:30:30</time>
      </trkpt>
      <trkpt lat="41.51986" lon="1.98038">
        <ele>338.4</ele>
        <time>2021-04-11 08:30:31</time>
      </trkpt>
      <trkpt lat="41.5199" lon="1.98035">
        <ele>338.4</ele>
        <time>2021-04-11 08:30:32</time>
      </trkpt>
      <trkpt lat="41.51995" lon="1.98032">
        <ele>338.6</ele>
        <time>2021-04-11 08:30:33</time>
      </trkpt>
      <trkpt lat="41.51999" lon="1.98029">
        <ele>338.8</ele>
        <time>2021-04-11 08:30:34</time>
      </trkpt>
      <trkpt lat="41.52004" lon="1.98027">
        <ele>339.2</ele>
        <time>2021-04-11 08:30:35</time>
      </trkpt>
      <trkpt lat="41.52008" lon="1.98024">
        <ele>339.4</ele>
        <time>2021-04-11 08:30:36</time>
      </trkpt>
      <trkpt lat="41.52012" lon="1.98021">
        <ele>339.6</ele>
        <time>2021-04-11 08:30:37</time>
      </trkpt>
      <trkpt lat="41.52016" lon="1.98018">
        <ele>340</ele>
        <time>2021-04-11 08:30:38</time>
      </trkpt>
      <trkpt lat="41.5202" lon="1.98016">
        <ele>340.4</ele>
        <time>2021-04-11 08:30:39</time>
      </trkpt>
      <trkpt lat="41.52024" lon="1.98013">
        <ele>340.6</ele>
        <time>2021-04-11 08:30:40</time>
      </trkpt>
      <trkpt lat="41.52028" lon="1.98011">
        <ele>340.8</ele>
        <time>2021-04-11 08:30:41</time>
      </trkpt>
      <trkpt lat="41.52032" lon="1.98009">
        <ele>341.2</ele>
        <time>2021-04-11 08:30:42</time>
      </trkpt>
      <trkpt lat="41.52035" lon="1.98006">
        <ele>341.4</ele>
        <time>2021-04-11 08:30:43</time>
      </trkpt>
      <trkpt lat="41.52039" lon="1.98004">
        <ele>341.6</ele>
        <time>2021-04-11 08:30:44</time>
      </trkpt>
      <trkpt lat="41.52042" lon="1.98002">
        <ele>341.8</ele>
        <time>2021-04-11 08:30:45</time>
      </trkpt>
      <trkpt lat="41.52046" lon="1.98">
        <ele>342.2</ele>
        <time>2021-04-11 08:30:46</time>
      </trkpt>
      <trkpt lat="41.5205" lon="1.97999">
        <ele>342.4</ele>
        <time>2021-04-11 08:30:47</time>
      </trkpt>
      <trkpt lat="41.52054" lon="1.97997">
        <ele>342.6</ele>
        <time>2021-04-11 08:30:48</time>
      </trkpt>
      <trkpt lat="41.52058" lon="1.97996">
        <ele>343</ele>
        <time>2021-04-11 08:30:49</time>
      </trkpt>
      <trkpt lat="41.52062" lon="1.97995">
        <ele>343.2</ele>
        <time>2021-04-11 08:30:50</time>
      </trkpt>
      <trkpt lat="41.52066" lon="1.97995">
        <ele>343.6</ele>
        <time>2021-04-11 08:30:51</time>
      </trkpt>
      <trkpt lat="41.5207" lon="1.97995">
        <ele>344</ele>
        <time>2021-04-11 08:30:52</time>
      </trkpt>
      <trkpt lat="41.52074" lon="1.97995">
        <ele>344.2</ele>
        <time>2021-04-11 08:30:53</time>
      </trkpt>
      <trkpt lat="41.52077" lon="1.97995">
        <ele>344.6</ele>
        <time>2021-04-11 08:30:54</time>
      </trkpt>
      <trkpt lat="41.52081" lon="1.97996">
        <ele>344.8</ele>
        <time>2021-04-11 08:30:55</time>
      </trkpt>
      <trkpt lat="41.52085" lon="1.97997">
        <ele>345.2</ele>
        <time>2021-04-11 08:30:56</time>
      </trkpt>
      <trkpt lat="41.52088" lon="1.97998">
        <ele>345.4</ele>
        <time>2021-04-11 08:30:57</time>
      </trkpt>
      <trkpt lat="41.52091" lon="1.97999">
        <ele>345.8</ele>
        <time>2021-04-11 08:30:58</time>
      </trkpt>
      <trkpt lat="41.52095" lon="1.98">
        <ele>346.2</ele>
        <time>2021-04-11 08:30:59</time>
      </trkpt>
      <trkpt lat="41.52098" lon="1.98001">
        <ele>346.6</ele>
        <time>2021-04-11 08:31:00</time>
      </trkpt>
      <trkpt lat="41.52102" lon="1.98003">
        <ele>346.8</ele>
        <time>2021-04-11 08:31:01</time>
      </trkpt>
      <trkpt lat="41.52106" lon="1.98004">
        <ele>347.2</ele>
        <time>2021-04-11 08:31:02</time>
      </trkpt>
      <trkpt lat="41.52109" lon="1.98005">
        <ele>347.6</ele>
        <time>2021-04-11 08:31:03</time>
      </trkpt>
      <trkpt lat="41.52112" lon="1.98006">
        <ele>347.8</ele>
        <time>2021-04-11 08:31:04</time>
      </trkpt>
      <trkpt lat="41.52116" lon="1.98007">
        <ele>348.2</ele>
        <time>2021-04-11 08:31:05</time>
      </trkpt>
      <trkpt lat="41.5212" lon="1.98007">
        <ele>348.6</ele>
        <time>2021-04-11 08:31:06</time>
      </trkpt>
      <trkpt lat="41.52123" lon="1.98008">
        <ele>348.8</ele>
        <time>2021-04-11 08:31:07</time>
      </trkpt>
      <trkpt lat="41.52127" lon="1.98008">
        <ele>349.2</ele>
        <time>2021-04-11 08:31:08</time>
      </trkpt>
      <trkpt lat="41.52131" lon="1.98008">
        <ele>349.4</ele>
        <time>2021-04-11 08:31:09</time>
      </trkpt>
      <trkpt lat="41.52134" lon="1.98008">
        <ele>349.8</ele>
        <time>2021-04-11 08:31:10</time>
      </trkpt>
      <trkpt lat="41.52138" lon="1.98007">
        <ele>350</ele>
        <time>2021-04-11 08:31:11</time>
      </trkpt>
      <trkpt lat="41.52141" lon="1.98006">
        <ele>350.4</ele>
        <time>2021-04-11 08:31:12</time>
      </trkpt>
      <trkpt lat="41.52145" lon="1.98004">
        <ele>350.6</ele>
        <time>2021-04-11 08:31:13</time>
      </trkpt>
      <trkpt lat="41.52148" lon="1.98003">
        <ele>351</ele>
        <time>2021-04-11 08:31:14</time>
      </trkpt>
      <trkpt lat="41.52152" lon="1.98001">
        <ele>351.2</ele>
        <time>2021-04-11 08:31:15</time>
      </trkpt>
      <trkpt lat="41.52155" lon="1.97999">
        <ele>351.4</ele>
        <time>2021-04-11 08:31:16</time>
      </trkpt>
      <trkpt lat="41.52158" lon="1.97996">
        <ele>351.8</ele>
        <time>2021-04-11 08:31:17</time>
      </trkpt>
      <trkpt lat="41.52161" lon="1.97993">
        <ele>352</ele>
        <time>2021-04-11 08:31:18</time>
      </trkpt>
      <trkpt lat="41.52163" lon="1.9799">
        <ele>352.4</ele>
        <time>2021-04-11 08:31:19</time>
      </trkpt>
      <trkpt lat="41.52166" lon="1.97986">
        <ele>352.6</ele>
        <time>2021-04-11 08:31:20</time>
      </trkpt>
      <trkpt lat="41.52168" lon="1.97983">
        <ele>353</ele>
        <time>2021-04-11 08:31:21</time>
      </trkpt>
      <trkpt lat="41.52171" lon="1.97979">
        <ele>353.2</ele>
        <time>2021-04-11 08:31:22</time>
      </trkpt>
      <trkpt lat="41.52173" lon="1.97975">
        <ele>353.6</ele>
        <time>2021-04-11 08:31:23</time>
      </trkpt>
      <trkpt lat="41.52175" lon="1.97971">
        <ele>353.8</ele>
        <time>2021-04-11 08:31:24</time>
      </trkpt>
      <trkpt lat="41.52178" lon="1.97967">
        <ele>354.2</ele>
        <time>2021-04-11 08:31:25</time>
      </trkpt>
      <trkpt lat="41.52179" lon="1.97964">
        <ele>354.4</ele>
        <time>2021-04-11 08:31:26</time>
      </trkpt>
      <trkpt lat="41.52181" lon="1.97959">
        <ele>354.6</ele>
        <time>2021-04-11 08:31:27</time>
      </trkpt>
      <trkpt lat="41.52183" lon="1.97955">
        <ele>355</ele>
        <time>2021-04-11 08:31:28</time>
      </trkpt>
      <trkpt lat="41.52186" lon="1.97951">
        <ele>355.2</ele>
        <time>2021-04-11 08:31:29</time>
      </trkpt>
      <trkpt lat="41.52187" lon="1.97947">
        <ele>355.4</ele>
        <time>2021-04-11 08:31:30</time>
      </trkpt>
      <trkpt lat="41.5219" lon="1.97943">
        <ele>355.6</ele>
        <time>2021-04-11 08:31:31</time>
      </trkpt>
      <trkpt lat="41.52192" lon="1.97939">
        <ele>356</ele>
        <time>2021-04-11 08:31:32</time>
      </trkpt>
      <trkpt lat="41.52194" lon="1.97935">
        <ele>356.2</ele>
        <time>2021-04-11 08:31:33</time>
      </trkpt>
      <trkpt lat="41.52196" lon="1.97931">
        <ele>356.4</ele>
        <time>2021-04-11 08:31:34</time>
      </trkpt>
      <trkpt lat="41.52197" lon="1.97927">
        <ele>356.4</ele>
        <time>2021-04-11 08:31:35</time>
      </trkpt>
      <trkpt lat="41.52199" lon="1.97922">
        <ele>356.6</ele>
        <time>2021-04-11 08:31:36</time>
      </trkpt>
      <trkpt lat="41.52201" lon="1.97918">
        <ele>356.8</ele>
        <time>2021-04-11 08:31:37</time>
      </trkpt>
      <trkpt lat="41.52202" lon="1.97913">
        <ele>356.8</ele>
        <time>2021-04-11 08:31:38</time>
      </trkpt>
      <trkpt lat="41.52204" lon="1.97909">
        <ele>357</ele>
        <time>2021-04-11 08:31:39</time>
      </trkpt>
      <trkpt lat="41.52205" lon="1.97904">
        <ele>357.2</ele>
        <time>2021-04-11 08:31:40</time>
      </trkpt>
      <trkpt lat="41.52205" lon="1.97899">
        <ele>357.2</ele>
        <time>2021-04-11 08:31:41</time>
      </trkpt>
      <trkpt lat="41.52206" lon="1.97894">
        <ele>357.2</ele>
        <time>2021-04-11 08:31:42</time>
      </trkpt>
      <trkpt lat="41.52206" lon="1.9789">
        <ele>357.4</ele>
        <time>2021-04-11 08:31:43</time>
      </trkpt>
      <trkpt lat="41.52205" lon="1.97885">
        <ele>357.4</ele>
        <time>2021-04-11 08:31:44</time>
      </trkpt>
      <trkpt lat="41.52204" lon="1.9788">
        <ele>357.4</ele>
        <time>2021-04-11 08:31:45</time>
      </trkpt>
      <trkpt lat="41.52203" lon="1.97874">
        <ele>357.4</ele>
        <time>2021-04-11 08:31:46</time>
      </trkpt>
      <trkpt lat="41.52203" lon="1.97869">
        <ele>357.6</ele>
        <time>2021-04-11 08:31:47</time>
      </trkpt>
      <trkpt lat="41.52202" lon="1.97864">
        <ele>357.6</ele>
        <time>2021-04-11 08:31:48</time>
      </trkpt>
      <trkpt lat="41.52201" lon="1.97859">
        <ele>357.6</ele>
        <time>2021-04-11 08:31:49</time>
      </trkpt>
      <trkpt lat="41.52201" lon="1.97853">
        <ele>357.8</ele>
        <time>2021-04-11 08:31:50</time>
      </trkpt>
      <trkpt lat="41.52201" lon="1.97848">
        <ele>357.8</ele>
        <time>2021-04-11 08:31:51</time>
      </trkpt>
      <trkpt lat="41.52202" lon="1.97843">
        <ele>357.8</ele>
        <time>2021-04-11 08:31:52</time>
      </trkpt>
      <trkpt lat="41.52202" lon="1.97839">
        <ele>357.8</ele>
        <time>2021-04-11 08:31:53</time>
      </trkpt>
      <trkpt lat="41.52203" lon="1.97835">
        <ele>358</ele>
        <time>2021-04-11 08:31:54</time>
      </trkpt>
      <trkpt lat="41.52203" lon="1.9783">
        <ele>358</ele>
        <time>2021-04-11 08:31:55</time>
      </trkpt>
      <trkpt lat="41.52204" lon="1.97826">
        <ele>358.2</ele>
        <time>2021-04-11 08:31:56</time>
      </trkpt>
      <trkpt lat="41.52205" lon="1.97822">
        <ele>358.2</ele>
        <time>2021-04-11 08:31:57</time>
      </trkpt>
      <trkpt lat="41.52205" lon="1.97817">
        <ele>358.2</ele>
        <time>2021-04-11 08:31:58</time>
      </trkpt>
      <trkpt lat="41.52205" lon="1.97813">
        <ele>358.2</ele>
        <time>2021-04-11 08:31:59</time>
      </trkpt>
      <trkpt lat="41.52205" lon="1.97809">
        <ele>358.4</ele>
        <time>2021-04-11 08:32:00</time>
      </trkpt>
      <trkpt lat="41.52204" lon="1.97805">
        <ele>358.4</ele>
        <time>2021-04-11 08:32:01</time>
      </trkpt>
      <trkpt lat="41.52204" lon="1.978">
        <ele>358.4</ele>
        <time>2021-04-11 08:32:02</time>
      </trkpt>
      <trkpt lat="41.52204" lon="1.97796">
        <ele>358.4</ele>
        <time>2021-04-11 08:32:03</time>
      </trkpt>
      <trkpt lat="41.52204" lon="1.97792">
        <ele>358.4</ele>
        <time>2021-04-11 08:32:04</time>
      </trkpt>
      <trkpt lat="41.52204" lon="1.97788">
        <ele>358.6</ele>
        <time>2021-04-11 08:32:05</time>
      </trkpt>
      <trkpt lat="41.52204" lon="1.97785">
        <ele>358.6</ele>
        <time>2021-04-11 08:32:06</time>
      </trkpt>
      <trkpt lat="41.52205" lon="1.97782">
        <ele>358.8</ele>
        <time>2021-04-11 08:32:07</time>
      </trkpt>
      <trkpt lat="41.52205" lon="1.97779">
        <ele>358.8</ele>
        <time>2021-04-11 08:32:08</time>
      </trkpt>
      <trkpt lat="41.52205" lon="1.97777">
        <ele>359</ele>
        <time>2021-04-11 08:32:09</time>
      </trkpt>
      <trkpt lat="41.52205" lon="1.97774">
        <ele>359.2</ele>
        <time>2021-04-11 08:32:10</time>
      </trkpt>
      <trkpt lat="41.52205" lon="1.97772">
        <ele>359.2</ele>
        <time>2021-04-11 08:32:11</time>
      </trkpt>
      <trkpt lat="41.52205" lon="1.9777">
        <ele>359.4</ele>
        <time>2021-04-11 08:32:12</time>
      </trkpt>
      <trkpt lat="41.52205" lon="1.97768">
        <ele>359.6</ele>
        <time>2021-04-11 08:32:26</time>
      </trkpt>
      <trkpt lat="41.52205" lon="1.97765">
        <ele>359.6</ele>
        <time>2021-04-11 08:32:27</time>
      </trkpt>
      <trkpt lat="41.52205" lon="1.97763">
        <ele>359.6</ele>
        <time>2021-04-11 08:32:28</time>
      </trkpt>
      <trkpt lat="41.52205" lon="1.9776">
        <ele>359.8</ele>
        <time>2021-04-11 08:32:29</time>
      </trkpt>
      <trkpt lat="41.52205" lon="1.97757">
        <ele>359.8</ele>
        <time>2021-04-11 08:32:30</time>
      </trkpt>
      <trkpt lat="41.52205" lon="1.97754">
        <ele>359.8</ele>
        <time>2021-04-11 08:32:31</time>
      </trkpt>
      <trkpt lat="41.52205" lon="1.97752">
        <ele>359.8</ele>
        <time>2021-04-11 08:32:32</time>
      </trkpt>
      <trkpt lat="41.52205" lon="1.9775">
        <ele>359.8</ele>
        <time>2021-04-11 08:32:33</time>
      </trkpt>
      <trkpt lat="41.52204" lon="1.97748">
        <ele>359.8</ele>
        <time>2021-04-11 08:32:34</time>
      </trkpt>
      <trkpt lat="41.52204" lon="1.97747">
        <ele>359.8</ele>
        <time>2021-04-11 08:32:35</time>
      </trkpt>
      <trkpt lat="41.52203" lon="1.97747">
        <ele>359.6</ele>
        <time>2021-04-11 08:32:36</time>
      </trkpt>
      <trkpt lat="41.52203" lon="1.97747">
        <ele>359.6</ele>
        <time>2021-04-11 08:32:37</time>
      </trkpt>
      <trkpt lat="41.52203" lon="1.97747">
        <ele>359.6</ele>
        <time>2021-04-11 08:32:38</time>
      </trkpt>
      <trkpt lat="41.52203" lon="1.97747">
        <ele>359.6</ele>
        <time>2021-04-11 08:32:39</time>
      </trkpt>
      <trkpt lat="41.52203" lon="1.97747">
        <ele>359.6</ele>
        <time>2021-04-11 08:33:31</time>
      </trkpt>
      <trkpt lat="41.52203" lon="1.97747">
        <ele>359.8</ele>
        <time>2021-04-11 08:33:32</time>
      </trkpt>
      <trkpt lat="41.52203" lon="1.97747">
        <ele>359.8</ele>
        <time>2021-04-11 08:33:33</time>
      </trkpt>
      <trkpt lat="41.52203" lon="1.97747">
        <ele>359.8</ele>
        <time>2021-04-11 08:33:34</time>
      </trkpt>
      <trkpt lat="41.52203" lon="1.97747">
        <ele>359.8</ele>
        <time>2021-04-11 08:33:35</time>
      </trkpt>
      <trkpt lat="41.52203" lon="1.97747">
        <ele>359.8</ele>
        <time>2021-04-11 08:33:36</time>
      </trkpt>
      <trkpt lat="41.52203" lon="1.97747">
        <ele>359.6</ele>
        <time>2021-04-11 08:33:37</time>
      </trkpt>
      <trkpt lat="41.52203" lon="1.97747">
        <ele>359.6</ele>
        <time>2021-04-11 08:33:38</time>
      </trkpt>
      <trkpt lat="41.52203" lon="1.97747">
        <ele>359.6</ele>
        <time>2021-04-11 08:33:40</time>
      </trkpt>
      <trkpt lat="41.52202" lon="1.9775">
        <ele>359.6</ele>
        <time>2021-04-11 08:33:41</time>
      </trkpt>
      <trkpt lat="41.52201" lon="1.97752">
        <ele>359.6</ele>
        <time>2021-04-11 08:33:42</time>
      </trkpt>
      <trkpt lat="41.52199" lon="1.97754">
        <ele>359.6</ele>
        <time>2021-04-11 08:33:43</time>
      </trkpt>
      <trkpt lat="41.52198" lon="1.97757">
        <ele>359.4</ele>
        <time>2021-04-11 08:33:44</time>
      </trkpt>
      <trkpt lat="41.52197" lon="1.97761">
        <ele>359.4</ele>
        <time>2021-04-11 08:33:45</time>
      </trkpt>
      <trkpt lat="41.52197" lon="1.97766">
        <ele>359.2</ele>
        <time>2021-04-11 08:33:46</time>
      </trkpt>
      <trkpt lat="41.52197" lon="1.9777">
        <ele>359</ele>
        <time>2021-04-11 08:33:47</time>
      </trkpt>
      <trkpt lat="41.52199" lon="1.97775">
        <ele>359</ele>
        <time>2021-04-11 08:33:48</time>
      </trkpt>
      <trkpt lat="41.52202" lon="1.97777">
        <ele>359</ele>
        <time>2021-04-11 08:33:49</time>
      </trkpt>
      <trkpt lat="41.52205" lon="1.97779">
        <ele>359</ele>
        <time>2021-04-11 08:33:50</time>
      </trkpt>
      <trkpt lat="41.52207" lon="1.97778">
        <ele>359</ele>
        <time>2021-04-11 08:33:51</time>
      </trkpt>
      <trkpt lat="41.52208" lon="1.97776">
        <ele>359.2</ele>
        <time>2021-04-11 08:33:52</time>
      </trkpt>
      <trkpt lat="41.52208" lon="1.97773">
        <ele>359.2</ele>
        <time>2021-04-11 08:33:53</time>
      </trkpt>
      <trkpt lat="41.52208" lon="1.97771">
        <ele>359.4</ele>
        <time>2021-04-11 08:33:54</time>
      </trkpt>
      <trkpt lat="41.52207" lon="1.9777">
        <ele>359.4</ele>
        <time>2021-04-11 08:33:55</time>
      </trkpt>
      <trkpt lat="41.52206" lon="1.97769">
        <ele>359.6</ele>
        <time>2021-04-11 08:33:56</time>
      </trkpt>
      <trkpt lat="41.52206" lon="1.97769">
        <ele>359.6</ele>
        <time>2021-04-11 08:33:57</time>
      </trkpt>
      <trkpt lat="41.52206" lon="1.97769">
        <ele>359.6</ele>
        <time>2021-04-11 08:33:58</time>
      </trkpt>
      <trkpt lat="41.52206" lon="1.97769">
        <ele>359.6</ele>
        <time>2021-04-11 08:33:59</time>
      </trkpt>
      <trkpt lat="41.52206" lon="1.97769">
        <ele>359.8</ele>
        <time>2021-04-11 08:34:00</time>
      </trkpt>
      <trkpt lat="41.52206" lon="1.97769">
        <ele>359.8</ele>
        <time>2021-04-11 08:34:27</time>
      </trkpt>
      <trkpt lat="41.52206" lon="1.97767">
        <ele>359.8</ele>
        <time>2021-04-11 08:34:28</time>
      </trkpt>
      <trkpt lat="41.52205" lon="1.97765">
        <ele>359.8</ele>
        <time>2021-04-11 08:34:29</time>
      </trkpt>
      <trkpt lat="41.52204" lon="1.97763">
        <ele>359.8</ele>
        <time>2021-04-11 08:34:30</time>
      </trkpt>
      <trkpt lat="41.52204" lon="1.97761">
        <ele>359.6</ele>
        <time>2021-04-11 08:34:31</time>
      </trkpt>
      <trkpt lat="41.52203" lon="1.97759">
        <ele>359.6</ele>
        <time>2021-04-11 08:34:32</time>
      </trkpt>
      <trkpt lat="41.52203" lon="1.97758">
        <ele>359.6</ele>
        <time>2021-04-11 08:34:33</time>
      </trkpt>
      <trkpt lat="41.52203" lon="1.97758">
        <ele>359.6</ele>
        <time>2021-04-11 08:34:34</time>
      </trkpt>
      <trkpt lat="41.52203" lon="1.97757">
        <ele>359.6</ele>
        <time>2021-04-11 08:34:35</time>
      </trkpt>
      <trkpt lat="41.52203" lon="1.97757">
        <ele>359.6</ele>
        <time>2021-04-11 08:34:36</time>
      </trkpt>
      <trkpt lat="41.52203" lon="1.97757">
        <ele>359.6</ele>
        <time>2021-04-11 08:34:37</time>
      </trkpt>
      <trkpt lat="41.52203" lon="1.97757">
        <ele>359.6</ele>
        <time>2021-04-11 08:34:38</time>
      </trkpt>
      <trkpt lat="41.52203" lon="1.97757">
        <ele>359.6</ele>
        <time>2021-04-11 08:34:39</time>
      </trkpt>
      <trkpt lat="41.52203" lon="1.97757">
        <ele>359.6</ele>
        <time>2021-04-11 08:34:40</time>
      </trkpt>
      <trkpt lat="41.52203" lon="1.97757">
        <ele>359.6</ele>
        <time>2021-04-11 08:34:42</time>
      </trkpt>
      <trkpt lat="41.52203" lon="1.97756">
        <ele>359.4</ele>
        <time>2021-04-11 08:34:43</time>
      </trkpt>
      <trkpt lat="41.52203" lon="1.97751">
        <ele>359.4</ele>
        <time>2021-04-11 08:34:44</time>
      </trkpt>
      <trkpt lat="41.52203" lon="1.97749">
        <ele>359.4</ele>
        <time>2021-04-11 08:34:45</time>
      </trkpt>
      <trkpt lat="41.52202" lon="1.97748">
        <ele>359.4</ele>
        <time>2021-04-11 08:34:46</time>
      </trkpt>
      <trkpt lat="41.52202" lon="1.97748">
        <ele>359.4</ele>
        <time>2021-04-11 08:34:47</time>
      </trkpt>
      <trkpt lat="41.52202" lon="1.97748">
        <ele>359.4</ele>
        <time>2021-04-11 08:34:48</time>
      </trkpt>
      <trkpt lat="41.52202" lon="1.97748">
        <ele>359.4</ele>
        <time>2021-04-11 08:34:49</time>
      </trkpt>
      <trkpt lat="41.52202" lon="1.97748">
        <ele>359.2</ele>
        <time>2021-04-11 08:34:50</time>
      </trkpt>
      <trkpt lat="41.52202" lon="1.97748">
        <ele>359</ele>
        <time>2021-04-11 08:35:02</time>
      </trkpt>
      <trkpt lat="41.52199" lon="1.97745">
        <ele>359</ele>
        <time>2021-04-11 08:35:03</time>
      </trkpt>
      <trkpt lat="41.52196" lon="1.97744">
        <ele>359</ele>
        <time>2021-04-11 08:35:04</time>
      </trkpt>
      <trkpt lat="41.52194" lon="1.97742">
        <ele>358.8</ele>
        <time>2021-04-11 08:35:05</time>
      </trkpt>
      <trkpt lat="41.52191" lon="1.9774">
        <ele>358.8</ele>
        <time>2021-04-11 08:35:06</time>
      </trkpt>
      <trkpt lat="41.52189" lon="1.97738">
        <ele>358.6</ele>
        <time>2021-04-11 08:35:07</time>
      </trkpt>
      <trkpt lat="41.52188" lon="1.97737">
        <ele>358.6</ele>
        <time>2021-04-11 08:35:08</time>
      </trkpt>
      <trkpt lat="41.52186" lon="1.97735">
        <ele>358.4</ele>
        <time>2021-04-11 08:35:09</time>
      </trkpt>
      <trkpt lat="41.52185" lon="1.97734">
        <ele>358.4</ele>
        <time>2021-04-11 08:35:10</time>
      </trkpt>
      <trkpt lat="41.52183" lon="1.97733">
        <ele>358.2</ele>
        <time>2021-04-11 08:35:11</time>
      </trkpt>
      <trkpt lat="41.52181" lon="1.97732">
        <ele>358</ele>
        <time>2021-04-11 08:35:12</time>
      </trkpt>
      <trkpt lat="41.52179" lon="1.97731">
        <ele>358</ele>
        <time>2021-04-11 08:35:13</time>
      </trkpt>
      <trkpt lat="41.52176" lon="1.97729">
        <ele>357.6</ele>
        <time>2021-04-11 08:35:14</time>
      </trkpt>
      <trkpt lat="41.52172" lon="1.97726">
        <ele>357.4</ele>
        <time>2021-04-11 08:35:15</time>
      </trkpt>
      <trkpt lat="41.52168" lon="1.97723">
        <ele>357.2</ele>
        <time>2021-04-11 08:35:16</time>
      </trkpt>
      <trkpt lat="41.52164" lon="1.97719">
        <ele>356.8</ele>
        <time>2021-04-11 08:35:17</time>
      </trkpt>
      <trkpt lat="41.5216" lon="1.97716">
        <ele>356.4</ele>
        <time>2021-04-11 08:35:18</time>
      </trkpt>
      <trkpt lat="41.52155" lon="1.97712">
        <ele>356</ele>
        <time>2021-04-11 08:35:19</time>
      </trkpt>
      <trkpt lat="41.52149" lon="1.97707">
        <ele>355.6</ele>
        <time>2021-04-11 08:35:20</time>
      </trkpt>
      <trkpt lat="41.52143" lon="1.97703">
        <ele>355</ele>
        <time>2021-04-11 08:35:21</time>
      </trkpt>
      <trkpt lat="41.52136" lon="1.97698">
        <ele>354.4</ele>
        <time>2021-04-11 08:35:22</time>
      </trkpt>
      <trkpt lat="41.52129" lon="1.97693">
        <ele>354</ele>
        <time>2021-04-11 08:35:23</time>
      </trkpt>
      <trkpt lat="41.52123" lon="1.97688">
        <ele>353.4</ele>
        <time>2021-04-11 08:35:24</time>
      </trkpt>
      <trkpt lat="41.52115" lon="1.97683">
        <ele>352.6</ele>
        <time>2021-04-11 08:35:25</time>
      </trkpt>
      <trkpt lat="41.52108" lon="1.97677">
        <ele>352</ele>
        <time>2021-04-11 08:35:26</time>
      </trkpt>
      <trkpt lat="41.52101" lon="1.97671">
        <ele>351.4</ele>
        <time>2021-04-11 08:35:27</time>
      </trkpt>
      <trkpt lat="41.52093" lon="1.97665">
        <ele>350.6</ele>
        <time>2021-04-11 08:35:28</time>
      </trkpt>
      <trkpt lat="41.52084" lon="1.97657">
        <ele>350</ele>
        <time>2021-04-11 08:35:29</time>
      </trkpt>
      <trkpt lat="41.52075" lon="1.97649">
        <ele>349.4</ele>
        <time>2021-04-11 08:35:30</time>
      </trkpt>
      <trkpt lat="41.52065" lon="1.97641">
        <ele>348.6</ele>
        <time>2021-04-11 08:35:31</time>
      </trkpt>
      <trkpt lat="41.52055" lon="1.97633">
        <ele>348</ele>
        <time>2021-04-11 08:35:32</time>
      </trkpt>
      <trkpt lat="41.52047" lon="1.97624">
        <ele>347.2</ele>
        <time>2021-04-11 08:35:33</time>
      </trkpt>
      <trkpt lat="41.52039" lon="1.97615">
        <ele>346.6</ele>
        <time>2021-04-11 08:35:34</time>
      </trkpt>
      <trkpt lat="41.52032" lon="1.97605">
        <ele>345.8</ele>
        <time>2021-04-11 08:35:35</time>
      </trkpt>
      <trkpt lat="41.52024" lon="1.97595">
        <ele>345.2</ele>
        <time>2021-04-11 08:35:36</time>
      </trkpt>
      <trkpt lat="41.52017" lon="1.97584">
        <ele>344.6</ele>
        <time>2021-04-11 08:35:37</time>
      </trkpt>
      <trkpt lat="41.52011" lon="1.97573">
        <ele>344</ele>
        <time>2021-04-11 08:35:38</time>
      </trkpt>
      <trkpt lat="41.52005" lon="1.97561">
        <ele>343.4</ele>
        <time>2021-04-11 08:35:39</time>
      </trkpt>
      <trkpt lat="41.52" lon="1.9755">
        <ele>343</ele>
        <time>2021-04-11 08:35:40</time>
      </trkpt>
      <trkpt lat="41.51994" lon="1.97537">
        <ele>342.4</ele>
        <time>2021-04-11 08:35:41</time>
      </trkpt>
      <trkpt lat="41.51989" lon="1.97523">
        <ele>342</ele>
        <time>2021-04-11 08:35:42</time>
      </trkpt>
      <trkpt lat="41.51984" lon="1.9751">
        <ele>341.6</ele>
        <time>2021-04-11 08:35:43</time>
      </trkpt>
      <trkpt lat="41.51979" lon="1.97498">
        <ele>341.2</ele>
        <time>2021-04-11 08:35:44</time>
      </trkpt>
      <trkpt lat="41.51975" lon="1.97486">
        <ele>341</ele>
        <time>2021-04-11 08:35:45</time>
      </trkpt>
      <trkpt lat="41.51969" lon="1.97475">
        <ele>340.8</ele>
        <time>2021-04-11 08:35:46</time>
      </trkpt>
      <trkpt lat="41.51964" lon="1.97464">
        <ele>340.8</ele>
        <time>2021-04-11 08:35:47</time>
      </trkpt>
      <trkpt lat="41.51958" lon="1.97453">
        <ele>340.6</ele>
        <time>2021-04-11 08:35:48</time>
      </trkpt>
      <trkpt lat="41.51951" lon="1.97444">
        <ele>340.4</ele>
        <time>2021-04-11 08:35:49</time>
      </trkpt>
      <trkpt lat="41.51943" lon="1.97435">
        <ele>340.4</ele>
        <time>2021-04-11 08:35:50</time>
      </trkpt>
      <trkpt lat="41.51936" lon="1.97426">
        <ele>340.2</ele>
        <time>2021-04-11 08:35:51</time>
      </trkpt>
      <trkpt lat="41.51927" lon="1.97421">
        <ele>340.4</ele>
        <time>2021-04-11 08:35:52</time>
      </trkpt>
      <trkpt lat="41.51918" lon="1.97418">
        <ele>340.4</ele>
        <time>2021-04-11 08:35:53</time>
      </trkpt>
      <trkpt lat="41.51909" lon="1.97417">
        <ele>340.4</ele>
        <time>2021-04-11 08:35:54</time>
      </trkpt>
      <trkpt lat="41.51899" lon="1.97416">
        <ele>340.4</ele>
        <time>2021-04-11 08:35:55</time>
      </trkpt>
      <trkpt lat="41.5189" lon="1.97416">
        <ele>340.2</ele>
        <time>2021-04-11 08:35:56</time>
      </trkpt>
      <trkpt lat="41.5188" lon="1.97415">
        <ele>340.2</ele>
        <time>2021-04-11 08:35:57</time>
      </trkpt>
      <trkpt lat="41.51871" lon="1.97414">
        <ele>340.2</ele>
        <time>2021-04-11 08:35:58</time>
      </trkpt>
      <trkpt lat="41.51862" lon="1.97413">
        <ele>340.2</ele>
        <time>2021-04-11 08:35:59</time>
      </trkpt>
      <trkpt lat="41.51852" lon="1.97411">
        <ele>340</ele>
        <time>2021-04-11 08:36:00</time>
      </trkpt>
      <trkpt lat="41.51843" lon="1.97408">
        <ele>340</ele>
        <time>2021-04-11 08:36:01</time>
      </trkpt>
      <trkpt lat="41.51834" lon="1.97403">
        <ele>339.8</ele>
        <time>2021-04-11 08:36:02</time>
      </trkpt>
      <trkpt lat="41.51825" lon="1.97398">
        <ele>339.8</ele>
        <time>2021-04-11 08:36:03</time>
      </trkpt>
      <trkpt lat="41.51817" lon="1.97393">
        <ele>339.8</ele>
        <time>2021-04-11 08:36:04</time>
      </trkpt>
      <trkpt lat="41.51808" lon="1.97387">
        <ele>339.6</ele>
        <time>2021-04-11 08:36:05</time>
      </trkpt>
      <trkpt lat="41.518" lon="1.97382">
        <ele>339.6</ele>
        <time>2021-04-11 08:36:06</time>
      </trkpt>
      <trkpt lat="41.51792" lon="1.97375">
        <ele>339.4</ele>
        <time>2021-04-11 08:36:07</time>
      </trkpt>
      <trkpt lat="41.51785" lon="1.97369">
        <ele>339.4</ele>
        <time>2021-04-11 08:36:08</time>
      </trkpt>
      <trkpt lat="41.51777" lon="1.97363">
        <ele>339.4</ele>
        <time>2021-04-11 08:36:09</time>
      </trkpt>
      <trkpt lat="41.51769" lon="1.97356">
        <ele>339.2</ele>
        <time>2021-04-11 08:36:10</time>
      </trkpt>
      <trkpt lat="41.51761" lon="1.9735">
        <ele>339.2</ele>
        <time>2021-04-11 08:36:11</time>
      </trkpt>
      <trkpt lat="41.51753" lon="1.97344">
        <ele>339</ele>
        <time>2021-04-11 08:36:12</time>
      </trkpt>
      <trkpt lat="41.51746" lon="1.97337">
        <ele>339</ele>
        <time>2021-04-11 08:36:13</time>
      </trkpt>
      <trkpt lat="41.51738" lon="1.9733">
        <ele>339</ele>
        <time>2021-04-11 08:36:14</time>
      </trkpt>
      <trkpt lat="41.51731" lon="1.97322">
        <ele>338.8</ele>
        <time>2021-04-11 08:36:15</time>
      </trkpt>
      <trkpt lat="41.51726" lon="1.97311">
        <ele>338.8</ele>
        <time>2021-04-11 08:36:16</time>
      </trkpt>
      <trkpt lat="41.51721" lon="1.973">
        <ele>338.8</ele>
        <time>2021-04-11 08:36:17</time>
      </trkpt>
      <trkpt lat="41.51717" lon="1.97289">
        <ele>338.8</ele>
        <time>2021-04-11 08:36:18</time>
      </trkpt>
      <trkpt lat="41.51712" lon="1.97279">
        <ele>338.8</ele>
        <time>2021-04-11 08:36:19</time>
      </trkpt>
      <trkpt lat="41.51707" lon="1.97269">
        <ele>338.8</ele>
        <time>2021-04-11 08:36:20</time>
      </trkpt>
      <trkpt lat="41.51702" lon="1.97259">
        <ele>338.8</ele>
        <time>2021-04-11 08:36:21</time>
      </trkpt>
      <trkpt lat="41.51696" lon="1.9725">
        <ele>338.8</ele>
        <time>2021-04-11 08:36:22</time>
      </trkpt>
      <trkpt lat="41.51689" lon="1.97242">
        <ele>338.8</ele>
        <time>2021-04-11 08:36:23</time>
      </trkpt>
      <trkpt lat="41.51682" lon="1.97235">
        <ele>339</ele>
        <time>2021-04-11 08:36:24</time>
      </trkpt>
      <trkpt lat="41.51676" lon="1.97228">
        <ele>339</ele>
        <time>2021-04-11 08:36:25</time>
      </trkpt>
      <trkpt lat="41.51668" lon="1.97221">
        <ele>339</ele>
        <time>2021-04-11 08:36:26</time>
      </trkpt>
      <trkpt lat="41.51661" lon="1.97214">
        <ele>339</ele>
        <time>2021-04-11 08:36:27</time>
      </trkpt>
      <trkpt lat="41.51654" lon="1.97207">
        <ele>339</ele>
        <time>2021-04-11 08:36:28</time>
      </trkpt>
      <trkpt lat="41.51647" lon="1.97201">
        <ele>339</ele>
        <time>2021-04-11 08:36:29</time>
      </trkpt>
      <trkpt lat="41.51639" lon="1.97195">
        <ele>339</ele>
        <time>2021-04-11 08:36:30</time>
      </trkpt>
      <trkpt lat="41.51632" lon="1.97189">
        <ele>339</ele>
        <time>2021-04-11 08:36:31</time>
      </trkpt>
      <trkpt lat="41.51624" lon="1.97183">
        <ele>339</ele>
        <time>2021-04-11 08:36:32</time>
      </trkpt>
      <trkpt lat="41.51616" lon="1.97178">
        <ele>338.8</ele>
        <time>2021-04-11 08:36:33</time>
      </trkpt>
      <trkpt lat="41.51608" lon="1.97173">
        <ele>338.6</ele>
        <time>2021-04-11 08:36:34</time>
      </trkpt>
      <trkpt lat="41.51599" lon="1.97169">
        <ele>338.2</ele>
        <time>2021-04-11 08:36:35</time>
      </trkpt>
      <trkpt lat="41.5159" lon="1.97164">
        <ele>337.8</ele>
        <time>2021-04-11 08:36:36</time>
      </trkpt>
      <trkpt lat="41.5158" lon="1.97159">
        <ele>337.4</ele>
        <time>2021-04-11 08:36:37</time>
      </trkpt>
      <trkpt lat="41.51571" lon="1.97155">
        <ele>336.8</ele>
        <time>2021-04-11 08:36:38</time>
      </trkpt>
      <trkpt lat="41.51562" lon="1.9715">
        <ele>336.2</ele>
        <time>2021-04-11 08:36:39</time>
      </trkpt>
      <trkpt lat="41.51552" lon="1.97145">
        <ele>335.8</ele>
        <time>2021-04-11 08:36:40</time>
      </trkpt>
      <trkpt lat="41.51542" lon="1.97141">
        <ele>335.2</ele>
        <time>2021-04-11 08:36:41</time>
      </trkpt>
      <trkpt lat="41.51531" lon="1.97136">
        <ele>334.6</ele>
        <time>2021-04-11 08:36:42</time>
      </trkpt>
      <trkpt lat="41.51521" lon="1.9713">
        <ele>334</ele>
        <time>2021-04-11 08:36:43</time>
      </trkpt>
      <trkpt lat="41.51511" lon="1.97124">
        <ele>333.4</ele>
        <time>2021-04-11 08:36:44</time>
      </trkpt>
      <trkpt lat="41.515" lon="1.97118">
        <ele>332.8</ele>
        <time>2021-04-11 08:36:45</time>
      </trkpt>
      <trkpt lat="41.5149" lon="1.97111">
        <ele>332.2</ele>
        <time>2021-04-11 08:36:46</time>
      </trkpt>
      <trkpt lat="41.5148" lon="1.97103">
        <ele>331.6</ele>
        <time>2021-04-11 08:36:47</time>
      </trkpt>
      <trkpt lat="41.5147" lon="1.97096">
        <ele>330.8</ele>
        <time>2021-04-11 08:36:48</time>
      </trkpt>
      <trkpt lat="41.51462" lon="1.97087">
        <ele>330.2</ele>
        <time>2021-04-11 08:36:49</time>
      </trkpt>
      <trkpt lat="41.51452" lon="1.97077">
        <ele>329.4</ele>
        <time>2021-04-11 08:36:50</time>
      </trkpt>
      <trkpt lat="41.51444" lon="1.97067">
        <ele>328.8</ele>
        <time>2021-04-11 08:36:51</time>
      </trkpt>
      <trkpt lat="41.51435" lon="1.97059">
        <ele>328.4</ele>
        <time>2021-04-11 08:36:52</time>
      </trkpt>
      <trkpt lat="41.51426" lon="1.97054">
        <ele>328</ele>
        <time>2021-04-11 08:36:53</time>
      </trkpt>
      <trkpt lat="41.51417" lon="1.97052">
        <ele>327.4</ele>
        <time>2021-04-11 08:36:54</time>
      </trkpt>
      <trkpt lat="41.51408" lon="1.97055">
        <ele>327</ele>
        <time>2021-04-11 08:36:55</time>
      </trkpt>
      <trkpt lat="41.51398" lon="1.97062">
        <ele>326.4</ele>
        <time>2021-04-11 08:36:56</time>
      </trkpt>
      <trkpt lat="41.51388" lon="1.97069">
        <ele>325.8</ele>
        <time>2021-04-11 08:36:57</time>
      </trkpt>
      <trkpt lat="41.51378" lon="1.97075">
        <ele>325.2</ele>
        <time>2021-04-11 08:36:58</time>
      </trkpt>
      <trkpt lat="41.51368" lon="1.97079">
        <ele>324.4</ele>
        <time>2021-04-11 08:36:59</time>
      </trkpt>
      <trkpt lat="41.51356" lon="1.97081">
        <ele>323.6</ele>
        <time>2021-04-11 08:37:00</time>
      </trkpt>
      <trkpt lat="41.51345" lon="1.97082">
        <ele>322.8</ele>
        <time>2021-04-11 08:37:01</time>
      </trkpt>
      <trkpt lat="41.51333" lon="1.9708">
        <ele>322</ele>
        <time>2021-04-11 08:37:02</time>
      </trkpt>
      <trkpt lat="41.51321" lon="1.97079">
        <ele>321.4</ele>
        <time>2021-04-11 08:37:03</time>
      </trkpt>
      <trkpt lat="41.51309" lon="1.97078">
        <ele>320.6</ele>
        <time>2021-04-11 08:37:04</time>
      </trkpt>
      <trkpt lat="41.51298" lon="1.97076">
        <ele>319.8</ele>
        <time>2021-04-11 08:37:05</time>
      </trkpt>
      <trkpt lat="41.51286" lon="1.97075">
        <ele>319</ele>
        <time>2021-04-11 08:37:06</time>
      </trkpt>
      <trkpt lat="41.51275" lon="1.97074">
        <ele>318.4</ele>
        <time>2021-04-11 08:37:07</time>
      </trkpt>
      <trkpt lat="41.51265" lon="1.97071">
        <ele>317.6</ele>
        <time>2021-04-11 08:37:08</time>
      </trkpt>
      <trkpt lat="41.51256" lon="1.97065">
        <ele>316.8</ele>
        <time>2021-04-11 08:37:09</time>
      </trkpt>
      <trkpt lat="41.51248" lon="1.97057">
        <ele>315.8</ele>
        <time>2021-04-11 08:37:10</time>
      </trkpt>
      <trkpt lat="41.5124" lon="1.97045">
        <ele>315</ele>
        <time>2021-04-11 08:37:11</time>
      </trkpt>
      <trkpt lat="41.51235" lon="1.97032">
        <ele>314.2</ele>
        <time>2021-04-11 08:37:12</time>
      </trkpt>
      <trkpt lat="41.51229" lon="1.97019">
        <ele>313.2</ele>
        <time>2021-04-11 08:37:13</time>
      </trkpt>
      <trkpt lat="41.51223" lon="1.97008">
        <ele>312.4</ele>
        <time>2021-04-11 08:37:14</time>
      </trkpt>
      <trkpt lat="41.51213" lon="1.96996">
        <ele>311.4</ele>
        <time>2021-04-11 08:37:15</time>
      </trkpt>
      <trkpt lat="41.51204" lon="1.96986">
        <ele>310.6</ele>
        <time>2021-04-11 08:37:16</time>
      </trkpt>
      <trkpt lat="41.51193" lon="1.96976">
        <ele>309.8</ele>
        <time>2021-04-11 08:37:17</time>
      </trkpt>
      <trkpt lat="41.51182" lon="1.96967">
        <ele>308.8</ele>
        <time>2021-04-11 08:37:18</time>
      </trkpt>
      <trkpt lat="41.51172" lon="1.96958">
        <ele>308</ele>
        <time>2021-04-11 08:37:19</time>
      </trkpt>
      <trkpt lat="41.5116" lon="1.96949">
        <ele>307</ele>
        <time>2021-04-11 08:37:20</time>
      </trkpt>
      <trkpt lat="41.5115" lon="1.9694">
        <ele>306.2</ele>
        <time>2021-04-11 08:37:21</time>
      </trkpt>
      <trkpt lat="41.51139" lon="1.96931">
        <ele>305.4</ele>
        <time>2021-04-11 08:37:22</time>
      </trkpt>
      <trkpt lat="41.51128" lon="1.96923">
        <ele>304.6</ele>
        <time>2021-04-11 08:37:23</time>
      </trkpt>
      <trkpt lat="41.51117" lon="1.96915">
        <ele>303.8</ele>
        <time>2021-04-11 08:37:24</time>
      </trkpt>
      <trkpt lat="41.51105" lon="1.96908">
        <ele>302.8</ele>
        <time>2021-04-11 08:37:25</time>
      </trkpt>
      <trkpt lat="41.51094" lon="1.96902">
        <ele>302.2</ele>
        <time>2021-04-11 08:37:26</time>
      </trkpt>
      <trkpt lat="41.51081" lon="1.96898">
        <ele>301.4</ele>
        <time>2021-04-11 08:37:27</time>
      </trkpt>
      <trkpt lat="41.51069" lon="1.96896">
        <ele>300.8</ele>
        <time>2021-04-11 08:37:28</time>
      </trkpt>
      <trkpt lat="41.51057" lon="1.96896">
        <ele>300.2</ele>
        <time>2021-04-11 08:37:29</time>
      </trkpt>
      <trkpt lat="41.51044" lon="1.96898">
        <ele>299.6</ele>
        <time>2021-04-11 08:37:30</time>
      </trkpt>
      <trkpt lat="41.51031" lon="1.96902">
        <ele>299</ele>
        <time>2021-04-11 08:37:31</time>
      </trkpt>
      <trkpt lat="41.51019" lon="1.96907">
        <ele>298.6</ele>
        <time>2021-04-11 08:37:32</time>
      </trkpt>
      <trkpt lat="41.51007" lon="1.96912">
        <ele>298</ele>
        <time>2021-04-11 08:37:33</time>
      </trkpt>
      <trkpt lat="41.50995" lon="1.96917">
        <ele>297.4</ele>
        <time>2021-04-11 08:37:34</time>
      </trkpt>
      <trkpt lat="41.50983" lon="1.96921">
        <ele>296.8</ele>
        <time>2021-04-11 08:37:35</time>
      </trkpt>
      <trkpt lat="41.50971" lon="1.96926">
        <ele>296.2</ele>
        <time>2021-04-11 08:37:36</time>
      </trkpt>
      <trkpt lat="41.50958" lon="1.9693">
        <ele>295.6</ele>
        <time>2021-04-11 08:37:37</time>
      </trkpt>
      <trkpt lat="41.50946" lon="1.96934">
        <ele>295</ele>
        <time>2021-04-11 08:37:38</time>
      </trkpt>
      <trkpt lat="41.50934" lon="1.96938">
        <ele>294.4</ele>
        <time>2021-04-11 08:37:39</time>
      </trkpt>
      <trkpt lat="41.50922" lon="1.96941">
        <ele>294</ele>
        <time>2021-04-11 08:37:40</time>
      </trkpt>
      <trkpt lat="41.5091" lon="1.96946">
        <ele>293.4</ele>
        <time>2021-04-11 08:37:41</time>
      </trkpt>
      <trkpt lat="41.50899" lon="1.9695">
        <ele>292.8</ele>
        <time>2021-04-11 08:37:42</time>
      </trkpt>
      <trkpt lat="41.50887" lon="1.96956">
        <ele>292.4</ele>
        <time>2021-04-11 08:37:43</time>
      </trkpt>
      <trkpt lat="41.50877" lon="1.96964">
        <ele>291.8</ele>
        <time>2021-04-11 08:37:44</time>
      </trkpt>
      <trkpt lat="41.50866" lon="1.96975">
        <ele>291.2</ele>
        <time>2021-04-11 08:37:45</time>
      </trkpt>
      <trkpt lat="41.50856" lon="1.96987">
        <ele>290.6</ele>
        <time>2021-04-11 08:37:46</time>
      </trkpt>
      <trkpt lat="41.50849" lon="1.96999">
        <ele>290</ele>
        <time>2021-04-11 08:37:47</time>
      </trkpt>
      <trkpt lat="41.50842" lon="1.97013">
        <ele>289.6</ele>
        <time>2021-04-11 08:37:48</time>
      </trkpt>
      <trkpt lat="41.50835" lon="1.97024">
        <ele>289</ele>
        <time>2021-04-11 08:37:49</time>
      </trkpt>
      <trkpt lat="41.50828" lon="1.97036">
        <ele>288.4</ele>
        <time>2021-04-11 08:37:50</time>
      </trkpt>
      <trkpt lat="41.50822" lon="1.97046">
        <ele>288</ele>
        <time>2021-04-11 08:37:51</time>
      </trkpt>
      <trkpt lat="41.50815" lon="1.97055">
        <ele>287.4</ele>
        <time>2021-04-11 08:37:52</time>
      </trkpt>
      <trkpt lat="41.50806" lon="1.97063">
        <ele>286.8</ele>
        <time>2021-04-11 08:37:53</time>
      </trkpt>
      <trkpt lat="41.50797" lon="1.97068">
        <ele>286.2</ele>
        <time>2021-04-11 08:37:54</time>
      </trkpt>
      <trkpt lat="41.50787" lon="1.97068">
        <ele>285.4</ele>
        <time>2021-04-11 08:37:55</time>
      </trkpt>
      <trkpt lat="41.50775" lon="1.97064">
        <ele>284.8</ele>
        <time>2021-04-11 08:37:56</time>
      </trkpt>
      <trkpt lat="41.50764" lon="1.97058">
        <ele>284.2</ele>
        <time>2021-04-11 08:37:57</time>
      </trkpt>
      <trkpt lat="41.50754" lon="1.97053">
        <ele>283.6</ele>
        <time>2021-04-11 08:37:58</time>
      </trkpt>
      <trkpt lat="41.50743" lon="1.97048">
        <ele>283.2</ele>
        <time>2021-04-11 08:37:59</time>
      </trkpt>
      <trkpt lat="41.50732" lon="1.97044">
        <ele>282.8</ele>
        <time>2021-04-11 08:38:00</time>
      </trkpt>
      <trkpt lat="41.50722" lon="1.9704">
        <ele>282.4</ele>
        <time>2021-04-11 08:38:01</time>
      </trkpt>
      <trkpt lat="41.50711" lon="1.97037">
        <ele>282</ele>
        <time>2021-04-11 08:38:02</time>
      </trkpt>
      <trkpt lat="41.507" lon="1.97034">
        <ele>282</ele>
        <time>2021-04-11 08:38:03</time>
      </trkpt>
      <trkpt lat="41.5069" lon="1.97031">
        <ele>281.8</ele>
        <time>2021-04-11 08:38:04</time>
      </trkpt>
      <trkpt lat="41.50679" lon="1.9703">
        <ele>281.8</ele>
        <time>2021-04-11 08:38:05</time>
      </trkpt>
      <trkpt lat="41.50668" lon="1.97028">
        <ele>281.6</ele>
        <time>2021-04-11 08:38:06</time>
      </trkpt>
      <trkpt lat="41.50658" lon="1.97026">
        <ele>281.6</ele>
        <time>2021-04-11 08:38:07</time>
      </trkpt>
      <trkpt lat="41.50648" lon="1.97023">
        <ele>281.6</ele>
        <time>2021-04-11 08:38:08</time>
      </trkpt>
      <trkpt lat="41.50638" lon="1.9702">
        <ele>281.6</ele>
        <time>2021-04-11 08:38:09</time>
      </trkpt>
      <trkpt lat="41.50628" lon="1.97017">
        <ele>281.6</ele>
        <time>2021-04-11 08:38:10</time>
      </trkpt>
      <trkpt lat="41.50619" lon="1.97012">
        <ele>281.8</ele>
        <time>2021-04-11 08:38:11</time>
      </trkpt>
      <trkpt lat="41.50609" lon="1.97008">
        <ele>281.8</ele>
        <time>2021-04-11 08:38:12</time>
      </trkpt>
      <trkpt lat="41.50601" lon="1.97002">
        <ele>282</ele>
        <time>2021-04-11 08:38:13</time>
      </trkpt>
      <trkpt lat="41.50593" lon="1.96996">
        <ele>282.2</ele>
        <time>2021-04-11 08:38:14</time>
      </trkpt>
      <trkpt lat="41.50584" lon="1.9699">
        <ele>282.4</ele>
        <time>2021-04-11 08:38:15</time>
      </trkpt>
      <trkpt lat="41.50576" lon="1.96983">
        <ele>282.8</ele>
        <time>2021-04-11 08:38:16</time>
      </trkpt>
      <trkpt lat="41.50568" lon="1.96977">
        <ele>283</ele>
        <time>2021-04-11 08:38:17</time>
      </trkpt>
      <trkpt lat="41.50559" lon="1.9697">
        <ele>283.2</ele>
        <time>2021-04-11 08:38:18</time>
      </trkpt>
      <trkpt lat="41.50552" lon="1.96964">
        <ele>283.4</ele>
        <time>2021-04-11 08:38:19</time>
      </trkpt>
      <trkpt lat="41.50545" lon="1.96959">
        <ele>283.4</ele>
        <time>2021-04-11 08:38:20</time>
      </trkpt>
      <trkpt lat="41.50536" lon="1.96954">
        <ele>283.4</ele>
        <time>2021-04-11 08:38:21</time>
      </trkpt>
      <trkpt lat="41.50528" lon="1.96947">
        <ele>283</ele>
        <time>2021-04-11 08:38:22</time>
      </trkpt>
      <trkpt lat="41.5052" lon="1.96941">
        <ele>282.6</ele>
        <time>2021-04-11 08:38:23</time>
      </trkpt>
      <trkpt lat="41.50511" lon="1.96932">
        <ele>282</ele>
        <time>2021-04-11 08:38:24</time>
      </trkpt>
      <trkpt lat="41.50504" lon="1.96922">
        <ele>281.4</ele>
        <time>2021-04-11 08:38:25</time>
      </trkpt>
      <trkpt lat="41.50498" lon="1.96911">
        <ele>280.8</ele>
        <time>2021-04-11 08:38:26</time>
      </trkpt>
      <trkpt lat="41.50494" lon="1.96897">
        <ele>280.2</ele>
        <time>2021-04-11 08:38:27</time>
      </trkpt>
      <trkpt lat="41.50494" lon="1.96883">
        <ele>279.6</ele>
        <time>2021-04-11 08:38:28</time>
      </trkpt>
      <trkpt lat="41.50494" lon="1.96869">
        <ele>279</ele>
        <time>2021-04-11 08:38:29</time>
      </trkpt>
      <trkpt lat="41.50495" lon="1.96853">
        <ele>278.2</ele>
        <time>2021-04-11 08:38:30</time>
      </trkpt>
      <trkpt lat="41.50495" lon="1.96838">
        <ele>277.6</ele>
        <time>2021-04-11 08:38:31</time>
      </trkpt>
      <trkpt lat="41.50495" lon="1.96822">
        <ele>276.8</ele>
        <time>2021-04-11 08:38:32</time>
      </trkpt>
      <trkpt lat="41.50494" lon="1.96807">
        <ele>276</ele>
        <time>2021-04-11 08:38:33</time>
      </trkpt>
      <trkpt lat="41.50492" lon="1.96793">
        <ele>275.4</ele>
        <time>2021-04-11 08:38:34</time>
      </trkpt>
      <trkpt lat="41.50488" lon="1.96778">
        <ele>274.8</ele>
        <time>2021-04-11 08:38:35</time>
      </trkpt>
      <trkpt lat="41.50481" lon="1.96764">
        <ele>274.2</ele>
        <time>2021-04-11 08:38:36</time>
      </trkpt>
      <trkpt lat="41.50473" lon="1.96753">
        <ele>273.4</ele>
        <time>2021-04-11 08:38:37</time>
      </trkpt>
      <trkpt lat="41.50463" lon="1.96744">
        <ele>272.8</ele>
        <time>2021-04-11 08:38:38</time>
      </trkpt>
      <trkpt lat="41.50453" lon="1.96738">
        <ele>272.2</ele>
        <time>2021-04-11 08:38:39</time>
      </trkpt>
      <trkpt lat="41.50442" lon="1.96734">
        <ele>271.4</ele>
        <time>2021-04-11 08:38:40</time>
      </trkpt>
      <trkpt lat="41.50429" lon="1.96733">
        <ele>270.8</ele>
        <time>2021-04-11 08:38:41</time>
      </trkpt>
      <trkpt lat="41.50417" lon="1.96735">
        <ele>270.2</ele>
        <time>2021-04-11 08:38:42</time>
      </trkpt>
      <trkpt lat="41.50405" lon="1.96739">
        <ele>269.6</ele>
        <time>2021-04-11 08:38:43</time>
      </trkpt>
      <trkpt lat="41.50392" lon="1.96744">
        <ele>269</ele>
        <time>2021-04-11 08:38:44</time>
      </trkpt>
      <trkpt lat="41.50379" lon="1.96748">
        <ele>268.2</ele>
        <time>2021-04-11 08:38:45</time>
      </trkpt>
      <trkpt lat="41.50367" lon="1.96753">
        <ele>267.6</ele>
        <time>2021-04-11 08:38:46</time>
      </trkpt>
      <trkpt lat="41.50354" lon="1.96756">
        <ele>266.8</ele>
        <time>2021-04-11 08:38:47</time>
      </trkpt>
      <trkpt lat="41.50341" lon="1.9676">
        <ele>266.2</ele>
        <time>2021-04-11 08:38:48</time>
      </trkpt>
      <trkpt lat="41.50329" lon="1.96763">
        <ele>265.4</ele>
        <time>2021-04-11 08:38:49</time>
      </trkpt>
      <trkpt lat="41.50316" lon="1.96767">
        <ele>264.8</ele>
        <time>2021-04-11 08:38:50</time>
      </trkpt>
      <trkpt lat="41.50304" lon="1.96771">
        <ele>264</ele>
        <time>2021-04-11 08:38:51</time>
      </trkpt>
      <trkpt lat="41.50291" lon="1.96774">
        <ele>263.4</ele>
        <time>2021-04-11 08:38:52</time>
      </trkpt>
      <trkpt lat="41.50278" lon="1.96775">
        <ele>262.8</ele>
        <time>2021-04-11 08:38:53</time>
      </trkpt>
      <trkpt lat="41.50265" lon="1.96776">
        <ele>262.2</ele>
        <time>2021-04-11 08:38:54</time>
      </trkpt>
      <trkpt lat="41.50252" lon="1.96776">
        <ele>261.4</ele>
        <time>2021-04-11 08:38:55</time>
      </trkpt>
      <trkpt lat="41.50239" lon="1.96776">
        <ele>260.6</ele>
        <time>2021-04-11 08:38:56</time>
      </trkpt>
      <trkpt lat="41.50225" lon="1.96773">
        <ele>260</ele>
        <time>2021-04-11 08:38:57</time>
      </trkpt>
      <trkpt lat="41.50212" lon="1.96771">
        <ele>259.4</ele>
        <time>2021-04-11 08:38:58</time>
      </trkpt>
      <trkpt lat="41.502" lon="1.96768">
        <ele>258.6</ele>
        <time>2021-04-11 08:38:59</time>
      </trkpt>
      <trkpt lat="41.50186" lon="1.96765">
        <ele>258.2</ele>
        <time>2021-04-11 08:39:00</time>
      </trkpt>
      <trkpt lat="41.50174" lon="1.96763">
        <ele>257.8</ele>
        <time>2021-04-11 08:39:01</time>
      </trkpt>
      <trkpt lat="41.50161" lon="1.9676">
        <ele>257.4</ele>
        <time>2021-04-11 08:39:02</time>
      </trkpt>
      <trkpt lat="41.50149" lon="1.96758">
        <ele>257.2</ele>
        <time>2021-04-11 08:39:03</time>
      </trkpt>
      <trkpt lat="41.50137" lon="1.96756">
        <ele>257</ele>
        <time>2021-04-11 08:39:04</time>
      </trkpt>
      <trkpt lat="41.50125" lon="1.96753">
        <ele>256.8</ele>
        <time>2021-04-11 08:39:05</time>
      </trkpt>
      <trkpt lat="41.50113" lon="1.96751">
        <ele>256.6</ele>
        <time>2021-04-11 08:39:06</time>
      </trkpt>
      <trkpt lat="41.50101" lon="1.96748">
        <ele>256.4</ele>
        <time>2021-04-11 08:39:07</time>
      </trkpt>
      <trkpt lat="41.5009" lon="1.96746">
        <ele>256.4</ele>
        <time>2021-04-11 08:39:08</time>
      </trkpt>
      <trkpt lat="41.50079" lon="1.96744">
        <ele>256.4</ele>
        <time>2021-04-11 08:39:09</time>
      </trkpt>
      <trkpt lat="41.50068" lon="1.96742">
        <ele>256.4</ele>
        <time>2021-04-11 08:39:10</time>
      </trkpt>
      <trkpt lat="41.50057" lon="1.9674">
        <ele>256.4</ele>
        <time>2021-04-11 08:39:11</time>
      </trkpt>
      <trkpt lat="41.50046" lon="1.96737">
        <ele>256.4</ele>
        <time>2021-04-11 08:39:12</time>
      </trkpt>
      <trkpt lat="41.50035" lon="1.96735">
        <ele>256.2</ele>
        <time>2021-04-11 08:39:13</time>
      </trkpt>
      <trkpt lat="41.50024" lon="1.96732">
        <ele>256.2</ele>
        <time>2021-04-11 08:39:14</time>
      </trkpt>
      <trkpt lat="41.50013" lon="1.96731">
        <ele>256.2</ele>
        <time>2021-04-11 08:39:15</time>
      </trkpt>
      <trkpt lat="41.50002" lon="1.96729">
        <ele>256.2</ele>
        <time>2021-04-11 08:39:16</time>
      </trkpt>
      <trkpt lat="41.49991" lon="1.96726">
        <ele>256.2</ele>
        <time>2021-04-11 08:39:17</time>
      </trkpt>
      <trkpt lat="41.49981" lon="1.96724">
        <ele>256.2</ele>
        <time>2021-04-11 08:39:18</time>
      </trkpt>
      <trkpt lat="41.49971" lon="1.96723">
        <ele>256.2</ele>
        <time>2021-04-11 08:39:19</time>
      </trkpt>
      <trkpt lat="41.49961" lon="1.96721">
        <ele>256</ele>
        <time>2021-04-11 08:39:20</time>
      </trkpt>
      <trkpt lat="41.4995" lon="1.96719">
        <ele>256</ele>
        <time>2021-04-11 08:39:21</time>
      </trkpt>
      <trkpt lat="41.49941" lon="1.96717">
        <ele>256</ele>
        <time>2021-04-11 08:39:22</time>
      </trkpt>
      <trkpt lat="41.49931" lon="1.96714">
        <ele>256</ele>
        <time>2021-04-11 08:39:23</time>
      </trkpt>
      <trkpt lat="41.49921" lon="1.96712">
        <ele>256</ele>
        <time>2021-04-11 08:39:24</time>
      </trkpt>
      <trkpt lat="41.49912" lon="1.96707">
        <ele>255.8</ele>
        <time>2021-04-11 08:39:25</time>
      </trkpt>
      <trkpt lat="41.49902" lon="1.96701">
        <ele>255.6</ele>
        <time>2021-04-11 08:39:26</time>
      </trkpt>
      <trkpt lat="41.49894" lon="1.96691">
        <ele>255.6</ele>
        <time>2021-04-11 08:39:27</time>
      </trkpt>
      <trkpt lat="41.49889" lon="1.96681">
        <ele>255.6</ele>
        <time>2021-04-11 08:39:28</time>
      </trkpt>
      <trkpt lat="41.49885" lon="1.96668">
        <ele>255.6</ele>
        <time>2021-04-11 08:39:29</time>
      </trkpt>
      <trkpt lat="41.49884" lon="1.96656">
        <ele>255.8</ele>
        <time>2021-04-11 08:39:30</time>
      </trkpt>
      <trkpt lat="41.49883" lon="1.96642">
        <ele>255.8</ele>
        <time>2021-04-11 08:39:31</time>
      </trkpt>
      <trkpt lat="41.49883" lon="1.9663">
        <ele>256</ele>
        <time>2021-04-11 08:39:32</time>
      </trkpt>
      <trkpt lat="41.49882" lon="1.96617">
        <ele>256.2</ele>
        <time>2021-04-11 08:39:33</time>
      </trkpt>
      <trkpt lat="41.49882" lon="1.96605">
        <ele>256.2</ele>
        <time>2021-04-11 08:39:34</time>
      </trkpt>
      <trkpt lat="41.49882" lon="1.96593">
        <ele>256.4</ele>
        <time>2021-04-11 08:39:35</time>
      </trkpt>
      <trkpt lat="41.49881" lon="1.96581">
        <ele>256.6</ele>
        <time>2021-04-11 08:39:36</time>
      </trkpt>
      <trkpt lat="41.49881" lon="1.96568">
        <ele>256.6</ele>
        <time>2021-04-11 08:39:37</time>
      </trkpt>
      <trkpt lat="41.4988" lon="1.96557">
        <ele>256.8</ele>
        <time>2021-04-11 08:39:38</time>
      </trkpt>
      <trkpt lat="41.49879" lon="1.96544">
        <ele>256.8</ele>
        <time>2021-04-11 08:39:39</time>
      </trkpt>
      <trkpt lat="41.49879" lon="1.96532">
        <ele>256.8</ele>
        <time>2021-04-11 08:39:40</time>
      </trkpt>
      <trkpt lat="41.49878" lon="1.9652">
        <ele>256.8</ele>
        <time>2021-04-11 08:39:41</time>
      </trkpt>
      <trkpt lat="41.49877" lon="1.96509">
        <ele>256.8</ele>
        <time>2021-04-11 08:39:42</time>
      </trkpt>
      <trkpt lat="41.49877" lon="1.96497">
        <ele>256.6</ele>
        <time>2021-04-11 08:39:43</time>
      </trkpt>
      <trkpt lat="41.49876" lon="1.96485">
        <ele>256.4</ele>
        <time>2021-04-11 08:39:44</time>
      </trkpt>
      <trkpt lat="41.49876" lon="1.96471">
        <ele>256</ele>
        <time>2021-04-11 08:39:45</time>
      </trkpt>
      <trkpt lat="41.49875" lon="1.96459">
        <ele>255.6</ele>
        <time>2021-04-11 08:39:46</time>
      </trkpt>
      <trkpt lat="41.49874" lon="1.96445">
        <ele>255.2</ele>
        <time>2021-04-11 08:39:47</time>
      </trkpt>
      <trkpt lat="41.49874" lon="1.96432">
        <ele>254.8</ele>
        <time>2021-04-11 08:39:48</time>
      </trkpt>
      <trkpt lat="41.49873" lon="1.96418">
        <ele>254.2</ele>
        <time>2021-04-11 08:39:49</time>
      </trkpt>
      <trkpt lat="41.49872" lon="1.96403">
        <ele>253.8</ele>
        <time>2021-04-11 08:39:50</time>
      </trkpt>
      <trkpt lat="41.49871" lon="1.96389">
        <ele>253.2</ele>
        <time>2021-04-11 08:39:51</time>
      </trkpt>
      <trkpt lat="41.49871" lon="1.96375">
        <ele>252.8</ele>
        <time>2021-04-11 08:39:52</time>
      </trkpt>
      <trkpt lat="41.49871" lon="1.96361">
        <ele>252.6</ele>
        <time>2021-04-11 08:39:53</time>
      </trkpt>
      <trkpt lat="41.4987" lon="1.96347">
        <ele>252.2</ele>
        <time>2021-04-11 08:39:54</time>
      </trkpt>
      <trkpt lat="41.49868" lon="1.96332">
        <ele>251.8</ele>
        <time>2021-04-11 08:39:55</time>
      </trkpt>
      <trkpt lat="41.49865" lon="1.96318">
        <ele>251.6</ele>
        <time>2021-04-11 08:39:56</time>
      </trkpt>
      <trkpt lat="41.49862" lon="1.96304">
        <ele>251.6</ele>
        <time>2021-04-11 08:39:57</time>
      </trkpt>
      <trkpt lat="41.49858" lon="1.96291">
        <ele>251.4</ele>
        <time>2021-04-11 08:39:58</time>
      </trkpt>
      <trkpt lat="41.49853" lon="1.96278">
        <ele>251.2</ele>
        <time>2021-04-11 08:39:59</time>
      </trkpt>
      <trkpt lat="41.49849" lon="1.96264">
        <ele>251</ele>
        <time>2021-04-11 08:40:00</time>
      </trkpt>
      <trkpt lat="41.49844" lon="1.96251">
        <ele>251</ele>
        <time>2021-04-11 08:40:01</time>
      </trkpt>
      <trkpt lat="41.49839" lon="1.96238">
        <ele>250.8</ele>
        <time>2021-04-11 08:40:02</time>
      </trkpt>
      <trkpt lat="41.49835" lon="1.96225">
        <ele>250.6</ele>
        <time>2021-04-11 08:40:03</time>
      </trkpt>
      <trkpt lat="41.4983" lon="1.96213">
        <ele>250.6</ele>
        <time>2021-04-11 08:40:04</time>
      </trkpt>
      <trkpt lat="41.49826" lon="1.96201">
        <ele>250.4</ele>
        <time>2021-04-11 08:40:05</time>
      </trkpt>
      <trkpt lat="41.49821" lon="1.96189">
        <ele>250.4</ele>
        <time>2021-04-11 08:40:06</time>
      </trkpt>
      <trkpt lat="41.49814" lon="1.96178">
        <ele>250.2</ele>
        <time>2021-04-11 08:40:07</time>
      </trkpt>
      <trkpt lat="41.49807" lon="1.9617">
        <ele>250</ele>
        <time>2021-04-11 08:40:08</time>
      </trkpt>
      <trkpt lat="41.49799" lon="1.96162">
        <ele>250</ele>
        <time>2021-04-11 08:40:09</time>
      </trkpt>
      <trkpt lat="41.49789" lon="1.96155">
        <ele>250</ele>
        <time>2021-04-11 08:40:10</time>
      </trkpt>
      <trkpt lat="41.4978" lon="1.9615">
        <ele>250</ele>
        <time>2021-04-11 08:40:11</time>
      </trkpt>
      <trkpt lat="41.4977" lon="1.96147">
        <ele>250</ele>
        <time>2021-04-11 08:40:12</time>
      </trkpt>
      <trkpt lat="41.49759" lon="1.96145">
        <ele>249.8</ele>
        <time>2021-04-11 08:40:13</time>
      </trkpt>
      <trkpt lat="41.49749" lon="1.96144">
        <ele>250</ele>
        <time>2021-04-11 08:40:14</time>
      </trkpt>
      <trkpt lat="41.49739" lon="1.96144">
        <ele>250</ele>
        <time>2021-04-11 08:40:15</time>
      </trkpt>
      <trkpt lat="41.49728" lon="1.96144">
        <ele>250</ele>
        <time>2021-04-11 08:40:16</time>
      </trkpt>
      <trkpt lat="41.49719" lon="1.96143">
        <ele>250</ele>
        <time>2021-04-11 08:40:17</time>
      </trkpt>
      <trkpt lat="41.49709" lon="1.96143">
        <ele>249.8</ele>
        <time>2021-04-11 08:40:18</time>
      </trkpt>
      <trkpt lat="41.49699" lon="1.96143">
        <ele>249.6</ele>
        <time>2021-04-11 08:40:19</time>
      </trkpt>
      <trkpt lat="41.49688" lon="1.9614">
        <ele>249.4</ele>
        <time>2021-04-11 08:40:20</time>
      </trkpt>
      <trkpt lat="41.49678" lon="1.96137">
        <ele>249</ele>
        <time>2021-04-11 08:40:21</time>
      </trkpt>
      <trkpt lat="41.49667" lon="1.96133">
        <ele>248.8</ele>
        <time>2021-04-11 08:40:22</time>
      </trkpt>
      <trkpt lat="41.49656" lon="1.9613">
        <ele>248.4</ele>
        <time>2021-04-11 08:40:23</time>
      </trkpt>
      <trkpt lat="41.49646" lon="1.96127">
        <ele>248</ele>
        <time>2021-04-11 08:40:24</time>
      </trkpt>
      <trkpt lat="41.49635" lon="1.96123">
        <ele>247.4</ele>
        <time>2021-04-11 08:40:25</time>
      </trkpt>
      <trkpt lat="41.49624" lon="1.9612">
        <ele>247</ele>
        <time>2021-04-11 08:40:26</time>
      </trkpt>
      <trkpt lat="41.49613" lon="1.96115">
        <ele>246.4</ele>
        <time>2021-04-11 08:40:27</time>
      </trkpt>
      <trkpt lat="41.49602" lon="1.9611">
        <ele>246</ele>
        <time>2021-04-11 08:40:28</time>
      </trkpt>
      <trkpt lat="41.49592" lon="1.96106">
        <ele>245.4</ele>
        <time>2021-04-11 08:40:29</time>
      </trkpt>
      <trkpt lat="41.49581" lon="1.96101">
        <ele>245</ele>
        <time>2021-04-11 08:40:30</time>
      </trkpt>
      <trkpt lat="41.49569" lon="1.96098">
        <ele>244.4</ele>
        <time>2021-04-11 08:40:31</time>
      </trkpt>
      <trkpt lat="41.49558" lon="1.96094">
        <ele>243.8</ele>
        <time>2021-04-11 08:40:32</time>
      </trkpt>
      <trkpt lat="41.49547" lon="1.96091">
        <ele>243.4</ele>
        <time>2021-04-11 08:40:33</time>
      </trkpt>
      <trkpt lat="41.49536" lon="1.96088">
        <ele>243</ele>
        <time>2021-04-11 08:40:34</time>
      </trkpt>
      <trkpt lat="41.49524" lon="1.96084">
        <ele>242.6</ele>
        <time>2021-04-11 08:40:35</time>
      </trkpt>
      <trkpt lat="41.49514" lon="1.9608">
        <ele>242.2</ele>
        <time>2021-04-11 08:40:36</time>
      </trkpt>
      <trkpt lat="41.49502" lon="1.96077">
        <ele>241.8</ele>
        <time>2021-04-11 08:40:37</time>
      </trkpt>
      <trkpt lat="41.49491" lon="1.96073">
        <ele>241.4</ele>
        <time>2021-04-11 08:40:38</time>
      </trkpt>
      <trkpt lat="41.49481" lon="1.96068">
        <ele>241</ele>
        <time>2021-04-11 08:40:39</time>
      </trkpt>
      <trkpt lat="41.49469" lon="1.96063">
        <ele>240.6</ele>
        <time>2021-04-11 08:40:40</time>
      </trkpt>
      <trkpt lat="41.49458" lon="1.96056">
        <ele>240.2</ele>
        <time>2021-04-11 08:40:41</time>
      </trkpt>
      <trkpt lat="41.49447" lon="1.96049">
        <ele>239.6</ele>
        <time>2021-04-11 08:40:42</time>
      </trkpt>
      <trkpt lat="41.49437" lon="1.96041">
        <ele>239.2</ele>
        <time>2021-04-11 08:40:43</time>
      </trkpt>
      <trkpt lat="41.49428" lon="1.96033">
        <ele>238.6</ele>
        <time>2021-04-11 08:40:44</time>
      </trkpt>
      <trkpt lat="41.49417" lon="1.96025">
        <ele>238.2</ele>
        <time>2021-04-11 08:40:45</time>
      </trkpt>
      <trkpt lat="41.49406" lon="1.96017">
        <ele>237.6</ele>
        <time>2021-04-11 08:40:46</time>
      </trkpt>
      <trkpt lat="41.49396" lon="1.96009">
        <ele>237</ele>
        <time>2021-04-11 08:40:47</time>
      </trkpt>
      <trkpt lat="41.49386" lon="1.96001">
        <ele>236.4</ele>
        <time>2021-04-11 08:40:48</time>
      </trkpt>
      <trkpt lat="41.49376" lon="1.95993">
        <ele>235.8</ele>
        <time>2021-04-11 08:40:49</time>
      </trkpt>
      <trkpt lat="41.49364" lon="1.95985">
        <ele>235.2</ele>
        <time>2021-04-11 08:40:50</time>
      </trkpt>
      <trkpt lat="41.49352" lon="1.95976">
        <ele>234.6</ele>
        <time>2021-04-11 08:40:51</time>
      </trkpt>
      <trkpt lat="41.49342" lon="1.95968">
        <ele>234.2</ele>
        <time>2021-04-11 08:40:52</time>
      </trkpt>
      <trkpt lat="41.49332" lon="1.95959">
        <ele>233.6</ele>
        <time>2021-04-11 08:40:53</time>
      </trkpt>
      <trkpt lat="41.49322" lon="1.9595">
        <ele>233.2</ele>
        <time>2021-04-11 08:40:54</time>
      </trkpt>
      <trkpt lat="41.49312" lon="1.95941">
        <ele>233</ele>
        <time>2021-04-11 08:40:55</time>
      </trkpt>
      <trkpt lat="41.49302" lon="1.95933">
        <ele>232.6</ele>
        <time>2021-04-11 08:40:56</time>
      </trkpt>
      <trkpt lat="41.49291" lon="1.95924">
        <ele>232.4</ele>
        <time>2021-04-11 08:40:57</time>
      </trkpt>
      <trkpt lat="41.49281" lon="1.95916">
        <ele>232</ele>
        <time>2021-04-11 08:40:58</time>
      </trkpt>
      <trkpt lat="41.4927" lon="1.95908">
        <ele>232</ele>
        <time>2021-04-11 08:40:59</time>
      </trkpt>
      <trkpt lat="41.4926" lon="1.959">
        <ele>231.8</ele>
        <time>2021-04-11 08:41:00</time>
      </trkpt>
      <trkpt lat="41.49252" lon="1.95891">
        <ele>231.6</ele>
        <time>2021-04-11 08:41:01</time>
      </trkpt>
      <trkpt lat="41.49242" lon="1.95884">
        <ele>231.4</ele>
        <time>2021-04-11 08:41:02</time>
      </trkpt>
      <trkpt lat="41.49233" lon="1.95877">
        <ele>231.4</ele>
        <time>2021-04-11 08:41:03</time>
      </trkpt>
      <trkpt lat="41.49225" lon="1.9587">
        <ele>231.2</ele>
        <time>2021-04-11 08:41:04</time>
      </trkpt>
      <trkpt lat="41.49216" lon="1.95859">
        <ele>231.2</ele>
        <time>2021-04-11 08:41:05</time>
      </trkpt>
      <trkpt lat="41.49208" lon="1.95848">
        <ele>231</ele>
        <time>2021-04-11 08:41:06</time>
      </trkpt>
      <trkpt lat="41.49202" lon="1.95835">
        <ele>230.8</ele>
        <time>2021-04-11 08:41:07</time>
      </trkpt>
      <trkpt lat="41.49196" lon="1.95823">
        <ele>230.6</ele>
        <time>2021-04-11 08:41:08</time>
      </trkpt>
      <trkpt lat="41.4919" lon="1.9581">
        <ele>230.6</ele>
        <time>2021-04-11 08:41:09</time>
      </trkpt>
      <trkpt lat="41.49184" lon="1.95798">
        <ele>230.4</ele>
        <time>2021-04-11 08:41:10</time>
      </trkpt>
      <trkpt lat="41.49179" lon="1.95786">
        <ele>230.2</ele>
        <time>2021-04-11 08:41:11</time>
      </trkpt>
      <trkpt lat="41.49174" lon="1.95774">
        <ele>230</ele>
        <time>2021-04-11 08:41:12</time>
      </trkpt>
      <trkpt lat="41.49169" lon="1.95761">
        <ele>229.8</ele>
        <time>2021-04-11 08:41:13</time>
      </trkpt>
      <trkpt lat="41.49163" lon="1.9575">
        <ele>229.8</ele>
        <time>2021-04-11 08:41:14</time>
      </trkpt>
      <trkpt lat="41.49156" lon="1.9574">
        <ele>229.8</ele>
        <time>2021-04-11 08:41:15</time>
      </trkpt>
      <trkpt lat="41.49148" lon="1.95732">
        <ele>229.6</ele>
        <time>2021-04-11 08:41:16</time>
      </trkpt>
      <trkpt lat="41.4914" lon="1.95723">
        <ele>229.6</ele>
        <time>2021-04-11 08:41:17</time>
      </trkpt>
      <trkpt lat="41.49133" lon="1.95713">
        <ele>229.4</ele>
        <time>2021-04-11 08:41:18</time>
      </trkpt>
      <trkpt lat="41.49126" lon="1.95703">
        <ele>229.4</ele>
        <time>2021-04-11 08:41:19</time>
      </trkpt>
      <trkpt lat="41.4912" lon="1.95691">
        <ele>229.4</ele>
        <time>2021-04-11 08:41:20</time>
      </trkpt>
      <trkpt lat="41.49113" lon="1.9568">
        <ele>229.4</ele>
        <time>2021-04-11 08:41:21</time>
      </trkpt>
      <trkpt lat="41.49108" lon="1.95669">
        <ele>229.4</ele>
        <time>2021-04-11 08:41:22</time>
      </trkpt>
      <trkpt lat="41.49102" lon="1.95659">
        <ele>229.4</ele>
        <time>2021-04-11 08:41:23</time>
      </trkpt>
      <trkpt lat="41.49095" lon="1.9565">
        <ele>229.4</ele>
        <time>2021-04-11 08:41:24</time>
      </trkpt>
      <trkpt lat="41.49087" lon="1.95641">
        <ele>229.4</ele>
        <time>2021-04-11 08:41:25</time>
      </trkpt>
      <trkpt lat="41.49079" lon="1.95634">
        <ele>229.4</ele>
        <time>2021-04-11 08:41:26</time>
      </trkpt>
      <trkpt lat="41.4907" lon="1.9563">
        <ele>229.6</ele>
        <time>2021-04-11 08:41:27</time>
      </trkpt>
      <trkpt lat="41.49059" lon="1.95628">
        <ele>229.6</ele>
        <time>2021-04-11 08:41:28</time>
      </trkpt>
      <trkpt lat="41.49049" lon="1.95626">
        <ele>229.6</ele>
        <time>2021-04-11 08:41:29</time>
      </trkpt>
      <trkpt lat="41.49038" lon="1.95624">
        <ele>229.8</ele>
        <time>2021-04-11 08:41:30</time>
      </trkpt>
      <trkpt lat="41.49028" lon="1.95623">
        <ele>229.8</ele>
        <time>2021-04-11 08:41:31</time>
      </trkpt>
      <trkpt lat="41.49019" lon="1.95621">
        <ele>229.8</ele>
        <time>2021-04-11 08:41:32</time>
      </trkpt>
      <trkpt lat="41.49009" lon="1.9562">
        <ele>229.8</ele>
        <time>2021-04-11 08:41:33</time>
      </trkpt>
      <trkpt lat="41.49" lon="1.95618">
        <ele>229.8</ele>
        <time>2021-04-11 08:41:34</time>
      </trkpt>
      <trkpt lat="41.4899" lon="1.95617">
        <ele>230</ele>
        <time>2021-04-11 08:41:35</time>
      </trkpt>
      <trkpt lat="41.48981" lon="1.95616">
        <ele>229.8</ele>
        <time>2021-04-11 08:41:36</time>
      </trkpt>
      <trkpt lat="41.48971" lon="1.95614">
        <ele>229.8</ele>
        <time>2021-04-11 08:41:37</time>
      </trkpt>
      <trkpt lat="41.48961" lon="1.9561">
        <ele>229.6</ele>
        <time>2021-04-11 08:41:38</time>
      </trkpt>
      <trkpt lat="41.48952" lon="1.95606">
        <ele>229.2</ele>
        <time>2021-04-11 08:41:39</time>
      </trkpt>
      <trkpt lat="41.48942" lon="1.956">
        <ele>229</ele>
        <time>2021-04-11 08:41:40</time>
      </trkpt>
      <trkpt lat="41.48933" lon="1.95593">
        <ele>228.6</ele>
        <time>2021-04-11 08:41:41</time>
      </trkpt>
      <trkpt lat="41.48925" lon="1.95585">
        <ele>228.2</ele>
        <time>2021-04-11 08:41:42</time>
      </trkpt>
      <trkpt lat="41.48917" lon="1.95574">
        <ele>227.8</ele>
        <time>2021-04-11 08:41:43</time>
      </trkpt>
      <trkpt lat="41.4891" lon="1.95563">
        <ele>227.2</ele>
        <time>2021-04-11 08:41:44</time>
      </trkpt>
      <trkpt lat="41.48903" lon="1.9555">
        <ele>226.6</ele>
        <time>2021-04-11 08:41:45</time>
      </trkpt>
      <trkpt lat="41.48896" lon="1.95538">
        <ele>226</ele>
        <time>2021-04-11 08:41:46</time>
      </trkpt>
      <trkpt lat="41.48889" lon="1.95526">
        <ele>225.2</ele>
        <time>2021-04-11 08:41:47</time>
      </trkpt>
      <trkpt lat="41.48881" lon="1.95513">
        <ele>224.6</ele>
        <time>2021-04-11 08:41:48</time>
      </trkpt>
      <trkpt lat="41.48875" lon="1.95502">
        <ele>223.8</ele>
        <time>2021-04-11 08:41:49</time>
      </trkpt>
      <trkpt lat="41.48866" lon="1.95488">
        <ele>223</ele>
        <time>2021-04-11 08:41:50</time>
      </trkpt>
      <trkpt lat="41.48859" lon="1.95475">
        <ele>222.4</ele>
        <time>2021-04-11 08:41:51</time>
      </trkpt>
      <trkpt lat="41.48852" lon="1.95462">
        <ele>221.6</ele>
        <time>2021-04-11 08:41:52</time>
      </trkpt>
      <trkpt lat="41.48844" lon="1.9545">
        <ele>221</ele>
        <time>2021-04-11 08:41:53</time>
      </trkpt>
      <trkpt lat="41.48838" lon="1.95437">
        <ele>220.4</ele>
        <time>2021-04-11 08:41:54</time>
      </trkpt>
      <trkpt lat="41.4883" lon="1.95424">
        <ele>219.8</ele>
        <time>2021-04-11 08:41:55</time>
      </trkpt>
      <trkpt lat="41.48823" lon="1.95411">
        <ele>219.4</ele>
        <time>2021-04-11 08:41:56</time>
      </trkpt>
      <trkpt lat="41.48816" lon="1.95398">
        <ele>219</ele>
        <time>2021-04-11 08:41:57</time>
      </trkpt>
      <trkpt lat="41.48809" lon="1.95387">
        <ele>218.8</ele>
        <time>2021-04-11 08:41:58</time>
      </trkpt>
      <trkpt lat="41.48801" lon="1.95374">
        <ele>218.4</ele>
        <time>2021-04-11 08:41:59</time>
      </trkpt>
      <trkpt lat="41.48794" lon="1.95361">
        <ele>218.2</ele>
        <time>2021-04-11 08:42:00</time>
      </trkpt>
      <trkpt lat="41.48787" lon="1.95349">
        <ele>218</ele>
        <time>2021-04-11 08:42:01</time>
      </trkpt>
      <trkpt lat="41.48779" lon="1.95337">
        <ele>218</ele>
        <time>2021-04-11 08:42:02</time>
      </trkpt>
      <trkpt lat="41.48771" lon="1.95325">
        <ele>217.8</ele>
        <time>2021-04-11 08:42:03</time>
      </trkpt>
      <trkpt lat="41.48764" lon="1.95314">
        <ele>217.8</ele>
        <time>2021-04-11 08:42:04</time>
      </trkpt>
      <trkpt lat="41.48756" lon="1.95303">
        <ele>217.6</ele>
        <time>2021-04-11 08:42:05</time>
      </trkpt>
      <trkpt lat="41.48749" lon="1.95291">
        <ele>217.6</ele>
        <time>2021-04-11 08:42:06</time>
      </trkpt>
      <trkpt lat="41.48741" lon="1.9528">
        <ele>217.4</ele>
        <time>2021-04-11 08:42:07</time>
      </trkpt>
      <trkpt lat="41.48734" lon="1.9527">
        <ele>217.4</ele>
        <time>2021-04-11 08:42:08</time>
      </trkpt>
      <trkpt lat="41.48725" lon="1.95259">
        <ele>217.4</ele>
        <time>2021-04-11 08:42:09</time>
      </trkpt>
      <trkpt lat="41.48718" lon="1.95249">
        <ele>217.4</ele>
        <time>2021-04-11 08:42:10</time>
      </trkpt>
      <trkpt lat="41.48711" lon="1.95239">
        <ele>217.4</ele>
        <time>2021-04-11 08:42:11</time>
      </trkpt>
      <trkpt lat="41.48703" lon="1.9523">
        <ele>217.4</ele>
        <time>2021-04-11 08:42:12</time>
      </trkpt>
      <trkpt lat="41.48694" lon="1.95223">
        <ele>217.2</ele>
        <time>2021-04-11 08:42:13</time>
      </trkpt>
      <trkpt lat="41.48683" lon="1.95219">
        <ele>217.2</ele>
        <time>2021-04-11 08:42:14</time>
      </trkpt>
      <trkpt lat="41.48672" lon="1.95217">
        <ele>217.2</ele>
        <time>2021-04-11 08:42:15</time>
      </trkpt>
      <trkpt lat="41.48661" lon="1.95215">
        <ele>217.2</ele>
        <time>2021-04-11 08:42:16</time>
      </trkpt>
      <trkpt lat="41.48651" lon="1.95213">
        <ele>217.2</ele>
        <time>2021-04-11 08:42:17</time>
      </trkpt>
      <trkpt lat="41.4864" lon="1.95211">
        <ele>217</ele>
        <time>2021-04-11 08:42:18</time>
      </trkpt>
      <trkpt lat="41.48629" lon="1.95209">
        <ele>217</ele>
        <time>2021-04-11 08:42:19</time>
      </trkpt>
      <trkpt lat="41.48619" lon="1.95205">
        <ele>216.8</ele>
        <time>2021-04-11 08:42:20</time>
      </trkpt>
      <trkpt lat="41.48608" lon="1.95199">
        <ele>216.6</ele>
        <time>2021-04-11 08:42:21</time>
      </trkpt>
      <trkpt lat="41.48599" lon="1.95192">
        <ele>216.4</ele>
        <time>2021-04-11 08:42:22</time>
      </trkpt>
      <trkpt lat="41.48591" lon="1.95183">
        <ele>216.2</ele>
        <time>2021-04-11 08:42:23</time>
      </trkpt>
      <trkpt lat="41.48582" lon="1.95171">
        <ele>215.8</ele>
        <time>2021-04-11 08:42:24</time>
      </trkpt>
      <trkpt lat="41.48575" lon="1.95159">
        <ele>215.4</ele>
        <time>2021-04-11 08:42:25</time>
      </trkpt>
      <trkpt lat="41.48568" lon="1.95147">
        <ele>215</ele>
        <time>2021-04-11 08:42:26</time>
      </trkpt>
      <trkpt lat="41.4856" lon="1.95135">
        <ele>214.4</ele>
        <time>2021-04-11 08:42:27</time>
      </trkpt>
      <trkpt lat="41.48552" lon="1.95124">
        <ele>214</ele>
        <time>2021-04-11 08:42:28</time>
      </trkpt>
      <trkpt lat="41.48542" lon="1.95115">
        <ele>213.4</ele>
        <time>2021-04-11 08:42:29</time>
      </trkpt>
      <trkpt lat="41.48531" lon="1.95109">
        <ele>213</ele>
        <time>2021-04-11 08:42:30</time>
      </trkpt>
      <trkpt lat="41.4852" lon="1.95107">
        <ele>212.4</ele>
        <time>2021-04-11 08:42:31</time>
      </trkpt>
      <trkpt lat="41.48508" lon="1.95107">
        <ele>212.2</ele>
        <time>2021-04-11 08:42:32</time>
      </trkpt>
      <trkpt lat="41.48496" lon="1.95107">
        <ele>211.8</ele>
        <time>2021-04-11 08:42:33</time>
      </trkpt>
      <trkpt lat="41.48484" lon="1.95108">
        <ele>211.4</ele>
        <time>2021-04-11 08:42:34</time>
      </trkpt>
      <trkpt lat="41.48472" lon="1.9511">
        <ele>211</ele>
        <time>2021-04-11 08:42:35</time>
      </trkpt>
      <trkpt lat="41.48459" lon="1.95112">
        <ele>210.6</ele>
        <time>2021-04-11 08:42:36</time>
      </trkpt>
      <trkpt lat="41.48447" lon="1.95113">
        <ele>210.4</ele>
        <time>2021-04-11 08:42:37</time>
      </trkpt>
      <trkpt lat="41.48435" lon="1.95113">
        <ele>210</ele>
        <time>2021-04-11 08:42:38</time>
      </trkpt>
      <trkpt lat="41.48423" lon="1.95113">
        <ele>209.6</ele>
        <time>2021-04-11 08:42:39</time>
      </trkpt>
      <trkpt lat="41.48411" lon="1.95114">
        <ele>209.4</ele>
        <time>2021-04-11 08:42:40</time>
      </trkpt>
      <trkpt lat="41.48399" lon="1.95115">
        <ele>209</ele>
        <time>2021-04-11 08:42:41</time>
      </trkpt>
      <trkpt lat="41.48388" lon="1.95115">
        <ele>208.6</ele>
        <time>2021-04-11 08:42:42</time>
      </trkpt>
      <trkpt lat="41.48377" lon="1.95111">
        <ele>208.2</ele>
        <time>2021-04-11 08:42:43</time>
      </trkpt>
      <trkpt lat="41.48365" lon="1.95105">
        <ele>207.8</ele>
        <time>2021-04-11 08:42:44</time>
      </trkpt>
      <trkpt lat="41.48356" lon="1.95096">
        <ele>207.6</ele>
        <time>2021-04-11 08:42:45</time>
      </trkpt>
      <trkpt lat="41.48347" lon="1.95085">
        <ele>207</ele>
        <time>2021-04-11 08:42:46</time>
      </trkpt>
      <trkpt lat="41.48338" lon="1.95073">
        <ele>206.4</ele>
        <time>2021-04-11 08:42:47</time>
      </trkpt>
      <trkpt lat="41.4833" lon="1.95061">
        <ele>206</ele>
        <time>2021-04-11 08:42:48</time>
      </trkpt>
      <trkpt lat="41.48321" lon="1.95049">
        <ele>205.4</ele>
        <time>2021-04-11 08:42:49</time>
      </trkpt>
      <trkpt lat="41.48311" lon="1.95038">
        <ele>205</ele>
        <time>2021-04-11 08:42:50</time>
      </trkpt>
      <trkpt lat="41.48301" lon="1.95029">
        <ele>204.2</ele>
        <time>2021-04-11 08:42:51</time>
      </trkpt>
      <trkpt lat="41.4829" lon="1.95022">
        <ele>203.6</ele>
        <time>2021-04-11 08:42:52</time>
      </trkpt>
      <trkpt lat="41.48279" lon="1.9502">
        <ele>203</ele>
        <time>2021-04-11 08:42:53</time>
      </trkpt>
      <trkpt lat="41.48268" lon="1.95018">
        <ele>202.6</ele>
        <time>2021-04-11 08:42:54</time>
      </trkpt>
      <trkpt lat="41.48256" lon="1.95017">
        <ele>202.2</ele>
        <time>2021-04-11 08:42:55</time>
      </trkpt>
      <trkpt lat="41.48245" lon="1.95016">
        <ele>201.8</ele>
        <time>2021-04-11 08:42:56</time>
      </trkpt>
      <trkpt lat="41.48234" lon="1.95015">
        <ele>201.2</ele>
        <time>2021-04-11 08:42:57</time>
      </trkpt>
      <trkpt lat="41.48223" lon="1.95013">
        <ele>200.8</ele>
        <time>2021-04-11 08:42:58</time>
      </trkpt>
      <trkpt lat="41.48213" lon="1.95008">
        <ele>200.2</ele>
        <time>2021-04-11 08:42:59</time>
      </trkpt>
      <trkpt lat="41.48202" lon="1.95003">
        <ele>199.6</ele>
        <time>2021-04-11 08:43:00</time>
      </trkpt>
      <trkpt lat="41.4819" lon="1.94995">
        <ele>199</ele>
        <time>2021-04-11 08:43:01</time>
      </trkpt>
      <trkpt lat="41.48179" lon="1.94987">
        <ele>198.4</ele>
        <time>2021-04-11 08:43:02</time>
      </trkpt>
      <trkpt lat="41.48169" lon="1.94978">
        <ele>197.8</ele>
        <time>2021-04-11 08:43:03</time>
      </trkpt>
      <trkpt lat="41.48159" lon="1.9497">
        <ele>197.2</ele>
        <time>2021-04-11 08:43:04</time>
      </trkpt>
      <trkpt lat="41.48149" lon="1.94962">
        <ele>196.6</ele>
        <time>2021-04-11 08:43:05</time>
      </trkpt>
      <trkpt lat="41.48138" lon="1.94955">
        <ele>196</ele>
        <time>2021-04-11 08:43:06</time>
      </trkpt>
      <trkpt lat="41.48127" lon="1.9495">
        <ele>195.4</ele>
        <time>2021-04-11 08:43:07</time>
      </trkpt>
      <trkpt lat="41.48116" lon="1.94945">
        <ele>194.8</ele>
        <time>2021-04-11 08:43:08</time>
      </trkpt>
      <trkpt lat="41.48104" lon="1.94942">
        <ele>194.2</ele>
        <time>2021-04-11 08:43:09</time>
      </trkpt>
      <trkpt lat="41.48092" lon="1.94941">
        <ele>193.4</ele>
        <time>2021-04-11 08:43:10</time>
      </trkpt>
      <trkpt lat="41.4808" lon="1.94942">
        <ele>192.8</ele>
        <time>2021-04-11 08:43:11</time>
      </trkpt>
      <trkpt lat="41.48069" lon="1.94946">
        <ele>192.2</ele>
        <time>2021-04-11 08:43:12</time>
      </trkpt>
      <trkpt lat="41.48058" lon="1.94951">
        <ele>191.4</ele>
        <time>2021-04-11 08:43:13</time>
      </trkpt>
      <trkpt lat="41.48048" lon="1.94957">
        <ele>190.6</ele>
        <time>2021-04-11 08:43:14</time>
      </trkpt>
      <trkpt lat="41.48038" lon="1.94964">
        <ele>189.8</ele>
        <time>2021-04-11 08:43:15</time>
      </trkpt>
      <trkpt lat="41.48027" lon="1.94968">
        <ele>188.8</ele>
        <time>2021-04-11 08:43:16</time>
      </trkpt>
      <trkpt lat="41.48015" lon="1.94968">
        <ele>188</ele>
        <time>2021-04-11 08:43:17</time>
      </trkpt>
      <trkpt lat="41.48006" lon="1.94967">
        <ele>187.2</ele>
        <time>2021-04-11 08:43:18</time>
      </trkpt>
      <trkpt lat="41.47993" lon="1.94962">
        <ele>186.4</ele>
        <time>2021-04-11 08:43:19</time>
      </trkpt>
      <trkpt lat="41.47982" lon="1.94956">
        <ele>185.8</ele>
        <time>2021-04-11 08:43:20</time>
      </trkpt>
      <trkpt lat="41.47972" lon="1.94949">
        <ele>185.2</ele>
        <time>2021-04-11 08:43:21</time>
      </trkpt>
      <trkpt lat="41.47962" lon="1.94942">
        <ele>184.6</ele>
        <time>2021-04-11 08:43:22</time>
      </trkpt>
      <trkpt lat="41.47955" lon="1.94933">
        <ele>184.2</ele>
        <time>2021-04-11 08:43:23</time>
      </trkpt>
      <trkpt lat="41.4795" lon="1.94921">
        <ele>183.6</ele>
        <time>2021-04-11 08:43:24</time>
      </trkpt>
      <trkpt lat="41.47947" lon="1.94908">
        <ele>182.8</ele>
        <time>2021-04-11 08:43:25</time>
      </trkpt>
      <trkpt lat="41.47948" lon="1.94895">
        <ele>182</ele>
        <time>2021-04-11 08:43:26</time>
      </trkpt>
      <trkpt lat="41.47949" lon="1.9488">
        <ele>181.2</ele>
        <time>2021-04-11 08:43:27</time>
      </trkpt>
      <trkpt lat="41.47952" lon="1.94866">
        <ele>180.4</ele>
        <time>2021-04-11 08:43:28</time>
      </trkpt>
      <trkpt lat="41.47956" lon="1.94851">
        <ele>179.6</ele>
        <time>2021-04-11 08:43:29</time>
      </trkpt>
      <trkpt lat="41.4796" lon="1.94836">
        <ele>178.8</ele>
        <time>2021-04-11 08:43:30</time>
      </trkpt>
      <trkpt lat="41.47964" lon="1.9482">
        <ele>177.8</ele>
        <time>2021-04-11 08:43:31</time>
      </trkpt>
      <trkpt lat="41.47967" lon="1.94803">
        <ele>177</ele>
        <time>2021-04-11 08:43:32</time>
      </trkpt>
      <trkpt lat="41.47968" lon="1.94787">
        <ele>176.2</ele>
        <time>2021-04-11 08:43:33</time>
      </trkpt>
      <trkpt lat="41.47968" lon="1.9477">
        <ele>175.2</ele>
        <time>2021-04-11 08:43:34</time>
      </trkpt>
      <trkpt lat="41.47966" lon="1.94754">
        <ele>174.4</ele>
        <time>2021-04-11 08:43:35</time>
      </trkpt>
      <trkpt lat="41.47963" lon="1.94737">
        <ele>173.6</ele>
        <time>2021-04-11 08:43:36</time>
      </trkpt>
      <trkpt lat="41.47956" lon="1.94723">
        <ele>172.6</ele>
        <time>2021-04-11 08:43:37</time>
      </trkpt>
      <trkpt lat="41.47949" lon="1.94709">
        <ele>171.8</ele>
        <time>2021-04-11 08:43:38</time>
      </trkpt>
      <trkpt lat="41.47942" lon="1.94694">
        <ele>171</ele>
        <time>2021-04-11 08:43:39</time>
      </trkpt>
      <trkpt lat="41.47936" lon="1.94679">
        <ele>170</ele>
        <time>2021-04-11 08:43:40</time>
      </trkpt>
      <trkpt lat="41.47932" lon="1.94663">
        <ele>169.2</ele>
        <time>2021-04-11 08:43:41</time>
      </trkpt>
      <trkpt lat="41.4793" lon="1.94646">
        <ele>168.4</ele>
        <time>2021-04-11 08:43:42</time>
      </trkpt>
      <trkpt lat="41.4793" lon="1.94629">
        <ele>167.6</ele>
        <time>2021-04-11 08:43:43</time>
      </trkpt>
      <trkpt lat="41.47931" lon="1.94611">
        <ele>166.6</ele>
        <time>2021-04-11 08:43:44</time>
      </trkpt>
      <trkpt lat="41.47933" lon="1.94593">
        <ele>165.8</ele>
        <time>2021-04-11 08:43:45</time>
      </trkpt>
      <trkpt lat="41.47934" lon="1.94575">
        <ele>165.2</ele>
        <time>2021-04-11 08:43:46</time>
      </trkpt>
      <trkpt lat="41.47937" lon="1.94559">
        <ele>164.4</ele>
        <time>2021-04-11 08:43:47</time>
      </trkpt>
      <trkpt lat="41.47939" lon="1.94544">
        <ele>163.8</ele>
        <time>2021-04-11 08:43:48</time>
      </trkpt>
      <trkpt lat="41.47942" lon="1.94527">
        <ele>163</ele>
        <time>2021-04-11 08:43:49</time>
      </trkpt>
      <trkpt lat="41.47947" lon="1.94512">
        <ele>162.2</ele>
        <time>2021-04-11 08:43:50</time>
      </trkpt>
      <trkpt lat="41.47952" lon="1.94498">
        <ele>161.6</ele>
        <time>2021-04-11 08:43:51</time>
      </trkpt>
      <trkpt lat="41.47958" lon="1.94485">
        <ele>160.8</ele>
        <time>2021-04-11 08:43:52</time>
      </trkpt>
      <trkpt lat="41.47963" lon="1.94473">
        <ele>160</ele>
        <time>2021-04-11 08:43:53</time>
      </trkpt>
      <trkpt lat="41.47966" lon="1.94458">
        <ele>159.4</ele>
        <time>2021-04-11 08:43:54</time>
      </trkpt>
      <trkpt lat="41.47966" lon="1.94443">
        <ele>158.6</ele>
        <time>2021-04-11 08:43:55</time>
      </trkpt>
      <trkpt lat="41.47962" lon="1.94428">
        <ele>157.8</ele>
        <time>2021-04-11 08:43:56</time>
      </trkpt>
      <trkpt lat="41.47958" lon="1.94413">
        <ele>157</ele>
        <time>2021-04-11 08:43:57</time>
      </trkpt>
      <trkpt lat="41.47954" lon="1.94399">
        <ele>156</ele>
        <time>2021-04-11 08:43:58</time>
      </trkpt>
      <trkpt lat="41.47948" lon="1.94385">
        <ele>155.2</ele>
        <time>2021-04-11 08:43:59</time>
      </trkpt>
      <trkpt lat="41.4794" lon="1.94372">
        <ele>154.2</ele>
        <time>2021-04-11 08:44:00</time>
      </trkpt>
      <trkpt lat="41.47932" lon="1.94361">
        <ele>153.4</ele>
        <time>2021-04-11 08:44:01</time>
      </trkpt>
      <trkpt lat="41.47921" lon="1.94351">
        <ele>152.6</ele>
        <time>2021-04-11 08:44:02</time>
      </trkpt>
      <trkpt lat="41.47912" lon="1.94342">
        <ele>151.8</ele>
        <time>2021-04-11 08:44:03</time>
      </trkpt>
      <trkpt lat="41.47903" lon="1.9433">
        <ele>151</ele>
        <time>2021-04-11 08:44:04</time>
      </trkpt>
      <trkpt lat="41.47896" lon="1.94319">
        <ele>150.2</ele>
        <time>2021-04-11 08:44:05</time>
      </trkpt>
      <trkpt lat="41.47889" lon="1.94307">
        <ele>149.4</ele>
        <time>2021-04-11 08:44:06</time>
      </trkpt>
      <trkpt lat="41.47885" lon="1.94293">
        <ele>148.6</ele>
        <time>2021-04-11 08:44:07</time>
      </trkpt>
      <trkpt lat="41.47883" lon="1.94278">
        <ele>147.8</ele>
        <time>2021-04-11 08:44:08</time>
      </trkpt>
      <trkpt lat="41.4788" lon="1.94262">
        <ele>147</ele>
        <time>2021-04-11 08:44:09</time>
      </trkpt>
      <trkpt lat="41.47879" lon="1.94247">
        <ele>146.2</ele>
        <time>2021-04-11 08:44:10</time>
      </trkpt>
      <trkpt lat="41.47877" lon="1.94232">
        <ele>145.6</ele>
        <time>2021-04-11 08:44:11</time>
      </trkpt>
      <trkpt lat="41.47876" lon="1.94218">
        <ele>145</ele>
        <time>2021-04-11 08:44:12</time>
      </trkpt>
      <trkpt lat="41.47875" lon="1.94206">
        <ele>144.2</ele>
        <time>2021-04-11 08:44:13</time>
      </trkpt>
      <trkpt lat="41.47874" lon="1.94192">
        <ele>143.4</ele>
        <time>2021-04-11 08:44:14</time>
      </trkpt>
      <trkpt lat="41.47873" lon="1.94178">
        <ele>142.8</ele>
        <time>2021-04-11 08:44:15</time>
      </trkpt>
      <trkpt lat="41.47872" lon="1.94164">
        <ele>142.2</ele>
        <time>2021-04-11 08:44:16</time>
      </trkpt>
      <trkpt lat="41.47871" lon="1.94149">
        <ele>141.6</ele>
        <time>2021-04-11 08:44:17</time>
      </trkpt>
      <trkpt lat="41.47872" lon="1.94134">
        <ele>141</ele>
        <time>2021-04-11 08:44:18</time>
      </trkpt>
      <trkpt lat="41.47874" lon="1.9412">
        <ele>140.2</ele>
        <time>2021-04-11 08:44:19</time>
      </trkpt>
      <trkpt lat="41.47875" lon="1.94106">
        <ele>139.6</ele>
        <time>2021-04-11 08:44:20</time>
      </trkpt>
      <trkpt lat="41.47876" lon="1.94091">
        <ele>139</ele>
        <time>2021-04-11 08:44:21</time>
      </trkpt>
      <trkpt lat="41.47878" lon="1.94077">
        <ele>138.4</ele>
        <time>2021-04-11 08:44:22</time>
      </trkpt>
      <trkpt lat="41.47879" lon="1.94063">
        <ele>137.8</ele>
        <time>2021-04-11 08:44:23</time>
      </trkpt>
      <trkpt lat="41.4788" lon="1.94047">
        <ele>137.2</ele>
        <time>2021-04-11 08:44:24</time>
      </trkpt>
      <trkpt lat="41.47881" lon="1.94033">
        <ele>136.8</ele>
        <time>2021-04-11 08:44:25</time>
      </trkpt>
      <trkpt lat="41.47882" lon="1.94018">
        <ele>136.4</ele>
        <time>2021-04-11 08:44:26</time>
      </trkpt>
      <trkpt lat="41.47883" lon="1.94004">
        <ele>136</ele>
        <time>2021-04-11 08:44:27</time>
      </trkpt>
      <trkpt lat="41.47884" lon="1.93991">
        <ele>135.6</ele>
        <time>2021-04-11 08:44:28</time>
      </trkpt>
      <trkpt lat="41.47884" lon="1.93978">
        <ele>135.4</ele>
        <time>2021-04-11 08:44:29</time>
      </trkpt>
      <trkpt lat="41.47885" lon="1.93968">
        <ele>135.2</ele>
        <time>2021-04-11 08:44:30</time>
      </trkpt>
      <trkpt lat="41.47886" lon="1.93957">
        <ele>135.2</ele>
        <time>2021-04-11 08:44:31</time>
      </trkpt>
      <trkpt lat="41.47888" lon="1.9395">
        <ele>135</ele>
        <time>2021-04-11 08:44:32</time>
      </trkpt>
      <trkpt lat="41.4789" lon="1.93943">
        <ele>134.6</ele>
        <time>2021-04-11 08:44:33</time>
      </trkpt>
      <trkpt lat="41.47892" lon="1.93936">
        <ele>134.4</ele>
        <time>2021-04-11 08:44:34</time>
      </trkpt>
      <trkpt lat="41.47894" lon="1.93931">
        <ele>134.2</ele>
        <time>2021-04-11 08:44:35</time>
      </trkpt>
      <trkpt lat="41.47897" lon="1.93926">
        <ele>134.2</ele>
        <time>2021-04-11 08:44:36</time>
      </trkpt>
      <trkpt lat="41.47899" lon="1.93922">
        <ele>134</ele>
        <time>2021-04-11 08:44:37</time>
      </trkpt>
      <trkpt lat="41.47901" lon="1.93919">
        <ele>133.8</ele>
        <time>2021-04-11 08:44:38</time>
      </trkpt>
      <trkpt lat="41.47902" lon="1.93917">
        <ele>133.8</ele>
        <time>2021-04-11 08:44:39</time>
      </trkpt>
      <trkpt lat="41.47903" lon="1.93916">
        <ele>133.4</ele>
        <time>2021-04-11 08:45:00</time>
      </trkpt>
      <trkpt lat="41.47903" lon="1.93916">
        <ele>133.4</ele>
        <time>2021-04-11 08:45:01</time>
      </trkpt>
      <trkpt lat="41.47905" lon="1.93914">
        <ele>133.4</ele>
        <time>2021-04-11 08:45:02</time>
      </trkpt>
      <trkpt lat="41.47907" lon="1.93912">
        <ele>133.4</ele>
        <time>2021-04-11 08:45:03</time>
      </trkpt>
      <trkpt lat="41.47908" lon="1.9391">
        <ele>133.4</ele>
        <time>2021-04-11 08:45:04</time>
      </trkpt>
      <trkpt lat="41.4791" lon="1.93908">
        <ele>133.2</ele>
        <time>2021-04-11 08:45:05</time>
      </trkpt>
      <trkpt lat="41.47912" lon="1.93906">
        <ele>133.2</ele>
        <time>2021-04-11 08:45:06</time>
      </trkpt>
      <trkpt lat="41.47914" lon="1.93904">
        <ele>133</ele>
        <time>2021-04-11 08:45:07</time>
      </trkpt>
      <trkpt lat="41.47917" lon="1.93902">
        <ele>132.8</ele>
        <time>2021-04-11 08:45:08</time>
      </trkpt>
      <trkpt lat="41.4792" lon="1.93899">
        <ele>132.6</ele>
        <time>2021-04-11 08:45:09</time>
      </trkpt>
      <trkpt lat="41.47924" lon="1.93896">
        <ele>132.4</ele>
        <time>2021-04-11 08:45:10</time>
      </trkpt>
      <trkpt lat="41.47929" lon="1.93892">
        <ele>132.2</ele>
        <time>2021-04-11 08:45:11</time>
      </trkpt>
      <trkpt lat="41.47933" lon="1.93889">
        <ele>132</ele>
        <time>2021-04-11 08:45:12</time>
      </trkpt>
      <trkpt lat="41.47938" lon="1.93885">
        <ele>131.8</ele>
        <time>2021-04-11 08:45:13</time>
      </trkpt>
      <trkpt lat="41.47944" lon="1.93881">
        <ele>131.6</ele>
        <time>2021-04-11 08:45:14</time>
      </trkpt>
      <trkpt lat="41.4795" lon="1.93878">
        <ele>131.4</ele>
        <time>2021-04-11 08:45:15</time>
      </trkpt>
      <trkpt lat="41.47957" lon="1.93875">
        <ele>131.2</ele>
        <time>2021-04-11 08:45:16</time>
      </trkpt>
      <trkpt lat="41.47963" lon="1.93872">
        <ele>131.2</ele>
        <time>2021-04-11 08:45:17</time>
      </trkpt>
      <trkpt lat="41.47969" lon="1.93869">
        <ele>131</ele>
        <time>2021-04-11 08:45:18</time>
      </trkpt>
      <trkpt lat="41.47976" lon="1.93865">
        <ele>130.8</ele>
        <time>2021-04-11 08:45:19</time>
      </trkpt>
      <trkpt lat="41.47982" lon="1.93862">
        <ele>130.8</ele>
        <time>2021-04-11 08:45:20</time>
      </trkpt>
      <trkpt lat="41.47989" lon="1.93859">
        <ele>130.8</ele>
        <time>2021-04-11 08:45:21</time>
      </trkpt>
      <trkpt lat="41.47995" lon="1.93855">
        <ele>130.8</ele>
        <time>2021-04-11 08:45:22</time>
      </trkpt>
      <trkpt lat="41.48001" lon="1.93852">
        <ele>130.8</ele>
        <time>2021-04-11 08:45:23</time>
      </trkpt>
      <trkpt lat="41.48008" lon="1.93848">
        <ele>130.8</ele>
        <time>2021-04-11 08:45:24</time>
      </trkpt>
      <trkpt lat="41.48014" lon="1.93844">
        <ele>131</ele>
        <time>2021-04-11 08:45:25</time>
      </trkpt>
      <trkpt lat="41.4802" lon="1.9384">
        <ele>131.2</ele>
        <time>2021-04-11 08:45:26</time>
      </trkpt>
      <trkpt lat="41.48026" lon="1.93836">
        <ele>131.4</ele>
        <time>2021-04-11 08:45:27</time>
      </trkpt>
      <trkpt lat="41.48032" lon="1.93832">
        <ele>131.6</ele>
        <time>2021-04-11 08:45:28</time>
      </trkpt>
      <trkpt lat="41.48038" lon="1.93828">
        <ele>131.8</ele>
        <time>2021-04-11 08:45:29</time>
      </trkpt>
      <trkpt lat="41.48043" lon="1.93824">
        <ele>132</ele>
        <time>2021-04-11 08:45:30</time>
      </trkpt>
      <trkpt lat="41.48049" lon="1.9382">
        <ele>132.2</ele>
        <time>2021-04-11 08:45:31</time>
      </trkpt>
      <trkpt lat="41.48055" lon="1.93816">
        <ele>132.4</ele>
        <time>2021-04-11 08:45:32</time>
      </trkpt>
      <trkpt lat="41.4806" lon="1.93811">
        <ele>132.6</ele>
        <time>2021-04-11 08:45:33</time>
      </trkpt>
      <trkpt lat="41.48065" lon="1.93807">
        <ele>133</ele>
        <time>2021-04-11 08:45:34</time>
      </trkpt>
      <trkpt lat="41.4807" lon="1.93803">
        <ele>133.2</ele>
        <time>2021-04-11 08:45:35</time>
      </trkpt>
      <trkpt lat="41.48075" lon="1.93798">
        <ele>133.4</ele>
        <time>2021-04-11 08:45:36</time>
      </trkpt>
      <trkpt lat="41.4808" lon="1.93794">
        <ele>133.6</ele>
        <time>2021-04-11 08:45:37</time>
      </trkpt>
      <trkpt lat="41.48085" lon="1.93789">
        <ele>133.8</ele>
        <time>2021-04-11 08:45:38</time>
      </trkpt>
      <trkpt lat="41.4809" lon="1.93784">
        <ele>134.2</ele>
        <time>2021-04-11 08:45:39</time>
      </trkpt>
      <trkpt lat="41.48095" lon="1.93779">
        <ele>134.4</ele>
        <time>2021-04-11 08:45:40</time>
      </trkpt>
      <trkpt lat="41.481" lon="1.93774">
        <ele>134.6</ele>
        <time>2021-04-11 08:45:41</time>
      </trkpt>
      <trkpt lat="41.48104" lon="1.93769">
        <ele>134.8</ele>
        <time>2021-04-11 08:45:42</time>
      </trkpt>
      <trkpt lat="41.48109" lon="1.93764">
        <ele>135</ele>
        <time>2021-04-11 08:45:43</time>
      </trkpt>
      <trkpt lat="41.48114" lon="1.93759">
        <ele>135.2</ele>
        <time>2021-04-11 08:45:44</time>
      </trkpt>
      <trkpt lat="41.48119" lon="1.93754">
        <ele>135.6</ele>
        <time>2021-04-11 08:45:45</time>
      </trkpt>
      <trkpt lat="41.48123" lon="1.93748">
        <ele>135.8</ele>
        <time>2021-04-11 08:45:46</time>
      </trkpt>
      <trkpt lat="41.48128" lon="1.93743">
        <ele>136</ele>
        <time>2021-04-11 08:45:47</time>
      </trkpt>
      <trkpt lat="41.48132" lon="1.93738">
        <ele>136.2</ele>
        <time>2021-04-11 08:45:48</time>
      </trkpt>
      <trkpt lat="41.48137" lon="1.93732">
        <ele>136.4</ele>
        <time>2021-04-11 08:45:49</time>
      </trkpt>
      <trkpt lat="41.48141" lon="1.93727">
        <ele>136.6</ele>
        <time>2021-04-11 08:45:50</time>
      </trkpt>
      <trkpt lat="41.48146" lon="1.93721">
        <ele>136.6</ele>
        <time>2021-04-11 08:45:51</time>
      </trkpt>
      <trkpt lat="41.4815" lon="1.93715">
        <ele>136.8</ele>
        <time>2021-04-11 08:45:52</time>
      </trkpt>
      <trkpt lat="41.48155" lon="1.9371">
        <ele>137</ele>
        <time>2021-04-11 08:45:53</time>
      </trkpt>
      <trkpt lat="41.48161" lon="1.93703">
        <ele>137.2</ele>
        <time>2021-04-11 08:45:54</time>
      </trkpt>
      <trkpt lat="41.48165" lon="1.93698">
        <ele>137.2</ele>
        <time>2021-04-11 08:45:55</time>
      </trkpt>
      <trkpt lat="41.4817" lon="1.93692">
        <ele>137.2</ele>
        <time>2021-04-11 08:45:56</time>
      </trkpt>
      <trkpt lat="41.48175" lon="1.93686">
        <ele>137.4</ele>
        <time>2021-04-11 08:45:57</time>
      </trkpt>
      <trkpt lat="41.4818" lon="1.93681">
        <ele>137.2</ele>
        <time>2021-04-11 08:45:58</time>
      </trkpt>
      <trkpt lat="41.48186" lon="1.93674">
        <ele>137.2</ele>
        <time>2021-04-11 08:45:59</time>
      </trkpt>
      <trkpt lat="41.48191" lon="1.93669">
        <ele>137.2</ele>
        <time>2021-04-11 08:46:00</time>
      </trkpt>
      <trkpt lat="41.48197" lon="1.93664">
        <ele>137</ele>
        <time>2021-04-11 08:46:01</time>
      </trkpt>
      <trkpt lat="41.48204" lon="1.93658">
        <ele>136.8</ele>
        <time>2021-04-11 08:46:02</time>
      </trkpt>
      <trkpt lat="41.4821" lon="1.93653">
        <ele>136.6</ele>
        <time>2021-04-11 08:46:03</time>
      </trkpt>
      <trkpt lat="41.48217" lon="1.93648">
        <ele>136.4</ele>
        <time>2021-04-11 08:46:04</time>
      </trkpt>
      <trkpt lat="41.48224" lon="1.93644">
        <ele>136.2</ele>
        <time>2021-04-11 08:46:05</time>
      </trkpt>
      <trkpt lat="41.48232" lon="1.9364">
        <ele>136</ele>
        <time>2021-04-11 08:46:06</time>
      </trkpt>
      <trkpt lat="41.4824" lon="1.93636">
        <ele>135.6</ele>
        <time>2021-04-11 08:46:07</time>
      </trkpt>
      <trkpt lat="41.48247" lon="1.93632">
        <ele>135.2</ele>
        <time>2021-04-11 08:46:08</time>
      </trkpt>
      <trkpt lat="41.48256" lon="1.93628">
        <ele>134.8</ele>
        <time>2021-04-11 08:46:09</time>
      </trkpt>
      <trkpt lat="41.48265" lon="1.93624">
        <ele>134.4</ele>
        <time>2021-04-11 08:46:10</time>
      </trkpt>
      <trkpt lat="41.48274" lon="1.93621">
        <ele>133.8</ele>
        <time>2021-04-11 08:46:11</time>
      </trkpt>
      <trkpt lat="41.48283" lon="1.93618">
        <ele>133.4</ele>
        <time>2021-04-11 08:46:12</time>
      </trkpt>
      <trkpt lat="41.48293" lon="1.93617">
        <ele>132.6</ele>
        <time>2021-04-11 08:46:13</time>
      </trkpt>
      <trkpt lat="41.48303" lon="1.93615">
        <ele>132</ele>
        <time>2021-04-11 08:46:14</time>
      </trkpt>
      <trkpt lat="41.48313" lon="1.93614">
        <ele>131.2</ele>
        <time>2021-04-11 08:46:15</time>
      </trkpt>
      <trkpt lat="41.48324" lon="1.93613">
        <ele>130.6</ele>
        <time>2021-04-11 08:46:16</time>
      </trkpt>
      <trkpt lat="41.48335" lon="1.93611">
        <ele>130</ele>
        <time>2021-04-11 08:46:17</time>
      </trkpt>
      <trkpt lat="41.48345" lon="1.93609">
        <ele>129.4</ele>
        <time>2021-04-11 08:46:18</time>
      </trkpt>
      <trkpt lat="41.48357" lon="1.93605">
        <ele>128.6</ele>
        <time>2021-04-11 08:46:19</time>
      </trkpt>
      <trkpt lat="41.48368" lon="1.936">
        <ele>127.8</ele>
        <time>2021-04-11 08:46:20</time>
      </trkpt>
      <trkpt lat="41.4838" lon="1.93594">
        <ele>127.2</ele>
        <time>2021-04-11 08:46:21</time>
      </trkpt>
      <trkpt lat="41.48391" lon="1.93587">
        <ele>126.4</ele>
        <time>2021-04-11 08:46:22</time>
      </trkpt>
      <trkpt lat="41.48401" lon="1.93578">
        <ele>125.6</ele>
        <time>2021-04-11 08:46:23</time>
      </trkpt>
      <trkpt lat="41.48411" lon="1.93568">
        <ele>125</ele>
        <time>2021-04-11 08:46:24</time>
      </trkpt>
      <trkpt lat="41.48421" lon="1.93556">
        <ele>124.6</ele>
        <time>2021-04-11 08:46:25</time>
      </trkpt>
      <trkpt lat="41.48429" lon="1.93544">
        <ele>124</ele>
        <time>2021-04-11 08:46:26</time>
      </trkpt>
      <trkpt lat="41.48437" lon="1.93531">
        <ele>123.6</ele>
        <time>2021-04-11 08:46:27</time>
      </trkpt>
      <trkpt lat="41.48443" lon="1.93518">
        <ele>123.4</ele>
        <time>2021-04-11 08:46:28</time>
      </trkpt>
      <trkpt lat="41.48449" lon="1.93504">
        <ele>123</ele>
        <time>2021-04-11 08:46:29</time>
      </trkpt>
      <trkpt lat="41.48454" lon="1.9349">
        <ele>123</ele>
        <time>2021-04-11 08:46:30</time>
      </trkpt>
      <trkpt lat="41.48458" lon="1.93477">
        <ele>122.8</ele>
        <time>2021-04-11 08:46:31</time>
      </trkpt>
      <trkpt lat="41.48461" lon="1.93466">
        <ele>122.8</ele>
        <time>2021-04-11 08:46:32</time>
      </trkpt>
      <trkpt lat="41.48465" lon="1.93453">
        <ele>122.6</ele>
        <time>2021-04-11 08:46:33</time>
      </trkpt>
      <trkpt lat="41.48469" lon="1.93441">
        <ele>122.6</ele>
        <time>2021-04-11 08:46:34</time>
      </trkpt>
      <trkpt lat="41.48473" lon="1.93429">
        <ele>122.6</ele>
        <time>2021-04-11 08:46:35</time>
      </trkpt>
      <trkpt lat="41.48477" lon="1.93415">
        <ele>122.6</ele>
        <time>2021-04-11 08:46:36</time>
      </trkpt>
      <trkpt lat="41.48483" lon="1.93403">
        <ele>122.6</ele>
        <time>2021-04-11 08:46:37</time>
      </trkpt>
      <trkpt lat="41.48488" lon="1.93393">
        <ele>122.4</ele>
        <time>2021-04-11 08:46:38</time>
      </trkpt>
      <trkpt lat="41.48496" lon="1.93384">
        <ele>122.2</ele>
        <time>2021-04-11 08:46:39</time>
      </trkpt>
      <trkpt lat="41.48504" lon="1.93376">
        <ele>122.2</ele>
        <time>2021-04-11 08:46:40</time>
      </trkpt>
      <trkpt lat="41.48511" lon="1.93367">
        <ele>122.2</ele>
        <time>2021-04-11 08:46:41</time>
      </trkpt>
      <trkpt lat="41.48518" lon="1.93361">
        <ele>122.2</ele>
        <time>2021-04-11 08:46:42</time>
      </trkpt>
      <trkpt lat="41.48526" lon="1.93354">
        <ele>122.2</ele>
        <time>2021-04-11 08:46:43</time>
      </trkpt>
      <trkpt lat="41.48534" lon="1.93348">
        <ele>122.6</ele>
        <time>2021-04-11 08:46:44</time>
      </trkpt>
      <trkpt lat="41.48542" lon="1.93343">
        <ele>122.8</ele>
        <time>2021-04-11 08:46:45</time>
      </trkpt>
      <trkpt lat="41.48549" lon="1.93337">
        <ele>122.8</ele>
        <time>2021-04-11 08:46:46</time>
      </trkpt>
      <trkpt lat="41.48557" lon="1.93332">
        <ele>122.8</ele>
        <time>2021-04-11 08:46:47</time>
      </trkpt>
      <trkpt lat="41.48565" lon="1.93326">
        <ele>122.8</ele>
        <time>2021-04-11 08:46:48</time>
      </trkpt>
      <trkpt lat="41.48573" lon="1.9332">
        <ele>122.8</ele>
        <time>2021-04-11 08:46:49</time>
      </trkpt>
      <trkpt lat="41.48582" lon="1.93314">
        <ele>122.8</ele>
        <time>2021-04-11 08:46:50</time>
      </trkpt>
      <trkpt lat="41.4859" lon="1.93308">
        <ele>123</ele>
        <time>2021-04-11 08:46:51</time>
      </trkpt>
      <trkpt lat="41.48599" lon="1.93302">
        <ele>123</ele>
        <time>2021-04-11 08:46:52</time>
      </trkpt>
      <trkpt lat="41.48608" lon="1.93295">
        <ele>123.2</ele>
        <time>2021-04-11 08:46:53</time>
      </trkpt>
      <trkpt lat="41.48617" lon="1.93288">
        <ele>123.4</ele>
        <time>2021-04-11 08:46:54</time>
      </trkpt>
      <trkpt lat="41.48625" lon="1.9328">
        <ele>123.4</ele>
        <time>2021-04-11 08:46:55</time>
      </trkpt>
      <trkpt lat="41.48634" lon="1.93272">
        <ele>123.4</ele>
        <time>2021-04-11 08:46:56</time>
      </trkpt>
      <trkpt lat="41.48643" lon="1.93264">
        <ele>123.4</ele>
        <time>2021-04-11 08:46:57</time>
      </trkpt>
      <trkpt lat="41.48653" lon="1.93256">
        <ele>123.4</ele>
        <time>2021-04-11 08:46:58</time>
      </trkpt>
      <trkpt lat="41.48661" lon="1.93249">
        <ele>123.6</ele>
        <time>2021-04-11 08:46:59</time>
      </trkpt>
      <trkpt lat="41.4867" lon="1.93241">
        <ele>124</ele>
        <time>2021-04-11 08:47:00</time>
      </trkpt>
      <trkpt lat="41.48678" lon="1.93233">
        <ele>124.2</ele>
        <time>2021-04-11 08:47:01</time>
      </trkpt>
      <trkpt lat="41.48687" lon="1.93225">
        <ele>124.4</ele>
        <time>2021-04-11 08:47:02</time>
      </trkpt>
      <trkpt lat="41.48696" lon="1.93217">
        <ele>124.6</ele>
        <time>2021-04-11 08:47:03</time>
      </trkpt>
      <trkpt lat="41.48704" lon="1.9321">
        <ele>124.6</ele>
        <time>2021-04-11 08:47:04</time>
      </trkpt>
      <trkpt lat="41.48712" lon="1.93203">
        <ele>124.8</ele>
        <time>2021-04-11 08:47:05</time>
      </trkpt>
      <trkpt lat="41.4872" lon="1.93195">
        <ele>125</ele>
        <time>2021-04-11 08:47:06</time>
      </trkpt>
      <trkpt lat="41.48727" lon="1.93187">
        <ele>125.2</ele>
        <time>2021-04-11 08:47:07</time>
      </trkpt>
      <trkpt lat="41.48734" lon="1.93179">
        <ele>125.4</ele>
        <time>2021-04-11 08:47:08</time>
      </trkpt>
      <trkpt lat="41.48741" lon="1.93171">
        <ele>125.6</ele>
        <time>2021-04-11 08:47:09</time>
      </trkpt>
      <trkpt lat="41.48748" lon="1.93162">
        <ele>125.6</ele>
        <time>2021-04-11 08:47:10</time>
      </trkpt>
      <trkpt lat="41.48754" lon="1.93155">
        <ele>125.6</ele>
        <time>2021-04-11 08:47:11</time>
      </trkpt>
      <trkpt lat="41.48763" lon="1.93145">
        <ele>125.4</ele>
        <time>2021-04-11 08:47:12</time>
      </trkpt>
      <trkpt lat="41.4877" lon="1.93137">
        <ele>125.4</ele>
        <time>2021-04-11 08:47:13</time>
      </trkpt>
      <trkpt lat="41.48777" lon="1.93127">
        <ele>125.2</ele>
        <time>2021-04-11 08:47:14</time>
      </trkpt>
      <trkpt lat="41.48785" lon="1.93118">
        <ele>125.2</ele>
        <time>2021-04-11 08:47:15</time>
      </trkpt>
      <trkpt lat="41.48792" lon="1.9311">
        <ele>125</ele>
        <time>2021-04-11 08:47:16</time>
      </trkpt>
      <trkpt lat="41.48799" lon="1.93101">
        <ele>124.8</ele>
        <time>2021-04-11 08:47:17</time>
      </trkpt>
      <trkpt lat="41.48806" lon="1.93091">
        <ele>124.8</ele>
        <time>2021-04-11 08:47:18</time>
      </trkpt>
      <trkpt lat="41.48814" lon="1.93082">
        <ele>124.6</ele>
        <time>2021-04-11 08:47:19</time>
      </trkpt>
      <trkpt lat="41.48821" lon="1.93073">
        <ele>124.6</ele>
        <time>2021-04-11 08:47:20</time>
      </trkpt>
      <trkpt lat="41.48828" lon="1.93064">
        <ele>124.4</ele>
        <time>2021-04-11 08:47:21</time>
      </trkpt>
      <trkpt lat="41.48835" lon="1.93054">
        <ele>124.4</ele>
        <time>2021-04-11 08:47:22</time>
      </trkpt>
      <trkpt lat="41.48842" lon="1.93045">
        <ele>124.2</ele>
        <time>2021-04-11 08:47:23</time>
      </trkpt>
      <trkpt lat="41.48849" lon="1.93035">
        <ele>124.2</ele>
        <time>2021-04-11 08:47:24</time>
      </trkpt>
      <trkpt lat="41.48856" lon="1.93025">
        <ele>124</ele>
        <time>2021-04-11 08:47:25</time>
      </trkpt>
      <trkpt lat="41.48861" lon="1.93016">
        <ele>123.8</ele>
        <time>2021-04-11 08:47:26</time>
      </trkpt>
      <trkpt lat="41.48867" lon="1.93006">
        <ele>123.6</ele>
        <time>2021-04-11 08:47:27</time>
      </trkpt>
      <trkpt lat="41.48873" lon="1.92995">
        <ele>123.6</ele>
        <time>2021-04-11 08:47:28</time>
      </trkpt>
      <trkpt lat="41.48878" lon="1.92985">
        <ele>123.6</ele>
        <time>2021-04-11 08:47:29</time>
      </trkpt>
      <trkpt lat="41.48883" lon="1.92974">
        <ele>123.6</ele>
        <time>2021-04-11 08:47:30</time>
      </trkpt>
      <trkpt lat="41.48888" lon="1.92963">
        <ele>123.6</ele>
        <time>2021-04-11 08:47:31</time>
      </trkpt>
      <trkpt lat="41.48892" lon="1.92952">
        <ele>123.6</ele>
        <time>2021-04-11 08:47:32</time>
      </trkpt>
      <trkpt lat="41.48896" lon="1.9294">
        <ele>123.6</ele>
        <time>2021-04-11 08:47:33</time>
      </trkpt>
      <trkpt lat="41.489" lon="1.92929">
        <ele>123.6</ele>
        <time>2021-04-11 08:47:34</time>
      </trkpt>
      <trkpt lat="41.48903" lon="1.92918">
        <ele>123.4</ele>
        <time>2021-04-11 08:47:35</time>
      </trkpt>
      <trkpt lat="41.48907" lon="1.92906">
        <ele>123.4</ele>
        <time>2021-04-11 08:47:36</time>
      </trkpt>
      <trkpt lat="41.48912" lon="1.92893">
        <ele>123.4</ele>
        <time>2021-04-11 08:47:37</time>
      </trkpt>
      <trkpt lat="41.48915" lon="1.92882">
        <ele>123.4</ele>
        <time>2021-04-11 08:47:38</time>
      </trkpt>
      <trkpt lat="41.4892" lon="1.9287">
        <ele>123.6</ele>
        <time>2021-04-11 08:47:39</time>
      </trkpt>
      <trkpt lat="41.48923" lon="1.92859">
        <ele>123.6</ele>
        <time>2021-04-11 08:47:40</time>
      </trkpt>
      <trkpt lat="41.48928" lon="1.92848">
        <ele>123.6</ele>
        <time>2021-04-11 08:47:41</time>
      </trkpt>
      <trkpt lat="41.48933" lon="1.92838">
        <ele>123.6</ele>
        <time>2021-04-11 08:47:42</time>
      </trkpt>
      <trkpt lat="41.48938" lon="1.92828">
        <ele>123.6</ele>
        <time>2021-04-11 08:47:43</time>
      </trkpt>
      <trkpt lat="41.48942" lon="1.92818">
        <ele>123.6</ele>
        <time>2021-04-11 08:47:44</time>
      </trkpt>
      <trkpt lat="41.48948" lon="1.92808">
        <ele>123.4</ele>
        <time>2021-04-11 08:47:45</time>
      </trkpt>
      <trkpt lat="41.48953" lon="1.92798">
        <ele>123.2</ele>
        <time>2021-04-11 08:47:46</time>
      </trkpt>
      <trkpt lat="41.4896" lon="1.9279">
        <ele>123.2</ele>
        <time>2021-04-11 08:47:47</time>
      </trkpt>
      <trkpt lat="41.48966" lon="1.92783">
        <ele>123.2</ele>
        <time>2021-04-11 08:47:48</time>
      </trkpt>
      <trkpt lat="41.48972" lon="1.92776">
        <ele>123.2</ele>
        <time>2021-04-11 08:47:49</time>
      </trkpt>
      <trkpt lat="41.48978" lon="1.92769">
        <ele>123.4</ele>
        <time>2021-04-11 08:47:50</time>
      </trkpt>
      <trkpt lat="41.48984" lon="1.92763">
        <ele>123.8</ele>
        <time>2021-04-11 08:47:51</time>
      </trkpt>
      <trkpt lat="41.48989" lon="1.92757">
        <ele>124</ele>
        <time>2021-04-11 08:47:52</time>
      </trkpt>
      <trkpt lat="41.48995" lon="1.92751">
        <ele>124.4</ele>
        <time>2021-04-11 08:47:53</time>
      </trkpt>
      <trkpt lat="41.49" lon="1.92745">
        <ele>124.8</ele>
        <time>2021-04-11 08:47:54</time>
      </trkpt>
      <trkpt lat="41.49005" lon="1.9274">
        <ele>125</ele>
        <time>2021-04-11 08:47:55</time>
      </trkpt>
      <trkpt lat="41.4901" lon="1.92735">
        <ele>125.4</ele>
        <time>2021-04-11 08:47:56</time>
      </trkpt>
      <trkpt lat="41.49016" lon="1.9273">
        <ele>125.8</ele>
        <time>2021-04-11 08:47:57</time>
      </trkpt>
      <trkpt lat="41.49021" lon="1.92725">
        <ele>126.2</ele>
        <time>2021-04-11 08:47:58</time>
      </trkpt>
      <trkpt lat="41.49026" lon="1.9272">
        <ele>126.6</ele>
        <time>2021-04-11 08:47:59</time>
      </trkpt>
      <trkpt lat="41.49031" lon="1.92715">
        <ele>127</ele>
        <time>2021-04-11 08:48:00</time>
      </trkpt>
      <trkpt lat="41.49037" lon="1.9271">
        <ele>127.6</ele>
        <time>2021-04-11 08:48:01</time>
      </trkpt>
      <trkpt lat="41.49041" lon="1.92706">
        <ele>128</ele>
        <time>2021-04-11 08:48:02</time>
      </trkpt>
      <trkpt lat="41.49046" lon="1.92701">
        <ele>128.4</ele>
        <time>2021-04-11 08:48:03</time>
      </trkpt>
      <trkpt lat="41.49052" lon="1.92695">
        <ele>128.8</ele>
        <time>2021-04-11 08:48:04</time>
      </trkpt>
      <trkpt lat="41.49056" lon="1.92691">
        <ele>129.2</ele>
        <time>2021-04-11 08:48:05</time>
      </trkpt>
      <trkpt lat="41.49061" lon="1.92686">
        <ele>129.6</ele>
        <time>2021-04-11 08:48:06</time>
      </trkpt>
      <trkpt lat="41.49066" lon="1.92681">
        <ele>130</ele>
        <time>2021-04-11 08:48:07</time>
      </trkpt>
      <trkpt lat="41.49071" lon="1.92676">
        <ele>130.4</ele>
        <time>2021-04-11 08:48:08</time>
      </trkpt>
      <trkpt lat="41.49076" lon="1.92672">
        <ele>131</ele>
        <time>2021-04-11 08:48:09</time>
      </trkpt>
      <trkpt lat="41.49081" lon="1.92668">
        <ele>131.4</ele>
        <time>2021-04-11 08:48:10</time>
      </trkpt>
      <trkpt lat="41.49086" lon="1.92664">
        <ele>131.8</ele>
        <time>2021-04-11 08:48:11</time>
      </trkpt>
      <trkpt lat="41.49091" lon="1.92662">
        <ele>132.4</ele>
        <time>2021-04-11 08:48:12</time>
      </trkpt>
      <trkpt lat="41.49096" lon="1.92662">
        <ele>132.8</ele>
        <time>2021-04-11 08:48:13</time>
      </trkpt>
      <trkpt lat="41.491" lon="1.92665">
        <ele>133.2</ele>
        <time>2021-04-11 08:48:14</time>
      </trkpt>
      <trkpt lat="41.49103" lon="1.92669">
        <ele>133.6</ele>
        <time>2021-04-11 08:48:15</time>
      </trkpt>
      <trkpt lat="41.49105" lon="1.92674">
        <ele>134</ele>
        <time>2021-04-11 08:48:16</time>
      </trkpt>
      <trkpt lat="41.49105" lon="1.9268">
        <ele>134.2</ele>
        <time>2021-04-11 08:48:17</time>
      </trkpt>
      <trkpt lat="41.49104" lon="1.92686">
        <ele>134.6</ele>
        <time>2021-04-11 08:48:18</time>
      </trkpt>
      <trkpt lat="41.49104" lon="1.92693">
        <ele>134.6</ele>
        <time>2021-04-11 08:48:19</time>
      </trkpt>
      <trkpt lat="41.49103" lon="1.927">
        <ele>134.8</ele>
        <time>2021-04-11 08:48:20</time>
      </trkpt>
      <trkpt lat="41.49103" lon="1.92709">
        <ele>134.8</ele>
        <time>2021-04-11 08:48:21</time>
      </trkpt>
      <trkpt lat="41.49104" lon="1.92717">
        <ele>134.8</ele>
        <time>2021-04-11 08:48:22</time>
      </trkpt>
      <trkpt lat="41.49106" lon="1.92725">
        <ele>134.8</ele>
        <time>2021-04-11 08:48:23</time>
      </trkpt>
      <trkpt lat="41.49108" lon="1.92732">
        <ele>134.8</ele>
        <time>2021-04-11 08:48:24</time>
      </trkpt>
      <trkpt lat="41.49111" lon="1.92739">
        <ele>134.8</ele>
        <time>2021-04-11 08:48:25</time>
      </trkpt>
      <trkpt lat="41.49116" lon="1.92746">
        <ele>134.8</ele>
        <time>2021-04-11 08:48:26</time>
      </trkpt>
      <trkpt lat="41.49121" lon="1.92751">
        <ele>134.6</ele>
        <time>2021-04-11 08:48:27</time>
      </trkpt>
      <trkpt lat="41.49126" lon="1.92755">
        <ele>134.6</ele>
        <time>2021-04-11 08:48:28</time>
      </trkpt>
      <trkpt lat="41.49131" lon="1.92758">
        <ele>134.8</ele>
        <time>2021-04-11 08:48:29</time>
      </trkpt>
      <trkpt lat="41.49136" lon="1.92759">
        <ele>134.8</ele>
        <time>2021-04-11 08:48:30</time>
      </trkpt>
      <trkpt lat="41.49143" lon="1.92759">
        <ele>134.8</ele>
        <time>2021-04-11 08:48:31</time>
      </trkpt>
      <trkpt lat="41.49149" lon="1.92759">
        <ele>134.8</ele>
        <time>2021-04-11 08:48:32</time>
      </trkpt>
      <trkpt lat="41.49155" lon="1.92758">
        <ele>134.6</ele>
        <time>2021-04-11 08:48:33</time>
      </trkpt>
      <trkpt lat="41.49161" lon="1.92757">
        <ele>134.6</ele>
        <time>2021-04-11 08:48:34</time>
      </trkpt>
      <trkpt lat="41.49166" lon="1.92755">
        <ele>134.6</ele>
        <time>2021-04-11 08:48:35</time>
      </trkpt>
      <trkpt lat="41.49172" lon="1.92754">
        <ele>134.4</ele>
        <time>2021-04-11 08:48:36</time>
      </trkpt>
      <trkpt lat="41.49178" lon="1.92753">
        <ele>134.4</ele>
        <time>2021-04-11 08:48:37</time>
      </trkpt>
      <trkpt lat="41.49185" lon="1.92753">
        <ele>134.2</ele>
        <time>2021-04-11 08:48:38</time>
      </trkpt>
      <trkpt lat="41.49191" lon="1.92752">
        <ele>134.2</ele>
        <time>2021-04-11 08:48:39</time>
      </trkpt>
      <trkpt lat="41.49197" lon="1.92752">
        <ele>134.2</ele>
        <time>2021-04-11 08:48:40</time>
      </trkpt>
      <trkpt lat="41.49204" lon="1.92749">
        <ele>134.2</ele>
        <time>2021-04-11 08:48:41</time>
      </trkpt>
      <trkpt lat="41.4921" lon="1.92746">
        <ele>134.2</ele>
        <time>2021-04-11 08:48:42</time>
      </trkpt>
      <trkpt lat="41.49216" lon="1.92742">
        <ele>134</ele>
        <time>2021-04-11 08:48:43</time>
      </trkpt>
      <trkpt lat="41.49222" lon="1.92737">
        <ele>134</ele>
        <time>2021-04-11 08:48:44</time>
      </trkpt>
      <trkpt lat="41.49227" lon="1.92731">
        <ele>133.8</ele>
        <time>2021-04-11 08:48:45</time>
      </trkpt>
      <trkpt lat="41.49233" lon="1.92726">
        <ele>133.4</ele>
        <time>2021-04-11 08:48:46</time>
      </trkpt>
      <trkpt lat="41.49239" lon="1.9272">
        <ele>133.2</ele>
        <time>2021-04-11 08:48:47</time>
      </trkpt>
      <trkpt lat="41.49245" lon="1.92715">
        <ele>133</ele>
        <time>2021-04-11 08:48:48</time>
      </trkpt>
      <trkpt lat="41.49252" lon="1.9271">
        <ele>132.6</ele>
        <time>2021-04-11 08:48:49</time>
      </trkpt>
      <trkpt lat="41.49259" lon="1.92706">
        <ele>132.2</ele>
        <time>2021-04-11 08:48:50</time>
      </trkpt>
      <trkpt lat="41.49266" lon="1.92701">
        <ele>132</ele>
        <time>2021-04-11 08:48:51</time>
      </trkpt>
      <trkpt lat="41.49273" lon="1.92698">
        <ele>131.6</ele>
        <time>2021-04-11 08:48:52</time>
      </trkpt>
      <trkpt lat="41.49281" lon="1.92694">
        <ele>131.2</ele>
        <time>2021-04-11 08:48:53</time>
      </trkpt>
      <trkpt lat="41.49289" lon="1.92692">
        <ele>130.8</ele>
        <time>2021-04-11 08:48:54</time>
      </trkpt>
      <trkpt lat="41.49297" lon="1.9269">
        <ele>130.4</ele>
        <time>2021-04-11 08:48:55</time>
      </trkpt>
      <trkpt lat="41.49305" lon="1.92688">
        <ele>130</ele>
        <time>2021-04-11 08:48:56</time>
      </trkpt>
      <trkpt lat="41.49314" lon="1.92688">
        <ele>129.4</ele>
        <time>2021-04-11 08:48:57</time>
      </trkpt>
      <trkpt lat="41.49323" lon="1.92688">
        <ele>129</ele>
        <time>2021-04-11 08:48:58</time>
      </trkpt>
      <trkpt lat="41.49331" lon="1.92689">
        <ele>128.6</ele>
        <time>2021-04-11 08:48:59</time>
      </trkpt>
      <trkpt lat="41.49339" lon="1.92689">
        <ele>128.4</ele>
        <time>2021-04-11 08:49:00</time>
      </trkpt>
      <trkpt lat="41.49348" lon="1.9269">
        <ele>128.2</ele>
        <time>2021-04-11 08:49:01</time>
      </trkpt>
      <trkpt lat="41.49356" lon="1.92691">
        <ele>128</ele>
        <time>2021-04-11 08:49:02</time>
      </trkpt>
      <trkpt lat="41.49364" lon="1.92692">
        <ele>128</ele>
        <time>2021-04-11 08:49:03</time>
      </trkpt>
      <trkpt lat="41.49371" lon="1.92693">
        <ele>127.8</ele>
        <time>2021-04-11 08:49:04</time>
      </trkpt>
      <trkpt lat="41.49379" lon="1.92694">
        <ele>127.6</ele>
        <time>2021-04-11 08:49:05</time>
      </trkpt>
      <trkpt lat="41.49387" lon="1.92696">
        <ele>127.4</ele>
        <time>2021-04-11 08:49:06</time>
      </trkpt>
      <trkpt lat="41.49394" lon="1.92696">
        <ele>127.4</ele>
        <time>2021-04-11 08:49:07</time>
      </trkpt>
      <trkpt lat="41.49402" lon="1.92696">
        <ele>127.2</ele>
        <time>2021-04-11 08:49:08</time>
      </trkpt>
      <trkpt lat="41.49409" lon="1.92695">
        <ele>127.4</ele>
        <time>2021-04-11 08:49:09</time>
      </trkpt>
      <trkpt lat="41.49416" lon="1.92694">
        <ele>127.4</ele>
        <time>2021-04-11 08:49:10</time>
      </trkpt>
      <trkpt lat="41.49424" lon="1.92693">
        <ele>127.4</ele>
        <time>2021-04-11 08:49:11</time>
      </trkpt>
      <trkpt lat="41.49431" lon="1.92691">
        <ele>127.4</ele>
        <time>2021-04-11 08:49:12</time>
      </trkpt>
      <trkpt lat="41.49438" lon="1.92689">
        <ele>127.4</ele>
        <time>2021-04-11 08:49:13</time>
      </trkpt>
      <trkpt lat="41.49445" lon="1.92686">
        <ele>127.4</ele>
        <time>2021-04-11 08:49:14</time>
      </trkpt>
      <trkpt lat="41.49452" lon="1.92683">
        <ele>127.6</ele>
        <time>2021-04-11 08:49:15</time>
      </trkpt>
      <trkpt lat="41.4946" lon="1.9268">
        <ele>127.6</ele>
        <time>2021-04-11 08:49:16</time>
      </trkpt>
      <trkpt lat="41.49467" lon="1.92677">
        <ele>127.6</ele>
        <time>2021-04-11 08:49:17</time>
      </trkpt>
      <trkpt lat="41.49474" lon="1.92673">
        <ele>127.6</ele>
        <time>2021-04-11 08:49:18</time>
      </trkpt>
      <trkpt lat="41.49481" lon="1.9267">
        <ele>127.6</ele>
        <time>2021-04-11 08:49:19</time>
      </trkpt>
      <trkpt lat="41.49487" lon="1.92667">
        <ele>127.6</ele>
        <time>2021-04-11 08:49:20</time>
      </trkpt>
      <trkpt lat="41.49496" lon="1.92663">
        <ele>127.6</ele>
        <time>2021-04-11 08:49:21</time>
      </trkpt>
      <trkpt lat="41.49502" lon="1.9266">
        <ele>127.6</ele>
        <time>2021-04-11 08:49:22</time>
      </trkpt>
      <trkpt lat="41.4951" lon="1.92656">
        <ele>127.6</ele>
        <time>2021-04-11 08:49:23</time>
      </trkpt>
      <trkpt lat="41.49517" lon="1.92653">
        <ele>127.6</ele>
        <time>2021-04-11 08:49:24</time>
      </trkpt>
      <trkpt lat="41.49524" lon="1.92649">
        <ele>127.6</ele>
        <time>2021-04-11 08:49:25</time>
      </trkpt>
      <trkpt lat="41.49531" lon="1.92646">
        <ele>127.6</ele>
        <time>2021-04-11 08:49:26</time>
      </trkpt>
      <trkpt lat="41.49538" lon="1.92642">
        <ele>127.6</ele>
        <time>2021-04-11 08:49:27</time>
      </trkpt>
      <trkpt lat="41.49545" lon="1.92639">
        <ele>127.8</ele>
        <time>2021-04-11 08:49:28</time>
      </trkpt>
      <trkpt lat="41.49553" lon="1.92635">
        <ele>127.8</ele>
        <time>2021-04-11 08:49:29</time>
      </trkpt>
      <trkpt lat="41.49559" lon="1.92632">
        <ele>127.8</ele>
        <time>2021-04-11 08:49:30</time>
      </trkpt>
      <trkpt lat="41.49567" lon="1.92629">
        <ele>127.8</ele>
        <time>2021-04-11 08:49:31</time>
      </trkpt>
      <trkpt lat="41.49575" lon="1.92625">
        <ele>127.8</ele>
        <time>2021-04-11 08:49:32</time>
      </trkpt>
      <trkpt lat="41.49582" lon="1.92622">
        <ele>127.6</ele>
        <time>2021-04-11 08:49:33</time>
      </trkpt>
      <trkpt lat="41.4959" lon="1.92619">
        <ele>127.6</ele>
        <time>2021-04-11 08:49:34</time>
      </trkpt>
      <trkpt lat="41.49598" lon="1.92616">
        <ele>127.4</ele>
        <time>2021-04-11 08:49:35</time>
      </trkpt>
      <trkpt lat="41.49607" lon="1.92613">
        <ele>127.4</ele>
        <time>2021-04-11 08:49:36</time>
      </trkpt>
      <trkpt lat="41.49616" lon="1.92612">
        <ele>127.4</ele>
        <time>2021-04-11 08:49:37</time>
      </trkpt>
      <trkpt lat="41.49624" lon="1.92611">
        <ele>127.4</ele>
        <time>2021-04-11 08:49:38</time>
      </trkpt>
      <trkpt lat="41.49632" lon="1.9261">
        <ele>127.6</ele>
        <time>2021-04-11 08:49:39</time>
      </trkpt>
      <trkpt lat="41.4964" lon="1.9261">
        <ele>127.8</ele>
        <time>2021-04-11 08:49:40</time>
      </trkpt>
      <trkpt lat="41.49649" lon="1.9261">
        <ele>128</ele>
        <time>2021-04-11 08:49:41</time>
      </trkpt>
      <trkpt lat="41.49656" lon="1.9261">
        <ele>128.2</ele>
        <time>2021-04-11 08:49:42</time>
      </trkpt>
      <trkpt lat="41.49664" lon="1.9261">
        <ele>128.6</ele>
        <time>2021-04-11 08:49:43</time>
      </trkpt>
      <trkpt lat="41.49672" lon="1.92611">
        <ele>128.8</ele>
        <time>2021-04-11 08:49:44</time>
      </trkpt>
      <trkpt lat="41.49679" lon="1.92612">
        <ele>129</ele>
        <time>2021-04-11 08:49:45</time>
      </trkpt>
      <trkpt lat="41.49687" lon="1.92613">
        <ele>129.2</ele>
        <time>2021-04-11 08:49:46</time>
      </trkpt>
      <trkpt lat="41.49695" lon="1.92615">
        <ele>129.2</ele>
        <time>2021-04-11 08:49:47</time>
      </trkpt>
      <trkpt lat="41.49703" lon="1.92618">
        <ele>129.4</ele>
        <time>2021-04-11 08:49:48</time>
      </trkpt>
      <trkpt lat="41.49711" lon="1.92621">
        <ele>129.4</ele>
        <time>2021-04-11 08:49:49</time>
      </trkpt>
      <trkpt lat="41.49718" lon="1.92625">
        <ele>129.6</ele>
        <time>2021-04-11 08:49:50</time>
      </trkpt>
      <trkpt lat="41.49726" lon="1.92629">
        <ele>129.6</ele>
        <time>2021-04-11 08:49:51</time>
      </trkpt>
      <trkpt lat="41.49733" lon="1.92632">
        <ele>129.6</ele>
        <time>2021-04-11 08:49:52</time>
      </trkpt>
      <trkpt lat="41.49741" lon="1.92636">
        <ele>129.4</ele>
        <time>2021-04-11 08:49:53</time>
      </trkpt>
      <trkpt lat="41.49748" lon="1.92639">
        <ele>129.4</ele>
        <time>2021-04-11 08:49:54</time>
      </trkpt>
      <trkpt lat="41.49755" lon="1.92641">
        <ele>129.2</ele>
        <time>2021-04-11 08:49:55</time>
      </trkpt>
      <trkpt lat="41.49763" lon="1.92643">
        <ele>129.2</ele>
        <time>2021-04-11 08:49:56</time>
      </trkpt>
      <trkpt lat="41.49771" lon="1.92643">
        <ele>129.2</ele>
        <time>2021-04-11 08:49:57</time>
      </trkpt>
      <trkpt lat="41.49778" lon="1.92643">
        <ele>129.2</ele>
        <time>2021-04-11 08:49:58</time>
      </trkpt>
      <trkpt lat="41.49786" lon="1.92643">
        <ele>129.4</ele>
        <time>2021-04-11 08:49:59</time>
      </trkpt>
      <trkpt lat="41.49794" lon="1.92643">
        <ele>129.4</ele>
        <time>2021-04-11 08:50:00</time>
      </trkpt>
      <trkpt lat="41.49802" lon="1.92644">
        <ele>129.6</ele>
        <time>2021-04-11 08:50:01</time>
      </trkpt>
      <trkpt lat="41.49811" lon="1.92647">
        <ele>129.6</ele>
        <time>2021-04-11 08:50:02</time>
      </trkpt>
      <trkpt lat="41.4982" lon="1.92649">
        <ele>129.8</ele>
        <time>2021-04-11 08:50:03</time>
      </trkpt>
      <trkpt lat="41.49828" lon="1.92652">
        <ele>129.8</ele>
        <time>2021-04-11 08:50:04</time>
      </trkpt>
      <trkpt lat="41.49834" lon="1.92655">
        <ele>129.8</ele>
        <time>2021-04-11 08:50:05</time>
      </trkpt>
      <trkpt lat="41.49843" lon="1.92658">
        <ele>130</ele>
        <time>2021-04-11 08:50:06</time>
      </trkpt>
      <trkpt lat="41.49851" lon="1.92662">
        <ele>130</ele>
        <time>2021-04-11 08:50:07</time>
      </trkpt>
      <trkpt lat="41.49859" lon="1.92665">
        <ele>130.2</ele>
        <time>2021-04-11 08:50:08</time>
      </trkpt>
      <trkpt lat="41.49867" lon="1.92667">
        <ele>130.2</ele>
        <time>2021-04-11 08:50:09</time>
      </trkpt>
      <trkpt lat="41.49875" lon="1.92669">
        <ele>130.4</ele>
        <time>2021-04-11 08:50:10</time>
      </trkpt>
      <trkpt lat="41.49884" lon="1.9267">
        <ele>130.4</ele>
        <time>2021-04-11 08:50:11</time>
      </trkpt>
      <trkpt lat="41.49892" lon="1.9267">
        <ele>130.6</ele>
        <time>2021-04-11 08:50:12</time>
      </trkpt>
      <trkpt lat="41.49901" lon="1.92672">
        <ele>130.6</ele>
        <time>2021-04-11 08:50:13</time>
      </trkpt>
      <trkpt lat="41.4991" lon="1.92672">
        <ele>130.6</ele>
        <time>2021-04-11 08:50:14</time>
      </trkpt>
      <trkpt lat="41.49918" lon="1.92672">
        <ele>130.6</ele>
        <time>2021-04-11 08:50:15</time>
      </trkpt>
      <trkpt lat="41.49928" lon="1.92673">
        <ele>130.6</ele>
        <time>2021-04-11 08:50:16</time>
      </trkpt>
      <trkpt lat="41.49937" lon="1.92674">
        <ele>130.6</ele>
        <time>2021-04-11 08:50:17</time>
      </trkpt>
      <trkpt lat="41.49946" lon="1.92675">
        <ele>130.8</ele>
        <time>2021-04-11 08:50:18</time>
      </trkpt>
      <trkpt lat="41.49955" lon="1.92676">
        <ele>130.8</ele>
        <time>2021-04-11 08:50:19</time>
      </trkpt>
      <trkpt lat="41.49964" lon="1.92678">
        <ele>130.6</ele>
        <time>2021-04-11 08:50:20</time>
      </trkpt>
      <trkpt lat="41.49973" lon="1.9268">
        <ele>130.6</ele>
        <time>2021-04-11 08:50:21</time>
      </trkpt>
      <trkpt lat="41.49982" lon="1.92682">
        <ele>130.8</ele>
        <time>2021-04-11 08:50:22</time>
      </trkpt>
      <trkpt lat="41.49991" lon="1.92685">
        <ele>130.8</ele>
        <time>2021-04-11 08:50:23</time>
      </trkpt>
      <trkpt lat="41.5" lon="1.92686">
        <ele>131</ele>
        <time>2021-04-11 08:50:24</time>
      </trkpt>
      <trkpt lat="41.50008" lon="1.92686">
        <ele>131</ele>
        <time>2021-04-11 08:50:25</time>
      </trkpt>
      <trkpt lat="41.50017" lon="1.92686">
        <ele>131</ele>
        <time>2021-04-11 08:50:26</time>
      </trkpt>
      <trkpt lat="41.50026" lon="1.92685">
        <ele>131</ele>
        <time>2021-04-11 08:50:27</time>
      </trkpt>
      <trkpt lat="41.50034" lon="1.92683">
        <ele>131</ele>
        <time>2021-04-11 08:50:28</time>
      </trkpt>
      <trkpt lat="41.50043" lon="1.92681">
        <ele>131.2</ele>
        <time>2021-04-11 08:50:29</time>
      </trkpt>
      <trkpt lat="41.50051" lon="1.9268">
        <ele>131</ele>
        <time>2021-04-11 08:50:30</time>
      </trkpt>
      <trkpt lat="41.5006" lon="1.92678">
        <ele>131</ele>
        <time>2021-04-11 08:50:31</time>
      </trkpt>
      <trkpt lat="41.50069" lon="1.92676">
        <ele>131</ele>
        <time>2021-04-11 08:50:32</time>
      </trkpt>
      <trkpt lat="41.50078" lon="1.92674">
        <ele>131</ele>
        <time>2021-04-11 08:50:33</time>
      </trkpt>
      <trkpt lat="41.50087" lon="1.92673">
        <ele>131</ele>
        <time>2021-04-11 08:50:34</time>
      </trkpt>
      <trkpt lat="41.50095" lon="1.92673">
        <ele>131</ele>
        <time>2021-04-11 08:50:35</time>
      </trkpt>
      <trkpt lat="41.50105" lon="1.92673">
        <ele>130.8</ele>
        <time>2021-04-11 08:50:36</time>
      </trkpt>
      <trkpt lat="41.50113" lon="1.92674">
        <ele>130.8</ele>
        <time>2021-04-11 08:50:37</time>
      </trkpt>
      <trkpt lat="41.50123" lon="1.92675">
        <ele>130.6</ele>
        <time>2021-04-11 08:50:38</time>
      </trkpt>
      <trkpt lat="41.50131" lon="1.92675">
        <ele>130.6</ele>
        <time>2021-04-11 08:50:39</time>
      </trkpt>
      <trkpt lat="41.5014" lon="1.92673">
        <ele>130.4</ele>
        <time>2021-04-11 08:50:40</time>
      </trkpt>
      <trkpt lat="41.5015" lon="1.9267">
        <ele>130.4</ele>
        <time>2021-04-11 08:50:41</time>
      </trkpt>
      <trkpt lat="41.50159" lon="1.92666">
        <ele>130.2</ele>
        <time>2021-04-11 08:50:42</time>
      </trkpt>
      <trkpt lat="41.50168" lon="1.92661">
        <ele>130</ele>
        <time>2021-04-11 08:50:43</time>
      </trkpt>
      <trkpt lat="41.50176" lon="1.92656">
        <ele>129.6</ele>
        <time>2021-04-11 08:50:44</time>
      </trkpt>
      <trkpt lat="41.50184" lon="1.9265">
        <ele>129.4</ele>
        <time>2021-04-11 08:50:45</time>
      </trkpt>
      <trkpt lat="41.50192" lon="1.92644">
        <ele>129.2</ele>
        <time>2021-04-11 08:50:46</time>
      </trkpt>
      <trkpt lat="41.50201" lon="1.92638">
        <ele>129</ele>
        <time>2021-04-11 08:50:47</time>
      </trkpt>
      <trkpt lat="41.50209" lon="1.92633">
        <ele>129</ele>
        <time>2021-04-11 08:50:48</time>
      </trkpt>
      <trkpt lat="41.50217" lon="1.92627">
        <ele>128.8</ele>
        <time>2021-04-11 08:50:49</time>
      </trkpt>
      <trkpt lat="41.50226" lon="1.92622">
        <ele>128.8</ele>
        <time>2021-04-11 08:50:50</time>
      </trkpt>
      <trkpt lat="41.50234" lon="1.92616">
        <ele>128.6</ele>
        <time>2021-04-11 08:50:51</time>
      </trkpt>
      <trkpt lat="41.50242" lon="1.9261">
        <ele>128.6</ele>
        <time>2021-04-11 08:50:52</time>
      </trkpt>
      <trkpt lat="41.50251" lon="1.92604">
        <ele>128.4</ele>
        <time>2021-04-11 08:50:53</time>
      </trkpt>
      <trkpt lat="41.5026" lon="1.92598">
        <ele>128.4</ele>
        <time>2021-04-11 08:50:54</time>
      </trkpt>
      <trkpt lat="41.50267" lon="1.92592">
        <ele>128.2</ele>
        <time>2021-04-11 08:50:55</time>
      </trkpt>
      <trkpt lat="41.50276" lon="1.92586">
        <ele>128.2</ele>
        <time>2021-04-11 08:50:56</time>
      </trkpt>
      <trkpt lat="41.50284" lon="1.9258">
        <ele>128.2</ele>
        <time>2021-04-11 08:50:57</time>
      </trkpt>
      <trkpt lat="41.50292" lon="1.92573">
        <ele>128.2</ele>
        <time>2021-04-11 08:50:58</time>
      </trkpt>
      <trkpt lat="41.50299" lon="1.92565">
        <ele>128.2</ele>
        <time>2021-04-11 08:50:59</time>
      </trkpt>
      <trkpt lat="41.50306" lon="1.92558">
        <ele>128.2</ele>
        <time>2021-04-11 08:51:00</time>
      </trkpt>
      <trkpt lat="41.50314" lon="1.92549">
        <ele>128.2</ele>
        <time>2021-04-11 08:51:01</time>
      </trkpt>
      <trkpt lat="41.50321" lon="1.92542">
        <ele>128.2</ele>
        <time>2021-04-11 08:51:02</time>
      </trkpt>
      <trkpt lat="41.50328" lon="1.92533">
        <ele>128.2</ele>
        <time>2021-04-11 08:51:03</time>
      </trkpt>
      <trkpt lat="41.50335" lon="1.92525">
        <ele>128</ele>
        <time>2021-04-11 08:51:04</time>
      </trkpt>
      <trkpt lat="41.50341" lon="1.92518">
        <ele>128</ele>
        <time>2021-04-11 08:51:05</time>
      </trkpt>
      <trkpt lat="41.50349" lon="1.92509">
        <ele>128</ele>
        <time>2021-04-11 08:51:06</time>
      </trkpt>
      <trkpt lat="41.50356" lon="1.925">
        <ele>128</ele>
        <time>2021-04-11 08:51:07</time>
      </trkpt>
      <trkpt lat="41.50363" lon="1.92491">
        <ele>128</ele>
        <time>2021-04-11 08:51:08</time>
      </trkpt>
      <trkpt lat="41.50369" lon="1.92482">
        <ele>128</ele>
        <time>2021-04-11 08:51:09</time>
      </trkpt>
      <trkpt lat="41.50374" lon="1.92471">
        <ele>128</ele>
        <time>2021-04-11 08:51:10</time>
      </trkpt>
      <trkpt lat="41.5038" lon="1.92461">
        <ele>128</ele>
        <time>2021-04-11 08:51:11</time>
      </trkpt>
      <trkpt lat="41.50385" lon="1.92452">
        <ele>128</ele>
        <time>2021-04-11 08:51:12</time>
      </trkpt>
      <trkpt lat="41.5039" lon="1.92441">
        <ele>128</ele>
        <time>2021-04-11 08:51:13</time>
      </trkpt>
      <trkpt lat="41.50394" lon="1.92431">
        <ele>128</ele>
        <time>2021-04-11 08:51:14</time>
      </trkpt>
      <trkpt lat="41.50398" lon="1.92421">
        <ele>127.8</ele>
        <time>2021-04-11 08:51:15</time>
      </trkpt>
      <trkpt lat="41.50401" lon="1.92411">
        <ele>127.8</ele>
        <time>2021-04-11 08:51:16</time>
      </trkpt>
      <trkpt lat="41.50403" lon="1.92399">
        <ele>127.8</ele>
        <time>2021-04-11 08:51:17</time>
      </trkpt>
      <trkpt lat="41.50406" lon="1.92387">
        <ele>127.8</ele>
        <time>2021-04-11 08:51:18</time>
      </trkpt>
      <trkpt lat="41.50408" lon="1.92375">
        <ele>127.6</ele>
        <time>2021-04-11 08:51:19</time>
      </trkpt>
      <trkpt lat="41.50411" lon="1.92364">
        <ele>127.8</ele>
        <time>2021-04-11 08:51:20</time>
      </trkpt>
      <trkpt lat="41.50414" lon="1.92353">
        <ele>127.8</ele>
        <time>2021-04-11 08:51:21</time>
      </trkpt>
      <trkpt lat="41.50417" lon="1.92342">
        <ele>128</ele>
        <time>2021-04-11 08:51:22</time>
      </trkpt>
      <trkpt lat="41.5042" lon="1.92331">
        <ele>128.2</ele>
        <time>2021-04-11 08:51:23</time>
      </trkpt>
      <trkpt lat="41.50423" lon="1.92321">
        <ele>128.4</ele>
        <time>2021-04-11 08:51:24</time>
      </trkpt>
      <trkpt lat="41.50426" lon="1.92311">
        <ele>128.6</ele>
        <time>2021-04-11 08:51:25</time>
      </trkpt>
      <trkpt lat="41.50429" lon="1.92302">
        <ele>129</ele>
        <time>2021-04-11 08:51:26</time>
      </trkpt>
      <trkpt lat="41.50432" lon="1.92293">
        <ele>129.2</ele>
        <time>2021-04-11 08:51:27</time>
      </trkpt>
      <trkpt lat="41.50436" lon="1.92284">
        <ele>129.4</ele>
        <time>2021-04-11 08:51:28</time>
      </trkpt>
      <trkpt lat="41.50439" lon="1.92275">
        <ele>129.8</ele>
        <time>2021-04-11 08:51:29</time>
      </trkpt>
      <trkpt lat="41.50442" lon="1.92267">
        <ele>130</ele>
        <time>2021-04-11 08:51:30</time>
      </trkpt>
      <trkpt lat="41.50444" lon="1.92257">
        <ele>130.2</ele>
        <time>2021-04-11 08:51:31</time>
      </trkpt>
      <trkpt lat="41.50446" lon="1.92248">
        <ele>130.4</ele>
        <time>2021-04-11 08:51:32</time>
      </trkpt>
      <trkpt lat="41.50447" lon="1.92239">
        <ele>130.4</ele>
        <time>2021-04-11 08:51:33</time>
      </trkpt>
      <trkpt lat="41.50449" lon="1.92229">
        <ele>130.4</ele>
        <time>2021-04-11 08:51:34</time>
      </trkpt>
      <trkpt lat="41.50451" lon="1.92219">
        <ele>130.4</ele>
        <time>2021-04-11 08:51:35</time>
      </trkpt>
      <trkpt lat="41.50453" lon="1.92208">
        <ele>130.4</ele>
        <time>2021-04-11 08:51:36</time>
      </trkpt>
      <trkpt lat="41.50455" lon="1.92197">
        <ele>130.4</ele>
        <time>2021-04-11 08:51:37</time>
      </trkpt>
      <trkpt lat="41.50457" lon="1.92187">
        <ele>130.6</ele>
        <time>2021-04-11 08:51:38</time>
      </trkpt>
      <trkpt lat="41.5046" lon="1.92177">
        <ele>131</ele>
        <time>2021-04-11 08:51:39</time>
      </trkpt>
      <trkpt lat="41.50465" lon="1.92169">
        <ele>131.2</ele>
        <time>2021-04-11 08:51:40</time>
      </trkpt>
      <trkpt lat="41.50469" lon="1.92161">
        <ele>131.6</ele>
        <time>2021-04-11 08:51:41</time>
      </trkpt>
      <trkpt lat="41.50474" lon="1.92154">
        <ele>132</ele>
        <time>2021-04-11 08:51:42</time>
      </trkpt>
      <trkpt lat="41.50479" lon="1.92147">
        <ele>132.2</ele>
        <time>2021-04-11 08:51:43</time>
      </trkpt>
      <trkpt lat="41.50485" lon="1.92141">
        <ele>132.6</ele>
        <time>2021-04-11 08:51:44</time>
      </trkpt>
      <trkpt lat="41.50491" lon="1.92136">
        <ele>132.8</ele>
        <time>2021-04-11 08:51:45</time>
      </trkpt>
      <trkpt lat="41.50497" lon="1.9213">
        <ele>133.2</ele>
        <time>2021-04-11 08:51:46</time>
      </trkpt>
      <trkpt lat="41.50503" lon="1.92125">
        <ele>133.6</ele>
        <time>2021-04-11 08:51:47</time>
      </trkpt>
      <trkpt lat="41.50509" lon="1.9212">
        <ele>133.8</ele>
        <time>2021-04-11 08:51:48</time>
      </trkpt>
      <trkpt lat="41.50515" lon="1.92115">
        <ele>134</ele>
        <time>2021-04-11 08:51:49</time>
      </trkpt>
      <trkpt lat="41.50521" lon="1.9211">
        <ele>134.2</ele>
        <time>2021-04-11 08:51:50</time>
      </trkpt>
      <trkpt lat="41.50528" lon="1.92106">
        <ele>134.6</ele>
        <time>2021-04-11 08:51:51</time>
      </trkpt>
      <trkpt lat="41.50534" lon="1.92102">
        <ele>134.6</ele>
        <time>2021-04-11 08:51:52</time>
      </trkpt>
      <trkpt lat="41.5054" lon="1.92097">
        <ele>134.8</ele>
        <time>2021-04-11 08:51:53</time>
      </trkpt>
      <trkpt lat="41.50547" lon="1.92093">
        <ele>135</ele>
        <time>2021-04-11 08:51:54</time>
      </trkpt>
      <trkpt lat="41.50553" lon="1.92088">
        <ele>135.2</ele>
        <time>2021-04-11 08:51:55</time>
      </trkpt>
      <trkpt lat="41.50559" lon="1.92084">
        <ele>135.2</ele>
        <time>2021-04-11 08:51:56</time>
      </trkpt>
      <trkpt lat="41.50565" lon="1.92079">
        <ele>135.4</ele>
        <time>2021-04-11 08:51:57</time>
      </trkpt>
      <trkpt lat="41.50572" lon="1.92075">
        <ele>135.6</ele>
        <time>2021-04-11 08:51:58</time>
      </trkpt>
      <trkpt lat="41.50578" lon="1.9207">
        <ele>135.6</ele>
        <time>2021-04-11 08:51:59</time>
      </trkpt>
      <trkpt lat="41.50584" lon="1.92066">
        <ele>135.8</ele>
        <time>2021-04-11 08:52:00</time>
      </trkpt>
      <trkpt lat="41.50591" lon="1.92061">
        <ele>136</ele>
        <time>2021-04-11 08:52:01</time>
      </trkpt>
      <trkpt lat="41.50597" lon="1.92057">
        <ele>136</ele>
        <time>2021-04-11 08:52:02</time>
      </trkpt>
      <trkpt lat="41.50603" lon="1.92052">
        <ele>136.2</ele>
        <time>2021-04-11 08:52:03</time>
      </trkpt>
      <trkpt lat="41.50609" lon="1.92048">
        <ele>136.2</ele>
        <time>2021-04-11 08:52:04</time>
      </trkpt>
      <trkpt lat="41.50615" lon="1.92044">
        <ele>136.4</ele>
        <time>2021-04-11 08:52:05</time>
      </trkpt>
      <trkpt lat="41.50622" lon="1.92039">
        <ele>136.6</ele>
        <time>2021-04-11 08:52:06</time>
      </trkpt>
      <trkpt lat="41.50628" lon="1.92034">
        <ele>136.6</ele>
        <time>2021-04-11 08:52:07</time>
      </trkpt>
      <trkpt lat="41.50635" lon="1.9203">
        <ele>136.8</ele>
        <time>2021-04-11 08:52:08</time>
      </trkpt>
      <trkpt lat="41.50641" lon="1.92025">
        <ele>136.8</ele>
        <time>2021-04-11 08:52:09</time>
      </trkpt>
      <trkpt lat="41.50647" lon="1.92021">
        <ele>137</ele>
        <time>2021-04-11 08:52:10</time>
      </trkpt>
      <trkpt lat="41.50654" lon="1.92016">
        <ele>137</ele>
        <time>2021-04-11 08:52:11</time>
      </trkpt>
      <trkpt lat="41.5066" lon="1.92012">
        <ele>137.2</ele>
        <time>2021-04-11 08:52:12</time>
      </trkpt>
      <trkpt lat="41.50667" lon="1.92009">
        <ele>137.2</ele>
        <time>2021-04-11 08:52:13</time>
      </trkpt>
      <trkpt lat="41.50673" lon="1.92005">
        <ele>137.4</ele>
        <time>2021-04-11 08:52:14</time>
      </trkpt>
      <trkpt lat="41.5068" lon="1.92003">
        <ele>137.4</ele>
        <time>2021-04-11 08:52:15</time>
      </trkpt>
      <trkpt lat="41.50688" lon="1.92001">
        <ele>137.6</ele>
        <time>2021-04-11 08:52:16</time>
      </trkpt>
      <trkpt lat="41.50695" lon="1.92">
        <ele>137.6</ele>
        <time>2021-04-11 08:52:17</time>
      </trkpt>
      <trkpt lat="41.50702" lon="1.91999">
        <ele>137.6</ele>
        <time>2021-04-11 08:52:18</time>
      </trkpt>
      <trkpt lat="41.50709" lon="1.92">
        <ele>137.8</ele>
        <time>2021-04-11 08:52:19</time>
      </trkpt>
      <trkpt lat="41.50717" lon="1.92001">
        <ele>137.8</ele>
        <time>2021-04-11 08:52:20</time>
      </trkpt>
      <trkpt lat="41.50724" lon="1.92002">
        <ele>138</ele>
        <time>2021-04-11 08:52:21</time>
      </trkpt>
      <trkpt lat="41.50731" lon="1.92004">
        <ele>138</ele>
        <time>2021-04-11 08:52:22</time>
      </trkpt>
      <trkpt lat="41.50739" lon="1.92006">
        <ele>138.2</ele>
        <time>2021-04-11 08:52:23</time>
      </trkpt>
      <trkpt lat="41.50746" lon="1.92008">
        <ele>138.4</ele>
        <time>2021-04-11 08:52:24</time>
      </trkpt>
      <trkpt lat="41.50753" lon="1.92011">
        <ele>138.4</ele>
        <time>2021-04-11 08:52:25</time>
      </trkpt>
      <trkpt lat="41.5076" lon="1.92013">
        <ele>138.6</ele>
        <time>2021-04-11 08:52:26</time>
      </trkpt>
      <trkpt lat="41.50768" lon="1.92016">
        <ele>138.8</ele>
        <time>2021-04-11 08:52:27</time>
      </trkpt>
      <trkpt lat="41.50775" lon="1.92018">
        <ele>139</ele>
        <time>2021-04-11 08:52:28</time>
      </trkpt>
      <trkpt lat="41.50782" lon="1.92021">
        <ele>139</ele>
        <time>2021-04-11 08:52:29</time>
      </trkpt>
      <trkpt lat="41.50789" lon="1.92023">
        <ele>139.2</ele>
        <time>2021-04-11 08:52:30</time>
      </trkpt>
      <trkpt lat="41.50796" lon="1.92025">
        <ele>139.4</ele>
        <time>2021-04-11 08:52:31</time>
      </trkpt>
      <trkpt lat="41.50804" lon="1.92027">
        <ele>139.4</ele>
        <time>2021-04-11 08:52:32</time>
      </trkpt>
      <trkpt lat="41.5081" lon="1.92029">
        <ele>139.6</ele>
        <time>2021-04-11 08:52:33</time>
      </trkpt>
      <trkpt lat="41.50818" lon="1.92032">
        <ele>139.8</ele>
        <time>2021-04-11 08:52:34</time>
      </trkpt>
      <trkpt lat="41.50825" lon="1.92034">
        <ele>140</ele>
        <time>2021-04-11 08:52:35</time>
      </trkpt>
      <trkpt lat="41.50832" lon="1.92036">
        <ele>140.2</ele>
        <time>2021-04-11 08:52:36</time>
      </trkpt>
      <trkpt lat="41.50839" lon="1.92038">
        <ele>140.4</ele>
        <time>2021-04-11 08:52:37</time>
      </trkpt>
      <trkpt lat="41.50846" lon="1.92041">
        <ele>140.6</ele>
        <time>2021-04-11 08:52:38</time>
      </trkpt>
      <trkpt lat="41.50853" lon="1.92043">
        <ele>140.8</ele>
        <time>2021-04-11 08:52:39</time>
      </trkpt>
      <trkpt lat="41.5086" lon="1.92046">
        <ele>141</ele>
        <time>2021-04-11 08:52:40</time>
      </trkpt>
      <trkpt lat="41.50867" lon="1.92048">
        <ele>141.2</ele>
        <time>2021-04-11 08:52:41</time>
      </trkpt>
      <trkpt lat="41.50874" lon="1.9205">
        <ele>141.4</ele>
        <time>2021-04-11 08:52:42</time>
      </trkpt>
      <trkpt lat="41.50881" lon="1.92053">
        <ele>141.6</ele>
        <time>2021-04-11 08:52:43</time>
      </trkpt>
      <trkpt lat="41.50889" lon="1.92055">
        <ele>141.8</ele>
        <time>2021-04-11 08:52:44</time>
      </trkpt>
      <trkpt lat="41.50896" lon="1.92057">
        <ele>141.8</ele>
        <time>2021-04-11 08:52:45</time>
      </trkpt>
      <trkpt lat="41.50903" lon="1.9206">
        <ele>142</ele>
        <time>2021-04-11 08:52:46</time>
      </trkpt>
      <trkpt lat="41.5091" lon="1.92062">
        <ele>142.2</ele>
        <time>2021-04-11 08:52:47</time>
      </trkpt>
      <trkpt lat="41.50917" lon="1.92065">
        <ele>142.2</ele>
        <time>2021-04-11 08:52:48</time>
      </trkpt>
      <trkpt lat="41.50924" lon="1.92067">
        <ele>142.4</ele>
        <time>2021-04-11 08:52:49</time>
      </trkpt>
      <trkpt lat="41.50931" lon="1.92069">
        <ele>142.6</ele>
        <time>2021-04-11 08:52:50</time>
      </trkpt>
      <trkpt lat="41.50939" lon="1.92072">
        <ele>142.8</ele>
        <time>2021-04-11 08:52:51</time>
      </trkpt>
      <trkpt lat="41.50946" lon="1.92074">
        <ele>143</ele>
        <time>2021-04-11 08:52:52</time>
      </trkpt>
      <trkpt lat="41.50953" lon="1.92076">
        <ele>143.2</ele>
        <time>2021-04-11 08:52:53</time>
      </trkpt>
      <trkpt lat="41.5096" lon="1.92079">
        <ele>143.4</ele>
        <time>2021-04-11 08:52:54</time>
      </trkpt>
      <trkpt lat="41.50967" lon="1.92081">
        <ele>143.6</ele>
        <time>2021-04-11 08:52:55</time>
      </trkpt>
      <trkpt lat="41.50974" lon="1.92084">
        <ele>143.6</ele>
        <time>2021-04-11 08:52:56</time>
      </trkpt>
      <trkpt lat="41.50981" lon="1.92086">
        <ele>144</ele>
        <time>2021-04-11 08:52:57</time>
      </trkpt>
      <trkpt lat="41.50989" lon="1.92089">
        <ele>144.2</ele>
        <time>2021-04-11 08:52:58</time>
      </trkpt>
      <trkpt lat="41.50995" lon="1.92091">
        <ele>144.4</ele>
        <time>2021-04-11 08:52:59</time>
      </trkpt>
      <trkpt lat="41.51002" lon="1.92094">
        <ele>144.6</ele>
        <time>2021-04-11 08:53:00</time>
      </trkpt>
      <trkpt lat="41.5101" lon="1.92096">
        <ele>144.8</ele>
        <time>2021-04-11 08:53:01</time>
      </trkpt>
      <trkpt lat="41.51016" lon="1.92099">
        <ele>145</ele>
        <time>2021-04-11 08:53:02</time>
      </trkpt>
      <trkpt lat="41.51024" lon="1.921">
        <ele>145.2</ele>
        <time>2021-04-11 08:53:03</time>
      </trkpt>
      <trkpt lat="41.5103" lon="1.92101">
        <ele>145.4</ele>
        <time>2021-04-11 08:53:04</time>
      </trkpt>
      <trkpt lat="41.51037" lon="1.92101">
        <ele>145.4</ele>
        <time>2021-04-11 08:53:05</time>
      </trkpt>
      <trkpt lat="41.51045" lon="1.92101">
        <ele>145.6</ele>
        <time>2021-04-11 08:53:06</time>
      </trkpt>
      <trkpt lat="41.51052" lon="1.92101">
        <ele>145.6</ele>
        <time>2021-04-11 08:53:07</time>
      </trkpt>
      <trkpt lat="41.5106" lon="1.921">
        <ele>145.6</ele>
        <time>2021-04-11 08:53:08</time>
      </trkpt>
      <trkpt lat="41.51067" lon="1.92098">
        <ele>145.4</ele>
        <time>2021-04-11 08:53:09</time>
      </trkpt>
      <trkpt lat="41.51074" lon="1.92097">
        <ele>145.4</ele>
        <time>2021-04-11 08:53:10</time>
      </trkpt>
      <trkpt lat="41.51082" lon="1.92095">
        <ele>145.2</ele>
        <time>2021-04-11 08:53:11</time>
      </trkpt>
      <trkpt lat="41.5109" lon="1.92092">
        <ele>145</ele>
        <time>2021-04-11 08:53:12</time>
      </trkpt>
      <trkpt lat="41.51098" lon="1.9209">
        <ele>144.8</ele>
        <time>2021-04-11 08:53:13</time>
      </trkpt>
      <trkpt lat="41.51106" lon="1.92087">
        <ele>144.4</ele>
        <time>2021-04-11 08:53:14</time>
      </trkpt>
      <trkpt lat="41.51114" lon="1.92085">
        <ele>144.2</ele>
        <time>2021-04-11 08:53:15</time>
      </trkpt>
      <trkpt lat="41.51122" lon="1.92082">
        <ele>143.8</ele>
        <time>2021-04-11 08:53:16</time>
      </trkpt>
      <trkpt lat="41.51131" lon="1.92079">
        <ele>143.6</ele>
        <time>2021-04-11 08:53:17</time>
      </trkpt>
      <trkpt lat="41.5114" lon="1.92076">
        <ele>143.2</ele>
        <time>2021-04-11 08:53:18</time>
      </trkpt>
      <trkpt lat="41.51149" lon="1.92071">
        <ele>143</ele>
        <time>2021-04-11 08:53:19</time>
      </trkpt>
      <trkpt lat="41.5116" lon="1.92063">
        <ele>142.6</ele>
        <time>2021-04-11 08:53:20</time>
      </trkpt>
      <trkpt lat="41.5117" lon="1.92058">
        <ele>142.2</ele>
        <time>2021-04-11 08:53:21</time>
      </trkpt>
      <trkpt lat="41.51178" lon="1.92052">
        <ele>141.8</ele>
        <time>2021-04-11 08:53:22</time>
      </trkpt>
      <trkpt lat="41.51187" lon="1.92052">
        <ele>141.4</ele>
        <time>2021-04-11 08:53:23</time>
      </trkpt>
      <trkpt lat="41.51197" lon="1.9205">
        <ele>141</ele>
        <time>2021-04-11 08:53:24</time>
      </trkpt>
      <trkpt lat="41.51208" lon="1.92048">
        <ele>140.6</ele>
        <time>2021-04-11 08:53:25</time>
      </trkpt>
      <trkpt lat="41.51219" lon="1.92047">
        <ele>140.4</ele>
        <time>2021-04-11 08:53:26</time>
      </trkpt>
      <trkpt lat="41.5123" lon="1.92044">
        <ele>140</ele>
        <time>2021-04-11 08:53:27</time>
      </trkpt>
      <trkpt lat="41.5124" lon="1.92041">
        <ele>139.6</ele>
        <time>2021-04-11 08:53:28</time>
      </trkpt>
      <trkpt lat="41.5125" lon="1.92037">
        <ele>139.4</ele>
        <time>2021-04-11 08:53:29</time>
      </trkpt>
      <trkpt lat="41.5126" lon="1.92033">
        <ele>139</ele>
        <time>2021-04-11 08:53:30</time>
      </trkpt>
      <trkpt lat="41.51269" lon="1.92028">
        <ele>138.8</ele>
        <time>2021-04-11 08:53:31</time>
      </trkpt>
      <trkpt lat="41.51279" lon="1.92023">
        <ele>138.6</ele>
        <time>2021-04-11 08:53:32</time>
      </trkpt>
      <trkpt lat="41.51288" lon="1.92017">
        <ele>138.4</ele>
        <time>2021-04-11 08:53:33</time>
      </trkpt>
      <trkpt lat="41.51297" lon="1.92012">
        <ele>138</ele>
        <time>2021-04-11 08:53:34</time>
      </trkpt>
      <trkpt lat="41.51306" lon="1.92007">
        <ele>137.8</ele>
        <time>2021-04-11 08:53:35</time>
      </trkpt>
      <trkpt lat="41.51316" lon="1.92002">
        <ele>137.6</ele>
        <time>2021-04-11 08:53:36</time>
      </trkpt>
      <trkpt lat="41.51325" lon="1.91996">
        <ele>137.4</ele>
        <time>2021-04-11 08:53:37</time>
      </trkpt>
      <trkpt lat="41.51334" lon="1.91992">
        <ele>137.2</ele>
        <time>2021-04-11 08:53:38</time>
      </trkpt>
      <trkpt lat="41.51344" lon="1.91986">
        <ele>137</ele>
        <time>2021-04-11 08:53:39</time>
      </trkpt>
      <trkpt lat="41.51354" lon="1.91982">
        <ele>136.8</ele>
        <time>2021-04-11 08:53:40</time>
      </trkpt>
      <trkpt lat="41.51363" lon="1.91977">
        <ele>136.8</ele>
        <time>2021-04-11 08:53:41</time>
      </trkpt>
      <trkpt lat="41.51373" lon="1.91974">
        <ele>136.6</ele>
        <time>2021-04-11 08:53:42</time>
      </trkpt>
      <trkpt lat="41.51383" lon="1.91971">
        <ele>136.6</ele>
        <time>2021-04-11 08:53:43</time>
      </trkpt>
      <trkpt lat="41.51392" lon="1.91971">
        <ele>136.6</ele>
        <time>2021-04-11 08:53:44</time>
      </trkpt>
      <trkpt lat="41.51402" lon="1.9197">
        <ele>136.6</ele>
        <time>2021-04-11 08:53:45</time>
      </trkpt>
      <trkpt lat="41.51411" lon="1.91971">
        <ele>136.8</ele>
        <time>2021-04-11 08:53:46</time>
      </trkpt>
      <trkpt lat="41.51421" lon="1.91971">
        <ele>136.8</ele>
        <time>2021-04-11 08:53:47</time>
      </trkpt>
      <trkpt lat="41.5143" lon="1.91972">
        <ele>137</ele>
        <time>2021-04-11 08:53:48</time>
      </trkpt>
      <trkpt lat="41.51438" lon="1.91972">
        <ele>137.2</ele>
        <time>2021-04-11 08:53:49</time>
      </trkpt>
      <trkpt lat="41.51447" lon="1.91973">
        <ele>137.4</ele>
        <time>2021-04-11 08:53:50</time>
      </trkpt>
      <trkpt lat="41.51456" lon="1.91973">
        <ele>137.4</ele>
        <time>2021-04-11 08:53:51</time>
      </trkpt>
      <trkpt lat="41.51464" lon="1.91973">
        <ele>137.6</ele>
        <time>2021-04-11 08:53:52</time>
      </trkpt>
      <trkpt lat="41.51472" lon="1.91973">
        <ele>137.8</ele>
        <time>2021-04-11 08:53:53</time>
      </trkpt>
      <trkpt lat="41.51481" lon="1.91974">
        <ele>137.8</ele>
        <time>2021-04-11 08:53:54</time>
      </trkpt>
      <trkpt lat="41.51489" lon="1.91974">
        <ele>138</ele>
        <time>2021-04-11 08:53:55</time>
      </trkpt>
      <trkpt lat="41.51497" lon="1.91974">
        <ele>138.2</ele>
        <time>2021-04-11 08:53:56</time>
      </trkpt>
      <trkpt lat="41.51506" lon="1.91974">
        <ele>138.4</ele>
        <time>2021-04-11 08:53:57</time>
      </trkpt>
      <trkpt lat="41.51514" lon="1.91974">
        <ele>138.6</ele>
        <time>2021-04-11 08:53:58</time>
      </trkpt>
      <trkpt lat="41.51522" lon="1.91974">
        <ele>138.6</ele>
        <time>2021-04-11 08:53:59</time>
      </trkpt>
      <trkpt lat="41.5153" lon="1.91974">
        <ele>139</ele>
        <time>2021-04-11 08:54:00</time>
      </trkpt>
      <trkpt lat="41.51539" lon="1.91973">
        <ele>139</ele>
        <time>2021-04-11 08:54:01</time>
      </trkpt>
      <trkpt lat="41.51547" lon="1.91972">
        <ele>139.2</ele>
        <time>2021-04-11 08:54:02</time>
      </trkpt>
      <trkpt lat="41.51555" lon="1.9197">
        <ele>139.4</ele>
        <time>2021-04-11 08:54:03</time>
      </trkpt>
      <trkpt lat="41.51563" lon="1.91967">
        <ele>139.4</ele>
        <time>2021-04-11 08:54:04</time>
      </trkpt>
      <trkpt lat="41.5157" lon="1.91964">
        <ele>139.6</ele>
        <time>2021-04-11 08:54:05</time>
      </trkpt>
      <trkpt lat="41.51579" lon="1.91961">
        <ele>139.6</ele>
        <time>2021-04-11 08:54:06</time>
      </trkpt>
      <trkpt lat="41.51587" lon="1.91958">
        <ele>139.8</ele>
        <time>2021-04-11 08:54:07</time>
      </trkpt>
      <trkpt lat="41.51594" lon="1.91955">
        <ele>140</ele>
        <time>2021-04-11 08:54:08</time>
      </trkpt>
      <trkpt lat="41.51602" lon="1.91952">
        <ele>140</ele>
        <time>2021-04-11 08:54:09</time>
      </trkpt>
      <trkpt lat="41.51609" lon="1.91949">
        <ele>140.2</ele>
        <time>2021-04-11 08:54:10</time>
      </trkpt>
      <trkpt lat="41.51617" lon="1.91946">
        <ele>140.4</ele>
        <time>2021-04-11 08:54:11</time>
      </trkpt>
      <trkpt lat="41.51625" lon="1.91944">
        <ele>140.6</ele>
        <time>2021-04-11 08:54:12</time>
      </trkpt>
      <trkpt lat="41.51632" lon="1.91941">
        <ele>140.8</ele>
        <time>2021-04-11 08:54:13</time>
      </trkpt>
      <trkpt lat="41.51639" lon="1.91938">
        <ele>140.8</ele>
        <time>2021-04-11 08:54:14</time>
      </trkpt>
      <trkpt lat="41.51647" lon="1.91935">
        <ele>141</ele>
        <time>2021-04-11 08:54:15</time>
      </trkpt>
      <trkpt lat="41.51654" lon="1.91932">
        <ele>141.2</ele>
        <time>2021-04-11 08:54:16</time>
      </trkpt>
      <trkpt lat="41.51661" lon="1.91929">
        <ele>141.4</ele>
        <time>2021-04-11 08:54:17</time>
      </trkpt>
      <trkpt lat="41.51668" lon="1.91927">
        <ele>141.6</ele>
        <time>2021-04-11 08:54:18</time>
      </trkpt>
      <trkpt lat="41.51676" lon="1.91924">
        <ele>141.8</ele>
        <time>2021-04-11 08:54:19</time>
      </trkpt>
      <trkpt lat="41.51683" lon="1.91921">
        <ele>141.8</ele>
        <time>2021-04-11 08:54:20</time>
      </trkpt>
      <trkpt lat="41.5169" lon="1.91918">
        <ele>142</ele>
        <time>2021-04-11 08:54:21</time>
      </trkpt>
      <trkpt lat="41.51698" lon="1.91916">
        <ele>142.2</ele>
        <time>2021-04-11 08:54:22</time>
      </trkpt>
      <trkpt lat="41.51705" lon="1.91913">
        <ele>142.4</ele>
        <time>2021-04-11 08:54:23</time>
      </trkpt>
      <trkpt lat="41.51712" lon="1.91911">
        <ele>142.4</ele>
        <time>2021-04-11 08:54:24</time>
      </trkpt>
      <trkpt lat="41.51719" lon="1.91908">
        <ele>142.6</ele>
        <time>2021-04-11 08:54:25</time>
      </trkpt>
      <trkpt lat="41.51726" lon="1.91905">
        <ele>142.6</ele>
        <time>2021-04-11 08:54:26</time>
      </trkpt>
      <trkpt lat="41.51733" lon="1.91902">
        <ele>142.8</ele>
        <time>2021-04-11 08:54:27</time>
      </trkpt>
      <trkpt lat="41.5174" lon="1.919">
        <ele>143</ele>
        <time>2021-04-11 08:54:28</time>
      </trkpt>
      <trkpt lat="41.51747" lon="1.91897">
        <ele>143.2</ele>
        <time>2021-04-11 08:54:29</time>
      </trkpt>
      <trkpt lat="41.51754" lon="1.91895">
        <ele>143.4</ele>
        <time>2021-04-11 08:54:30</time>
      </trkpt>
      <trkpt lat="41.51761" lon="1.91892">
        <ele>143.4</ele>
        <time>2021-04-11 08:54:31</time>
      </trkpt>
      <trkpt lat="41.51768" lon="1.9189">
        <ele>143.6</ele>
        <time>2021-04-11 08:54:32</time>
      </trkpt>
      <trkpt lat="41.51775" lon="1.91887">
        <ele>143.8</ele>
        <time>2021-04-11 08:54:33</time>
      </trkpt>
      <trkpt lat="41.51783" lon="1.91885">
        <ele>143.8</ele>
        <time>2021-04-11 08:54:34</time>
      </trkpt>
      <trkpt lat="41.5179" lon="1.91884">
        <ele>143.8</ele>
        <time>2021-04-11 08:54:35</time>
      </trkpt>
      <trkpt lat="41.51798" lon="1.91883">
        <ele>144</ele>
        <time>2021-04-11 08:54:36</time>
      </trkpt>
      <trkpt lat="41.51805" lon="1.91883">
        <ele>144</ele>
        <time>2021-04-11 08:54:37</time>
      </trkpt>
      <trkpt lat="41.51813" lon="1.91884">
        <ele>144</ele>
        <time>2021-04-11 08:54:38</time>
      </trkpt>
      <trkpt lat="41.51821" lon="1.91886">
        <ele>144</ele>
        <time>2021-04-11 08:54:39</time>
      </trkpt>
      <trkpt lat="41.51829" lon="1.91889">
        <ele>144</ele>
        <time>2021-04-11 08:54:40</time>
      </trkpt>
      <trkpt lat="41.51836" lon="1.91893">
        <ele>143.8</ele>
        <time>2021-04-11 08:54:41</time>
      </trkpt>
      <trkpt lat="41.51844" lon="1.91897">
        <ele>143.8</ele>
        <time>2021-04-11 08:54:42</time>
      </trkpt>
      <trkpt lat="41.51852" lon="1.91902">
        <ele>143.6</ele>
        <time>2021-04-11 08:54:43</time>
      </trkpt>
      <trkpt lat="41.51859" lon="1.91908">
        <ele>143.4</ele>
        <time>2021-04-11 08:54:44</time>
      </trkpt>
      <trkpt lat="41.51867" lon="1.91914">
        <ele>143</ele>
        <time>2021-04-11 08:54:45</time>
      </trkpt>
      <trkpt lat="41.51874" lon="1.91921">
        <ele>142.8</ele>
        <time>2021-04-11 08:54:46</time>
      </trkpt>
      <trkpt lat="41.51881" lon="1.91928">
        <ele>142.4</ele>
        <time>2021-04-11 08:54:47</time>
      </trkpt>
      <trkpt lat="41.51888" lon="1.91937">
        <ele>142</ele>
        <time>2021-04-11 08:54:48</time>
      </trkpt>
      <trkpt lat="41.51895" lon="1.91946">
        <ele>141.6</ele>
        <time>2021-04-11 08:54:49</time>
      </trkpt>
      <trkpt lat="41.51902" lon="1.91954">
        <ele>141.2</ele>
        <time>2021-04-11 08:54:50</time>
      </trkpt>
      <trkpt lat="41.51911" lon="1.91961">
        <ele>140.8</ele>
        <time>2021-04-11 08:54:51</time>
      </trkpt>
      <trkpt lat="41.51919" lon="1.91967">
        <ele>140.4</ele>
        <time>2021-04-11 08:54:52</time>
      </trkpt>
      <trkpt lat="41.51928" lon="1.91971">
        <ele>140</ele>
        <time>2021-04-11 08:54:53</time>
      </trkpt>
      <trkpt lat="41.51938" lon="1.91973">
        <ele>139.4</ele>
        <time>2021-04-11 08:54:54</time>
      </trkpt>
      <trkpt lat="41.51948" lon="1.91976">
        <ele>138.8</ele>
        <time>2021-04-11 08:54:55</time>
      </trkpt>
      <trkpt lat="41.51958" lon="1.91978">
        <ele>138.2</ele>
        <time>2021-04-11 08:54:56</time>
      </trkpt>
      <trkpt lat="41.51969" lon="1.91979">
        <ele>137.8</ele>
        <time>2021-04-11 08:54:57</time>
      </trkpt>
      <trkpt lat="41.51979" lon="1.91979">
        <ele>137.4</ele>
        <time>2021-04-11 08:54:58</time>
      </trkpt>
      <trkpt lat="41.5199" lon="1.91978">
        <ele>137</ele>
        <time>2021-04-11 08:54:59</time>
      </trkpt>
      <trkpt lat="41.52001" lon="1.91976">
        <ele>136.6</ele>
        <time>2021-04-11 08:55:00</time>
      </trkpt>
      <trkpt lat="41.52011" lon="1.91972">
        <ele>136.2</ele>
        <time>2021-04-11 08:55:01</time>
      </trkpt>
      <trkpt lat="41.5202" lon="1.91967">
        <ele>136</ele>
        <time>2021-04-11 08:55:02</time>
      </trkpt>
      <trkpt lat="41.5203" lon="1.91963">
        <ele>135.6</ele>
        <time>2021-04-11 08:55:03</time>
      </trkpt>
      <trkpt lat="41.5204" lon="1.91958">
        <ele>135.2</ele>
        <time>2021-04-11 08:55:04</time>
      </trkpt>
      <trkpt lat="41.5205" lon="1.91952">
        <ele>134.8</ele>
        <time>2021-04-11 08:55:05</time>
      </trkpt>
      <trkpt lat="41.52059" lon="1.91947">
        <ele>134.4</ele>
        <time>2021-04-11 08:55:06</time>
      </trkpt>
      <trkpt lat="41.52069" lon="1.91942">
        <ele>134.4</ele>
        <time>2021-04-11 08:55:07</time>
      </trkpt>
      <trkpt lat="41.52078" lon="1.91936">
        <ele>134.4</ele>
        <time>2021-04-11 08:55:08</time>
      </trkpt>
      <trkpt lat="41.52087" lon="1.9193">
        <ele>134.2</ele>
        <time>2021-04-11 08:55:09</time>
      </trkpt>
      <trkpt lat="41.52097" lon="1.91925">
        <ele>134.4</ele>
        <time>2021-04-11 08:55:10</time>
      </trkpt>
      <trkpt lat="41.52106" lon="1.91919">
        <ele>134.4</ele>
        <time>2021-04-11 08:55:11</time>
      </trkpt>
      <trkpt lat="41.52115" lon="1.91914">
        <ele>134.4</ele>
        <time>2021-04-11 08:55:12</time>
      </trkpt>
      <trkpt lat="41.52125" lon="1.91908">
        <ele>134.4</ele>
        <time>2021-04-11 08:55:13</time>
      </trkpt>
      <trkpt lat="41.52133" lon="1.91902">
        <ele>134.4</ele>
        <time>2021-04-11 08:55:14</time>
      </trkpt>
      <trkpt lat="41.52141" lon="1.91897">
        <ele>134.4</ele>
        <time>2021-04-11 08:55:15</time>
      </trkpt>
      <trkpt lat="41.52149" lon="1.91892">
        <ele>134.4</ele>
        <time>2021-04-11 08:55:16</time>
      </trkpt>
      <trkpt lat="41.52158" lon="1.91886">
        <ele>134.4</ele>
        <time>2021-04-11 08:55:17</time>
      </trkpt>
      <trkpt lat="41.52166" lon="1.91881">
        <ele>134.4</ele>
        <time>2021-04-11 08:55:18</time>
      </trkpt>
      <trkpt lat="41.52175" lon="1.91876">
        <ele>134.4</ele>
        <time>2021-04-11 08:55:19</time>
      </trkpt>
      <trkpt lat="41.52183" lon="1.91872">
        <ele>134.4</ele>
        <time>2021-04-11 08:55:20</time>
      </trkpt>
      <trkpt lat="41.52191" lon="1.91867">
        <ele>134.4</ele>
        <time>2021-04-11 08:55:21</time>
      </trkpt>
      <trkpt lat="41.522" lon="1.91861">
        <ele>134.4</ele>
        <time>2021-04-11 08:55:22</time>
      </trkpt>
      <trkpt lat="41.5221" lon="1.91856">
        <ele>134.4</ele>
        <time>2021-04-11 08:55:23</time>
      </trkpt>
      <trkpt lat="41.52219" lon="1.91851">
        <ele>134.4</ele>
        <time>2021-04-11 08:55:24</time>
      </trkpt>
      <trkpt lat="41.52227" lon="1.91845">
        <ele>134.4</ele>
        <time>2021-04-11 08:55:25</time>
      </trkpt>
      <trkpt lat="41.52236" lon="1.9184">
        <ele>134.4</ele>
        <time>2021-04-11 08:55:26</time>
      </trkpt>
      <trkpt lat="41.52244" lon="1.91835">
        <ele>134.6</ele>
        <time>2021-04-11 08:55:27</time>
      </trkpt>
      <trkpt lat="41.52251" lon="1.9183">
        <ele>134.6</ele>
        <time>2021-04-11 08:55:28</time>
      </trkpt>
      <trkpt lat="41.52259" lon="1.91826">
        <ele>134.8</ele>
        <time>2021-04-11 08:55:29</time>
      </trkpt>
      <trkpt lat="41.52266" lon="1.91821">
        <ele>134.8</ele>
        <time>2021-04-11 08:55:30</time>
      </trkpt>
      <trkpt lat="41.52274" lon="1.91816">
        <ele>135</ele>
        <time>2021-04-11 08:55:31</time>
      </trkpt>
      <trkpt lat="41.52281" lon="1.91812">
        <ele>135</ele>
        <time>2021-04-11 08:55:32</time>
      </trkpt>
      <trkpt lat="41.52289" lon="1.91807">
        <ele>135.2</ele>
        <time>2021-04-11 08:55:33</time>
      </trkpt>
      <trkpt lat="41.52296" lon="1.91803">
        <ele>135.4</ele>
        <time>2021-04-11 08:55:34</time>
      </trkpt>
      <trkpt lat="41.52303" lon="1.91798">
        <ele>135.4</ele>
        <time>2021-04-11 08:55:35</time>
      </trkpt>
      <trkpt lat="41.5231" lon="1.91794">
        <ele>135.6</ele>
        <time>2021-04-11 08:55:36</time>
      </trkpt>
      <trkpt lat="41.52317" lon="1.91789">
        <ele>135.6</ele>
        <time>2021-04-11 08:55:37</time>
      </trkpt>
      <trkpt lat="41.52325" lon="1.91785">
        <ele>135.8</ele>
        <time>2021-04-11 08:55:38</time>
      </trkpt>
      <trkpt lat="41.52332" lon="1.9178">
        <ele>135.8</ele>
        <time>2021-04-11 08:55:39</time>
      </trkpt>
      <trkpt lat="41.52338" lon="1.91776">
        <ele>136</ele>
        <time>2021-04-11 08:55:40</time>
      </trkpt>
      <trkpt lat="41.52346" lon="1.91772">
        <ele>136.2</ele>
        <time>2021-04-11 08:55:41</time>
      </trkpt>
      <trkpt lat="41.52353" lon="1.91768">
        <ele>136.2</ele>
        <time>2021-04-11 08:55:42</time>
      </trkpt>
      <trkpt lat="41.52359" lon="1.91764">
        <ele>136.4</ele>
        <time>2021-04-11 08:55:43</time>
      </trkpt>
      <trkpt lat="41.52366" lon="1.9176">
        <ele>136.6</ele>
        <time>2021-04-11 08:55:44</time>
      </trkpt>
      <trkpt lat="41.52372" lon="1.91756">
        <ele>136.6</ele>
        <time>2021-04-11 08:55:45</time>
      </trkpt>
      <trkpt lat="41.52379" lon="1.91752">
        <ele>136.8</ele>
        <time>2021-04-11 08:55:46</time>
      </trkpt>
      <trkpt lat="41.52386" lon="1.91748">
        <ele>136.8</ele>
        <time>2021-04-11 08:55:47</time>
      </trkpt>
      <trkpt lat="41.52392" lon="1.91744">
        <ele>137</ele>
        <time>2021-04-11 08:55:48</time>
      </trkpt>
      <trkpt lat="41.52398" lon="1.9174">
        <ele>137.2</ele>
        <time>2021-04-11 08:55:49</time>
      </trkpt>
      <trkpt lat="41.52405" lon="1.91736">
        <ele>137.2</ele>
        <time>2021-04-11 08:55:50</time>
      </trkpt>
      <trkpt lat="41.52412" lon="1.91732">
        <ele>137.4</ele>
        <time>2021-04-11 08:55:51</time>
      </trkpt>
      <trkpt lat="41.52418" lon="1.91728">
        <ele>137.4</ele>
        <time>2021-04-11 08:55:52</time>
      </trkpt>
      <trkpt lat="41.52424" lon="1.91724">
        <ele>137.6</ele>
        <time>2021-04-11 08:55:53</time>
      </trkpt>
      <trkpt lat="41.52431" lon="1.9172">
        <ele>137.8</ele>
        <time>2021-04-11 08:55:54</time>
      </trkpt>
      <trkpt lat="41.52437" lon="1.91716">
        <ele>137.8</ele>
        <time>2021-04-11 08:55:55</time>
      </trkpt>
      <trkpt lat="41.52444" lon="1.91712">
        <ele>138</ele>
        <time>2021-04-11 08:55:56</time>
      </trkpt>
      <trkpt lat="41.5245" lon="1.91708">
        <ele>138.2</ele>
        <time>2021-04-11 08:55:57</time>
      </trkpt>
      <trkpt lat="41.52457" lon="1.91705">
        <ele>138.2</ele>
        <time>2021-04-11 08:55:58</time>
      </trkpt>
      <trkpt lat="41.52462" lon="1.91701">
        <ele>138.4</ele>
        <time>2021-04-11 08:55:59</time>
      </trkpt>
      <trkpt lat="41.52469" lon="1.91697">
        <ele>138.4</ele>
        <time>2021-04-11 08:56:00</time>
      </trkpt>
      <trkpt lat="41.52476" lon="1.91693">
        <ele>138.6</ele>
        <time>2021-04-11 08:56:01</time>
      </trkpt>
      <trkpt lat="41.52482" lon="1.91689">
        <ele>138.6</ele>
        <time>2021-04-11 08:56:02</time>
      </trkpt>
      <trkpt lat="41.52489" lon="1.91685">
        <ele>138.8</ele>
        <time>2021-04-11 08:56:03</time>
      </trkpt>
      <trkpt lat="41.52495" lon="1.91681">
        <ele>139</ele>
        <time>2021-04-11 08:56:04</time>
      </trkpt>
      <trkpt lat="41.52502" lon="1.91677">
        <ele>139</ele>
        <time>2021-04-11 08:56:05</time>
      </trkpt>
      <trkpt lat="41.52508" lon="1.91673">
        <ele>139.2</ele>
        <time>2021-04-11 08:56:06</time>
      </trkpt>
      <trkpt lat="41.52515" lon="1.91669">
        <ele>139.2</ele>
        <time>2021-04-11 08:56:07</time>
      </trkpt>
      <trkpt lat="41.52521" lon="1.91665">
        <ele>139.4</ele>
        <time>2021-04-11 08:56:08</time>
      </trkpt>
      <trkpt lat="41.52527" lon="1.91661">
        <ele>139.4</ele>
        <time>2021-04-11 08:56:09</time>
      </trkpt>
      <trkpt lat="41.52534" lon="1.91658">
        <ele>139.6</ele>
        <time>2021-04-11 08:56:10</time>
      </trkpt>
      <trkpt lat="41.5254" lon="1.91654">
        <ele>139.6</ele>
        <time>2021-04-11 08:56:11</time>
      </trkpt>
      <trkpt lat="41.52546" lon="1.9165">
        <ele>139.8</ele>
        <time>2021-04-11 08:56:12</time>
      </trkpt>
      <trkpt lat="41.52553" lon="1.91646">
        <ele>139.8</ele>
        <time>2021-04-11 08:56:13</time>
      </trkpt>
      <trkpt lat="41.52559" lon="1.91642">
        <ele>139.8</ele>
        <time>2021-04-11 08:56:14</time>
      </trkpt>
      <trkpt lat="41.52566" lon="1.91638">
        <ele>140</ele>
        <time>2021-04-11 08:56:15</time>
      </trkpt>
      <trkpt lat="41.52572" lon="1.91635">
        <ele>140.2</ele>
        <time>2021-04-11 08:56:16</time>
      </trkpt>
      <trkpt lat="41.52578" lon="1.91631">
        <ele>140.2</ele>
        <time>2021-04-11 08:56:17</time>
      </trkpt>
      <trkpt lat="41.52584" lon="1.91627">
        <ele>140.4</ele>
        <time>2021-04-11 08:56:18</time>
      </trkpt>
      <trkpt lat="41.52591" lon="1.91624">
        <ele>140.4</ele>
        <time>2021-04-11 08:56:19</time>
      </trkpt>
      <trkpt lat="41.52597" lon="1.9162">
        <ele>140.6</ele>
        <time>2021-04-11 08:56:20</time>
      </trkpt>
      <trkpt lat="41.52603" lon="1.91616">
        <ele>140.6</ele>
        <time>2021-04-11 08:56:21</time>
      </trkpt>
      <trkpt lat="41.52609" lon="1.91613">
        <ele>140.8</ele>
        <time>2021-04-11 08:56:22</time>
      </trkpt>
      <trkpt lat="41.52616" lon="1.91609">
        <ele>140.8</ele>
        <time>2021-04-11 08:56:23</time>
      </trkpt>
      <trkpt lat="41.52621" lon="1.91606">
        <ele>141</ele>
        <time>2021-04-11 08:56:24</time>
      </trkpt>
      <trkpt lat="41.52628" lon="1.91602">
        <ele>141.2</ele>
        <time>2021-04-11 08:56:25</time>
      </trkpt>
      <trkpt lat="41.52634" lon="1.91597">
        <ele>141.2</ele>
        <time>2021-04-11 08:56:26</time>
      </trkpt>
      <trkpt lat="41.5264" lon="1.91594">
        <ele>141.4</ele>
        <time>2021-04-11 08:56:27</time>
      </trkpt>
      <trkpt lat="41.52646" lon="1.9159">
        <ele>141.4</ele>
        <time>2021-04-11 08:56:28</time>
      </trkpt>
      <trkpt lat="41.52652" lon="1.91586">
        <ele>141.6</ele>
        <time>2021-04-11 08:56:29</time>
      </trkpt>
      <trkpt lat="41.52658" lon="1.91581">
        <ele>141.6</ele>
        <time>2021-04-11 08:56:30</time>
      </trkpt>
      <trkpt lat="41.52663" lon="1.91576">
        <ele>141.8</ele>
        <time>2021-04-11 08:56:31</time>
      </trkpt>
      <trkpt lat="41.52668" lon="1.91571">
        <ele>141.8</ele>
        <time>2021-04-11 08:56:32</time>
      </trkpt>
      <trkpt lat="41.52674" lon="1.91566">
        <ele>142</ele>
        <time>2021-04-11 08:56:33</time>
      </trkpt>
      <trkpt lat="41.52679" lon="1.9156">
        <ele>142</ele>
        <time>2021-04-11 08:56:34</time>
      </trkpt>
      <trkpt lat="41.52684" lon="1.91554">
        <ele>142</ele>
        <time>2021-04-11 08:56:35</time>
      </trkpt>
      <trkpt lat="41.52689" lon="1.91547">
        <ele>142.2</ele>
        <time>2021-04-11 08:56:36</time>
      </trkpt>
      <trkpt lat="41.52694" lon="1.91541">
        <ele>142.2</ele>
        <time>2021-04-11 08:56:37</time>
      </trkpt>
      <trkpt lat="41.52699" lon="1.91534">
        <ele>142.4</ele>
        <time>2021-04-11 08:56:38</time>
      </trkpt>
      <trkpt lat="41.52704" lon="1.91528">
        <ele>142.2</ele>
        <time>2021-04-11 08:56:39</time>
      </trkpt>
      <trkpt lat="41.52709" lon="1.91523">
        <ele>142.2</ele>
        <time>2021-04-11 08:56:40</time>
      </trkpt>
      <trkpt lat="41.52714" lon="1.91517">
        <ele>142.2</ele>
        <time>2021-04-11 08:56:41</time>
      </trkpt>
      <trkpt lat="41.52719" lon="1.91513">
        <ele>142.2</ele>
        <time>2021-04-11 08:56:42</time>
      </trkpt>
      <trkpt lat="41.52725" lon="1.9151">
        <ele>142.2</ele>
        <time>2021-04-11 08:56:43</time>
      </trkpt>
      <trkpt lat="41.52731" lon="1.9151">
        <ele>142.4</ele>
        <time>2021-04-11 08:56:44</time>
      </trkpt>
      <trkpt lat="41.52737" lon="1.91512">
        <ele>142.6</ele>
        <time>2021-04-11 08:56:45</time>
      </trkpt>
      <trkpt lat="41.52742" lon="1.91515">
        <ele>142.8</ele>
        <time>2021-04-11 08:56:46</time>
      </trkpt>
      <trkpt lat="41.52747" lon="1.91518">
        <ele>142.8</ele>
        <time>2021-04-11 08:56:47</time>
      </trkpt>
      <trkpt lat="41.52753" lon="1.91519">
        <ele>143</ele>
        <time>2021-04-11 08:56:48</time>
      </trkpt>
      <trkpt lat="41.52758" lon="1.91519">
        <ele>143.2</ele>
        <time>2021-04-11 08:56:49</time>
      </trkpt>
      <trkpt lat="41.52763" lon="1.91518">
        <ele>143.4</ele>
        <time>2021-04-11 08:56:50</time>
      </trkpt>
      <trkpt lat="41.52766" lon="1.91514">
        <ele>143.6</ele>
        <time>2021-04-11 08:56:51</time>
      </trkpt>
      <trkpt lat="41.52768" lon="1.91509">
        <ele>143.8</ele>
        <time>2021-04-11 08:56:52</time>
      </trkpt>
      <trkpt lat="41.5277" lon="1.91503">
        <ele>144</ele>
        <time>2021-04-11 08:56:53</time>
      </trkpt>
      <trkpt lat="41.52771" lon="1.91498">
        <ele>144</ele>
        <time>2021-04-11 08:56:54</time>
      </trkpt>
      <trkpt lat="41.52771" lon="1.91492">
        <ele>144.2</ele>
        <time>2021-04-11 08:56:55</time>
      </trkpt>
      <trkpt lat="41.5277" lon="1.91487">
        <ele>144.4</ele>
        <time>2021-04-11 08:56:56</time>
      </trkpt>
      <trkpt lat="41.52769" lon="1.91482">
        <ele>144.4</ele>
        <time>2021-04-11 08:56:57</time>
      </trkpt>
      <trkpt lat="41.52767" lon="1.91478">
        <ele>144.4</ele>
        <time>2021-04-11 08:56:58</time>
      </trkpt>
      <trkpt lat="41.52764" lon="1.91475">
        <ele>144.4</ele>
        <time>2021-04-11 08:56:59</time>
      </trkpt>
      <trkpt lat="41.5276" lon="1.91473">
        <ele>144.4</ele>
        <time>2021-04-11 08:57:00</time>
      </trkpt>
      <trkpt lat="41.52756" lon="1.91471">
        <ele>144.4</ele>
        <time>2021-04-11 08:57:01</time>
      </trkpt>
      <trkpt lat="41.52751" lon="1.91471">
        <ele>144.2</ele>
        <time>2021-04-11 08:57:02</time>
      </trkpt>
      <trkpt lat="41.52747" lon="1.91473">
        <ele>144</ele>
        <time>2021-04-11 08:57:03</time>
      </trkpt>
      <trkpt lat="41.52742" lon="1.91476">
        <ele>144</ele>
        <time>2021-04-11 08:57:04</time>
      </trkpt>
      <trkpt lat="41.52738" lon="1.91481">
        <ele>143.8</ele>
        <time>2021-04-11 08:57:05</time>
      </trkpt>
      <trkpt lat="41.52734" lon="1.91486">
        <ele>143.6</ele>
        <time>2021-04-11 08:57:06</time>
      </trkpt>
      <trkpt lat="41.52729" lon="1.91492">
        <ele>143.4</ele>
        <time>2021-04-11 08:57:07</time>
      </trkpt>
      <trkpt lat="41.52725" lon="1.91497">
        <ele>143.2</ele>
        <time>2021-04-11 08:57:08</time>
      </trkpt>
      <trkpt lat="41.52719" lon="1.91503">
        <ele>143</ele>
        <time>2021-04-11 08:57:09</time>
      </trkpt>
      <trkpt lat="41.52714" lon="1.91508">
        <ele>142.6</ele>
        <time>2021-04-11 08:57:10</time>
      </trkpt>
      <trkpt lat="41.52709" lon="1.91514">
        <ele>142.6</ele>
        <time>2021-04-11 08:57:11</time>
      </trkpt>
      <trkpt lat="41.52704" lon="1.9152">
        <ele>142.4</ele>
        <time>2021-04-11 08:57:12</time>
      </trkpt>
      <trkpt lat="41.52699" lon="1.91526">
        <ele>142.2</ele>
        <time>2021-04-11 08:57:13</time>
      </trkpt>
      <trkpt lat="41.52695" lon="1.91532">
        <ele>142.2</ele>
        <time>2021-04-11 08:57:14</time>
      </trkpt>
      <trkpt lat="41.5269" lon="1.91537">
        <ele>142.2</ele>
        <time>2021-04-11 08:57:15</time>
      </trkpt>
      <trkpt lat="41.52686" lon="1.91541">
        <ele>142.2</ele>
        <time>2021-04-11 08:57:16</time>
      </trkpt>
      <trkpt lat="41.52683" lon="1.91545">
        <ele>142.2</ele>
        <time>2021-04-11 08:57:17</time>
      </trkpt>
      <trkpt lat="41.52681" lon="1.91548">
        <ele>142.4</ele>
        <time>2021-04-11 08:57:18</time>
      </trkpt>
      <trkpt lat="41.52679" lon="1.9155">
        <ele>142.4</ele>
        <time>2021-04-11 08:57:19</time>
      </trkpt>
      <trkpt lat="41.52679" lon="1.91553">
        <ele>142.4</ele>
        <time>2021-04-11 08:57:20</time>
      </trkpt>
      <trkpt lat="41.5268" lon="1.91554">
        <ele>142.4</ele>
        <time>2021-04-11 08:57:21</time>
      </trkpt>
      <trkpt lat="41.52682" lon="1.91554">
        <ele>142.6</ele>
        <time>2021-04-11 08:57:22</time>
      </trkpt>
      <trkpt lat="41.52684" lon="1.91553">
        <ele>142.6</ele>
        <time>2021-04-11 08:57:23</time>
      </trkpt>
      <trkpt lat="41.52686" lon="1.9155">
        <ele>142.6</ele>
        <time>2021-04-11 08:57:24</time>
      </trkpt>
      <trkpt lat="41.52688" lon="1.91545">
        <ele>142.6</ele>
        <time>2021-04-11 08:57:25</time>
      </trkpt>
      <trkpt lat="41.52691" lon="1.9154">
        <ele>142.6</ele>
        <time>2021-04-11 08:57:26</time>
      </trkpt>
      <trkpt lat="41.52694" lon="1.91535">
        <ele>142.4</ele>
        <time>2021-04-11 08:57:27</time>
      </trkpt>
      <trkpt lat="41.52699" lon="1.9153">
        <ele>142.4</ele>
        <time>2021-04-11 08:57:28</time>
      </trkpt>
      <trkpt lat="41.52704" lon="1.91525">
        <ele>142.4</ele>
        <time>2021-04-11 08:57:29</time>
      </trkpt>
      <trkpt lat="41.52709" lon="1.9152">
        <ele>142.2</ele>
        <time>2021-04-11 08:57:30</time>
      </trkpt>
      <trkpt lat="41.52714" lon="1.91516">
        <ele>142.2</ele>
        <time>2021-04-11 08:57:31</time>
      </trkpt>
      <trkpt lat="41.5272" lon="1.91512">
        <ele>142.2</ele>
        <time>2021-04-11 08:57:32</time>
      </trkpt>
      <trkpt lat="41.52726" lon="1.9151">
        <ele>142.4</ele>
        <time>2021-04-11 08:57:33</time>
      </trkpt>
      <trkpt lat="41.52733" lon="1.9151">
        <ele>142.4</ele>
        <time>2021-04-11 08:57:34</time>
      </trkpt>
      <trkpt lat="41.52739" lon="1.91512">
        <ele>142.6</ele>
        <time>2021-04-11 08:57:35</time>
      </trkpt>
      <trkpt lat="41.52745" lon="1.91515">
        <ele>142.8</ele>
        <time>2021-04-11 08:57:36</time>
      </trkpt>
      <trkpt lat="41.52751" lon="1.91517">
        <ele>143</ele>
        <time>2021-04-11 08:57:37</time>
      </trkpt>
      <trkpt lat="41.52757" lon="1.91516">
        <ele>143.2</ele>
        <time>2021-04-11 08:57:38</time>
      </trkpt>
      <trkpt lat="41.52762" lon="1.91512">
        <ele>143.4</ele>
        <time>2021-04-11 08:57:39</time>
      </trkpt>
      <trkpt lat="41.52766" lon="1.91506">
        <ele>143.6</ele>
        <time>2021-04-11 08:57:40</time>
      </trkpt>
      <trkpt lat="41.52768" lon="1.91499">
        <ele>143.8</ele>
        <time>2021-04-11 08:57:41</time>
      </trkpt>
      <trkpt lat="41.52769" lon="1.91492">
        <ele>144</ele>
        <time>2021-04-11 08:57:42</time>
      </trkpt>
      <trkpt lat="41.5277" lon="1.91484">
        <ele>144</ele>
        <time>2021-04-11 08:57:43</time>
      </trkpt>
      <trkpt lat="41.5277" lon="1.91476">
        <ele>144</ele>
        <time>2021-04-11 08:57:44</time>
      </trkpt>
      <trkpt lat="41.52771" lon="1.91467">
        <ele>144</ele>
        <time>2021-04-11 08:57:45</time>
      </trkpt>
      <trkpt lat="41.52775" lon="1.9146">
        <ele>143.8</ele>
        <time>2021-04-11 08:57:46</time>
      </trkpt>
      <trkpt lat="41.5278" lon="1.91454">
        <ele>143.6</ele>
        <time>2021-04-11 08:57:47</time>
      </trkpt>
      <trkpt lat="41.52786" lon="1.9145">
        <ele>143.4</ele>
        <time>2021-04-11 08:57:48</time>
      </trkpt>
      <trkpt lat="41.52793" lon="1.91446">
        <ele>143.2</ele>
        <time>2021-04-11 08:57:49</time>
      </trkpt>
      <trkpt lat="41.528" lon="1.91443">
        <ele>143.2</ele>
        <time>2021-04-11 08:57:50</time>
      </trkpt>
      <trkpt lat="41.52807" lon="1.91441">
        <ele>143</ele>
        <time>2021-04-11 08:57:51</time>
      </trkpt>
      <trkpt lat="41.52813" lon="1.91439">
        <ele>143</ele>
        <time>2021-04-11 08:57:52</time>
      </trkpt>
      <trkpt lat="41.52822" lon="1.91436">
        <ele>142.8</ele>
        <time>2021-04-11 08:57:53</time>
      </trkpt>
      <trkpt lat="41.52829" lon="1.91433">
        <ele>142.8</ele>
        <time>2021-04-11 08:57:54</time>
      </trkpt>
      <trkpt lat="41.52836" lon="1.9143">
        <ele>142.8</ele>
        <time>2021-04-11 08:57:55</time>
      </trkpt>
      <trkpt lat="41.52843" lon="1.91427">
        <ele>142.8</ele>
        <time>2021-04-11 08:57:56</time>
      </trkpt>
      <trkpt lat="41.5285" lon="1.91424">
        <ele>142.8</ele>
        <time>2021-04-11 08:57:57</time>
      </trkpt>
      <trkpt lat="41.52857" lon="1.91421">
        <ele>142.8</ele>
        <time>2021-04-11 08:57:58</time>
      </trkpt>
      <trkpt lat="41.52865" lon="1.91418">
        <ele>142.6</ele>
        <time>2021-04-11 08:57:59</time>
      </trkpt>
      <trkpt lat="41.52872" lon="1.91415">
        <ele>142.6</ele>
        <time>2021-04-11 08:58:00</time>
      </trkpt>
      <trkpt lat="41.52879" lon="1.91412">
        <ele>142.4</ele>
        <time>2021-04-11 08:58:01</time>
      </trkpt>
      <trkpt lat="41.52885" lon="1.91409">
        <ele>142.4</ele>
        <time>2021-04-11 08:58:02</time>
      </trkpt>
      <trkpt lat="41.52892" lon="1.91406">
        <ele>142.4</ele>
        <time>2021-04-11 08:58:03</time>
      </trkpt>
      <trkpt lat="41.52899" lon="1.91403">
        <ele>142.4</ele>
        <time>2021-04-11 08:58:04</time>
      </trkpt>
      <trkpt lat="41.52905" lon="1.914">
        <ele>142.4</ele>
        <time>2021-04-11 08:58:05</time>
      </trkpt>
      <trkpt lat="41.52912" lon="1.91398">
        <ele>142.4</ele>
        <time>2021-04-11 08:58:06</time>
      </trkpt>
      <trkpt lat="41.52918" lon="1.91396">
        <ele>142.4</ele>
        <time>2021-04-11 08:58:07</time>
      </trkpt>
      <trkpt lat="41.52925" lon="1.91394">
        <ele>142.4</ele>
        <time>2021-04-11 08:58:08</time>
      </trkpt>
      <trkpt lat="41.52932" lon="1.91394">
        <ele>142.4</ele>
        <time>2021-04-11 08:58:09</time>
      </trkpt>
      <trkpt lat="41.52939" lon="1.91394">
        <ele>142.4</ele>
        <time>2021-04-11 08:58:10</time>
      </trkpt>
      <trkpt lat="41.52946" lon="1.91395">
        <ele>142.4</ele>
        <time>2021-04-11 08:58:11</time>
      </trkpt>
      <trkpt lat="41.52952" lon="1.91395">
        <ele>142.2</ele>
        <time>2021-04-11 08:58:12</time>
      </trkpt>
      <trkpt lat="41.52959" lon="1.91396">
        <ele>142.2</ele>
        <time>2021-04-11 08:58:13</time>
      </trkpt>
      <trkpt lat="41.52966" lon="1.91397">
        <ele>142.2</ele>
        <time>2021-04-11 08:58:14</time>
      </trkpt>
      <trkpt lat="41.52973" lon="1.91397">
        <ele>142.2</ele>
        <time>2021-04-11 08:58:15</time>
      </trkpt>
      <trkpt lat="41.5298" lon="1.91396">
        <ele>142</ele>
        <time>2021-04-11 08:58:16</time>
      </trkpt>
      <trkpt lat="41.52986" lon="1.91393">
        <ele>142</ele>
        <time>2021-04-11 08:58:17</time>
      </trkpt>
      <trkpt lat="41.52992" lon="1.9139">
        <ele>142</ele>
        <time>2021-04-11 08:58:18</time>
      </trkpt>
      <trkpt lat="41.52998" lon="1.91386">
        <ele>141.8</ele>
        <time>2021-04-11 08:58:19</time>
      </trkpt>
      <trkpt lat="41.53004" lon="1.91382">
        <ele>141.8</ele>
        <time>2021-04-11 08:58:20</time>
      </trkpt>
      <trkpt lat="41.5301" lon="1.91377">
        <ele>141.8</ele>
        <time>2021-04-11 08:58:21</time>
      </trkpt>
      <trkpt lat="41.53016" lon="1.91373">
        <ele>141.8</ele>
        <time>2021-04-11 08:58:22</time>
      </trkpt>
      <trkpt lat="41.53021" lon="1.91369">
        <ele>141.8</ele>
        <time>2021-04-11 08:58:23</time>
      </trkpt>
      <trkpt lat="41.53027" lon="1.91364">
        <ele>141.8</ele>
        <time>2021-04-11 08:58:24</time>
      </trkpt>
      <trkpt lat="41.53033" lon="1.9136">
        <ele>142</ele>
        <time>2021-04-11 08:58:25</time>
      </trkpt>
      <trkpt lat="41.53039" lon="1.91356">
        <ele>142</ele>
        <time>2021-04-11 08:58:26</time>
      </trkpt>
      <trkpt lat="41.53044" lon="1.91351">
        <ele>142</ele>
        <time>2021-04-11 08:58:27</time>
      </trkpt>
      <trkpt lat="41.5305" lon="1.91347">
        <ele>142</ele>
        <time>2021-04-11 08:58:28</time>
      </trkpt>
      <trkpt lat="41.53055" lon="1.91343">
        <ele>142.2</ele>
        <time>2021-04-11 08:58:29</time>
      </trkpt>
      <trkpt lat="41.53061" lon="1.91339">
        <ele>142.2</ele>
        <time>2021-04-11 08:58:30</time>
      </trkpt>
      <trkpt lat="41.53067" lon="1.91334">
        <ele>142.2</ele>
        <time>2021-04-11 08:58:31</time>
      </trkpt>
      <trkpt lat="41.53072" lon="1.9133">
        <ele>142.2</ele>
        <time>2021-04-11 08:58:32</time>
      </trkpt>
      <trkpt lat="41.53078" lon="1.91326">
        <ele>142.4</ele>
        <time>2021-04-11 08:58:33</time>
      </trkpt>
      <trkpt lat="41.53083" lon="1.91322">
        <ele>142.4</ele>
        <time>2021-04-11 08:58:34</time>
      </trkpt>
      <trkpt lat="41.53088" lon="1.91318">
        <ele>142.6</ele>
        <time>2021-04-11 08:58:35</time>
      </trkpt>
      <trkpt lat="41.53095" lon="1.91314">
        <ele>142.6</ele>
        <time>2021-04-11 08:58:36</time>
      </trkpt>
      <trkpt lat="41.531" lon="1.91311">
        <ele>142.6</ele>
        <time>2021-04-11 08:58:37</time>
      </trkpt>
      <trkpt lat="41.53107" lon="1.91307">
        <ele>142.8</ele>
        <time>2021-04-11 08:58:38</time>
      </trkpt>
      <trkpt lat="41.53113" lon="1.91305">
        <ele>142.8</ele>
        <time>2021-04-11 08:58:39</time>
      </trkpt>
      <trkpt lat="41.53119" lon="1.91302">
        <ele>142.8</ele>
        <time>2021-04-11 08:58:40</time>
      </trkpt>
      <trkpt lat="41.53126" lon="1.91301">
        <ele>142.6</ele>
        <time>2021-04-11 08:58:41</time>
      </trkpt>
      <trkpt lat="41.53132" lon="1.91299">
        <ele>142.6</ele>
        <time>2021-04-11 08:58:42</time>
      </trkpt>
      <trkpt lat="41.53139" lon="1.91298">
        <ele>142.6</ele>
        <time>2021-04-11 08:58:43</time>
      </trkpt>
      <trkpt lat="41.53145" lon="1.91297">
        <ele>142.6</ele>
        <time>2021-04-11 08:58:44</time>
      </trkpt>
      <trkpt lat="41.53152" lon="1.91296">
        <ele>142.6</ele>
        <time>2021-04-11 08:58:45</time>
      </trkpt>
      <trkpt lat="41.53159" lon="1.91296">
        <ele>142.4</ele>
        <time>2021-04-11 08:58:46</time>
      </trkpt>
      <trkpt lat="41.53165" lon="1.91296">
        <ele>142.4</ele>
        <time>2021-04-11 08:58:47</time>
      </trkpt>
      <trkpt lat="41.53172" lon="1.91296">
        <ele>142.2</ele>
        <time>2021-04-11 08:58:48</time>
      </trkpt>
      <trkpt lat="41.53178" lon="1.91296">
        <ele>142.2</ele>
        <time>2021-04-11 08:58:49</time>
      </trkpt>
      <trkpt lat="41.53185" lon="1.91296">
        <ele>142</ele>
        <time>2021-04-11 08:58:50</time>
      </trkpt>
      <trkpt lat="41.53192" lon="1.91296">
        <ele>141.8</ele>
        <time>2021-04-11 08:58:51</time>
      </trkpt>
      <trkpt lat="41.53199" lon="1.91295">
        <ele>141.6</ele>
        <time>2021-04-11 08:58:52</time>
      </trkpt>
      <trkpt lat="41.53206" lon="1.91295">
        <ele>141.6</ele>
        <time>2021-04-11 08:58:53</time>
      </trkpt>
      <trkpt lat="41.53213" lon="1.91294">
        <ele>141.4</ele>
        <time>2021-04-11 08:58:54</time>
      </trkpt>
      <trkpt lat="41.53219" lon="1.91293">
        <ele>141.4</ele>
        <time>2021-04-11 08:58:55</time>
      </trkpt>
      <trkpt lat="41.53226" lon="1.91291">
        <ele>141.2</ele>
        <time>2021-04-11 08:58:56</time>
      </trkpt>
      <trkpt lat="41.53233" lon="1.91289">
        <ele>141.2</ele>
        <time>2021-04-11 08:58:57</time>
      </trkpt>
      <trkpt lat="41.5324" lon="1.91287">
        <ele>141</ele>
        <time>2021-04-11 08:58:58</time>
      </trkpt>
      <trkpt lat="41.53246" lon="1.91284">
        <ele>141</ele>
        <time>2021-04-11 08:58:59</time>
      </trkpt>
      <trkpt lat="41.53253" lon="1.91281">
        <ele>141</ele>
        <time>2021-04-11 08:59:00</time>
      </trkpt>
      <trkpt lat="41.5326" lon="1.91278">
        <ele>140.8</ele>
        <time>2021-04-11 08:59:01</time>
      </trkpt>
      <trkpt lat="41.53266" lon="1.91275">
        <ele>140.8</ele>
        <time>2021-04-11 08:59:02</time>
      </trkpt>
      <trkpt lat="41.53272" lon="1.91271">
        <ele>140.6</ele>
        <time>2021-04-11 08:59:03</time>
      </trkpt>
      <trkpt lat="41.53279" lon="1.91267">
        <ele>140.6</ele>
        <time>2021-04-11 08:59:04</time>
      </trkpt>
      <trkpt lat="41.53285" lon="1.91263">
        <ele>140.6</ele>
        <time>2021-04-11 08:59:05</time>
      </trkpt>
      <trkpt lat="41.53292" lon="1.91258">
        <ele>140.4</ele>
        <time>2021-04-11 08:59:06</time>
      </trkpt>
      <trkpt lat="41.53298" lon="1.91254">
        <ele>140.2</ele>
        <time>2021-04-11 08:59:07</time>
      </trkpt>
      <trkpt lat="41.53305" lon="1.91248">
        <ele>140</ele>
        <time>2021-04-11 08:59:08</time>
      </trkpt>
      <trkpt lat="41.53312" lon="1.91243">
        <ele>140</ele>
        <time>2021-04-11 08:59:09</time>
      </trkpt>
      <trkpt lat="41.53318" lon="1.91236">
        <ele>139.8</ele>
        <time>2021-04-11 08:59:10</time>
      </trkpt>
      <trkpt lat="41.53325" lon="1.9123">
        <ele>139.8</ele>
        <time>2021-04-11 08:59:11</time>
      </trkpt>
      <trkpt lat="41.53331" lon="1.91224">
        <ele>139.8</ele>
        <time>2021-04-11 08:59:12</time>
      </trkpt>
      <trkpt lat="41.53337" lon="1.91218">
        <ele>139.6</ele>
        <time>2021-04-11 08:59:13</time>
      </trkpt>
      <trkpt lat="41.53343" lon="1.91212">
        <ele>139.6</ele>
        <time>2021-04-11 08:59:14</time>
      </trkpt>
      <trkpt lat="41.53349" lon="1.91206">
        <ele>139.4</ele>
        <time>2021-04-11 08:59:15</time>
      </trkpt>
      <trkpt lat="41.53355" lon="1.91201">
        <ele>139.4</ele>
        <time>2021-04-11 08:59:16</time>
      </trkpt>
      <trkpt lat="41.53361" lon="1.91195">
        <ele>139.4</ele>
        <time>2021-04-11 08:59:17</time>
      </trkpt>
      <trkpt lat="41.53367" lon="1.91189">
        <ele>139.4</ele>
        <time>2021-04-11 08:59:18</time>
      </trkpt>
      <trkpt lat="41.53373" lon="1.91184">
        <ele>139.4</ele>
        <time>2021-04-11 08:59:19</time>
      </trkpt>
      <trkpt lat="41.53379" lon="1.91178">
        <ele>139.6</ele>
        <time>2021-04-11 08:59:20</time>
      </trkpt>
      <trkpt lat="41.53385" lon="1.91172">
        <ele>139.4</ele>
        <time>2021-04-11 08:59:21</time>
      </trkpt>
      <trkpt lat="41.53391" lon="1.91166">
        <ele>139.4</ele>
        <time>2021-04-11 08:59:22</time>
      </trkpt>
      <trkpt lat="41.53397" lon="1.9116">
        <ele>139.4</ele>
        <time>2021-04-11 08:59:23</time>
      </trkpt>
      <trkpt lat="41.53403" lon="1.91153">
        <ele>139.4</ele>
        <time>2021-04-11 08:59:24</time>
      </trkpt>
      <trkpt lat="41.53409" lon="1.91147">
        <ele>139.4</ele>
        <time>2021-04-11 08:59:25</time>
      </trkpt>
      <trkpt lat="41.53415" lon="1.91141">
        <ele>139.4</ele>
        <time>2021-04-11 08:59:26</time>
      </trkpt>
      <trkpt lat="41.5342" lon="1.91134">
        <ele>139.4</ele>
        <time>2021-04-11 08:59:27</time>
      </trkpt>
      <trkpt lat="41.53425" lon="1.91127">
        <ele>139.6</ele>
        <time>2021-04-11 08:59:28</time>
      </trkpt>
      <trkpt lat="41.5343" lon="1.9112">
        <ele>139.6</ele>
        <time>2021-04-11 08:59:29</time>
      </trkpt>
      <trkpt lat="41.53435" lon="1.91113">
        <ele>139.6</ele>
        <time>2021-04-11 08:59:30</time>
      </trkpt>
      <trkpt lat="41.53439" lon="1.91105">
        <ele>139.4</ele>
        <time>2021-04-11 08:59:31</time>
      </trkpt>
      <trkpt lat="41.53443" lon="1.91097">
        <ele>139.4</ele>
        <time>2021-04-11 08:59:32</time>
      </trkpt>
      <trkpt lat="41.53447" lon="1.91089">
        <ele>139.4</ele>
        <time>2021-04-11 08:59:33</time>
      </trkpt>
      <trkpt lat="41.53451" lon="1.91081">
        <ele>139.4</ele>
        <time>2021-04-11 08:59:34</time>
      </trkpt>
      <trkpt lat="41.53455" lon="1.91073">
        <ele>139.4</ele>
        <time>2021-04-11 08:59:35</time>
      </trkpt>
      <trkpt lat="41.53459" lon="1.91065">
        <ele>139.4</ele>
        <time>2021-04-11 08:59:36</time>
      </trkpt>
      <trkpt lat="41.53463" lon="1.91057">
        <ele>139.4</ele>
        <time>2021-04-11 08:59:37</time>
      </trkpt>
      <trkpt lat="41.53467" lon="1.91048">
        <ele>139.2</ele>
        <time>2021-04-11 08:59:38</time>
      </trkpt>
      <trkpt lat="41.53471" lon="1.9104">
        <ele>139.2</ele>
        <time>2021-04-11 08:59:39</time>
      </trkpt>
      <trkpt lat="41.53475" lon="1.91031">
        <ele>139.2</ele>
        <time>2021-04-11 08:59:40</time>
      </trkpt>
      <trkpt lat="41.53479" lon="1.91022">
        <ele>139</ele>
        <time>2021-04-11 08:59:41</time>
      </trkpt>
      <trkpt lat="41.53483" lon="1.91014">
        <ele>139</ele>
        <time>2021-04-11 08:59:42</time>
      </trkpt>
      <trkpt lat="41.53489" lon="1.91004">
        <ele>138.8</ele>
        <time>2021-04-11 08:59:43</time>
      </trkpt>
      <trkpt lat="41.53495" lon="1.90995">
        <ele>138.8</ele>
        <time>2021-04-11 08:59:44</time>
      </trkpt>
      <trkpt lat="41.535" lon="1.90986">
        <ele>138.8</ele>
        <time>2021-04-11 08:59:45</time>
      </trkpt>
      <trkpt lat="41.53506" lon="1.90979">
        <ele>138.8</ele>
        <time>2021-04-11 08:59:46</time>
      </trkpt>
      <trkpt lat="41.53511" lon="1.90972">
        <ele>139</ele>
        <time>2021-04-11 08:59:47</time>
      </trkpt>
      <trkpt lat="41.53517" lon="1.90965">
        <ele>139.4</ele>
        <time>2021-04-11 08:59:48</time>
      </trkpt>
      <trkpt lat="41.53523" lon="1.90958">
        <ele>139.6</ele>
        <time>2021-04-11 08:59:49</time>
      </trkpt>
      <trkpt lat="41.53528" lon="1.90952">
        <ele>140</ele>
        <time>2021-04-11 08:59:50</time>
      </trkpt>
      <trkpt lat="41.53533" lon="1.90946">
        <ele>140.4</ele>
        <time>2021-04-11 08:59:51</time>
      </trkpt>
      <trkpt lat="41.53539" lon="1.9094">
        <ele>140.8</ele>
        <time>2021-04-11 08:59:52</time>
      </trkpt>
      <trkpt lat="41.53544" lon="1.90935">
        <ele>141</ele>
        <time>2021-04-11 08:59:53</time>
      </trkpt>
      <trkpt lat="41.53549" lon="1.9093">
        <ele>141.6</ele>
        <time>2021-04-11 08:59:54</time>
      </trkpt>
      <trkpt lat="41.53554" lon="1.90924">
        <ele>142</ele>
        <time>2021-04-11 08:59:55</time>
      </trkpt>
      <trkpt lat="41.53559" lon="1.90919">
        <ele>142.4</ele>
        <time>2021-04-11 08:59:56</time>
      </trkpt>
      <trkpt lat="41.53563" lon="1.90914">
        <ele>142.8</ele>
        <time>2021-04-11 08:59:57</time>
      </trkpt>
      <trkpt lat="41.53568" lon="1.90909">
        <ele>143.2</ele>
        <time>2021-04-11 08:59:58</time>
      </trkpt>
      <trkpt lat="41.53572" lon="1.90904">
        <ele>143.8</ele>
        <time>2021-04-11 08:59:59</time>
      </trkpt>
      <trkpt lat="41.53577" lon="1.909">
        <ele>144.2</ele>
        <time>2021-04-11 09:00:00</time>
      </trkpt>
      <trkpt lat="41.53581" lon="1.90895">
        <ele>144.6</ele>
        <time>2021-04-11 09:00:01</time>
      </trkpt>
      <trkpt lat="41.53586" lon="1.9089">
        <ele>145</ele>
        <time>2021-04-11 09:00:02</time>
      </trkpt>
      <trkpt lat="41.5359" lon="1.90886">
        <ele>145.4</ele>
        <time>2021-04-11 09:00:03</time>
      </trkpt>
      <trkpt lat="41.53595" lon="1.90882">
        <ele>145.8</ele>
        <time>2021-04-11 09:00:04</time>
      </trkpt>
      <trkpt lat="41.536" lon="1.90877">
        <ele>146.2</ele>
        <time>2021-04-11 09:00:05</time>
      </trkpt>
      <trkpt lat="41.53604" lon="1.90873">
        <ele>146.6</ele>
        <time>2021-04-11 09:00:06</time>
      </trkpt>
      <trkpt lat="41.53607" lon="1.90869">
        <ele>147</ele>
        <time>2021-04-11 09:00:07</time>
      </trkpt>
      <trkpt lat="41.53612" lon="1.90864">
        <ele>147.2</ele>
        <time>2021-04-11 09:00:08</time>
      </trkpt>
      <trkpt lat="41.53616" lon="1.9086">
        <ele>147.6</ele>
        <time>2021-04-11 09:00:09</time>
      </trkpt>
      <trkpt lat="41.5362" lon="1.90855">
        <ele>148</ele>
        <time>2021-04-11 09:00:10</time>
      </trkpt>
      <trkpt lat="41.53624" lon="1.90851">
        <ele>148.4</ele>
        <time>2021-04-11 09:00:11</time>
      </trkpt>
      <trkpt lat="41.53628" lon="1.90847">
        <ele>148.8</ele>
        <time>2021-04-11 09:00:12</time>
      </trkpt>
      <trkpt lat="41.53632" lon="1.90843">
        <ele>149.2</ele>
        <time>2021-04-11 09:00:13</time>
      </trkpt>
      <trkpt lat="41.53635" lon="1.90839">
        <ele>149.4</ele>
        <time>2021-04-11 09:00:14</time>
      </trkpt>
      <trkpt lat="41.53639" lon="1.90836">
        <ele>149.8</ele>
        <time>2021-04-11 09:00:15</time>
      </trkpt>
      <trkpt lat="41.53643" lon="1.90833">
        <ele>150.2</ele>
        <time>2021-04-11 09:00:16</time>
      </trkpt>
      <trkpt lat="41.53646" lon="1.9083">
        <ele>150.4</ele>
        <time>2021-04-11 09:00:17</time>
      </trkpt>
      <trkpt lat="41.5365" lon="1.90826">
        <ele>150.8</ele>
        <time>2021-04-11 09:00:18</time>
      </trkpt>
      <trkpt lat="41.53654" lon="1.90824">
        <ele>151</ele>
        <time>2021-04-11 09:00:19</time>
      </trkpt>
      <trkpt lat="41.53658" lon="1.90821">
        <ele>151.4</ele>
        <time>2021-04-11 09:00:20</time>
      </trkpt>
      <trkpt lat="41.53662" lon="1.90819">
        <ele>151.6</ele>
        <time>2021-04-11 09:00:21</time>
      </trkpt>
      <trkpt lat="41.53667" lon="1.90817">
        <ele>152</ele>
        <time>2021-04-11 09:00:22</time>
      </trkpt>
      <trkpt lat="41.53671" lon="1.90815">
        <ele>152.2</ele>
        <time>2021-04-11 09:00:23</time>
      </trkpt>
      <trkpt lat="41.53676" lon="1.90813">
        <ele>152.4</ele>
        <time>2021-04-11 09:00:24</time>
      </trkpt>
      <trkpt lat="41.5368" lon="1.90812">
        <ele>152.8</ele>
        <time>2021-04-11 09:00:25</time>
      </trkpt>
      <trkpt lat="41.53685" lon="1.9081">
        <ele>153.2</ele>
        <time>2021-04-11 09:00:26</time>
      </trkpt>
      <trkpt lat="41.53689" lon="1.90809">
        <ele>153.4</ele>
        <time>2021-04-11 09:00:27</time>
      </trkpt>
      <trkpt lat="41.53693" lon="1.90808">
        <ele>153.8</ele>
        <time>2021-04-11 09:00:28</time>
      </trkpt>
      <trkpt lat="41.53698" lon="1.90806">
        <ele>154.2</ele>
        <time>2021-04-11 09:00:29</time>
      </trkpt>
      <trkpt lat="41.53702" lon="1.90805">
        <ele>154.4</ele>
        <time>2021-04-11 09:00:30</time>
      </trkpt>
      <trkpt lat="41.53706" lon="1.90804">
        <ele>154.8</ele>
        <time>2021-04-11 09:00:31</time>
      </trkpt>
      <trkpt lat="41.5371" lon="1.90802">
        <ele>155.2</ele>
        <time>2021-04-11 09:00:32</time>
      </trkpt>
      <trkpt lat="41.53714" lon="1.908">
        <ele>155.4</ele>
        <time>2021-04-11 09:00:33</time>
      </trkpt>
      <trkpt lat="41.53718" lon="1.90799">
        <ele>155.8</ele>
        <time>2021-04-11 09:00:34</time>
      </trkpt>
      <trkpt lat="41.53722" lon="1.90797">
        <ele>156.2</ele>
        <time>2021-04-11 09:00:35</time>
      </trkpt>
      <trkpt lat="41.53726" lon="1.90795">
        <ele>156.4</ele>
        <time>2021-04-11 09:00:36</time>
      </trkpt>
      <trkpt lat="41.5373" lon="1.90793">
        <ele>156.8</ele>
        <time>2021-04-11 09:00:37</time>
      </trkpt>
      <trkpt lat="41.53733" lon="1.9079">
        <ele>157</ele>
        <time>2021-04-11 09:00:38</time>
      </trkpt>
      <trkpt lat="41.53736" lon="1.90788">
        <ele>157.4</ele>
        <time>2021-04-11 09:00:39</time>
      </trkpt>
      <trkpt lat="41.5374" lon="1.90785">
        <ele>157.6</ele>
        <time>2021-04-11 09:00:40</time>
      </trkpt>
      <trkpt lat="41.53743" lon="1.90782">
        <ele>158</ele>
        <time>2021-04-11 09:00:41</time>
      </trkpt>
      <trkpt lat="41.53747" lon="1.90779">
        <ele>158.2</ele>
        <time>2021-04-11 09:00:42</time>
      </trkpt>
      <trkpt lat="41.5375" lon="1.90775">
        <ele>158.4</ele>
        <time>2021-04-11 09:00:43</time>
      </trkpt>
      <trkpt lat="41.53753" lon="1.90772">
        <ele>158.6</ele>
        <time>2021-04-11 09:00:44</time>
      </trkpt>
      <trkpt lat="41.53755" lon="1.90768">
        <ele>158.8</ele>
        <time>2021-04-11 09:00:45</time>
      </trkpt>
      <trkpt lat="41.53758" lon="1.90763">
        <ele>159</ele>
        <time>2021-04-11 09:00:46</time>
      </trkpt>
      <trkpt lat="41.5376" lon="1.90759">
        <ele>159.2</ele>
        <time>2021-04-11 09:00:47</time>
      </trkpt>
      <trkpt lat="41.53763" lon="1.90755">
        <ele>159.4</ele>
        <time>2021-04-11 09:00:48</time>
      </trkpt>
      <trkpt lat="41.53766" lon="1.9075">
        <ele>159.6</ele>
        <time>2021-04-11 09:00:49</time>
      </trkpt>
      <trkpt lat="41.53768" lon="1.90746">
        <ele>159.6</ele>
        <time>2021-04-11 09:00:50</time>
      </trkpt>
      <trkpt lat="41.5377" lon="1.90741">
        <ele>159.8</ele>
        <time>2021-04-11 09:00:51</time>
      </trkpt>
      <trkpt lat="41.53773" lon="1.90736">
        <ele>160</ele>
        <time>2021-04-11 09:00:52</time>
      </trkpt>
      <trkpt lat="41.53776" lon="1.90732">
        <ele>160</ele>
        <time>2021-04-11 09:00:53</time>
      </trkpt>
      <trkpt lat="41.53778" lon="1.90727">
        <ele>160.2</ele>
        <time>2021-04-11 09:00:54</time>
      </trkpt>
      <trkpt lat="41.5378" lon="1.90722">
        <ele>160.2</ele>
        <time>2021-04-11 09:00:55</time>
      </trkpt>
      <trkpt lat="41.53783" lon="1.90717">
        <ele>160.4</ele>
        <time>2021-04-11 09:00:56</time>
      </trkpt>
      <trkpt lat="41.53785" lon="1.90712">
        <ele>160.4</ele>
        <time>2021-04-11 09:00:57</time>
      </trkpt>
      <trkpt lat="41.53788" lon="1.90706">
        <ele>160.6</ele>
        <time>2021-04-11 09:00:58</time>
      </trkpt>
      <trkpt lat="41.53791" lon="1.90701">
        <ele>160.8</ele>
        <time>2021-04-11 09:00:59</time>
      </trkpt>
      <trkpt lat="41.53793" lon="1.90696">
        <ele>160.8</ele>
        <time>2021-04-11 09:01:00</time>
      </trkpt>
      <trkpt lat="41.53796" lon="1.9069">
        <ele>161</ele>
        <time>2021-04-11 09:01:01</time>
      </trkpt>
      <trkpt lat="41.53799" lon="1.90685">
        <ele>161.2</ele>
        <time>2021-04-11 09:01:02</time>
      </trkpt>
      <trkpt lat="41.53801" lon="1.90679">
        <ele>161.2</ele>
        <time>2021-04-11 09:01:03</time>
      </trkpt>
      <trkpt lat="41.53804" lon="1.90674">
        <ele>161.4</ele>
        <time>2021-04-11 09:01:04</time>
      </trkpt>
      <trkpt lat="41.53807" lon="1.90669">
        <ele>161.4</ele>
        <time>2021-04-11 09:01:05</time>
      </trkpt>
      <trkpt lat="41.5381" lon="1.90663">
        <ele>161.6</ele>
        <time>2021-04-11 09:01:06</time>
      </trkpt>
      <trkpt lat="41.53813" lon="1.90658">
        <ele>161.8</ele>
        <time>2021-04-11 09:01:07</time>
      </trkpt>
      <trkpt lat="41.53815" lon="1.90652">
        <ele>161.8</ele>
        <time>2021-04-11 09:01:08</time>
      </trkpt>
      <trkpt lat="41.53818" lon="1.90647">
        <ele>162</ele>
        <time>2021-04-11 09:01:09</time>
      </trkpt>
      <trkpt lat="41.53821" lon="1.90642">
        <ele>162.2</ele>
        <time>2021-04-11 09:01:10</time>
      </trkpt>
      <trkpt lat="41.53824" lon="1.90636">
        <ele>162.4</ele>
        <time>2021-04-11 09:01:11</time>
      </trkpt>
      <trkpt lat="41.53827" lon="1.90631">
        <ele>162.4</ele>
        <time>2021-04-11 09:01:12</time>
      </trkpt>
      <trkpt lat="41.53829" lon="1.90626">
        <ele>162.6</ele>
        <time>2021-04-11 09:01:13</time>
      </trkpt>
      <trkpt lat="41.53832" lon="1.90621">
        <ele>162.8</ele>
        <time>2021-04-11 09:01:14</time>
      </trkpt>
      <trkpt lat="41.53835" lon="1.90615">
        <ele>163</ele>
        <time>2021-04-11 09:01:15</time>
      </trkpt>
      <trkpt lat="41.53838" lon="1.9061">
        <ele>163</ele>
        <time>2021-04-11 09:01:16</time>
      </trkpt>
      <trkpt lat="41.53841" lon="1.90605">
        <ele>163.2</ele>
        <time>2021-04-11 09:01:17</time>
      </trkpt>
      <trkpt lat="41.53844" lon="1.906">
        <ele>163.4</ele>
        <time>2021-04-11 09:01:18</time>
      </trkpt>
      <trkpt lat="41.53847" lon="1.90594">
        <ele>163.6</ele>
        <time>2021-04-11 09:01:19</time>
      </trkpt>
      <trkpt lat="41.53849" lon="1.90589">
        <ele>163.6</ele>
        <time>2021-04-11 09:01:20</time>
      </trkpt>
      <trkpt lat="41.53852" lon="1.90583">
        <ele>163.8</ele>
        <time>2021-04-11 09:01:21</time>
      </trkpt>
      <trkpt lat="41.53855" lon="1.90578">
        <ele>164</ele>
        <time>2021-04-11 09:01:22</time>
      </trkpt>
      <trkpt lat="41.53858" lon="1.90572">
        <ele>164.2</ele>
        <time>2021-04-11 09:01:23</time>
      </trkpt>
      <trkpt lat="41.53861" lon="1.90567">
        <ele>164.2</ele>
        <time>2021-04-11 09:01:24</time>
      </trkpt>
      <trkpt lat="41.53865" lon="1.90561">
        <ele>164.4</ele>
        <time>2021-04-11 09:01:25</time>
      </trkpt>
      <trkpt lat="41.53868" lon="1.90556">
        <ele>164.6</ele>
        <time>2021-04-11 09:01:26</time>
      </trkpt>
      <trkpt lat="41.5387" lon="1.9055">
        <ele>164.8</ele>
        <time>2021-04-11 09:01:27</time>
      </trkpt>
      <trkpt lat="41.53873" lon="1.90545">
        <ele>165</ele>
        <time>2021-04-11 09:01:28</time>
      </trkpt>
      <trkpt lat="41.53876" lon="1.90539">
        <ele>165.2</ele>
        <time>2021-04-11 09:01:29</time>
      </trkpt>
      <trkpt lat="41.53879" lon="1.90533">
        <ele>165.4</ele>
        <time>2021-04-11 09:01:30</time>
      </trkpt>
      <trkpt lat="41.53881" lon="1.90528">
        <ele>165.6</ele>
        <time>2021-04-11 09:01:31</time>
      </trkpt>
      <trkpt lat="41.53884" lon="1.90522">
        <ele>165.8</ele>
        <time>2021-04-11 09:01:32</time>
      </trkpt>
      <trkpt lat="41.53886" lon="1.90516">
        <ele>165.8</ele>
        <time>2021-04-11 09:01:33</time>
      </trkpt>
      <trkpt lat="41.53887" lon="1.9051">
        <ele>166</ele>
        <time>2021-04-11 09:01:34</time>
      </trkpt>
      <trkpt lat="41.53888" lon="1.90503">
        <ele>166</ele>
        <time>2021-04-11 09:01:35</time>
      </trkpt>
      <trkpt lat="41.53889" lon="1.90496">
        <ele>166</ele>
        <time>2021-04-11 09:01:36</time>
      </trkpt>
      <trkpt lat="41.5389" lon="1.9049">
        <ele>166</ele>
        <time>2021-04-11 09:01:37</time>
      </trkpt>
      <trkpt lat="41.53891" lon="1.90482">
        <ele>166</ele>
        <time>2021-04-11 09:01:38</time>
      </trkpt>
      <trkpt lat="41.53891" lon="1.90476">
        <ele>166</ele>
        <time>2021-04-11 09:01:39</time>
      </trkpt>
      <trkpt lat="41.53892" lon="1.90469">
        <ele>166</ele>
        <time>2021-04-11 09:01:40</time>
      </trkpt>
      <trkpt lat="41.53893" lon="1.90462">
        <ele>166</ele>
        <time>2021-04-11 09:01:41</time>
      </trkpt>
      <trkpt lat="41.53893" lon="1.90455">
        <ele>166</ele>
        <time>2021-04-11 09:01:42</time>
      </trkpt>
      <trkpt lat="41.53893" lon="1.90448">
        <ele>166.2</ele>
        <time>2021-04-11 09:01:43</time>
      </trkpt>
      <trkpt lat="41.53894" lon="1.9044">
        <ele>166.2</ele>
        <time>2021-04-11 09:01:44</time>
      </trkpt>
      <trkpt lat="41.53894" lon="1.90433">
        <ele>166.2</ele>
        <time>2021-04-11 09:01:45</time>
      </trkpt>
      <trkpt lat="41.53895" lon="1.90426">
        <ele>166.2</ele>
        <time>2021-04-11 09:01:46</time>
      </trkpt>
      <trkpt lat="41.53896" lon="1.90419">
        <ele>166.2</ele>
        <time>2021-04-11 09:01:47</time>
      </trkpt>
      <trkpt lat="41.53897" lon="1.90413">
        <ele>166.2</ele>
        <time>2021-04-11 09:01:48</time>
      </trkpt>
      <trkpt lat="41.53898" lon="1.90405">
        <ele>166.2</ele>
        <time>2021-04-11 09:01:49</time>
      </trkpt>
      <trkpt lat="41.53899" lon="1.90398">
        <ele>166.2</ele>
        <time>2021-04-11 09:01:50</time>
      </trkpt>
      <trkpt lat="41.539" lon="1.90391">
        <ele>166.2</ele>
        <time>2021-04-11 09:01:51</time>
      </trkpt>
      <trkpt lat="41.53902" lon="1.90384">
        <ele>166.2</ele>
        <time>2021-04-11 09:01:52</time>
      </trkpt>
      <trkpt lat="41.53903" lon="1.90377">
        <ele>166.2</ele>
        <time>2021-04-11 09:01:53</time>
      </trkpt>
      <trkpt lat="41.53905" lon="1.90369">
        <ele>166.2</ele>
        <time>2021-04-11 09:01:54</time>
      </trkpt>
      <trkpt lat="41.53907" lon="1.90362">
        <ele>166.4</ele>
        <time>2021-04-11 09:01:55</time>
      </trkpt>
      <trkpt lat="41.53909" lon="1.90355">
        <ele>166.4</ele>
        <time>2021-04-11 09:01:56</time>
      </trkpt>
      <trkpt lat="41.53911" lon="1.90349">
        <ele>166.4</ele>
        <time>2021-04-11 09:01:57</time>
      </trkpt>
      <trkpt lat="41.53913" lon="1.90342">
        <ele>166.6</ele>
        <time>2021-04-11 09:01:58</time>
      </trkpt>
      <trkpt lat="41.53916" lon="1.90335">
        <ele>166.6</ele>
        <time>2021-04-11 09:01:59</time>
      </trkpt>
      <trkpt lat="41.53918" lon="1.90328">
        <ele>166.6</ele>
        <time>2021-04-11 09:02:00</time>
      </trkpt>
      <trkpt lat="41.53921" lon="1.90322">
        <ele>166.6</ele>
        <time>2021-04-11 09:02:01</time>
      </trkpt>
      <trkpt lat="41.53924" lon="1.90315">
        <ele>166.6</ele>
        <time>2021-04-11 09:02:02</time>
      </trkpt>
      <trkpt lat="41.53927" lon="1.90308">
        <ele>166.6</ele>
        <time>2021-04-11 09:02:03</time>
      </trkpt>
      <trkpt lat="41.5393" lon="1.90302">
        <ele>166.6</ele>
        <time>2021-04-11 09:02:04</time>
      </trkpt>
      <trkpt lat="41.53934" lon="1.90296">
        <ele>166.6</ele>
        <time>2021-04-11 09:02:05</time>
      </trkpt>
      <trkpt lat="41.53937" lon="1.90289">
        <ele>166.6</ele>
        <time>2021-04-11 09:02:06</time>
      </trkpt>
      <trkpt lat="41.53941" lon="1.90283">
        <ele>166.8</ele>
        <time>2021-04-11 09:02:07</time>
      </trkpt>
      <trkpt lat="41.53945" lon="1.90278">
        <ele>166.8</ele>
        <time>2021-04-11 09:02:08</time>
      </trkpt>
      <trkpt lat="41.53949" lon="1.90272">
        <ele>166.8</ele>
        <time>2021-04-11 09:02:09</time>
      </trkpt>
      <trkpt lat="41.53954" lon="1.90267">
        <ele>166.8</ele>
        <time>2021-04-11 09:02:10</time>
      </trkpt>
      <trkpt lat="41.53959" lon="1.90261">
        <ele>167</ele>
        <time>2021-04-11 09:02:11</time>
      </trkpt>
      <trkpt lat="41.53963" lon="1.90257">
        <ele>167</ele>
        <time>2021-04-11 09:02:12</time>
      </trkpt>
      <trkpt lat="41.53968" lon="1.90252">
        <ele>167</ele>
        <time>2021-04-11 09:02:13</time>
      </trkpt>
      <trkpt lat="41.53973" lon="1.90247">
        <ele>167</ele>
        <time>2021-04-11 09:02:14</time>
      </trkpt>
      <trkpt lat="41.53978" lon="1.90242">
        <ele>167</ele>
        <time>2021-04-11 09:02:15</time>
      </trkpt>
      <trkpt lat="41.53983" lon="1.90237">
        <ele>167</ele>
        <time>2021-04-11 09:02:16</time>
      </trkpt>
      <trkpt lat="41.53988" lon="1.90232">
        <ele>167</ele>
        <time>2021-04-11 09:02:17</time>
      </trkpt>
      <trkpt lat="41.53994" lon="1.90228">
        <ele>167.2</ele>
        <time>2021-04-11 09:02:18</time>
      </trkpt>
      <trkpt lat="41.53999" lon="1.90223">
        <ele>167.2</ele>
        <time>2021-04-11 09:02:19</time>
      </trkpt>
      <trkpt lat="41.54004" lon="1.90218">
        <ele>167.2</ele>
        <time>2021-04-11 09:02:20</time>
      </trkpt>
      <trkpt lat="41.54009" lon="1.90213">
        <ele>167.2</ele>
        <time>2021-04-11 09:02:21</time>
      </trkpt>
      <trkpt lat="41.54014" lon="1.90208">
        <ele>167.2</ele>
        <time>2021-04-11 09:02:22</time>
      </trkpt>
      <trkpt lat="41.54019" lon="1.90203">
        <ele>167.2</ele>
        <time>2021-04-11 09:02:23</time>
      </trkpt>
      <trkpt lat="41.54024" lon="1.90198">
        <ele>167.2</ele>
        <time>2021-04-11 09:02:24</time>
      </trkpt>
      <trkpt lat="41.54029" lon="1.90193">
        <ele>167.2</ele>
        <time>2021-04-11 09:02:25</time>
      </trkpt>
      <trkpt lat="41.54034" lon="1.90187">
        <ele>167.2</ele>
        <time>2021-04-11 09:02:26</time>
      </trkpt>
      <trkpt lat="41.54039" lon="1.90182">
        <ele>167.4</ele>
        <time>2021-04-11 09:02:27</time>
      </trkpt>
      <trkpt lat="41.54045" lon="1.90177">
        <ele>167.4</ele>
        <time>2021-04-11 09:02:28</time>
      </trkpt>
      <trkpt lat="41.5405" lon="1.90172">
        <ele>167.4</ele>
        <time>2021-04-11 09:02:29</time>
      </trkpt>
      <trkpt lat="41.54055" lon="1.90166">
        <ele>167.4</ele>
        <time>2021-04-11 09:02:30</time>
      </trkpt>
      <trkpt lat="41.5406" lon="1.9016">
        <ele>167.6</ele>
        <time>2021-04-11 09:02:31</time>
      </trkpt>
      <trkpt lat="41.54064" lon="1.90154">
        <ele>167.6</ele>
        <time>2021-04-11 09:02:32</time>
      </trkpt>
      <trkpt lat="41.54068" lon="1.90148">
        <ele>167.8</ele>
        <time>2021-04-11 09:02:33</time>
      </trkpt>
      <trkpt lat="41.54071" lon="1.90141">
        <ele>168</ele>
        <time>2021-04-11 09:02:34</time>
      </trkpt>
      <trkpt lat="41.54074" lon="1.90135">
        <ele>168.2</ele>
        <time>2021-04-11 09:02:35</time>
      </trkpt>
      <trkpt lat="41.54077" lon="1.90128">
        <ele>168.4</ele>
        <time>2021-04-11 09:02:36</time>
      </trkpt>
      <trkpt lat="41.5408" lon="1.90122">
        <ele>168.6</ele>
        <time>2021-04-11 09:02:37</time>
      </trkpt>
      <trkpt lat="41.54083" lon="1.90115">
        <ele>168.8</ele>
        <time>2021-04-11 09:02:38</time>
      </trkpt>
      <trkpt lat="41.54085" lon="1.90108">
        <ele>169</ele>
        <time>2021-04-11 09:02:39</time>
      </trkpt>
      <trkpt lat="41.54088" lon="1.90101">
        <ele>169.2</ele>
        <time>2021-04-11 09:02:40</time>
      </trkpt>
      <trkpt lat="41.54089" lon="1.90094">
        <ele>169.6</ele>
        <time>2021-04-11 09:02:41</time>
      </trkpt>
      <trkpt lat="41.54091" lon="1.90087">
        <ele>169.8</ele>
        <time>2021-04-11 09:02:42</time>
      </trkpt>
      <trkpt lat="41.54092" lon="1.9008">
        <ele>170</ele>
        <time>2021-04-11 09:02:43</time>
      </trkpt>
      <trkpt lat="41.54094" lon="1.90073">
        <ele>170.2</ele>
        <time>2021-04-11 09:02:44</time>
      </trkpt>
      <trkpt lat="41.54095" lon="1.90066">
        <ele>170.6</ele>
        <time>2021-04-11 09:02:45</time>
      </trkpt>
      <trkpt lat="41.54096" lon="1.90059">
        <ele>170.8</ele>
        <time>2021-04-11 09:02:46</time>
      </trkpt>
      <trkpt lat="41.54097" lon="1.90053">
        <ele>171</ele>
        <time>2021-04-11 09:02:47</time>
      </trkpt>
      <trkpt lat="41.54098" lon="1.90046">
        <ele>171.2</ele>
        <time>2021-04-11 09:02:48</time>
      </trkpt>
      <trkpt lat="41.541" lon="1.90039">
        <ele>171.4</ele>
        <time>2021-04-11 09:02:49</time>
      </trkpt>
      <trkpt lat="41.54101" lon="1.90033">
        <ele>171.8</ele>
        <time>2021-04-11 09:02:50</time>
      </trkpt>
      <trkpt lat="41.54103" lon="1.90026">
        <ele>172</ele>
        <time>2021-04-11 09:02:51</time>
      </trkpt>
      <trkpt lat="41.54104" lon="1.90019">
        <ele>172.2</ele>
        <time>2021-04-11 09:02:52</time>
      </trkpt>
      <trkpt lat="41.54105" lon="1.90012">
        <ele>172.6</ele>
        <time>2021-04-11 09:02:53</time>
      </trkpt>
      <trkpt lat="41.54107" lon="1.90006">
        <ele>172.8</ele>
        <time>2021-04-11 09:02:54</time>
      </trkpt>
      <trkpt lat="41.54108" lon="1.9">
        <ele>173.2</ele>
        <time>2021-04-11 09:02:55</time>
      </trkpt>
      <trkpt lat="41.5411" lon="1.89995">
        <ele>173.4</ele>
        <time>2021-04-11 09:02:56</time>
      </trkpt>
      <trkpt lat="41.54113" lon="1.89991">
        <ele>173.6</ele>
        <time>2021-04-11 09:02:57</time>
      </trkpt>
      <trkpt lat="41.54117" lon="1.89989">
        <ele>174</ele>
        <time>2021-04-11 09:02:58</time>
      </trkpt>
      <trkpt lat="41.54121" lon="1.89988">
        <ele>174.2</ele>
        <time>2021-04-11 09:02:59</time>
      </trkpt>
      <trkpt lat="41.54125" lon="1.89988">
        <ele>174.4</ele>
        <time>2021-04-11 09:03:00</time>
      </trkpt>
      <trkpt lat="41.54128" lon="1.89988">
        <ele>174.4</ele>
        <time>2021-04-11 09:03:01</time>
      </trkpt>
      <trkpt lat="41.54131" lon="1.89986">
        <ele>174.4</ele>
        <time>2021-04-11 09:03:02</time>
      </trkpt>
      <trkpt lat="41.54133" lon="1.89984">
        <ele>174.6</ele>
        <time>2021-04-11 09:03:03</time>
      </trkpt>
      <trkpt lat="41.54134" lon="1.89982">
        <ele>174.8</ele>
        <time>2021-04-11 09:03:04</time>
      </trkpt>
      <trkpt lat="41.54141" lon="1.89965">
        <ele>175.6</ele>
        <time>2021-04-11 09:09:29</time>
      </trkpt>
      <trkpt lat="41.54143" lon="1.89965">
        <ele>175.6</ele>
        <time>2021-04-11 09:09:30</time>
      </trkpt>
      <trkpt lat="41.54145" lon="1.89965">
        <ele>175.8</ele>
        <time>2021-04-11 09:09:31</time>
      </trkpt>
      <trkpt lat="41.54146" lon="1.89965">
        <ele>176</ele>
        <time>2021-04-11 09:09:32</time>
      </trkpt>
      <trkpt lat="41.54148" lon="1.89965">
        <ele>176.2</ele>
        <time>2021-04-11 09:09:33</time>
      </trkpt>
      <trkpt lat="41.5415" lon="1.89965">
        <ele>176.4</ele>
        <time>2021-04-11 09:09:34</time>
      </trkpt>
      <trkpt lat="41.54152" lon="1.89965">
        <ele>176.6</ele>
        <time>2021-04-11 09:09:35</time>
      </trkpt>
      <trkpt lat="41.54154" lon="1.89965">
        <ele>176.8</ele>
        <time>2021-04-11 09:09:36</time>
      </trkpt>
      <trkpt lat="41.54155" lon="1.89966">
        <ele>177</ele>
        <time>2021-04-11 09:09:37</time>
      </trkpt>
      <trkpt lat="41.54157" lon="1.89966">
        <ele>177.2</ele>
        <time>2021-04-11 09:09:38</time>
      </trkpt>
      <trkpt lat="41.54159" lon="1.89966">
        <ele>177.4</ele>
        <time>2021-04-11 09:09:39</time>
      </trkpt>
      <trkpt lat="41.5416" lon="1.89966">
        <ele>177.6</ele>
        <time>2021-04-11 09:09:40</time>
      </trkpt>
      <trkpt lat="41.54162" lon="1.89967">
        <ele>177.6</ele>
        <time>2021-04-11 09:09:41</time>
      </trkpt>
      <trkpt lat="41.54165" lon="1.89967">
        <ele>177.8</ele>
        <time>2021-04-11 09:09:42</time>
      </trkpt>
      <trkpt lat="41.54167" lon="1.89967">
        <ele>177.8</ele>
        <time>2021-04-11 09:09:43</time>
      </trkpt>
      <trkpt lat="41.54169" lon="1.89967">
        <ele>178</ele>
        <time>2021-04-11 09:09:44</time>
      </trkpt>
      <trkpt lat="41.54171" lon="1.89967">
        <ele>178</ele>
        <time>2021-04-11 09:09:45</time>
      </trkpt>
      <trkpt lat="41.54174" lon="1.89968">
        <ele>178</ele>
        <time>2021-04-11 09:09:46</time>
      </trkpt>
      <trkpt lat="41.54176" lon="1.89968">
        <ele>178.2</ele>
        <time>2021-04-11 09:09:47</time>
      </trkpt>
      <trkpt lat="41.54178" lon="1.89969">
        <ele>178.2</ele>
        <time>2021-04-11 09:09:48</time>
      </trkpt>
      <trkpt lat="41.54182" lon="1.89969">
        <ele>178.4</ele>
        <time>2021-04-11 09:09:49</time>
      </trkpt>
      <trkpt lat="41.54185" lon="1.8997">
        <ele>178.4</ele>
        <time>2021-04-11 09:09:50</time>
      </trkpt>
      <trkpt lat="41.54188" lon="1.89971">
        <ele>178.4</ele>
        <time>2021-04-11 09:09:51</time>
      </trkpt>
      <trkpt lat="41.5419" lon="1.89972">
        <ele>178.6</ele>
        <time>2021-04-11 09:09:52</time>
      </trkpt>
      <trkpt lat="41.54193" lon="1.89973">
        <ele>178.6</ele>
        <time>2021-04-11 09:09:53</time>
      </trkpt>
      <trkpt lat="41.54196" lon="1.89973">
        <ele>178.6</ele>
        <time>2021-04-11 09:09:54</time>
      </trkpt>
      <trkpt lat="41.54198" lon="1.89974">
        <ele>178.8</ele>
        <time>2021-04-11 09:09:55</time>
      </trkpt>
      <trkpt lat="41.54201" lon="1.89975">
        <ele>178.8</ele>
        <time>2021-04-11 09:09:56</time>
      </trkpt>
      <trkpt lat="41.54203" lon="1.89975">
        <ele>179</ele>
        <time>2021-04-11 09:09:57</time>
      </trkpt>
      <trkpt lat="41.54206" lon="1.89976">
        <ele>179</ele>
        <time>2021-04-11 09:09:58</time>
      </trkpt>
      <trkpt lat="41.54208" lon="1.89976">
        <ele>179.2</ele>
        <time>2021-04-11 09:09:59</time>
      </trkpt>
      <trkpt lat="41.5421" lon="1.89976">
        <ele>179.4</ele>
        <time>2021-04-11 09:10:00</time>
      </trkpt>
      <trkpt lat="41.54213" lon="1.89976">
        <ele>179.6</ele>
        <time>2021-04-11 09:10:01</time>
      </trkpt>
      <trkpt lat="41.54215" lon="1.89976">
        <ele>179.8</ele>
        <time>2021-04-11 09:10:02</time>
      </trkpt>
      <trkpt lat="41.54218" lon="1.89976">
        <ele>180</ele>
        <time>2021-04-11 09:10:03</time>
      </trkpt>
      <trkpt lat="41.54221" lon="1.89977">
        <ele>180.2</ele>
        <time>2021-04-11 09:10:04</time>
      </trkpt>
      <trkpt lat="41.54224" lon="1.89977">
        <ele>180.4</ele>
        <time>2021-04-11 09:10:05</time>
      </trkpt>
      <trkpt lat="41.54227" lon="1.89978">
        <ele>180.6</ele>
        <time>2021-04-11 09:10:06</time>
      </trkpt>
      <trkpt lat="41.54231" lon="1.89978">
        <ele>180.8</ele>
        <time>2021-04-11 09:10:07</time>
      </trkpt>
      <trkpt lat="41.54234" lon="1.89979">
        <ele>181.2</ele>
        <time>2021-04-11 09:10:08</time>
      </trkpt>
      <trkpt lat="41.54237" lon="1.89981">
        <ele>181.4</ele>
        <time>2021-04-11 09:10:09</time>
      </trkpt>
      <trkpt lat="41.5424" lon="1.89983">
        <ele>181.6</ele>
        <time>2021-04-11 09:10:10</time>
      </trkpt>
      <trkpt lat="41.54243" lon="1.89986">
        <ele>181.8</ele>
        <time>2021-04-11 09:10:11</time>
      </trkpt>
      <trkpt lat="41.54246" lon="1.89989">
        <ele>182</ele>
        <time>2021-04-11 09:10:12</time>
      </trkpt>
      <trkpt lat="41.54248" lon="1.89992">
        <ele>182.2</ele>
        <time>2021-04-11 09:10:13</time>
      </trkpt>
      <trkpt lat="41.5425" lon="1.89996">
        <ele>182.4</ele>
        <time>2021-04-11 09:10:14</time>
      </trkpt>
      <trkpt lat="41.54253" lon="1.89998">
        <ele>182.6</ele>
        <time>2021-04-11 09:10:15</time>
      </trkpt>
      <trkpt lat="41.54255" lon="1.90001">
        <ele>182.8</ele>
        <time>2021-04-11 09:10:16</time>
      </trkpt>
      <trkpt lat="41.54257" lon="1.90004">
        <ele>183</ele>
        <time>2021-04-11 09:10:17</time>
      </trkpt>
      <trkpt lat="41.54259" lon="1.90007">
        <ele>183.2</ele>
        <time>2021-04-11 09:10:18</time>
      </trkpt>
      <trkpt lat="41.54262" lon="1.9001">
        <ele>183.4</ele>
        <time>2021-04-11 09:10:19</time>
      </trkpt>
      <trkpt lat="41.54264" lon="1.90013">
        <ele>183.6</ele>
        <time>2021-04-11 09:10:20</time>
      </trkpt>
      <trkpt lat="41.54266" lon="1.90015">
        <ele>183.8</ele>
        <time>2021-04-11 09:10:21</time>
      </trkpt>
      <trkpt lat="41.54268" lon="1.90018">
        <ele>184</ele>
        <time>2021-04-11 09:10:22</time>
      </trkpt>
      <trkpt lat="41.5427" lon="1.9002">
        <ele>184.2</ele>
        <time>2021-04-11 09:10:23</time>
      </trkpt>
      <trkpt lat="41.54273" lon="1.90022">
        <ele>184.6</ele>
        <time>2021-04-11 09:10:24</time>
      </trkpt>
      <trkpt lat="41.54274" lon="1.90025">
        <ele>184.8</ele>
        <time>2021-04-11 09:10:25</time>
      </trkpt>
      <trkpt lat="41.54277" lon="1.90028">
        <ele>185</ele>
        <time>2021-04-11 09:10:26</time>
      </trkpt>
      <trkpt lat="41.54279" lon="1.90031">
        <ele>185.2</ele>
        <time>2021-04-11 09:10:27</time>
      </trkpt>
      <trkpt lat="41.54282" lon="1.90033">
        <ele>185.4</ele>
        <time>2021-04-11 09:10:28</time>
      </trkpt>
      <trkpt lat="41.54284" lon="1.90036">
        <ele>185.6</ele>
        <time>2021-04-11 09:10:29</time>
      </trkpt>
      <trkpt lat="41.54287" lon="1.90038">
        <ele>185.8</ele>
        <time>2021-04-11 09:10:30</time>
      </trkpt>
      <trkpt lat="41.54289" lon="1.90041">
        <ele>186</ele>
        <time>2021-04-11 09:10:31</time>
      </trkpt>
      <trkpt lat="41.54291" lon="1.90044">
        <ele>186.4</ele>
        <time>2021-04-11 09:10:32</time>
      </trkpt>
      <trkpt lat="41.54293" lon="1.90046">
        <ele>186.6</ele>
        <time>2021-04-11 09:10:33</time>
      </trkpt>
      <trkpt lat="41.54295" lon="1.90048">
        <ele>187</ele>
        <time>2021-04-11 09:10:34</time>
      </trkpt>
      <trkpt lat="41.54297" lon="1.90051">
        <ele>187.2</ele>
        <time>2021-04-11 09:10:35</time>
      </trkpt>
      <trkpt lat="41.54298" lon="1.90054">
        <ele>187.6</ele>
        <time>2021-04-11 09:10:36</time>
      </trkpt>
      <trkpt lat="41.543" lon="1.90056">
        <ele>187.8</ele>
        <time>2021-04-11 09:10:37</time>
      </trkpt>
      <trkpt lat="41.54302" lon="1.90058">
        <ele>188.2</ele>
        <time>2021-04-11 09:10:38</time>
      </trkpt>
      <trkpt lat="41.54303" lon="1.90061">
        <ele>188.4</ele>
        <time>2021-04-11 09:10:39</time>
      </trkpt>
      <trkpt lat="41.54305" lon="1.90063">
        <ele>188.8</ele>
        <time>2021-04-11 09:10:40</time>
      </trkpt>
      <trkpt lat="41.54307" lon="1.90065">
        <ele>189</ele>
        <time>2021-04-11 09:10:41</time>
      </trkpt>
      <trkpt lat="41.54309" lon="1.90067">
        <ele>189.4</ele>
        <time>2021-04-11 09:10:42</time>
      </trkpt>
      <trkpt lat="41.54311" lon="1.90069">
        <ele>189.6</ele>
        <time>2021-04-11 09:10:43</time>
      </trkpt>
      <trkpt lat="41.54313" lon="1.90071">
        <ele>189.8</ele>
        <time>2021-04-11 09:10:44</time>
      </trkpt>
      <trkpt lat="41.54314" lon="1.90074">
        <ele>190.2</ele>
        <time>2021-04-11 09:10:45</time>
      </trkpt>
      <trkpt lat="41.54315" lon="1.90076">
        <ele>190.4</ele>
        <time>2021-04-11 09:10:46</time>
      </trkpt>
      <trkpt lat="41.54317" lon="1.90078">
        <ele>190.6</ele>
        <time>2021-04-11 09:10:47</time>
      </trkpt>
      <trkpt lat="41.54318" lon="1.90079">
        <ele>191</ele>
        <time>2021-04-11 09:10:48</time>
      </trkpt>
      <trkpt lat="41.5432" lon="1.9008">
        <ele>191.2</ele>
        <time>2021-04-11 09:10:49</time>
      </trkpt>
      <trkpt lat="41.54322" lon="1.90082">
        <ele>191.4</ele>
        <time>2021-04-11 09:10:50</time>
      </trkpt>
      <trkpt lat="41.54324" lon="1.90083">
        <ele>191.6</ele>
        <time>2021-04-11 09:10:51</time>
      </trkpt>
      <trkpt lat="41.54326" lon="1.90084">
        <ele>191.8</ele>
        <time>2021-04-11 09:10:52</time>
      </trkpt>
      <trkpt lat="41.54327" lon="1.90084">
        <ele>192</ele>
        <time>2021-04-11 09:10:53</time>
      </trkpt>
      <trkpt lat="41.54329" lon="1.90084">
        <ele>192.2</ele>
        <time>2021-04-11 09:10:54</time>
      </trkpt>
      <trkpt lat="41.54331" lon="1.90083">
        <ele>192.6</ele>
        <time>2021-04-11 09:10:55</time>
      </trkpt>
      <trkpt lat="41.54333" lon="1.90082">
        <ele>192.8</ele>
        <time>2021-04-11 09:10:56</time>
      </trkpt>
      <trkpt lat="41.54335" lon="1.90081">
        <ele>193</ele>
        <time>2021-04-11 09:10:57</time>
      </trkpt>
      <trkpt lat="41.54337" lon="1.90081">
        <ele>193.2</ele>
        <time>2021-04-11 09:10:58</time>
      </trkpt>
      <trkpt lat="41.54339" lon="1.9008">
        <ele>193.4</ele>
        <time>2021-04-11 09:10:59</time>
      </trkpt>
      <trkpt lat="41.54341" lon="1.90079">
        <ele>193.6</ele>
        <time>2021-04-11 09:11:00</time>
      </trkpt>
      <trkpt lat="41.54343" lon="1.90077">
        <ele>194</ele>
        <time>2021-04-11 09:11:01</time>
      </trkpt>
      <trkpt lat="41.54345" lon="1.90074">
        <ele>194.2</ele>
        <time>2021-04-11 09:11:02</time>
      </trkpt>
      <trkpt lat="41.54347" lon="1.90072">
        <ele>194.4</ele>
        <time>2021-04-11 09:11:03</time>
      </trkpt>
      <trkpt lat="41.5435" lon="1.9007">
        <ele>194.6</ele>
        <time>2021-04-11 09:11:04</time>
      </trkpt>
      <trkpt lat="41.54352" lon="1.90068">
        <ele>194.8</ele>
        <time>2021-04-11 09:11:05</time>
      </trkpt>
      <trkpt lat="41.54353" lon="1.90065">
        <ele>195</ele>
        <time>2021-04-11 09:11:06</time>
      </trkpt>
      <trkpt lat="41.54355" lon="1.90063">
        <ele>195.2</ele>
        <time>2021-04-11 09:11:07</time>
      </trkpt>
      <trkpt lat="41.54358" lon="1.90059">
        <ele>195.4</ele>
        <time>2021-04-11 09:11:08</time>
      </trkpt>
      <trkpt lat="41.5436" lon="1.90057">
        <ele>195.6</ele>
        <time>2021-04-11 09:11:09</time>
      </trkpt>
      <trkpt lat="41.54363" lon="1.90054">
        <ele>195.8</ele>
        <time>2021-04-11 09:11:10</time>
      </trkpt>
      <trkpt lat="41.54365" lon="1.90052">
        <ele>196</ele>
        <time>2021-04-11 09:11:11</time>
      </trkpt>
      <trkpt lat="41.54368" lon="1.90049">
        <ele>196.2</ele>
        <time>2021-04-11 09:11:12</time>
      </trkpt>
      <trkpt lat="41.5437" lon="1.90047">
        <ele>196.4</ele>
        <time>2021-04-11 09:11:13</time>
      </trkpt>
      <trkpt lat="41.54372" lon="1.90045">
        <ele>196.6</ele>
        <time>2021-04-11 09:11:14</time>
      </trkpt>
      <trkpt lat="41.54375" lon="1.90043">
        <ele>196.8</ele>
        <time>2021-04-11 09:11:15</time>
      </trkpt>
      <trkpt lat="41.54377" lon="1.90042">
        <ele>197</ele>
        <time>2021-04-11 09:11:16</time>
      </trkpt>
      <trkpt lat="41.54379" lon="1.9004">
        <ele>197.2</ele>
        <time>2021-04-11 09:11:17</time>
      </trkpt>
      <trkpt lat="41.54382" lon="1.90038">
        <ele>197.4</ele>
        <time>2021-04-11 09:11:18</time>
      </trkpt>
      <trkpt lat="41.54384" lon="1.90037">
        <ele>197.6</ele>
        <time>2021-04-11 09:11:19</time>
      </trkpt>
      <trkpt lat="41.54387" lon="1.90035">
        <ele>197.6</ele>
        <time>2021-04-11 09:11:20</time>
      </trkpt>
      <trkpt lat="41.54389" lon="1.90034">
        <ele>197.8</ele>
        <time>2021-04-11 09:11:21</time>
      </trkpt>
      <trkpt lat="41.54392" lon="1.90033">
        <ele>198</ele>
        <time>2021-04-11 09:11:22</time>
      </trkpt>
      <trkpt lat="41.54394" lon="1.90033">
        <ele>198.2</ele>
        <time>2021-04-11 09:11:23</time>
      </trkpt>
      <trkpt lat="41.54397" lon="1.90034">
        <ele>198.6</ele>
        <time>2021-04-11 09:11:24</time>
      </trkpt>
      <trkpt lat="41.54398" lon="1.90036">
        <ele>198.8</ele>
        <time>2021-04-11 09:11:25</time>
      </trkpt>
      <trkpt lat="41.544" lon="1.90039">
        <ele>199</ele>
        <time>2021-04-11 09:11:26</time>
      </trkpt>
      <trkpt lat="41.544" lon="1.90043">
        <ele>199.2</ele>
        <time>2021-04-11 09:11:27</time>
      </trkpt>
      <trkpt lat="41.544" lon="1.90046">
        <ele>199.4</ele>
        <time>2021-04-11 09:11:28</time>
      </trkpt>
      <trkpt lat="41.544" lon="1.9005">
        <ele>199.6</ele>
        <time>2021-04-11 09:11:29</time>
      </trkpt>
      <trkpt lat="41.54399" lon="1.90053">
        <ele>199.8</ele>
        <time>2021-04-11 09:11:30</time>
      </trkpt>
      <trkpt lat="41.54399" lon="1.90057">
        <ele>200</ele>
        <time>2021-04-11 09:11:31</time>
      </trkpt>
      <trkpt lat="41.54399" lon="1.9006">
        <ele>200.2</ele>
        <time>2021-04-11 09:11:32</time>
      </trkpt>
      <trkpt lat="41.54399" lon="1.90064">
        <ele>200.4</ele>
        <time>2021-04-11 09:11:33</time>
      </trkpt>
      <trkpt lat="41.54398" lon="1.90067">
        <ele>200.6</ele>
        <time>2021-04-11 09:11:34</time>
      </trkpt>
      <trkpt lat="41.54398" lon="1.90071">
        <ele>200.8</ele>
        <time>2021-04-11 09:11:35</time>
      </trkpt>
      <trkpt lat="41.54397" lon="1.90074">
        <ele>201</ele>
        <time>2021-04-11 09:11:36</time>
      </trkpt>
      <trkpt lat="41.54396" lon="1.90078">
        <ele>201.2</ele>
        <time>2021-04-11 09:11:37</time>
      </trkpt>
      <trkpt lat="41.54396" lon="1.90081">
        <ele>201.4</ele>
        <time>2021-04-11 09:11:38</time>
      </trkpt>
      <trkpt lat="41.54395" lon="1.90084">
        <ele>201.6</ele>
        <time>2021-04-11 09:11:39</time>
      </trkpt>
      <trkpt lat="41.54394" lon="1.90088">
        <ele>201.6</ele>
        <time>2021-04-11 09:11:40</time>
      </trkpt>
      <trkpt lat="41.54393" lon="1.90091">
        <ele>201.8</ele>
        <time>2021-04-11 09:11:41</time>
      </trkpt>
      <trkpt lat="41.54392" lon="1.90095">
        <ele>202.2</ele>
        <time>2021-04-11 09:11:42</time>
      </trkpt>
      <trkpt lat="41.54391" lon="1.90098">
        <ele>202.4</ele>
        <time>2021-04-11 09:11:43</time>
      </trkpt>
      <trkpt lat="41.5439" lon="1.90101">
        <ele>202.6</ele>
        <time>2021-04-11 09:11:44</time>
      </trkpt>
      <trkpt lat="41.54389" lon="1.90105">
        <ele>202.8</ele>
        <time>2021-04-11 09:11:45</time>
      </trkpt>
      <trkpt lat="41.54389" lon="1.90108">
        <ele>203</ele>
        <time>2021-04-11 09:11:46</time>
      </trkpt>
      <trkpt lat="41.54388" lon="1.90112">
        <ele>203.2</ele>
        <time>2021-04-11 09:11:47</time>
      </trkpt>
      <trkpt lat="41.54388" lon="1.90115">
        <ele>203.4</ele>
        <time>2021-04-11 09:11:48</time>
      </trkpt>
      <trkpt lat="41.54388" lon="1.90119">
        <ele>203.6</ele>
        <time>2021-04-11 09:11:49</time>
      </trkpt>
      <trkpt lat="41.54388" lon="1.90123">
        <ele>203.8</ele>
        <time>2021-04-11 09:11:50</time>
      </trkpt>
      <trkpt lat="41.54388" lon="1.90126">
        <ele>204</ele>
        <time>2021-04-11 09:11:51</time>
      </trkpt>
      <trkpt lat="41.54388" lon="1.9013">
        <ele>204.2</ele>
        <time>2021-04-11 09:11:52</time>
      </trkpt>
      <trkpt lat="41.54389" lon="1.90134">
        <ele>204.4</ele>
        <time>2021-04-11 09:11:53</time>
      </trkpt>
      <trkpt lat="41.54389" lon="1.90138">
        <ele>204.6</ele>
        <time>2021-04-11 09:11:54</time>
      </trkpt>
      <trkpt lat="41.5439" lon="1.90141">
        <ele>204.8</ele>
        <time>2021-04-11 09:11:55</time>
      </trkpt>
      <trkpt lat="41.54391" lon="1.90145">
        <ele>205</ele>
        <time>2021-04-11 09:11:56</time>
      </trkpt>
      <trkpt lat="41.54392" lon="1.90149">
        <ele>205.2</ele>
        <time>2021-04-11 09:11:57</time>
      </trkpt>
      <trkpt lat="41.54393" lon="1.90152">
        <ele>205.4</ele>
        <time>2021-04-11 09:11:58</time>
      </trkpt>
      <trkpt lat="41.54395" lon="1.90156">
        <ele>205.6</ele>
        <time>2021-04-11 09:11:59</time>
      </trkpt>
      <trkpt lat="41.54396" lon="1.90159">
        <ele>205.8</ele>
        <time>2021-04-11 09:12:00</time>
      </trkpt>
      <trkpt lat="41.54398" lon="1.90162">
        <ele>206</ele>
        <time>2021-04-11 09:12:01</time>
      </trkpt>
      <trkpt lat="41.544" lon="1.90165">
        <ele>206.2</ele>
        <time>2021-04-11 09:12:02</time>
      </trkpt>
      <trkpt lat="41.54402" lon="1.90168">
        <ele>206.2</ele>
        <time>2021-04-11 09:12:03</time>
      </trkpt>
      <trkpt lat="41.54403" lon="1.90171">
        <ele>206.6</ele>
        <time>2021-04-11 09:12:04</time>
      </trkpt>
      <trkpt lat="41.54405" lon="1.90174">
        <ele>206.8</ele>
        <time>2021-04-11 09:12:05</time>
      </trkpt>
      <trkpt lat="41.54407" lon="1.90177">
        <ele>207</ele>
        <time>2021-04-11 09:12:06</time>
      </trkpt>
      <trkpt lat="41.54409" lon="1.90179">
        <ele>207.2</ele>
        <time>2021-04-11 09:12:07</time>
      </trkpt>
      <trkpt lat="41.54411" lon="1.90182">
        <ele>207.2</ele>
        <time>2021-04-11 09:12:08</time>
      </trkpt>
      <trkpt lat="41.54413" lon="1.90185">
        <ele>207.4</ele>
        <time>2021-04-11 09:12:09</time>
      </trkpt>
      <trkpt lat="41.54416" lon="1.90188">
        <ele>207.6</ele>
        <time>2021-04-11 09:12:10</time>
      </trkpt>
      <trkpt lat="41.54418" lon="1.90191">
        <ele>207.8</ele>
        <time>2021-04-11 09:12:11</time>
      </trkpt>
      <trkpt lat="41.5442" lon="1.90193">
        <ele>208</ele>
        <time>2021-04-11 09:12:12</time>
      </trkpt>
      <trkpt lat="41.54422" lon="1.90196">
        <ele>208.2</ele>
        <time>2021-04-11 09:12:13</time>
      </trkpt>
      <trkpt lat="41.54424" lon="1.90199">
        <ele>208.4</ele>
        <time>2021-04-11 09:12:14</time>
      </trkpt>
      <trkpt lat="41.54426" lon="1.90201">
        <ele>208.6</ele>
        <time>2021-04-11 09:12:15</time>
      </trkpt>
      <trkpt lat="41.54429" lon="1.90204">
        <ele>208.8</ele>
        <time>2021-04-11 09:12:16</time>
      </trkpt>
      <trkpt lat="41.54431" lon="1.90207">
        <ele>209</ele>
        <time>2021-04-11 09:12:17</time>
      </trkpt>
      <trkpt lat="41.54433" lon="1.90209">
        <ele>209.2</ele>
        <time>2021-04-11 09:12:18</time>
      </trkpt>
      <trkpt lat="41.54435" lon="1.90212">
        <ele>209.4</ele>
        <time>2021-04-11 09:12:19</time>
      </trkpt>
      <trkpt lat="41.54437" lon="1.90214">
        <ele>209.6</ele>
        <time>2021-04-11 09:12:20</time>
      </trkpt>
      <trkpt lat="41.54439" lon="1.90217">
        <ele>209.8</ele>
        <time>2021-04-11 09:12:21</time>
      </trkpt>
      <trkpt lat="41.54442" lon="1.9022">
        <ele>210</ele>
        <time>2021-04-11 09:12:22</time>
      </trkpt>
      <trkpt lat="41.54444" lon="1.90223">
        <ele>210.2</ele>
        <time>2021-04-11 09:12:23</time>
      </trkpt>
      <trkpt lat="41.54446" lon="1.90226">
        <ele>210.4</ele>
        <time>2021-04-11 09:12:24</time>
      </trkpt>
      <trkpt lat="41.54447" lon="1.90229">
        <ele>210.6</ele>
        <time>2021-04-11 09:12:25</time>
      </trkpt>
      <trkpt lat="41.54448" lon="1.90232">
        <ele>210.8</ele>
        <time>2021-04-11 09:12:26</time>
      </trkpt>
      <trkpt lat="41.5445" lon="1.90236">
        <ele>211</ele>
        <time>2021-04-11 09:12:27</time>
      </trkpt>
      <trkpt lat="41.54451" lon="1.90239">
        <ele>211.2</ele>
        <time>2021-04-11 09:12:28</time>
      </trkpt>
      <trkpt lat="41.54452" lon="1.90243">
        <ele>211.4</ele>
        <time>2021-04-11 09:12:29</time>
      </trkpt>
      <trkpt lat="41.54453" lon="1.90247">
        <ele>211.6</ele>
        <time>2021-04-11 09:12:30</time>
      </trkpt>
      <trkpt lat="41.54454" lon="1.90251">
        <ele>211.8</ele>
        <time>2021-04-11 09:12:31</time>
      </trkpt>
      <trkpt lat="41.54455" lon="1.90255">
        <ele>212</ele>
        <time>2021-04-11 09:12:32</time>
      </trkpt>
      <trkpt lat="41.54455" lon="1.90259">
        <ele>212.2</ele>
        <time>2021-04-11 09:12:33</time>
      </trkpt>
      <trkpt lat="41.54456" lon="1.90263">
        <ele>212.4</ele>
        <time>2021-04-11 09:12:34</time>
      </trkpt>
      <trkpt lat="41.54456" lon="1.90267">
        <ele>212.6</ele>
        <time>2021-04-11 09:12:35</time>
      </trkpt>
      <trkpt lat="41.54456" lon="1.90271">
        <ele>212.8</ele>
        <time>2021-04-11 09:12:36</time>
      </trkpt>
      <trkpt lat="41.54456" lon="1.90275">
        <ele>213</ele>
        <time>2021-04-11 09:12:37</time>
      </trkpt>
      <trkpt lat="41.54456" lon="1.90279">
        <ele>213.2</ele>
        <time>2021-04-11 09:12:38</time>
      </trkpt>
      <trkpt lat="41.54456" lon="1.90283">
        <ele>213.6</ele>
        <time>2021-04-11 09:12:39</time>
      </trkpt>
      <trkpt lat="41.54456" lon="1.90287">
        <ele>213.8</ele>
        <time>2021-04-11 09:12:40</time>
      </trkpt>
      <trkpt lat="41.54456" lon="1.9029">
        <ele>214</ele>
        <time>2021-04-11 09:12:41</time>
      </trkpt>
      <trkpt lat="41.54456" lon="1.90293">
        <ele>214.4</ele>
        <time>2021-04-11 09:12:42</time>
      </trkpt>
      <trkpt lat="41.54456" lon="1.90297">
        <ele>214.6</ele>
        <time>2021-04-11 09:12:43</time>
      </trkpt>
      <trkpt lat="41.54456" lon="1.90301">
        <ele>214.8</ele>
        <time>2021-04-11 09:12:44</time>
      </trkpt>
      <trkpt lat="41.54456" lon="1.90304">
        <ele>215.2</ele>
        <time>2021-04-11 09:12:45</time>
      </trkpt>
      <trkpt lat="41.54456" lon="1.90308">
        <ele>215.4</ele>
        <time>2021-04-11 09:12:46</time>
      </trkpt>
      <trkpt lat="41.54457" lon="1.90312">
        <ele>215.6</ele>
        <time>2021-04-11 09:12:47</time>
      </trkpt>
      <trkpt lat="41.54458" lon="1.90316">
        <ele>215.8</ele>
        <time>2021-04-11 09:12:48</time>
      </trkpt>
      <trkpt lat="41.54459" lon="1.9032">
        <ele>216</ele>
        <time>2021-04-11 09:12:49</time>
      </trkpt>
      <trkpt lat="41.5446" lon="1.90323">
        <ele>216.2</ele>
        <time>2021-04-11 09:12:50</time>
      </trkpt>
      <trkpt lat="41.54462" lon="1.90327">
        <ele>216.6</ele>
        <time>2021-04-11 09:12:51</time>
      </trkpt>
      <trkpt lat="41.54463" lon="1.9033">
        <ele>216.8</ele>
        <time>2021-04-11 09:12:52</time>
      </trkpt>
      <trkpt lat="41.54465" lon="1.90333">
        <ele>217</ele>
        <time>2021-04-11 09:12:53</time>
      </trkpt>
      <trkpt lat="41.54468" lon="1.90336">
        <ele>217.2</ele>
        <time>2021-04-11 09:12:54</time>
      </trkpt>
      <trkpt lat="41.5447" lon="1.90339">
        <ele>217.4</ele>
        <time>2021-04-11 09:12:55</time>
      </trkpt>
      <trkpt lat="41.54472" lon="1.90341">
        <ele>217.6</ele>
        <time>2021-04-11 09:12:56</time>
      </trkpt>
      <trkpt lat="41.54475" lon="1.90344">
        <ele>217.8</ele>
        <time>2021-04-11 09:12:57</time>
      </trkpt>
      <trkpt lat="41.54477" lon="1.90346">
        <ele>218</ele>
        <time>2021-04-11 09:12:58</time>
      </trkpt>
      <trkpt lat="41.54479" lon="1.90348">
        <ele>218.2</ele>
        <time>2021-04-11 09:12:59</time>
      </trkpt>
      <trkpt lat="41.54482" lon="1.9035">
        <ele>218.4</ele>
        <time>2021-04-11 09:13:00</time>
      </trkpt>
      <trkpt lat="41.54485" lon="1.90352">
        <ele>218.6</ele>
        <time>2021-04-11 09:13:01</time>
      </trkpt>
      <trkpt lat="41.54488" lon="1.90354">
        <ele>218.8</ele>
        <time>2021-04-11 09:13:02</time>
      </trkpt>
      <trkpt lat="41.5449" lon="1.90356">
        <ele>219</ele>
        <time>2021-04-11 09:13:03</time>
      </trkpt>
      <trkpt lat="41.54493" lon="1.90358">
        <ele>219.2</ele>
        <time>2021-04-11 09:13:04</time>
      </trkpt>
      <trkpt lat="41.54496" lon="1.9036">
        <ele>219.4</ele>
        <time>2021-04-11 09:13:05</time>
      </trkpt>
      <trkpt lat="41.54499" lon="1.90361">
        <ele>219.8</ele>
        <time>2021-04-11 09:13:06</time>
      </trkpt>
      <trkpt lat="41.54502" lon="1.90363">
        <ele>220</ele>
        <time>2021-04-11 09:13:07</time>
      </trkpt>
      <trkpt lat="41.54504" lon="1.90365">
        <ele>220.2</ele>
        <time>2021-04-11 09:13:08</time>
      </trkpt>
      <trkpt lat="41.54507" lon="1.90367">
        <ele>220.4</ele>
        <time>2021-04-11 09:13:09</time>
      </trkpt>
      <trkpt lat="41.5451" lon="1.90368">
        <ele>220.6</ele>
        <time>2021-04-11 09:13:10</time>
      </trkpt>
      <trkpt lat="41.54512" lon="1.9037">
        <ele>220.8</ele>
        <time>2021-04-11 09:13:11</time>
      </trkpt>
      <trkpt lat="41.54514" lon="1.90371">
        <ele>221</ele>
        <time>2021-04-11 09:13:12</time>
      </trkpt>
      <trkpt lat="41.54517" lon="1.90373">
        <ele>221.2</ele>
        <time>2021-04-11 09:13:13</time>
      </trkpt>
      <trkpt lat="41.5452" lon="1.90374">
        <ele>221.4</ele>
        <time>2021-04-11 09:13:14</time>
      </trkpt>
      <trkpt lat="41.54523" lon="1.90376">
        <ele>221.6</ele>
        <time>2021-04-11 09:13:15</time>
      </trkpt>
      <trkpt lat="41.54526" lon="1.90377">
        <ele>221.8</ele>
        <time>2021-04-11 09:13:16</time>
      </trkpt>
      <trkpt lat="41.54529" lon="1.90378">
        <ele>222</ele>
        <time>2021-04-11 09:13:17</time>
      </trkpt>
      <trkpt lat="41.54532" lon="1.90379">
        <ele>222.2</ele>
        <time>2021-04-11 09:13:18</time>
      </trkpt>
      <trkpt lat="41.54535" lon="1.9038">
        <ele>222.4</ele>
        <time>2021-04-11 09:13:19</time>
      </trkpt>
      <trkpt lat="41.54538" lon="1.90381">
        <ele>222.6</ele>
        <time>2021-04-11 09:13:20</time>
      </trkpt>
      <trkpt lat="41.54541" lon="1.90382">
        <ele>223</ele>
        <time>2021-04-11 09:13:21</time>
      </trkpt>
      <trkpt lat="41.54544" lon="1.90383">
        <ele>223.2</ele>
        <time>2021-04-11 09:13:22</time>
      </trkpt>
      <trkpt lat="41.54547" lon="1.90384">
        <ele>223.4</ele>
        <time>2021-04-11 09:13:23</time>
      </trkpt>
      <trkpt lat="41.5455" lon="1.90385">
        <ele>223.4</ele>
        <time>2021-04-11 09:13:24</time>
      </trkpt>
      <trkpt lat="41.54553" lon="1.90386">
        <ele>223.6</ele>
        <time>2021-04-11 09:13:25</time>
      </trkpt>
      <trkpt lat="41.54556" lon="1.90387">
        <ele>223.8</ele>
        <time>2021-04-11 09:13:26</time>
      </trkpt>
      <trkpt lat="41.54559" lon="1.90387">
        <ele>224.2</ele>
        <time>2021-04-11 09:13:27</time>
      </trkpt>
      <trkpt lat="41.54562" lon="1.90388">
        <ele>224.4</ele>
        <time>2021-04-11 09:13:28</time>
      </trkpt>
      <trkpt lat="41.54565" lon="1.90388">
        <ele>224.6</ele>
        <time>2021-04-11 09:13:29</time>
      </trkpt>
      <trkpt lat="41.54568" lon="1.90389">
        <ele>224.8</ele>
        <time>2021-04-11 09:13:30</time>
      </trkpt>
      <trkpt lat="41.54571" lon="1.90389">
        <ele>225</ele>
        <time>2021-04-11 09:13:31</time>
      </trkpt>
      <trkpt lat="41.54574" lon="1.9039">
        <ele>225.2</ele>
        <time>2021-04-11 09:13:32</time>
      </trkpt>
      <trkpt lat="41.54577" lon="1.9039">
        <ele>225.4</ele>
        <time>2021-04-11 09:13:33</time>
      </trkpt>
      <trkpt lat="41.54581" lon="1.9039">
        <ele>225.6</ele>
        <time>2021-04-11 09:13:34</time>
      </trkpt>
      <trkpt lat="41.54583" lon="1.9039">
        <ele>225.8</ele>
        <time>2021-04-11 09:13:35</time>
      </trkpt>
      <trkpt lat="41.54587" lon="1.9039">
        <ele>226</ele>
        <time>2021-04-11 09:13:36</time>
      </trkpt>
      <trkpt lat="41.5459" lon="1.9039">
        <ele>226.2</ele>
        <time>2021-04-11 09:13:37</time>
      </trkpt>
      <trkpt lat="41.54593" lon="1.9039">
        <ele>226.4</ele>
        <time>2021-04-11 09:13:38</time>
      </trkpt>
      <trkpt lat="41.54596" lon="1.90389">
        <ele>226.6</ele>
        <time>2021-04-11 09:13:39</time>
      </trkpt>
      <trkpt lat="41.54599" lon="1.90389">
        <ele>226.8</ele>
        <time>2021-04-11 09:13:40</time>
      </trkpt>
      <trkpt lat="41.54602" lon="1.90388">
        <ele>227</ele>
        <time>2021-04-11 09:13:41</time>
      </trkpt>
      <trkpt lat="41.54605" lon="1.90388">
        <ele>227.4</ele>
        <time>2021-04-11 09:13:42</time>
      </trkpt>
      <trkpt lat="41.54608" lon="1.90388">
        <ele>227.6</ele>
        <time>2021-04-11 09:13:43</time>
      </trkpt>
      <trkpt lat="41.54611" lon="1.90388">
        <ele>227.8</ele>
        <time>2021-04-11 09:13:44</time>
      </trkpt>
      <trkpt lat="41.54614" lon="1.90387">
        <ele>228</ele>
        <time>2021-04-11 09:13:45</time>
      </trkpt>
      <trkpt lat="41.54617" lon="1.90387">
        <ele>228.2</ele>
        <time>2021-04-11 09:13:46</time>
      </trkpt>
      <trkpt lat="41.5462" lon="1.90386">
        <ele>228.4</ele>
        <time>2021-04-11 09:13:47</time>
      </trkpt>
      <trkpt lat="41.54623" lon="1.90386">
        <ele>228.6</ele>
        <time>2021-04-11 09:13:48</time>
      </trkpt>
      <trkpt lat="41.54626" lon="1.90386">
        <ele>228.8</ele>
        <time>2021-04-11 09:13:49</time>
      </trkpt>
      <trkpt lat="41.54629" lon="1.90386">
        <ele>229</ele>
        <time>2021-04-11 09:13:50</time>
      </trkpt>
      <trkpt lat="41.54632" lon="1.90386">
        <ele>229.2</ele>
        <time>2021-04-11 09:13:51</time>
      </trkpt>
      <trkpt lat="41.54636" lon="1.90386">
        <ele>229.4</ele>
        <time>2021-04-11 09:13:52</time>
      </trkpt>
      <trkpt lat="41.54639" lon="1.90387">
        <ele>229.6</ele>
        <time>2021-04-11 09:13:53</time>
      </trkpt>
      <trkpt lat="41.54642" lon="1.90388">
        <ele>229.8</ele>
        <time>2021-04-11 09:13:54</time>
      </trkpt>
      <trkpt lat="41.54645" lon="1.90389">
        <ele>230</ele>
        <time>2021-04-11 09:13:55</time>
      </trkpt>
      <trkpt lat="41.54648" lon="1.9039">
        <ele>230.2</ele>
        <time>2021-04-11 09:13:56</time>
      </trkpt>
      <trkpt lat="41.54651" lon="1.90392">
        <ele>230.4</ele>
        <time>2021-04-11 09:13:57</time>
      </trkpt>
      <trkpt lat="41.54653" lon="1.90394">
        <ele>230.6</ele>
        <time>2021-04-11 09:13:58</time>
      </trkpt>
      <trkpt lat="41.54656" lon="1.90397">
        <ele>230.8</ele>
        <time>2021-04-11 09:13:59</time>
      </trkpt>
      <trkpt lat="41.54658" lon="1.904">
        <ele>231</ele>
        <time>2021-04-11 09:14:00</time>
      </trkpt>
      <trkpt lat="41.54661" lon="1.90403">
        <ele>231.2</ele>
        <time>2021-04-11 09:14:01</time>
      </trkpt>
      <trkpt lat="41.54662" lon="1.90406">
        <ele>231.4</ele>
        <time>2021-04-11 09:14:02</time>
      </trkpt>
      <trkpt lat="41.54664" lon="1.90409">
        <ele>231.8</ele>
        <time>2021-04-11 09:14:03</time>
      </trkpt>
      <trkpt lat="41.54666" lon="1.90412">
        <ele>232</ele>
        <time>2021-04-11 09:14:04</time>
      </trkpt>
      <trkpt lat="41.54668" lon="1.90416">
        <ele>232.2</ele>
        <time>2021-04-11 09:14:05</time>
      </trkpt>
      <trkpt lat="41.54671" lon="1.90419">
        <ele>232.6</ele>
        <time>2021-04-11 09:14:06</time>
      </trkpt>
      <trkpt lat="41.54672" lon="1.90422">
        <ele>232.8</ele>
        <time>2021-04-11 09:14:07</time>
      </trkpt>
      <trkpt lat="41.54674" lon="1.90426">
        <ele>233</ele>
        <time>2021-04-11 09:14:08</time>
      </trkpt>
      <trkpt lat="41.54677" lon="1.90429">
        <ele>233.2</ele>
        <time>2021-04-11 09:14:09</time>
      </trkpt>
      <trkpt lat="41.54679" lon="1.90432">
        <ele>233.4</ele>
        <time>2021-04-11 09:14:10</time>
      </trkpt>
      <trkpt lat="41.54682" lon="1.90434">
        <ele>233.6</ele>
        <time>2021-04-11 09:14:11</time>
      </trkpt>
      <trkpt lat="41.54684" lon="1.90437">
        <ele>233.8</ele>
        <time>2021-04-11 09:14:12</time>
      </trkpt>
      <trkpt lat="41.54687" lon="1.90439">
        <ele>234</ele>
        <time>2021-04-11 09:14:13</time>
      </trkpt>
      <trkpt lat="41.5469" lon="1.90441">
        <ele>234.4</ele>
        <time>2021-04-11 09:14:14</time>
      </trkpt>
      <trkpt lat="41.54693" lon="1.90443">
        <ele>234.6</ele>
        <time>2021-04-11 09:14:15</time>
      </trkpt>
      <trkpt lat="41.54696" lon="1.90445">
        <ele>234.8</ele>
        <time>2021-04-11 09:14:16</time>
      </trkpt>
      <trkpt lat="41.54698" lon="1.90447">
        <ele>235</ele>
        <time>2021-04-11 09:14:17</time>
      </trkpt>
      <trkpt lat="41.54701" lon="1.90448">
        <ele>235.2</ele>
        <time>2021-04-11 09:14:18</time>
      </trkpt>
      <trkpt lat="41.54705" lon="1.9045">
        <ele>235.4</ele>
        <time>2021-04-11 09:14:19</time>
      </trkpt>
      <trkpt lat="41.54708" lon="1.90451">
        <ele>235.6</ele>
        <time>2021-04-11 09:14:20</time>
      </trkpt>
      <trkpt lat="41.54711" lon="1.90452">
        <ele>236</ele>
        <time>2021-04-11 09:14:21</time>
      </trkpt>
      <trkpt lat="41.54714" lon="1.90454">
        <ele>236.2</ele>
        <time>2021-04-11 09:14:22</time>
      </trkpt>
      <trkpt lat="41.54717" lon="1.90455">
        <ele>236.4</ele>
        <time>2021-04-11 09:14:23</time>
      </trkpt>
      <trkpt lat="41.5472" lon="1.90456">
        <ele>236.6</ele>
        <time>2021-04-11 09:14:24</time>
      </trkpt>
      <trkpt lat="41.54723" lon="1.90457">
        <ele>236.8</ele>
        <time>2021-04-11 09:14:25</time>
      </trkpt>
      <trkpt lat="41.54727" lon="1.90458">
        <ele>237</ele>
        <time>2021-04-11 09:14:26</time>
      </trkpt>
      <trkpt lat="41.5473" lon="1.90459">
        <ele>237.2</ele>
        <time>2021-04-11 09:14:27</time>
      </trkpt>
      <trkpt lat="41.54733" lon="1.9046">
        <ele>237.4</ele>
        <time>2021-04-11 09:14:28</time>
      </trkpt>
      <trkpt lat="41.54736" lon="1.90461">
        <ele>237.6</ele>
        <time>2021-04-11 09:14:29</time>
      </trkpt>
      <trkpt lat="41.54739" lon="1.90462">
        <ele>237.8</ele>
        <time>2021-04-11 09:14:30</time>
      </trkpt>
      <trkpt lat="41.54742" lon="1.90463">
        <ele>238</ele>
        <time>2021-04-11 09:14:31</time>
      </trkpt>
      <trkpt lat="41.54746" lon="1.90463">
        <ele>238.2</ele>
        <time>2021-04-11 09:14:32</time>
      </trkpt>
      <trkpt lat="41.54749" lon="1.90464">
        <ele>238.4</ele>
        <time>2021-04-11 09:14:33</time>
      </trkpt>
      <trkpt lat="41.54752" lon="1.90466">
        <ele>238.8</ele>
        <time>2021-04-11 09:14:34</time>
      </trkpt>
      <trkpt lat="41.54755" lon="1.90467">
        <ele>239</ele>
        <time>2021-04-11 09:14:35</time>
      </trkpt>
      <trkpt lat="41.54759" lon="1.90468">
        <ele>239.2</ele>
        <time>2021-04-11 09:14:36</time>
      </trkpt>
      <trkpt lat="41.54762" lon="1.90469">
        <ele>239.4</ele>
        <time>2021-04-11 09:14:37</time>
      </trkpt>
      <trkpt lat="41.54765" lon="1.9047">
        <ele>239.6</ele>
        <time>2021-04-11 09:14:38</time>
      </trkpt>
      <trkpt lat="41.54768" lon="1.90471">
        <ele>239.8</ele>
        <time>2021-04-11 09:14:39</time>
      </trkpt>
      <trkpt lat="41.54771" lon="1.90472">
        <ele>240.2</ele>
        <time>2021-04-11 09:14:40</time>
      </trkpt>
      <trkpt lat="41.54774" lon="1.90473">
        <ele>240.4</ele>
        <time>2021-04-11 09:14:41</time>
      </trkpt>
      <trkpt lat="41.54777" lon="1.90475">
        <ele>240.6</ele>
        <time>2021-04-11 09:14:42</time>
      </trkpt>
      <trkpt lat="41.5478" lon="1.90476">
        <ele>240.8</ele>
        <time>2021-04-11 09:14:43</time>
      </trkpt>
      <trkpt lat="41.54784" lon="1.90477">
        <ele>241</ele>
        <time>2021-04-11 09:14:44</time>
      </trkpt>
      <trkpt lat="41.54787" lon="1.90478">
        <ele>241.4</ele>
        <time>2021-04-11 09:14:45</time>
      </trkpt>
      <trkpt lat="41.5479" lon="1.90479">
        <ele>241.6</ele>
        <time>2021-04-11 09:14:46</time>
      </trkpt>
      <trkpt lat="41.54793" lon="1.9048">
        <ele>241.8</ele>
        <time>2021-04-11 09:14:47</time>
      </trkpt>
      <trkpt lat="41.54796" lon="1.90481">
        <ele>242</ele>
        <time>2021-04-11 09:14:48</time>
      </trkpt>
      <trkpt lat="41.54799" lon="1.90482">
        <ele>242.2</ele>
        <time>2021-04-11 09:14:49</time>
      </trkpt>
      <trkpt lat="41.54802" lon="1.90484">
        <ele>242.4</ele>
        <time>2021-04-11 09:14:50</time>
      </trkpt>
      <trkpt lat="41.54805" lon="1.90485">
        <ele>242.6</ele>
        <time>2021-04-11 09:14:51</time>
      </trkpt>
      <trkpt lat="41.54808" lon="1.90487">
        <ele>242.8</ele>
        <time>2021-04-11 09:14:52</time>
      </trkpt>
      <trkpt lat="41.54811" lon="1.90489">
        <ele>243</ele>
        <time>2021-04-11 09:14:53</time>
      </trkpt>
      <trkpt lat="41.54814" lon="1.90491">
        <ele>243.2</ele>
        <time>2021-04-11 09:14:54</time>
      </trkpt>
      <trkpt lat="41.54817" lon="1.90493">
        <ele>243.4</ele>
        <time>2021-04-11 09:14:55</time>
      </trkpt>
      <trkpt lat="41.5482" lon="1.90496">
        <ele>243.6</ele>
        <time>2021-04-11 09:14:56</time>
      </trkpt>
      <trkpt lat="41.54822" lon="1.90498">
        <ele>243.6</ele>
        <time>2021-04-11 09:14:57</time>
      </trkpt>
      <trkpt lat="41.54825" lon="1.90501">
        <ele>243.8</ele>
        <time>2021-04-11 09:14:58</time>
      </trkpt>
      <trkpt lat="41.54827" lon="1.90504">
        <ele>244</ele>
        <time>2021-04-11 09:14:59</time>
      </trkpt>
      <trkpt lat="41.5483" lon="1.90508">
        <ele>244.2</ele>
        <time>2021-04-11 09:15:00</time>
      </trkpt>
      <trkpt lat="41.54832" lon="1.90511">
        <ele>244.4</ele>
        <time>2021-04-11 09:15:01</time>
      </trkpt>
      <trkpt lat="41.54834" lon="1.90515">
        <ele>244.6</ele>
        <time>2021-04-11 09:15:02</time>
      </trkpt>
      <trkpt lat="41.54836" lon="1.90518">
        <ele>244.8</ele>
        <time>2021-04-11 09:15:03</time>
      </trkpt>
      <trkpt lat="41.54839" lon="1.90522">
        <ele>245</ele>
        <time>2021-04-11 09:15:04</time>
      </trkpt>
      <trkpt lat="41.54841" lon="1.90526">
        <ele>245.2</ele>
        <time>2021-04-11 09:15:05</time>
      </trkpt>
      <trkpt lat="41.54843" lon="1.9053">
        <ele>245.4</ele>
        <time>2021-04-11 09:15:06</time>
      </trkpt>
      <trkpt lat="41.54845" lon="1.90534">
        <ele>245.6</ele>
        <time>2021-04-11 09:15:07</time>
      </trkpt>
      <trkpt lat="41.54847" lon="1.90538">
        <ele>246</ele>
        <time>2021-04-11 09:15:08</time>
      </trkpt>
      <trkpt lat="41.54849" lon="1.90542">
        <ele>246.2</ele>
        <time>2021-04-11 09:15:09</time>
      </trkpt>
      <trkpt lat="41.54851" lon="1.90545">
        <ele>246.4</ele>
        <time>2021-04-11 09:15:10</time>
      </trkpt>
      <trkpt lat="41.54853" lon="1.90549">
        <ele>246.6</ele>
        <time>2021-04-11 09:15:11</time>
      </trkpt>
      <trkpt lat="41.54855" lon="1.90553">
        <ele>246.8</ele>
        <time>2021-04-11 09:15:12</time>
      </trkpt>
      <trkpt lat="41.54857" lon="1.90556">
        <ele>247</ele>
        <time>2021-04-11 09:15:13</time>
      </trkpt>
      <trkpt lat="41.54859" lon="1.9056">
        <ele>247</ele>
        <time>2021-04-11 09:15:14</time>
      </trkpt>
      <trkpt lat="41.5486" lon="1.90564">
        <ele>247.2</ele>
        <time>2021-04-11 09:15:15</time>
      </trkpt>
      <trkpt lat="41.54862" lon="1.90567">
        <ele>247.4</ele>
        <time>2021-04-11 09:15:16</time>
      </trkpt>
      <trkpt lat="41.54864" lon="1.90571">
        <ele>247.6</ele>
        <time>2021-04-11 09:15:17</time>
      </trkpt>
      <trkpt lat="41.54867" lon="1.90575">
        <ele>247.8</ele>
        <time>2021-04-11 09:15:18</time>
      </trkpt>
      <trkpt lat="41.54868" lon="1.90579">
        <ele>248</ele>
        <time>2021-04-11 09:15:19</time>
      </trkpt>
      <trkpt lat="41.54871" lon="1.90583">
        <ele>248.2</ele>
        <time>2021-04-11 09:15:20</time>
      </trkpt>
      <trkpt lat="41.54873" lon="1.90586">
        <ele>248.4</ele>
        <time>2021-04-11 09:15:21</time>
      </trkpt>
      <trkpt lat="41.54875" lon="1.9059">
        <ele>248.6</ele>
        <time>2021-04-11 09:15:22</time>
      </trkpt>
      <trkpt lat="41.54877" lon="1.90594">
        <ele>248.8</ele>
        <time>2021-04-11 09:15:23</time>
      </trkpt>
      <trkpt lat="41.54879" lon="1.90597">
        <ele>249</ele>
        <time>2021-04-11 09:15:24</time>
      </trkpt>
      <trkpt lat="41.54881" lon="1.90601">
        <ele>249.2</ele>
        <time>2021-04-11 09:15:25</time>
      </trkpt>
      <trkpt lat="41.54883" lon="1.90605">
        <ele>249.4</ele>
        <time>2021-04-11 09:15:26</time>
      </trkpt>
      <trkpt lat="41.54886" lon="1.90608">
        <ele>249.6</ele>
        <time>2021-04-11 09:15:27</time>
      </trkpt>
      <trkpt lat="41.54888" lon="1.90612">
        <ele>249.8</ele>
        <time>2021-04-11 09:15:28</time>
      </trkpt>
      <trkpt lat="41.5489" lon="1.90616">
        <ele>250</ele>
        <time>2021-04-11 09:15:29</time>
      </trkpt>
      <trkpt lat="41.54892" lon="1.90619">
        <ele>250.2</ele>
        <time>2021-04-11 09:15:30</time>
      </trkpt>
      <trkpt lat="41.54894" lon="1.90623">
        <ele>250.4</ele>
        <time>2021-04-11 09:15:31</time>
      </trkpt>
      <trkpt lat="41.54896" lon="1.90627">
        <ele>250.6</ele>
        <time>2021-04-11 09:15:32</time>
      </trkpt>
      <trkpt lat="41.54897" lon="1.90631">
        <ele>250.8</ele>
        <time>2021-04-11 09:15:33</time>
      </trkpt>
      <trkpt lat="41.54899" lon="1.90635">
        <ele>251</ele>
        <time>2021-04-11 09:15:34</time>
      </trkpt>
      <trkpt lat="41.54901" lon="1.90639">
        <ele>251.2</ele>
        <time>2021-04-11 09:15:35</time>
      </trkpt>
      <trkpt lat="41.54903" lon="1.90642">
        <ele>251.4</ele>
        <time>2021-04-11 09:15:36</time>
      </trkpt>
      <trkpt lat="41.54905" lon="1.90646">
        <ele>251.6</ele>
        <time>2021-04-11 09:15:37</time>
      </trkpt>
      <trkpt lat="41.54907" lon="1.9065">
        <ele>251.8</ele>
        <time>2021-04-11 09:15:38</time>
      </trkpt>
      <trkpt lat="41.5491" lon="1.90654">
        <ele>252.2</ele>
        <time>2021-04-11 09:15:39</time>
      </trkpt>
      <trkpt lat="41.54912" lon="1.90657">
        <ele>252.4</ele>
        <time>2021-04-11 09:15:40</time>
      </trkpt>
      <trkpt lat="41.54914" lon="1.9066">
        <ele>252.6</ele>
        <time>2021-04-11 09:15:41</time>
      </trkpt>
      <trkpt lat="41.54917" lon="1.90664">
        <ele>252.8</ele>
        <time>2021-04-11 09:15:42</time>
      </trkpt>
      <trkpt lat="41.54919" lon="1.90667">
        <ele>253</ele>
        <time>2021-04-11 09:15:43</time>
      </trkpt>
      <trkpt lat="41.54922" lon="1.9067">
        <ele>253.2</ele>
        <time>2021-04-11 09:15:44</time>
      </trkpt>
      <trkpt lat="41.54924" lon="1.90673">
        <ele>253.4</ele>
        <time>2021-04-11 09:15:45</time>
      </trkpt>
      <trkpt lat="41.54927" lon="1.90676">
        <ele>253.6</ele>
        <time>2021-04-11 09:15:46</time>
      </trkpt>
      <trkpt lat="41.5493" lon="1.90678">
        <ele>253.8</ele>
        <time>2021-04-11 09:15:47</time>
      </trkpt>
      <trkpt lat="41.54932" lon="1.90681">
        <ele>254</ele>
        <time>2021-04-11 09:15:48</time>
      </trkpt>
      <trkpt lat="41.54935" lon="1.90683">
        <ele>254.2</ele>
        <time>2021-04-11 09:15:49</time>
      </trkpt>
      <trkpt lat="41.54938" lon="1.90685">
        <ele>254.4</ele>
        <time>2021-04-11 09:15:50</time>
      </trkpt>
      <trkpt lat="41.54941" lon="1.90687">
        <ele>254.6</ele>
        <time>2021-04-11 09:15:51</time>
      </trkpt>
      <trkpt lat="41.54945" lon="1.90689">
        <ele>254.8</ele>
        <time>2021-04-11 09:15:52</time>
      </trkpt>
      <trkpt lat="41.54948" lon="1.90691">
        <ele>255</ele>
        <time>2021-04-11 09:15:53</time>
      </trkpt>
      <trkpt lat="41.54951" lon="1.90693">
        <ele>255.2</ele>
        <time>2021-04-11 09:15:54</time>
      </trkpt>
      <trkpt lat="41.54954" lon="1.90695">
        <ele>255.4</ele>
        <time>2021-04-11 09:15:55</time>
      </trkpt>
      <trkpt lat="41.54957" lon="1.90698">
        <ele>255.6</ele>
        <time>2021-04-11 09:15:56</time>
      </trkpt>
      <trkpt lat="41.5496" lon="1.90701">
        <ele>255.8</ele>
        <time>2021-04-11 09:15:57</time>
      </trkpt>
      <trkpt lat="41.54963" lon="1.90704">
        <ele>256</ele>
        <time>2021-04-11 09:15:58</time>
      </trkpt>
      <trkpt lat="41.54965" lon="1.90708">
        <ele>256.2</ele>
        <time>2021-04-11 09:15:59</time>
      </trkpt>
      <trkpt lat="41.54967" lon="1.90712">
        <ele>256.4</ele>
        <time>2021-04-11 09:16:00</time>
      </trkpt>
      <trkpt lat="41.54968" lon="1.90716">
        <ele>256.6</ele>
        <time>2021-04-11 09:16:01</time>
      </trkpt>
      <trkpt lat="41.5497" lon="1.9072">
        <ele>256.8</ele>
        <time>2021-04-11 09:16:02</time>
      </trkpt>
      <trkpt lat="41.54971" lon="1.90725">
        <ele>257</ele>
        <time>2021-04-11 09:16:03</time>
      </trkpt>
      <trkpt lat="41.54972" lon="1.90729">
        <ele>257.2</ele>
        <time>2021-04-11 09:16:04</time>
      </trkpt>
      <trkpt lat="41.54973" lon="1.90734">
        <ele>257.4</ele>
        <time>2021-04-11 09:16:05</time>
      </trkpt>
      <trkpt lat="41.54975" lon="1.90739">
        <ele>257.6</ele>
        <time>2021-04-11 09:16:06</time>
      </trkpt>
      <trkpt lat="41.54977" lon="1.90743">
        <ele>257.8</ele>
        <time>2021-04-11 09:16:07</time>
      </trkpt>
      <trkpt lat="41.54979" lon="1.90748">
        <ele>258</ele>
        <time>2021-04-11 09:16:08</time>
      </trkpt>
      <trkpt lat="41.54981" lon="1.90752">
        <ele>258.2</ele>
        <time>2021-04-11 09:16:09</time>
      </trkpt>
      <trkpt lat="41.54983" lon="1.90755">
        <ele>258.4</ele>
        <time>2021-04-11 09:16:10</time>
      </trkpt>
      <trkpt lat="41.54986" lon="1.90759">
        <ele>258.6</ele>
        <time>2021-04-11 09:16:11</time>
      </trkpt>
      <trkpt lat="41.54989" lon="1.90762">
        <ele>258.8</ele>
        <time>2021-04-11 09:16:12</time>
      </trkpt>
      <trkpt lat="41.54991" lon="1.90765">
        <ele>259</ele>
        <time>2021-04-11 09:16:13</time>
      </trkpt>
      <trkpt lat="41.54994" lon="1.90768">
        <ele>259.2</ele>
        <time>2021-04-11 09:16:14</time>
      </trkpt>
      <trkpt lat="41.54997" lon="1.90771">
        <ele>259.4</ele>
        <time>2021-04-11 09:16:15</time>
      </trkpt>
      <trkpt lat="41.55001" lon="1.90773">
        <ele>259.6</ele>
        <time>2021-04-11 09:16:16</time>
      </trkpt>
      <trkpt lat="41.55004" lon="1.90776">
        <ele>259.8</ele>
        <time>2021-04-11 09:16:17</time>
      </trkpt>
      <trkpt lat="41.55007" lon="1.90779">
        <ele>260</ele>
        <time>2021-04-11 09:16:18</time>
      </trkpt>
      <trkpt lat="41.5501" lon="1.90781">
        <ele>260.2</ele>
        <time>2021-04-11 09:16:19</time>
      </trkpt>
      <trkpt lat="41.55013" lon="1.90783">
        <ele>260.6</ele>
        <time>2021-04-11 09:16:20</time>
      </trkpt>
      <trkpt lat="41.55015" lon="1.90786">
        <ele>260.8</ele>
        <time>2021-04-11 09:16:21</time>
      </trkpt>
      <trkpt lat="41.55018" lon="1.90788">
        <ele>261</ele>
        <time>2021-04-11 09:16:22</time>
      </trkpt>
      <trkpt lat="41.55022" lon="1.90791">
        <ele>261.2</ele>
        <time>2021-04-11 09:16:23</time>
      </trkpt>
      <trkpt lat="41.55025" lon="1.90793">
        <ele>261.4</ele>
        <time>2021-04-11 09:16:24</time>
      </trkpt>
      <trkpt lat="41.55028" lon="1.90795">
        <ele>261.6</ele>
        <time>2021-04-11 09:16:25</time>
      </trkpt>
      <trkpt lat="41.55031" lon="1.90798">
        <ele>261.8</ele>
        <time>2021-04-11 09:16:26</time>
      </trkpt>
      <trkpt lat="41.55034" lon="1.908">
        <ele>262.2</ele>
        <time>2021-04-11 09:16:27</time>
      </trkpt>
      <trkpt lat="41.55037" lon="1.90803">
        <ele>262.4</ele>
        <time>2021-04-11 09:16:28</time>
      </trkpt>
      <trkpt lat="41.5504" lon="1.90805">
        <ele>262.6</ele>
        <time>2021-04-11 09:16:29</time>
      </trkpt>
      <trkpt lat="41.55043" lon="1.90808">
        <ele>262.8</ele>
        <time>2021-04-11 09:16:30</time>
      </trkpt>
      <trkpt lat="41.55046" lon="1.90811">
        <ele>263</ele>
        <time>2021-04-11 09:16:31</time>
      </trkpt>
      <trkpt lat="41.55049" lon="1.90814">
        <ele>263.2</ele>
        <time>2021-04-11 09:16:32</time>
      </trkpt>
      <trkpt lat="41.55052" lon="1.90816">
        <ele>263.4</ele>
        <time>2021-04-11 09:16:33</time>
      </trkpt>
      <trkpt lat="41.55055" lon="1.90819">
        <ele>263.6</ele>
        <time>2021-04-11 09:16:34</time>
      </trkpt>
      <trkpt lat="41.55058" lon="1.90822">
        <ele>263.8</ele>
        <time>2021-04-11 09:16:35</time>
      </trkpt>
      <trkpt lat="41.5506" lon="1.90825">
        <ele>264</ele>
        <time>2021-04-11 09:16:36</time>
      </trkpt>
      <trkpt lat="41.55063" lon="1.90829">
        <ele>264.2</ele>
        <time>2021-04-11 09:16:37</time>
      </trkpt>
      <trkpt lat="41.55065" lon="1.90832">
        <ele>264.4</ele>
        <time>2021-04-11 09:16:38</time>
      </trkpt>
      <trkpt lat="41.55068" lon="1.90836">
        <ele>264.6</ele>
        <time>2021-04-11 09:16:39</time>
      </trkpt>
      <trkpt lat="41.5507" lon="1.90839">
        <ele>264.8</ele>
        <time>2021-04-11 09:16:40</time>
      </trkpt>
      <trkpt lat="41.55073" lon="1.90843">
        <ele>265</ele>
        <time>2021-04-11 09:16:41</time>
      </trkpt>
      <trkpt lat="41.55074" lon="1.90848">
        <ele>265.2</ele>
        <time>2021-04-11 09:16:42</time>
      </trkpt>
      <trkpt lat="41.55076" lon="1.90852">
        <ele>265.4</ele>
        <time>2021-04-11 09:16:43</time>
      </trkpt>
      <trkpt lat="41.55078" lon="1.90856">
        <ele>265.6</ele>
        <time>2021-04-11 09:16:44</time>
      </trkpt>
      <trkpt lat="41.55079" lon="1.90861">
        <ele>265.8</ele>
        <time>2021-04-11 09:16:45</time>
      </trkpt>
      <trkpt lat="41.55081" lon="1.90865">
        <ele>266</ele>
        <time>2021-04-11 09:16:46</time>
      </trkpt>
      <trkpt lat="41.55083" lon="1.90869">
        <ele>266.2</ele>
        <time>2021-04-11 09:16:47</time>
      </trkpt>
      <trkpt lat="41.55085" lon="1.90873">
        <ele>266.6</ele>
        <time>2021-04-11 09:16:48</time>
      </trkpt>
      <trkpt lat="41.55087" lon="1.90877">
        <ele>266.8</ele>
        <time>2021-04-11 09:16:49</time>
      </trkpt>
      <trkpt lat="41.55089" lon="1.90881">
        <ele>267</ele>
        <time>2021-04-11 09:16:50</time>
      </trkpt>
      <trkpt lat="41.55092" lon="1.90884">
        <ele>267.2</ele>
        <time>2021-04-11 09:16:51</time>
      </trkpt>
      <trkpt lat="41.55094" lon="1.90888">
        <ele>267.6</ele>
        <time>2021-04-11 09:16:52</time>
      </trkpt>
      <trkpt lat="41.55097" lon="1.90891">
        <ele>267.8</ele>
        <time>2021-04-11 09:16:53</time>
      </trkpt>
      <trkpt lat="41.551" lon="1.90893">
        <ele>268</ele>
        <time>2021-04-11 09:16:54</time>
      </trkpt>
      <trkpt lat="41.55104" lon="1.90895">
        <ele>268.2</ele>
        <time>2021-04-11 09:16:55</time>
      </trkpt>
      <trkpt lat="41.55107" lon="1.90897">
        <ele>268.4</ele>
        <time>2021-04-11 09:16:56</time>
      </trkpt>
      <trkpt lat="41.5511" lon="1.90899">
        <ele>268.6</ele>
        <time>2021-04-11 09:16:57</time>
      </trkpt>
      <trkpt lat="41.55114" lon="1.90901">
        <ele>268.8</ele>
        <time>2021-04-11 09:16:58</time>
      </trkpt>
      <trkpt lat="41.55117" lon="1.90902">
        <ele>269.2</ele>
        <time>2021-04-11 09:16:59</time>
      </trkpt>
      <trkpt lat="41.55121" lon="1.90903">
        <ele>269.4</ele>
        <time>2021-04-11 09:17:00</time>
      </trkpt>
      <trkpt lat="41.55125" lon="1.90904">
        <ele>269.6</ele>
        <time>2021-04-11 09:17:01</time>
      </trkpt>
      <trkpt lat="41.55128" lon="1.90904">
        <ele>269.8</ele>
        <time>2021-04-11 09:17:02</time>
      </trkpt>
      <trkpt lat="41.55132" lon="1.90905">
        <ele>270</ele>
        <time>2021-04-11 09:17:03</time>
      </trkpt>
      <trkpt lat="41.55136" lon="1.90905">
        <ele>270.2</ele>
        <time>2021-04-11 09:17:04</time>
      </trkpt>
      <trkpt lat="41.55139" lon="1.90904">
        <ele>270.4</ele>
        <time>2021-04-11 09:17:05</time>
      </trkpt>
      <trkpt lat="41.55143" lon="1.90904">
        <ele>270.6</ele>
        <time>2021-04-11 09:17:06</time>
      </trkpt>
      <trkpt lat="41.55147" lon="1.90904">
        <ele>270.8</ele>
        <time>2021-04-11 09:17:07</time>
      </trkpt>
      <trkpt lat="41.55151" lon="1.90903">
        <ele>271</ele>
        <time>2021-04-11 09:17:08</time>
      </trkpt>
      <trkpt lat="41.55154" lon="1.90903">
        <ele>271.2</ele>
        <time>2021-04-11 09:17:09</time>
      </trkpt>
      <trkpt lat="41.55158" lon="1.90903">
        <ele>271.4</ele>
        <time>2021-04-11 09:17:10</time>
      </trkpt>
      <trkpt lat="41.55162" lon="1.90904">
        <ele>271.4</ele>
        <time>2021-04-11 09:17:11</time>
      </trkpt>
      <trkpt lat="41.55165" lon="1.90904">
        <ele>271.6</ele>
        <time>2021-04-11 09:17:12</time>
      </trkpt>
      <trkpt lat="41.55168" lon="1.90905">
        <ele>271.8</ele>
        <time>2021-04-11 09:17:13</time>
      </trkpt>
      <trkpt lat="41.55172" lon="1.90906">
        <ele>272</ele>
        <time>2021-04-11 09:17:14</time>
      </trkpt>
      <trkpt lat="41.55175" lon="1.90908">
        <ele>272.2</ele>
        <time>2021-04-11 09:17:15</time>
      </trkpt>
      <trkpt lat="41.55179" lon="1.9091">
        <ele>272.4</ele>
        <time>2021-04-11 09:17:16</time>
      </trkpt>
      <trkpt lat="41.55182" lon="1.90912">
        <ele>272.6</ele>
        <time>2021-04-11 09:17:17</time>
      </trkpt>
      <trkpt lat="41.55186" lon="1.90915">
        <ele>272.6</ele>
        <time>2021-04-11 09:17:18</time>
      </trkpt>
      <trkpt lat="41.55188" lon="1.90917">
        <ele>272.8</ele>
        <time>2021-04-11 09:17:19</time>
      </trkpt>
      <trkpt lat="41.55192" lon="1.90921">
        <ele>273</ele>
        <time>2021-04-11 09:17:20</time>
      </trkpt>
      <trkpt lat="41.55195" lon="1.90924">
        <ele>273.2</ele>
        <time>2021-04-11 09:17:21</time>
      </trkpt>
      <trkpt lat="41.55198" lon="1.90927">
        <ele>273.4</ele>
        <time>2021-04-11 09:17:22</time>
      </trkpt>
      <trkpt lat="41.55201" lon="1.90929">
        <ele>273.8</ele>
        <time>2021-04-11 09:17:23</time>
      </trkpt>
      <trkpt lat="41.55204" lon="1.90932">
        <ele>274</ele>
        <time>2021-04-11 09:17:24</time>
      </trkpt>
      <trkpt lat="41.55207" lon="1.90934">
        <ele>274.2</ele>
        <time>2021-04-11 09:17:25</time>
      </trkpt>
      <trkpt lat="41.55211" lon="1.90936">
        <ele>274.4</ele>
        <time>2021-04-11 09:17:26</time>
      </trkpt>
      <trkpt lat="41.55214" lon="1.90938">
        <ele>274.6</ele>
        <time>2021-04-11 09:17:27</time>
      </trkpt>
      <trkpt lat="41.55218" lon="1.90939">
        <ele>274.8</ele>
        <time>2021-04-11 09:17:28</time>
      </trkpt>
      <trkpt lat="41.55221" lon="1.90941">
        <ele>275</ele>
        <time>2021-04-11 09:17:29</time>
      </trkpt>
      <trkpt lat="41.55225" lon="1.90942">
        <ele>275.2</ele>
        <time>2021-04-11 09:17:30</time>
      </trkpt>
      <trkpt lat="41.55228" lon="1.90944">
        <ele>275.4</ele>
        <time>2021-04-11 09:17:31</time>
      </trkpt>
      <trkpt lat="41.55232" lon="1.90945">
        <ele>275.6</ele>
        <time>2021-04-11 09:17:32</time>
      </trkpt>
      <trkpt lat="41.55236" lon="1.90946">
        <ele>275.8</ele>
        <time>2021-04-11 09:17:33</time>
      </trkpt>
      <trkpt lat="41.55239" lon="1.90947">
        <ele>276</ele>
        <time>2021-04-11 09:17:34</time>
      </trkpt>
      <trkpt lat="41.55243" lon="1.90948">
        <ele>276.2</ele>
        <time>2021-04-11 09:17:35</time>
      </trkpt>
      <trkpt lat="41.55247" lon="1.90948">
        <ele>276.4</ele>
        <time>2021-04-11 09:17:36</time>
      </trkpt>
      <trkpt lat="41.5525" lon="1.90949">
        <ele>276.6</ele>
        <time>2021-04-11 09:17:37</time>
      </trkpt>
      <trkpt lat="41.55254" lon="1.90949">
        <ele>277</ele>
        <time>2021-04-11 09:17:38</time>
      </trkpt>
      <trkpt lat="41.55257" lon="1.90948">
        <ele>277.2</ele>
        <time>2021-04-11 09:17:39</time>
      </trkpt>
      <trkpt lat="41.55261" lon="1.90948">
        <ele>277.4</ele>
        <time>2021-04-11 09:17:40</time>
      </trkpt>
      <trkpt lat="41.55265" lon="1.90948">
        <ele>277.4</ele>
        <time>2021-04-11 09:17:41</time>
      </trkpt>
      <trkpt lat="41.55268" lon="1.90948">
        <ele>277.6</ele>
        <time>2021-04-11 09:17:42</time>
      </trkpt>
      <trkpt lat="41.55272" lon="1.90948">
        <ele>277.8</ele>
        <time>2021-04-11 09:17:43</time>
      </trkpt>
      <trkpt lat="41.55276" lon="1.90948">
        <ele>278</ele>
        <time>2021-04-11 09:17:44</time>
      </trkpt>
      <trkpt lat="41.55279" lon="1.90948">
        <ele>278</ele>
        <time>2021-04-11 09:17:45</time>
      </trkpt>
      <trkpt lat="41.55283" lon="1.90948">
        <ele>278.2</ele>
        <time>2021-04-11 09:17:46</time>
      </trkpt>
      <trkpt lat="41.55286" lon="1.90948">
        <ele>278.2</ele>
        <time>2021-04-11 09:17:47</time>
      </trkpt>
      <trkpt lat="41.5529" lon="1.90948">
        <ele>278.2</ele>
        <time>2021-04-11 09:17:48</time>
      </trkpt>
      <trkpt lat="41.55294" lon="1.90948">
        <ele>278.4</ele>
        <time>2021-04-11 09:17:49</time>
      </trkpt>
      <trkpt lat="41.55298" lon="1.90947">
        <ele>278.4</ele>
        <time>2021-04-11 09:17:50</time>
      </trkpt>
      <trkpt lat="41.55302" lon="1.90947">
        <ele>278.4</ele>
        <time>2021-04-11 09:17:51</time>
      </trkpt>
      <trkpt lat="41.55306" lon="1.90947">
        <ele>278.4</ele>
        <time>2021-04-11 09:17:52</time>
      </trkpt>
      <trkpt lat="41.5531" lon="1.90947">
        <ele>278.4</ele>
        <time>2021-04-11 09:17:53</time>
      </trkpt>
      <trkpt lat="41.55314" lon="1.90947">
        <ele>278.4</ele>
        <time>2021-04-11 09:17:54</time>
      </trkpt>
      <trkpt lat="41.55318" lon="1.90947">
        <ele>278.4</ele>
        <time>2021-04-11 09:17:55</time>
      </trkpt>
      <trkpt lat="41.55322" lon="1.90948">
        <ele>278.4</ele>
        <time>2021-04-11 09:17:56</time>
      </trkpt>
      <trkpt lat="41.55327" lon="1.90948">
        <ele>278.4</ele>
        <time>2021-04-11 09:17:57</time>
      </trkpt>
      <trkpt lat="41.55331" lon="1.90949">
        <ele>278.4</ele>
        <time>2021-04-11 09:17:58</time>
      </trkpt>
      <trkpt lat="41.55336" lon="1.9095">
        <ele>278.4</ele>
        <time>2021-04-11 09:17:59</time>
      </trkpt>
      <trkpt lat="41.5534" lon="1.90952">
        <ele>278.2</ele>
        <time>2021-04-11 09:18:00</time>
      </trkpt>
      <trkpt lat="41.55344" lon="1.90954">
        <ele>278.2</ele>
        <time>2021-04-11 09:18:01</time>
      </trkpt>
      <trkpt lat="41.55349" lon="1.90956">
        <ele>278.2</ele>
        <time>2021-04-11 09:18:02</time>
      </trkpt>
      <trkpt lat="41.55353" lon="1.90959">
        <ele>278.2</ele>
        <time>2021-04-11 09:18:03</time>
      </trkpt>
      <trkpt lat="41.55357" lon="1.90962">
        <ele>278</ele>
        <time>2021-04-11 09:18:04</time>
      </trkpt>
      <trkpt lat="41.55362" lon="1.90966">
        <ele>278</ele>
        <time>2021-04-11 09:18:05</time>
      </trkpt>
      <trkpt lat="41.55365" lon="1.9097">
        <ele>278</ele>
        <time>2021-04-11 09:18:06</time>
      </trkpt>
      <trkpt lat="41.55369" lon="1.90975">
        <ele>278</ele>
        <time>2021-04-11 09:18:07</time>
      </trkpt>
      <trkpt lat="41.55372" lon="1.90979">
        <ele>278</ele>
        <time>2021-04-11 09:18:08</time>
      </trkpt>
      <trkpt lat="41.55376" lon="1.90984">
        <ele>278</ele>
        <time>2021-04-11 09:18:09</time>
      </trkpt>
      <trkpt lat="41.55379" lon="1.90989">
        <ele>278</ele>
        <time>2021-04-11 09:18:10</time>
      </trkpt>
      <trkpt lat="41.55382" lon="1.90994">
        <ele>278</ele>
        <time>2021-04-11 09:18:11</time>
      </trkpt>
      <trkpt lat="41.55385" lon="1.90999">
        <ele>278</ele>
        <time>2021-04-11 09:18:12</time>
      </trkpt>
      <trkpt lat="41.55388" lon="1.91004">
        <ele>278</ele>
        <time>2021-04-11 09:18:13</time>
      </trkpt>
      <trkpt lat="41.55391" lon="1.91009">
        <ele>278</ele>
        <time>2021-04-11 09:18:14</time>
      </trkpt>
      <trkpt lat="41.55394" lon="1.91014">
        <ele>278</ele>
        <time>2021-04-11 09:18:15</time>
      </trkpt>
      <trkpt lat="41.55398" lon="1.91018">
        <ele>278.2</ele>
        <time>2021-04-11 09:18:16</time>
      </trkpt>
      <trkpt lat="41.55402" lon="1.91022">
        <ele>278.2</ele>
        <time>2021-04-11 09:18:17</time>
      </trkpt>
      <trkpt lat="41.55405" lon="1.91026">
        <ele>278.2</ele>
        <time>2021-04-11 09:18:18</time>
      </trkpt>
      <trkpt lat="41.5541" lon="1.91029">
        <ele>278.2</ele>
        <time>2021-04-11 09:18:19</time>
      </trkpt>
      <trkpt lat="41.55414" lon="1.91032">
        <ele>278.2</ele>
        <time>2021-04-11 09:18:20</time>
      </trkpt>
      <trkpt lat="41.55419" lon="1.91034">
        <ele>278.2</ele>
        <time>2021-04-11 09:18:21</time>
      </trkpt>
      <trkpt lat="41.55424" lon="1.91034">
        <ele>278.2</ele>
        <time>2021-04-11 09:18:22</time>
      </trkpt>
      <trkpt lat="41.55429" lon="1.91032">
        <ele>278.2</ele>
        <time>2021-04-11 09:18:23</time>
      </trkpt>
      <trkpt lat="41.55434" lon="1.91029">
        <ele>278.2</ele>
        <time>2021-04-11 09:18:24</time>
      </trkpt>
      <trkpt lat="41.55439" lon="1.91026">
        <ele>278.4</ele>
        <time>2021-04-11 09:18:25</time>
      </trkpt>
      <trkpt lat="41.55443" lon="1.91021">
        <ele>278.4</ele>
        <time>2021-04-11 09:18:26</time>
      </trkpt>
      <trkpt lat="41.55446" lon="1.91016">
        <ele>278.4</ele>
        <time>2021-04-11 09:18:27</time>
      </trkpt>
      <trkpt lat="41.55448" lon="1.9101">
        <ele>278.2</ele>
        <time>2021-04-11 09:18:28</time>
      </trkpt>
      <trkpt lat="41.55451" lon="1.91004">
        <ele>278.2</ele>
        <time>2021-04-11 09:18:29</time>
      </trkpt>
      <trkpt lat="41.55454" lon="1.90997">
        <ele>278.2</ele>
        <time>2021-04-11 09:18:30</time>
      </trkpt>
      <trkpt lat="41.55457" lon="1.9099">
        <ele>278</ele>
        <time>2021-04-11 09:18:31</time>
      </trkpt>
      <trkpt lat="41.5546" lon="1.90983">
        <ele>278</ele>
        <time>2021-04-11 09:18:32</time>
      </trkpt>
      <trkpt lat="41.55463" lon="1.90977">
        <ele>278</ele>
        <time>2021-04-11 09:18:33</time>
      </trkpt>
      <trkpt lat="41.55466" lon="1.9097">
        <ele>278</ele>
        <time>2021-04-11 09:18:34</time>
      </trkpt>
      <trkpt lat="41.5547" lon="1.90965">
        <ele>277.8</ele>
        <time>2021-04-11 09:18:35</time>
      </trkpt>
      <trkpt lat="41.55473" lon="1.90959">
        <ele>277.8</ele>
        <time>2021-04-11 09:18:36</time>
      </trkpt>
      <trkpt lat="41.55477" lon="1.90954">
        <ele>277.8</ele>
        <time>2021-04-11 09:18:37</time>
      </trkpt>
      <trkpt lat="41.55481" lon="1.90949">
        <ele>277.8</ele>
        <time>2021-04-11 09:18:38</time>
      </trkpt>
      <trkpt lat="41.55486" lon="1.90945">
        <ele>277.8</ele>
        <time>2021-04-11 09:18:39</time>
      </trkpt>
      <trkpt lat="41.55491" lon="1.90942">
        <ele>277.8</ele>
        <time>2021-04-11 09:18:40</time>
      </trkpt>
      <trkpt lat="41.55495" lon="1.9094">
        <ele>277.8</ele>
        <time>2021-04-11 09:18:41</time>
      </trkpt>
      <trkpt lat="41.555" lon="1.9094">
        <ele>277.8</ele>
        <time>2021-04-11 09:18:42</time>
      </trkpt>
      <trkpt lat="41.55505" lon="1.9094">
        <ele>278</ele>
        <time>2021-04-11 09:18:43</time>
      </trkpt>
      <trkpt lat="41.5551" lon="1.90941">
        <ele>278</ele>
        <time>2021-04-11 09:18:44</time>
      </trkpt>
      <trkpt lat="41.55516" lon="1.90942">
        <ele>278.2</ele>
        <time>2021-04-11 09:18:45</time>
      </trkpt>
      <trkpt lat="41.55521" lon="1.90944">
        <ele>278.2</ele>
        <time>2021-04-11 09:18:46</time>
      </trkpt>
      <trkpt lat="41.55527" lon="1.90946">
        <ele>278.4</ele>
        <time>2021-04-11 09:18:47</time>
      </trkpt>
      <trkpt lat="41.55532" lon="1.90948">
        <ele>278.4</ele>
        <time>2021-04-11 09:18:48</time>
      </trkpt>
      <trkpt lat="41.55538" lon="1.9095">
        <ele>278.6</ele>
        <time>2021-04-11 09:18:49</time>
      </trkpt>
      <trkpt lat="41.55543" lon="1.90951">
        <ele>278.6</ele>
        <time>2021-04-11 09:18:50</time>
      </trkpt>
      <trkpt lat="41.55549" lon="1.90953">
        <ele>278.6</ele>
        <time>2021-04-11 09:18:51</time>
      </trkpt>
      <trkpt lat="41.55554" lon="1.90953">
        <ele>278.8</ele>
        <time>2021-04-11 09:18:52</time>
      </trkpt>
      <trkpt lat="41.5556" lon="1.90954">
        <ele>279</ele>
        <time>2021-04-11 09:18:53</time>
      </trkpt>
      <trkpt lat="41.55565" lon="1.90954">
        <ele>279</ele>
        <time>2021-04-11 09:18:54</time>
      </trkpt>
      <trkpt lat="41.5557" lon="1.90955">
        <ele>279.2</ele>
        <time>2021-04-11 09:18:55</time>
      </trkpt>
      <trkpt lat="41.55576" lon="1.90956">
        <ele>279.2</ele>
        <time>2021-04-11 09:18:56</time>
      </trkpt>
      <trkpt lat="41.55581" lon="1.90958">
        <ele>279.4</ele>
        <time>2021-04-11 09:18:57</time>
      </trkpt>
      <trkpt lat="41.55586" lon="1.90961">
        <ele>279.4</ele>
        <time>2021-04-11 09:18:58</time>
      </trkpt>
      <trkpt lat="41.5559" lon="1.90965">
        <ele>279.6</ele>
        <time>2021-04-11 09:18:59</time>
      </trkpt>
      <trkpt lat="41.55594" lon="1.90969">
        <ele>279.6</ele>
        <time>2021-04-11 09:19:00</time>
      </trkpt>
      <trkpt lat="41.55598" lon="1.90974">
        <ele>279.8</ele>
        <time>2021-04-11 09:19:01</time>
      </trkpt>
      <trkpt lat="41.55601" lon="1.9098">
        <ele>280.2</ele>
        <time>2021-04-11 09:19:02</time>
      </trkpt>
      <trkpt lat="41.55602" lon="1.90986">
        <ele>280.4</ele>
        <time>2021-04-11 09:19:03</time>
      </trkpt>
      <trkpt lat="41.55604" lon="1.90992">
        <ele>280.8</ele>
        <time>2021-04-11 09:19:04</time>
      </trkpt>
      <trkpt lat="41.55604" lon="1.90997">
        <ele>281</ele>
        <time>2021-04-11 09:19:05</time>
      </trkpt>
      <trkpt lat="41.55604" lon="1.91003">
        <ele>281.4</ele>
        <time>2021-04-11 09:19:06</time>
      </trkpt>
      <trkpt lat="41.55603" lon="1.9101">
        <ele>281.6</ele>
        <time>2021-04-11 09:19:07</time>
      </trkpt>
      <trkpt lat="41.55602" lon="1.91015">
        <ele>282</ele>
        <time>2021-04-11 09:19:08</time>
      </trkpt>
      <trkpt lat="41.556" lon="1.9102">
        <ele>282.2</ele>
        <time>2021-04-11 09:19:09</time>
      </trkpt>
      <trkpt lat="41.55598" lon="1.91025">
        <ele>282.6</ele>
        <time>2021-04-11 09:19:10</time>
      </trkpt>
      <trkpt lat="41.55595" lon="1.9103">
        <ele>283</ele>
        <time>2021-04-11 09:19:11</time>
      </trkpt>
      <trkpt lat="41.55592" lon="1.91034">
        <ele>283.4</ele>
        <time>2021-04-11 09:19:12</time>
      </trkpt>
      <trkpt lat="41.5559" lon="1.91038">
        <ele>283.6</ele>
        <time>2021-04-11 09:19:13</time>
      </trkpt>
      <trkpt lat="41.55586" lon="1.91042">
        <ele>284</ele>
        <time>2021-04-11 09:19:14</time>
      </trkpt>
      <trkpt lat="41.55584" lon="1.91046">
        <ele>284.4</ele>
        <time>2021-04-11 09:19:15</time>
      </trkpt>
      <trkpt lat="41.55581" lon="1.9105">
        <ele>284.8</ele>
        <time>2021-04-11 09:19:16</time>
      </trkpt>
      <trkpt lat="41.55578" lon="1.91053">
        <ele>285.2</ele>
        <time>2021-04-11 09:19:17</time>
      </trkpt>
      <trkpt lat="41.55575" lon="1.91057">
        <ele>285.4</ele>
        <time>2021-04-11 09:19:18</time>
      </trkpt>
      <trkpt lat="41.55572" lon="1.91061">
        <ele>285.8</ele>
        <time>2021-04-11 09:19:19</time>
      </trkpt>
      <trkpt lat="41.55568" lon="1.91064">
        <ele>286.2</ele>
        <time>2021-04-11 09:19:20</time>
      </trkpt>
      <trkpt lat="41.55565" lon="1.91068">
        <ele>286.6</ele>
        <time>2021-04-11 09:19:21</time>
      </trkpt>
      <trkpt lat="41.55563" lon="1.91071">
        <ele>287</ele>
        <time>2021-04-11 09:19:22</time>
      </trkpt>
      <trkpt lat="41.5556" lon="1.91075">
        <ele>287.2</ele>
        <time>2021-04-11 09:19:23</time>
      </trkpt>
      <trkpt lat="41.55557" lon="1.91078">
        <ele>287.6</ele>
        <time>2021-04-11 09:19:24</time>
      </trkpt>
      <trkpt lat="41.55554" lon="1.91081">
        <ele>288</ele>
        <time>2021-04-11 09:19:25</time>
      </trkpt>
      <trkpt lat="41.55552" lon="1.91085">
        <ele>288.2</ele>
        <time>2021-04-11 09:19:26</time>
      </trkpt>
      <trkpt lat="41.55549" lon="1.91089">
        <ele>288.6</ele>
        <time>2021-04-11 09:19:27</time>
      </trkpt>
      <trkpt lat="41.55546" lon="1.91093">
        <ele>288.8</ele>
        <time>2021-04-11 09:19:28</time>
      </trkpt>
      <trkpt lat="41.55544" lon="1.91097">
        <ele>289.2</ele>
        <time>2021-04-11 09:19:29</time>
      </trkpt>
      <trkpt lat="41.55542" lon="1.91102">
        <ele>289.6</ele>
        <time>2021-04-11 09:19:30</time>
      </trkpt>
      <trkpt lat="41.5554" lon="1.91106">
        <ele>290</ele>
        <time>2021-04-11 09:19:31</time>
      </trkpt>
      <trkpt lat="41.5554" lon="1.91111">
        <ele>290.2</ele>
        <time>2021-04-11 09:19:32</time>
      </trkpt>
      <trkpt lat="41.55539" lon="1.91116">
        <ele>290.6</ele>
        <time>2021-04-11 09:19:33</time>
      </trkpt>
      <trkpt lat="41.55539" lon="1.91121">
        <ele>291</ele>
        <time>2021-04-11 09:19:34</time>
      </trkpt>
      <trkpt lat="41.55539" lon="1.91126">
        <ele>291.4</ele>
        <time>2021-04-11 09:19:35</time>
      </trkpt>
      <trkpt lat="41.5554" lon="1.91131">
        <ele>291.6</ele>
        <time>2021-04-11 09:19:36</time>
      </trkpt>
      <trkpt lat="41.55541" lon="1.91136">
        <ele>291.6</ele>
        <time>2021-04-11 09:19:37</time>
      </trkpt>
      <trkpt lat="41.55543" lon="1.9114">
        <ele>292</ele>
        <time>2021-04-11 09:19:38</time>
      </trkpt>
      <trkpt lat="41.55544" lon="1.91144">
        <ele>292.4</ele>
        <time>2021-04-11 09:19:39</time>
      </trkpt>
      <trkpt lat="41.55546" lon="1.91148">
        <ele>292.6</ele>
        <time>2021-04-11 09:19:40</time>
      </trkpt>
      <trkpt lat="41.55548" lon="1.91153">
        <ele>293</ele>
        <time>2021-04-11 09:19:41</time>
      </trkpt>
      <trkpt lat="41.55549" lon="1.91157">
        <ele>293.2</ele>
        <time>2021-04-11 09:19:42</time>
      </trkpt>
      <trkpt lat="41.55551" lon="1.91161">
        <ele>293.6</ele>
        <time>2021-04-11 09:19:43</time>
      </trkpt>
      <trkpt lat="41.55553" lon="1.91165">
        <ele>293.8</ele>
        <time>2021-04-11 09:19:44</time>
      </trkpt>
      <trkpt lat="41.55555" lon="1.91169">
        <ele>294.2</ele>
        <time>2021-04-11 09:19:45</time>
      </trkpt>
      <trkpt lat="41.55557" lon="1.91173">
        <ele>294.4</ele>
        <time>2021-04-11 09:19:46</time>
      </trkpt>
      <trkpt lat="41.55559" lon="1.91177">
        <ele>294.8</ele>
        <time>2021-04-11 09:19:47</time>
      </trkpt>
      <trkpt lat="41.55561" lon="1.91181">
        <ele>295</ele>
        <time>2021-04-11 09:19:48</time>
      </trkpt>
      <trkpt lat="41.55563" lon="1.91185">
        <ele>295.2</ele>
        <time>2021-04-11 09:19:49</time>
      </trkpt>
      <trkpt lat="41.55565" lon="1.91189">
        <ele>295.4</ele>
        <time>2021-04-11 09:19:50</time>
      </trkpt>
      <trkpt lat="41.55567" lon="1.91193">
        <ele>295.6</ele>
        <time>2021-04-11 09:19:51</time>
      </trkpt>
      <trkpt lat="41.55569" lon="1.91196">
        <ele>296</ele>
        <time>2021-04-11 09:19:52</time>
      </trkpt>
      <trkpt lat="41.55571" lon="1.912">
        <ele>296.2</ele>
        <time>2021-04-11 09:19:53</time>
      </trkpt>
      <trkpt lat="41.55573" lon="1.91203">
        <ele>296.4</ele>
        <time>2021-04-11 09:19:54</time>
      </trkpt>
      <trkpt lat="41.55575" lon="1.91207">
        <ele>296.8</ele>
        <time>2021-04-11 09:19:55</time>
      </trkpt>
      <trkpt lat="41.55578" lon="1.9121">
        <ele>297</ele>
        <time>2021-04-11 09:19:56</time>
      </trkpt>
      <trkpt lat="41.5558" lon="1.91214">
        <ele>297.2</ele>
        <time>2021-04-11 09:19:57</time>
      </trkpt>
      <trkpt lat="41.55583" lon="1.91217">
        <ele>297.6</ele>
        <time>2021-04-11 09:19:58</time>
      </trkpt>
      <trkpt lat="41.55585" lon="1.9122">
        <ele>297.8</ele>
        <time>2021-04-11 09:19:59</time>
      </trkpt>
      <trkpt lat="41.55588" lon="1.91223">
        <ele>298</ele>
        <time>2021-04-11 09:20:00</time>
      </trkpt>
      <trkpt lat="41.5559" lon="1.91226">
        <ele>298.2</ele>
        <time>2021-04-11 09:20:01</time>
      </trkpt>
      <trkpt lat="41.55592" lon="1.91228">
        <ele>298.4</ele>
        <time>2021-04-11 09:20:02</time>
      </trkpt>
      <trkpt lat="41.55595" lon="1.91232">
        <ele>298.8</ele>
        <time>2021-04-11 09:20:03</time>
      </trkpt>
      <trkpt lat="41.55597" lon="1.91235">
        <ele>299</ele>
        <time>2021-04-11 09:20:04</time>
      </trkpt>
      <trkpt lat="41.55599" lon="1.91238">
        <ele>299.2</ele>
        <time>2021-04-11 09:20:05</time>
      </trkpt>
      <trkpt lat="41.55602" lon="1.91241">
        <ele>299.4</ele>
        <time>2021-04-11 09:20:06</time>
      </trkpt>
      <trkpt lat="41.55604" lon="1.91245">
        <ele>299.6</ele>
        <time>2021-04-11 09:20:07</time>
      </trkpt>
      <trkpt lat="41.55606" lon="1.91248">
        <ele>300</ele>
        <time>2021-04-11 09:20:08</time>
      </trkpt>
      <trkpt lat="41.55608" lon="1.91251">
        <ele>300.2</ele>
        <time>2021-04-11 09:20:09</time>
      </trkpt>
      <trkpt lat="41.55609" lon="1.91255">
        <ele>300.4</ele>
        <time>2021-04-11 09:20:10</time>
      </trkpt>
      <trkpt lat="41.5561" lon="1.91259">
        <ele>300.6</ele>
        <time>2021-04-11 09:20:11</time>
      </trkpt>
      <trkpt lat="41.55611" lon="1.91263">
        <ele>301</ele>
        <time>2021-04-11 09:20:12</time>
      </trkpt>
      <trkpt lat="41.55612" lon="1.91267">
        <ele>301.2</ele>
        <time>2021-04-11 09:20:13</time>
      </trkpt>
      <trkpt lat="41.55613" lon="1.91272">
        <ele>301.6</ele>
        <time>2021-04-11 09:20:14</time>
      </trkpt>
      <trkpt lat="41.55613" lon="1.91276">
        <ele>301.8</ele>
        <time>2021-04-11 09:20:15</time>
      </trkpt>
      <trkpt lat="41.55613" lon="1.9128">
        <ele>302</ele>
        <time>2021-04-11 09:20:16</time>
      </trkpt>
      <trkpt lat="41.55613" lon="1.91285">
        <ele>302.4</ele>
        <time>2021-04-11 09:20:17</time>
      </trkpt>
      <trkpt lat="41.55614" lon="1.91289">
        <ele>302.6</ele>
        <time>2021-04-11 09:20:18</time>
      </trkpt>
      <trkpt lat="41.55614" lon="1.91294">
        <ele>302.8</ele>
        <time>2021-04-11 09:20:19</time>
      </trkpt>
      <trkpt lat="41.55615" lon="1.91299">
        <ele>303</ele>
        <time>2021-04-11 09:20:20</time>
      </trkpt>
      <trkpt lat="41.55615" lon="1.91303">
        <ele>303.2</ele>
        <time>2021-04-11 09:20:21</time>
      </trkpt>
      <trkpt lat="41.55615" lon="1.91308">
        <ele>303.6</ele>
        <time>2021-04-11 09:20:22</time>
      </trkpt>
      <trkpt lat="41.55615" lon="1.91312">
        <ele>303.8</ele>
        <time>2021-04-11 09:20:23</time>
      </trkpt>
      <trkpt lat="41.55616" lon="1.91317">
        <ele>304.2</ele>
        <time>2021-04-11 09:20:24</time>
      </trkpt>
      <trkpt lat="41.55616" lon="1.91321">
        <ele>304.4</ele>
        <time>2021-04-11 09:20:25</time>
      </trkpt>
      <trkpt lat="41.55616" lon="1.91325">
        <ele>304.6</ele>
        <time>2021-04-11 09:20:26</time>
      </trkpt>
      <trkpt lat="41.55616" lon="1.9133">
        <ele>305</ele>
        <time>2021-04-11 09:20:27</time>
      </trkpt>
      <trkpt lat="41.55616" lon="1.91334">
        <ele>305.2</ele>
        <time>2021-04-11 09:20:28</time>
      </trkpt>
      <trkpt lat="41.55616" lon="1.91338">
        <ele>305.4</ele>
        <time>2021-04-11 09:20:29</time>
      </trkpt>
      <trkpt lat="41.55617" lon="1.91343">
        <ele>305.8</ele>
        <time>2021-04-11 09:20:30</time>
      </trkpt>
      <trkpt lat="41.55617" lon="1.91347">
        <ele>306</ele>
        <time>2021-04-11 09:20:31</time>
      </trkpt>
      <trkpt lat="41.55618" lon="1.91352">
        <ele>306.2</ele>
        <time>2021-04-11 09:20:32</time>
      </trkpt>
      <trkpt lat="41.55618" lon="1.91357">
        <ele>306.4</ele>
        <time>2021-04-11 09:20:33</time>
      </trkpt>
      <trkpt lat="41.55619" lon="1.91361">
        <ele>306.8</ele>
        <time>2021-04-11 09:20:34</time>
      </trkpt>
      <trkpt lat="41.5562" lon="1.91366">
        <ele>307</ele>
        <time>2021-04-11 09:20:35</time>
      </trkpt>
      <trkpt lat="41.5562" lon="1.9137">
        <ele>307.2</ele>
        <time>2021-04-11 09:20:36</time>
      </trkpt>
      <trkpt lat="41.55621" lon="1.91374">
        <ele>307.6</ele>
        <time>2021-04-11 09:20:37</time>
      </trkpt>
      <trkpt lat="41.55623" lon="1.91378">
        <ele>307.8</ele>
        <time>2021-04-11 09:20:38</time>
      </trkpt>
      <trkpt lat="41.55624" lon="1.91382">
        <ele>308</ele>
        <time>2021-04-11 09:20:39</time>
      </trkpt>
      <trkpt lat="41.55626" lon="1.91386">
        <ele>308.4</ele>
        <time>2021-04-11 09:20:40</time>
      </trkpt>
      <trkpt lat="41.55628" lon="1.9139">
        <ele>308.6</ele>
        <time>2021-04-11 09:20:41</time>
      </trkpt>
      <trkpt lat="41.5563" lon="1.91393">
        <ele>309</ele>
        <time>2021-04-11 09:20:42</time>
      </trkpt>
      <trkpt lat="41.55632" lon="1.91397">
        <ele>309.2</ele>
        <time>2021-04-11 09:20:43</time>
      </trkpt>
      <trkpt lat="41.55634" lon="1.914">
        <ele>309.4</ele>
        <time>2021-04-11 09:20:44</time>
      </trkpt>
      <trkpt lat="41.55636" lon="1.91404">
        <ele>309.6</ele>
        <time>2021-04-11 09:20:45</time>
      </trkpt>
      <trkpt lat="41.55638" lon="1.91408">
        <ele>309.8</ele>
        <time>2021-04-11 09:20:46</time>
      </trkpt>
      <trkpt lat="41.55641" lon="1.91411">
        <ele>309.8</ele>
        <time>2021-04-11 09:20:47</time>
      </trkpt>
      <trkpt lat="41.55642" lon="1.91415">
        <ele>310</ele>
        <time>2021-04-11 09:20:48</time>
      </trkpt>
      <trkpt lat="41.55644" lon="1.91419">
        <ele>310.2</ele>
        <time>2021-04-11 09:20:49</time>
      </trkpt>
      <trkpt lat="41.55645" lon="1.91424">
        <ele>310.4</ele>
        <time>2021-04-11 09:20:50</time>
      </trkpt>
      <trkpt lat="41.55647" lon="1.91428">
        <ele>310.6</ele>
        <time>2021-04-11 09:20:51</time>
      </trkpt>
      <trkpt lat="41.55647" lon="1.91432">
        <ele>311</ele>
        <time>2021-04-11 09:20:52</time>
      </trkpt>
      <trkpt lat="41.55648" lon="1.91437">
        <ele>311.2</ele>
        <time>2021-04-11 09:20:53</time>
      </trkpt>
      <trkpt lat="41.55649" lon="1.91441">
        <ele>311.4</ele>
        <time>2021-04-11 09:20:54</time>
      </trkpt>
      <trkpt lat="41.5565" lon="1.91446">
        <ele>311.6</ele>
        <time>2021-04-11 09:20:55</time>
      </trkpt>
      <trkpt lat="41.5565" lon="1.9145">
        <ele>312</ele>
        <time>2021-04-11 09:20:56</time>
      </trkpt>
      <trkpt lat="41.55652" lon="1.91455">
        <ele>312.2</ele>
        <time>2021-04-11 09:20:57</time>
      </trkpt>
      <trkpt lat="41.55653" lon="1.91459">
        <ele>312.4</ele>
        <time>2021-04-11 09:20:58</time>
      </trkpt>
      <trkpt lat="41.55653" lon="1.91464">
        <ele>312.8</ele>
        <time>2021-04-11 09:20:59</time>
      </trkpt>
      <trkpt lat="41.55655" lon="1.91468">
        <ele>313</ele>
        <time>2021-04-11 09:21:00</time>
      </trkpt>
      <trkpt lat="41.55656" lon="1.91473">
        <ele>313.4</ele>
        <time>2021-04-11 09:21:01</time>
      </trkpt>
      <trkpt lat="41.55657" lon="1.91477">
        <ele>313.6</ele>
        <time>2021-04-11 09:21:02</time>
      </trkpt>
      <trkpt lat="41.55658" lon="1.91481">
        <ele>314</ele>
        <time>2021-04-11 09:21:03</time>
      </trkpt>
      <trkpt lat="41.55659" lon="1.91486">
        <ele>314.2</ele>
        <time>2021-04-11 09:21:04</time>
      </trkpt>
      <trkpt lat="41.5566" lon="1.9149">
        <ele>314.6</ele>
        <time>2021-04-11 09:21:05</time>
      </trkpt>
      <trkpt lat="41.55662" lon="1.91494">
        <ele>314.8</ele>
        <time>2021-04-11 09:21:06</time>
      </trkpt>
      <trkpt lat="41.55663" lon="1.91498">
        <ele>315</ele>
        <time>2021-04-11 09:21:07</time>
      </trkpt>
      <trkpt lat="41.55665" lon="1.91502">
        <ele>315.4</ele>
        <time>2021-04-11 09:21:08</time>
      </trkpt>
      <trkpt lat="41.55666" lon="1.91507">
        <ele>315.6</ele>
        <time>2021-04-11 09:21:09</time>
      </trkpt>
      <trkpt lat="41.55668" lon="1.91511">
        <ele>315.8</ele>
        <time>2021-04-11 09:21:10</time>
      </trkpt>
      <trkpt lat="41.55669" lon="1.91515">
        <ele>316.2</ele>
        <time>2021-04-11 09:21:11</time>
      </trkpt>
      <trkpt lat="41.5567" lon="1.91519">
        <ele>316.4</ele>
        <time>2021-04-11 09:21:12</time>
      </trkpt>
      <trkpt lat="41.55671" lon="1.91524">
        <ele>316.6</ele>
        <time>2021-04-11 09:21:13</time>
      </trkpt>
      <trkpt lat="41.55673" lon="1.91528">
        <ele>316.8</ele>
        <time>2021-04-11 09:21:14</time>
      </trkpt>
      <trkpt lat="41.55675" lon="1.91532">
        <ele>317</ele>
        <time>2021-04-11 09:21:15</time>
      </trkpt>
      <trkpt lat="41.55676" lon="1.91536">
        <ele>317.2</ele>
        <time>2021-04-11 09:21:16</time>
      </trkpt>
      <trkpt lat="41.55677" lon="1.91541">
        <ele>317.4</ele>
        <time>2021-04-11 09:21:17</time>
      </trkpt>
      <trkpt lat="41.55679" lon="1.91545">
        <ele>317.8</ele>
        <time>2021-04-11 09:21:18</time>
      </trkpt>
      <trkpt lat="41.5568" lon="1.91549">
        <ele>318</ele>
        <time>2021-04-11 09:21:19</time>
      </trkpt>
      <trkpt lat="41.55681" lon="1.91553">
        <ele>318.2</ele>
        <time>2021-04-11 09:21:20</time>
      </trkpt>
      <trkpt lat="41.55683" lon="1.91557">
        <ele>318.4</ele>
        <time>2021-04-11 09:21:21</time>
      </trkpt>
      <trkpt lat="41.55684" lon="1.91561">
        <ele>318.6</ele>
        <time>2021-04-11 09:21:22</time>
      </trkpt>
      <trkpt lat="41.55686" lon="1.91565">
        <ele>318.8</ele>
        <time>2021-04-11 09:21:23</time>
      </trkpt>
      <trkpt lat="41.55687" lon="1.91569">
        <ele>319.2</ele>
        <time>2021-04-11 09:21:24</time>
      </trkpt>
      <trkpt lat="41.55688" lon="1.91573">
        <ele>319.4</ele>
        <time>2021-04-11 09:21:25</time>
      </trkpt>
      <trkpt lat="41.55689" lon="1.91577">
        <ele>319.6</ele>
        <time>2021-04-11 09:21:26</time>
      </trkpt>
      <trkpt lat="41.5569" lon="1.91581">
        <ele>319.8</ele>
        <time>2021-04-11 09:21:27</time>
      </trkpt>
      <trkpt lat="41.55692" lon="1.91585">
        <ele>320.2</ele>
        <time>2021-04-11 09:21:28</time>
      </trkpt>
      <trkpt lat="41.55693" lon="1.91588">
        <ele>320.4</ele>
        <time>2021-04-11 09:21:29</time>
      </trkpt>
      <trkpt lat="41.55694" lon="1.91592">
        <ele>320.6</ele>
        <time>2021-04-11 09:21:30</time>
      </trkpt>
      <trkpt lat="41.55695" lon="1.91596">
        <ele>320.8</ele>
        <time>2021-04-11 09:21:31</time>
      </trkpt>
      <trkpt lat="41.55695" lon="1.916">
        <ele>321</ele>
        <time>2021-04-11 09:21:32</time>
      </trkpt>
      <trkpt lat="41.55696" lon="1.91605">
        <ele>321.4</ele>
        <time>2021-04-11 09:21:33</time>
      </trkpt>
      <trkpt lat="41.55697" lon="1.91609">
        <ele>321.6</ele>
        <time>2021-04-11 09:21:34</time>
      </trkpt>
      <trkpt lat="41.55697" lon="1.91613">
        <ele>321.8</ele>
        <time>2021-04-11 09:21:35</time>
      </trkpt>
      <trkpt lat="41.55697" lon="1.91616">
        <ele>322</ele>
        <time>2021-04-11 09:21:36</time>
      </trkpt>
      <trkpt lat="41.55698" lon="1.9162">
        <ele>322.2</ele>
        <time>2021-04-11 09:21:37</time>
      </trkpt>
      <trkpt lat="41.55698" lon="1.91623">
        <ele>322.6</ele>
        <time>2021-04-11 09:21:38</time>
      </trkpt>
      <trkpt lat="41.55698" lon="1.91627">
        <ele>322.8</ele>
        <time>2021-04-11 09:21:39</time>
      </trkpt>
      <trkpt lat="41.55698" lon="1.9163">
        <ele>323</ele>
        <time>2021-04-11 09:21:40</time>
      </trkpt>
      <trkpt lat="41.55697" lon="1.91633">
        <ele>323.2</ele>
        <time>2021-04-11 09:21:41</time>
      </trkpt>
      <trkpt lat="41.55696" lon="1.91636">
        <ele>323.4</ele>
        <time>2021-04-11 09:21:42</time>
      </trkpt>
      <trkpt lat="41.55695" lon="1.91638">
        <ele>323.4</ele>
        <time>2021-04-11 09:21:43</time>
      </trkpt>
      <trkpt lat="41.55694" lon="1.91641">
        <ele>323.6</ele>
        <time>2021-04-11 09:21:44</time>
      </trkpt>
      <trkpt lat="41.55693" lon="1.91643">
        <ele>323.8</ele>
        <time>2021-04-11 09:21:45</time>
      </trkpt>
      <trkpt lat="41.55692" lon="1.91645">
        <ele>324</ele>
        <time>2021-04-11 09:21:46</time>
      </trkpt>
      <trkpt lat="41.55691" lon="1.91648">
        <ele>324.2</ele>
        <time>2021-04-11 09:21:47</time>
      </trkpt>
      <trkpt lat="41.55691" lon="1.9165">
        <ele>324.2</ele>
        <time>2021-04-11 09:21:48</time>
      </trkpt>
      <trkpt lat="41.5569" lon="1.91652">
        <ele>324.4</ele>
        <time>2021-04-11 09:21:49</time>
      </trkpt>
      <trkpt lat="41.55689" lon="1.91654">
        <ele>324.6</ele>
        <time>2021-04-11 09:21:50</time>
      </trkpt>
      <trkpt lat="41.55688" lon="1.91656">
        <ele>324.6</ele>
        <time>2021-04-11 09:21:51</time>
      </trkpt>
      <trkpt lat="41.55687" lon="1.91659">
        <ele>324.8</ele>
        <time>2021-04-11 09:21:52</time>
      </trkpt>
      <trkpt lat="41.55686" lon="1.9166">
        <ele>325</ele>
        <time>2021-04-11 09:21:53</time>
      </trkpt>
      <trkpt lat="41.55685" lon="1.91662">
        <ele>325</ele>
        <time>2021-04-11 09:21:54</time>
      </trkpt>
      <trkpt lat="41.55684" lon="1.91663">
        <ele>325.2</ele>
        <time>2021-04-11 09:21:55</time>
      </trkpt>
      <trkpt lat="41.55683" lon="1.91665">
        <ele>325.4</ele>
        <time>2021-04-11 09:21:56</time>
      </trkpt>
      <trkpt lat="41.55682" lon="1.91666">
        <ele>325.4</ele>
        <time>2021-04-11 09:21:57</time>
      </trkpt>
      <trkpt lat="41.5568" lon="1.91667">
        <ele>325.6</ele>
        <time>2021-04-11 09:21:58</time>
      </trkpt>
      <trkpt lat="41.5568" lon="1.91669">
        <ele>325.6</ele>
        <time>2021-04-11 09:21:59</time>
      </trkpt>
      <trkpt lat="41.55679" lon="1.91671">
        <ele>325.8</ele>
        <time>2021-04-11 09:22:00</time>
      </trkpt>
      <trkpt lat="41.5567" lon="1.91674">
        <ele>326.4</ele>
        <time>2021-04-11 09:24:25</time>
      </trkpt>
      <trkpt lat="41.55669" lon="1.91675">
        <ele>326.4</ele>
        <time>2021-04-11 09:24:26</time>
      </trkpt>
      <trkpt lat="41.55667" lon="1.91675">
        <ele>326.4</ele>
        <time>2021-04-11 09:24:27</time>
      </trkpt>
      <trkpt lat="41.55665" lon="1.91675">
        <ele>326.6</ele>
        <time>2021-04-11 09:24:28</time>
      </trkpt>
      <trkpt lat="41.55663" lon="1.91675">
        <ele>326.6</ele>
        <time>2021-04-11 09:24:29</time>
      </trkpt>
      <trkpt lat="41.55661" lon="1.91675">
        <ele>326.8</ele>
        <time>2021-04-11 09:24:30</time>
      </trkpt>
      <trkpt lat="41.55659" lon="1.91675">
        <ele>327</ele>
        <time>2021-04-11 09:24:31</time>
      </trkpt>
      <trkpt lat="41.55657" lon="1.91675">
        <ele>327.2</ele>
        <time>2021-04-11 09:24:32</time>
      </trkpt>
      <trkpt lat="41.55655" lon="1.91675">
        <ele>327.4</ele>
        <time>2021-04-11 09:24:33</time>
      </trkpt>
      <trkpt lat="41.55653" lon="1.91674">
        <ele>327.8</ele>
        <time>2021-04-11 09:24:34</time>
      </trkpt>
      <trkpt lat="41.55651" lon="1.91674">
        <ele>328</ele>
        <time>2021-04-11 09:24:35</time>
      </trkpt>
      <trkpt lat="41.55649" lon="1.91675">
        <ele>328.2</ele>
        <time>2021-04-11 09:24:36</time>
      </trkpt>
      <trkpt lat="41.55648" lon="1.91675">
        <ele>328.6</ele>
        <time>2021-04-11 09:24:37</time>
      </trkpt>
      <trkpt lat="41.55646" lon="1.91675">
        <ele>328.8</ele>
        <time>2021-04-11 09:24:38</time>
      </trkpt>
      <trkpt lat="41.55644" lon="1.91675">
        <ele>329.2</ele>
        <time>2021-04-11 09:24:39</time>
      </trkpt>
      <trkpt lat="41.55642" lon="1.91675">
        <ele>329.4</ele>
        <time>2021-04-11 09:24:40</time>
      </trkpt>
      <trkpt lat="41.5564" lon="1.91676">
        <ele>329.8</ele>
        <time>2021-04-11 09:24:41</time>
      </trkpt>
      <trkpt lat="41.55638" lon="1.91676">
        <ele>330</ele>
        <time>2021-04-11 09:24:42</time>
      </trkpt>
      <trkpt lat="41.55637" lon="1.91676">
        <ele>330.4</ele>
        <time>2021-04-11 09:24:43</time>
      </trkpt>
      <trkpt lat="41.55635" lon="1.91677">
        <ele>330.6</ele>
        <time>2021-04-11 09:24:44</time>
      </trkpt>
      <trkpt lat="41.55633" lon="1.91677">
        <ele>331</ele>
        <time>2021-04-11 09:24:45</time>
      </trkpt>
      <trkpt lat="41.55631" lon="1.91678">
        <ele>331.4</ele>
        <time>2021-04-11 09:24:46</time>
      </trkpt>
      <trkpt lat="41.55629" lon="1.91678">
        <ele>331.6</ele>
        <time>2021-04-11 09:24:47</time>
      </trkpt>
      <trkpt lat="41.55627" lon="1.91678">
        <ele>332</ele>
        <time>2021-04-11 09:24:48</time>
      </trkpt>
      <trkpt lat="41.55625" lon="1.91679">
        <ele>332.2</ele>
        <time>2021-04-11 09:24:49</time>
      </trkpt>
      <trkpt lat="41.55624" lon="1.91679">
        <ele>332.6</ele>
        <time>2021-04-11 09:24:50</time>
      </trkpt>
      <trkpt lat="41.55622" lon="1.9168">
        <ele>332.8</ele>
        <time>2021-04-11 09:24:51</time>
      </trkpt>
      <trkpt lat="41.5562" lon="1.9168">
        <ele>333.2</ele>
        <time>2021-04-11 09:24:52</time>
      </trkpt>
      <trkpt lat="41.55619" lon="1.9168">
        <ele>333.4</ele>
        <time>2021-04-11 09:24:53</time>
      </trkpt>
      <trkpt lat="41.55617" lon="1.91681">
        <ele>333.6</ele>
        <time>2021-04-11 09:24:54</time>
      </trkpt>
      <trkpt lat="41.55615" lon="1.91682">
        <ele>334</ele>
        <time>2021-04-11 09:24:55</time>
      </trkpt>
      <trkpt lat="41.55613" lon="1.91682">
        <ele>334.4</ele>
        <time>2021-04-11 09:24:56</time>
      </trkpt>
      <trkpt lat="41.55611" lon="1.91682">
        <ele>334.6</ele>
        <time>2021-04-11 09:24:57</time>
      </trkpt>
      <trkpt lat="41.55609" lon="1.91682">
        <ele>335</ele>
        <time>2021-04-11 09:24:58</time>
      </trkpt>
      <trkpt lat="41.55607" lon="1.91683">
        <ele>335.2</ele>
        <time>2021-04-11 09:24:59</time>
      </trkpt>
      <trkpt lat="41.55606" lon="1.91683">
        <ele>335.6</ele>
        <time>2021-04-11 09:25:00</time>
      </trkpt>
      <trkpt lat="41.55604" lon="1.91683">
        <ele>335.8</ele>
        <time>2021-04-11 09:25:01</time>
      </trkpt>
      <trkpt lat="41.55602" lon="1.91683">
        <ele>336.2</ele>
        <time>2021-04-11 09:25:02</time>
      </trkpt>
      <trkpt lat="41.556" lon="1.91684">
        <ele>336.4</ele>
        <time>2021-04-11 09:25:03</time>
      </trkpt>
      <trkpt lat="41.55598" lon="1.91684">
        <ele>336.8</ele>
        <time>2021-04-11 09:25:04</time>
      </trkpt>
      <trkpt lat="41.55596" lon="1.91685">
        <ele>337</ele>
        <time>2021-04-11 09:25:05</time>
      </trkpt>
      <trkpt lat="41.55595" lon="1.91686">
        <ele>337.4</ele>
        <time>2021-04-11 09:25:06</time>
      </trkpt>
      <trkpt lat="41.55593" lon="1.91686">
        <ele>337.8</ele>
        <time>2021-04-11 09:25:07</time>
      </trkpt>
      <trkpt lat="41.55591" lon="1.91686">
        <ele>338</ele>
        <time>2021-04-11 09:25:08</time>
      </trkpt>
      <trkpt lat="41.55589" lon="1.91687">
        <ele>338.4</ele>
        <time>2021-04-11 09:25:09</time>
      </trkpt>
      <trkpt lat="41.55587" lon="1.91687">
        <ele>338.6</ele>
        <time>2021-04-11 09:25:10</time>
      </trkpt>
      <trkpt lat="41.55585" lon="1.91687">
        <ele>339</ele>
        <time>2021-04-11 09:25:11</time>
      </trkpt>
      <trkpt lat="41.55584" lon="1.91687">
        <ele>339.2</ele>
        <time>2021-04-11 09:25:12</time>
      </trkpt>
      <trkpt lat="41.55582" lon="1.91687">
        <ele>339.4</ele>
        <time>2021-04-11 09:25:13</time>
      </trkpt>
      <trkpt lat="41.5558" lon="1.91688">
        <ele>339.6</ele>
        <time>2021-04-11 09:25:14</time>
      </trkpt>
      <trkpt lat="41.55578" lon="1.91688">
        <ele>339.8</ele>
        <time>2021-04-11 09:25:15</time>
      </trkpt>
      <trkpt lat="41.55575" lon="1.91688">
        <ele>340</ele>
        <time>2021-04-11 09:25:16</time>
      </trkpt>
      <trkpt lat="41.55574" lon="1.91688">
        <ele>340.2</ele>
        <time>2021-04-11 09:25:17</time>
      </trkpt>
      <trkpt lat="41.55571" lon="1.91688">
        <ele>340.4</ele>
        <time>2021-04-11 09:25:18</time>
      </trkpt>
      <trkpt lat="41.55569" lon="1.91688">
        <ele>340.6</ele>
        <time>2021-04-11 09:25:19</time>
      </trkpt>
      <trkpt lat="41.55567" lon="1.91687">
        <ele>340.8</ele>
        <time>2021-04-11 09:25:20</time>
      </trkpt>
      <trkpt lat="41.55565" lon="1.91687">
        <ele>340.8</ele>
        <time>2021-04-11 09:25:21</time>
      </trkpt>
      <trkpt lat="41.55563" lon="1.91687">
        <ele>341</ele>
        <time>2021-04-11 09:25:22</time>
      </trkpt>
      <trkpt lat="41.55561" lon="1.91686">
        <ele>341.2</ele>
        <time>2021-04-11 09:25:23</time>
      </trkpt>
      <trkpt lat="41.55559" lon="1.91686">
        <ele>341.4</ele>
        <time>2021-04-11 09:25:24</time>
      </trkpt>
      <trkpt lat="41.55557" lon="1.91685">
        <ele>341.6</ele>
        <time>2021-04-11 09:25:25</time>
      </trkpt>
      <trkpt lat="41.55555" lon="1.91685">
        <ele>341.8</ele>
        <time>2021-04-11 09:25:26</time>
      </trkpt>
      <trkpt lat="41.55553" lon="1.91684">
        <ele>342</ele>
        <time>2021-04-11 09:25:27</time>
      </trkpt>
      <trkpt lat="41.55551" lon="1.91683">
        <ele>342.2</ele>
        <time>2021-04-11 09:25:28</time>
      </trkpt>
      <trkpt lat="41.55549" lon="1.91682">
        <ele>342.4</ele>
        <time>2021-04-11 09:25:29</time>
      </trkpt>
      <trkpt lat="41.55547" lon="1.91681">
        <ele>342.6</ele>
        <time>2021-04-11 09:25:30</time>
      </trkpt>
      <trkpt lat="41.55545" lon="1.9168">
        <ele>342.8</ele>
        <time>2021-04-11 09:25:31</time>
      </trkpt>
      <trkpt lat="41.55544" lon="1.91679">
        <ele>343.2</ele>
        <time>2021-04-11 09:25:32</time>
      </trkpt>
      <trkpt lat="41.55542" lon="1.91678">
        <ele>343.4</ele>
        <time>2021-04-11 09:25:33</time>
      </trkpt>
      <trkpt lat="41.5554" lon="1.91676">
        <ele>343.6</ele>
        <time>2021-04-11 09:25:34</time>
      </trkpt>
      <trkpt lat="41.55539" lon="1.91674">
        <ele>343.8</ele>
        <time>2021-04-11 09:25:35</time>
      </trkpt>
      <trkpt lat="41.55538" lon="1.91672">
        <ele>344</ele>
        <time>2021-04-11 09:25:36</time>
      </trkpt>
      <trkpt lat="41.55537" lon="1.9167">
        <ele>344.2</ele>
        <time>2021-04-11 09:25:37</time>
      </trkpt>
      <trkpt lat="41.55536" lon="1.91667">
        <ele>344.6</ele>
        <time>2021-04-11 09:25:38</time>
      </trkpt>
      <trkpt lat="41.55535" lon="1.91664">
        <ele>344.8</ele>
        <time>2021-04-11 09:25:39</time>
      </trkpt>
      <trkpt lat="41.55534" lon="1.91662">
        <ele>345</ele>
        <time>2021-04-11 09:25:40</time>
      </trkpt>
      <trkpt lat="41.55534" lon="1.91659">
        <ele>345.2</ele>
        <time>2021-04-11 09:25:41</time>
      </trkpt>
      <trkpt lat="41.55533" lon="1.91656">
        <ele>345.4</ele>
        <time>2021-04-11 09:25:42</time>
      </trkpt>
      <trkpt lat="41.55532" lon="1.91653">
        <ele>345.6</ele>
        <time>2021-04-11 09:25:43</time>
      </trkpt>
      <trkpt lat="41.55531" lon="1.9165">
        <ele>345.8</ele>
        <time>2021-04-11 09:25:44</time>
      </trkpt>
      <trkpt lat="41.5553" lon="1.91647">
        <ele>346</ele>
        <time>2021-04-11 09:25:45</time>
      </trkpt>
      <trkpt lat="41.55529" lon="1.91645">
        <ele>346</ele>
        <time>2021-04-11 09:25:46</time>
      </trkpt>
      <trkpt lat="41.55527" lon="1.91642">
        <ele>346.2</ele>
        <time>2021-04-11 09:25:47</time>
      </trkpt>
      <trkpt lat="41.55526" lon="1.91639">
        <ele>346.2</ele>
        <time>2021-04-11 09:25:48</time>
      </trkpt>
      <trkpt lat="41.55524" lon="1.91636">
        <ele>346.4</ele>
        <time>2021-04-11 09:25:49</time>
      </trkpt>
      <trkpt lat="41.55523" lon="1.91633">
        <ele>346.4</ele>
        <time>2021-04-11 09:25:50</time>
      </trkpt>
      <trkpt lat="41.55521" lon="1.9163">
        <ele>346.4</ele>
        <time>2021-04-11 09:25:51</time>
      </trkpt>
      <trkpt lat="41.5552" lon="1.91627">
        <ele>346.6</ele>
        <time>2021-04-11 09:25:52</time>
      </trkpt>
      <trkpt lat="41.5552" lon="1.91624">
        <ele>346.6</ele>
        <time>2021-04-11 09:25:53</time>
      </trkpt>
      <trkpt lat="41.55519" lon="1.91621">
        <ele>346.8</ele>
        <time>2021-04-11 09:25:54</time>
      </trkpt>
      <trkpt lat="41.55518" lon="1.91617">
        <ele>346.8</ele>
        <time>2021-04-11 09:25:55</time>
      </trkpt>
      <trkpt lat="41.55518" lon="1.91613">
        <ele>347</ele>
        <time>2021-04-11 09:25:56</time>
      </trkpt>
      <trkpt lat="41.55518" lon="1.9161">
        <ele>347</ele>
        <time>2021-04-11 09:25:57</time>
      </trkpt>
      <trkpt lat="41.55517" lon="1.91607">
        <ele>347.2</ele>
        <time>2021-04-11 09:25:58</time>
      </trkpt>
      <trkpt lat="41.55516" lon="1.91604">
        <ele>347.4</ele>
        <time>2021-04-11 09:25:59</time>
      </trkpt>
      <trkpt lat="41.55515" lon="1.91601">
        <ele>347.8</ele>
        <time>2021-04-11 09:26:00</time>
      </trkpt>
      <trkpt lat="41.55514" lon="1.91599">
        <ele>348</ele>
        <time>2021-04-11 09:26:01</time>
      </trkpt>
      <trkpt lat="41.55512" lon="1.91598">
        <ele>348.2</ele>
        <time>2021-04-11 09:26:02</time>
      </trkpt>
      <trkpt lat="41.5551" lon="1.91597">
        <ele>348.6</ele>
        <time>2021-04-11 09:26:03</time>
      </trkpt>
      <trkpt lat="41.55508" lon="1.91598">
        <ele>348.8</ele>
        <time>2021-04-11 09:26:04</time>
      </trkpt>
      <trkpt lat="41.55507" lon="1.916">
        <ele>349</ele>
        <time>2021-04-11 09:26:05</time>
      </trkpt>
      <trkpt lat="41.55505" lon="1.91602">
        <ele>349.2</ele>
        <time>2021-04-11 09:26:06</time>
      </trkpt>
      <trkpt lat="41.55505" lon="1.91605">
        <ele>349.4</ele>
        <time>2021-04-11 09:26:07</time>
      </trkpt>
      <trkpt lat="41.55505" lon="1.91608">
        <ele>349.6</ele>
        <time>2021-04-11 09:26:08</time>
      </trkpt>
      <trkpt lat="41.55505" lon="1.91612">
        <ele>349.8</ele>
        <time>2021-04-11 09:26:09</time>
      </trkpt>
      <trkpt lat="41.55506" lon="1.91615">
        <ele>350</ele>
        <time>2021-04-11 09:26:10</time>
      </trkpt>
      <trkpt lat="41.55507" lon="1.91618">
        <ele>350.2</ele>
        <time>2021-04-11 09:26:11</time>
      </trkpt>
      <trkpt lat="41.55507" lon="1.91622">
        <ele>350.4</ele>
        <time>2021-04-11 09:26:12</time>
      </trkpt>
      <trkpt lat="41.55508" lon="1.91625">
        <ele>350.6</ele>
        <time>2021-04-11 09:26:13</time>
      </trkpt>
      <trkpt lat="41.55508" lon="1.91628">
        <ele>350.6</ele>
        <time>2021-04-11 09:26:14</time>
      </trkpt>
      <trkpt lat="41.55508" lon="1.91631">
        <ele>350.8</ele>
        <time>2021-04-11 09:26:15</time>
      </trkpt>
      <trkpt lat="41.55508" lon="1.91634">
        <ele>351</ele>
        <time>2021-04-11 09:26:16</time>
      </trkpt>
      <trkpt lat="41.55509" lon="1.91638">
        <ele>351.2</ele>
        <time>2021-04-11 09:26:17</time>
      </trkpt>
      <trkpt lat="41.5551" lon="1.91641">
        <ele>351.2</ele>
        <time>2021-04-11 09:26:18</time>
      </trkpt>
      <trkpt lat="41.5551" lon="1.91644">
        <ele>351.4</ele>
        <time>2021-04-11 09:26:19</time>
      </trkpt>
      <trkpt lat="41.55511" lon="1.91647">
        <ele>351.6</ele>
        <time>2021-04-11 09:26:20</time>
      </trkpt>
      <trkpt lat="41.55511" lon="1.91651">
        <ele>351.8</ele>
        <time>2021-04-11 09:26:21</time>
      </trkpt>
      <trkpt lat="41.55511" lon="1.91654">
        <ele>352.2</ele>
        <time>2021-04-11 09:26:22</time>
      </trkpt>
      <trkpt lat="41.55512" lon="1.91657">
        <ele>352.4</ele>
        <time>2021-04-11 09:26:23</time>
      </trkpt>
      <trkpt lat="41.55513" lon="1.9166">
        <ele>352.6</ele>
        <time>2021-04-11 09:26:24</time>
      </trkpt>
      <trkpt lat="41.55513" lon="1.91662">
        <ele>353</ele>
        <time>2021-04-11 09:26:25</time>
      </trkpt>
      <trkpt lat="41.55513" lon="1.91666">
        <ele>353.2</ele>
        <time>2021-04-11 09:26:26</time>
      </trkpt>
      <trkpt lat="41.55513" lon="1.91669">
        <ele>353.4</ele>
        <time>2021-04-11 09:26:27</time>
      </trkpt>
      <trkpt lat="41.55514" lon="1.91673">
        <ele>353.6</ele>
        <time>2021-04-11 09:26:28</time>
      </trkpt>
      <trkpt lat="41.55514" lon="1.91676">
        <ele>353.8</ele>
        <time>2021-04-11 09:26:29</time>
      </trkpt>
      <trkpt lat="41.55515" lon="1.9168">
        <ele>353.8</ele>
        <time>2021-04-11 09:26:30</time>
      </trkpt>
      <trkpt lat="41.55515" lon="1.91683">
        <ele>354</ele>
        <time>2021-04-11 09:26:31</time>
      </trkpt>
      <trkpt lat="41.55515" lon="1.91687">
        <ele>354.2</ele>
        <time>2021-04-11 09:26:32</time>
      </trkpt>
      <trkpt lat="41.55516" lon="1.9169">
        <ele>354.4</ele>
        <time>2021-04-11 09:26:33</time>
      </trkpt>
      <trkpt lat="41.55516" lon="1.91694">
        <ele>354.6</ele>
        <time>2021-04-11 09:26:34</time>
      </trkpt>
      <trkpt lat="41.55516" lon="1.91697">
        <ele>354.8</ele>
        <time>2021-04-11 09:26:35</time>
      </trkpt>
      <trkpt lat="41.55517" lon="1.917">
        <ele>355</ele>
        <time>2021-04-11 09:26:36</time>
      </trkpt>
      <trkpt lat="41.55517" lon="1.91704">
        <ele>355.2</ele>
        <time>2021-04-11 09:26:37</time>
      </trkpt>
      <trkpt lat="41.55518" lon="1.91707">
        <ele>355.4</ele>
        <time>2021-04-11 09:26:38</time>
      </trkpt>
      <trkpt lat="41.55518" lon="1.91709">
        <ele>355.8</ele>
        <time>2021-04-11 09:26:39</time>
      </trkpt>
      <trkpt lat="41.55519" lon="1.91712">
        <ele>356</ele>
        <time>2021-04-11 09:26:40</time>
      </trkpt>
      <trkpt lat="41.5552" lon="1.91715">
        <ele>356.4</ele>
        <time>2021-04-11 09:26:41</time>
      </trkpt>
      <trkpt lat="41.55521" lon="1.91718">
        <ele>356.8</ele>
        <time>2021-04-11 09:26:42</time>
      </trkpt>
      <trkpt lat="41.55521" lon="1.9172">
        <ele>357.2</ele>
        <time>2021-04-11 09:26:43</time>
      </trkpt>
      <trkpt lat="41.55521" lon="1.91723">
        <ele>357.4</ele>
        <time>2021-04-11 09:26:44</time>
      </trkpt>
      <trkpt lat="41.55522" lon="1.91726">
        <ele>357.8</ele>
        <time>2021-04-11 09:26:45</time>
      </trkpt>
      <trkpt lat="41.55522" lon="1.91729">
        <ele>358.2</ele>
        <time>2021-04-11 09:26:46</time>
      </trkpt>
      <trkpt lat="41.55522" lon="1.91733">
        <ele>358.6</ele>
        <time>2021-04-11 09:26:47</time>
      </trkpt>
      <trkpt lat="41.55521" lon="1.91736">
        <ele>358.8</ele>
        <time>2021-04-11 09:26:48</time>
      </trkpt>
      <trkpt lat="41.55521" lon="1.91739">
        <ele>359.2</ele>
        <time>2021-04-11 09:26:49</time>
      </trkpt>
      <trkpt lat="41.5552" lon="1.91741">
        <ele>359.4</ele>
        <time>2021-04-11 09:26:50</time>
      </trkpt>
      <trkpt lat="41.55519" lon="1.91744">
        <ele>359.8</ele>
        <time>2021-04-11 09:26:51</time>
      </trkpt>
      <trkpt lat="41.55518" lon="1.91747">
        <ele>360</ele>
        <time>2021-04-11 09:26:52</time>
      </trkpt>
      <trkpt lat="41.55517" lon="1.9175">
        <ele>360.4</ele>
        <time>2021-04-11 09:26:53</time>
      </trkpt>
      <trkpt lat="41.55515" lon="1.91752">
        <ele>360.6</ele>
        <time>2021-04-11 09:26:54</time>
      </trkpt>
      <trkpt lat="41.55514" lon="1.91754">
        <ele>360.8</ele>
        <time>2021-04-11 09:26:55</time>
      </trkpt>
      <trkpt lat="41.55512" lon="1.91757">
        <ele>361</ele>
        <time>2021-04-11 09:26:56</time>
      </trkpt>
      <trkpt lat="41.5551" lon="1.91759">
        <ele>361.2</ele>
        <time>2021-04-11 09:26:57</time>
      </trkpt>
      <trkpt lat="41.55509" lon="1.91761">
        <ele>361.4</ele>
        <time>2021-04-11 09:26:58</time>
      </trkpt>
      <trkpt lat="41.55507" lon="1.91764">
        <ele>361.6</ele>
        <time>2021-04-11 09:26:59</time>
      </trkpt>
      <trkpt lat="41.55505" lon="1.91766">
        <ele>361.8</ele>
        <time>2021-04-11 09:27:00</time>
      </trkpt>
      <trkpt lat="41.55503" lon="1.91768">
        <ele>362.2</ele>
        <time>2021-04-11 09:27:01</time>
      </trkpt>
      <trkpt lat="41.55502" lon="1.9177">
        <ele>362.4</ele>
        <time>2021-04-11 09:27:02</time>
      </trkpt>
      <trkpt lat="41.55501" lon="1.91772">
        <ele>362.6</ele>
        <time>2021-04-11 09:27:03</time>
      </trkpt>
      <trkpt lat="41.555" lon="1.91775">
        <ele>363</ele>
        <time>2021-04-11 09:27:04</time>
      </trkpt>
      <trkpt lat="41.55498" lon="1.91777">
        <ele>363.2</ele>
        <time>2021-04-11 09:27:05</time>
      </trkpt>
      <trkpt lat="41.55497" lon="1.9178">
        <ele>363.6</ele>
        <time>2021-04-11 09:27:06</time>
      </trkpt>
      <trkpt lat="41.55496" lon="1.91782">
        <ele>363.8</ele>
        <time>2021-04-11 09:27:07</time>
      </trkpt>
      <trkpt lat="41.55495" lon="1.91784">
        <ele>364.2</ele>
        <time>2021-04-11 09:27:08</time>
      </trkpt>
      <trkpt lat="41.55494" lon="1.91786">
        <ele>364.6</ele>
        <time>2021-04-11 09:27:09</time>
      </trkpt>
      <trkpt lat="41.55492" lon="1.91789">
        <ele>365</ele>
        <time>2021-04-11 09:27:10</time>
      </trkpt>
      <trkpt lat="41.55491" lon="1.91791">
        <ele>365.4</ele>
        <time>2021-04-11 09:27:11</time>
      </trkpt>
      <trkpt lat="41.5549" lon="1.91793">
        <ele>365.6</ele>
        <time>2021-04-11 09:27:12</time>
      </trkpt>
      <trkpt lat="41.55489" lon="1.91795">
        <ele>366</ele>
        <time>2021-04-11 09:27:13</time>
      </trkpt>
      <trkpt lat="41.55487" lon="1.91797">
        <ele>366.4</ele>
        <time>2021-04-11 09:27:14</time>
      </trkpt>
      <trkpt lat="41.55485" lon="1.91799">
        <ele>366.8</ele>
        <time>2021-04-11 09:27:15</time>
      </trkpt>
      <trkpt lat="41.55484" lon="1.91801">
        <ele>367.2</ele>
        <time>2021-04-11 09:27:16</time>
      </trkpt>
      <trkpt lat="41.55482" lon="1.91803">
        <ele>367.4</ele>
        <time>2021-04-11 09:27:17</time>
      </trkpt>
      <trkpt lat="41.5548" lon="1.91805">
        <ele>367.8</ele>
        <time>2021-04-11 09:27:18</time>
      </trkpt>
      <trkpt lat="41.55478" lon="1.91805">
        <ele>368.2</ele>
        <time>2021-04-11 09:27:19</time>
      </trkpt>
      <trkpt lat="41.55476" lon="1.91806">
        <ele>368.4</ele>
        <time>2021-04-11 09:27:20</time>
      </trkpt>
      <trkpt lat="41.55474" lon="1.91807">
        <ele>368.8</ele>
        <time>2021-04-11 09:27:21</time>
      </trkpt>
      <trkpt lat="41.55472" lon="1.91808">
        <ele>369</ele>
        <time>2021-04-11 09:27:22</time>
      </trkpt>
      <trkpt lat="41.55469" lon="1.91809">
        <ele>369.4</ele>
        <time>2021-04-11 09:27:23</time>
      </trkpt>
      <trkpt lat="41.55468" lon="1.9181">
        <ele>369.6</ele>
        <time>2021-04-11 09:27:24</time>
      </trkpt>
      <trkpt lat="41.55465" lon="1.9181">
        <ele>369.8</ele>
        <time>2021-04-11 09:27:25</time>
      </trkpt>
      <trkpt lat="41.55463" lon="1.91811">
        <ele>370</ele>
        <time>2021-04-11 09:27:26</time>
      </trkpt>
      <trkpt lat="41.55461" lon="1.91812">
        <ele>370.2</ele>
        <time>2021-04-11 09:27:27</time>
      </trkpt>
      <trkpt lat="41.55459" lon="1.91812">
        <ele>370.2</ele>
        <time>2021-04-11 09:27:28</time>
      </trkpt>
      <trkpt lat="41.55457" lon="1.91813">
        <ele>370.4</ele>
        <time>2021-04-11 09:27:29</time>
      </trkpt>
      <trkpt lat="41.55454" lon="1.91814">
        <ele>370.4</ele>
        <time>2021-04-11 09:27:30</time>
      </trkpt>
      <trkpt lat="41.55451" lon="1.91814">
        <ele>370.6</ele>
        <time>2021-04-11 09:27:31</time>
      </trkpt>
      <trkpt lat="41.55449" lon="1.91815">
        <ele>370.6</ele>
        <time>2021-04-11 09:27:32</time>
      </trkpt>
      <trkpt lat="41.55447" lon="1.91815">
        <ele>370.8</ele>
        <time>2021-04-11 09:27:33</time>
      </trkpt>
      <trkpt lat="41.55445" lon="1.91817">
        <ele>370.8</ele>
        <time>2021-04-11 09:27:34</time>
      </trkpt>
      <trkpt lat="41.55442" lon="1.91818">
        <ele>371</ele>
        <time>2021-04-11 09:27:35</time>
      </trkpt>
      <trkpt lat="41.5544" lon="1.9182">
        <ele>371</ele>
        <time>2021-04-11 09:27:36</time>
      </trkpt>
      <trkpt lat="41.55439" lon="1.91821">
        <ele>371.2</ele>
        <time>2021-04-11 09:27:37</time>
      </trkpt>
      <trkpt lat="41.55436" lon="1.91822">
        <ele>371.4</ele>
        <time>2021-04-11 09:27:38</time>
      </trkpt>
      <trkpt lat="41.55434" lon="1.91824">
        <ele>371.4</ele>
        <time>2021-04-11 09:27:39</time>
      </trkpt>
      <trkpt lat="41.55432" lon="1.91825">
        <ele>371.6</ele>
        <time>2021-04-11 09:27:40</time>
      </trkpt>
      <trkpt lat="41.5543" lon="1.91827">
        <ele>371.8</ele>
        <time>2021-04-11 09:27:41</time>
      </trkpt>
      <trkpt lat="41.55427" lon="1.91828">
        <ele>372</ele>
        <time>2021-04-11 09:27:42</time>
      </trkpt>
      <trkpt lat="41.55425" lon="1.91829">
        <ele>372</ele>
        <time>2021-04-11 09:27:43</time>
      </trkpt>
      <trkpt lat="41.55423" lon="1.9183">
        <ele>372.2</ele>
        <time>2021-04-11 09:27:44</time>
      </trkpt>
      <trkpt lat="41.55421" lon="1.91832">
        <ele>372.4</ele>
        <time>2021-04-11 09:27:45</time>
      </trkpt>
      <trkpt lat="41.55418" lon="1.91833">
        <ele>372.6</ele>
        <time>2021-04-11 09:27:46</time>
      </trkpt>
      <trkpt lat="41.55417" lon="1.91834">
        <ele>372.6</ele>
        <time>2021-04-11 09:27:47</time>
      </trkpt>
      <trkpt lat="41.55414" lon="1.91836">
        <ele>372.8</ele>
        <time>2021-04-11 09:27:48</time>
      </trkpt>
      <trkpt lat="41.55413" lon="1.91838">
        <ele>373</ele>
        <time>2021-04-11 09:27:49</time>
      </trkpt>
      <trkpt lat="41.55411" lon="1.91839">
        <ele>373.2</ele>
        <time>2021-04-11 09:27:50</time>
      </trkpt>
      <trkpt lat="41.55408" lon="1.9184">
        <ele>373.2</ele>
        <time>2021-04-11 09:27:51</time>
      </trkpt>
      <trkpt lat="41.55406" lon="1.91842">
        <ele>373.4</ele>
        <time>2021-04-11 09:27:52</time>
      </trkpt>
      <trkpt lat="41.55403" lon="1.91843">
        <ele>373.6</ele>
        <time>2021-04-11 09:27:53</time>
      </trkpt>
      <trkpt lat="41.55401" lon="1.91845">
        <ele>373.6</ele>
        <time>2021-04-11 09:27:54</time>
      </trkpt>
      <trkpt lat="41.55398" lon="1.91846">
        <ele>373.8</ele>
        <time>2021-04-11 09:27:55</time>
      </trkpt>
      <trkpt lat="41.55396" lon="1.91848">
        <ele>374</ele>
        <time>2021-04-11 09:27:56</time>
      </trkpt>
      <trkpt lat="41.55394" lon="1.91849">
        <ele>374.2</ele>
        <time>2021-04-11 09:27:57</time>
      </trkpt>
      <trkpt lat="41.55391" lon="1.9185">
        <ele>374.4</ele>
        <time>2021-04-11 09:27:58</time>
      </trkpt>
      <trkpt lat="41.55388" lon="1.91851">
        <ele>374.4</ele>
        <time>2021-04-11 09:27:59</time>
      </trkpt>
      <trkpt lat="41.55386" lon="1.91852">
        <ele>374.6</ele>
        <time>2021-04-11 09:28:00</time>
      </trkpt>
      <trkpt lat="41.55383" lon="1.91854">
        <ele>374.8</ele>
        <time>2021-04-11 09:28:01</time>
      </trkpt>
      <trkpt lat="41.5538" lon="1.91855">
        <ele>374.8</ele>
        <time>2021-04-11 09:28:02</time>
      </trkpt>
      <trkpt lat="41.55377" lon="1.91856">
        <ele>375</ele>
        <time>2021-04-11 09:28:03</time>
      </trkpt>
      <trkpt lat="41.55374" lon="1.91856">
        <ele>375</ele>
        <time>2021-04-11 09:28:04</time>
      </trkpt>
      <trkpt lat="41.55371" lon="1.91857">
        <ele>375</ele>
        <time>2021-04-11 09:28:05</time>
      </trkpt>
      <trkpt lat="41.55368" lon="1.91859">
        <ele>375</ele>
        <time>2021-04-11 09:28:06</time>
      </trkpt>
      <trkpt lat="41.55365" lon="1.9186">
        <ele>375.2</ele>
        <time>2021-04-11 09:28:07</time>
      </trkpt>
      <trkpt lat="41.55361" lon="1.91861">
        <ele>375.2</ele>
        <time>2021-04-11 09:28:08</time>
      </trkpt>
      <trkpt lat="41.55358" lon="1.91862">
        <ele>375.2</ele>
        <time>2021-04-11 09:28:09</time>
      </trkpt>
      <trkpt lat="41.55355" lon="1.91863">
        <ele>375.4</ele>
        <time>2021-04-11 09:28:10</time>
      </trkpt>
      <trkpt lat="41.55352" lon="1.91864">
        <ele>375.6</ele>
        <time>2021-04-11 09:28:11</time>
      </trkpt>
      <trkpt lat="41.55349" lon="1.91866">
        <ele>375.6</ele>
        <time>2021-04-11 09:28:12</time>
      </trkpt>
      <trkpt lat="41.55345" lon="1.91867">
        <ele>375.8</ele>
        <time>2021-04-11 09:28:13</time>
      </trkpt>
      <trkpt lat="41.55342" lon="1.91868">
        <ele>376</ele>
        <time>2021-04-11 09:28:14</time>
      </trkpt>
      <trkpt lat="41.55339" lon="1.91869">
        <ele>376.2</ele>
        <time>2021-04-11 09:28:15</time>
      </trkpt>
      <trkpt lat="41.55337" lon="1.9187">
        <ele>376.4</ele>
        <time>2021-04-11 09:28:16</time>
      </trkpt>
      <trkpt lat="41.55334" lon="1.91872">
        <ele>376.6</ele>
        <time>2021-04-11 09:28:17</time>
      </trkpt>
      <trkpt lat="41.55331" lon="1.91874">
        <ele>376.8</ele>
        <time>2021-04-11 09:28:18</time>
      </trkpt>
      <trkpt lat="41.55328" lon="1.91875">
        <ele>377</ele>
        <time>2021-04-11 09:28:19</time>
      </trkpt>
      <trkpt lat="41.55326" lon="1.91877">
        <ele>377.2</ele>
        <time>2021-04-11 09:28:20</time>
      </trkpt>
      <trkpt lat="41.55322" lon="1.91879">
        <ele>377.4</ele>
        <time>2021-04-11 09:28:21</time>
      </trkpt>
      <trkpt lat="41.5532" lon="1.9188">
        <ele>377.8</ele>
        <time>2021-04-11 09:28:22</time>
      </trkpt>
      <trkpt lat="41.55318" lon="1.91882">
        <ele>378</ele>
        <time>2021-04-11 09:28:23</time>
      </trkpt>
      <trkpt lat="41.55315" lon="1.91884">
        <ele>378.2</ele>
        <time>2021-04-11 09:28:24</time>
      </trkpt>
      <trkpt lat="41.55313" lon="1.91886">
        <ele>378.2</ele>
        <time>2021-04-11 09:28:25</time>
      </trkpt>
      <trkpt lat="41.55311" lon="1.91888">
        <ele>378.4</ele>
        <time>2021-04-11 09:28:26</time>
      </trkpt>
      <trkpt lat="41.5531" lon="1.9189">
        <ele>378.6</ele>
        <time>2021-04-11 09:28:27</time>
      </trkpt>
      <trkpt lat="41.55308" lon="1.91892">
        <ele>378.6</ele>
        <time>2021-04-11 09:28:28</time>
      </trkpt>
      <trkpt lat="41.55307" lon="1.91894">
        <ele>378.8</ele>
        <time>2021-04-11 09:28:29</time>
      </trkpt>
      <trkpt lat="41.55305" lon="1.91896">
        <ele>378.8</ele>
        <time>2021-04-11 09:28:30</time>
      </trkpt>
      <trkpt lat="41.55303" lon="1.91898">
        <ele>378.8</ele>
        <time>2021-04-11 09:28:31</time>
      </trkpt>
      <trkpt lat="41.55301" lon="1.91899">
        <ele>378.8</ele>
        <time>2021-04-11 09:28:32</time>
      </trkpt>
      <trkpt lat="41.55299" lon="1.91901">
        <ele>378.8</ele>
        <time>2021-04-11 09:28:33</time>
      </trkpt>
      <trkpt lat="41.55297" lon="1.91903">
        <ele>378.8</ele>
        <time>2021-04-11 09:28:34</time>
      </trkpt>
      <trkpt lat="41.55295" lon="1.91905">
        <ele>378.8</ele>
        <time>2021-04-11 09:28:35</time>
      </trkpt>
      <trkpt lat="41.55294" lon="1.91907">
        <ele>378.8</ele>
        <time>2021-04-11 09:28:36</time>
      </trkpt>
      <trkpt lat="41.55292" lon="1.91909">
        <ele>378.8</ele>
        <time>2021-04-11 09:28:37</time>
      </trkpt>
      <trkpt lat="41.5529" lon="1.91911">
        <ele>378.8</ele>
        <time>2021-04-11 09:28:38</time>
      </trkpt>
      <trkpt lat="41.55288" lon="1.91913">
        <ele>378.8</ele>
        <time>2021-04-11 09:28:39</time>
      </trkpt>
      <trkpt lat="41.55286" lon="1.91915">
        <ele>378.8</ele>
        <time>2021-04-11 09:28:40</time>
      </trkpt>
      <trkpt lat="41.55284" lon="1.91917">
        <ele>378.8</ele>
        <time>2021-04-11 09:28:41</time>
      </trkpt>
      <trkpt lat="41.55282" lon="1.91919">
        <ele>378.8</ele>
        <time>2021-04-11 09:28:42</time>
      </trkpt>
      <trkpt lat="41.55281" lon="1.9192">
        <ele>378.8</ele>
        <time>2021-04-11 09:28:43</time>
      </trkpt>
      <trkpt lat="41.55279" lon="1.91922">
        <ele>378.8</ele>
        <time>2021-04-11 09:28:44</time>
      </trkpt>
      <trkpt lat="41.55278" lon="1.91924">
        <ele>378.8</ele>
        <time>2021-04-11 09:28:45</time>
      </trkpt>
      <trkpt lat="41.55276" lon="1.91926">
        <ele>378.8</ele>
        <time>2021-04-11 09:28:46</time>
      </trkpt>
      <trkpt lat="41.55274" lon="1.91927">
        <ele>378.8</ele>
        <time>2021-04-11 09:28:47</time>
      </trkpt>
      <trkpt lat="41.55272" lon="1.91928">
        <ele>379</ele>
        <time>2021-04-11 09:28:48</time>
      </trkpt>
      <trkpt lat="41.5527" lon="1.91929">
        <ele>379</ele>
        <time>2021-04-11 09:28:49</time>
      </trkpt>
      <trkpt lat="41.55269" lon="1.9193">
        <ele>379</ele>
        <time>2021-04-11 09:28:50</time>
      </trkpt>
      <trkpt lat="41.55266" lon="1.91931">
        <ele>379</ele>
        <time>2021-04-11 09:28:51</time>
      </trkpt>
      <trkpt lat="41.55264" lon="1.91932">
        <ele>379</ele>
        <time>2021-04-11 09:28:52</time>
      </trkpt>
      <trkpt lat="41.55262" lon="1.91932">
        <ele>379.2</ele>
        <time>2021-04-11 09:28:53</time>
      </trkpt>
      <trkpt lat="41.5526" lon="1.91932">
        <ele>379.2</ele>
        <time>2021-04-11 09:28:54</time>
      </trkpt>
      <trkpt lat="41.55258" lon="1.91932">
        <ele>379.2</ele>
        <time>2021-04-11 09:28:55</time>
      </trkpt>
      <trkpt lat="41.55256" lon="1.91933">
        <ele>379.4</ele>
        <time>2021-04-11 09:28:56</time>
      </trkpt>
      <trkpt lat="41.55253" lon="1.91933">
        <ele>379.4</ele>
        <time>2021-04-11 09:28:57</time>
      </trkpt>
      <trkpt lat="41.55251" lon="1.91933">
        <ele>379.6</ele>
        <time>2021-04-11 09:28:58</time>
      </trkpt>
      <trkpt lat="41.55249" lon="1.91933">
        <ele>379.6</ele>
        <time>2021-04-11 09:28:59</time>
      </trkpt>
      <trkpt lat="41.55247" lon="1.91934">
        <ele>379.6</ele>
        <time>2021-04-11 09:29:00</time>
      </trkpt>
      <trkpt lat="41.55245" lon="1.91934">
        <ele>379.8</ele>
        <time>2021-04-11 09:29:01</time>
      </trkpt>
      <trkpt lat="41.55242" lon="1.91934">
        <ele>379.8</ele>
        <time>2021-04-11 09:29:02</time>
      </trkpt>
      <trkpt lat="41.5524" lon="1.91934">
        <ele>380</ele>
        <time>2021-04-11 09:29:03</time>
      </trkpt>
      <trkpt lat="41.55238" lon="1.91933">
        <ele>380</ele>
        <time>2021-04-11 09:29:04</time>
      </trkpt>
      <trkpt lat="41.55236" lon="1.91933">
        <ele>380</ele>
        <time>2021-04-11 09:29:05</time>
      </trkpt>
      <trkpt lat="41.55234" lon="1.91933">
        <ele>380.2</ele>
        <time>2021-04-11 09:29:06</time>
      </trkpt>
      <trkpt lat="41.55232" lon="1.91933">
        <ele>380.2</ele>
        <time>2021-04-11 09:29:07</time>
      </trkpt>
      <trkpt lat="41.5523" lon="1.91933">
        <ele>380.2</ele>
        <time>2021-04-11 09:29:08</time>
      </trkpt>
      <trkpt lat="41.55228" lon="1.91933">
        <ele>380.2</ele>
        <time>2021-04-11 09:29:09</time>
      </trkpt>
      <trkpt lat="41.55225" lon="1.91932">
        <ele>380.2</ele>
        <time>2021-04-11 09:29:10</time>
      </trkpt>
      <trkpt lat="41.55222" lon="1.91932">
        <ele>380.2</ele>
        <time>2021-04-11 09:29:11</time>
      </trkpt>
      <trkpt lat="41.5522" lon="1.91932">
        <ele>380.2</ele>
        <time>2021-04-11 09:29:12</time>
      </trkpt>
      <trkpt lat="41.55219" lon="1.91932">
        <ele>380.4</ele>
        <time>2021-04-11 09:29:13</time>
      </trkpt>
      <trkpt lat="41.55219" lon="1.91933">
        <ele>380.4</ele>
        <time>2021-04-11 09:29:17</time>
      </trkpt>
      <trkpt lat="41.55219" lon="1.91934">
        <ele>380.4</ele>
        <time>2021-04-11 09:29:18</time>
      </trkpt>
      <trkpt lat="41.55221" lon="1.91934">
        <ele>380.4</ele>
        <time>2021-04-11 09:29:19</time>
      </trkpt>
      <trkpt lat="41.55222" lon="1.91935">
        <ele>380.4</ele>
        <time>2021-04-11 09:29:20</time>
      </trkpt>
      <trkpt lat="41.55225" lon="1.91935">
        <ele>380.4</ele>
        <time>2021-04-11 09:29:21</time>
      </trkpt>
      <trkpt lat="41.55228" lon="1.91935">
        <ele>380.4</ele>
        <time>2021-04-11 09:29:22</time>
      </trkpt>
      <trkpt lat="41.55232" lon="1.91936">
        <ele>380.4</ele>
        <time>2021-04-11 09:29:23</time>
      </trkpt>
      <trkpt lat="41.55236" lon="1.91936">
        <ele>380.2</ele>
        <time>2021-04-11 09:29:24</time>
      </trkpt>
      <trkpt lat="41.55241" lon="1.91935">
        <ele>380.2</ele>
        <time>2021-04-11 09:29:25</time>
      </trkpt>
      <trkpt lat="41.55245" lon="1.91935">
        <ele>380</ele>
        <time>2021-04-11 09:29:26</time>
      </trkpt>
      <trkpt lat="41.5525" lon="1.91935">
        <ele>379.8</ele>
        <time>2021-04-11 09:29:27</time>
      </trkpt>
      <trkpt lat="41.55255" lon="1.91934">
        <ele>379.6</ele>
        <time>2021-04-11 09:29:28</time>
      </trkpt>
      <trkpt lat="41.5526" lon="1.91933">
        <ele>379.4</ele>
        <time>2021-04-11 09:29:29</time>
      </trkpt>
      <trkpt lat="41.55264" lon="1.91932">
        <ele>379.2</ele>
        <time>2021-04-11 09:29:30</time>
      </trkpt>
      <trkpt lat="41.55269" lon="1.9193">
        <ele>379</ele>
        <time>2021-04-11 09:29:31</time>
      </trkpt>
      <trkpt lat="41.55274" lon="1.91927">
        <ele>378.8</ele>
        <time>2021-04-11 09:29:32</time>
      </trkpt>
      <trkpt lat="41.55278" lon="1.91923">
        <ele>378.8</ele>
        <time>2021-04-11 09:29:33</time>
      </trkpt>
      <trkpt lat="41.55281" lon="1.91921">
        <ele>378.8</ele>
        <time>2021-04-11 09:29:34</time>
      </trkpt>
      <trkpt lat="41.55283" lon="1.91919">
        <ele>378.8</ele>
        <time>2021-04-11 09:29:35</time>
      </trkpt>
      <trkpt lat="41.55284" lon="1.91917">
        <ele>378.8</ele>
        <time>2021-04-11 09:29:36</time>
      </trkpt>
      <trkpt lat="41.55286" lon="1.91916">
        <ele>378.8</ele>
        <time>2021-04-11 09:29:37</time>
      </trkpt>
      <trkpt lat="41.55286" lon="1.91916">
        <ele>378.8</ele>
        <time>2021-04-11 09:29:38</time>
      </trkpt>
      <trkpt lat="41.55286" lon="1.91916">
        <ele>378.8</ele>
        <time>2021-04-11 09:29:39</time>
      </trkpt>
      <trkpt lat="41.55286" lon="1.91916">
        <ele>378.8</ele>
        <time>2021-04-11 09:29:40</time>
      </trkpt>
      <trkpt lat="41.55286" lon="1.91916">
        <ele>378.8</ele>
        <time>2021-04-11 09:29:41</time>
      </trkpt>
      <trkpt lat="41.55279" lon="1.91922">
        <ele>378.8</ele>
        <time>2021-04-11 09:32:33</time>
      </trkpt>
      <trkpt lat="41.55277" lon="1.91923">
        <ele>378.8</ele>
        <time>2021-04-11 09:32:34</time>
      </trkpt>
      <trkpt lat="41.55276" lon="1.91925">
        <ele>378.8</ele>
        <time>2021-04-11 09:32:35</time>
      </trkpt>
      <trkpt lat="41.55274" lon="1.91926">
        <ele>378.8</ele>
        <time>2021-04-11 09:32:36</time>
      </trkpt>
      <trkpt lat="41.55273" lon="1.91928">
        <ele>378.8</ele>
        <time>2021-04-11 09:32:37</time>
      </trkpt>
      <trkpt lat="41.55271" lon="1.91929">
        <ele>378.8</ele>
        <time>2021-04-11 09:32:38</time>
      </trkpt>
      <trkpt lat="41.55268" lon="1.91931">
        <ele>378.8</ele>
        <time>2021-04-11 09:32:39</time>
      </trkpt>
      <trkpt lat="41.55266" lon="1.91932">
        <ele>379</ele>
        <time>2021-04-11 09:32:40</time>
      </trkpt>
      <trkpt lat="41.55264" lon="1.91932">
        <ele>379</ele>
        <time>2021-04-11 09:32:41</time>
      </trkpt>
      <trkpt lat="41.55261" lon="1.91933">
        <ele>379</ele>
        <time>2021-04-11 09:32:42</time>
      </trkpt>
      <trkpt lat="41.55258" lon="1.91933">
        <ele>379</ele>
        <time>2021-04-11 09:32:43</time>
      </trkpt>
      <trkpt lat="41.55255" lon="1.91934">
        <ele>379</ele>
        <time>2021-04-11 09:32:44</time>
      </trkpt>
      <trkpt lat="41.55252" lon="1.91934">
        <ele>379.2</ele>
        <time>2021-04-11 09:32:45</time>
      </trkpt>
      <trkpt lat="41.55249" lon="1.91935">
        <ele>379.2</ele>
        <time>2021-04-11 09:32:46</time>
      </trkpt>
      <trkpt lat="41.55245" lon="1.91935">
        <ele>379.4</ele>
        <time>2021-04-11 09:32:47</time>
      </trkpt>
      <trkpt lat="41.55242" lon="1.91935">
        <ele>379.4</ele>
        <time>2021-04-11 09:32:48</time>
      </trkpt>
      <trkpt lat="41.55238" lon="1.91935">
        <ele>379.6</ele>
        <time>2021-04-11 09:32:49</time>
      </trkpt>
      <trkpt lat="41.55236" lon="1.91935">
        <ele>379.6</ele>
        <time>2021-04-11 09:32:50</time>
      </trkpt>
      <trkpt lat="41.55232" lon="1.91934">
        <ele>379.6</ele>
        <time>2021-04-11 09:32:51</time>
      </trkpt>
      <trkpt lat="41.55229" lon="1.91934">
        <ele>379.8</ele>
        <time>2021-04-11 09:32:52</time>
      </trkpt>
      <trkpt lat="41.55225" lon="1.91933">
        <ele>379.8</ele>
        <time>2021-04-11 09:32:53</time>
      </trkpt>
      <trkpt lat="41.55221" lon="1.91933">
        <ele>379.8</ele>
        <time>2021-04-11 09:32:54</time>
      </trkpt>
      <trkpt lat="41.55216" lon="1.91932">
        <ele>379.8</ele>
        <time>2021-04-11 09:32:55</time>
      </trkpt>
      <trkpt lat="41.55212" lon="1.91932">
        <ele>379.8</ele>
        <time>2021-04-11 09:32:56</time>
      </trkpt>
      <trkpt lat="41.55207" lon="1.91931">
        <ele>379.6</ele>
        <time>2021-04-11 09:32:57</time>
      </trkpt>
      <trkpt lat="41.55202" lon="1.9193">
        <ele>379.6</ele>
        <time>2021-04-11 09:32:58</time>
      </trkpt>
      <trkpt lat="41.55198" lon="1.91928">
        <ele>379.6</ele>
        <time>2021-04-11 09:32:59</time>
      </trkpt>
      <trkpt lat="41.55193" lon="1.91926">
        <ele>379.4</ele>
        <time>2021-04-11 09:33:00</time>
      </trkpt>
      <trkpt lat="41.55188" lon="1.91924">
        <ele>379.4</ele>
        <time>2021-04-11 09:33:01</time>
      </trkpt>
      <trkpt lat="41.55183" lon="1.91922">
        <ele>379.2</ele>
        <time>2021-04-11 09:33:02</time>
      </trkpt>
      <trkpt lat="41.55178" lon="1.91919">
        <ele>379</ele>
        <time>2021-04-11 09:33:03</time>
      </trkpt>
      <trkpt lat="41.55173" lon="1.91917">
        <ele>378.8</ele>
        <time>2021-04-11 09:33:04</time>
      </trkpt>
      <trkpt lat="41.55166" lon="1.91913">
        <ele>378.6</ele>
        <time>2021-04-11 09:33:05</time>
      </trkpt>
      <trkpt lat="41.5516" lon="1.91911">
        <ele>378.4</ele>
        <time>2021-04-11 09:33:06</time>
      </trkpt>
      <trkpt lat="41.55154" lon="1.91908">
        <ele>378</ele>
        <time>2021-04-11 09:33:07</time>
      </trkpt>
      <trkpt lat="41.55147" lon="1.91906">
        <ele>377.6</ele>
        <time>2021-04-11 09:33:08</time>
      </trkpt>
      <trkpt lat="41.5514" lon="1.91905">
        <ele>377</ele>
        <time>2021-04-11 09:33:09</time>
      </trkpt>
      <trkpt lat="41.55131" lon="1.91904">
        <ele>376.4</ele>
        <time>2021-04-11 09:33:10</time>
      </trkpt>
      <trkpt lat="41.55122" lon="1.91903">
        <ele>375.6</ele>
        <time>2021-04-11 09:33:11</time>
      </trkpt>
      <trkpt lat="41.55112" lon="1.91901">
        <ele>374.6</ele>
        <time>2021-04-11 09:33:12</time>
      </trkpt>
      <trkpt lat="41.55102" lon="1.919">
        <ele>373.6</ele>
        <time>2021-04-11 09:33:13</time>
      </trkpt>
      <trkpt lat="41.55091" lon="1.91899">
        <ele>372.4</ele>
        <time>2021-04-11 09:33:14</time>
      </trkpt>
      <trkpt lat="41.55081" lon="1.919">
        <ele>371.4</ele>
        <time>2021-04-11 09:33:15</time>
      </trkpt>
      <trkpt lat="41.55067" lon="1.91901">
        <ele>370.6</ele>
        <time>2021-04-11 09:33:16</time>
      </trkpt>
      <trkpt lat="41.55056" lon="1.91901">
        <ele>370</ele>
        <time>2021-04-11 09:33:17</time>
      </trkpt>
      <trkpt lat="41.55044" lon="1.91902">
        <ele>369.6</ele>
        <time>2021-04-11 09:33:18</time>
      </trkpt>
      <trkpt lat="41.55035" lon="1.91903">
        <ele>369.4</ele>
        <time>2021-04-11 09:33:19</time>
      </trkpt>
      <trkpt lat="41.55026" lon="1.91904">
        <ele>369.4</ele>
        <time>2021-04-11 09:33:20</time>
      </trkpt>
      <trkpt lat="41.55018" lon="1.91905">
        <ele>369.8</ele>
        <time>2021-04-11 09:33:21</time>
      </trkpt>
      <trkpt lat="41.5501" lon="1.91906">
        <ele>370.4</ele>
        <time>2021-04-11 09:33:22</time>
      </trkpt>
      <trkpt lat="41.55004" lon="1.91907">
        <ele>371.2</ele>
        <time>2021-04-11 09:33:23</time>
      </trkpt>
      <trkpt lat="41.54997" lon="1.91908">
        <ele>371.8</ele>
        <time>2021-04-11 09:33:24</time>
      </trkpt>
      <trkpt lat="41.54991" lon="1.91909">
        <ele>372.2</ele>
        <time>2021-04-11 09:33:25</time>
      </trkpt>
      <trkpt lat="41.54985" lon="1.9191">
        <ele>372.6</ele>
        <time>2021-04-11 09:33:26</time>
      </trkpt>
      <trkpt lat="41.54979" lon="1.91911">
        <ele>372.6</ele>
        <time>2021-04-11 09:33:27</time>
      </trkpt>
      <trkpt lat="41.54972" lon="1.91912">
        <ele>372.6</ele>
        <time>2021-04-11 09:33:28</time>
      </trkpt>
      <trkpt lat="41.54966" lon="1.91913">
        <ele>372.4</ele>
        <time>2021-04-11 09:33:29</time>
      </trkpt>
      <trkpt lat="41.54959" lon="1.91913">
        <ele>372.2</ele>
        <time>2021-04-11 09:33:30</time>
      </trkpt>
      <trkpt lat="41.54952" lon="1.91913">
        <ele>372</ele>
        <time>2021-04-11 09:33:31</time>
      </trkpt>
      <trkpt lat="41.54945" lon="1.91911">
        <ele>371.6</ele>
        <time>2021-04-11 09:33:32</time>
      </trkpt>
      <trkpt lat="41.54938" lon="1.91909">
        <ele>371.4</ele>
        <time>2021-04-11 09:33:33</time>
      </trkpt>
      <trkpt lat="41.54932" lon="1.91905">
        <ele>371</ele>
        <time>2021-04-11 09:33:34</time>
      </trkpt>
      <trkpt lat="41.54926" lon="1.91899">
        <ele>370.8</ele>
        <time>2021-04-11 09:33:35</time>
      </trkpt>
      <trkpt lat="41.5492" lon="1.91893">
        <ele>370.2</ele>
        <time>2021-04-11 09:33:36</time>
      </trkpt>
      <trkpt lat="41.54914" lon="1.91885">
        <ele>369.8</ele>
        <time>2021-04-11 09:33:37</time>
      </trkpt>
      <trkpt lat="41.54908" lon="1.91878">
        <ele>369</ele>
        <time>2021-04-11 09:33:38</time>
      </trkpt>
      <trkpt lat="41.54902" lon="1.91869">
        <ele>368.2</ele>
        <time>2021-04-11 09:33:39</time>
      </trkpt>
      <trkpt lat="41.54895" lon="1.9186">
        <ele>367.4</ele>
        <time>2021-04-11 09:33:40</time>
      </trkpt>
      <trkpt lat="41.54888" lon="1.91852">
        <ele>366.4</ele>
        <time>2021-04-11 09:33:41</time>
      </trkpt>
      <trkpt lat="41.54878" lon="1.91845">
        <ele>365.6</ele>
        <time>2021-04-11 09:33:42</time>
      </trkpt>
      <trkpt lat="41.54868" lon="1.9184">
        <ele>364.6</ele>
        <time>2021-04-11 09:33:43</time>
      </trkpt>
      <trkpt lat="41.54858" lon="1.91839">
        <ele>363.6</ele>
        <time>2021-04-11 09:33:44</time>
      </trkpt>
      <trkpt lat="41.54846" lon="1.91837">
        <ele>362.8</ele>
        <time>2021-04-11 09:33:45</time>
      </trkpt>
      <trkpt lat="41.54835" lon="1.91836">
        <ele>362</ele>
        <time>2021-04-11 09:33:46</time>
      </trkpt>
      <trkpt lat="41.54823" lon="1.91835">
        <ele>361.4</ele>
        <time>2021-04-11 09:33:47</time>
      </trkpt>
      <trkpt lat="41.54812" lon="1.91834">
        <ele>360.8</ele>
        <time>2021-04-11 09:33:48</time>
      </trkpt>
      <trkpt lat="41.548" lon="1.91832">
        <ele>360.2</ele>
        <time>2021-04-11 09:33:49</time>
      </trkpt>
      <trkpt lat="41.5479" lon="1.91831">
        <ele>360</ele>
        <time>2021-04-11 09:33:50</time>
      </trkpt>
      <trkpt lat="41.54779" lon="1.9183">
        <ele>360</ele>
        <time>2021-04-11 09:33:51</time>
      </trkpt>
      <trkpt lat="41.5477" lon="1.91828">
        <ele>360</ele>
        <time>2021-04-11 09:33:52</time>
      </trkpt>
      <trkpt lat="41.54761" lon="1.91827">
        <ele>360.2</ele>
        <time>2021-04-11 09:33:53</time>
      </trkpt>
      <trkpt lat="41.54753" lon="1.91825">
        <ele>360.4</ele>
        <time>2021-04-11 09:33:54</time>
      </trkpt>
      <trkpt lat="41.54744" lon="1.91822">
        <ele>360.6</ele>
        <time>2021-04-11 09:33:55</time>
      </trkpt>
      <trkpt lat="41.54736" lon="1.91821">
        <ele>360.6</ele>
        <time>2021-04-11 09:33:56</time>
      </trkpt>
      <trkpt lat="41.54728" lon="1.91819">
        <ele>360.6</ele>
        <time>2021-04-11 09:33:57</time>
      </trkpt>
      <trkpt lat="41.54721" lon="1.91817">
        <ele>360.6</ele>
        <time>2021-04-11 09:33:58</time>
      </trkpt>
      <trkpt lat="41.54712" lon="1.91816">
        <ele>360.6</ele>
        <time>2021-04-11 09:33:59</time>
      </trkpt>
      <trkpt lat="41.54704" lon="1.91814">
        <ele>360.6</ele>
        <time>2021-04-11 09:34:00</time>
      </trkpt>
      <trkpt lat="41.54697" lon="1.91813">
        <ele>360.6</ele>
        <time>2021-04-11 09:34:01</time>
      </trkpt>
      <trkpt lat="41.5469" lon="1.91812">
        <ele>360.8</ele>
        <time>2021-04-11 09:34:02</time>
      </trkpt>
      <trkpt lat="41.54683" lon="1.9181">
        <ele>361</ele>
        <time>2021-04-11 09:34:03</time>
      </trkpt>
      <trkpt lat="41.54677" lon="1.91809">
        <ele>361.4</ele>
        <time>2021-04-11 09:34:04</time>
      </trkpt>
      <trkpt lat="41.54671" lon="1.91808">
        <ele>361.8</ele>
        <time>2021-04-11 09:34:05</time>
      </trkpt>
      <trkpt lat="41.54667" lon="1.91808">
        <ele>362.2</ele>
        <time>2021-04-11 09:34:06</time>
      </trkpt>
      <trkpt lat="41.54662" lon="1.91808">
        <ele>362.8</ele>
        <time>2021-04-11 09:34:07</time>
      </trkpt>
      <trkpt lat="41.54658" lon="1.91808">
        <ele>363.2</ele>
        <time>2021-04-11 09:34:08</time>
      </trkpt>
      <trkpt lat="41.54654" lon="1.91808">
        <ele>363.8</ele>
        <time>2021-04-11 09:34:09</time>
      </trkpt>
      <trkpt lat="41.5465" lon="1.91808">
        <ele>364.4</ele>
        <time>2021-04-11 09:34:10</time>
      </trkpt>
      <trkpt lat="41.54646" lon="1.91809">
        <ele>364.8</ele>
        <time>2021-04-11 09:34:11</time>
      </trkpt>
      <trkpt lat="41.54643" lon="1.91809">
        <ele>365.2</ele>
        <time>2021-04-11 09:34:12</time>
      </trkpt>
      <trkpt lat="41.5464" lon="1.91809">
        <ele>365.6</ele>
        <time>2021-04-11 09:34:13</time>
      </trkpt>
      <trkpt lat="41.54636" lon="1.9181">
        <ele>366</ele>
        <time>2021-04-11 09:34:14</time>
      </trkpt>
      <trkpt lat="41.54633" lon="1.91811">
        <ele>366.4</ele>
        <time>2021-04-11 09:34:15</time>
      </trkpt>
      <trkpt lat="41.54629" lon="1.91811">
        <ele>366.8</ele>
        <time>2021-04-11 09:34:16</time>
      </trkpt>
      <trkpt lat="41.54626" lon="1.91812">
        <ele>367</ele>
        <time>2021-04-11 09:34:17</time>
      </trkpt>
      <trkpt lat="41.54622" lon="1.91813">
        <ele>367.4</ele>
        <time>2021-04-11 09:34:18</time>
      </trkpt>
      <trkpt lat="41.54619" lon="1.91813">
        <ele>367.6</ele>
        <time>2021-04-11 09:34:19</time>
      </trkpt>
      <trkpt lat="41.54616" lon="1.91814">
        <ele>368</ele>
        <time>2021-04-11 09:34:20</time>
      </trkpt>
      <trkpt lat="41.54613" lon="1.91814">
        <ele>368.2</ele>
        <time>2021-04-11 09:34:21</time>
      </trkpt>
      <trkpt lat="41.54611" lon="1.91815">
        <ele>368.4</ele>
        <time>2021-04-11 09:34:22</time>
      </trkpt>
      <trkpt lat="41.54608" lon="1.91815">
        <ele>368.6</ele>
        <time>2021-04-11 09:34:23</time>
      </trkpt>
      <trkpt lat="41.54605" lon="1.91816">
        <ele>368.6</ele>
        <time>2021-04-11 09:34:24</time>
      </trkpt>
      <trkpt lat="41.54601" lon="1.91816">
        <ele>368.8</ele>
        <time>2021-04-11 09:34:25</time>
      </trkpt>
      <trkpt lat="41.54597" lon="1.91817">
        <ele>368.6</ele>
        <time>2021-04-11 09:34:26</time>
      </trkpt>
      <trkpt lat="41.54594" lon="1.91818">
        <ele>368.4</ele>
        <time>2021-04-11 09:34:27</time>
      </trkpt>
      <trkpt lat="41.54588" lon="1.91819">
        <ele>368</ele>
        <time>2021-04-11 09:34:28</time>
      </trkpt>
      <trkpt lat="41.54583" lon="1.91819">
        <ele>367.4</ele>
        <time>2021-04-11 09:34:29</time>
      </trkpt>
      <trkpt lat="41.54576" lon="1.91819">
        <ele>366.8</ele>
        <time>2021-04-11 09:34:30</time>
      </trkpt>
      <trkpt lat="41.5457" lon="1.91818">
        <ele>366</ele>
        <time>2021-04-11 09:34:31</time>
      </trkpt>
      <trkpt lat="41.54561" lon="1.91817">
        <ele>365</ele>
        <time>2021-04-11 09:34:32</time>
      </trkpt>
      <trkpt lat="41.54553" lon="1.91815">
        <ele>364</ele>
        <time>2021-04-11 09:34:33</time>
      </trkpt>
      <trkpt lat="41.54543" lon="1.91813">
        <ele>363</ele>
        <time>2021-04-11 09:34:34</time>
      </trkpt>
      <trkpt lat="41.54534" lon="1.91811">
        <ele>361.8</ele>
        <time>2021-04-11 09:34:35</time>
      </trkpt>
      <trkpt lat="41.54523" lon="1.91809">
        <ele>360.6</ele>
        <time>2021-04-11 09:34:36</time>
      </trkpt>
      <trkpt lat="41.54513" lon="1.91808">
        <ele>359.2</ele>
        <time>2021-04-11 09:34:37</time>
      </trkpt>
      <trkpt lat="41.54503" lon="1.91807">
        <ele>358</ele>
        <time>2021-04-11 09:34:38</time>
      </trkpt>
      <trkpt lat="41.54493" lon="1.91805">
        <ele>356.6</ele>
        <time>2021-04-11 09:34:39</time>
      </trkpt>
      <trkpt lat="41.54484" lon="1.91802">
        <ele>355.2</ele>
        <time>2021-04-11 09:34:40</time>
      </trkpt>
      <trkpt lat="41.54476" lon="1.91797">
        <ele>354</ele>
        <time>2021-04-11 09:34:41</time>
      </trkpt>
      <trkpt lat="41.54467" lon="1.9179">
        <ele>353</ele>
        <time>2021-04-11 09:34:42</time>
      </trkpt>
      <trkpt lat="41.5446" lon="1.91784">
        <ele>352.2</ele>
        <time>2021-04-11 09:34:43</time>
      </trkpt>
      <trkpt lat="41.54455" lon="1.91777">
        <ele>351.8</ele>
        <time>2021-04-11 09:34:44</time>
      </trkpt>
      <trkpt lat="41.54451" lon="1.9177">
        <ele>351.4</ele>
        <time>2021-04-11 09:34:45</time>
      </trkpt>
      <trkpt lat="41.54447" lon="1.91765">
        <ele>351.2</ele>
        <time>2021-04-11 09:34:46</time>
      </trkpt>
      <trkpt lat="41.54444" lon="1.91763">
        <ele>351.2</ele>
        <time>2021-04-11 09:34:47</time>
      </trkpt>
      <trkpt lat="41.54441" lon="1.91763">
        <ele>351.2</ele>
        <time>2021-04-11 09:34:48</time>
      </trkpt>
      <trkpt lat="41.54439" lon="1.91765">
        <ele>351.2</ele>
        <time>2021-04-11 09:34:49</time>
      </trkpt>
      <trkpt lat="41.54438" lon="1.91768">
        <ele>351</ele>
        <time>2021-04-11 09:34:50</time>
      </trkpt>
      <trkpt lat="41.54438" lon="1.9177">
        <ele>350.8</ele>
        <time>2021-04-11 09:34:51</time>
      </trkpt>
      <trkpt lat="41.54439" lon="1.91773">
        <ele>350.6</ele>
        <time>2021-04-11 09:34:52</time>
      </trkpt>
      <trkpt lat="41.5444" lon="1.91776">
        <ele>350.4</ele>
        <time>2021-04-11 09:34:53</time>
      </trkpt>
      <trkpt lat="41.54442" lon="1.91779">
        <ele>350</ele>
        <time>2021-04-11 09:34:54</time>
      </trkpt>
      <trkpt lat="41.54446" lon="1.91783">
        <ele>349.6</ele>
        <time>2021-04-11 09:34:55</time>
      </trkpt>
      <trkpt lat="41.54449" lon="1.91789">
        <ele>348.8</ele>
        <time>2021-04-11 09:34:56</time>
      </trkpt>
      <trkpt lat="41.54453" lon="1.91795">
        <ele>348</ele>
        <time>2021-04-11 09:34:57</time>
      </trkpt>
      <trkpt lat="41.54458" lon="1.91802">
        <ele>347.2</ele>
        <time>2021-04-11 09:34:58</time>
      </trkpt>
      <trkpt lat="41.54463" lon="1.91812">
        <ele>346</ele>
        <time>2021-04-11 09:34:59</time>
      </trkpt>
      <trkpt lat="41.54468" lon="1.91822">
        <ele>344.8</ele>
        <time>2021-04-11 09:35:00</time>
      </trkpt>
      <trkpt lat="41.54474" lon="1.91832">
        <ele>343.6</ele>
        <time>2021-04-11 09:35:01</time>
      </trkpt>
      <trkpt lat="41.54479" lon="1.91843">
        <ele>342.8</ele>
        <time>2021-04-11 09:35:02</time>
      </trkpt>
      <trkpt lat="41.54484" lon="1.91856">
        <ele>341.8</ele>
        <time>2021-04-11 09:35:03</time>
      </trkpt>
      <trkpt lat="41.54488" lon="1.91866">
        <ele>340.8</ele>
        <time>2021-04-11 09:35:04</time>
      </trkpt>
      <trkpt lat="41.54492" lon="1.91875">
        <ele>340.2</ele>
        <time>2021-04-11 09:35:05</time>
      </trkpt>
      <trkpt lat="41.54496" lon="1.91882">
        <ele>339.4</ele>
        <time>2021-04-11 09:35:06</time>
      </trkpt>
      <trkpt lat="41.54502" lon="1.91889">
        <ele>338.8</ele>
        <time>2021-04-11 09:35:07</time>
      </trkpt>
      <trkpt lat="41.54508" lon="1.91895">
        <ele>338.2</ele>
        <time>2021-04-11 09:35:08</time>
      </trkpt>
      <trkpt lat="41.54514" lon="1.91901">
        <ele>337.6</ele>
        <time>2021-04-11 09:35:09</time>
      </trkpt>
      <trkpt lat="41.5452" lon="1.91906">
        <ele>337</ele>
        <time>2021-04-11 09:35:10</time>
      </trkpt>
      <trkpt lat="41.54526" lon="1.9191">
        <ele>336.4</ele>
        <time>2021-04-11 09:35:11</time>
      </trkpt>
      <trkpt lat="41.54532" lon="1.91915">
        <ele>335.8</ele>
        <time>2021-04-11 09:35:12</time>
      </trkpt>
      <trkpt lat="41.54536" lon="1.9192">
        <ele>335.2</ele>
        <time>2021-04-11 09:35:13</time>
      </trkpt>
      <trkpt lat="41.5454" lon="1.91926">
        <ele>334.8</ele>
        <time>2021-04-11 09:35:14</time>
      </trkpt>
      <trkpt lat="41.54542" lon="1.91933">
        <ele>334.4</ele>
        <time>2021-04-11 09:35:15</time>
      </trkpt>
      <trkpt lat="41.54543" lon="1.91939">
        <ele>334.2</ele>
        <time>2021-04-11 09:35:16</time>
      </trkpt>
      <trkpt lat="41.54543" lon="1.91945">
        <ele>334</ele>
        <time>2021-04-11 09:35:17</time>
      </trkpt>
      <trkpt lat="41.54543" lon="1.91951">
        <ele>333.8</ele>
        <time>2021-04-11 09:35:18</time>
      </trkpt>
      <trkpt lat="41.54543" lon="1.91957">
        <ele>333.6</ele>
        <time>2021-04-11 09:35:19</time>
      </trkpt>
      <trkpt lat="41.54545" lon="1.91963">
        <ele>333.4</ele>
        <time>2021-04-11 09:35:20</time>
      </trkpt>
      <trkpt lat="41.54546" lon="1.91967">
        <ele>333.4</ele>
        <time>2021-04-11 09:35:21</time>
      </trkpt>
      <trkpt lat="41.54548" lon="1.91972">
        <ele>333.2</ele>
        <time>2021-04-11 09:35:22</time>
      </trkpt>
      <trkpt lat="41.5455" lon="1.91975">
        <ele>333.2</ele>
        <time>2021-04-11 09:35:23</time>
      </trkpt>
      <trkpt lat="41.54553" lon="1.91979">
        <ele>333</ele>
        <time>2021-04-11 09:35:24</time>
      </trkpt>
      <trkpt lat="41.54555" lon="1.91983">
        <ele>333</ele>
        <time>2021-04-11 09:35:25</time>
      </trkpt>
      <trkpt lat="41.54558" lon="1.91987">
        <ele>333</ele>
        <time>2021-04-11 09:35:26</time>
      </trkpt>
      <trkpt lat="41.5456" lon="1.9199">
        <ele>333</ele>
        <time>2021-04-11 09:35:27</time>
      </trkpt>
      <trkpt lat="41.54562" lon="1.91994">
        <ele>333.2</ele>
        <time>2021-04-11 09:35:28</time>
      </trkpt>
      <trkpt lat="41.54565" lon="1.91996">
        <ele>333.2</ele>
        <time>2021-04-11 09:35:29</time>
      </trkpt>
      <trkpt lat="41.54567" lon="1.92">
        <ele>333.4</ele>
        <time>2021-04-11 09:35:30</time>
      </trkpt>
      <trkpt lat="41.54569" lon="1.92003">
        <ele>333.4</ele>
        <time>2021-04-11 09:35:31</time>
      </trkpt>
      <trkpt lat="41.54572" lon="1.92006">
        <ele>333.6</ele>
        <time>2021-04-11 09:35:32</time>
      </trkpt>
      <trkpt lat="41.54574" lon="1.9201">
        <ele>333.8</ele>
        <time>2021-04-11 09:35:33</time>
      </trkpt>
      <trkpt lat="41.54577" lon="1.92014">
        <ele>333.8</ele>
        <time>2021-04-11 09:35:34</time>
      </trkpt>
      <trkpt lat="41.54579" lon="1.92018">
        <ele>334</ele>
        <time>2021-04-11 09:35:35</time>
      </trkpt>
      <trkpt lat="41.5458" lon="1.92023">
        <ele>334.2</ele>
        <time>2021-04-11 09:35:36</time>
      </trkpt>
      <trkpt lat="41.54582" lon="1.92028">
        <ele>334.2</ele>
        <time>2021-04-11 09:35:37</time>
      </trkpt>
      <trkpt lat="41.54583" lon="1.92033">
        <ele>334.4</ele>
        <time>2021-04-11 09:35:38</time>
      </trkpt>
      <trkpt lat="41.54583" lon="1.92039">
        <ele>334.4</ele>
        <time>2021-04-11 09:35:39</time>
      </trkpt>
      <trkpt lat="41.54582" lon="1.92045">
        <ele>334.6</ele>
        <time>2021-04-11 09:35:40</time>
      </trkpt>
      <trkpt lat="41.54581" lon="1.9205">
        <ele>334.8</ele>
        <time>2021-04-11 09:35:41</time>
      </trkpt>
      <trkpt lat="41.54579" lon="1.92056">
        <ele>334.8</ele>
        <time>2021-04-11 09:35:42</time>
      </trkpt>
      <trkpt lat="41.54578" lon="1.92063">
        <ele>335.2</ele>
        <time>2021-04-11 09:35:43</time>
      </trkpt>
      <trkpt lat="41.54576" lon="1.92067">
        <ele>335.4</ele>
        <time>2021-04-11 09:35:44</time>
      </trkpt>
      <trkpt lat="41.54574" lon="1.92072">
        <ele>335.8</ele>
        <time>2021-04-11 09:35:45</time>
      </trkpt>
      <trkpt lat="41.54573" lon="1.92076">
        <ele>336</ele>
        <time>2021-04-11 09:35:46</time>
      </trkpt>
      <trkpt lat="41.54571" lon="1.92081">
        <ele>336.4</ele>
        <time>2021-04-11 09:35:47</time>
      </trkpt>
      <trkpt lat="41.54569" lon="1.92085">
        <ele>336.8</ele>
        <time>2021-04-11 09:35:48</time>
      </trkpt>
      <trkpt lat="41.54568" lon="1.92089">
        <ele>337.2</ele>
        <time>2021-04-11 09:35:49</time>
      </trkpt>
      <trkpt lat="41.54566" lon="1.92092">
        <ele>337.4</ele>
        <time>2021-04-11 09:35:50</time>
      </trkpt>
      <trkpt lat="41.54565" lon="1.92096">
        <ele>337.8</ele>
        <time>2021-04-11 09:35:51</time>
      </trkpt>
      <trkpt lat="41.54563" lon="1.92099">
        <ele>338.2</ele>
        <time>2021-04-11 09:35:52</time>
      </trkpt>
      <trkpt lat="41.5456" lon="1.92101">
        <ele>338.6</ele>
        <time>2021-04-11 09:35:53</time>
      </trkpt>
      <trkpt lat="41.54558" lon="1.92103">
        <ele>338.8</ele>
        <time>2021-04-11 09:35:54</time>
      </trkpt>
      <trkpt lat="41.54556" lon="1.92105">
        <ele>339.2</ele>
        <time>2021-04-11 09:35:55</time>
      </trkpt>
      <trkpt lat="41.54553" lon="1.92107">
        <ele>339.6</ele>
        <time>2021-04-11 09:35:56</time>
      </trkpt>
      <trkpt lat="41.54551" lon="1.92108">
        <ele>340</ele>
        <time>2021-04-11 09:35:57</time>
      </trkpt>
      <trkpt lat="41.54548" lon="1.92109">
        <ele>340.2</ele>
        <time>2021-04-11 09:35:58</time>
      </trkpt>
      <trkpt lat="41.54546" lon="1.9211">
        <ele>340.6</ele>
        <time>2021-04-11 09:35:59</time>
      </trkpt>
      <trkpt lat="41.54543" lon="1.92111">
        <ele>341</ele>
        <time>2021-04-11 09:36:00</time>
      </trkpt>
      <trkpt lat="41.54541" lon="1.92111">
        <ele>341.2</ele>
        <time>2021-04-11 09:36:01</time>
      </trkpt>
      <trkpt lat="41.54539" lon="1.92112">
        <ele>341.4</ele>
        <time>2021-04-11 09:36:02</time>
      </trkpt>
      <trkpt lat="41.54536" lon="1.92113">
        <ele>341.8</ele>
        <time>2021-04-11 09:36:03</time>
      </trkpt>
      <trkpt lat="41.54533" lon="1.92115">
        <ele>342</ele>
        <time>2021-04-11 09:36:04</time>
      </trkpt>
      <trkpt lat="41.54531" lon="1.92116">
        <ele>342.4</ele>
        <time>2021-04-11 09:36:05</time>
      </trkpt>
      <trkpt lat="41.54528" lon="1.92117">
        <ele>342.6</ele>
        <time>2021-04-11 09:36:06</time>
      </trkpt>
      <trkpt lat="41.54526" lon="1.92119">
        <ele>343</ele>
        <time>2021-04-11 09:36:07</time>
      </trkpt>
      <trkpt lat="41.54524" lon="1.9212">
        <ele>343.2</ele>
        <time>2021-04-11 09:36:08</time>
      </trkpt>
      <trkpt lat="41.54522" lon="1.92121">
        <ele>343.4</ele>
        <time>2021-04-11 09:36:09</time>
      </trkpt>
      <trkpt lat="41.5452" lon="1.92123">
        <ele>343.6</ele>
        <time>2021-04-11 09:36:10</time>
      </trkpt>
      <trkpt lat="41.54519" lon="1.92124">
        <ele>343.8</ele>
        <time>2021-04-11 09:36:11</time>
      </trkpt>
      <trkpt lat="41.54517" lon="1.92126">
        <ele>344</ele>
        <time>2021-04-11 09:36:12</time>
      </trkpt>
      <trkpt lat="41.54515" lon="1.92127">
        <ele>344.2</ele>
        <time>2021-04-11 09:36:13</time>
      </trkpt>
      <trkpt lat="41.54514" lon="1.92128">
        <ele>344.2</ele>
        <time>2021-04-11 09:36:14</time>
      </trkpt>
      <trkpt lat="41.54512" lon="1.9213">
        <ele>344.4</ele>
        <time>2021-04-11 09:36:15</time>
      </trkpt>
      <trkpt lat="41.54511" lon="1.92131">
        <ele>344.4</ele>
        <time>2021-04-11 09:36:16</time>
      </trkpt>
      <trkpt lat="41.54509" lon="1.92132">
        <ele>344.6</ele>
        <time>2021-04-11 09:36:17</time>
      </trkpt>
      <trkpt lat="41.54508" lon="1.92132">
        <ele>344.6</ele>
        <time>2021-04-11 09:36:18</time>
      </trkpt>
      <trkpt lat="41.54506" lon="1.92132">
        <ele>344.6</ele>
        <time>2021-04-11 09:36:19</time>
      </trkpt>
      <trkpt lat="41.54505" lon="1.92132">
        <ele>345</ele>
        <time>2021-04-11 09:37:40</time>
      </trkpt>
      <trkpt lat="41.54503" lon="1.92133">
        <ele>345</ele>
        <time>2021-04-11 09:37:41</time>
      </trkpt>
      <trkpt lat="41.545" lon="1.92134">
        <ele>345</ele>
        <time>2021-04-11 09:37:42</time>
      </trkpt>
      <trkpt lat="41.54498" lon="1.92135">
        <ele>345</ele>
        <time>2021-04-11 09:37:43</time>
      </trkpt>
      <trkpt lat="41.54495" lon="1.92135">
        <ele>345</ele>
        <time>2021-04-11 09:37:44</time>
      </trkpt>
      <trkpt lat="41.54491" lon="1.92134">
        <ele>344.8</ele>
        <time>2021-04-11 09:37:45</time>
      </trkpt>
      <trkpt lat="41.54488" lon="1.92134">
        <ele>344.8</ele>
        <time>2021-04-11 09:37:46</time>
      </trkpt>
      <trkpt lat="41.54483" lon="1.92134">
        <ele>344.8</ele>
        <time>2021-04-11 09:37:47</time>
      </trkpt>
      <trkpt lat="41.54479" lon="1.92133">
        <ele>344.8</ele>
        <time>2021-04-11 09:37:48</time>
      </trkpt>
      <trkpt lat="41.54474" lon="1.92133">
        <ele>344.6</ele>
        <time>2021-04-11 09:37:49</time>
      </trkpt>
      <trkpt lat="41.54469" lon="1.92133">
        <ele>344.4</ele>
        <time>2021-04-11 09:37:50</time>
      </trkpt>
      <trkpt lat="41.54464" lon="1.92134">
        <ele>344.4</ele>
        <time>2021-04-11 09:37:51</time>
      </trkpt>
      <trkpt lat="41.54459" lon="1.92136">
        <ele>344</ele>
        <time>2021-04-11 09:37:52</time>
      </trkpt>
      <trkpt lat="41.54454" lon="1.92137">
        <ele>343.6</ele>
        <time>2021-04-11 09:37:53</time>
      </trkpt>
      <trkpt lat="41.54446" lon="1.9214">
        <ele>343.2</ele>
        <time>2021-04-11 09:37:54</time>
      </trkpt>
      <trkpt lat="41.5444" lon="1.92142">
        <ele>342.8</ele>
        <time>2021-04-11 09:37:55</time>
      </trkpt>
      <trkpt lat="41.54433" lon="1.92145">
        <ele>342.2</ele>
        <time>2021-04-11 09:37:56</time>
      </trkpt>
      <trkpt lat="41.54425" lon="1.92148">
        <ele>341.6</ele>
        <time>2021-04-11 09:37:57</time>
      </trkpt>
      <trkpt lat="41.54416" lon="1.92152">
        <ele>340.8</ele>
        <time>2021-04-11 09:37:58</time>
      </trkpt>
      <trkpt lat="41.54408" lon="1.92156">
        <ele>340.2</ele>
        <time>2021-04-11 09:37:59</time>
      </trkpt>
      <trkpt lat="41.544" lon="1.92159">
        <ele>339.4</ele>
        <time>2021-04-11 09:38:00</time>
      </trkpt>
      <trkpt lat="41.54388" lon="1.92163">
        <ele>338.8</ele>
        <time>2021-04-11 09:38:01</time>
      </trkpt>
      <trkpt lat="41.54378" lon="1.92166">
        <ele>338.2</ele>
        <time>2021-04-11 09:38:02</time>
      </trkpt>
      <trkpt lat="41.5437" lon="1.9217">
        <ele>337.8</ele>
        <time>2021-04-11 09:38:03</time>
      </trkpt>
      <trkpt lat="41.54361" lon="1.92175">
        <ele>337.6</ele>
        <time>2021-04-11 09:38:04</time>
      </trkpt>
      <trkpt lat="41.54353" lon="1.9218">
        <ele>337.4</ele>
        <time>2021-04-11 09:38:05</time>
      </trkpt>
      <trkpt lat="41.54345" lon="1.92185">
        <ele>337.4</ele>
        <time>2021-04-11 09:38:06</time>
      </trkpt>
      <trkpt lat="41.54338" lon="1.92191">
        <ele>337.4</ele>
        <time>2021-04-11 09:38:07</time>
      </trkpt>
      <trkpt lat="41.54331" lon="1.92198">
        <ele>337.4</ele>
        <time>2021-04-11 09:38:08</time>
      </trkpt>
      <trkpt lat="41.54324" lon="1.92204">
        <ele>337.6</ele>
        <time>2021-04-11 09:38:09</time>
      </trkpt>
      <trkpt lat="41.54319" lon="1.92209">
        <ele>337.6</ele>
        <time>2021-04-11 09:38:10</time>
      </trkpt>
      <trkpt lat="41.54312" lon="1.92215">
        <ele>337.8</ele>
        <time>2021-04-11 09:38:11</time>
      </trkpt>
      <trkpt lat="41.54305" lon="1.9222">
        <ele>337.8</ele>
        <time>2021-04-11 09:38:12</time>
      </trkpt>
      <trkpt lat="41.54299" lon="1.92224">
        <ele>338</ele>
        <time>2021-04-11 09:38:13</time>
      </trkpt>
      <trkpt lat="41.54292" lon="1.92227">
        <ele>337.8</ele>
        <time>2021-04-11 09:38:14</time>
      </trkpt>
      <trkpt lat="41.54284" lon="1.92231">
        <ele>337.8</ele>
        <time>2021-04-11 09:38:15</time>
      </trkpt>
      <trkpt lat="41.54277" lon="1.92233">
        <ele>337.6</ele>
        <time>2021-04-11 09:38:16</time>
      </trkpt>
      <trkpt lat="41.54269" lon="1.92235">
        <ele>337.4</ele>
        <time>2021-04-11 09:38:17</time>
      </trkpt>
      <trkpt lat="41.54261" lon="1.92238">
        <ele>337</ele>
        <time>2021-04-11 09:38:18</time>
      </trkpt>
      <trkpt lat="41.54253" lon="1.92241">
        <ele>336.8</ele>
        <time>2021-04-11 09:38:19</time>
      </trkpt>
      <trkpt lat="41.54245" lon="1.92244">
        <ele>336.4</ele>
        <time>2021-04-11 09:38:20</time>
      </trkpt>
      <trkpt lat="41.54237" lon="1.92247">
        <ele>336</ele>
        <time>2021-04-11 09:38:21</time>
      </trkpt>
      <trkpt lat="41.54228" lon="1.9225">
        <ele>335.2</ele>
        <time>2021-04-11 09:38:22</time>
      </trkpt>
      <trkpt lat="41.54219" lon="1.92253">
        <ele>334.4</ele>
        <time>2021-04-11 09:38:23</time>
      </trkpt>
      <trkpt lat="41.5421" lon="1.92255">
        <ele>333.6</ele>
        <time>2021-04-11 09:38:24</time>
      </trkpt>
      <trkpt lat="41.542" lon="1.9226">
        <ele>332.8</ele>
        <time>2021-04-11 09:38:25</time>
      </trkpt>
      <trkpt lat="41.54192" lon="1.92267">
        <ele>331.8</ele>
        <time>2021-04-11 09:38:26</time>
      </trkpt>
      <trkpt lat="41.54183" lon="1.92277">
        <ele>331.2</ele>
        <time>2021-04-11 09:38:27</time>
      </trkpt>
      <trkpt lat="41.54176" lon="1.92286">
        <ele>330.6</ele>
        <time>2021-04-11 09:38:28</time>
      </trkpt>
      <trkpt lat="41.54171" lon="1.92296">
        <ele>330</ele>
        <time>2021-04-11 09:38:29</time>
      </trkpt>
      <trkpt lat="41.54166" lon="1.92305">
        <ele>329.8</ele>
        <time>2021-04-11 09:38:30</time>
      </trkpt>
      <trkpt lat="41.54159" lon="1.92314">
        <ele>329.8</ele>
        <time>2021-04-11 09:38:31</time>
      </trkpt>
      <trkpt lat="41.54153" lon="1.92322">
        <ele>330</ele>
        <time>2021-04-11 09:38:32</time>
      </trkpt>
      <trkpt lat="41.54147" lon="1.9233">
        <ele>330.4</ele>
        <time>2021-04-11 09:38:33</time>
      </trkpt>
      <trkpt lat="41.54142" lon="1.92336">
        <ele>331</ele>
        <time>2021-04-11 09:38:34</time>
      </trkpt>
      <trkpt lat="41.54137" lon="1.92341">
        <ele>331.6</ele>
        <time>2021-04-11 09:38:35</time>
      </trkpt>
      <trkpt lat="41.54132" lon="1.92347">
        <ele>332.2</ele>
        <time>2021-04-11 09:38:36</time>
      </trkpt>
      <trkpt lat="41.54126" lon="1.92351">
        <ele>332.8</ele>
        <time>2021-04-11 09:38:37</time>
      </trkpt>
      <trkpt lat="41.54121" lon="1.92355">
        <ele>333.6</ele>
        <time>2021-04-11 09:38:38</time>
      </trkpt>
      <trkpt lat="41.54116" lon="1.92357">
        <ele>334.2</ele>
        <time>2021-04-11 09:38:39</time>
      </trkpt>
      <trkpt lat="41.5411" lon="1.92361">
        <ele>335</ele>
        <time>2021-04-11 09:38:40</time>
      </trkpt>
      <trkpt lat="41.54106" lon="1.92364">
        <ele>335.6</ele>
        <time>2021-04-11 09:38:41</time>
      </trkpt>
      <trkpt lat="41.54101" lon="1.92368">
        <ele>336.2</ele>
        <time>2021-04-11 09:38:42</time>
      </trkpt>
      <trkpt lat="41.54097" lon="1.92371">
        <ele>337</ele>
        <time>2021-04-11 09:38:43</time>
      </trkpt>
      <trkpt lat="41.54092" lon="1.92375">
        <ele>337.6</ele>
        <time>2021-04-11 09:38:44</time>
      </trkpt>
      <trkpt lat="41.54088" lon="1.92378">
        <ele>338.4</ele>
        <time>2021-04-11 09:38:45</time>
      </trkpt>
      <trkpt lat="41.54083" lon="1.92382">
        <ele>338.8</ele>
        <time>2021-04-11 09:38:46</time>
      </trkpt>
      <trkpt lat="41.54079" lon="1.92385">
        <ele>339.4</ele>
        <time>2021-04-11 09:38:47</time>
      </trkpt>
      <trkpt lat="41.54074" lon="1.92388">
        <ele>339.6</ele>
        <time>2021-04-11 09:38:48</time>
      </trkpt>
      <trkpt lat="41.5407" lon="1.92391">
        <ele>339.8</ele>
        <time>2021-04-11 09:38:49</time>
      </trkpt>
      <trkpt lat="41.54064" lon="1.92394">
        <ele>339.8</ele>
        <time>2021-04-11 09:38:50</time>
      </trkpt>
      <trkpt lat="41.54059" lon="1.92397">
        <ele>339.4</ele>
        <time>2021-04-11 09:38:51</time>
      </trkpt>
      <trkpt lat="41.54052" lon="1.924">
        <ele>339</ele>
        <time>2021-04-11 09:38:52</time>
      </trkpt>
      <trkpt lat="41.54045" lon="1.92403">
        <ele>338.4</ele>
        <time>2021-04-11 09:38:53</time>
      </trkpt>
      <trkpt lat="41.54038" lon="1.92405">
        <ele>337.8</ele>
        <time>2021-04-11 09:38:54</time>
      </trkpt>
      <trkpt lat="41.54031" lon="1.92408">
        <ele>337</ele>
        <time>2021-04-11 09:38:55</time>
      </trkpt>
      <trkpt lat="41.54024" lon="1.9241">
        <ele>336.6</ele>
        <time>2021-04-11 09:38:56</time>
      </trkpt>
      <trkpt lat="41.54018" lon="1.92412">
        <ele>336</ele>
        <time>2021-04-11 09:38:57</time>
      </trkpt>
      <trkpt lat="41.54013" lon="1.92414">
        <ele>335.8</ele>
        <time>2021-04-11 09:38:58</time>
      </trkpt>
      <trkpt lat="41.54009" lon="1.92415">
        <ele>335.4</ele>
        <time>2021-04-11 09:38:59</time>
      </trkpt>
      <trkpt lat="41.54006" lon="1.92415">
        <ele>335.2</ele>
        <time>2021-04-11 09:39:00</time>
      </trkpt>
      <trkpt lat="41.54003" lon="1.92416">
        <ele>335</ele>
        <time>2021-04-11 09:39:01</time>
      </trkpt>
      <trkpt lat="41.54001" lon="1.92417">
        <ele>334.6</ele>
        <time>2021-04-11 09:39:02</time>
      </trkpt>
      <trkpt lat="41.53996" lon="1.92417">
        <ele>334.4</ele>
        <time>2021-04-11 09:39:03</time>
      </trkpt>
      <trkpt lat="41.53992" lon="1.92418">
        <ele>333.8</ele>
        <time>2021-04-11 09:39:04</time>
      </trkpt>
      <trkpt lat="41.53987" lon="1.92419">
        <ele>333.4</ele>
        <time>2021-04-11 09:39:05</time>
      </trkpt>
      <trkpt lat="41.5398" lon="1.9242">
        <ele>332.6</ele>
        <time>2021-04-11 09:39:06</time>
      </trkpt>
      <trkpt lat="41.53973" lon="1.92421">
        <ele>331.6</ele>
        <time>2021-04-11 09:39:07</time>
      </trkpt>
      <trkpt lat="41.53964" lon="1.92423">
        <ele>330.6</ele>
        <time>2021-04-11 09:39:08</time>
      </trkpt>
      <trkpt lat="41.53955" lon="1.92425">
        <ele>329.4</ele>
        <time>2021-04-11 09:39:09</time>
      </trkpt>
      <trkpt lat="41.53945" lon="1.92428">
        <ele>328</ele>
        <time>2021-04-11 09:39:10</time>
      </trkpt>
      <trkpt lat="41.53934" lon="1.92432">
        <ele>326.4</ele>
        <time>2021-04-11 09:39:11</time>
      </trkpt>
      <trkpt lat="41.53923" lon="1.92436">
        <ele>325.2</ele>
        <time>2021-04-11 09:39:12</time>
      </trkpt>
      <trkpt lat="41.53913" lon="1.92442">
        <ele>323.8</ele>
        <time>2021-04-11 09:39:13</time>
      </trkpt>
      <trkpt lat="41.53902" lon="1.92447">
        <ele>322.6</ele>
        <time>2021-04-11 09:39:14</time>
      </trkpt>
      <trkpt lat="41.5389" lon="1.92452">
        <ele>321.4</ele>
        <time>2021-04-11 09:39:15</time>
      </trkpt>
      <trkpt lat="41.53879" lon="1.92456">
        <ele>320.2</ele>
        <time>2021-04-11 09:39:16</time>
      </trkpt>
      <trkpt lat="41.53867" lon="1.92459">
        <ele>318.8</ele>
        <time>2021-04-11 09:39:17</time>
      </trkpt>
      <trkpt lat="41.53854" lon="1.92461">
        <ele>317.8</ele>
        <time>2021-04-11 09:39:18</time>
      </trkpt>
      <trkpt lat="41.53842" lon="1.92461">
        <ele>317</ele>
        <time>2021-04-11 09:39:19</time>
      </trkpt>
      <trkpt lat="41.53829" lon="1.92463">
        <ele>316.4</ele>
        <time>2021-04-11 09:39:20</time>
      </trkpt>
      <trkpt lat="41.53818" lon="1.92465">
        <ele>315.8</ele>
        <time>2021-04-11 09:39:21</time>
      </trkpt>
      <trkpt lat="41.53806" lon="1.92467">
        <ele>315.6</ele>
        <time>2021-04-11 09:39:22</time>
      </trkpt>
      <trkpt lat="41.53796" lon="1.92469">
        <ele>315.6</ele>
        <time>2021-04-11 09:39:23</time>
      </trkpt>
      <trkpt lat="41.53787" lon="1.9247">
        <ele>315.2</ele>
        <time>2021-04-11 09:39:24</time>
      </trkpt>
      <trkpt lat="41.5378" lon="1.92468">
        <ele>315</ele>
        <time>2021-04-11 09:39:25</time>
      </trkpt>
      <trkpt lat="41.53772" lon="1.92465">
        <ele>314.4</ele>
        <time>2021-04-11 09:39:26</time>
      </trkpt>
      <trkpt lat="41.53763" lon="1.92462">
        <ele>313.6</ele>
        <time>2021-04-11 09:39:27</time>
      </trkpt>
      <trkpt lat="41.53754" lon="1.92458">
        <ele>313</ele>
        <time>2021-04-11 09:39:28</time>
      </trkpt>
      <trkpt lat="41.53745" lon="1.92455">
        <ele>312.4</ele>
        <time>2021-04-11 09:39:29</time>
      </trkpt>
      <trkpt lat="41.53735" lon="1.92453">
        <ele>312</ele>
        <time>2021-04-11 09:39:30</time>
      </trkpt>
      <trkpt lat="41.53727" lon="1.92454">
        <ele>311.6</ele>
        <time>2021-04-11 09:39:31</time>
      </trkpt>
      <trkpt lat="41.53718" lon="1.92456">
        <ele>311.4</ele>
        <time>2021-04-11 09:39:32</time>
      </trkpt>
      <trkpt lat="41.5371" lon="1.92461">
        <ele>311.4</ele>
        <time>2021-04-11 09:39:33</time>
      </trkpt>
      <trkpt lat="41.53703" lon="1.92466">
        <ele>311.4</ele>
        <time>2021-04-11 09:39:34</time>
      </trkpt>
      <trkpt lat="41.53696" lon="1.9247">
        <ele>311.4</ele>
        <time>2021-04-11 09:39:35</time>
      </trkpt>
      <trkpt lat="41.53688" lon="1.92474">
        <ele>311.6</ele>
        <time>2021-04-11 09:39:36</time>
      </trkpt>
      <trkpt lat="41.53682" lon="1.92477">
        <ele>311.6</ele>
        <time>2021-04-11 09:39:37</time>
      </trkpt>
      <trkpt lat="41.53675" lon="1.92481">
        <ele>311.8</ele>
        <time>2021-04-11 09:39:38</time>
      </trkpt>
      <trkpt lat="41.53668" lon="1.92484">
        <ele>312</ele>
        <time>2021-04-11 09:39:39</time>
      </trkpt>
      <trkpt lat="41.53661" lon="1.92488">
        <ele>312.2</ele>
        <time>2021-04-11 09:39:40</time>
      </trkpt>
      <trkpt lat="41.53654" lon="1.9249">
        <ele>312.4</ele>
        <time>2021-04-11 09:39:41</time>
      </trkpt>
      <trkpt lat="41.53648" lon="1.92492">
        <ele>312.8</ele>
        <time>2021-04-11 09:39:42</time>
      </trkpt>
      <trkpt lat="41.53642" lon="1.92494">
        <ele>313.2</ele>
        <time>2021-04-11 09:39:43</time>
      </trkpt>
      <trkpt lat="41.53636" lon="1.92496">
        <ele>313.4</ele>
        <time>2021-04-11 09:39:44</time>
      </trkpt>
      <trkpt lat="41.5363" lon="1.92499">
        <ele>313.8</ele>
        <time>2021-04-11 09:39:45</time>
      </trkpt>
      <trkpt lat="41.53625" lon="1.92501">
        <ele>314</ele>
        <time>2021-04-11 09:39:46</time>
      </trkpt>
      <trkpt lat="41.5362" lon="1.92504">
        <ele>314.4</ele>
        <time>2021-04-11 09:39:47</time>
      </trkpt>
      <trkpt lat="41.53615" lon="1.92506">
        <ele>314.8</ele>
        <time>2021-04-11 09:39:48</time>
      </trkpt>
      <trkpt lat="41.5361" lon="1.92509">
        <ele>315</ele>
        <time>2021-04-11 09:39:49</time>
      </trkpt>
      <trkpt lat="41.53605" lon="1.92512">
        <ele>315.4</ele>
        <time>2021-04-11 09:39:50</time>
      </trkpt>
      <trkpt lat="41.53601" lon="1.92514">
        <ele>315.8</ele>
        <time>2021-04-11 09:39:51</time>
      </trkpt>
      <trkpt lat="41.53597" lon="1.92516">
        <ele>316.2</ele>
        <time>2021-04-11 09:39:52</time>
      </trkpt>
      <trkpt lat="41.53592" lon="1.92519">
        <ele>316.6</ele>
        <time>2021-04-11 09:39:53</time>
      </trkpt>
      <trkpt lat="41.53588" lon="1.92521">
        <ele>317</ele>
        <time>2021-04-11 09:39:54</time>
      </trkpt>
      <trkpt lat="41.53585" lon="1.92523">
        <ele>317.2</ele>
        <time>2021-04-11 09:39:55</time>
      </trkpt>
      <trkpt lat="41.53579" lon="1.92527">
        <ele>317.4</ele>
        <time>2021-04-11 09:39:56</time>
      </trkpt>
      <trkpt lat="41.53575" lon="1.92529">
        <ele>317.4</ele>
        <time>2021-04-11 09:39:57</time>
      </trkpt>
      <trkpt lat="41.5357" lon="1.92533">
        <ele>317.4</ele>
        <time>2021-04-11 09:39:58</time>
      </trkpt>
      <trkpt lat="41.53566" lon="1.92535">
        <ele>317.4</ele>
        <time>2021-04-11 09:39:59</time>
      </trkpt>
      <trkpt lat="41.53561" lon="1.92538">
        <ele>317.2</ele>
        <time>2021-04-11 09:40:00</time>
      </trkpt>
      <trkpt lat="41.53557" lon="1.9254">
        <ele>317</ele>
        <time>2021-04-11 09:40:01</time>
      </trkpt>
      <trkpt lat="41.53552" lon="1.92543">
        <ele>316.6</ele>
        <time>2021-04-11 09:40:02</time>
      </trkpt>
      <trkpt lat="41.53546" lon="1.92545">
        <ele>316</ele>
        <time>2021-04-11 09:40:03</time>
      </trkpt>
      <trkpt lat="41.53541" lon="1.92547">
        <ele>315.4</ele>
        <time>2021-04-11 09:40:04</time>
      </trkpt>
      <trkpt lat="41.53534" lon="1.9255">
        <ele>314.6</ele>
        <time>2021-04-11 09:40:05</time>
      </trkpt>
      <trkpt lat="41.53527" lon="1.92553">
        <ele>313.8</ele>
        <time>2021-04-11 09:40:06</time>
      </trkpt>
      <trkpt lat="41.5352" lon="1.92555">
        <ele>313</ele>
        <time>2021-04-11 09:40:07</time>
      </trkpt>
      <trkpt lat="41.53512" lon="1.92556">
        <ele>312.2</ele>
        <time>2021-04-11 09:40:08</time>
      </trkpt>
      <trkpt lat="41.53503" lon="1.92556">
        <ele>311.4</ele>
        <time>2021-04-11 09:40:09</time>
      </trkpt>
      <trkpt lat="41.53495" lon="1.92554">
        <ele>311</ele>
        <time>2021-04-11 09:40:10</time>
      </trkpt>
      <trkpt lat="41.53487" lon="1.92551">
        <ele>310.6</ele>
        <time>2021-04-11 09:40:11</time>
      </trkpt>
      <trkpt lat="41.5348" lon="1.92548">
        <ele>310.4</ele>
        <time>2021-04-11 09:40:12</time>
      </trkpt>
      <trkpt lat="41.53472" lon="1.92545">
        <ele>310.4</ele>
        <time>2021-04-11 09:40:13</time>
      </trkpt>
      <trkpt lat="41.53466" lon="1.92542">
        <ele>310.4</ele>
        <time>2021-04-11 09:40:14</time>
      </trkpt>
      <trkpt lat="41.53459" lon="1.92539">
        <ele>310.6</ele>
        <time>2021-04-11 09:40:15</time>
      </trkpt>
      <trkpt lat="41.53454" lon="1.92536">
        <ele>311</ele>
        <time>2021-04-11 09:40:16</time>
      </trkpt>
      <trkpt lat="41.53448" lon="1.92534">
        <ele>311.4</ele>
        <time>2021-04-11 09:40:17</time>
      </trkpt>
      <trkpt lat="41.53443" lon="1.92533">
        <ele>311.8</ele>
        <time>2021-04-11 09:40:18</time>
      </trkpt>
      <trkpt lat="41.53438" lon="1.92532">
        <ele>312</ele>
        <time>2021-04-11 09:40:19</time>
      </trkpt>
      <trkpt lat="41.53434" lon="1.92531">
        <ele>312.4</ele>
        <time>2021-04-11 09:40:20</time>
      </trkpt>
      <trkpt lat="41.53429" lon="1.92531">
        <ele>312.8</ele>
        <time>2021-04-11 09:40:21</time>
      </trkpt>
      <trkpt lat="41.53424" lon="1.92531">
        <ele>313.2</ele>
        <time>2021-04-11 09:40:22</time>
      </trkpt>
      <trkpt lat="41.5342" lon="1.92532">
        <ele>313.6</ele>
        <time>2021-04-11 09:40:23</time>
      </trkpt>
      <trkpt lat="41.53415" lon="1.92534">
        <ele>313.8</ele>
        <time>2021-04-11 09:40:24</time>
      </trkpt>
      <trkpt lat="41.53411" lon="1.92535">
        <ele>314</ele>
        <time>2021-04-11 09:40:25</time>
      </trkpt>
      <trkpt lat="41.53408" lon="1.92537">
        <ele>314.2</ele>
        <time>2021-04-11 09:40:26</time>
      </trkpt>
      <trkpt lat="41.53404" lon="1.92539">
        <ele>314.4</ele>
        <time>2021-04-11 09:40:27</time>
      </trkpt>
      <trkpt lat="41.53401" lon="1.92541">
        <ele>314.6</ele>
        <time>2021-04-11 09:40:28</time>
      </trkpt>
      <trkpt lat="41.53398" lon="1.92543">
        <ele>314.6</ele>
        <time>2021-04-11 09:40:29</time>
      </trkpt>
      <trkpt lat="41.53396" lon="1.92545">
        <ele>314.8</ele>
        <time>2021-04-11 09:40:30</time>
      </trkpt>
      <trkpt lat="41.53393" lon="1.92547">
        <ele>314.8</ele>
        <time>2021-04-11 09:40:31</time>
      </trkpt>
      <trkpt lat="41.5339" lon="1.92549">
        <ele>314.8</ele>
        <time>2021-04-11 09:40:32</time>
      </trkpt>
      <trkpt lat="41.53388" lon="1.9255">
        <ele>314.8</ele>
        <time>2021-04-11 09:40:33</time>
      </trkpt>
      <trkpt lat="41.53385" lon="1.92552">
        <ele>314.8</ele>
        <time>2021-04-11 09:40:34</time>
      </trkpt>
      <trkpt lat="41.53382" lon="1.92554">
        <ele>314.6</ele>
        <time>2021-04-11 09:40:35</time>
      </trkpt>
      <trkpt lat="41.53379" lon="1.92556">
        <ele>314.6</ele>
        <time>2021-04-11 09:40:36</time>
      </trkpt>
      <trkpt lat="41.53375" lon="1.92558">
        <ele>314.4</ele>
        <time>2021-04-11 09:40:37</time>
      </trkpt>
      <trkpt lat="41.53372" lon="1.9256">
        <ele>314.2</ele>
        <time>2021-04-11 09:40:38</time>
      </trkpt>
      <trkpt lat="41.53368" lon="1.92562">
        <ele>314</ele>
        <time>2021-04-11 09:40:39</time>
      </trkpt>
      <trkpt lat="41.53364" lon="1.92563">
        <ele>313.8</ele>
        <time>2021-04-11 09:40:40</time>
      </trkpt>
      <trkpt lat="41.53359" lon="1.92564">
        <ele>313.6</ele>
        <time>2021-04-11 09:40:41</time>
      </trkpt>
      <trkpt lat="41.53354" lon="1.92565">
        <ele>313.2</ele>
        <time>2021-04-11 09:40:42</time>
      </trkpt>
      <trkpt lat="41.53349" lon="1.92565">
        <ele>313</ele>
        <time>2021-04-11 09:40:43</time>
      </trkpt>
      <trkpt lat="41.53343" lon="1.92566">
        <ele>312.8</ele>
        <time>2021-04-11 09:40:44</time>
      </trkpt>
      <trkpt lat="41.53337" lon="1.92566">
        <ele>312.4</ele>
        <time>2021-04-11 09:40:45</time>
      </trkpt>
      <trkpt lat="41.53332" lon="1.92567">
        <ele>312.2</ele>
        <time>2021-04-11 09:40:46</time>
      </trkpt>
      <trkpt lat="41.53325" lon="1.92568">
        <ele>312</ele>
        <time>2021-04-11 09:40:47</time>
      </trkpt>
      <trkpt lat="41.5332" lon="1.9257">
        <ele>311.6</ele>
        <time>2021-04-11 09:40:48</time>
      </trkpt>
      <trkpt lat="41.53313" lon="1.92574">
        <ele>311.2</ele>
        <time>2021-04-11 09:40:49</time>
      </trkpt>
      <trkpt lat="41.53307" lon="1.92579">
        <ele>310.8</ele>
        <time>2021-04-11 09:40:50</time>
      </trkpt>
      <trkpt lat="41.53303" lon="1.92583">
        <ele>310.2</ele>
        <time>2021-04-11 09:40:51</time>
      </trkpt>
      <trkpt lat="41.53297" lon="1.9259">
        <ele>309.8</ele>
        <time>2021-04-11 09:40:52</time>
      </trkpt>
      <trkpt lat="41.53291" lon="1.92598">
        <ele>309.2</ele>
        <time>2021-04-11 09:40:53</time>
      </trkpt>
      <trkpt lat="41.53285" lon="1.92605">
        <ele>308.6</ele>
        <time>2021-04-11 09:40:54</time>
      </trkpt>
      <trkpt lat="41.53279" lon="1.92611">
        <ele>308</ele>
        <time>2021-04-11 09:40:55</time>
      </trkpt>
      <trkpt lat="41.53272" lon="1.92616">
        <ele>307.6</ele>
        <time>2021-04-11 09:40:56</time>
      </trkpt>
      <trkpt lat="41.53266" lon="1.92618">
        <ele>307.4</ele>
        <time>2021-04-11 09:40:57</time>
      </trkpt>
      <trkpt lat="41.53259" lon="1.92618">
        <ele>307.2</ele>
        <time>2021-04-11 09:40:58</time>
      </trkpt>
      <trkpt lat="41.53253" lon="1.92616">
        <ele>307.2</ele>
        <time>2021-04-11 09:40:59</time>
      </trkpt>
      <trkpt lat="41.53249" lon="1.92614">
        <ele>307.4</ele>
        <time>2021-04-11 09:41:00</time>
      </trkpt>
      <trkpt lat="41.53242" lon="1.92611">
        <ele>307.6</ele>
        <time>2021-04-11 09:41:01</time>
      </trkpt>
      <trkpt lat="41.53237" lon="1.92608">
        <ele>307.8</ele>
        <time>2021-04-11 09:41:02</time>
      </trkpt>
      <trkpt lat="41.5323" lon="1.92606">
        <ele>307.6</ele>
        <time>2021-04-11 09:41:03</time>
      </trkpt>
      <trkpt lat="41.53224" lon="1.92604">
        <ele>307.6</ele>
        <time>2021-04-11 09:41:04</time>
      </trkpt>
      <trkpt lat="41.53218" lon="1.92603">
        <ele>307.2</ele>
        <time>2021-04-11 09:41:05</time>
      </trkpt>
      <trkpt lat="41.5321" lon="1.92602">
        <ele>307</ele>
        <time>2021-04-11 09:41:06</time>
      </trkpt>
      <trkpt lat="41.53204" lon="1.92603">
        <ele>306.4</ele>
        <time>2021-04-11 09:41:07</time>
      </trkpt>
      <trkpt lat="41.53196" lon="1.92605">
        <ele>305.8</ele>
        <time>2021-04-11 09:41:08</time>
      </trkpt>
      <trkpt lat="41.5319" lon="1.92609">
        <ele>304.8</ele>
        <time>2021-04-11 09:41:09</time>
      </trkpt>
      <trkpt lat="41.53182" lon="1.92616">
        <ele>304</ele>
        <time>2021-04-11 09:41:10</time>
      </trkpt>
      <trkpt lat="41.53174" lon="1.92623">
        <ele>303.2</ele>
        <time>2021-04-11 09:41:11</time>
      </trkpt>
      <trkpt lat="41.53165" lon="1.9263">
        <ele>302.2</ele>
        <time>2021-04-11 09:41:12</time>
      </trkpt>
      <trkpt lat="41.53159" lon="1.92635">
        <ele>301.6</ele>
        <time>2021-04-11 09:41:13</time>
      </trkpt>
      <trkpt lat="41.5315" lon="1.92644">
        <ele>300.8</ele>
        <time>2021-04-11 09:41:14</time>
      </trkpt>
      <trkpt lat="41.5314" lon="1.92654">
        <ele>300</ele>
        <time>2021-04-11 09:41:15</time>
      </trkpt>
      <trkpt lat="41.53132" lon="1.92663">
        <ele>299.4</ele>
        <time>2021-04-11 09:41:16</time>
      </trkpt>
      <trkpt lat="41.53124" lon="1.92668">
        <ele>298.6</ele>
        <time>2021-04-11 09:41:17</time>
      </trkpt>
      <trkpt lat="41.53113" lon="1.92676">
        <ele>298</ele>
        <time>2021-04-11 09:41:18</time>
      </trkpt>
      <trkpt lat="41.53103" lon="1.92679">
        <ele>297.6</ele>
        <time>2021-04-11 09:41:19</time>
      </trkpt>
      <trkpt lat="41.53094" lon="1.92683">
        <ele>297.2</ele>
        <time>2021-04-11 09:41:20</time>
      </trkpt>
      <trkpt lat="41.53088" lon="1.9269">
        <ele>297</ele>
        <time>2021-04-11 09:41:21</time>
      </trkpt>
      <trkpt lat="41.53082" lon="1.92698">
        <ele>297</ele>
        <time>2021-04-11 09:41:22</time>
      </trkpt>
      <trkpt lat="41.53077" lon="1.92707">
        <ele>297</ele>
        <time>2021-04-11 09:41:23</time>
      </trkpt>
      <trkpt lat="41.53073" lon="1.92716">
        <ele>297</ele>
        <time>2021-04-11 09:41:24</time>
      </trkpt>
      <trkpt lat="41.5307" lon="1.92725">
        <ele>297</ele>
        <time>2021-04-11 09:41:25</time>
      </trkpt>
      <trkpt lat="41.53067" lon="1.92734">
        <ele>297</ele>
        <time>2021-04-11 09:41:26</time>
      </trkpt>
      <trkpt lat="41.53063" lon="1.92744">
        <ele>297</ele>
        <time>2021-04-11 09:41:27</time>
      </trkpt>
      <trkpt lat="41.53059" lon="1.92752">
        <ele>296.8</ele>
        <time>2021-04-11 09:41:28</time>
      </trkpt>
      <trkpt lat="41.53053" lon="1.92759">
        <ele>296.8</ele>
        <time>2021-04-11 09:41:29</time>
      </trkpt>
      <trkpt lat="41.53047" lon="1.92764">
        <ele>296.6</ele>
        <time>2021-04-11 09:41:30</time>
      </trkpt>
      <trkpt lat="41.5304" lon="1.92767">
        <ele>296.4</ele>
        <time>2021-04-11 09:41:31</time>
      </trkpt>
      <trkpt lat="41.53034" lon="1.92769">
        <ele>296.2</ele>
        <time>2021-04-11 09:41:32</time>
      </trkpt>
      <trkpt lat="41.53027" lon="1.92769">
        <ele>296</ele>
        <time>2021-04-11 09:41:33</time>
      </trkpt>
      <trkpt lat="41.53018" lon="1.92769">
        <ele>295.6</ele>
        <time>2021-04-11 09:41:34</time>
      </trkpt>
      <trkpt lat="41.53011" lon="1.9277">
        <ele>295.4</ele>
        <time>2021-04-11 09:41:35</time>
      </trkpt>
      <trkpt lat="41.53004" lon="1.92771">
        <ele>295.2</ele>
        <time>2021-04-11 09:41:36</time>
      </trkpt>
      <trkpt lat="41.52998" lon="1.92775">
        <ele>295</ele>
        <time>2021-04-11 09:41:37</time>
      </trkpt>
      <trkpt lat="41.52992" lon="1.9278">
        <ele>294.6</ele>
        <time>2021-04-11 09:41:38</time>
      </trkpt>
      <trkpt lat="41.52988" lon="1.92786">
        <ele>294.2</ele>
        <time>2021-04-11 09:41:39</time>
      </trkpt>
      <trkpt lat="41.52985" lon="1.92793">
        <ele>293.4</ele>
        <time>2021-04-11 09:41:40</time>
      </trkpt>
      <trkpt lat="41.52982" lon="1.92803">
        <ele>292.6</ele>
        <time>2021-04-11 09:41:41</time>
      </trkpt>
      <trkpt lat="41.52978" lon="1.92814">
        <ele>291.6</ele>
        <time>2021-04-11 09:41:42</time>
      </trkpt>
      <trkpt lat="41.52974" lon="1.92824">
        <ele>290.8</ele>
        <time>2021-04-11 09:41:43</time>
      </trkpt>
      <trkpt lat="41.52968" lon="1.9284">
        <ele>289.8</ele>
        <time>2021-04-11 09:41:44</time>
      </trkpt>
      <trkpt lat="41.52962" lon="1.92853">
        <ele>289.2</ele>
        <time>2021-04-11 09:41:45</time>
      </trkpt>
      <trkpt lat="41.52956" lon="1.92864">
        <ele>288.6</ele>
        <time>2021-04-11 09:41:46</time>
      </trkpt>
      <trkpt lat="41.5295" lon="1.92875">
        <ele>288.2</ele>
        <time>2021-04-11 09:41:47</time>
      </trkpt>
      <trkpt lat="41.52945" lon="1.92887">
        <ele>287.8</ele>
        <time>2021-04-11 09:41:48</time>
      </trkpt>
      <trkpt lat="41.52941" lon="1.92897">
        <ele>287.6</ele>
        <time>2021-04-11 09:41:49</time>
      </trkpt>
      <trkpt lat="41.52938" lon="1.92908">
        <ele>287.2</ele>
        <time>2021-04-11 09:41:50</time>
      </trkpt>
      <trkpt lat="41.52934" lon="1.92918">
        <ele>286.8</ele>
        <time>2021-04-11 09:41:51</time>
      </trkpt>
      <trkpt lat="41.52929" lon="1.92928">
        <ele>286.4</ele>
        <time>2021-04-11 09:41:52</time>
      </trkpt>
      <trkpt lat="41.52925" lon="1.92937">
        <ele>286</ele>
        <time>2021-04-11 09:41:53</time>
      </trkpt>
      <trkpt lat="41.52921" lon="1.92948">
        <ele>285.4</ele>
        <time>2021-04-11 09:41:54</time>
      </trkpt>
      <trkpt lat="41.52917" lon="1.92959">
        <ele>284.8</ele>
        <time>2021-04-11 09:41:55</time>
      </trkpt>
      <trkpt lat="41.52915" lon="1.9297">
        <ele>284</ele>
        <time>2021-04-11 09:41:56</time>
      </trkpt>
      <trkpt lat="41.52913" lon="1.92982">
        <ele>283.4</ele>
        <time>2021-04-11 09:41:57</time>
      </trkpt>
      <trkpt lat="41.52912" lon="1.92995">
        <ele>282.6</ele>
        <time>2021-04-11 09:41:58</time>
      </trkpt>
      <trkpt lat="41.52912" lon="1.93008">
        <ele>281.6</ele>
        <time>2021-04-11 09:41:59</time>
      </trkpt>
      <trkpt lat="41.52912" lon="1.93023">
        <ele>280.8</ele>
        <time>2021-04-11 09:42:00</time>
      </trkpt>
      <trkpt lat="41.5291" lon="1.93037">
        <ele>280</ele>
        <time>2021-04-11 09:42:01</time>
      </trkpt>
      <trkpt lat="41.52909" lon="1.93051">
        <ele>279.2</ele>
        <time>2021-04-11 09:42:02</time>
      </trkpt>
      <trkpt lat="41.52908" lon="1.93066">
        <ele>278.6</ele>
        <time>2021-04-11 09:42:03</time>
      </trkpt>
      <trkpt lat="41.52906" lon="1.93078">
        <ele>278.2</ele>
        <time>2021-04-11 09:42:04</time>
      </trkpt>
      <trkpt lat="41.52903" lon="1.93088">
        <ele>277.6</ele>
        <time>2021-04-11 09:42:05</time>
      </trkpt>
      <trkpt lat="41.529" lon="1.93095">
        <ele>277.2</ele>
        <time>2021-04-11 09:42:06</time>
      </trkpt>
      <trkpt lat="41.52896" lon="1.931">
        <ele>277</ele>
        <time>2021-04-11 09:42:07</time>
      </trkpt>
      <trkpt lat="41.52891" lon="1.93101">
        <ele>276.6</ele>
        <time>2021-04-11 09:42:08</time>
      </trkpt>
      <trkpt lat="41.52887" lon="1.93098">
        <ele>276.4</ele>
        <time>2021-04-11 09:42:09</time>
      </trkpt>
      <trkpt lat="41.52884" lon="1.93092">
        <ele>276</ele>
        <time>2021-04-11 09:42:10</time>
      </trkpt>
      <trkpt lat="41.52882" lon="1.93085">
        <ele>275.6</ele>
        <time>2021-04-11 09:42:11</time>
      </trkpt>
      <trkpt lat="41.52882" lon="1.93076">
        <ele>275.2</ele>
        <time>2021-04-11 09:42:12</time>
      </trkpt>
      <trkpt lat="41.52882" lon="1.93066">
        <ele>274.6</ele>
        <time>2021-04-11 09:42:13</time>
      </trkpt>
      <trkpt lat="41.52883" lon="1.93057">
        <ele>274</ele>
        <time>2021-04-11 09:42:14</time>
      </trkpt>
      <trkpt lat="41.52883" lon="1.93047">
        <ele>273.4</ele>
        <time>2021-04-11 09:42:15</time>
      </trkpt>
      <trkpt lat="41.52882" lon="1.93039">
        <ele>272.8</ele>
        <time>2021-04-11 09:42:16</time>
      </trkpt>
      <trkpt lat="41.52878" lon="1.93028">
        <ele>272.2</ele>
        <time>2021-04-11 09:42:17</time>
      </trkpt>
      <trkpt lat="41.52874" lon="1.93021">
        <ele>271.6</ele>
        <time>2021-04-11 09:42:18</time>
      </trkpt>
      <trkpt lat="41.52868" lon="1.93013">
        <ele>271</ele>
        <time>2021-04-11 09:42:19</time>
      </trkpt>
      <trkpt lat="41.52862" lon="1.93006">
        <ele>270.2</ele>
        <time>2021-04-11 09:42:20</time>
      </trkpt>
      <trkpt lat="41.52855" lon="1.92997">
        <ele>269.2</ele>
        <time>2021-04-11 09:42:21</time>
      </trkpt>
      <trkpt lat="41.52847" lon="1.92988">
        <ele>268.2</ele>
        <time>2021-04-11 09:42:22</time>
      </trkpt>
      <trkpt lat="41.5284" lon="1.92978">
        <ele>267</ele>
        <time>2021-04-11 09:42:23</time>
      </trkpt>
      <trkpt lat="41.52832" lon="1.92968">
        <ele>265.8</ele>
        <time>2021-04-11 09:42:24</time>
      </trkpt>
      <trkpt lat="41.52823" lon="1.92959">
        <ele>264.6</ele>
        <time>2021-04-11 09:42:25</time>
      </trkpt>
      <trkpt lat="41.52814" lon="1.9295">
        <ele>263.8</ele>
        <time>2021-04-11 09:42:26</time>
      </trkpt>
      <trkpt lat="41.52804" lon="1.92943">
        <ele>263</ele>
        <time>2021-04-11 09:42:27</time>
      </trkpt>
      <trkpt lat="41.52794" lon="1.92935">
        <ele>262.4</ele>
        <time>2021-04-11 09:42:28</time>
      </trkpt>
      <trkpt lat="41.52786" lon="1.92929">
        <ele>262.4</ele>
        <time>2021-04-11 09:42:29</time>
      </trkpt>
      <trkpt lat="41.52778" lon="1.92924">
        <ele>262.4</ele>
        <time>2021-04-11 09:42:30</time>
      </trkpt>
      <trkpt lat="41.52772" lon="1.92919">
        <ele>262.8</ele>
        <time>2021-04-11 09:42:31</time>
      </trkpt>
      <trkpt lat="41.52768" lon="1.92916">
        <ele>263.4</ele>
        <time>2021-04-11 09:42:32</time>
      </trkpt>
      <trkpt lat="41.52762" lon="1.92914">
        <ele>263.8</ele>
        <time>2021-04-11 09:42:33</time>
      </trkpt>
      <trkpt lat="41.52758" lon="1.92913">
        <ele>264.4</ele>
        <time>2021-04-11 09:42:34</time>
      </trkpt>
      <trkpt lat="41.52755" lon="1.92914">
        <ele>265</ele>
        <time>2021-04-11 09:42:35</time>
      </trkpt>
      <trkpt lat="41.52752" lon="1.92916">
        <ele>265.4</ele>
        <time>2021-04-11 09:42:36</time>
      </trkpt>
      <trkpt lat="41.52749" lon="1.92917">
        <ele>265.8</ele>
        <time>2021-04-11 09:42:37</time>
      </trkpt>
      <trkpt lat="41.52747" lon="1.92919">
        <ele>266</ele>
        <time>2021-04-11 09:42:38</time>
      </trkpt>
      <trkpt lat="41.52743" lon="1.92921">
        <ele>266.2</ele>
        <time>2021-04-11 09:42:39</time>
      </trkpt>
      <trkpt lat="41.52739" lon="1.92923">
        <ele>266.6</ele>
        <time>2021-04-11 09:42:40</time>
      </trkpt>
      <trkpt lat="41.52736" lon="1.92924">
        <ele>266.8</ele>
        <time>2021-04-11 09:42:41</time>
      </trkpt>
      <trkpt lat="41.52733" lon="1.92926">
        <ele>267</ele>
        <time>2021-04-11 09:42:42</time>
      </trkpt>
      <trkpt lat="41.52729" lon="1.92928">
        <ele>267.4</ele>
        <time>2021-04-11 09:42:43</time>
      </trkpt>
      <trkpt lat="41.52725" lon="1.92929">
        <ele>267.6</ele>
        <time>2021-04-11 09:42:44</time>
      </trkpt>
      <trkpt lat="41.52722" lon="1.92931">
        <ele>267.8</ele>
        <time>2021-04-11 09:42:45</time>
      </trkpt>
      <trkpt lat="41.52718" lon="1.92933">
        <ele>268</ele>
        <time>2021-04-11 09:42:46</time>
      </trkpt>
      <trkpt lat="41.52714" lon="1.92934">
        <ele>268.2</ele>
        <time>2021-04-11 09:42:47</time>
      </trkpt>
      <trkpt lat="41.52711" lon="1.92936">
        <ele>268.6</ele>
        <time>2021-04-11 09:42:48</time>
      </trkpt>
      <trkpt lat="41.52707" lon="1.92937">
        <ele>268.8</ele>
        <time>2021-04-11 09:42:49</time>
      </trkpt>
      <trkpt lat="41.52704" lon="1.92939">
        <ele>269.2</ele>
        <time>2021-04-11 09:42:50</time>
      </trkpt>
      <trkpt lat="41.52701" lon="1.9294">
        <ele>269.4</ele>
        <time>2021-04-11 09:42:51</time>
      </trkpt>
      <trkpt lat="41.52696" lon="1.92941">
        <ele>269.8</ele>
        <time>2021-04-11 09:42:52</time>
      </trkpt>
      <trkpt lat="41.52693" lon="1.92942">
        <ele>270</ele>
        <time>2021-04-11 09:42:53</time>
      </trkpt>
      <trkpt lat="41.52688" lon="1.92943">
        <ele>270.4</ele>
        <time>2021-04-11 09:42:54</time>
      </trkpt>
      <trkpt lat="41.52685" lon="1.92943">
        <ele>270.6</ele>
        <time>2021-04-11 09:42:55</time>
      </trkpt>
      <trkpt lat="41.52681" lon="1.92944">
        <ele>271</ele>
        <time>2021-04-11 09:42:56</time>
      </trkpt>
      <trkpt lat="41.52677" lon="1.92945">
        <ele>271.4</ele>
        <time>2021-04-11 09:42:57</time>
      </trkpt>
      <trkpt lat="41.52673" lon="1.92945">
        <ele>271.8</ele>
        <time>2021-04-11 09:42:58</time>
      </trkpt>
      <trkpt lat="41.52669" lon="1.92946">
        <ele>272.2</ele>
        <time>2021-04-11 09:42:59</time>
      </trkpt>
      <trkpt lat="41.52665" lon="1.92947">
        <ele>272.6</ele>
        <time>2021-04-11 09:43:00</time>
      </trkpt>
      <trkpt lat="41.52661" lon="1.92947">
        <ele>272.8</ele>
        <time>2021-04-11 09:43:01</time>
      </trkpt>
      <trkpt lat="41.52657" lon="1.92946">
        <ele>273.2</ele>
        <time>2021-04-11 09:43:02</time>
      </trkpt>
      <trkpt lat="41.52653" lon="1.92946">
        <ele>273.6</ele>
        <time>2021-04-11 09:43:03</time>
      </trkpt>
      <trkpt lat="41.52649" lon="1.92946">
        <ele>273.8</ele>
        <time>2021-04-11 09:43:04</time>
      </trkpt>
      <trkpt lat="41.52645" lon="1.92947">
        <ele>274.2</ele>
        <time>2021-04-11 09:43:05</time>
      </trkpt>
      <trkpt lat="41.52641" lon="1.92947">
        <ele>274.4</ele>
        <time>2021-04-11 09:43:06</time>
      </trkpt>
      <trkpt lat="41.52637" lon="1.92948">
        <ele>274.8</ele>
        <time>2021-04-11 09:43:07</time>
      </trkpt>
      <trkpt lat="41.52633" lon="1.92948">
        <ele>275</ele>
        <time>2021-04-11 09:43:08</time>
      </trkpt>
      <trkpt lat="41.52629" lon="1.92949">
        <ele>275.4</ele>
        <time>2021-04-11 09:43:09</time>
      </trkpt>
      <trkpt lat="41.52625" lon="1.92949">
        <ele>275.6</ele>
        <time>2021-04-11 09:43:10</time>
      </trkpt>
      <trkpt lat="41.5262" lon="1.92949">
        <ele>275.8</ele>
        <time>2021-04-11 09:43:11</time>
      </trkpt>
      <trkpt lat="41.52616" lon="1.9295">
        <ele>276.2</ele>
        <time>2021-04-11 09:43:12</time>
      </trkpt>
      <trkpt lat="41.52613" lon="1.9295">
        <ele>276.4</ele>
        <time>2021-04-11 09:43:13</time>
      </trkpt>
      <trkpt lat="41.52608" lon="1.9295">
        <ele>276.6</ele>
        <time>2021-04-11 09:43:14</time>
      </trkpt>
      <trkpt lat="41.52604" lon="1.9295">
        <ele>277</ele>
        <time>2021-04-11 09:43:15</time>
      </trkpt>
      <trkpt lat="41.52599" lon="1.92951">
        <ele>277.2</ele>
        <time>2021-04-11 09:43:16</time>
      </trkpt>
      <trkpt lat="41.52595" lon="1.92952">
        <ele>277.4</ele>
        <time>2021-04-11 09:43:17</time>
      </trkpt>
      <trkpt lat="41.52591" lon="1.92953">
        <ele>277.6</ele>
        <time>2021-04-11 09:43:18</time>
      </trkpt>
      <trkpt lat="41.52587" lon="1.92954">
        <ele>278</ele>
        <time>2021-04-11 09:43:19</time>
      </trkpt>
      <trkpt lat="41.52583" lon="1.92955">
        <ele>278.2</ele>
        <time>2021-04-11 09:43:20</time>
      </trkpt>
      <trkpt lat="41.52579" lon="1.92956">
        <ele>278.4</ele>
        <time>2021-04-11 09:43:21</time>
      </trkpt>
      <trkpt lat="41.52574" lon="1.92958">
        <ele>278.8</ele>
        <time>2021-04-11 09:43:22</time>
      </trkpt>
      <trkpt lat="41.52571" lon="1.92959">
        <ele>279</ele>
        <time>2021-04-11 09:43:23</time>
      </trkpt>
      <trkpt lat="41.52566" lon="1.92961">
        <ele>279.2</ele>
        <time>2021-04-11 09:43:24</time>
      </trkpt>
      <trkpt lat="41.52562" lon="1.92962">
        <ele>279.6</ele>
        <time>2021-04-11 09:43:25</time>
      </trkpt>
      <trkpt lat="41.52558" lon="1.92964">
        <ele>279.8</ele>
        <time>2021-04-11 09:43:26</time>
      </trkpt>
      <trkpt lat="41.52554" lon="1.92965">
        <ele>280.2</ele>
        <time>2021-04-11 09:43:27</time>
      </trkpt>
      <trkpt lat="41.5255" lon="1.92967">
        <ele>280.4</ele>
        <time>2021-04-11 09:43:28</time>
      </trkpt>
      <trkpt lat="41.52546" lon="1.92969">
        <ele>280.8</ele>
        <time>2021-04-11 09:43:29</time>
      </trkpt>
      <trkpt lat="41.52543" lon="1.9297">
        <ele>281</ele>
        <time>2021-04-11 09:43:30</time>
      </trkpt>
      <trkpt lat="41.52539" lon="1.92971">
        <ele>281.2</ele>
        <time>2021-04-11 09:43:31</time>
      </trkpt>
      <trkpt lat="41.52535" lon="1.92973">
        <ele>281.6</ele>
        <time>2021-04-11 09:43:32</time>
      </trkpt>
      <trkpt lat="41.52532" lon="1.92974">
        <ele>281.8</ele>
        <time>2021-04-11 09:43:33</time>
      </trkpt>
      <trkpt lat="41.52528" lon="1.92976">
        <ele>282.2</ele>
        <time>2021-04-11 09:43:34</time>
      </trkpt>
      <trkpt lat="41.52525" lon="1.92977">
        <ele>282.4</ele>
        <time>2021-04-11 09:43:35</time>
      </trkpt>
      <trkpt lat="41.52521" lon="1.92977">
        <ele>282.6</ele>
        <time>2021-04-11 09:43:36</time>
      </trkpt>
      <trkpt lat="41.52519" lon="1.92977">
        <ele>282.8</ele>
        <time>2021-04-11 09:43:37</time>
      </trkpt>
      <trkpt lat="41.52516" lon="1.92976">
        <ele>283</ele>
        <time>2021-04-11 09:43:38</time>
      </trkpt>
      <trkpt lat="41.52513" lon="1.92974">
        <ele>283</ele>
        <time>2021-04-11 09:43:39</time>
      </trkpt>
      <trkpt lat="41.52511" lon="1.92971">
        <ele>283</ele>
        <time>2021-04-11 09:43:40</time>
      </trkpt>
      <trkpt lat="41.52509" lon="1.92968">
        <ele>283</ele>
        <time>2021-04-11 09:43:41</time>
      </trkpt>
      <trkpt lat="41.52508" lon="1.92963">
        <ele>282.8</ele>
        <time>2021-04-11 09:43:42</time>
      </trkpt>
      <trkpt lat="41.52506" lon="1.92959">
        <ele>282.8</ele>
        <time>2021-04-11 09:43:43</time>
      </trkpt>
      <trkpt lat="41.52505" lon="1.92955">
        <ele>282.6</ele>
        <time>2021-04-11 09:43:44</time>
      </trkpt>
      <trkpt lat="41.52504" lon="1.92952">
        <ele>282.4</ele>
        <time>2021-04-11 09:43:45</time>
      </trkpt>
      <trkpt lat="41.52504" lon="1.92949">
        <ele>282.4</ele>
        <time>2021-04-11 09:43:46</time>
      </trkpt>
      <trkpt lat="41.52503" lon="1.92947">
        <ele>282.2</ele>
        <time>2021-04-11 09:43:47</time>
      </trkpt>
      <trkpt lat="41.52503" lon="1.92944">
        <ele>282.2</ele>
        <time>2021-04-11 09:43:48</time>
      </trkpt>
      <trkpt lat="41.52502" lon="1.92943">
        <ele>281.8</ele>
        <time>2021-04-11 09:45:24</time>
      </trkpt>
      <trkpt lat="41.52502" lon="1.9294">
        <ele>281.6</ele>
        <time>2021-04-11 09:45:25</time>
      </trkpt>
      <trkpt lat="41.525" lon="1.92937">
        <ele>281.6</ele>
        <time>2021-04-11 09:45:26</time>
      </trkpt>
      <trkpt lat="41.525" lon="1.92934">
        <ele>281.6</ele>
        <time>2021-04-11 09:45:27</time>
      </trkpt>
      <trkpt lat="41.52499" lon="1.92929">
        <ele>281.4</ele>
        <time>2021-04-11 09:45:28</time>
      </trkpt>
      <trkpt lat="41.52497" lon="1.92924">
        <ele>281.2</ele>
        <time>2021-04-11 09:45:29</time>
      </trkpt>
      <trkpt lat="41.52496" lon="1.92919">
        <ele>281</ele>
        <time>2021-04-11 09:45:30</time>
      </trkpt>
      <trkpt lat="41.52495" lon="1.92915">
        <ele>280.8</ele>
        <time>2021-04-11 09:45:31</time>
      </trkpt>
      <trkpt lat="41.52492" lon="1.92909">
        <ele>280.6</ele>
        <time>2021-04-11 09:45:32</time>
      </trkpt>
      <trkpt lat="41.52489" lon="1.92904">
        <ele>280.4</ele>
        <time>2021-04-11 09:45:33</time>
      </trkpt>
      <trkpt lat="41.52485" lon="1.92899">
        <ele>280</ele>
        <time>2021-04-11 09:45:34</time>
      </trkpt>
      <trkpt lat="41.5248" lon="1.92895">
        <ele>279.6</ele>
        <time>2021-04-11 09:45:35</time>
      </trkpt>
      <trkpt lat="41.52475" lon="1.9289">
        <ele>279.2</ele>
        <time>2021-04-11 09:45:36</time>
      </trkpt>
      <trkpt lat="41.5247" lon="1.92885">
        <ele>279</ele>
        <time>2021-04-11 09:45:37</time>
      </trkpt>
      <trkpt lat="41.52463" lon="1.92881">
        <ele>278.6</ele>
        <time>2021-04-11 09:45:38</time>
      </trkpt>
      <trkpt lat="41.52457" lon="1.92877">
        <ele>278.2</ele>
        <time>2021-04-11 09:45:39</time>
      </trkpt>
      <trkpt lat="41.52451" lon="1.92872">
        <ele>277.6</ele>
        <time>2021-04-11 09:45:40</time>
      </trkpt>
      <trkpt lat="41.52444" lon="1.92867">
        <ele>277.2</ele>
        <time>2021-04-11 09:45:41</time>
      </trkpt>
      <trkpt lat="41.52437" lon="1.92863">
        <ele>276.6</ele>
        <time>2021-04-11 09:45:42</time>
      </trkpt>
      <trkpt lat="41.52431" lon="1.92858">
        <ele>276.2</ele>
        <time>2021-04-11 09:45:43</time>
      </trkpt>
      <trkpt lat="41.52423" lon="1.92855">
        <ele>275.6</ele>
        <time>2021-04-11 09:45:44</time>
      </trkpt>
      <trkpt lat="41.52414" lon="1.92852">
        <ele>275.2</ele>
        <time>2021-04-11 09:45:45</time>
      </trkpt>
      <trkpt lat="41.52406" lon="1.92852">
        <ele>274.8</ele>
        <time>2021-04-11 09:45:46</time>
      </trkpt>
      <trkpt lat="41.52398" lon="1.92854">
        <ele>274.4</ele>
        <time>2021-04-11 09:45:47</time>
      </trkpt>
      <trkpt lat="41.52391" lon="1.92859">
        <ele>274.4</ele>
        <time>2021-04-11 09:45:48</time>
      </trkpt>
      <trkpt lat="41.52386" lon="1.92865">
        <ele>274.2</ele>
        <time>2021-04-11 09:45:49</time>
      </trkpt>
      <trkpt lat="41.52381" lon="1.92875">
        <ele>274.2</ele>
        <time>2021-04-11 09:45:50</time>
      </trkpt>
      <trkpt lat="41.52377" lon="1.92884">
        <ele>274.2</ele>
        <time>2021-04-11 09:45:51</time>
      </trkpt>
      <trkpt lat="41.52372" lon="1.92892">
        <ele>274.2</ele>
        <time>2021-04-11 09:45:52</time>
      </trkpt>
      <trkpt lat="41.52368" lon="1.929">
        <ele>273.8</ele>
        <time>2021-04-11 09:45:53</time>
      </trkpt>
      <trkpt lat="41.52362" lon="1.92908">
        <ele>273.6</ele>
        <time>2021-04-11 09:45:54</time>
      </trkpt>
      <trkpt lat="41.52355" lon="1.92915">
        <ele>273.4</ele>
        <time>2021-04-11 09:45:55</time>
      </trkpt>
      <trkpt lat="41.52349" lon="1.92921">
        <ele>273</ele>
        <time>2021-04-11 09:45:56</time>
      </trkpt>
      <trkpt lat="41.52341" lon="1.92927">
        <ele>272.6</ele>
        <time>2021-04-11 09:45:57</time>
      </trkpt>
      <trkpt lat="41.52334" lon="1.92931">
        <ele>272.2</ele>
        <time>2021-04-11 09:45:58</time>
      </trkpt>
      <trkpt lat="41.52325" lon="1.92935">
        <ele>272</ele>
        <time>2021-04-11 09:45:59</time>
      </trkpt>
      <trkpt lat="41.52318" lon="1.92938">
        <ele>271.8</ele>
        <time>2021-04-11 09:46:00</time>
      </trkpt>
      <trkpt lat="41.5231" lon="1.9294">
        <ele>271.6</ele>
        <time>2021-04-11 09:46:01</time>
      </trkpt>
      <trkpt lat="41.52304" lon="1.92942">
        <ele>271.6</ele>
        <time>2021-04-11 09:46:02</time>
      </trkpt>
      <trkpt lat="41.52296" lon="1.92944">
        <ele>271.4</ele>
        <time>2021-04-11 09:46:03</time>
      </trkpt>
      <trkpt lat="41.52289" lon="1.92945">
        <ele>271.2</ele>
        <time>2021-04-11 09:46:04</time>
      </trkpt>
      <trkpt lat="41.52282" lon="1.92945">
        <ele>271</ele>
        <time>2021-04-11 09:46:05</time>
      </trkpt>
      <trkpt lat="41.52275" lon="1.92946">
        <ele>270.6</ele>
        <time>2021-04-11 09:46:06</time>
      </trkpt>
      <trkpt lat="41.52268" lon="1.92948">
        <ele>270.2</ele>
        <time>2021-04-11 09:46:07</time>
      </trkpt>
      <trkpt lat="41.52261" lon="1.92952">
        <ele>269.8</ele>
        <time>2021-04-11 09:46:08</time>
      </trkpt>
      <trkpt lat="41.52254" lon="1.92956">
        <ele>269.2</ele>
        <time>2021-04-11 09:46:09</time>
      </trkpt>
      <trkpt lat="41.52248" lon="1.92963">
        <ele>268.6</ele>
        <time>2021-04-11 09:46:10</time>
      </trkpt>
      <trkpt lat="41.52243" lon="1.92969">
        <ele>268</ele>
        <time>2021-04-11 09:46:11</time>
      </trkpt>
      <trkpt lat="41.52235" lon="1.92976">
        <ele>267.2</ele>
        <time>2021-04-11 09:46:12</time>
      </trkpt>
      <trkpt lat="41.52228" lon="1.92982">
        <ele>266.6</ele>
        <time>2021-04-11 09:46:13</time>
      </trkpt>
      <trkpt lat="41.5222" lon="1.92986">
        <ele>266</ele>
        <time>2021-04-11 09:46:14</time>
      </trkpt>
      <trkpt lat="41.52212" lon="1.92989">
        <ele>265.6</ele>
        <time>2021-04-11 09:46:15</time>
      </trkpt>
      <trkpt lat="41.52203" lon="1.92991">
        <ele>265.2</ele>
        <time>2021-04-11 09:46:16</time>
      </trkpt>
      <trkpt lat="41.52196" lon="1.92993">
        <ele>265</ele>
        <time>2021-04-11 09:46:17</time>
      </trkpt>
      <trkpt lat="41.52188" lon="1.92995">
        <ele>265</ele>
        <time>2021-04-11 09:46:18</time>
      </trkpt>
      <trkpt lat="41.52182" lon="1.92998">
        <ele>265</ele>
        <time>2021-04-11 09:46:19</time>
      </trkpt>
      <trkpt lat="41.52176" lon="1.93002">
        <ele>265</ele>
        <time>2021-04-11 09:46:20</time>
      </trkpt>
      <trkpt lat="41.52171" lon="1.93005">
        <ele>265.2</ele>
        <time>2021-04-11 09:46:21</time>
      </trkpt>
      <trkpt lat="41.52165" lon="1.9301">
        <ele>265.6</ele>
        <time>2021-04-11 09:46:22</time>
      </trkpt>
      <trkpt lat="41.52161" lon="1.93015">
        <ele>265.8</ele>
        <time>2021-04-11 09:46:23</time>
      </trkpt>
      <trkpt lat="41.52158" lon="1.9302">
        <ele>266</ele>
        <time>2021-04-11 09:46:24</time>
      </trkpt>
      <trkpt lat="41.52155" lon="1.93026">
        <ele>266.2</ele>
        <time>2021-04-11 09:46:25</time>
      </trkpt>
      <trkpt lat="41.52153" lon="1.93033">
        <ele>266.6</ele>
        <time>2021-04-11 09:46:26</time>
      </trkpt>
      <trkpt lat="41.52151" lon="1.93041">
        <ele>266.8</ele>
        <time>2021-04-11 09:46:27</time>
      </trkpt>
      <trkpt lat="41.52151" lon="1.93048">
        <ele>267</ele>
        <time>2021-04-11 09:46:28</time>
      </trkpt>
      <trkpt lat="41.52151" lon="1.93054">
        <ele>267.4</ele>
        <time>2021-04-11 09:46:29</time>
      </trkpt>
      <trkpt lat="41.52151" lon="1.93061">
        <ele>267.6</ele>
        <time>2021-04-11 09:46:30</time>
      </trkpt>
      <trkpt lat="41.52151" lon="1.93069">
        <ele>268</ele>
        <time>2021-04-11 09:46:31</time>
      </trkpt>
      <trkpt lat="41.52151" lon="1.93075">
        <ele>268.4</ele>
        <time>2021-04-11 09:46:32</time>
      </trkpt>
      <trkpt lat="41.5215" lon="1.93082">
        <ele>268.6</ele>
        <time>2021-04-11 09:46:33</time>
      </trkpt>
      <trkpt lat="41.5215" lon="1.93088">
        <ele>269</ele>
        <time>2021-04-11 09:46:34</time>
      </trkpt>
      <trkpt lat="41.52149" lon="1.93093">
        <ele>269.4</ele>
        <time>2021-04-11 09:46:35</time>
      </trkpt>
      <trkpt lat="41.52146" lon="1.93098">
        <ele>269.6</ele>
        <time>2021-04-11 09:46:36</time>
      </trkpt>
      <trkpt lat="41.52143" lon="1.93101">
        <ele>270</ele>
        <time>2021-04-11 09:46:37</time>
      </trkpt>
      <trkpt lat="41.52139" lon="1.93102">
        <ele>270.2</ele>
        <time>2021-04-11 09:46:38</time>
      </trkpt>
      <trkpt lat="41.52135" lon="1.93101">
        <ele>270.2</ele>
        <time>2021-04-11 09:46:39</time>
      </trkpt>
      <trkpt lat="41.52131" lon="1.93098">
        <ele>270.4</ele>
        <time>2021-04-11 09:46:40</time>
      </trkpt>
      <trkpt lat="41.52127" lon="1.93095">
        <ele>270.6</ele>
        <time>2021-04-11 09:46:41</time>
      </trkpt>
      <trkpt lat="41.52124" lon="1.9309">
        <ele>270.6</ele>
        <time>2021-04-11 09:46:42</time>
      </trkpt>
      <trkpt lat="41.5212" lon="1.93086">
        <ele>270.6</ele>
        <time>2021-04-11 09:46:43</time>
      </trkpt>
      <trkpt lat="41.52116" lon="1.93081">
        <ele>270.8</ele>
        <time>2021-04-11 09:46:44</time>
      </trkpt>
      <trkpt lat="41.52114" lon="1.93077">
        <ele>270.8</ele>
        <time>2021-04-11 09:46:45</time>
      </trkpt>
      <trkpt lat="41.52109" lon="1.93072">
        <ele>270.8</ele>
        <time>2021-04-11 09:46:46</time>
      </trkpt>
      <trkpt lat="41.52106" lon="1.93069">
        <ele>270.6</ele>
        <time>2021-04-11 09:46:47</time>
      </trkpt>
      <trkpt lat="41.52101" lon="1.93065">
        <ele>270.6</ele>
        <time>2021-04-11 09:46:48</time>
      </trkpt>
      <trkpt lat="41.52097" lon="1.93062">
        <ele>270.4</ele>
        <time>2021-04-11 09:46:49</time>
      </trkpt>
      <trkpt lat="41.52092" lon="1.9306">
        <ele>270.4</ele>
        <time>2021-04-11 09:46:50</time>
      </trkpt>
      <trkpt lat="41.52087" lon="1.9306">
        <ele>270.2</ele>
        <time>2021-04-11 09:46:51</time>
      </trkpt>
      <trkpt lat="41.52082" lon="1.9306">
        <ele>270.2</ele>
        <time>2021-04-11 09:46:52</time>
      </trkpt>
      <trkpt lat="41.52076" lon="1.93062">
        <ele>270</ele>
        <time>2021-04-11 09:46:53</time>
      </trkpt>
      <trkpt lat="41.52072" lon="1.93064">
        <ele>269.8</ele>
        <time>2021-04-11 09:46:54</time>
      </trkpt>
      <trkpt lat="41.52066" lon="1.93067">
        <ele>269.4</ele>
        <time>2021-04-11 09:46:55</time>
      </trkpt>
      <trkpt lat="41.52061" lon="1.9307">
        <ele>269</ele>
        <time>2021-04-11 09:46:56</time>
      </trkpt>
      <trkpt lat="41.52056" lon="1.93074">
        <ele>268.6</ele>
        <time>2021-04-11 09:46:57</time>
      </trkpt>
      <trkpt lat="41.52051" lon="1.93077">
        <ele>268.2</ele>
        <time>2021-04-11 09:46:58</time>
      </trkpt>
      <trkpt lat="41.52047" lon="1.93081">
        <ele>267.8</ele>
        <time>2021-04-11 09:46:59</time>
      </trkpt>
      <trkpt lat="41.52042" lon="1.93085">
        <ele>267.6</ele>
        <time>2021-04-11 09:47:00</time>
      </trkpt>
      <trkpt lat="41.52039" lon="1.93089">
        <ele>267.2</ele>
        <time>2021-04-11 09:47:01</time>
      </trkpt>
      <trkpt lat="41.52036" lon="1.93094">
        <ele>266.8</ele>
        <time>2021-04-11 09:47:02</time>
      </trkpt>
      <trkpt lat="41.52032" lon="1.93098">
        <ele>266.2</ele>
        <time>2021-04-11 09:47:03</time>
      </trkpt>
      <trkpt lat="41.52028" lon="1.93104">
        <ele>265.6</ele>
        <time>2021-04-11 09:47:04</time>
      </trkpt>
      <trkpt lat="41.52022" lon="1.9311">
        <ele>265.2</ele>
        <time>2021-04-11 09:47:05</time>
      </trkpt>
      <trkpt lat="41.52017" lon="1.93114">
        <ele>264.6</ele>
        <time>2021-04-11 09:47:06</time>
      </trkpt>
      <trkpt lat="41.52011" lon="1.93118">
        <ele>264</ele>
        <time>2021-04-11 09:47:07</time>
      </trkpt>
      <trkpt lat="41.52005" lon="1.93121">
        <ele>263.6</ele>
        <time>2021-04-11 09:47:08</time>
      </trkpt>
      <trkpt lat="41.51998" lon="1.93123">
        <ele>263.2</ele>
        <time>2021-04-11 09:47:09</time>
      </trkpt>
      <trkpt lat="41.51991" lon="1.93123">
        <ele>262.8</ele>
        <time>2021-04-11 09:47:10</time>
      </trkpt>
      <trkpt lat="41.51985" lon="1.93121">
        <ele>262.4</ele>
        <time>2021-04-11 09:47:11</time>
      </trkpt>
      <trkpt lat="41.51979" lon="1.93118">
        <ele>262</ele>
        <time>2021-04-11 09:47:12</time>
      </trkpt>
      <trkpt lat="41.51974" lon="1.93115">
        <ele>261.6</ele>
        <time>2021-04-11 09:47:13</time>
      </trkpt>
      <trkpt lat="41.51966" lon="1.9311">
        <ele>261.2</ele>
        <time>2021-04-11 09:47:14</time>
      </trkpt>
      <trkpt lat="41.51958" lon="1.93107">
        <ele>260.8</ele>
        <time>2021-04-11 09:47:15</time>
      </trkpt>
      <trkpt lat="41.5195" lon="1.93106">
        <ele>260.4</ele>
        <time>2021-04-11 09:47:16</time>
      </trkpt>
      <trkpt lat="41.51942" lon="1.93105">
        <ele>259.8</ele>
        <time>2021-04-11 09:47:17</time>
      </trkpt>
      <trkpt lat="41.51934" lon="1.93105">
        <ele>259.2</ele>
        <time>2021-04-11 09:47:18</time>
      </trkpt>
      <trkpt lat="41.51924" lon="1.93105">
        <ele>258.4</ele>
        <time>2021-04-11 09:47:19</time>
      </trkpt>
      <trkpt lat="41.51915" lon="1.93103">
        <ele>257.6</ele>
        <time>2021-04-11 09:47:20</time>
      </trkpt>
      <trkpt lat="41.51907" lon="1.93099">
        <ele>256.8</ele>
        <time>2021-04-11 09:47:21</time>
      </trkpt>
      <trkpt lat="41.51899" lon="1.93094">
        <ele>256.2</ele>
        <time>2021-04-11 09:47:22</time>
      </trkpt>
      <trkpt lat="41.5189" lon="1.93089">
        <ele>255.8</ele>
        <time>2021-04-11 09:47:23</time>
      </trkpt>
      <trkpt lat="41.5188" lon="1.93085">
        <ele>255.4</ele>
        <time>2021-04-11 09:47:24</time>
      </trkpt>
      <trkpt lat="41.51873" lon="1.93083">
        <ele>255.6</ele>
        <time>2021-04-11 09:47:25</time>
      </trkpt>
      <trkpt lat="41.51866" lon="1.93082">
        <ele>255.6</ele>
        <time>2021-04-11 09:47:26</time>
      </trkpt>
      <trkpt lat="41.5186" lon="1.93082">
        <ele>255.6</ele>
        <time>2021-04-11 09:47:27</time>
      </trkpt>
      <trkpt lat="41.51853" lon="1.93082">
        <ele>255.8</ele>
        <time>2021-04-11 09:47:28</time>
      </trkpt>
      <trkpt lat="41.51847" lon="1.93081">
        <ele>255.6</ele>
        <time>2021-04-11 09:47:29</time>
      </trkpt>
      <trkpt lat="41.51842" lon="1.9308">
        <ele>255.6</ele>
        <time>2021-04-11 09:47:30</time>
      </trkpt>
      <trkpt lat="41.51834" lon="1.9308">
        <ele>255.4</ele>
        <time>2021-04-11 09:47:31</time>
      </trkpt>
      <trkpt lat="41.51827" lon="1.9308">
        <ele>255.2</ele>
        <time>2021-04-11 09:47:32</time>
      </trkpt>
      <trkpt lat="41.5182" lon="1.93081">
        <ele>254.8</ele>
        <time>2021-04-11 09:47:33</time>
      </trkpt>
      <trkpt lat="41.51813" lon="1.93084">
        <ele>254.6</ele>
        <time>2021-04-11 09:47:34</time>
      </trkpt>
      <trkpt lat="41.51808" lon="1.93088">
        <ele>254.2</ele>
        <time>2021-04-11 09:47:35</time>
      </trkpt>
      <trkpt lat="41.51801" lon="1.93094">
        <ele>254</ele>
        <time>2021-04-11 09:47:36</time>
      </trkpt>
      <trkpt lat="41.51795" lon="1.93101">
        <ele>254</ele>
        <time>2021-04-11 09:47:37</time>
      </trkpt>
      <trkpt lat="41.5179" lon="1.93108">
        <ele>254</ele>
        <time>2021-04-11 09:47:38</time>
      </trkpt>
      <trkpt lat="41.51785" lon="1.93116">
        <ele>254</ele>
        <time>2021-04-11 09:47:39</time>
      </trkpt>
      <trkpt lat="41.51781" lon="1.93123">
        <ele>254.2</ele>
        <time>2021-04-11 09:47:40</time>
      </trkpt>
      <trkpt lat="41.51776" lon="1.93129">
        <ele>254.4</ele>
        <time>2021-04-11 09:47:41</time>
      </trkpt>
      <trkpt lat="41.51772" lon="1.93134">
        <ele>254.6</ele>
        <time>2021-04-11 09:47:42</time>
      </trkpt>
      <trkpt lat="41.51767" lon="1.93139">
        <ele>254.8</ele>
        <time>2021-04-11 09:47:43</time>
      </trkpt>
      <trkpt lat="41.51763" lon="1.93143">
        <ele>254.8</ele>
        <time>2021-04-11 09:47:44</time>
      </trkpt>
      <trkpt lat="41.51758" lon="1.93148">
        <ele>255</ele>
        <time>2021-04-11 09:47:45</time>
      </trkpt>
      <trkpt lat="41.51753" lon="1.93152">
        <ele>254.8</ele>
        <time>2021-04-11 09:47:46</time>
      </trkpt>
      <trkpt lat="41.51747" lon="1.93157">
        <ele>254.8</ele>
        <time>2021-04-11 09:47:47</time>
      </trkpt>
      <trkpt lat="41.51741" lon="1.93161">
        <ele>254.4</ele>
        <time>2021-04-11 09:47:48</time>
      </trkpt>
      <trkpt lat="41.51736" lon="1.93164">
        <ele>254.2</ele>
        <time>2021-04-11 09:47:49</time>
      </trkpt>
      <trkpt lat="41.51729" lon="1.93168">
        <ele>253.8</ele>
        <time>2021-04-11 09:47:50</time>
      </trkpt>
      <trkpt lat="41.51722" lon="1.93171">
        <ele>253.6</ele>
        <time>2021-04-11 09:47:51</time>
      </trkpt>
      <trkpt lat="41.51715" lon="1.93175">
        <ele>253.4</ele>
        <time>2021-04-11 09:47:52</time>
      </trkpt>
      <trkpt lat="41.51708" lon="1.93178">
        <ele>253</ele>
        <time>2021-04-11 09:47:53</time>
      </trkpt>
      <trkpt lat="41.51701" lon="1.93181">
        <ele>252.8</ele>
        <time>2021-04-11 09:47:54</time>
      </trkpt>
      <trkpt lat="41.51694" lon="1.93184">
        <ele>252.4</ele>
        <time>2021-04-11 09:47:55</time>
      </trkpt>
      <trkpt lat="41.51686" lon="1.93187">
        <ele>251.8</ele>
        <time>2021-04-11 09:47:56</time>
      </trkpt>
      <trkpt lat="41.51679" lon="1.93191">
        <ele>251.4</ele>
        <time>2021-04-11 09:47:57</time>
      </trkpt>
      <trkpt lat="41.51671" lon="1.93195">
        <ele>251</ele>
        <time>2021-04-11 09:47:58</time>
      </trkpt>
      <trkpt lat="41.51664" lon="1.93198">
        <ele>250.6</ele>
        <time>2021-04-11 09:47:59</time>
      </trkpt>
      <trkpt lat="41.51657" lon="1.93201">
        <ele>250</ele>
        <time>2021-04-11 09:48:00</time>
      </trkpt>
      <trkpt lat="41.5165" lon="1.93203">
        <ele>249.4</ele>
        <time>2021-04-11 09:48:01</time>
      </trkpt>
      <trkpt lat="41.51642" lon="1.93208">
        <ele>248.8</ele>
        <time>2021-04-11 09:48:02</time>
      </trkpt>
      <trkpt lat="41.51636" lon="1.93211">
        <ele>248.2</ele>
        <time>2021-04-11 09:48:03</time>
      </trkpt>
      <trkpt lat="41.51628" lon="1.93216">
        <ele>247.8</ele>
        <time>2021-04-11 09:48:04</time>
      </trkpt>
      <trkpt lat="41.51622" lon="1.93219">
        <ele>247.4</ele>
        <time>2021-04-11 09:48:05</time>
      </trkpt>
      <trkpt lat="41.51616" lon="1.93221">
        <ele>247</ele>
        <time>2021-04-11 09:48:06</time>
      </trkpt>
      <trkpt lat="41.51608" lon="1.93221">
        <ele>246.6</ele>
        <time>2021-04-11 09:48:07</time>
      </trkpt>
      <trkpt lat="41.51601" lon="1.93221">
        <ele>246</ele>
        <time>2021-04-11 09:48:08</time>
      </trkpt>
      <trkpt lat="41.51592" lon="1.93221">
        <ele>245.4</ele>
        <time>2021-04-11 09:48:09</time>
      </trkpt>
      <trkpt lat="41.51585" lon="1.9322">
        <ele>244.6</ele>
        <time>2021-04-11 09:48:10</time>
      </trkpt>
      <trkpt lat="41.51576" lon="1.93218">
        <ele>243.4</ele>
        <time>2021-04-11 09:48:11</time>
      </trkpt>
      <trkpt lat="41.51564" lon="1.93216">
        <ele>242.2</ele>
        <time>2021-04-11 09:48:12</time>
      </trkpt>
      <trkpt lat="41.51553" lon="1.93214">
        <ele>240.8</ele>
        <time>2021-04-11 09:48:13</time>
      </trkpt>
      <trkpt lat="41.51542" lon="1.93212">
        <ele>239.6</ele>
        <time>2021-04-11 09:48:14</time>
      </trkpt>
      <trkpt lat="41.51533" lon="1.9321">
        <ele>238.4</ele>
        <time>2021-04-11 09:48:15</time>
      </trkpt>
      <trkpt lat="41.51522" lon="1.93207">
        <ele>237.4</ele>
        <time>2021-04-11 09:48:16</time>
      </trkpt>
      <trkpt lat="41.51512" lon="1.93204">
        <ele>236.4</ele>
        <time>2021-04-11 09:48:17</time>
      </trkpt>
      <trkpt lat="41.51503" lon="1.93202">
        <ele>235.2</ele>
        <time>2021-04-11 09:48:18</time>
      </trkpt>
      <trkpt lat="41.51493" lon="1.932">
        <ele>234.2</ele>
        <time>2021-04-11 09:48:19</time>
      </trkpt>
      <trkpt lat="41.51484" lon="1.932">
        <ele>233.2</ele>
        <time>2021-04-11 09:48:20</time>
      </trkpt>
      <trkpt lat="41.51475" lon="1.93201">
        <ele>232</ele>
        <time>2021-04-11 09:48:21</time>
      </trkpt>
      <trkpt lat="41.51466" lon="1.93205">
        <ele>231</ele>
        <time>2021-04-11 09:48:22</time>
      </trkpt>
      <trkpt lat="41.51456" lon="1.9321">
        <ele>230</ele>
        <time>2021-04-11 09:48:23</time>
      </trkpt>
      <trkpt lat="41.51447" lon="1.93215">
        <ele>229</ele>
        <time>2021-04-11 09:48:24</time>
      </trkpt>
      <trkpt lat="41.51439" lon="1.9322">
        <ele>228.4</ele>
        <time>2021-04-11 09:48:25</time>
      </trkpt>
      <trkpt lat="41.5143" lon="1.93223">
        <ele>227.8</ele>
        <time>2021-04-11 09:48:26</time>
      </trkpt>
      <trkpt lat="41.51423" lon="1.93225">
        <ele>227.4</ele>
        <time>2021-04-11 09:48:27</time>
      </trkpt>
      <trkpt lat="41.51413" lon="1.93226">
        <ele>227</ele>
        <time>2021-04-11 09:48:28</time>
      </trkpt>
      <trkpt lat="41.51407" lon="1.93226">
        <ele>226.6</ele>
        <time>2021-04-11 09:48:29</time>
      </trkpt>
      <trkpt lat="41.51396" lon="1.93226">
        <ele>226.4</ele>
        <time>2021-04-11 09:48:30</time>
      </trkpt>
      <trkpt lat="41.51388" lon="1.93226">
        <ele>226.2</ele>
        <time>2021-04-11 09:48:31</time>
      </trkpt>
      <trkpt lat="41.5138" lon="1.93226">
        <ele>226.2</ele>
        <time>2021-04-11 09:48:32</time>
      </trkpt>
      <trkpt lat="41.51373" lon="1.93226">
        <ele>226.2</ele>
        <time>2021-04-11 09:48:33</time>
      </trkpt>
      <trkpt lat="41.51365" lon="1.93226">
        <ele>226.2</ele>
        <time>2021-04-11 09:48:34</time>
      </trkpt>
      <trkpt lat="41.51357" lon="1.93227">
        <ele>226.2</ele>
        <time>2021-04-11 09:48:35</time>
      </trkpt>
      <trkpt lat="41.51349" lon="1.93227">
        <ele>226.2</ele>
        <time>2021-04-11 09:48:36</time>
      </trkpt>
      <trkpt lat="41.51342" lon="1.93227">
        <ele>226.2</ele>
        <time>2021-04-11 09:48:37</time>
      </trkpt>
      <trkpt lat="41.51335" lon="1.93227">
        <ele>226.2</ele>
        <time>2021-04-11 09:48:38</time>
      </trkpt>
      <trkpt lat="41.51327" lon="1.93228">
        <ele>226.2</ele>
        <time>2021-04-11 09:48:39</time>
      </trkpt>
      <trkpt lat="41.5132" lon="1.93228">
        <ele>226.2</ele>
        <time>2021-04-11 09:48:40</time>
      </trkpt>
      <trkpt lat="41.51312" lon="1.93228">
        <ele>226.2</ele>
        <time>2021-04-11 09:48:41</time>
      </trkpt>
      <trkpt lat="41.51305" lon="1.93227">
        <ele>226</ele>
        <time>2021-04-11 09:48:42</time>
      </trkpt>
      <trkpt lat="41.51297" lon="1.93227">
        <ele>226</ele>
        <time>2021-04-11 09:48:43</time>
      </trkpt>
      <trkpt lat="41.51289" lon="1.93225">
        <ele>225.8</ele>
        <time>2021-04-11 09:48:44</time>
      </trkpt>
      <trkpt lat="41.51282" lon="1.93223">
        <ele>225.8</ele>
        <time>2021-04-11 09:48:45</time>
      </trkpt>
      <trkpt lat="41.51274" lon="1.93221">
        <ele>225.6</ele>
        <time>2021-04-11 09:48:46</time>
      </trkpt>
      <trkpt lat="41.51266" lon="1.93219">
        <ele>225.6</ele>
        <time>2021-04-11 09:48:47</time>
      </trkpt>
      <trkpt lat="41.51259" lon="1.93217">
        <ele>225.6</ele>
        <time>2021-04-11 09:48:48</time>
      </trkpt>
      <trkpt lat="41.5125" lon="1.93215">
        <ele>225.6</ele>
        <time>2021-04-11 09:48:49</time>
      </trkpt>
      <trkpt lat="41.51243" lon="1.93215">
        <ele>225.6</ele>
        <time>2021-04-11 09:48:50</time>
      </trkpt>
      <trkpt lat="41.51236" lon="1.93214">
        <ele>225.6</ele>
        <time>2021-04-11 09:48:51</time>
      </trkpt>
      <trkpt lat="41.51229" lon="1.93213">
        <ele>225.8</ele>
        <time>2021-04-11 09:48:52</time>
      </trkpt>
      <trkpt lat="41.51224" lon="1.93213">
        <ele>226</ele>
        <time>2021-04-11 09:48:53</time>
      </trkpt>
      <trkpt lat="41.51218" lon="1.93211">
        <ele>226</ele>
        <time>2021-04-11 09:48:54</time>
      </trkpt>
      <trkpt lat="41.51211" lon="1.9321">
        <ele>226</ele>
        <time>2021-04-11 09:48:55</time>
      </trkpt>
      <trkpt lat="41.51205" lon="1.93208">
        <ele>225.8</ele>
        <time>2021-04-11 09:48:56</time>
      </trkpt>
      <trkpt lat="41.51198" lon="1.93207">
        <ele>225.8</ele>
        <time>2021-04-11 09:48:57</time>
      </trkpt>
      <trkpt lat="41.51192" lon="1.93205">
        <ele>225.6</ele>
        <time>2021-04-11 09:48:58</time>
      </trkpt>
      <trkpt lat="41.51185" lon="1.93204">
        <ele>225.6</ele>
        <time>2021-04-11 09:48:59</time>
      </trkpt>
      <trkpt lat="41.51179" lon="1.93204">
        <ele>225.6</ele>
        <time>2021-04-11 09:49:00</time>
      </trkpt>
      <trkpt lat="41.51174" lon="1.93204">
        <ele>225.4</ele>
        <time>2021-04-11 09:49:01</time>
      </trkpt>
      <trkpt lat="41.51169" lon="1.93205">
        <ele>225.4</ele>
        <time>2021-04-11 09:49:02</time>
      </trkpt>
      <trkpt lat="41.51164" lon="1.93207">
        <ele>225.2</ele>
        <time>2021-04-11 09:49:03</time>
      </trkpt>
      <trkpt lat="41.5116" lon="1.93211">
        <ele>225</ele>
        <time>2021-04-11 09:49:04</time>
      </trkpt>
      <trkpt lat="41.51154" lon="1.93216">
        <ele>224.8</ele>
        <time>2021-04-11 09:49:05</time>
      </trkpt>
      <trkpt lat="41.51148" lon="1.93222">
        <ele>224.4</ele>
        <time>2021-04-11 09:49:06</time>
      </trkpt>
      <trkpt lat="41.51143" lon="1.93227">
        <ele>224.2</ele>
        <time>2021-04-11 09:49:07</time>
      </trkpt>
      <trkpt lat="41.51137" lon="1.93234">
        <ele>223.8</ele>
        <time>2021-04-11 09:49:08</time>
      </trkpt>
      <trkpt lat="41.5113" lon="1.93239">
        <ele>223.6</ele>
        <time>2021-04-11 09:49:09</time>
      </trkpt>
      <trkpt lat="41.51124" lon="1.93244">
        <ele>223.4</ele>
        <time>2021-04-11 09:49:10</time>
      </trkpt>
      <trkpt lat="41.51117" lon="1.93248">
        <ele>223.2</ele>
        <time>2021-04-11 09:49:11</time>
      </trkpt>
      <trkpt lat="41.51111" lon="1.93252">
        <ele>223</ele>
        <time>2021-04-11 09:49:12</time>
      </trkpt>
      <trkpt lat="41.51104" lon="1.93257">
        <ele>222.6</ele>
        <time>2021-04-11 09:49:13</time>
      </trkpt>
      <trkpt lat="41.51097" lon="1.93261">
        <ele>222.6</ele>
        <time>2021-04-11 09:49:14</time>
      </trkpt>
      <trkpt lat="41.51092" lon="1.93264">
        <ele>222.4</ele>
        <time>2021-04-11 09:49:15</time>
      </trkpt>
      <trkpt lat="41.51085" lon="1.93268">
        <ele>222.4</ele>
        <time>2021-04-11 09:49:16</time>
      </trkpt>
      <trkpt lat="41.51081" lon="1.9327">
        <ele>222.6</ele>
        <time>2021-04-11 09:49:17</time>
      </trkpt>
      <trkpt lat="41.51076" lon="1.93271">
        <ele>222.6</ele>
        <time>2021-04-11 09:49:18</time>
      </trkpt>
      <trkpt lat="41.51072" lon="1.9327">
        <ele>222.6</ele>
        <time>2021-04-11 09:49:19</time>
      </trkpt>
      <trkpt lat="41.51068" lon="1.93267">
        <ele>222.8</ele>
        <time>2021-04-11 09:49:20</time>
      </trkpt>
      <trkpt lat="41.51065" lon="1.93265">
        <ele>222.8</ele>
        <time>2021-04-11 09:49:21</time>
      </trkpt>
      <trkpt lat="41.51062" lon="1.93264">
        <ele>222.8</ele>
        <time>2021-04-11 09:49:22</time>
      </trkpt>
      <trkpt lat="41.51058" lon="1.93262">
        <ele>222.8</ele>
        <time>2021-04-11 09:49:23</time>
      </trkpt>
      <trkpt lat="41.51053" lon="1.9326">
        <ele>222.6</ele>
        <time>2021-04-11 09:49:24</time>
      </trkpt>
      <trkpt lat="41.51049" lon="1.93259">
        <ele>222.4</ele>
        <time>2021-04-11 09:49:25</time>
      </trkpt>
      <trkpt lat="41.51044" lon="1.93257">
        <ele>222.2</ele>
        <time>2021-04-11 09:49:26</time>
      </trkpt>
      <trkpt lat="41.51039" lon="1.93254">
        <ele>222</ele>
        <time>2021-04-11 09:49:27</time>
      </trkpt>
      <trkpt lat="41.51035" lon="1.93253">
        <ele>221.8</ele>
        <time>2021-04-11 09:49:28</time>
      </trkpt>
      <trkpt lat="41.51031" lon="1.93251">
        <ele>221.8</ele>
        <time>2021-04-11 09:49:29</time>
      </trkpt>
      <trkpt lat="41.51028" lon="1.9325">
        <ele>221.6</ele>
        <time>2021-04-11 09:49:30</time>
      </trkpt>
      <trkpt lat="41.51026" lon="1.9325">
        <ele>221.6</ele>
        <time>2021-04-11 09:49:31</time>
      </trkpt>
      <trkpt lat="41.51025" lon="1.9325">
        <ele>221.6</ele>
        <time>2021-04-11 09:50:40</time>
      </trkpt>
      <trkpt lat="41.51025" lon="1.9325">
        <ele>221.6</ele>
        <time>2021-04-11 09:50:41</time>
      </trkpt>
      <trkpt lat="41.51025" lon="1.9325">
        <ele>221.6</ele>
        <time>2021-04-11 09:50:42</time>
      </trkpt>
      <trkpt lat="41.51025" lon="1.9325">
        <ele>221.6</ele>
        <time>2021-04-11 09:50:43</time>
      </trkpt>
      <trkpt lat="41.51025" lon="1.9325">
        <ele>221.6</ele>
        <time>2021-04-11 09:50:44</time>
      </trkpt>
      <trkpt lat="41.51025" lon="1.9325">
        <ele>221.6</ele>
        <time>2021-04-11 09:50:45</time>
      </trkpt>
      <trkpt lat="41.51025" lon="1.9325">
        <ele>221.6</ele>
        <time>2021-04-11 09:50:46</time>
      </trkpt>
      <trkpt lat="41.51025" lon="1.9325">
        <ele>221.6</ele>
        <time>2021-04-11 09:50:47</time>
      </trkpt>
      <trkpt lat="41.51025" lon="1.9325">
        <ele>221.6</ele>
        <time>2021-04-11 09:50:48</time>
      </trkpt>
      <trkpt lat="41.51025" lon="1.9325">
        <ele>221.6</ele>
        <time>2021-04-11 09:50:49</time>
      </trkpt>
      <trkpt lat="41.51025" lon="1.9325">
        <ele>221.6</ele>
        <time>2021-04-11 09:50:50</time>
      </trkpt>
      <trkpt lat="41.51025" lon="1.9325">
        <ele>221.6</ele>
        <time>2021-04-11 09:50:51</time>
      </trkpt>
      <trkpt lat="41.51025" lon="1.9325">
        <ele>221.6</ele>
        <time>2021-04-11 09:50:52</time>
      </trkpt>
      <trkpt lat="41.51025" lon="1.9325">
        <ele>221.6</ele>
        <time>2021-04-11 09:50:53</time>
      </trkpt>
      <trkpt lat="41.51025" lon="1.9325">
        <ele>221.6</ele>
        <time>2021-04-11 09:50:54</time>
      </trkpt>
      <trkpt lat="41.51025" lon="1.9325">
        <ele>221.6</ele>
        <time>2021-04-11 09:50:55</time>
      </trkpt>
      <trkpt lat="41.51025" lon="1.9325">
        <ele>221.6</ele>
        <time>2021-04-11 09:50:56</time>
      </trkpt>
      <trkpt lat="41.51025" lon="1.9325">
        <ele>221.6</ele>
        <time>2021-04-11 09:50:57</time>
      </trkpt>
      <trkpt lat="41.51025" lon="1.9325">
        <ele>221.6</ele>
        <time>2021-04-11 09:50:58</time>
      </trkpt>
      <trkpt lat="41.51025" lon="1.9325">
        <ele>221.6</ele>
        <time>2021-04-11 09:50:59</time>
      </trkpt>
      <trkpt lat="41.51025" lon="1.9325">
        <ele>221.6</ele>
        <time>2021-04-11 09:51:00</time>
      </trkpt>
      <trkpt lat="41.51025" lon="1.9325">
        <ele>221.6</ele>
        <time>2021-04-11 09:51:01</time>
      </trkpt>
      <trkpt lat="41.51025" lon="1.9325">
        <ele>221.6</ele>
        <time>2021-04-11 09:51:02</time>
      </trkpt>
      <trkpt lat="41.51025" lon="1.9325">
        <ele>221.6</ele>
        <time>2021-04-11 09:51:03</time>
      </trkpt>
      <trkpt lat="41.51025" lon="1.9325">
        <ele>221.6</ele>
        <time>2021-04-11 09:51:04</time>
      </trkpt>
      <trkpt lat="41.51025" lon="1.9325">
        <ele>221.6</ele>
        <time>2021-04-11 09:51:05</time>
      </trkpt>
      <trkpt lat="41.51025" lon="1.9325">
        <ele>221.6</ele>
        <time>2021-04-11 09:51:06</time>
      </trkpt>
      <trkpt lat="41.51025" lon="1.9325">
        <ele>221.6</ele>
        <time>2021-04-11 09:51:07</time>
      </trkpt>
      <trkpt lat="41.51025" lon="1.9325">
        <ele>221.6</ele>
        <time>2021-04-11 09:51:08</time>
      </trkpt>
      <trkpt lat="41.51025" lon="1.9325">
        <ele>221.6</ele>
        <time>2021-04-11 09:51:09</time>
      </trkpt>
      <trkpt lat="41.51025" lon="1.9325">
        <ele>221.6</ele>
        <time>2021-04-11 09:51:10</time>
      </trkpt>
      <trkpt lat="41.51025" lon="1.9325">
        <ele>221.6</ele>
        <time>2021-04-11 09:51:11</time>
      </trkpt>
      <trkpt lat="41.51025" lon="1.9325">
        <ele>221.6</ele>
        <time>2021-04-11 09:51:12</time>
      </trkpt>
      <trkpt lat="41.51025" lon="1.9325">
        <ele>221.6</ele>
        <time>2021-04-11 09:51:13</time>
      </trkpt>
      <trkpt lat="41.5102" lon="1.93249">
        <ele>221.6</ele>
        <time>2021-04-11 09:51:14</time>
      </trkpt>
      <trkpt lat="41.51018" lon="1.93249">
        <ele>221.6</ele>
        <time>2021-04-11 09:51:15</time>
      </trkpt>
      <trkpt lat="41.51015" lon="1.93248">
        <ele>221.6</ele>
        <time>2021-04-11 09:51:16</time>
      </trkpt>
      <trkpt lat="41.51012" lon="1.93249">
        <ele>221.6</ele>
        <time>2021-04-11 09:51:17</time>
      </trkpt>
      <trkpt lat="41.51011" lon="1.93252">
        <ele>221.6</ele>
        <time>2021-04-11 09:51:18</time>
      </trkpt>
      <trkpt lat="41.51009" lon="1.93256">
        <ele>221.6</ele>
        <time>2021-04-11 09:51:19</time>
      </trkpt>
      <trkpt lat="41.51009" lon="1.9326">
        <ele>221.6</ele>
        <time>2021-04-11 09:51:20</time>
      </trkpt>
      <trkpt lat="41.51009" lon="1.93264">
        <ele>221.6</ele>
        <time>2021-04-11 09:51:21</time>
      </trkpt>
      <trkpt lat="41.51011" lon="1.93268">
        <ele>221.6</ele>
        <time>2021-04-11 09:51:22</time>
      </trkpt>
      <trkpt lat="41.51014" lon="1.93271">
        <ele>221.4</ele>
        <time>2021-04-11 09:51:23</time>
      </trkpt>
      <trkpt lat="41.51018" lon="1.93273">
        <ele>221.4</ele>
        <time>2021-04-11 09:51:24</time>
      </trkpt>
      <trkpt lat="41.51023" lon="1.93276">
        <ele>221.2</ele>
        <time>2021-04-11 09:51:25</time>
      </trkpt>
      <trkpt lat="41.51027" lon="1.93278">
        <ele>221</ele>
        <time>2021-04-11 09:51:26</time>
      </trkpt>
      <trkpt lat="41.51032" lon="1.93281">
        <ele>221</ele>
        <time>2021-04-11 09:51:27</time>
      </trkpt>
      <trkpt lat="41.51037" lon="1.93285">
        <ele>220.8</ele>
        <time>2021-04-11 09:51:28</time>
      </trkpt>
      <trkpt lat="41.51042" lon="1.93289">
        <ele>220.6</ele>
        <time>2021-04-11 09:51:29</time>
      </trkpt>
      <trkpt lat="41.51047" lon="1.93294">
        <ele>220.4</ele>
        <time>2021-04-11 09:51:30</time>
      </trkpt>
      <trkpt lat="41.51053" lon="1.93299">
        <ele>220</ele>
        <time>2021-04-11 09:51:31</time>
      </trkpt>
      <trkpt lat="41.51058" lon="1.93303">
        <ele>219.8</ele>
        <time>2021-04-11 09:51:32</time>
      </trkpt>
      <trkpt lat="41.51065" lon="1.93305">
        <ele>219.6</ele>
        <time>2021-04-11 09:51:33</time>
      </trkpt>
      <trkpt lat="41.51072" lon="1.93305">
        <ele>219.4</ele>
        <time>2021-04-11 09:51:34</time>
      </trkpt>
      <trkpt lat="41.51079" lon="1.93303">
        <ele>219</ele>
        <time>2021-04-11 09:51:35</time>
      </trkpt>
      <trkpt lat="41.51086" lon="1.933">
        <ele>218.8</ele>
        <time>2021-04-11 09:51:36</time>
      </trkpt>
      <trkpt lat="41.51092" lon="1.93296">
        <ele>218.6</ele>
        <time>2021-04-11 09:51:37</time>
      </trkpt>
      <trkpt lat="41.511" lon="1.93291">
        <ele>218.4</ele>
        <time>2021-04-11 09:51:38</time>
      </trkpt>
      <trkpt lat="41.51107" lon="1.93286">
        <ele>218</ele>
        <time>2021-04-11 09:51:39</time>
      </trkpt>
      <trkpt lat="41.51114" lon="1.93282">
        <ele>217.8</ele>
        <time>2021-04-11 09:51:40</time>
      </trkpt>
      <trkpt lat="41.51123" lon="1.93277">
        <ele>217.4</ele>
        <time>2021-04-11 09:51:41</time>
      </trkpt>
      <trkpt lat="41.5113" lon="1.93273">
        <ele>217.2</ele>
        <time>2021-04-11 09:51:42</time>
      </trkpt>
      <trkpt lat="41.51137" lon="1.93269">
        <ele>217</ele>
        <time>2021-04-11 09:51:43</time>
      </trkpt>
      <trkpt lat="41.51146" lon="1.93266">
        <ele>216.8</ele>
        <time>2021-04-11 09:51:44</time>
      </trkpt>
      <trkpt lat="41.51154" lon="1.93263">
        <ele>216.6</ele>
        <time>2021-04-11 09:51:45</time>
      </trkpt>
      <trkpt lat="41.51162" lon="1.93261">
        <ele>216.4</ele>
        <time>2021-04-11 09:51:46</time>
      </trkpt>
      <trkpt lat="41.51171" lon="1.93259">
        <ele>216.2</ele>
        <time>2021-04-11 09:51:47</time>
      </trkpt>
      <trkpt lat="41.51179" lon="1.9326">
        <ele>216</ele>
        <time>2021-04-11 09:51:48</time>
      </trkpt>
      <trkpt lat="41.51188" lon="1.93263">
        <ele>215.8</ele>
        <time>2021-04-11 09:51:49</time>
      </trkpt>
      <trkpt lat="41.51196" lon="1.93267">
        <ele>215.6</ele>
        <time>2021-04-11 09:51:50</time>
      </trkpt>
      <trkpt lat="41.51205" lon="1.93273">
        <ele>215.4</ele>
        <time>2021-04-11 09:51:51</time>
      </trkpt>
      <trkpt lat="41.51213" lon="1.93279">
        <ele>215.2</ele>
        <time>2021-04-11 09:51:52</time>
      </trkpt>
      <trkpt lat="41.51221" lon="1.93284">
        <ele>214.8</ele>
        <time>2021-04-11 09:51:53</time>
      </trkpt>
      <trkpt lat="41.51227" lon="1.9329">
        <ele>214.6</ele>
        <time>2021-04-11 09:51:54</time>
      </trkpt>
      <trkpt lat="41.51236" lon="1.93297">
        <ele>214.4</ele>
        <time>2021-04-11 09:51:55</time>
      </trkpt>
      <trkpt lat="41.51243" lon="1.93303">
        <ele>214.2</ele>
        <time>2021-04-11 09:51:56</time>
      </trkpt>
      <trkpt lat="41.5125" lon="1.93311">
        <ele>214</ele>
        <time>2021-04-11 09:51:57</time>
      </trkpt>
      <trkpt lat="41.51257" lon="1.93321">
        <ele>213.8</ele>
        <time>2021-04-11 09:51:58</time>
      </trkpt>
      <trkpt lat="41.51262" lon="1.93331">
        <ele>213.4</ele>
        <time>2021-04-11 09:51:59</time>
      </trkpt>
      <trkpt lat="41.51266" lon="1.93343">
        <ele>213.2</ele>
        <time>2021-04-11 09:52:00</time>
      </trkpt>
      <trkpt lat="41.51268" lon="1.93356">
        <ele>213</ele>
        <time>2021-04-11 09:52:01</time>
      </trkpt>
      <trkpt lat="41.5127" lon="1.93368">
        <ele>212.8</ele>
        <time>2021-04-11 09:52:02</time>
      </trkpt>
      <trkpt lat="41.51272" lon="1.93379">
        <ele>212.8</ele>
        <time>2021-04-11 09:52:03</time>
      </trkpt>
      <trkpt lat="41.51274" lon="1.93391">
        <ele>212.6</ele>
        <time>2021-04-11 09:52:04</time>
      </trkpt>
      <trkpt lat="41.51277" lon="1.93402">
        <ele>212.4</ele>
        <time>2021-04-11 09:52:05</time>
      </trkpt>
      <trkpt lat="41.51282" lon="1.93412">
        <ele>212.2</ele>
        <time>2021-04-11 09:52:06</time>
      </trkpt>
      <trkpt lat="41.51286" lon="1.93421">
        <ele>211.8</ele>
        <time>2021-04-11 09:52:07</time>
      </trkpt>
      <trkpt lat="41.51293" lon="1.93431">
        <ele>211.2</ele>
        <time>2021-04-11 09:52:08</time>
      </trkpt>
      <trkpt lat="41.513" lon="1.93439">
        <ele>210.6</ele>
        <time>2021-04-11 09:52:09</time>
      </trkpt>
      <trkpt lat="41.51307" lon="1.93447">
        <ele>209.8</ele>
        <time>2021-04-11 09:52:10</time>
      </trkpt>
      <trkpt lat="41.51316" lon="1.93455">
        <ele>209</ele>
        <time>2021-04-11 09:52:11</time>
      </trkpt>
      <trkpt lat="41.51324" lon="1.93464">
        <ele>208.2</ele>
        <time>2021-04-11 09:52:12</time>
      </trkpt>
      <trkpt lat="41.51332" lon="1.93472">
        <ele>207.4</ele>
        <time>2021-04-11 09:52:13</time>
      </trkpt>
      <trkpt lat="41.51341" lon="1.93481">
        <ele>206.6</ele>
        <time>2021-04-11 09:52:14</time>
      </trkpt>
      <trkpt lat="41.51349" lon="1.9349">
        <ele>205.8</ele>
        <time>2021-04-11 09:52:15</time>
      </trkpt>
      <trkpt lat="41.51357" lon="1.935">
        <ele>205</ele>
        <time>2021-04-11 09:52:16</time>
      </trkpt>
      <trkpt lat="41.51365" lon="1.9351">
        <ele>204.2</ele>
        <time>2021-04-11 09:52:17</time>
      </trkpt>
      <trkpt lat="41.51373" lon="1.93519">
        <ele>203.4</ele>
        <time>2021-04-11 09:52:18</time>
      </trkpt>
      <trkpt lat="41.51381" lon="1.93528">
        <ele>202.8</ele>
        <time>2021-04-11 09:52:19</time>
      </trkpt>
      <trkpt lat="41.51388" lon="1.93537">
        <ele>202.2</ele>
        <time>2021-04-11 09:52:20</time>
      </trkpt>
      <trkpt lat="41.51394" lon="1.93545">
        <ele>201.6</ele>
        <time>2021-04-11 09:52:21</time>
      </trkpt>
      <trkpt lat="41.51399" lon="1.93553">
        <ele>201.2</ele>
        <time>2021-04-11 09:52:22</time>
      </trkpt>
      <trkpt lat="41.51401" lon="1.93561">
        <ele>200.6</ele>
        <time>2021-04-11 09:52:23</time>
      </trkpt>
      <trkpt lat="41.514" lon="1.93569">
        <ele>200</ele>
        <time>2021-04-11 09:52:24</time>
      </trkpt>
      <trkpt lat="41.51395" lon="1.93575">
        <ele>199.4</ele>
        <time>2021-04-11 09:52:25</time>
      </trkpt>
      <trkpt lat="41.51387" lon="1.93579">
        <ele>199</ele>
        <time>2021-04-11 09:52:26</time>
      </trkpt>
      <trkpt lat="41.51379" lon="1.93582">
        <ele>198.4</ele>
        <time>2021-04-11 09:52:27</time>
      </trkpt>
      <trkpt lat="41.51372" lon="1.93584">
        <ele>197.6</ele>
        <time>2021-04-11 09:52:28</time>
      </trkpt>
      <trkpt lat="41.51364" lon="1.93586">
        <ele>196.8</ele>
        <time>2021-04-11 09:52:29</time>
      </trkpt>
      <trkpt lat="41.51354" lon="1.93586">
        <ele>196</ele>
        <time>2021-04-11 09:52:30</time>
      </trkpt>
      <trkpt lat="41.51343" lon="1.93585">
        <ele>195.2</ele>
        <time>2021-04-11 09:52:31</time>
      </trkpt>
      <trkpt lat="41.51332" lon="1.93584">
        <ele>194.4</ele>
        <time>2021-04-11 09:52:32</time>
      </trkpt>
      <trkpt lat="41.51321" lon="1.93585">
        <ele>193.8</ele>
        <time>2021-04-11 09:52:33</time>
      </trkpt>
      <trkpt lat="41.5131" lon="1.93586">
        <ele>193</ele>
        <time>2021-04-11 09:52:34</time>
      </trkpt>
      <trkpt lat="41.51299" lon="1.93588">
        <ele>192.2</ele>
        <time>2021-04-11 09:52:35</time>
      </trkpt>
      <trkpt lat="41.51288" lon="1.93589">
        <ele>191.6</ele>
        <time>2021-04-11 09:52:36</time>
      </trkpt>
      <trkpt lat="41.51276" lon="1.9359">
        <ele>190.8</ele>
        <time>2021-04-11 09:52:37</time>
      </trkpt>
      <trkpt lat="41.51265" lon="1.93591">
        <ele>190.2</ele>
        <time>2021-04-11 09:52:38</time>
      </trkpt>
      <trkpt lat="41.51254" lon="1.93591">
        <ele>189.6</ele>
        <time>2021-04-11 09:52:39</time>
      </trkpt>
      <trkpt lat="41.51243" lon="1.93592">
        <ele>189</ele>
        <time>2021-04-11 09:52:40</time>
      </trkpt>
      <trkpt lat="41.51232" lon="1.93593">
        <ele>188.4</ele>
        <time>2021-04-11 09:52:41</time>
      </trkpt>
      <trkpt lat="41.51221" lon="1.93593">
        <ele>187.8</ele>
        <time>2021-04-11 09:52:42</time>
      </trkpt>
      <trkpt lat="41.51211" lon="1.93594">
        <ele>187.2</ele>
        <time>2021-04-11 09:52:43</time>
      </trkpt>
      <trkpt lat="41.512" lon="1.93595">
        <ele>186.8</ele>
        <time>2021-04-11 09:52:44</time>
      </trkpt>
      <trkpt lat="41.5119" lon="1.93594">
        <ele>186.2</ele>
        <time>2021-04-11 09:52:45</time>
      </trkpt>
      <trkpt lat="41.51181" lon="1.93594">
        <ele>185.8</ele>
        <time>2021-04-11 09:52:46</time>
      </trkpt>
      <trkpt lat="41.5117" lon="1.93591">
        <ele>185.2</ele>
        <time>2021-04-11 09:52:47</time>
      </trkpt>
      <trkpt lat="41.51158" lon="1.93588">
        <ele>184.8</ele>
        <time>2021-04-11 09:52:48</time>
      </trkpt>
      <trkpt lat="41.51148" lon="1.93583">
        <ele>184.4</ele>
        <time>2021-04-11 09:52:49</time>
      </trkpt>
      <trkpt lat="41.51138" lon="1.93579">
        <ele>183.8</ele>
        <time>2021-04-11 09:52:50</time>
      </trkpt>
      <trkpt lat="41.51128" lon="1.93574">
        <ele>183.4</ele>
        <time>2021-04-11 09:52:51</time>
      </trkpt>
      <trkpt lat="41.51119" lon="1.9357">
        <ele>183.2</ele>
        <time>2021-04-11 09:52:52</time>
      </trkpt>
      <trkpt lat="41.51111" lon="1.93567">
        <ele>183</ele>
        <time>2021-04-11 09:52:53</time>
      </trkpt>
      <trkpt lat="41.51103" lon="1.93567">
        <ele>182.8</ele>
        <time>2021-04-11 09:52:54</time>
      </trkpt>
      <trkpt lat="41.51096" lon="1.93569">
        <ele>182.6</ele>
        <time>2021-04-11 09:52:55</time>
      </trkpt>
      <trkpt lat="41.51091" lon="1.93576">
        <ele>182.6</ele>
        <time>2021-04-11 09:52:56</time>
      </trkpt>
      <trkpt lat="41.51088" lon="1.93586">
        <ele>182.4</ele>
        <time>2021-04-11 09:52:57</time>
      </trkpt>
      <trkpt lat="41.51088" lon="1.93597">
        <ele>182.2</ele>
        <time>2021-04-11 09:52:58</time>
      </trkpt>
      <trkpt lat="41.51092" lon="1.93606">
        <ele>182</ele>
        <time>2021-04-11 09:52:59</time>
      </trkpt>
      <trkpt lat="41.51098" lon="1.93613">
        <ele>181.6</ele>
        <time>2021-04-11 09:53:00</time>
      </trkpt>
      <trkpt lat="41.51105" lon="1.9362">
        <ele>181</ele>
        <time>2021-04-11 09:53:01</time>
      </trkpt>
      <trkpt lat="41.51113" lon="1.93624">
        <ele>180.4</ele>
        <time>2021-04-11 09:53:02</time>
      </trkpt>
      <trkpt lat="41.51122" lon="1.93628">
        <ele>179.8</ele>
        <time>2021-04-11 09:53:03</time>
      </trkpt>
      <trkpt lat="41.51132" lon="1.93631">
        <ele>179.2</ele>
        <time>2021-04-11 09:53:04</time>
      </trkpt>
      <trkpt lat="41.51143" lon="1.93634">
        <ele>178.2</ele>
        <time>2021-04-11 09:53:05</time>
      </trkpt>
      <trkpt lat="41.51155" lon="1.93637">
        <ele>177.4</ele>
        <time>2021-04-11 09:53:06</time>
      </trkpt>
      <trkpt lat="41.51167" lon="1.93641">
        <ele>176.4</ele>
        <time>2021-04-11 09:53:07</time>
      </trkpt>
      <trkpt lat="41.51178" lon="1.93645">
        <ele>175.6</ele>
        <time>2021-04-11 09:53:08</time>
      </trkpt>
      <trkpt lat="41.51189" lon="1.9365">
        <ele>175</ele>
        <time>2021-04-11 09:53:09</time>
      </trkpt>
      <trkpt lat="41.512" lon="1.93654">
        <ele>174.2</ele>
        <time>2021-04-11 09:53:10</time>
      </trkpt>
      <trkpt lat="41.51211" lon="1.93657">
        <ele>173.6</ele>
        <time>2021-04-11 09:53:11</time>
      </trkpt>
      <trkpt lat="41.51222" lon="1.93659">
        <ele>172.8</ele>
        <time>2021-04-11 09:53:12</time>
      </trkpt>
      <trkpt lat="41.51234" lon="1.93659">
        <ele>171.8</ele>
        <time>2021-04-11 09:53:13</time>
      </trkpt>
      <trkpt lat="41.51244" lon="1.93659">
        <ele>171</ele>
        <time>2021-04-11 09:53:14</time>
      </trkpt>
      <trkpt lat="41.51253" lon="1.93659">
        <ele>170.2</ele>
        <time>2021-04-11 09:53:15</time>
      </trkpt>
      <trkpt lat="41.5126" lon="1.93663">
        <ele>169.6</ele>
        <time>2021-04-11 09:53:16</time>
      </trkpt>
      <trkpt lat="41.51266" lon="1.93667">
        <ele>168.8</ele>
        <time>2021-04-11 09:53:17</time>
      </trkpt>
      <trkpt lat="41.51271" lon="1.93673">
        <ele>168.2</ele>
        <time>2021-04-11 09:53:18</time>
      </trkpt>
      <trkpt lat="41.51271" lon="1.93682">
        <ele>167.6</ele>
        <time>2021-04-11 09:53:19</time>
      </trkpt>
      <trkpt lat="41.51268" lon="1.93692">
        <ele>166.8</ele>
        <time>2021-04-11 09:53:20</time>
      </trkpt>
      <trkpt lat="41.51265" lon="1.93702">
        <ele>166.2</ele>
        <time>2021-04-11 09:53:21</time>
      </trkpt>
      <trkpt lat="41.5126" lon="1.93712">
        <ele>165.6</ele>
        <time>2021-04-11 09:53:22</time>
      </trkpt>
      <trkpt lat="41.51255" lon="1.93723">
        <ele>164.8</ele>
        <time>2021-04-11 09:53:23</time>
      </trkpt>
      <trkpt lat="41.5125" lon="1.93733">
        <ele>164.2</ele>
        <time>2021-04-11 09:53:24</time>
      </trkpt>
      <trkpt lat="41.51246" lon="1.93744">
        <ele>163.8</ele>
        <time>2021-04-11 09:53:25</time>
      </trkpt>
      <trkpt lat="41.51242" lon="1.93755">
        <ele>163.4</ele>
        <time>2021-04-11 09:53:26</time>
      </trkpt>
      <trkpt lat="41.51239" lon="1.93766">
        <ele>163</ele>
        <time>2021-04-11 09:53:27</time>
      </trkpt>
      <trkpt lat="41.51235" lon="1.93776">
        <ele>162.8</ele>
        <time>2021-04-11 09:53:28</time>
      </trkpt>
      <trkpt lat="41.51231" lon="1.93787">
        <ele>162.8</ele>
        <time>2021-04-11 09:53:29</time>
      </trkpt>
      <trkpt lat="41.51227" lon="1.93797">
        <ele>162.8</ele>
        <time>2021-04-11 09:53:30</time>
      </trkpt>
      <trkpt lat="41.51223" lon="1.93806">
        <ele>162.8</ele>
        <time>2021-04-11 09:53:31</time>
      </trkpt>
      <trkpt lat="41.51218" lon="1.93813">
        <ele>163</ele>
        <time>2021-04-11 09:53:32</time>
      </trkpt>
      <trkpt lat="41.51211" lon="1.93816">
        <ele>163.2</ele>
        <time>2021-04-11 09:53:33</time>
      </trkpt>
      <trkpt lat="41.51206" lon="1.93817">
        <ele>163.6</ele>
        <time>2021-04-11 09:53:34</time>
      </trkpt>
      <trkpt lat="41.512" lon="1.93819">
        <ele>164</ele>
        <time>2021-04-11 09:53:35</time>
      </trkpt>
      <trkpt lat="41.51194" lon="1.93819">
        <ele>164.4</ele>
        <time>2021-04-11 09:53:36</time>
      </trkpt>
      <trkpt lat="41.51189" lon="1.93819">
        <ele>164.8</ele>
        <time>2021-04-11 09:53:37</time>
      </trkpt>
      <trkpt lat="41.51184" lon="1.9382">
        <ele>165.2</ele>
        <time>2021-04-11 09:53:38</time>
      </trkpt>
      <trkpt lat="41.5118" lon="1.9382">
        <ele>165.6</ele>
        <time>2021-04-11 09:53:39</time>
      </trkpt>
      <trkpt lat="41.51175" lon="1.93819">
        <ele>166</ele>
        <time>2021-04-11 09:53:40</time>
      </trkpt>
      <trkpt lat="41.51171" lon="1.93819">
        <ele>166.4</ele>
        <time>2021-04-11 09:53:41</time>
      </trkpt>
      <trkpt lat="41.51166" lon="1.93818">
        <ele>166.8</ele>
        <time>2021-04-11 09:53:42</time>
      </trkpt>
      <trkpt lat="41.51162" lon="1.93818">
        <ele>167.2</ele>
        <time>2021-04-11 09:53:43</time>
      </trkpt>
      <trkpt lat="41.51158" lon="1.93818">
        <ele>167.4</ele>
        <time>2021-04-11 09:53:44</time>
      </trkpt>
      <trkpt lat="41.51154" lon="1.93818">
        <ele>167.8</ele>
        <time>2021-04-11 09:53:45</time>
      </trkpt>
      <trkpt lat="41.5115" lon="1.93817">
        <ele>168.2</ele>
        <time>2021-04-11 09:53:46</time>
      </trkpt>
      <trkpt lat="41.51146" lon="1.93816">
        <ele>168.4</ele>
        <time>2021-04-11 09:53:47</time>
      </trkpt>
      <trkpt lat="41.51142" lon="1.93816">
        <ele>168.8</ele>
        <time>2021-04-11 09:53:48</time>
      </trkpt>
      <trkpt lat="41.51138" lon="1.93815">
        <ele>169</ele>
        <time>2021-04-11 09:53:49</time>
      </trkpt>
      <trkpt lat="41.51134" lon="1.93815">
        <ele>169.4</ele>
        <time>2021-04-11 09:53:50</time>
      </trkpt>
      <trkpt lat="41.5113" lon="1.93814">
        <ele>169.8</ele>
        <time>2021-04-11 09:53:51</time>
      </trkpt>
      <trkpt lat="41.51126" lon="1.93815">
        <ele>170.2</ele>
        <time>2021-04-11 09:53:52</time>
      </trkpt>
      <trkpt lat="41.51122" lon="1.93815">
        <ele>170.4</ele>
        <time>2021-04-11 09:53:53</time>
      </trkpt>
      <trkpt lat="41.51118" lon="1.93815">
        <ele>170.8</ele>
        <time>2021-04-11 09:53:54</time>
      </trkpt>
      <trkpt lat="41.51115" lon="1.93814">
        <ele>171</ele>
        <time>2021-04-11 09:53:55</time>
      </trkpt>
      <trkpt lat="41.51111" lon="1.93814">
        <ele>171.4</ele>
        <time>2021-04-11 09:53:56</time>
      </trkpt>
      <trkpt lat="41.51107" lon="1.93813">
        <ele>171.6</ele>
        <time>2021-04-11 09:53:57</time>
      </trkpt>
      <trkpt lat="41.51104" lon="1.93813">
        <ele>172</ele>
        <time>2021-04-11 09:53:58</time>
      </trkpt>
      <trkpt lat="41.511" lon="1.93813">
        <ele>172.2</ele>
        <time>2021-04-11 09:53:59</time>
      </trkpt>
      <trkpt lat="41.51097" lon="1.93813">
        <ele>172.4</ele>
        <time>2021-04-11 09:54:00</time>
      </trkpt>
      <trkpt lat="41.51094" lon="1.93813">
        <ele>172.8</ele>
        <time>2021-04-11 09:54:01</time>
      </trkpt>
      <trkpt lat="41.51091" lon="1.93813">
        <ele>173</ele>
        <time>2021-04-11 09:54:02</time>
      </trkpt>
      <trkpt lat="41.51087" lon="1.93813">
        <ele>173.2</ele>
        <time>2021-04-11 09:54:03</time>
      </trkpt>
      <trkpt lat="41.51085" lon="1.93813">
        <ele>173.6</ele>
        <time>2021-04-11 09:54:04</time>
      </trkpt>
      <trkpt lat="41.51081" lon="1.93813">
        <ele>173.8</ele>
        <time>2021-04-11 09:54:05</time>
      </trkpt>
      <trkpt lat="41.51078" lon="1.93813">
        <ele>174</ele>
        <time>2021-04-11 09:54:06</time>
      </trkpt>
      <trkpt lat="41.51075" lon="1.93813">
        <ele>174.2</ele>
        <time>2021-04-11 09:54:07</time>
      </trkpt>
      <trkpt lat="41.51072" lon="1.93813">
        <ele>174.6</ele>
        <time>2021-04-11 09:54:08</time>
      </trkpt>
      <trkpt lat="41.51069" lon="1.93813">
        <ele>174.8</ele>
        <time>2021-04-11 09:54:09</time>
      </trkpt>
      <trkpt lat="41.51066" lon="1.93813">
        <ele>175</ele>
        <time>2021-04-11 09:54:10</time>
      </trkpt>
      <trkpt lat="41.51063" lon="1.93813">
        <ele>175.2</ele>
        <time>2021-04-11 09:54:11</time>
      </trkpt>
      <trkpt lat="41.5106" lon="1.93813">
        <ele>175.4</ele>
        <time>2021-04-11 09:54:12</time>
      </trkpt>
      <trkpt lat="41.51057" lon="1.93813">
        <ele>175.6</ele>
        <time>2021-04-11 09:54:13</time>
      </trkpt>
      <trkpt lat="41.51054" lon="1.93813">
        <ele>176</ele>
        <time>2021-04-11 09:54:14</time>
      </trkpt>
      <trkpt lat="41.51051" lon="1.93813">
        <ele>176.2</ele>
        <time>2021-04-11 09:54:15</time>
      </trkpt>
      <trkpt lat="41.51048" lon="1.93813">
        <ele>176.4</ele>
        <time>2021-04-11 09:54:16</time>
      </trkpt>
      <trkpt lat="41.51044" lon="1.93813">
        <ele>176.6</ele>
        <time>2021-04-11 09:54:17</time>
      </trkpt>
      <trkpt lat="41.51041" lon="1.93813">
        <ele>176.8</ele>
        <time>2021-04-11 09:54:18</time>
      </trkpt>
      <trkpt lat="41.51038" lon="1.93812">
        <ele>177</ele>
        <time>2021-04-11 09:54:19</time>
      </trkpt>
      <trkpt lat="41.51035" lon="1.93812">
        <ele>177.2</ele>
        <time>2021-04-11 09:54:20</time>
      </trkpt>
      <trkpt lat="41.51033" lon="1.93812">
        <ele>177.6</ele>
        <time>2021-04-11 09:54:21</time>
      </trkpt>
      <trkpt lat="41.5103" lon="1.93811">
        <ele>177.8</ele>
        <time>2021-04-11 09:54:22</time>
      </trkpt>
      <trkpt lat="41.51027" lon="1.93811">
        <ele>178</ele>
        <time>2021-04-11 09:54:23</time>
      </trkpt>
      <trkpt lat="41.51024" lon="1.93811">
        <ele>178.2</ele>
        <time>2021-04-11 09:54:24</time>
      </trkpt>
      <trkpt lat="41.5102" lon="1.93811">
        <ele>178.4</ele>
        <time>2021-04-11 09:54:25</time>
      </trkpt>
      <trkpt lat="41.51017" lon="1.93811">
        <ele>178.8</ele>
        <time>2021-04-11 09:54:26</time>
      </trkpt>
      <trkpt lat="41.51014" lon="1.93811">
        <ele>179</ele>
        <time>2021-04-11 09:54:27</time>
      </trkpt>
      <trkpt lat="41.51011" lon="1.93811">
        <ele>179.2</ele>
        <time>2021-04-11 09:54:28</time>
      </trkpt>
      <trkpt lat="41.51008" lon="1.93811">
        <ele>179.4</ele>
        <time>2021-04-11 09:54:29</time>
      </trkpt>
      <trkpt lat="41.51005" lon="1.93811">
        <ele>179.6</ele>
        <time>2021-04-11 09:54:30</time>
      </trkpt>
      <trkpt lat="41.51002" lon="1.93811">
        <ele>180</ele>
        <time>2021-04-11 09:54:31</time>
      </trkpt>
      <trkpt lat="41.50999" lon="1.93811">
        <ele>180.2</ele>
        <time>2021-04-11 09:54:32</time>
      </trkpt>
      <trkpt lat="41.50996" lon="1.93812">
        <ele>180.4</ele>
        <time>2021-04-11 09:54:33</time>
      </trkpt>
      <trkpt lat="41.50993" lon="1.93813">
        <ele>180.6</ele>
        <time>2021-04-11 09:54:34</time>
      </trkpt>
      <trkpt lat="41.5099" lon="1.93815">
        <ele>181</ele>
        <time>2021-04-11 09:54:35</time>
      </trkpt>
      <trkpt lat="41.50988" lon="1.93817">
        <ele>181.2</ele>
        <time>2021-04-11 09:54:36</time>
      </trkpt>
      <trkpt lat="41.50985" lon="1.93819">
        <ele>181.4</ele>
        <time>2021-04-11 09:54:37</time>
      </trkpt>
      <trkpt lat="41.50983" lon="1.93822">
        <ele>181.8</ele>
        <time>2021-04-11 09:54:38</time>
      </trkpt>
      <trkpt lat="41.50982" lon="1.93825">
        <ele>182</ele>
        <time>2021-04-11 09:54:39</time>
      </trkpt>
      <trkpt lat="41.5098" lon="1.93828">
        <ele>182.2</ele>
        <time>2021-04-11 09:54:40</time>
      </trkpt>
      <trkpt lat="41.50979" lon="1.93832">
        <ele>182.4</ele>
        <time>2021-04-11 09:54:41</time>
      </trkpt>
      <trkpt lat="41.50978" lon="1.93835">
        <ele>182.8</ele>
        <time>2021-04-11 09:54:42</time>
      </trkpt>
      <trkpt lat="41.50977" lon="1.93839">
        <ele>183</ele>
        <time>2021-04-11 09:54:43</time>
      </trkpt>
      <trkpt lat="41.50977" lon="1.93842">
        <ele>183.2</ele>
        <time>2021-04-11 09:54:44</time>
      </trkpt>
      <trkpt lat="41.50978" lon="1.93846">
        <ele>183.6</ele>
        <time>2021-04-11 09:54:45</time>
      </trkpt>
      <trkpt lat="41.50979" lon="1.9385">
        <ele>183.8</ele>
        <time>2021-04-11 09:54:46</time>
      </trkpt>
      <trkpt lat="41.5098" lon="1.93853">
        <ele>184</ele>
        <time>2021-04-11 09:54:47</time>
      </trkpt>
      <trkpt lat="41.50981" lon="1.93856">
        <ele>184.2</ele>
        <time>2021-04-11 09:54:48</time>
      </trkpt>
      <trkpt lat="41.50983" lon="1.93858">
        <ele>184.4</ele>
        <time>2021-04-11 09:54:49</time>
      </trkpt>
      <trkpt lat="41.50984" lon="1.93861">
        <ele>184.6</ele>
        <time>2021-04-11 09:54:50</time>
      </trkpt>
      <trkpt lat="41.50986" lon="1.93863">
        <ele>184.8</ele>
        <time>2021-04-11 09:54:51</time>
      </trkpt>
      <trkpt lat="41.50988" lon="1.93865">
        <ele>185</ele>
        <time>2021-04-11 09:54:52</time>
      </trkpt>
      <trkpt lat="41.5099" lon="1.93867">
        <ele>185.2</ele>
        <time>2021-04-11 09:54:53</time>
      </trkpt>
      <trkpt lat="41.50992" lon="1.93868">
        <ele>185.4</ele>
        <time>2021-04-11 09:54:54</time>
      </trkpt>
      <trkpt lat="41.50994" lon="1.9387">
        <ele>185.6</ele>
        <time>2021-04-11 09:54:55</time>
      </trkpt>
      <trkpt lat="41.50996" lon="1.93871">
        <ele>185.8</ele>
        <time>2021-04-11 09:54:56</time>
      </trkpt>
      <trkpt lat="41.50998" lon="1.93872">
        <ele>186</ele>
        <time>2021-04-11 09:54:57</time>
      </trkpt>
      <trkpt lat="41.51" lon="1.93873">
        <ele>186.2</ele>
        <time>2021-04-11 09:54:58</time>
      </trkpt>
      <trkpt lat="41.51003" lon="1.93873">
        <ele>186.2</ele>
        <time>2021-04-11 09:54:59</time>
      </trkpt>
      <trkpt lat="41.51005" lon="1.93874">
        <ele>186.4</ele>
        <time>2021-04-11 09:55:00</time>
      </trkpt>
      <trkpt lat="41.51007" lon="1.93875">
        <ele>186.6</ele>
        <time>2021-04-11 09:55:01</time>
      </trkpt>
      <trkpt lat="41.51009" lon="1.93876">
        <ele>186.8</ele>
        <time>2021-04-11 09:55:02</time>
      </trkpt>
      <trkpt lat="41.51012" lon="1.93877">
        <ele>187</ele>
        <time>2021-04-11 09:55:03</time>
      </trkpt>
      <trkpt lat="41.51014" lon="1.93878">
        <ele>187.2</ele>
        <time>2021-04-11 09:55:04</time>
      </trkpt>
      <trkpt lat="41.51016" lon="1.93879">
        <ele>187.4</ele>
        <time>2021-04-11 09:55:05</time>
      </trkpt>
      <trkpt lat="41.51018" lon="1.93881">
        <ele>187.6</ele>
        <time>2021-04-11 09:55:06</time>
      </trkpt>
      <trkpt lat="41.5102" lon="1.93882">
        <ele>187.8</ele>
        <time>2021-04-11 09:55:07</time>
      </trkpt>
      <trkpt lat="41.51023" lon="1.93883">
        <ele>188</ele>
        <time>2021-04-11 09:55:08</time>
      </trkpt>
      <trkpt lat="41.51025" lon="1.93883">
        <ele>188.2</ele>
        <time>2021-04-11 09:55:09</time>
      </trkpt>
      <trkpt lat="41.51028" lon="1.93885">
        <ele>188.4</ele>
        <time>2021-04-11 09:55:10</time>
      </trkpt>
      <trkpt lat="41.5103" lon="1.93885">
        <ele>188.6</ele>
        <time>2021-04-11 09:55:11</time>
      </trkpt>
      <trkpt lat="41.51033" lon="1.93886">
        <ele>188.8</ele>
        <time>2021-04-11 09:55:12</time>
      </trkpt>
      <trkpt lat="41.51035" lon="1.93887">
        <ele>189</ele>
        <time>2021-04-11 09:55:13</time>
      </trkpt>
      <trkpt lat="41.51037" lon="1.93888">
        <ele>189.2</ele>
        <time>2021-04-11 09:55:14</time>
      </trkpt>
      <trkpt lat="41.51039" lon="1.93888">
        <ele>189.4</ele>
        <time>2021-04-11 09:55:15</time>
      </trkpt>
      <trkpt lat="41.51041" lon="1.93889">
        <ele>189.6</ele>
        <time>2021-04-11 09:55:16</time>
      </trkpt>
      <trkpt lat="41.51044" lon="1.93889">
        <ele>189.8</ele>
        <time>2021-04-11 09:55:17</time>
      </trkpt>
      <trkpt lat="41.51046" lon="1.93889">
        <ele>190</ele>
        <time>2021-04-11 09:55:18</time>
      </trkpt>
      <trkpt lat="41.51049" lon="1.93888">
        <ele>190.2</ele>
        <time>2021-04-11 09:55:19</time>
      </trkpt>
      <trkpt lat="41.51051" lon="1.93888">
        <ele>190.4</ele>
        <time>2021-04-11 09:55:20</time>
      </trkpt>
      <trkpt lat="41.51054" lon="1.93887">
        <ele>190.6</ele>
        <time>2021-04-11 09:55:21</time>
      </trkpt>
      <trkpt lat="41.51056" lon="1.93886">
        <ele>190.8</ele>
        <time>2021-04-11 09:55:22</time>
      </trkpt>
      <trkpt lat="41.51058" lon="1.93884">
        <ele>191</ele>
        <time>2021-04-11 09:55:23</time>
      </trkpt>
      <trkpt lat="41.5106" lon="1.93882">
        <ele>191.2</ele>
        <time>2021-04-11 09:55:24</time>
      </trkpt>
      <trkpt lat="41.51062" lon="1.93879">
        <ele>191.4</ele>
        <time>2021-04-11 09:55:25</time>
      </trkpt>
      <trkpt lat="41.51064" lon="1.93877">
        <ele>191.6</ele>
        <time>2021-04-11 09:55:26</time>
      </trkpt>
      <trkpt lat="41.51066" lon="1.93875">
        <ele>191.8</ele>
        <time>2021-04-11 09:55:27</time>
      </trkpt>
      <trkpt lat="41.51068" lon="1.93872">
        <ele>192</ele>
        <time>2021-04-11 09:55:28</time>
      </trkpt>
      <trkpt lat="41.5107" lon="1.9387">
        <ele>192.2</ele>
        <time>2021-04-11 09:55:29</time>
      </trkpt>
      <trkpt lat="41.51072" lon="1.93868">
        <ele>192.4</ele>
        <time>2021-04-11 09:55:30</time>
      </trkpt>
      <trkpt lat="41.51075" lon="1.93867">
        <ele>192.6</ele>
        <time>2021-04-11 09:55:31</time>
      </trkpt>
      <trkpt lat="41.51077" lon="1.93866">
        <ele>192.8</ele>
        <time>2021-04-11 09:55:32</time>
      </trkpt>
      <trkpt lat="41.5108" lon="1.93865">
        <ele>193</ele>
        <time>2021-04-11 09:55:33</time>
      </trkpt>
      <trkpt lat="41.51082" lon="1.93865">
        <ele>193.2</ele>
        <time>2021-04-11 09:55:34</time>
      </trkpt>
      <trkpt lat="41.51085" lon="1.93866">
        <ele>193.4</ele>
        <time>2021-04-11 09:55:35</time>
      </trkpt>
      <trkpt lat="41.51087" lon="1.93867">
        <ele>193.6</ele>
        <time>2021-04-11 09:55:36</time>
      </trkpt>
      <trkpt lat="41.5109" lon="1.93868">
        <ele>193.8</ele>
        <time>2021-04-11 09:55:37</time>
      </trkpt>
      <trkpt lat="41.51092" lon="1.93869">
        <ele>194</ele>
        <time>2021-04-11 09:55:38</time>
      </trkpt>
      <trkpt lat="41.51095" lon="1.93871">
        <ele>194.2</ele>
        <time>2021-04-11 09:55:39</time>
      </trkpt>
      <trkpt lat="41.51097" lon="1.93872">
        <ele>194.6</ele>
        <time>2021-04-11 09:55:40</time>
      </trkpt>
      <trkpt lat="41.51099" lon="1.93874">
        <ele>194.8</ele>
        <time>2021-04-11 09:55:41</time>
      </trkpt>
      <trkpt lat="41.51101" lon="1.93875">
        <ele>195</ele>
        <time>2021-04-11 09:55:42</time>
      </trkpt>
      <trkpt lat="41.51103" lon="1.93877">
        <ele>195.4</ele>
        <time>2021-04-11 09:55:43</time>
      </trkpt>
      <trkpt lat="41.51105" lon="1.93878">
        <ele>195.6</ele>
        <time>2021-04-11 09:55:44</time>
      </trkpt>
      <trkpt lat="41.51108" lon="1.9388">
        <ele>195.8</ele>
        <time>2021-04-11 09:55:45</time>
      </trkpt>
      <trkpt lat="41.5111" lon="1.93881">
        <ele>196</ele>
        <time>2021-04-11 09:55:46</time>
      </trkpt>
      <trkpt lat="41.51112" lon="1.93883">
        <ele>196.2</ele>
        <time>2021-04-11 09:55:47</time>
      </trkpt>
      <trkpt lat="41.51114" lon="1.93885">
        <ele>196.6</ele>
        <time>2021-04-11 09:55:48</time>
      </trkpt>
      <trkpt lat="41.51116" lon="1.93887">
        <ele>196.8</ele>
        <time>2021-04-11 09:55:49</time>
      </trkpt>
      <trkpt lat="41.51118" lon="1.93889">
        <ele>197</ele>
        <time>2021-04-11 09:55:50</time>
      </trkpt>
      <trkpt lat="41.51121" lon="1.93891">
        <ele>197.2</ele>
        <time>2021-04-11 09:55:51</time>
      </trkpt>
      <trkpt lat="41.51123" lon="1.93893">
        <ele>197.4</ele>
        <time>2021-04-11 09:55:52</time>
      </trkpt>
      <trkpt lat="41.51125" lon="1.93896">
        <ele>197.6</ele>
        <time>2021-04-11 09:55:53</time>
      </trkpt>
      <trkpt lat="41.51126" lon="1.93898">
        <ele>197.8</ele>
        <time>2021-04-11 09:55:54</time>
      </trkpt>
      <trkpt lat="41.51128" lon="1.93901">
        <ele>198</ele>
        <time>2021-04-11 09:55:55</time>
      </trkpt>
      <trkpt lat="41.5113" lon="1.93904">
        <ele>198.2</ele>
        <time>2021-04-11 09:55:56</time>
      </trkpt>
      <trkpt lat="41.51132" lon="1.93906">
        <ele>198.6</ele>
        <time>2021-04-11 09:55:57</time>
      </trkpt>
      <trkpt lat="41.51134" lon="1.93909">
        <ele>198.8</ele>
        <time>2021-04-11 09:55:58</time>
      </trkpt>
      <trkpt lat="41.51136" lon="1.93911">
        <ele>199</ele>
        <time>2021-04-11 09:55:59</time>
      </trkpt>
      <trkpt lat="41.51137" lon="1.93914">
        <ele>199.2</ele>
        <time>2021-04-11 09:56:00</time>
      </trkpt>
      <trkpt lat="41.51139" lon="1.93916">
        <ele>199.4</ele>
        <time>2021-04-11 09:56:01</time>
      </trkpt>
      <trkpt lat="41.51141" lon="1.93919">
        <ele>199.6</ele>
        <time>2021-04-11 09:56:02</time>
      </trkpt>
      <trkpt lat="41.51143" lon="1.93921">
        <ele>199.8</ele>
        <time>2021-04-11 09:56:03</time>
      </trkpt>
      <trkpt lat="41.51144" lon="1.93924">
        <ele>200</ele>
        <time>2021-04-11 09:56:04</time>
      </trkpt>
      <trkpt lat="41.51146" lon="1.93927">
        <ele>200.2</ele>
        <time>2021-04-11 09:56:05</time>
      </trkpt>
      <trkpt lat="41.51148" lon="1.9393">
        <ele>200.4</ele>
        <time>2021-04-11 09:56:06</time>
      </trkpt>
      <trkpt lat="41.51149" lon="1.93933">
        <ele>200.6</ele>
        <time>2021-04-11 09:56:07</time>
      </trkpt>
      <trkpt lat="41.51151" lon="1.93935">
        <ele>200.8</ele>
        <time>2021-04-11 09:56:08</time>
      </trkpt>
      <trkpt lat="41.51153" lon="1.93938">
        <ele>201</ele>
        <time>2021-04-11 09:56:09</time>
      </trkpt>
      <trkpt lat="41.51155" lon="1.93941">
        <ele>201.2</ele>
        <time>2021-04-11 09:56:10</time>
      </trkpt>
      <trkpt lat="41.51157" lon="1.93944">
        <ele>201.4</ele>
        <time>2021-04-11 09:56:11</time>
      </trkpt>
      <trkpt lat="41.51159" lon="1.93947">
        <ele>201.6</ele>
        <time>2021-04-11 09:56:12</time>
      </trkpt>
      <trkpt lat="41.51161" lon="1.93949">
        <ele>201.8</ele>
        <time>2021-04-11 09:56:13</time>
      </trkpt>
      <trkpt lat="41.51163" lon="1.93952">
        <ele>202</ele>
        <time>2021-04-11 09:56:14</time>
      </trkpt>
      <trkpt lat="41.51165" lon="1.93955">
        <ele>202.2</ele>
        <time>2021-04-11 09:56:15</time>
      </trkpt>
      <trkpt lat="41.51167" lon="1.93958">
        <ele>202.4</ele>
        <time>2021-04-11 09:56:16</time>
      </trkpt>
      <trkpt lat="41.51168" lon="1.93961">
        <ele>202.8</ele>
        <time>2021-04-11 09:56:17</time>
      </trkpt>
      <trkpt lat="41.5117" lon="1.93964">
        <ele>203</ele>
        <time>2021-04-11 09:56:18</time>
      </trkpt>
      <trkpt lat="41.51172" lon="1.93966">
        <ele>203.2</ele>
        <time>2021-04-11 09:56:19</time>
      </trkpt>
      <trkpt lat="41.51174" lon="1.93969">
        <ele>203.4</ele>
        <time>2021-04-11 09:56:20</time>
      </trkpt>
      <trkpt lat="41.51176" lon="1.93972">
        <ele>203.6</ele>
        <time>2021-04-11 09:56:21</time>
      </trkpt>
      <trkpt lat="41.51178" lon="1.93975">
        <ele>203.8</ele>
        <time>2021-04-11 09:56:22</time>
      </trkpt>
      <trkpt lat="41.5118" lon="1.93977">
        <ele>204</ele>
        <time>2021-04-11 09:56:23</time>
      </trkpt>
      <trkpt lat="41.51182" lon="1.9398">
        <ele>204.2</ele>
        <time>2021-04-11 09:56:24</time>
      </trkpt>
      <trkpt lat="41.51184" lon="1.93983">
        <ele>204.4</ele>
        <time>2021-04-11 09:56:25</time>
      </trkpt>
      <trkpt lat="41.51186" lon="1.93986">
        <ele>204.6</ele>
        <time>2021-04-11 09:56:26</time>
      </trkpt>
      <trkpt lat="41.51187" lon="1.93988">
        <ele>204.8</ele>
        <time>2021-04-11 09:56:27</time>
      </trkpt>
      <trkpt lat="41.51189" lon="1.93991">
        <ele>205.2</ele>
        <time>2021-04-11 09:56:28</time>
      </trkpt>
      <trkpt lat="41.51191" lon="1.93994">
        <ele>205.4</ele>
        <time>2021-04-11 09:56:29</time>
      </trkpt>
      <trkpt lat="41.51193" lon="1.93997">
        <ele>205.6</ele>
        <time>2021-04-11 09:56:30</time>
      </trkpt>
      <trkpt lat="41.51195" lon="1.93999">
        <ele>205.8</ele>
        <time>2021-04-11 09:56:31</time>
      </trkpt>
      <trkpt lat="41.51197" lon="1.94002">
        <ele>206</ele>
        <time>2021-04-11 09:56:32</time>
      </trkpt>
      <trkpt lat="41.51199" lon="1.94005">
        <ele>206.2</ele>
        <time>2021-04-11 09:56:33</time>
      </trkpt>
      <trkpt lat="41.512" lon="1.94008">
        <ele>206.6</ele>
        <time>2021-04-11 09:56:34</time>
      </trkpt>
      <trkpt lat="41.51202" lon="1.9401">
        <ele>206.8</ele>
        <time>2021-04-11 09:56:35</time>
      </trkpt>
      <trkpt lat="41.51204" lon="1.94013">
        <ele>207</ele>
        <time>2021-04-11 09:56:36</time>
      </trkpt>
      <trkpt lat="41.51206" lon="1.94015">
        <ele>207.2</ele>
        <time>2021-04-11 09:56:37</time>
      </trkpt>
      <trkpt lat="41.51208" lon="1.94018">
        <ele>207.4</ele>
        <time>2021-04-11 09:56:38</time>
      </trkpt>
      <trkpt lat="41.5121" lon="1.9402">
        <ele>207.6</ele>
        <time>2021-04-11 09:56:39</time>
      </trkpt>
      <trkpt lat="41.51212" lon="1.94023">
        <ele>208</ele>
        <time>2021-04-11 09:56:40</time>
      </trkpt>
      <trkpt lat="41.51214" lon="1.94026">
        <ele>208.2</ele>
        <time>2021-04-11 09:56:41</time>
      </trkpt>
      <trkpt lat="41.51216" lon="1.94029">
        <ele>208.4</ele>
        <time>2021-04-11 09:56:42</time>
      </trkpt>
      <trkpt lat="41.51218" lon="1.94032">
        <ele>208.6</ele>
        <time>2021-04-11 09:56:43</time>
      </trkpt>
      <trkpt lat="41.5122" lon="1.94034">
        <ele>209</ele>
        <time>2021-04-11 09:56:44</time>
      </trkpt>
      <trkpt lat="41.51221" lon="1.94037">
        <ele>209.2</ele>
        <time>2021-04-11 09:56:45</time>
      </trkpt>
      <trkpt lat="41.51223" lon="1.9404">
        <ele>209.4</ele>
        <time>2021-04-11 09:56:46</time>
      </trkpt>
      <trkpt lat="41.51226" lon="1.94043">
        <ele>209.8</ele>
        <time>2021-04-11 09:56:47</time>
      </trkpt>
      <trkpt lat="41.51228" lon="1.94044">
        <ele>210</ele>
        <time>2021-04-11 09:56:48</time>
      </trkpt>
      <trkpt lat="41.5123" lon="1.94047">
        <ele>210.2</ele>
        <time>2021-04-11 09:56:49</time>
      </trkpt>
      <trkpt lat="41.51233" lon="1.94049">
        <ele>210.4</ele>
        <time>2021-04-11 09:56:50</time>
      </trkpt>
      <trkpt lat="41.51236" lon="1.9405">
        <ele>210.6</ele>
        <time>2021-04-11 09:56:51</time>
      </trkpt>
      <trkpt lat="41.51239" lon="1.94051">
        <ele>210.8</ele>
        <time>2021-04-11 09:56:52</time>
      </trkpt>
      <trkpt lat="41.51242" lon="1.94051">
        <ele>211</ele>
        <time>2021-04-11 09:56:53</time>
      </trkpt>
      <trkpt lat="41.51245" lon="1.9405">
        <ele>211.4</ele>
        <time>2021-04-11 09:56:54</time>
      </trkpt>
      <trkpt lat="41.51248" lon="1.94049">
        <ele>211.6</ele>
        <time>2021-04-11 09:56:55</time>
      </trkpt>
      <trkpt lat="41.51251" lon="1.94048">
        <ele>211.8</ele>
        <time>2021-04-11 09:56:56</time>
      </trkpt>
      <trkpt lat="41.51253" lon="1.94046">
        <ele>212</ele>
        <time>2021-04-11 09:56:57</time>
      </trkpt>
      <trkpt lat="41.51256" lon="1.94043">
        <ele>212.2</ele>
        <time>2021-04-11 09:56:58</time>
      </trkpt>
      <trkpt lat="41.51258" lon="1.9404">
        <ele>212.4</ele>
        <time>2021-04-11 09:56:59</time>
      </trkpt>
      <trkpt lat="41.5126" lon="1.94036">
        <ele>212.6</ele>
        <time>2021-04-11 09:57:00</time>
      </trkpt>
      <trkpt lat="41.51261" lon="1.94032">
        <ele>212.6</ele>
        <time>2021-04-11 09:57:01</time>
      </trkpt>
      <trkpt lat="41.51261" lon="1.94028">
        <ele>212.8</ele>
        <time>2021-04-11 09:57:02</time>
      </trkpt>
      <trkpt lat="41.51261" lon="1.94024">
        <ele>212.8</ele>
        <time>2021-04-11 09:57:03</time>
      </trkpt>
      <trkpt lat="41.51261" lon="1.94018">
        <ele>213</ele>
        <time>2021-04-11 09:57:04</time>
      </trkpt>
      <trkpt lat="41.51262" lon="1.94013">
        <ele>213.2</ele>
        <time>2021-04-11 09:57:05</time>
      </trkpt>
      <trkpt lat="41.51262" lon="1.94008">
        <ele>213.4</ele>
        <time>2021-04-11 09:57:06</time>
      </trkpt>
      <trkpt lat="41.51262" lon="1.94003">
        <ele>213.6</ele>
        <time>2021-04-11 09:57:07</time>
      </trkpt>
      <trkpt lat="41.51262" lon="1.93999">
        <ele>213.8</ele>
        <time>2021-04-11 09:57:08</time>
      </trkpt>
      <trkpt lat="41.51262" lon="1.93994">
        <ele>214</ele>
        <time>2021-04-11 09:57:09</time>
      </trkpt>
      <trkpt lat="41.51263" lon="1.93989">
        <ele>214.2</ele>
        <time>2021-04-11 09:57:10</time>
      </trkpt>
      <trkpt lat="41.51264" lon="1.93985">
        <ele>214.6</ele>
        <time>2021-04-11 09:57:11</time>
      </trkpt>
      <trkpt lat="41.51266" lon="1.93981">
        <ele>214.8</ele>
        <time>2021-04-11 09:57:12</time>
      </trkpt>
      <trkpt lat="41.51268" lon="1.93978">
        <ele>215</ele>
        <time>2021-04-11 09:57:13</time>
      </trkpt>
      <trkpt lat="41.51271" lon="1.93975">
        <ele>215.2</ele>
        <time>2021-04-11 09:57:14</time>
      </trkpt>
      <trkpt lat="41.51273" lon="1.93973">
        <ele>215.6</ele>
        <time>2021-04-11 09:57:15</time>
      </trkpt>
      <trkpt lat="41.51276" lon="1.93971">
        <ele>215.8</ele>
        <time>2021-04-11 09:57:16</time>
      </trkpt>
      <trkpt lat="41.51279" lon="1.9397">
        <ele>216</ele>
        <time>2021-04-11 09:57:17</time>
      </trkpt>
      <trkpt lat="41.51282" lon="1.9397">
        <ele>216.2</ele>
        <time>2021-04-11 09:57:18</time>
      </trkpt>
      <trkpt lat="41.51286" lon="1.9397">
        <ele>216.4</ele>
        <time>2021-04-11 09:57:19</time>
      </trkpt>
      <trkpt lat="41.51289" lon="1.9397">
        <ele>216.8</ele>
        <time>2021-04-11 09:57:20</time>
      </trkpt>
      <trkpt lat="41.51292" lon="1.93971">
        <ele>217</ele>
        <time>2021-04-11 09:57:21</time>
      </trkpt>
      <trkpt lat="41.51295" lon="1.93971">
        <ele>217.2</ele>
        <time>2021-04-11 09:57:22</time>
      </trkpt>
      <trkpt lat="41.51298" lon="1.93971">
        <ele>217.4</ele>
        <time>2021-04-11 09:57:23</time>
      </trkpt>
      <trkpt lat="41.51301" lon="1.93972">
        <ele>217.8</ele>
        <time>2021-04-11 09:57:24</time>
      </trkpt>
      <trkpt lat="41.51304" lon="1.93972">
        <ele>218</ele>
        <time>2021-04-11 09:57:25</time>
      </trkpt>
      <trkpt lat="41.51307" lon="1.93973">
        <ele>218.2</ele>
        <time>2021-04-11 09:57:26</time>
      </trkpt>
      <trkpt lat="41.5131" lon="1.93973">
        <ele>218.6</ele>
        <time>2021-04-11 09:57:27</time>
      </trkpt>
      <trkpt lat="41.51313" lon="1.93974">
        <ele>218.8</ele>
        <time>2021-04-11 09:57:28</time>
      </trkpt>
      <trkpt lat="41.51316" lon="1.93975">
        <ele>219</ele>
        <time>2021-04-11 09:57:29</time>
      </trkpt>
      <trkpt lat="41.5132" lon="1.93976">
        <ele>219.2</ele>
        <time>2021-04-11 09:57:30</time>
      </trkpt>
      <trkpt lat="41.51323" lon="1.93977">
        <ele>219.6</ele>
        <time>2021-04-11 09:57:31</time>
      </trkpt>
      <trkpt lat="41.51326" lon="1.93978">
        <ele>219.8</ele>
        <time>2021-04-11 09:57:32</time>
      </trkpt>
      <trkpt lat="41.51328" lon="1.9398">
        <ele>220</ele>
        <time>2021-04-11 09:57:33</time>
      </trkpt>
      <trkpt lat="41.51331" lon="1.93983">
        <ele>220.2</ele>
        <time>2021-04-11 09:57:34</time>
      </trkpt>
      <trkpt lat="41.51334" lon="1.93986">
        <ele>220.6</ele>
        <time>2021-04-11 09:57:35</time>
      </trkpt>
      <trkpt lat="41.51336" lon="1.9399">
        <ele>220.8</ele>
        <time>2021-04-11 09:57:36</time>
      </trkpt>
      <trkpt lat="41.51337" lon="1.93993">
        <ele>221.2</ele>
        <time>2021-04-11 09:57:37</time>
      </trkpt>
      <trkpt lat="41.51337" lon="1.93997">
        <ele>221.4</ele>
        <time>2021-04-11 09:57:38</time>
      </trkpt>
      <trkpt lat="41.51337" lon="1.94002">
        <ele>221.8</ele>
        <time>2021-04-11 09:57:39</time>
      </trkpt>
      <trkpt lat="41.51337" lon="1.94006">
        <ele>222.2</ele>
        <time>2021-04-11 09:57:40</time>
      </trkpt>
      <trkpt lat="41.51336" lon="1.94009">
        <ele>222.6</ele>
        <time>2021-04-11 09:57:41</time>
      </trkpt>
      <trkpt lat="41.51334" lon="1.94013">
        <ele>223</ele>
        <time>2021-04-11 09:57:42</time>
      </trkpt>
      <trkpt lat="41.51331" lon="1.94015">
        <ele>223.4</ele>
        <time>2021-04-11 09:57:43</time>
      </trkpt>
      <trkpt lat="41.51328" lon="1.94017">
        <ele>223.6</ele>
        <time>2021-04-11 09:57:44</time>
      </trkpt>
      <trkpt lat="41.51325" lon="1.94018">
        <ele>224</ele>
        <time>2021-04-11 09:57:45</time>
      </trkpt>
      <trkpt lat="41.51322" lon="1.94019">
        <ele>224.4</ele>
        <time>2021-04-11 09:57:46</time>
      </trkpt>
      <trkpt lat="41.51319" lon="1.9402">
        <ele>224.8</ele>
        <time>2021-04-11 09:57:47</time>
      </trkpt>
      <trkpt lat="41.51316" lon="1.94021">
        <ele>225.2</ele>
        <time>2021-04-11 09:57:48</time>
      </trkpt>
      <trkpt lat="41.51313" lon="1.94022">
        <ele>225.6</ele>
        <time>2021-04-11 09:57:49</time>
      </trkpt>
      <trkpt lat="41.5131" lon="1.94024">
        <ele>225.8</ele>
        <time>2021-04-11 09:57:50</time>
      </trkpt>
      <trkpt lat="41.51307" lon="1.94025">
        <ele>226.2</ele>
        <time>2021-04-11 09:57:51</time>
      </trkpt>
      <trkpt lat="41.51304" lon="1.94026">
        <ele>226.6</ele>
        <time>2021-04-11 09:57:52</time>
      </trkpt>
      <trkpt lat="41.51301" lon="1.94027">
        <ele>226.8</ele>
        <time>2021-04-11 09:57:53</time>
      </trkpt>
      <trkpt lat="41.51298" lon="1.94029">
        <ele>227.2</ele>
        <time>2021-04-11 09:57:54</time>
      </trkpt>
      <trkpt lat="41.51296" lon="1.94031">
        <ele>227.6</ele>
        <time>2021-04-11 09:57:55</time>
      </trkpt>
      <trkpt lat="41.51294" lon="1.94033">
        <ele>227.8</ele>
        <time>2021-04-11 09:57:56</time>
      </trkpt>
      <trkpt lat="41.51291" lon="1.94036">
        <ele>228.2</ele>
        <time>2021-04-11 09:57:57</time>
      </trkpt>
      <trkpt lat="41.51289" lon="1.94039">
        <ele>228.4</ele>
        <time>2021-04-11 09:57:58</time>
      </trkpt>
      <trkpt lat="41.51287" lon="1.94043">
        <ele>228.6</ele>
        <time>2021-04-11 09:57:59</time>
      </trkpt>
      <trkpt lat="41.51285" lon="1.94046">
        <ele>228.8</ele>
        <time>2021-04-11 09:58:00</time>
      </trkpt>
      <trkpt lat="41.51283" lon="1.9405">
        <ele>229</ele>
        <time>2021-04-11 09:58:01</time>
      </trkpt>
      <trkpt lat="41.51282" lon="1.94054">
        <ele>229.4</ele>
        <time>2021-04-11 09:58:02</time>
      </trkpt>
      <trkpt lat="41.5128" lon="1.94057">
        <ele>229.6</ele>
        <time>2021-04-11 09:58:03</time>
      </trkpt>
      <trkpt lat="41.51279" lon="1.94061">
        <ele>229.8</ele>
        <time>2021-04-11 09:58:04</time>
      </trkpt>
      <trkpt lat="41.51278" lon="1.94065">
        <ele>230</ele>
        <time>2021-04-11 09:58:05</time>
      </trkpt>
      <trkpt lat="41.51277" lon="1.94069">
        <ele>230.2</ele>
        <time>2021-04-11 09:58:06</time>
      </trkpt>
      <trkpt lat="41.51276" lon="1.94073">
        <ele>230.4</ele>
        <time>2021-04-11 09:58:07</time>
      </trkpt>
      <trkpt lat="41.51275" lon="1.94077">
        <ele>230.8</ele>
        <time>2021-04-11 09:58:08</time>
      </trkpt>
      <trkpt lat="41.51274" lon="1.94082">
        <ele>231</ele>
        <time>2021-04-11 09:58:09</time>
      </trkpt>
      <trkpt lat="41.51274" lon="1.94086">
        <ele>231.2</ele>
        <time>2021-04-11 09:58:10</time>
      </trkpt>
      <trkpt lat="41.51273" lon="1.9409">
        <ele>231.4</ele>
        <time>2021-04-11 09:58:11</time>
      </trkpt>
      <trkpt lat="41.51273" lon="1.94094">
        <ele>231.6</ele>
        <time>2021-04-11 09:58:12</time>
      </trkpt>
      <trkpt lat="41.51272" lon="1.94098">
        <ele>232</ele>
        <time>2021-04-11 09:58:13</time>
      </trkpt>
      <trkpt lat="41.51272" lon="1.94103">
        <ele>232.2</ele>
        <time>2021-04-11 09:58:14</time>
      </trkpt>
      <trkpt lat="41.51271" lon="1.94107">
        <ele>232.4</ele>
        <time>2021-04-11 09:58:15</time>
      </trkpt>
      <trkpt lat="41.51271" lon="1.94111">
        <ele>232.6</ele>
        <time>2021-04-11 09:58:16</time>
      </trkpt>
      <trkpt lat="41.5127" lon="1.94115">
        <ele>233</ele>
        <time>2021-04-11 09:58:17</time>
      </trkpt>
      <trkpt lat="41.51269" lon="1.94119">
        <ele>233.2</ele>
        <time>2021-04-11 09:58:18</time>
      </trkpt>
      <trkpt lat="41.51269" lon="1.94123">
        <ele>233.4</ele>
        <time>2021-04-11 09:58:19</time>
      </trkpt>
      <trkpt lat="41.51268" lon="1.94128">
        <ele>233.8</ele>
        <time>2021-04-11 09:58:20</time>
      </trkpt>
      <trkpt lat="41.51268" lon="1.94132">
        <ele>234</ele>
        <time>2021-04-11 09:58:21</time>
      </trkpt>
      <trkpt lat="41.51267" lon="1.94136">
        <ele>234.2</ele>
        <time>2021-04-11 09:58:22</time>
      </trkpt>
      <trkpt lat="41.51266" lon="1.94139">
        <ele>234.6</ele>
        <time>2021-04-11 09:58:23</time>
      </trkpt>
      <trkpt lat="41.51266" lon="1.94144">
        <ele>234.8</ele>
        <time>2021-04-11 09:58:24</time>
      </trkpt>
      <trkpt lat="41.51265" lon="1.94147">
        <ele>235</ele>
        <time>2021-04-11 09:58:25</time>
      </trkpt>
      <trkpt lat="41.51264" lon="1.94152">
        <ele>235.4</ele>
        <time>2021-04-11 09:58:26</time>
      </trkpt>
      <trkpt lat="41.51263" lon="1.94156">
        <ele>235.6</ele>
        <time>2021-04-11 09:58:27</time>
      </trkpt>
      <trkpt lat="41.51262" lon="1.9416">
        <ele>235.8</ele>
        <time>2021-04-11 09:58:28</time>
      </trkpt>
      <trkpt lat="41.5126" lon="1.94164">
        <ele>236</ele>
        <time>2021-04-11 09:58:29</time>
      </trkpt>
      <trkpt lat="41.51258" lon="1.94167">
        <ele>236.4</ele>
        <time>2021-04-11 09:58:30</time>
      </trkpt>
      <trkpt lat="41.51257" lon="1.94171">
        <ele>236.6</ele>
        <time>2021-04-11 09:58:31</time>
      </trkpt>
      <trkpt lat="41.51255" lon="1.94174">
        <ele>236.8</ele>
        <time>2021-04-11 09:58:32</time>
      </trkpt>
      <trkpt lat="41.51253" lon="1.94177">
        <ele>237</ele>
        <time>2021-04-11 09:58:33</time>
      </trkpt>
      <trkpt lat="41.5125" lon="1.9418">
        <ele>237.4</ele>
        <time>2021-04-11 09:58:34</time>
      </trkpt>
      <trkpt lat="41.51248" lon="1.94183">
        <ele>237.6</ele>
        <time>2021-04-11 09:58:35</time>
      </trkpt>
      <trkpt lat="41.51246" lon="1.94185">
        <ele>237.8</ele>
        <time>2021-04-11 09:58:36</time>
      </trkpt>
      <trkpt lat="41.51244" lon="1.94188">
        <ele>238</ele>
        <time>2021-04-11 09:58:37</time>
      </trkpt>
      <trkpt lat="41.51241" lon="1.94191">
        <ele>238.4</ele>
        <time>2021-04-11 09:58:38</time>
      </trkpt>
      <trkpt lat="41.51239" lon="1.94193">
        <ele>238.6</ele>
        <time>2021-04-11 09:58:39</time>
      </trkpt>
      <trkpt lat="41.51236" lon="1.94196">
        <ele>238.8</ele>
        <time>2021-04-11 09:58:40</time>
      </trkpt>
      <trkpt lat="41.51234" lon="1.94199">
        <ele>239.2</ele>
        <time>2021-04-11 09:58:41</time>
      </trkpt>
      <trkpt lat="41.51232" lon="1.94202">
        <ele>239.4</ele>
        <time>2021-04-11 09:58:42</time>
      </trkpt>
      <trkpt lat="41.5123" lon="1.94204">
        <ele>239.8</ele>
        <time>2021-04-11 09:58:43</time>
      </trkpt>
      <trkpt lat="41.51228" lon="1.94207">
        <ele>240</ele>
        <time>2021-04-11 09:58:44</time>
      </trkpt>
      <trkpt lat="41.51226" lon="1.9421">
        <ele>240.2</ele>
        <time>2021-04-11 09:58:45</time>
      </trkpt>
      <trkpt lat="41.51223" lon="1.94212">
        <ele>240.6</ele>
        <time>2021-04-11 09:58:46</time>
      </trkpt>
      <trkpt lat="41.51221" lon="1.94215">
        <ele>240.8</ele>
        <time>2021-04-11 09:58:47</time>
      </trkpt>
      <trkpt lat="41.51219" lon="1.94218">
        <ele>241</ele>
        <time>2021-04-11 09:58:48</time>
      </trkpt>
      <trkpt lat="41.51217" lon="1.94222">
        <ele>241.2</ele>
        <time>2021-04-11 09:58:49</time>
      </trkpt>
      <trkpt lat="41.51214" lon="1.94226">
        <ele>241.6</ele>
        <time>2021-04-11 09:58:50</time>
      </trkpt>
      <trkpt lat="41.51212" lon="1.9423">
        <ele>241.8</ele>
        <time>2021-04-11 09:58:51</time>
      </trkpt>
      <trkpt lat="41.51209" lon="1.94234">
        <ele>242.2</ele>
        <time>2021-04-11 09:58:52</time>
      </trkpt>
      <trkpt lat="41.51207" lon="1.94238">
        <ele>242.4</ele>
        <time>2021-04-11 09:58:53</time>
      </trkpt>
      <trkpt lat="41.51204" lon="1.94242">
        <ele>242.8</ele>
        <time>2021-04-11 09:58:54</time>
      </trkpt>
      <trkpt lat="41.51202" lon="1.94246">
        <ele>243.2</ele>
        <time>2021-04-11 09:58:55</time>
      </trkpt>
      <trkpt lat="41.512" lon="1.9425">
        <ele>243.4</ele>
        <time>2021-04-11 09:58:56</time>
      </trkpt>
      <trkpt lat="41.51198" lon="1.94254">
        <ele>243.8</ele>
        <time>2021-04-11 09:58:57</time>
      </trkpt>
      <trkpt lat="41.51197" lon="1.94259">
        <ele>244</ele>
        <time>2021-04-11 09:58:58</time>
      </trkpt>
      <trkpt lat="41.51195" lon="1.94263">
        <ele>244.4</ele>
        <time>2021-04-11 09:58:59</time>
      </trkpt>
      <trkpt lat="41.51194" lon="1.94268">
        <ele>244.6</ele>
        <time>2021-04-11 09:59:00</time>
      </trkpt>
      <trkpt lat="41.51193" lon="1.94273">
        <ele>245</ele>
        <time>2021-04-11 09:59:01</time>
      </trkpt>
      <trkpt lat="41.51192" lon="1.94277">
        <ele>245.2</ele>
        <time>2021-04-11 09:59:02</time>
      </trkpt>
      <trkpt lat="41.51192" lon="1.94281">
        <ele>245.6</ele>
        <time>2021-04-11 09:59:03</time>
      </trkpt>
      <trkpt lat="41.51191" lon="1.94286">
        <ele>245.8</ele>
        <time>2021-04-11 09:59:04</time>
      </trkpt>
      <trkpt lat="41.51191" lon="1.94291">
        <ele>246.2</ele>
        <time>2021-04-11 09:59:05</time>
      </trkpt>
      <trkpt lat="41.5119" lon="1.94296">
        <ele>246.4</ele>
        <time>2021-04-11 09:59:06</time>
      </trkpt>
      <trkpt lat="41.51189" lon="1.943">
        <ele>246.6</ele>
        <time>2021-04-11 09:59:07</time>
      </trkpt>
      <trkpt lat="41.51189" lon="1.94305">
        <ele>247</ele>
        <time>2021-04-11 09:59:08</time>
      </trkpt>
      <trkpt lat="41.51188" lon="1.9431">
        <ele>247.2</ele>
        <time>2021-04-11 09:59:09</time>
      </trkpt>
      <trkpt lat="41.51188" lon="1.94315">
        <ele>247.4</ele>
        <time>2021-04-11 09:59:10</time>
      </trkpt>
      <trkpt lat="41.51188" lon="1.94319">
        <ele>247.8</ele>
        <time>2021-04-11 09:59:11</time>
      </trkpt>
      <trkpt lat="41.51188" lon="1.94324">
        <ele>248</ele>
        <time>2021-04-11 09:59:12</time>
      </trkpt>
      <trkpt lat="41.51187" lon="1.94328">
        <ele>248.2</ele>
        <time>2021-04-11 09:59:13</time>
      </trkpt>
      <trkpt lat="41.51186" lon="1.94332">
        <ele>248.4</ele>
        <time>2021-04-11 09:59:14</time>
      </trkpt>
      <trkpt lat="41.51186" lon="1.94337">
        <ele>248.8</ele>
        <time>2021-04-11 09:59:15</time>
      </trkpt>
      <trkpt lat="41.51185" lon="1.94342">
        <ele>249</ele>
        <time>2021-04-11 09:59:16</time>
      </trkpt>
      <trkpt lat="41.51185" lon="1.94347">
        <ele>249.2</ele>
        <time>2021-04-11 09:59:17</time>
      </trkpt>
      <trkpt lat="41.51184" lon="1.94351">
        <ele>249.6</ele>
        <time>2021-04-11 09:59:18</time>
      </trkpt>
      <trkpt lat="41.51184" lon="1.94356">
        <ele>249.8</ele>
        <time>2021-04-11 09:59:19</time>
      </trkpt>
      <trkpt lat="41.51183" lon="1.9436">
        <ele>250</ele>
        <time>2021-04-11 09:59:20</time>
      </trkpt>
      <trkpt lat="41.51183" lon="1.94365">
        <ele>250.2</ele>
        <time>2021-04-11 09:59:21</time>
      </trkpt>
      <trkpt lat="41.51183" lon="1.94369">
        <ele>250.6</ele>
        <time>2021-04-11 09:59:22</time>
      </trkpt>
      <trkpt lat="41.51182" lon="1.94373">
        <ele>250.8</ele>
        <time>2021-04-11 09:59:23</time>
      </trkpt>
      <trkpt lat="41.51182" lon="1.94378">
        <ele>251</ele>
        <time>2021-04-11 09:59:24</time>
      </trkpt>
      <trkpt lat="41.51182" lon="1.94382">
        <ele>251.4</ele>
        <time>2021-04-11 09:59:25</time>
      </trkpt>
      <trkpt lat="41.51181" lon="1.94387">
        <ele>251.6</ele>
        <time>2021-04-11 09:59:26</time>
      </trkpt>
      <trkpt lat="41.51181" lon="1.94391">
        <ele>251.8</ele>
        <time>2021-04-11 09:59:27</time>
      </trkpt>
      <trkpt lat="41.51181" lon="1.94396">
        <ele>252.2</ele>
        <time>2021-04-11 09:59:28</time>
      </trkpt>
      <trkpt lat="41.51182" lon="1.944">
        <ele>252.4</ele>
        <time>2021-04-11 09:59:29</time>
      </trkpt>
      <trkpt lat="41.51182" lon="1.94405">
        <ele>252.8</ele>
        <time>2021-04-11 09:59:30</time>
      </trkpt>
      <trkpt lat="41.51183" lon="1.94409">
        <ele>253</ele>
        <time>2021-04-11 09:59:31</time>
      </trkpt>
      <trkpt lat="41.51184" lon="1.94413">
        <ele>253.2</ele>
        <time>2021-04-11 09:59:32</time>
      </trkpt>
      <trkpt lat="41.51186" lon="1.94417">
        <ele>253.6</ele>
        <time>2021-04-11 09:59:33</time>
      </trkpt>
      <trkpt lat="41.51188" lon="1.94421">
        <ele>253.8</ele>
        <time>2021-04-11 09:59:34</time>
      </trkpt>
      <trkpt lat="41.51191" lon="1.94424">
        <ele>254</ele>
        <time>2021-04-11 09:59:35</time>
      </trkpt>
      <trkpt lat="41.51194" lon="1.94428">
        <ele>254.2</ele>
        <time>2021-04-11 09:59:36</time>
      </trkpt>
      <trkpt lat="41.51197" lon="1.94431">
        <ele>254.4</ele>
        <time>2021-04-11 09:59:37</time>
      </trkpt>
      <trkpt lat="41.512" lon="1.94433">
        <ele>254.8</ele>
        <time>2021-04-11 09:59:38</time>
      </trkpt>
      <trkpt lat="41.51203" lon="1.94436">
        <ele>255</ele>
        <time>2021-04-11 09:59:39</time>
      </trkpt>
      <trkpt lat="41.51206" lon="1.94439">
        <ele>255.2</ele>
        <time>2021-04-11 09:59:40</time>
      </trkpt>
      <trkpt lat="41.5121" lon="1.94441">
        <ele>255.4</ele>
        <time>2021-04-11 09:59:41</time>
      </trkpt>
      <trkpt lat="41.51213" lon="1.94442">
        <ele>255.6</ele>
        <time>2021-04-11 09:59:42</time>
      </trkpt>
      <trkpt lat="41.51216" lon="1.94444">
        <ele>255.8</ele>
        <time>2021-04-11 09:59:43</time>
      </trkpt>
      <trkpt lat="41.5122" lon="1.94446">
        <ele>256</ele>
        <time>2021-04-11 09:59:44</time>
      </trkpt>
      <trkpt lat="41.51224" lon="1.94447">
        <ele>256.2</ele>
        <time>2021-04-11 09:59:45</time>
      </trkpt>
      <trkpt lat="41.51228" lon="1.94448">
        <ele>256.4</ele>
        <time>2021-04-11 09:59:46</time>
      </trkpt>
      <trkpt lat="41.51231" lon="1.9445">
        <ele>256.6</ele>
        <time>2021-04-11 09:59:47</time>
      </trkpt>
      <trkpt lat="41.51235" lon="1.94451">
        <ele>256.8</ele>
        <time>2021-04-11 09:59:48</time>
      </trkpt>
      <trkpt lat="41.51239" lon="1.94453">
        <ele>256.8</ele>
        <time>2021-04-11 09:59:49</time>
      </trkpt>
      <trkpt lat="41.51243" lon="1.94455">
        <ele>257</ele>
        <time>2021-04-11 09:59:50</time>
      </trkpt>
      <trkpt lat="41.51246" lon="1.94458">
        <ele>257.2</ele>
        <time>2021-04-11 09:59:51</time>
      </trkpt>
      <trkpt lat="41.51249" lon="1.94461">
        <ele>257.4</ele>
        <time>2021-04-11 09:59:52</time>
      </trkpt>
      <trkpt lat="41.51251" lon="1.94465">
        <ele>257.6</ele>
        <time>2021-04-11 09:59:53</time>
      </trkpt>
      <trkpt lat="41.51253" lon="1.9447">
        <ele>257.8</ele>
        <time>2021-04-11 09:59:54</time>
      </trkpt>
      <trkpt lat="41.51254" lon="1.94475">
        <ele>258</ele>
        <time>2021-04-11 09:59:55</time>
      </trkpt>
      <trkpt lat="41.51255" lon="1.9448">
        <ele>258.4</ele>
        <time>2021-04-11 09:59:56</time>
      </trkpt>
      <trkpt lat="41.51256" lon="1.94484">
        <ele>258.6</ele>
        <time>2021-04-11 09:59:57</time>
      </trkpt>
      <trkpt lat="41.51257" lon="1.94489">
        <ele>259</ele>
        <time>2021-04-11 09:59:58</time>
      </trkpt>
      <trkpt lat="41.51257" lon="1.94494">
        <ele>259.2</ele>
        <time>2021-04-11 09:59:59</time>
      </trkpt>
      <trkpt lat="41.51258" lon="1.94499">
        <ele>259.4</ele>
        <time>2021-04-11 10:00:00</time>
      </trkpt>
      <trkpt lat="41.51258" lon="1.94503">
        <ele>259.8</ele>
        <time>2021-04-11 10:00:01</time>
      </trkpt>
      <trkpt lat="41.51259" lon="1.94509">
        <ele>260</ele>
        <time>2021-04-11 10:00:02</time>
      </trkpt>
      <trkpt lat="41.5126" lon="1.94514">
        <ele>260.2</ele>
        <time>2021-04-11 10:00:03</time>
      </trkpt>
      <trkpt lat="41.5126" lon="1.94519">
        <ele>260.4</ele>
        <time>2021-04-11 10:00:04</time>
      </trkpt>
      <trkpt lat="41.51261" lon="1.94524">
        <ele>260.8</ele>
        <time>2021-04-11 10:00:05</time>
      </trkpt>
      <trkpt lat="41.51261" lon="1.9453">
        <ele>261</ele>
        <time>2021-04-11 10:00:06</time>
      </trkpt>
      <trkpt lat="41.51262" lon="1.94535">
        <ele>261.2</ele>
        <time>2021-04-11 10:00:07</time>
      </trkpt>
      <trkpt lat="41.51262" lon="1.9454">
        <ele>261.6</ele>
        <time>2021-04-11 10:00:08</time>
      </trkpt>
      <trkpt lat="41.51261" lon="1.94545">
        <ele>261.8</ele>
        <time>2021-04-11 10:00:09</time>
      </trkpt>
      <trkpt lat="41.51261" lon="1.9455">
        <ele>262.2</ele>
        <time>2021-04-11 10:00:10</time>
      </trkpt>
      <trkpt lat="41.5126" lon="1.94555">
        <ele>262.4</ele>
        <time>2021-04-11 10:00:11</time>
      </trkpt>
      <trkpt lat="41.51259" lon="1.9456">
        <ele>262.6</ele>
        <time>2021-04-11 10:00:12</time>
      </trkpt>
      <trkpt lat="41.51257" lon="1.94565">
        <ele>263</ele>
        <time>2021-04-11 10:00:13</time>
      </trkpt>
      <trkpt lat="41.51255" lon="1.9457">
        <ele>263.2</ele>
        <time>2021-04-11 10:00:14</time>
      </trkpt>
      <trkpt lat="41.51254" lon="1.94574">
        <ele>263.6</ele>
        <time>2021-04-11 10:00:15</time>
      </trkpt>
      <trkpt lat="41.51252" lon="1.9458">
        <ele>263.8</ele>
        <time>2021-04-11 10:00:16</time>
      </trkpt>
      <trkpt lat="41.51252" lon="1.94585">
        <ele>264.2</ele>
        <time>2021-04-11 10:00:17</time>
      </trkpt>
      <trkpt lat="41.51251" lon="1.9459">
        <ele>264.4</ele>
        <time>2021-04-11 10:00:18</time>
      </trkpt>
      <trkpt lat="41.51252" lon="1.94595">
        <ele>264.8</ele>
        <time>2021-04-11 10:00:19</time>
      </trkpt>
      <trkpt lat="41.51252" lon="1.946">
        <ele>265</ele>
        <time>2021-04-11 10:00:20</time>
      </trkpt>
      <trkpt lat="41.51254" lon="1.94605">
        <ele>265.4</ele>
        <time>2021-04-11 10:00:21</time>
      </trkpt>
      <trkpt lat="41.51255" lon="1.9461">
        <ele>265.6</ele>
        <time>2021-04-11 10:00:22</time>
      </trkpt>
      <trkpt lat="41.51257" lon="1.94615">
        <ele>266</ele>
        <time>2021-04-11 10:00:23</time>
      </trkpt>
      <trkpt lat="41.51259" lon="1.9462">
        <ele>266.2</ele>
        <time>2021-04-11 10:00:24</time>
      </trkpt>
      <trkpt lat="41.5126" lon="1.94625">
        <ele>266.6</ele>
        <time>2021-04-11 10:00:25</time>
      </trkpt>
      <trkpt lat="41.51262" lon="1.9463">
        <ele>266.8</ele>
        <time>2021-04-11 10:00:26</time>
      </trkpt>
      <trkpt lat="41.51264" lon="1.94635">
        <ele>267.2</ele>
        <time>2021-04-11 10:00:27</time>
      </trkpt>
      <trkpt lat="41.51265" lon="1.9464">
        <ele>267.4</ele>
        <time>2021-04-11 10:00:28</time>
      </trkpt>
      <trkpt lat="41.51268" lon="1.94645">
        <ele>267.8</ele>
        <time>2021-04-11 10:00:29</time>
      </trkpt>
      <trkpt lat="41.51271" lon="1.94649">
        <ele>268</ele>
        <time>2021-04-11 10:00:30</time>
      </trkpt>
      <trkpt lat="41.51273" lon="1.94653">
        <ele>268.4</ele>
        <time>2021-04-11 10:00:31</time>
      </trkpt>
      <trkpt lat="41.51276" lon="1.94657">
        <ele>268.8</ele>
        <time>2021-04-11 10:00:32</time>
      </trkpt>
      <trkpt lat="41.51279" lon="1.9466">
        <ele>269</ele>
        <time>2021-04-11 10:00:33</time>
      </trkpt>
      <trkpt lat="41.51283" lon="1.94664">
        <ele>269.2</ele>
        <time>2021-04-11 10:00:34</time>
      </trkpt>
      <trkpt lat="41.51286" lon="1.94667">
        <ele>269.4</ele>
        <time>2021-04-11 10:00:35</time>
      </trkpt>
      <trkpt lat="41.5129" lon="1.94669">
        <ele>269.8</ele>
        <time>2021-04-11 10:00:36</time>
      </trkpt>
      <trkpt lat="41.51293" lon="1.94672">
        <ele>270</ele>
        <time>2021-04-11 10:00:37</time>
      </trkpt>
      <trkpt lat="41.51297" lon="1.94675">
        <ele>270.2</ele>
        <time>2021-04-11 10:00:38</time>
      </trkpt>
      <trkpt lat="41.513" lon="1.94678">
        <ele>270.6</ele>
        <time>2021-04-11 10:00:39</time>
      </trkpt>
      <trkpt lat="41.51303" lon="1.94681">
        <ele>270.8</ele>
        <time>2021-04-11 10:00:40</time>
      </trkpt>
      <trkpt lat="41.51306" lon="1.94684">
        <ele>271</ele>
        <time>2021-04-11 10:00:41</time>
      </trkpt>
      <trkpt lat="41.5131" lon="1.94687">
        <ele>271.2</ele>
        <time>2021-04-11 10:00:42</time>
      </trkpt>
      <trkpt lat="41.51313" lon="1.9469">
        <ele>271.6</ele>
        <time>2021-04-11 10:00:43</time>
      </trkpt>
      <trkpt lat="41.51316" lon="1.94693">
        <ele>271.8</ele>
        <time>2021-04-11 10:00:44</time>
      </trkpt>
      <trkpt lat="41.5132" lon="1.94696">
        <ele>272.2</ele>
        <time>2021-04-11 10:00:45</time>
      </trkpt>
      <trkpt lat="41.51323" lon="1.94699">
        <ele>272.4</ele>
        <time>2021-04-11 10:00:46</time>
      </trkpt>
      <trkpt lat="41.51326" lon="1.94702">
        <ele>272.8</ele>
        <time>2021-04-11 10:00:47</time>
      </trkpt>
      <trkpt lat="41.5133" lon="1.94705">
        <ele>273</ele>
        <time>2021-04-11 10:00:48</time>
      </trkpt>
      <trkpt lat="41.51333" lon="1.94708">
        <ele>273.4</ele>
        <time>2021-04-11 10:00:49</time>
      </trkpt>
      <trkpt lat="41.51337" lon="1.94711">
        <ele>273.6</ele>
        <time>2021-04-11 10:00:50</time>
      </trkpt>
      <trkpt lat="41.5134" lon="1.94714">
        <ele>274</ele>
        <time>2021-04-11 10:00:51</time>
      </trkpt>
      <trkpt lat="41.51343" lon="1.94717">
        <ele>274.2</ele>
        <time>2021-04-11 10:00:52</time>
      </trkpt>
      <trkpt lat="41.51346" lon="1.94719">
        <ele>274.6</ele>
        <time>2021-04-11 10:00:53</time>
      </trkpt>
      <trkpt lat="41.5135" lon="1.94723">
        <ele>275</ele>
        <time>2021-04-11 10:00:54</time>
      </trkpt>
      <trkpt lat="41.51353" lon="1.94726">
        <ele>275.2</ele>
        <time>2021-04-11 10:00:55</time>
      </trkpt>
      <trkpt lat="41.51357" lon="1.94728">
        <ele>275.6</ele>
        <time>2021-04-11 10:00:56</time>
      </trkpt>
      <trkpt lat="41.5136" lon="1.94731">
        <ele>276</ele>
        <time>2021-04-11 10:00:57</time>
      </trkpt>
      <trkpt lat="41.51363" lon="1.94734">
        <ele>276.2</ele>
        <time>2021-04-11 10:00:58</time>
      </trkpt>
      <trkpt lat="41.51366" lon="1.94737">
        <ele>276.6</ele>
        <time>2021-04-11 10:00:59</time>
      </trkpt>
      <trkpt lat="41.51368" lon="1.94741">
        <ele>276.8</ele>
        <time>2021-04-11 10:01:00</time>
      </trkpt>
      <trkpt lat="41.5137" lon="1.94746">
        <ele>277.2</ele>
        <time>2021-04-11 10:01:01</time>
      </trkpt>
      <trkpt lat="41.51372" lon="1.94752">
        <ele>277.4</ele>
        <time>2021-04-11 10:01:02</time>
      </trkpt>
      <trkpt lat="41.51373" lon="1.94756">
        <ele>277.8</ele>
        <time>2021-04-11 10:01:03</time>
      </trkpt>
      <trkpt lat="41.51374" lon="1.94762">
        <ele>278.2</ele>
        <time>2021-04-11 10:01:04</time>
      </trkpt>
      <trkpt lat="41.51375" lon="1.94768">
        <ele>278.4</ele>
        <time>2021-04-11 10:01:05</time>
      </trkpt>
      <trkpt lat="41.51376" lon="1.94773">
        <ele>278.8</ele>
        <time>2021-04-11 10:01:06</time>
      </trkpt>
      <trkpt lat="41.51378" lon="1.94778">
        <ele>279</ele>
        <time>2021-04-11 10:01:07</time>
      </trkpt>
      <trkpt lat="41.51379" lon="1.94783">
        <ele>279.4</ele>
        <time>2021-04-11 10:01:08</time>
      </trkpt>
      <trkpt lat="41.51382" lon="1.94788">
        <ele>279.6</ele>
        <time>2021-04-11 10:01:09</time>
      </trkpt>
      <trkpt lat="41.51385" lon="1.94791">
        <ele>280</ele>
        <time>2021-04-11 10:01:10</time>
      </trkpt>
      <trkpt lat="41.51389" lon="1.94794">
        <ele>280.2</ele>
        <time>2021-04-11 10:01:11</time>
      </trkpt>
      <trkpt lat="41.51392" lon="1.94797">
        <ele>280.4</ele>
        <time>2021-04-11 10:01:12</time>
      </trkpt>
      <trkpt lat="41.51396" lon="1.94798">
        <ele>280.8</ele>
        <time>2021-04-11 10:01:13</time>
      </trkpt>
      <trkpt lat="41.514" lon="1.948">
        <ele>281</ele>
        <time>2021-04-11 10:01:14</time>
      </trkpt>
      <trkpt lat="41.51404" lon="1.94802">
        <ele>281.2</ele>
        <time>2021-04-11 10:01:15</time>
      </trkpt>
      <trkpt lat="41.51408" lon="1.94804">
        <ele>281.4</ele>
        <time>2021-04-11 10:01:16</time>
      </trkpt>
      <trkpt lat="41.51412" lon="1.94807">
        <ele>281.6</ele>
        <time>2021-04-11 10:01:17</time>
      </trkpt>
      <trkpt lat="41.51416" lon="1.94809">
        <ele>281.8</ele>
        <time>2021-04-11 10:01:18</time>
      </trkpt>
      <trkpt lat="41.5142" lon="1.94812">
        <ele>282</ele>
        <time>2021-04-11 10:01:19</time>
      </trkpt>
      <trkpt lat="41.51423" lon="1.94815">
        <ele>282.4</ele>
        <time>2021-04-11 10:01:20</time>
      </trkpt>
      <trkpt lat="41.51426" lon="1.94819">
        <ele>282.6</ele>
        <time>2021-04-11 10:01:21</time>
      </trkpt>
      <trkpt lat="41.51429" lon="1.94823">
        <ele>282.8</ele>
        <time>2021-04-11 10:01:22</time>
      </trkpt>
      <trkpt lat="41.51432" lon="1.94827">
        <ele>283.2</ele>
        <time>2021-04-11 10:01:23</time>
      </trkpt>
      <trkpt lat="41.51435" lon="1.94831">
        <ele>283.4</ele>
        <time>2021-04-11 10:01:24</time>
      </trkpt>
      <trkpt lat="41.51437" lon="1.94835">
        <ele>283.6</ele>
        <time>2021-04-11 10:01:25</time>
      </trkpt>
      <trkpt lat="41.5144" lon="1.94839">
        <ele>284</ele>
        <time>2021-04-11 10:01:26</time>
      </trkpt>
      <trkpt lat="41.51443" lon="1.94843">
        <ele>284.2</ele>
        <time>2021-04-11 10:01:27</time>
      </trkpt>
      <trkpt lat="41.51445" lon="1.94847">
        <ele>284.6</ele>
        <time>2021-04-11 10:01:28</time>
      </trkpt>
      <trkpt lat="41.51448" lon="1.94851">
        <ele>285</ele>
        <time>2021-04-11 10:01:29</time>
      </trkpt>
      <trkpt lat="41.51451" lon="1.94855">
        <ele>285.2</ele>
        <time>2021-04-11 10:01:30</time>
      </trkpt>
      <trkpt lat="41.51454" lon="1.94858">
        <ele>285.6</ele>
        <time>2021-04-11 10:01:31</time>
      </trkpt>
      <trkpt lat="41.51457" lon="1.94862">
        <ele>285.8</ele>
        <time>2021-04-11 10:01:32</time>
      </trkpt>
      <trkpt lat="41.5146" lon="1.94865">
        <ele>286.2</ele>
        <time>2021-04-11 10:01:33</time>
      </trkpt>
      <trkpt lat="41.51463" lon="1.94868">
        <ele>286.6</ele>
        <time>2021-04-11 10:01:34</time>
      </trkpt>
      <trkpt lat="41.51467" lon="1.9487">
        <ele>286.8</ele>
        <time>2021-04-11 10:01:35</time>
      </trkpt>
      <trkpt lat="41.5147" lon="1.94873">
        <ele>287.2</ele>
        <time>2021-04-11 10:01:36</time>
      </trkpt>
      <trkpt lat="41.51474" lon="1.94875">
        <ele>287.4</ele>
        <time>2021-04-11 10:01:37</time>
      </trkpt>
      <trkpt lat="41.51478" lon="1.94876">
        <ele>287.8</ele>
        <time>2021-04-11 10:01:38</time>
      </trkpt>
      <trkpt lat="41.51482" lon="1.94878">
        <ele>288</ele>
        <time>2021-04-11 10:01:39</time>
      </trkpt>
      <trkpt lat="41.51486" lon="1.94879">
        <ele>288.4</ele>
        <time>2021-04-11 10:01:40</time>
      </trkpt>
      <trkpt lat="41.5149" lon="1.9488">
        <ele>288.6</ele>
        <time>2021-04-11 10:01:41</time>
      </trkpt>
      <trkpt lat="41.51494" lon="1.94881">
        <ele>288.8</ele>
        <time>2021-04-11 10:01:42</time>
      </trkpt>
      <trkpt lat="41.51498" lon="1.94881">
        <ele>289.2</ele>
        <time>2021-04-11 10:01:43</time>
      </trkpt>
      <trkpt lat="41.51503" lon="1.94882">
        <ele>289.4</ele>
        <time>2021-04-11 10:01:44</time>
      </trkpt>
      <trkpt lat="41.51507" lon="1.94882">
        <ele>289.8</ele>
        <time>2021-04-11 10:01:45</time>
      </trkpt>
      <trkpt lat="41.51511" lon="1.94882">
        <ele>290</ele>
        <time>2021-04-11 10:01:46</time>
      </trkpt>
      <trkpt lat="41.51515" lon="1.94882">
        <ele>290.2</ele>
        <time>2021-04-11 10:01:47</time>
      </trkpt>
      <trkpt lat="41.51519" lon="1.94882">
        <ele>290.6</ele>
        <time>2021-04-11 10:01:48</time>
      </trkpt>
      <trkpt lat="41.51524" lon="1.94883">
        <ele>290.8</ele>
        <time>2021-04-11 10:01:49</time>
      </trkpt>
      <trkpt lat="41.51527" lon="1.94883">
        <ele>291.2</ele>
        <time>2021-04-11 10:01:50</time>
      </trkpt>
      <trkpt lat="41.51532" lon="1.94884">
        <ele>291.4</ele>
        <time>2021-04-11 10:01:51</time>
      </trkpt>
      <trkpt lat="41.51536" lon="1.94885">
        <ele>291.8</ele>
        <time>2021-04-11 10:01:52</time>
      </trkpt>
      <trkpt lat="41.5154" lon="1.94887">
        <ele>292</ele>
        <time>2021-04-11 10:01:53</time>
      </trkpt>
      <trkpt lat="41.51544" lon="1.9489">
        <ele>292.4</ele>
        <time>2021-04-11 10:01:54</time>
      </trkpt>
      <trkpt lat="41.51546" lon="1.94894">
        <ele>292.6</ele>
        <time>2021-04-11 10:01:55</time>
      </trkpt>
      <trkpt lat="41.51548" lon="1.94899">
        <ele>293</ele>
        <time>2021-04-11 10:01:56</time>
      </trkpt>
      <trkpt lat="41.5155" lon="1.94904">
        <ele>293.4</ele>
        <time>2021-04-11 10:01:57</time>
      </trkpt>
      <trkpt lat="41.51551" lon="1.94909">
        <ele>293.6</ele>
        <time>2021-04-11 10:01:58</time>
      </trkpt>
      <trkpt lat="41.51553" lon="1.94915">
        <ele>294</ele>
        <time>2021-04-11 10:01:59</time>
      </trkpt>
      <trkpt lat="41.51554" lon="1.94921">
        <ele>294.4</ele>
        <time>2021-04-11 10:02:00</time>
      </trkpt>
      <trkpt lat="41.51555" lon="1.94926">
        <ele>294.6</ele>
        <time>2021-04-11 10:02:01</time>
      </trkpt>
      <trkpt lat="41.51556" lon="1.94932">
        <ele>295</ele>
        <time>2021-04-11 10:02:02</time>
      </trkpt>
      <trkpt lat="41.51558" lon="1.94937">
        <ele>295.4</ele>
        <time>2021-04-11 10:02:03</time>
      </trkpt>
      <trkpt lat="41.51558" lon="1.94943">
        <ele>295.8</ele>
        <time>2021-04-11 10:02:04</time>
      </trkpt>
      <trkpt lat="41.51556" lon="1.94948">
        <ele>296</ele>
        <time>2021-04-11 10:02:05</time>
      </trkpt>
      <trkpt lat="41.51553" lon="1.94951">
        <ele>296.2</ele>
        <time>2021-04-11 10:02:06</time>
      </trkpt>
      <trkpt lat="41.51549" lon="1.94953">
        <ele>296.4</ele>
        <time>2021-04-11 10:02:07</time>
      </trkpt>
      <trkpt lat="41.51545" lon="1.94952">
        <ele>296.8</ele>
        <time>2021-04-11 10:02:08</time>
      </trkpt>
      <trkpt lat="41.51542" lon="1.94949">
        <ele>297.2</ele>
        <time>2021-04-11 10:02:09</time>
      </trkpt>
      <trkpt lat="41.51541" lon="1.94943">
        <ele>297.4</ele>
        <time>2021-04-11 10:02:10</time>
      </trkpt>
      <trkpt lat="41.5154" lon="1.94937">
        <ele>297.6</ele>
        <time>2021-04-11 10:02:11</time>
      </trkpt>
      <trkpt lat="41.51539" lon="1.9493">
        <ele>297.8</ele>
        <time>2021-04-11 10:02:12</time>
      </trkpt>
      <trkpt lat="41.51538" lon="1.94924">
        <ele>298</ele>
        <time>2021-04-11 10:02:13</time>
      </trkpt>
      <trkpt lat="41.51535" lon="1.94919">
        <ele>298.2</ele>
        <time>2021-04-11 10:02:14</time>
      </trkpt>
      <trkpt lat="41.51532" lon="1.94914">
        <ele>298.4</ele>
        <time>2021-04-11 10:02:15</time>
      </trkpt>
      <trkpt lat="41.51529" lon="1.94911">
        <ele>298.8</ele>
        <time>2021-04-11 10:02:16</time>
      </trkpt>
      <trkpt lat="41.51525" lon="1.94908">
        <ele>299</ele>
        <time>2021-04-11 10:02:17</time>
      </trkpt>
      <trkpt lat="41.5152" lon="1.94907">
        <ele>299.2</ele>
        <time>2021-04-11 10:02:18</time>
      </trkpt>
      <trkpt lat="41.51516" lon="1.94907">
        <ele>299.4</ele>
        <time>2021-04-11 10:02:19</time>
      </trkpt>
      <trkpt lat="41.51511" lon="1.94908">
        <ele>299.8</ele>
        <time>2021-04-11 10:02:20</time>
      </trkpt>
      <trkpt lat="41.51507" lon="1.94908">
        <ele>300</ele>
        <time>2021-04-11 10:02:21</time>
      </trkpt>
      <trkpt lat="41.51503" lon="1.9491">
        <ele>300.2</ele>
        <time>2021-04-11 10:02:22</time>
      </trkpt>
      <trkpt lat="41.51499" lon="1.94912">
        <ele>300.6</ele>
        <time>2021-04-11 10:02:23</time>
      </trkpt>
      <trkpt lat="41.51496" lon="1.94915">
        <ele>300.8</ele>
        <time>2021-04-11 10:02:24</time>
      </trkpt>
      <trkpt lat="41.51492" lon="1.94918">
        <ele>301.2</ele>
        <time>2021-04-11 10:02:25</time>
      </trkpt>
      <trkpt lat="41.51489" lon="1.94921">
        <ele>301.4</ele>
        <time>2021-04-11 10:02:26</time>
      </trkpt>
      <trkpt lat="41.51485" lon="1.94924">
        <ele>301.8</ele>
        <time>2021-04-11 10:02:27</time>
      </trkpt>
      <trkpt lat="41.51482" lon="1.94928">
        <ele>302</ele>
        <time>2021-04-11 10:02:28</time>
      </trkpt>
      <trkpt lat="41.51478" lon="1.94932">
        <ele>302.2</ele>
        <time>2021-04-11 10:02:29</time>
      </trkpt>
      <trkpt lat="41.51475" lon="1.94936">
        <ele>302.6</ele>
        <time>2021-04-11 10:02:30</time>
      </trkpt>
      <trkpt lat="41.51471" lon="1.9494">
        <ele>302.8</ele>
        <time>2021-04-11 10:02:31</time>
      </trkpt>
      <trkpt lat="41.51469" lon="1.94943">
        <ele>303.2</ele>
        <time>2021-04-11 10:02:32</time>
      </trkpt>
      <trkpt lat="41.51465" lon="1.94948">
        <ele>303.4</ele>
        <time>2021-04-11 10:02:33</time>
      </trkpt>
      <trkpt lat="41.51463" lon="1.94953">
        <ele>303.8</ele>
        <time>2021-04-11 10:02:34</time>
      </trkpt>
      <trkpt lat="41.51461" lon="1.94958">
        <ele>304</ele>
        <time>2021-04-11 10:02:35</time>
      </trkpt>
      <trkpt lat="41.5146" lon="1.94964">
        <ele>304.2</ele>
        <time>2021-04-11 10:02:36</time>
      </trkpt>
      <trkpt lat="41.5146" lon="1.9497">
        <ele>304.6</ele>
        <time>2021-04-11 10:02:37</time>
      </trkpt>
      <trkpt lat="41.51461" lon="1.94976">
        <ele>304.8</ele>
        <time>2021-04-11 10:02:38</time>
      </trkpt>
      <trkpt lat="41.51464" lon="1.94981">
        <ele>305</ele>
        <time>2021-04-11 10:02:39</time>
      </trkpt>
      <trkpt lat="41.51466" lon="1.94987">
        <ele>305.4</ele>
        <time>2021-04-11 10:02:40</time>
      </trkpt>
      <trkpt lat="41.51469" lon="1.94992">
        <ele>305.6</ele>
        <time>2021-04-11 10:02:41</time>
      </trkpt>
      <trkpt lat="41.51471" lon="1.94997">
        <ele>305.8</ele>
        <time>2021-04-11 10:02:42</time>
      </trkpt>
      <trkpt lat="41.51474" lon="1.95002">
        <ele>306.2</ele>
        <time>2021-04-11 10:02:43</time>
      </trkpt>
      <trkpt lat="41.51477" lon="1.95007">
        <ele>306.4</ele>
        <time>2021-04-11 10:02:44</time>
      </trkpt>
      <trkpt lat="41.5148" lon="1.95012">
        <ele>306.8</ele>
        <time>2021-04-11 10:02:45</time>
      </trkpt>
      <trkpt lat="41.51482" lon="1.95017">
        <ele>307</ele>
        <time>2021-04-11 10:02:46</time>
      </trkpt>
      <trkpt lat="41.51485" lon="1.95022">
        <ele>307.4</ele>
        <time>2021-04-11 10:02:47</time>
      </trkpt>
      <trkpt lat="41.51488" lon="1.95028">
        <ele>307.6</ele>
        <time>2021-04-11 10:02:48</time>
      </trkpt>
      <trkpt lat="41.51491" lon="1.95033">
        <ele>307.8</ele>
        <time>2021-04-11 10:02:49</time>
      </trkpt>
      <trkpt lat="41.51493" lon="1.95038">
        <ele>308.2</ele>
        <time>2021-04-11 10:02:50</time>
      </trkpt>
      <trkpt lat="41.51496" lon="1.95043">
        <ele>308.4</ele>
        <time>2021-04-11 10:02:51</time>
      </trkpt>
      <trkpt lat="41.51499" lon="1.95049">
        <ele>308.8</ele>
        <time>2021-04-11 10:02:52</time>
      </trkpt>
      <trkpt lat="41.51501" lon="1.95054">
        <ele>309</ele>
        <time>2021-04-11 10:02:53</time>
      </trkpt>
      <trkpt lat="41.51503" lon="1.95061">
        <ele>309.4</ele>
        <time>2021-04-11 10:02:54</time>
      </trkpt>
      <trkpt lat="41.51505" lon="1.95067">
        <ele>309.6</ele>
        <time>2021-04-11 10:02:55</time>
      </trkpt>
      <trkpt lat="41.51506" lon="1.95072">
        <ele>310</ele>
        <time>2021-04-11 10:02:56</time>
      </trkpt>
      <trkpt lat="41.51506" lon="1.95079">
        <ele>310.2</ele>
        <time>2021-04-11 10:02:57</time>
      </trkpt>
      <trkpt lat="41.51507" lon="1.95085">
        <ele>310.4</ele>
        <time>2021-04-11 10:02:58</time>
      </trkpt>
      <trkpt lat="41.51508" lon="1.95091">
        <ele>310.8</ele>
        <time>2021-04-11 10:02:59</time>
      </trkpt>
      <trkpt lat="41.51508" lon="1.95098">
        <ele>311</ele>
        <time>2021-04-11 10:03:00</time>
      </trkpt>
      <trkpt lat="41.51508" lon="1.95104">
        <ele>311.2</ele>
        <time>2021-04-11 10:03:01</time>
      </trkpt>
      <trkpt lat="41.51508" lon="1.9511">
        <ele>311.6</ele>
        <time>2021-04-11 10:03:02</time>
      </trkpt>
      <trkpt lat="41.51508" lon="1.95116">
        <ele>311.8</ele>
        <time>2021-04-11 10:03:03</time>
      </trkpt>
      <trkpt lat="41.51508" lon="1.95123">
        <ele>312.2</ele>
        <time>2021-04-11 10:03:04</time>
      </trkpt>
      <trkpt lat="41.51509" lon="1.95129">
        <ele>312.4</ele>
        <time>2021-04-11 10:03:05</time>
      </trkpt>
      <trkpt lat="41.5151" lon="1.95135">
        <ele>312.8</ele>
        <time>2021-04-11 10:03:06</time>
      </trkpt>
      <trkpt lat="41.51512" lon="1.9514">
        <ele>313.2</ele>
        <time>2021-04-11 10:03:07</time>
      </trkpt>
      <trkpt lat="41.51515" lon="1.95145">
        <ele>313.4</ele>
        <time>2021-04-11 10:03:08</time>
      </trkpt>
      <trkpt lat="41.51519" lon="1.95148">
        <ele>313.8</ele>
        <time>2021-04-11 10:03:09</time>
      </trkpt>
      <trkpt lat="41.51523" lon="1.95151">
        <ele>314</ele>
        <time>2021-04-11 10:03:10</time>
      </trkpt>
      <trkpt lat="41.51527" lon="1.95153">
        <ele>314.4</ele>
        <time>2021-04-11 10:03:11</time>
      </trkpt>
      <trkpt lat="41.51531" lon="1.95155">
        <ele>314.6</ele>
        <time>2021-04-11 10:03:12</time>
      </trkpt>
      <trkpt lat="41.51535" lon="1.95156">
        <ele>315</ele>
        <time>2021-04-11 10:03:13</time>
      </trkpt>
      <trkpt lat="41.51538" lon="1.95157">
        <ele>315.2</ele>
        <time>2021-04-11 10:03:14</time>
      </trkpt>
      <trkpt lat="41.51542" lon="1.95159">
        <ele>315.6</ele>
        <time>2021-04-11 10:03:15</time>
      </trkpt>
      <trkpt lat="41.51545" lon="1.9516">
        <ele>315.8</ele>
        <time>2021-04-11 10:03:16</time>
      </trkpt>
      <trkpt lat="41.51548" lon="1.95161">
        <ele>316</ele>
        <time>2021-04-11 10:03:17</time>
      </trkpt>
      <trkpt lat="41.51552" lon="1.95162">
        <ele>316.4</ele>
        <time>2021-04-11 10:03:18</time>
      </trkpt>
      <trkpt lat="41.51555" lon="1.95163">
        <ele>316.6</ele>
        <time>2021-04-11 10:03:19</time>
      </trkpt>
      <trkpt lat="41.51559" lon="1.95164">
        <ele>316.8</ele>
        <time>2021-04-11 10:03:20</time>
      </trkpt>
      <trkpt lat="41.51562" lon="1.95164">
        <ele>317</ele>
        <time>2021-04-11 10:03:21</time>
      </trkpt>
      <trkpt lat="41.51566" lon="1.95165">
        <ele>317.2</ele>
        <time>2021-04-11 10:03:22</time>
      </trkpt>
      <trkpt lat="41.51569" lon="1.95166">
        <ele>317.4</ele>
        <time>2021-04-11 10:03:23</time>
      </trkpt>
      <trkpt lat="41.51573" lon="1.95167">
        <ele>317.6</ele>
        <time>2021-04-11 10:03:24</time>
      </trkpt>
      <trkpt lat="41.51576" lon="1.95168">
        <ele>318</ele>
        <time>2021-04-11 10:03:25</time>
      </trkpt>
      <trkpt lat="41.5158" lon="1.95169">
        <ele>318.2</ele>
        <time>2021-04-11 10:03:26</time>
      </trkpt>
      <trkpt lat="41.51583" lon="1.9517">
        <ele>318.4</ele>
        <time>2021-04-11 10:03:27</time>
      </trkpt>
      <trkpt lat="41.51586" lon="1.95171">
        <ele>318.6</ele>
        <time>2021-04-11 10:03:28</time>
      </trkpt>
      <trkpt lat="41.5159" lon="1.95172">
        <ele>319</ele>
        <time>2021-04-11 10:03:29</time>
      </trkpt>
      <trkpt lat="41.51593" lon="1.95172">
        <ele>319.2</ele>
        <time>2021-04-11 10:03:30</time>
      </trkpt>
      <trkpt lat="41.51597" lon="1.95173">
        <ele>319.4</ele>
        <time>2021-04-11 10:03:31</time>
      </trkpt>
      <trkpt lat="41.516" lon="1.95174">
        <ele>319.6</ele>
        <time>2021-04-11 10:03:32</time>
      </trkpt>
      <trkpt lat="41.51604" lon="1.95175">
        <ele>319.8</ele>
        <time>2021-04-11 10:03:33</time>
      </trkpt>
      <trkpt lat="41.51607" lon="1.95176">
        <ele>320.2</ele>
        <time>2021-04-11 10:03:34</time>
      </trkpt>
      <trkpt lat="41.51611" lon="1.95177">
        <ele>320.4</ele>
        <time>2021-04-11 10:03:35</time>
      </trkpt>
      <trkpt lat="41.51614" lon="1.95177">
        <ele>320.6</ele>
        <time>2021-04-11 10:03:36</time>
      </trkpt>
      <trkpt lat="41.51617" lon="1.95178">
        <ele>320.8</ele>
        <time>2021-04-11 10:03:37</time>
      </trkpt>
      <trkpt lat="41.51621" lon="1.95179">
        <ele>321</ele>
        <time>2021-04-11 10:03:38</time>
      </trkpt>
      <trkpt lat="41.51625" lon="1.9518">
        <ele>321.4</ele>
        <time>2021-04-11 10:03:39</time>
      </trkpt>
      <trkpt lat="41.51628" lon="1.95181">
        <ele>321.6</ele>
        <time>2021-04-11 10:03:40</time>
      </trkpt>
      <trkpt lat="41.51632" lon="1.95182">
        <ele>321.8</ele>
        <time>2021-04-11 10:03:41</time>
      </trkpt>
      <trkpt lat="41.51635" lon="1.95183">
        <ele>322</ele>
        <time>2021-04-11 10:03:42</time>
      </trkpt>
      <trkpt lat="41.51638" lon="1.95184">
        <ele>322.4</ele>
        <time>2021-04-11 10:03:43</time>
      </trkpt>
      <trkpt lat="41.51642" lon="1.95185">
        <ele>322.6</ele>
        <time>2021-04-11 10:03:44</time>
      </trkpt>
      <trkpt lat="41.51645" lon="1.95186">
        <ele>322.8</ele>
        <time>2021-04-11 10:03:45</time>
      </trkpt>
      <trkpt lat="41.51649" lon="1.95187">
        <ele>323.2</ele>
        <time>2021-04-11 10:03:46</time>
      </trkpt>
      <trkpt lat="41.51652" lon="1.95188">
        <ele>323.4</ele>
        <time>2021-04-11 10:03:47</time>
      </trkpt>
      <trkpt lat="41.51656" lon="1.95189">
        <ele>323.6</ele>
        <time>2021-04-11 10:03:48</time>
      </trkpt>
      <trkpt lat="41.51659" lon="1.95191">
        <ele>323.8</ele>
        <time>2021-04-11 10:03:49</time>
      </trkpt>
      <trkpt lat="41.51663" lon="1.95192">
        <ele>324.2</ele>
        <time>2021-04-11 10:03:50</time>
      </trkpt>
      <trkpt lat="41.51666" lon="1.95194">
        <ele>324.4</ele>
        <time>2021-04-11 10:03:51</time>
      </trkpt>
      <trkpt lat="41.5167" lon="1.95195">
        <ele>324.6</ele>
        <time>2021-04-11 10:03:52</time>
      </trkpt>
      <trkpt lat="41.51673" lon="1.95196">
        <ele>324.8</ele>
        <time>2021-04-11 10:03:53</time>
      </trkpt>
      <trkpt lat="41.51677" lon="1.95197">
        <ele>325.2</ele>
        <time>2021-04-11 10:03:54</time>
      </trkpt>
      <trkpt lat="41.5168" lon="1.95198">
        <ele>325.4</ele>
        <time>2021-04-11 10:03:55</time>
      </trkpt>
      <trkpt lat="41.51683" lon="1.952">
        <ele>325.6</ele>
        <time>2021-04-11 10:03:56</time>
      </trkpt>
      <trkpt lat="41.51687" lon="1.95201">
        <ele>325.8</ele>
        <time>2021-04-11 10:03:57</time>
      </trkpt>
      <trkpt lat="41.51691" lon="1.95202">
        <ele>326</ele>
        <time>2021-04-11 10:03:58</time>
      </trkpt>
      <trkpt lat="41.51694" lon="1.95203">
        <ele>326.2</ele>
        <time>2021-04-11 10:03:59</time>
      </trkpt>
      <trkpt lat="41.51697" lon="1.95204">
        <ele>326.4</ele>
        <time>2021-04-11 10:04:00</time>
      </trkpt>
      <trkpt lat="41.51701" lon="1.95206">
        <ele>326.6</ele>
        <time>2021-04-11 10:04:01</time>
      </trkpt>
      <trkpt lat="41.51705" lon="1.95207">
        <ele>327</ele>
        <time>2021-04-11 10:04:02</time>
      </trkpt>
      <trkpt lat="41.51708" lon="1.95208">
        <ele>327.2</ele>
        <time>2021-04-11 10:04:03</time>
      </trkpt>
      <trkpt lat="41.51711" lon="1.95209">
        <ele>327.4</ele>
        <time>2021-04-11 10:04:04</time>
      </trkpt>
      <trkpt lat="41.51716" lon="1.95211">
        <ele>327.6</ele>
        <time>2021-04-11 10:04:05</time>
      </trkpt>
      <trkpt lat="41.51719" lon="1.95212">
        <ele>327.8</ele>
        <time>2021-04-11 10:04:06</time>
      </trkpt>
      <trkpt lat="41.51722" lon="1.95213">
        <ele>328</ele>
        <time>2021-04-11 10:04:07</time>
      </trkpt>
      <trkpt lat="41.51726" lon="1.95215">
        <ele>328</ele>
        <time>2021-04-11 10:04:08</time>
      </trkpt>
      <trkpt lat="41.5173" lon="1.95216">
        <ele>328.2</ele>
        <time>2021-04-11 10:04:09</time>
      </trkpt>
      <trkpt lat="41.51733" lon="1.95218">
        <ele>328.4</ele>
        <time>2021-04-11 10:04:10</time>
      </trkpt>
      <trkpt lat="41.51737" lon="1.95219">
        <ele>328.6</ele>
        <time>2021-04-11 10:04:11</time>
      </trkpt>
      <trkpt lat="41.5174" lon="1.9522">
        <ele>328.8</ele>
        <time>2021-04-11 10:04:12</time>
      </trkpt>
      <trkpt lat="41.51743" lon="1.95221">
        <ele>329</ele>
        <time>2021-04-11 10:04:13</time>
      </trkpt>
      <trkpt lat="41.51746" lon="1.95222">
        <ele>329.2</ele>
        <time>2021-04-11 10:04:14</time>
      </trkpt>
      <trkpt lat="41.51749" lon="1.95224">
        <ele>329.4</ele>
        <time>2021-04-11 10:04:15</time>
      </trkpt>
      <trkpt lat="41.5175" lon="1.95225">
        <ele>329.4</ele>
        <time>2021-04-11 10:04:16</time>
      </trkpt>
      <trkpt lat="41.51752" lon="1.95224">
        <ele>329.6</ele>
        <time>2021-04-11 10:04:17</time>
      </trkpt>
      <trkpt lat="41.51751" lon="1.95222">
        <ele>329.6</ele>
        <time>2021-04-11 10:04:18</time>
      </trkpt>
      <trkpt lat="41.51749" lon="1.9522">
        <ele>329.8</ele>
        <time>2021-04-11 10:04:19</time>
      </trkpt>
      <trkpt lat="41.51746" lon="1.95219">
        <ele>329.8</ele>
        <time>2021-04-11 10:04:20</time>
      </trkpt>
      <trkpt lat="41.51743" lon="1.95218">
        <ele>329.8</ele>
        <time>2021-04-11 10:04:21</time>
      </trkpt>
      <trkpt lat="41.51738" lon="1.95217">
        <ele>329.6</ele>
        <time>2021-04-11 10:04:22</time>
      </trkpt>
      <trkpt lat="41.51734" lon="1.95216">
        <ele>329.4</ele>
        <time>2021-04-11 10:04:23</time>
      </trkpt>
      <trkpt lat="41.51729" lon="1.95214">
        <ele>329.4</ele>
        <time>2021-04-11 10:04:24</time>
      </trkpt>
      <trkpt lat="41.51724" lon="1.95212">
        <ele>329.2</ele>
        <time>2021-04-11 10:04:25</time>
      </trkpt>
      <trkpt lat="41.51719" lon="1.9521">
        <ele>329</ele>
        <time>2021-04-11 10:04:26</time>
      </trkpt>
      <trkpt lat="41.51713" lon="1.95208">
        <ele>328.6</ele>
        <time>2021-04-11 10:04:27</time>
      </trkpt>
      <trkpt lat="41.51706" lon="1.95205">
        <ele>328.2</ele>
        <time>2021-04-11 10:04:28</time>
      </trkpt>
      <trkpt lat="41.517" lon="1.95202">
        <ele>327.8</ele>
        <time>2021-04-11 10:04:29</time>
      </trkpt>
      <trkpt lat="41.51692" lon="1.952">
        <ele>327.4</ele>
        <time>2021-04-11 10:04:30</time>
      </trkpt>
      <trkpt lat="41.51685" lon="1.95197">
        <ele>327</ele>
        <time>2021-04-11 10:04:31</time>
      </trkpt>
      <trkpt lat="41.51677" lon="1.95194">
        <ele>326.4</ele>
        <time>2021-04-11 10:04:32</time>
      </trkpt>
      <trkpt lat="41.51669" lon="1.95191">
        <ele>325.8</ele>
        <time>2021-04-11 10:04:33</time>
      </trkpt>
      <trkpt lat="41.51661" lon="1.95189">
        <ele>325.2</ele>
        <time>2021-04-11 10:04:34</time>
      </trkpt>
      <trkpt lat="41.51652" lon="1.95186">
        <ele>324.6</ele>
        <time>2021-04-11 10:04:35</time>
      </trkpt>
      <trkpt lat="41.51643" lon="1.95182">
        <ele>324</ele>
        <time>2021-04-11 10:04:36</time>
      </trkpt>
      <trkpt lat="41.51633" lon="1.95179">
        <ele>323.4</ele>
        <time>2021-04-11 10:04:37</time>
      </trkpt>
      <trkpt lat="41.51622" lon="1.95176">
        <ele>322.6</ele>
        <time>2021-04-11 10:04:38</time>
      </trkpt>
      <trkpt lat="41.51613" lon="1.95173">
        <ele>322</ele>
        <time>2021-04-11 10:04:39</time>
      </trkpt>
      <trkpt lat="41.51602" lon="1.9517">
        <ele>321.2</ele>
        <time>2021-04-11 10:04:40</time>
      </trkpt>
      <trkpt lat="41.51593" lon="1.95168">
        <ele>320.4</ele>
        <time>2021-04-11 10:04:41</time>
      </trkpt>
      <trkpt lat="41.51582" lon="1.95164">
        <ele>319.6</ele>
        <time>2021-04-11 10:04:42</time>
      </trkpt>
      <trkpt lat="41.51571" lon="1.95162">
        <ele>318.8</ele>
        <time>2021-04-11 10:04:43</time>
      </trkpt>
      <trkpt lat="41.51559" lon="1.95159">
        <ele>318</ele>
        <time>2021-04-11 10:04:44</time>
      </trkpt>
      <trkpt lat="41.51548" lon="1.95156">
        <ele>317.2</ele>
        <time>2021-04-11 10:04:45</time>
      </trkpt>
      <trkpt lat="41.51537" lon="1.95153">
        <ele>316.6</ele>
        <time>2021-04-11 10:04:46</time>
      </trkpt>
      <trkpt lat="41.51527" lon="1.95148">
        <ele>316</ele>
        <time>2021-04-11 10:04:47</time>
      </trkpt>
      <trkpt lat="41.51518" lon="1.95143">
        <ele>315.4</ele>
        <time>2021-04-11 10:04:48</time>
      </trkpt>
      <trkpt lat="41.5151" lon="1.95136">
        <ele>314.8</ele>
        <time>2021-04-11 10:04:49</time>
      </trkpt>
      <trkpt lat="41.51507" lon="1.95126">
        <ele>314.2</ele>
        <time>2021-04-11 10:04:50</time>
      </trkpt>
      <trkpt lat="41.51506" lon="1.95115">
        <ele>313.6</ele>
        <time>2021-04-11 10:04:51</time>
      </trkpt>
      <trkpt lat="41.51506" lon="1.95103">
        <ele>313</ele>
        <time>2021-04-11 10:04:52</time>
      </trkpt>
      <trkpt lat="41.51506" lon="1.95087">
        <ele>312.4</ele>
        <time>2021-04-11 10:04:53</time>
      </trkpt>
      <trkpt lat="41.51505" lon="1.95074">
        <ele>311.8</ele>
        <time>2021-04-11 10:04:54</time>
      </trkpt>
      <trkpt lat="41.51503" lon="1.95061">
        <ele>311.2</ele>
        <time>2021-04-11 10:04:55</time>
      </trkpt>
      <trkpt lat="41.515" lon="1.95048">
        <ele>310.4</ele>
        <time>2021-04-11 10:04:56</time>
      </trkpt>
      <trkpt lat="41.51495" lon="1.95036">
        <ele>309.8</ele>
        <time>2021-04-11 10:04:57</time>
      </trkpt>
      <trkpt lat="41.51489" lon="1.95024">
        <ele>309</ele>
        <time>2021-04-11 10:04:58</time>
      </trkpt>
      <trkpt lat="41.51483" lon="1.95014">
        <ele>308.4</ele>
        <time>2021-04-11 10:04:59</time>
      </trkpt>
      <trkpt lat="41.51477" lon="1.95003">
        <ele>307.6</ele>
        <time>2021-04-11 10:05:00</time>
      </trkpt>
      <trkpt lat="41.51472" lon="1.94993">
        <ele>307</ele>
        <time>2021-04-11 10:05:01</time>
      </trkpt>
      <trkpt lat="41.51467" lon="1.94984">
        <ele>306.6</ele>
        <time>2021-04-11 10:05:02</time>
      </trkpt>
      <trkpt lat="41.51463" lon="1.94974">
        <ele>306.2</ele>
        <time>2021-04-11 10:05:03</time>
      </trkpt>
      <trkpt lat="41.51461" lon="1.94964">
        <ele>305.6</ele>
        <time>2021-04-11 10:05:04</time>
      </trkpt>
      <trkpt lat="41.51463" lon="1.94954">
        <ele>305.2</ele>
        <time>2021-04-11 10:05:05</time>
      </trkpt>
      <trkpt lat="41.51468" lon="1.94945">
        <ele>304.8</ele>
        <time>2021-04-11 10:05:06</time>
      </trkpt>
      <trkpt lat="41.51474" lon="1.94936">
        <ele>304</ele>
        <time>2021-04-11 10:05:07</time>
      </trkpt>
      <trkpt lat="41.51481" lon="1.94928">
        <ele>303.4</ele>
        <time>2021-04-11 10:05:08</time>
      </trkpt>
      <trkpt lat="41.51488" lon="1.9492">
        <ele>302.8</ele>
        <time>2021-04-11 10:05:09</time>
      </trkpt>
      <trkpt lat="41.51495" lon="1.94913">
        <ele>302.2</ele>
        <time>2021-04-11 10:05:10</time>
      </trkpt>
      <trkpt lat="41.51504" lon="1.94907">
        <ele>301.6</ele>
        <time>2021-04-11 10:05:11</time>
      </trkpt>
      <trkpt lat="41.51513" lon="1.94903">
        <ele>301</ele>
        <time>2021-04-11 10:05:12</time>
      </trkpt>
      <trkpt lat="41.51522" lon="1.94903">
        <ele>300.6</ele>
        <time>2021-04-11 10:05:13</time>
      </trkpt>
      <trkpt lat="41.5153" lon="1.94905">
        <ele>300</ele>
        <time>2021-04-11 10:05:14</time>
      </trkpt>
      <trkpt lat="41.51536" lon="1.94911">
        <ele>299.8</ele>
        <time>2021-04-11 10:05:15</time>
      </trkpt>
      <trkpt lat="41.51539" lon="1.94919">
        <ele>299.4</ele>
        <time>2021-04-11 10:05:16</time>
      </trkpt>
      <trkpt lat="41.5154" lon="1.94929">
        <ele>299.2</ele>
        <time>2021-04-11 10:05:17</time>
      </trkpt>
      <trkpt lat="41.51541" lon="1.94938">
        <ele>299</ele>
        <time>2021-04-11 10:05:18</time>
      </trkpt>
      <trkpt lat="41.51543" lon="1.94945">
        <ele>299</ele>
        <time>2021-04-11 10:05:19</time>
      </trkpt>
      <trkpt lat="41.51545" lon="1.94951">
        <ele>299.2</ele>
        <time>2021-04-11 10:05:20</time>
      </trkpt>
      <trkpt lat="41.51548" lon="1.94955">
        <ele>299</ele>
        <time>2021-04-11 10:05:21</time>
      </trkpt>
      <trkpt lat="41.51552" lon="1.94959">
        <ele>299</ele>
        <time>2021-04-11 10:05:22</time>
      </trkpt>
      <trkpt lat="41.51556" lon="1.94959">
        <ele>299</ele>
        <time>2021-04-11 10:05:23</time>
      </trkpt>
      <trkpt lat="41.51559" lon="1.94956">
        <ele>298.8</ele>
        <time>2021-04-11 10:05:24</time>
      </trkpt>
      <trkpt lat="41.51561" lon="1.9495">
        <ele>298.6</ele>
        <time>2021-04-11 10:05:25</time>
      </trkpt>
      <trkpt lat="41.51561" lon="1.94943">
        <ele>298.2</ele>
        <time>2021-04-11 10:05:26</time>
      </trkpt>
      <trkpt lat="41.5156" lon="1.94934">
        <ele>298</ele>
        <time>2021-04-11 10:05:27</time>
      </trkpt>
      <trkpt lat="41.51558" lon="1.94924">
        <ele>297.4</ele>
        <time>2021-04-11 10:05:28</time>
      </trkpt>
      <trkpt lat="41.51556" lon="1.94913">
        <ele>296.6</ele>
        <time>2021-04-11 10:05:29</time>
      </trkpt>
      <trkpt lat="41.51554" lon="1.94903">
        <ele>296</ele>
        <time>2021-04-11 10:05:30</time>
      </trkpt>
      <trkpt lat="41.5155" lon="1.94893">
        <ele>295.6</ele>
        <time>2021-04-11 10:05:31</time>
      </trkpt>
      <trkpt lat="41.51544" lon="1.94885">
        <ele>295</ele>
        <time>2021-04-11 10:05:32</time>
      </trkpt>
      <trkpt lat="41.51537" lon="1.94881">
        <ele>294.8</ele>
        <time>2021-04-11 10:05:33</time>
      </trkpt>
      <trkpt lat="41.51531" lon="1.94878">
        <ele>294.4</ele>
        <time>2021-04-11 10:05:34</time>
      </trkpt>
      <trkpt lat="41.51526" lon="1.94877">
        <ele>294</ele>
        <time>2021-04-11 10:05:35</time>
      </trkpt>
      <trkpt lat="41.51522" lon="1.94877">
        <ele>293.8</ele>
        <time>2021-04-11 10:05:36</time>
      </trkpt>
      <trkpt lat="41.51519" lon="1.94877">
        <ele>293.6</ele>
        <time>2021-04-11 10:05:37</time>
      </trkpt>
      <trkpt lat="41.51517" lon="1.94878">
        <ele>293.2</ele>
        <time>2021-04-11 10:05:38</time>
      </trkpt>
      <trkpt lat="41.51516" lon="1.94879">
        <ele>293</ele>
        <time>2021-04-11 10:05:39</time>
      </trkpt>
      <trkpt lat="41.51516" lon="1.94881">
        <ele>293</ele>
        <time>2021-04-11 10:05:40</time>
      </trkpt>
      <trkpt lat="41.51517" lon="1.94882">
        <ele>292.8</ele>
        <time>2021-04-11 10:05:41</time>
      </trkpt>
      <trkpt lat="41.51519" lon="1.94882">
        <ele>292.8</ele>
        <time>2021-04-11 10:05:42</time>
      </trkpt>
      <trkpt lat="41.51522" lon="1.94882">
        <ele>292.8</ele>
        <time>2021-04-11 10:05:43</time>
      </trkpt>
      <trkpt lat="41.51525" lon="1.94882">
        <ele>292.8</ele>
        <time>2021-04-11 10:05:44</time>
      </trkpt>
      <trkpt lat="41.51528" lon="1.94881">
        <ele>293</ele>
        <time>2021-04-11 10:05:45</time>
      </trkpt>
      <trkpt lat="41.51532" lon="1.94881">
        <ele>293.2</ele>
        <time>2021-04-11 10:05:46</time>
      </trkpt>
      <trkpt lat="41.51536" lon="1.94881">
        <ele>293.2</ele>
        <time>2021-04-11 10:05:47</time>
      </trkpt>
      <trkpt lat="41.5154" lon="1.94882">
        <ele>293.4</ele>
        <time>2021-04-11 10:05:48</time>
      </trkpt>
      <trkpt lat="41.51543" lon="1.94884">
        <ele>293.6</ele>
        <time>2021-04-11 10:05:49</time>
      </trkpt>
      <trkpt lat="41.51546" lon="1.94887">
        <ele>293.8</ele>
        <time>2021-04-11 10:05:50</time>
      </trkpt>
      <trkpt lat="41.51549" lon="1.94892">
        <ele>294</ele>
        <time>2021-04-11 10:05:51</time>
      </trkpt>
      <trkpt lat="41.51551" lon="1.94896">
        <ele>294.2</ele>
        <time>2021-04-11 10:05:52</time>
      </trkpt>
      <trkpt lat="41.51553" lon="1.94901">
        <ele>294.4</ele>
        <time>2021-04-11 10:05:53</time>
      </trkpt>
      <trkpt lat="41.51554" lon="1.94906">
        <ele>294.8</ele>
        <time>2021-04-11 10:05:54</time>
      </trkpt>
      <trkpt lat="41.51555" lon="1.94911">
        <ele>295</ele>
        <time>2021-04-11 10:05:55</time>
      </trkpt>
      <trkpt lat="41.51556" lon="1.94916">
        <ele>295.4</ele>
        <time>2021-04-11 10:05:56</time>
      </trkpt>
      <trkpt lat="41.51556" lon="1.9492">
        <ele>295.8</ele>
        <time>2021-04-11 10:05:57</time>
      </trkpt>
      <trkpt lat="41.51557" lon="1.94924">
        <ele>296</ele>
        <time>2021-04-11 10:05:58</time>
      </trkpt>
      <trkpt lat="41.51558" lon="1.94928">
        <ele>296.4</ele>
        <time>2021-04-11 10:05:59</time>
      </trkpt>
      <trkpt lat="41.51559" lon="1.94931">
        <ele>296.6</ele>
        <time>2021-04-11 10:06:00</time>
      </trkpt>
      <trkpt lat="41.51559" lon="1.94935">
        <ele>296.8</ele>
        <time>2021-04-11 10:06:01</time>
      </trkpt>
      <trkpt lat="41.51559" lon="1.94939">
        <ele>297</ele>
        <time>2021-04-11 10:06:02</time>
      </trkpt>
      <trkpt lat="41.51559" lon="1.94942">
        <ele>297.4</ele>
        <time>2021-04-11 10:06:03</time>
      </trkpt>
      <trkpt lat="41.51558" lon="1.94946">
        <ele>297.6</ele>
        <time>2021-04-11 10:06:04</time>
      </trkpt>
      <trkpt lat="41.51556" lon="1.94949">
        <ele>297.6</ele>
        <time>2021-04-11 10:06:05</time>
      </trkpt>
      <trkpt lat="41.51554" lon="1.94951">
        <ele>297.8</ele>
        <time>2021-04-11 10:06:06</time>
      </trkpt>
      <trkpt lat="41.51551" lon="1.94952">
        <ele>298</ele>
        <time>2021-04-11 10:06:07</time>
      </trkpt>
      <trkpt lat="41.51549" lon="1.94951">
        <ele>298.2</ele>
        <time>2021-04-11 10:06:08</time>
      </trkpt>
      <trkpt lat="41.51548" lon="1.94948">
        <ele>298.4</ele>
        <time>2021-04-11 10:06:09</time>
      </trkpt>
      <trkpt lat="41.51547" lon="1.94945">
        <ele>298.6</ele>
        <time>2021-04-11 10:06:10</time>
      </trkpt>
      <trkpt lat="41.51545" lon="1.94941">
        <ele>298.8</ele>
        <time>2021-04-11 10:06:11</time>
      </trkpt>
      <trkpt lat="41.51545" lon="1.94937">
        <ele>299</ele>
        <time>2021-04-11 10:06:12</time>
      </trkpt>
      <trkpt lat="41.51544" lon="1.94932">
        <ele>299.2</ele>
        <time>2021-04-11 10:06:13</time>
      </trkpt>
      <trkpt lat="41.51543" lon="1.94927">
        <ele>299.2</ele>
        <time>2021-04-11 10:06:14</time>
      </trkpt>
      <trkpt lat="41.51542" lon="1.94923">
        <ele>299.4</ele>
        <time>2021-04-11 10:06:15</time>
      </trkpt>
      <trkpt lat="41.51541" lon="1.94918">
        <ele>299.6</ele>
        <time>2021-04-11 10:06:16</time>
      </trkpt>
      <trkpt lat="41.51539" lon="1.94915">
        <ele>299.6</ele>
        <time>2021-04-11 10:06:17</time>
      </trkpt>
      <trkpt lat="41.51537" lon="1.94911">
        <ele>299.8</ele>
        <time>2021-04-11 10:06:18</time>
      </trkpt>
      <trkpt lat="41.51534" lon="1.94908">
        <ele>300</ele>
        <time>2021-04-11 10:06:19</time>
      </trkpt>
      <trkpt lat="41.51531" lon="1.94906">
        <ele>300.2</ele>
        <time>2021-04-11 10:06:20</time>
      </trkpt>
      <trkpt lat="41.51527" lon="1.94904">
        <ele>300.4</ele>
        <time>2021-04-11 10:06:21</time>
      </trkpt>
      <trkpt lat="41.51524" lon="1.94904">
        <ele>300.6</ele>
        <time>2021-04-11 10:06:22</time>
      </trkpt>
      <trkpt lat="41.5152" lon="1.94904">
        <ele>300.8</ele>
        <time>2021-04-11 10:06:23</time>
      </trkpt>
      <trkpt lat="41.51516" lon="1.94904">
        <ele>300.8</ele>
        <time>2021-04-11 10:06:24</time>
      </trkpt>
      <trkpt lat="41.51513" lon="1.94905">
        <ele>301</ele>
        <time>2021-04-11 10:06:25</time>
      </trkpt>
      <trkpt lat="41.51509" lon="1.94906">
        <ele>301.2</ele>
        <time>2021-04-11 10:06:26</time>
      </trkpt>
      <trkpt lat="41.51505" lon="1.94908">
        <ele>301.6</ele>
        <time>2021-04-11 10:06:27</time>
      </trkpt>
      <trkpt lat="41.51502" lon="1.94909">
        <ele>301.8</ele>
        <time>2021-04-11 10:06:28</time>
      </trkpt>
      <trkpt lat="41.51498" lon="1.94911">
        <ele>302</ele>
        <time>2021-04-11 10:06:29</time>
      </trkpt>
      <trkpt lat="41.51495" lon="1.94914">
        <ele>302.2</ele>
        <time>2021-04-11 10:06:30</time>
      </trkpt>
      <trkpt lat="41.51492" lon="1.94917">
        <ele>302.6</ele>
        <time>2021-04-11 10:06:31</time>
      </trkpt>
      <trkpt lat="41.51489" lon="1.9492">
        <ele>302.8</ele>
        <time>2021-04-11 10:06:32</time>
      </trkpt>
      <trkpt lat="41.51486" lon="1.94923">
        <ele>303</ele>
        <time>2021-04-11 10:06:33</time>
      </trkpt>
      <trkpt lat="41.51483" lon="1.94926">
        <ele>303.2</ele>
        <time>2021-04-11 10:06:34</time>
      </trkpt>
      <trkpt lat="41.51481" lon="1.94929">
        <ele>303.4</ele>
        <time>2021-04-11 10:06:35</time>
      </trkpt>
      <trkpt lat="41.51478" lon="1.94932">
        <ele>303.6</ele>
        <time>2021-04-11 10:06:36</time>
      </trkpt>
      <trkpt lat="41.51474" lon="1.94935">
        <ele>303.8</ele>
        <time>2021-04-11 10:06:37</time>
      </trkpt>
      <trkpt lat="41.51472" lon="1.94939">
        <ele>304</ele>
        <time>2021-04-11 10:06:38</time>
      </trkpt>
      <trkpt lat="41.51469" lon="1.94942">
        <ele>304.4</ele>
        <time>2021-04-11 10:06:39</time>
      </trkpt>
      <trkpt lat="41.51467" lon="1.94946">
        <ele>304.6</ele>
        <time>2021-04-11 10:06:40</time>
      </trkpt>
      <trkpt lat="41.51464" lon="1.94949">
        <ele>304.8</ele>
        <time>2021-04-11 10:06:41</time>
      </trkpt>
      <trkpt lat="41.51462" lon="1.94954">
        <ele>305</ele>
        <time>2021-04-11 10:06:42</time>
      </trkpt>
      <trkpt lat="41.51461" lon="1.94958">
        <ele>305.2</ele>
        <time>2021-04-11 10:06:43</time>
      </trkpt>
      <trkpt lat="41.5146" lon="1.94963">
        <ele>305.4</ele>
        <time>2021-04-11 10:06:44</time>
      </trkpt>
      <trkpt lat="41.51459" lon="1.94968">
        <ele>305.6</ele>
        <time>2021-04-11 10:06:45</time>
      </trkpt>
      <trkpt lat="41.5146" lon="1.94973">
        <ele>306</ele>
        <time>2021-04-11 10:06:46</time>
      </trkpt>
      <trkpt lat="41.51461" lon="1.94978">
        <ele>306.2</ele>
        <time>2021-04-11 10:06:47</time>
      </trkpt>
      <trkpt lat="41.51463" lon="1.94983">
        <ele>306.4</ele>
        <time>2021-04-11 10:06:48</time>
      </trkpt>
      <trkpt lat="41.51465" lon="1.94987">
        <ele>306.6</ele>
        <time>2021-04-11 10:06:49</time>
      </trkpt>
      <trkpt lat="41.51467" lon="1.94991">
        <ele>306.8</ele>
        <time>2021-04-11 10:06:50</time>
      </trkpt>
      <trkpt lat="41.5147" lon="1.94996">
        <ele>307</ele>
        <time>2021-04-11 10:06:51</time>
      </trkpt>
      <trkpt lat="41.51472" lon="1.95">
        <ele>307.4</ele>
        <time>2021-04-11 10:06:52</time>
      </trkpt>
      <trkpt lat="41.51475" lon="1.95004">
        <ele>307.6</ele>
        <time>2021-04-11 10:06:53</time>
      </trkpt>
      <trkpt lat="41.51477" lon="1.95008">
        <ele>307.8</ele>
        <time>2021-04-11 10:06:54</time>
      </trkpt>
      <trkpt lat="41.51479" lon="1.95012">
        <ele>308</ele>
        <time>2021-04-11 10:06:55</time>
      </trkpt>
      <trkpt lat="41.51482" lon="1.95015">
        <ele>308.2</ele>
        <time>2021-04-11 10:06:56</time>
      </trkpt>
      <trkpt lat="41.51484" lon="1.95019">
        <ele>308.4</ele>
        <time>2021-04-11 10:06:57</time>
      </trkpt>
      <trkpt lat="41.51486" lon="1.95023">
        <ele>308.6</ele>
        <time>2021-04-11 10:06:58</time>
      </trkpt>
      <trkpt lat="41.51488" lon="1.95027">
        <ele>308.8</ele>
        <time>2021-04-11 10:06:59</time>
      </trkpt>
      <trkpt lat="41.51491" lon="1.95031">
        <ele>309</ele>
        <time>2021-04-11 10:07:00</time>
      </trkpt>
      <trkpt lat="41.51493" lon="1.95035">
        <ele>309.4</ele>
        <time>2021-04-11 10:07:01</time>
      </trkpt>
      <trkpt lat="41.51495" lon="1.95039">
        <ele>309.6</ele>
        <time>2021-04-11 10:07:02</time>
      </trkpt>
      <trkpt lat="41.51497" lon="1.95043">
        <ele>309.8</ele>
        <time>2021-04-11 10:07:03</time>
      </trkpt>
      <trkpt lat="41.51499" lon="1.95047">
        <ele>310</ele>
        <time>2021-04-11 10:07:04</time>
      </trkpt>
      <trkpt lat="41.51501" lon="1.95051">
        <ele>310.2</ele>
        <time>2021-04-11 10:07:05</time>
      </trkpt>
      <trkpt lat="41.51503" lon="1.95056">
        <ele>310.4</ele>
        <time>2021-04-11 10:07:06</time>
      </trkpt>
      <trkpt lat="41.51504" lon="1.95061">
        <ele>310.8</ele>
        <time>2021-04-11 10:07:07</time>
      </trkpt>
      <trkpt lat="41.51506" lon="1.95066">
        <ele>311</ele>
        <time>2021-04-11 10:07:08</time>
      </trkpt>
      <trkpt lat="41.51506" lon="1.95071">
        <ele>311.2</ele>
        <time>2021-04-11 10:07:09</time>
      </trkpt>
      <trkpt lat="41.51507" lon="1.95077">
        <ele>311.4</ele>
        <time>2021-04-11 10:07:10</time>
      </trkpt>
      <trkpt lat="41.51508" lon="1.95082">
        <ele>311.6</ele>
        <time>2021-04-11 10:07:11</time>
      </trkpt>
      <trkpt lat="41.51508" lon="1.95088">
        <ele>311.8</ele>
        <time>2021-04-11 10:07:12</time>
      </trkpt>
      <trkpt lat="41.51508" lon="1.95094">
        <ele>312</ele>
        <time>2021-04-11 10:07:13</time>
      </trkpt>
      <trkpt lat="41.51508" lon="1.95099">
        <ele>312.4</ele>
        <time>2021-04-11 10:07:14</time>
      </trkpt>
      <trkpt lat="41.51508" lon="1.95105">
        <ele>312.6</ele>
        <time>2021-04-11 10:07:15</time>
      </trkpt>
      <trkpt lat="41.51508" lon="1.95111">
        <ele>312.8</ele>
        <time>2021-04-11 10:07:16</time>
      </trkpt>
      <trkpt lat="41.51508" lon="1.95116">
        <ele>313.2</ele>
        <time>2021-04-11 10:07:17</time>
      </trkpt>
      <trkpt lat="41.51508" lon="1.95122">
        <ele>313.4</ele>
        <time>2021-04-11 10:07:18</time>
      </trkpt>
      <trkpt lat="41.51508" lon="1.95127">
        <ele>313.6</ele>
        <time>2021-04-11 10:07:19</time>
      </trkpt>
      <trkpt lat="41.51509" lon="1.95132">
        <ele>314</ele>
        <time>2021-04-11 10:07:20</time>
      </trkpt>
      <trkpt lat="41.5151" lon="1.95138">
        <ele>314.2</ele>
        <time>2021-04-11 10:07:21</time>
      </trkpt>
      <trkpt lat="41.51512" lon="1.95142">
        <ele>314.4</ele>
        <time>2021-04-11 10:07:22</time>
      </trkpt>
      <trkpt lat="41.51515" lon="1.95146">
        <ele>314.6</ele>
        <time>2021-04-11 10:07:23</time>
      </trkpt>
      <trkpt lat="41.51518" lon="1.95149">
        <ele>315</ele>
        <time>2021-04-11 10:07:24</time>
      </trkpt>
      <trkpt lat="41.51521" lon="1.95151">
        <ele>315.2</ele>
        <time>2021-04-11 10:07:25</time>
      </trkpt>
      <trkpt lat="41.51525" lon="1.95153">
        <ele>315.4</ele>
        <time>2021-04-11 10:07:26</time>
      </trkpt>
      <trkpt lat="41.51528" lon="1.95155">
        <ele>315.6</ele>
        <time>2021-04-11 10:07:27</time>
      </trkpt>
      <trkpt lat="41.51533" lon="1.95156">
        <ele>316</ele>
        <time>2021-04-11 10:07:28</time>
      </trkpt>
      <trkpt lat="41.51536" lon="1.95157">
        <ele>316.2</ele>
        <time>2021-04-11 10:07:29</time>
      </trkpt>
      <trkpt lat="41.51539" lon="1.95158">
        <ele>316.4</ele>
        <time>2021-04-11 10:07:30</time>
      </trkpt>
      <trkpt lat="41.51544" lon="1.9516">
        <ele>316.8</ele>
        <time>2021-04-11 10:07:31</time>
      </trkpt>
      <trkpt lat="41.51547" lon="1.95161">
        <ele>317</ele>
        <time>2021-04-11 10:07:32</time>
      </trkpt>
      <trkpt lat="41.51551" lon="1.95162">
        <ele>317.2</ele>
        <time>2021-04-11 10:07:33</time>
      </trkpt>
      <trkpt lat="41.51555" lon="1.95163">
        <ele>317.4</ele>
        <time>2021-04-11 10:07:34</time>
      </trkpt>
      <trkpt lat="41.51559" lon="1.95164">
        <ele>317.8</ele>
        <time>2021-04-11 10:07:35</time>
      </trkpt>
      <trkpt lat="41.51562" lon="1.95165">
        <ele>318</ele>
        <time>2021-04-11 10:07:36</time>
      </trkpt>
      <trkpt lat="41.51567" lon="1.95166">
        <ele>318.2</ele>
        <time>2021-04-11 10:07:37</time>
      </trkpt>
      <trkpt lat="41.5157" lon="1.95167">
        <ele>318.4</ele>
        <time>2021-04-11 10:07:38</time>
      </trkpt>
      <trkpt lat="41.51574" lon="1.95168">
        <ele>318.6</ele>
        <time>2021-04-11 10:07:39</time>
      </trkpt>
      <trkpt lat="41.51578" lon="1.95169">
        <ele>319</ele>
        <time>2021-04-11 10:07:40</time>
      </trkpt>
      <trkpt lat="41.51582" lon="1.9517">
        <ele>319.2</ele>
        <time>2021-04-11 10:07:41</time>
      </trkpt>
      <trkpt lat="41.51586" lon="1.95171">
        <ele>319.4</ele>
        <time>2021-04-11 10:07:42</time>
      </trkpt>
      <trkpt lat="41.51589" lon="1.95171">
        <ele>319.6</ele>
        <time>2021-04-11 10:07:43</time>
      </trkpt>
      <trkpt lat="41.51593" lon="1.95172">
        <ele>320</ele>
        <time>2021-04-11 10:07:44</time>
      </trkpt>
      <trkpt lat="41.51597" lon="1.95173">
        <ele>320.2</ele>
        <time>2021-04-11 10:07:45</time>
      </trkpt>
      <trkpt lat="41.51601" lon="1.95174">
        <ele>320.6</ele>
        <time>2021-04-11 10:07:46</time>
      </trkpt>
      <trkpt lat="41.51604" lon="1.95175">
        <ele>320.8</ele>
        <time>2021-04-11 10:07:47</time>
      </trkpt>
      <trkpt lat="41.51607" lon="1.95176">
        <ele>321</ele>
        <time>2021-04-11 10:07:48</time>
      </trkpt>
      <trkpt lat="41.51611" lon="1.95177">
        <ele>321.4</ele>
        <time>2021-04-11 10:07:49</time>
      </trkpt>
      <trkpt lat="41.51615" lon="1.95178">
        <ele>321.6</ele>
        <time>2021-04-11 10:07:50</time>
      </trkpt>
      <trkpt lat="41.51619" lon="1.95179">
        <ele>321.8</ele>
        <time>2021-04-11 10:07:51</time>
      </trkpt>
      <trkpt lat="41.51622" lon="1.9518">
        <ele>322.2</ele>
        <time>2021-04-11 10:07:52</time>
      </trkpt>
      <trkpt lat="41.51626" lon="1.95181">
        <ele>322.4</ele>
        <time>2021-04-11 10:07:53</time>
      </trkpt>
      <trkpt lat="41.5163" lon="1.95182">
        <ele>322.6</ele>
        <time>2021-04-11 10:07:54</time>
      </trkpt>
      <trkpt lat="41.51633" lon="1.95183">
        <ele>323</ele>
        <time>2021-04-11 10:07:55</time>
      </trkpt>
      <trkpt lat="41.51637" lon="1.95183">
        <ele>323.2</ele>
        <time>2021-04-11 10:07:56</time>
      </trkpt>
      <trkpt lat="41.51641" lon="1.95184">
        <ele>323.4</ele>
        <time>2021-04-11 10:07:57</time>
      </trkpt>
      <trkpt lat="41.51644" lon="1.95185">
        <ele>323.8</ele>
        <time>2021-04-11 10:07:58</time>
      </trkpt>
      <trkpt lat="41.51648" lon="1.95186">
        <ele>324</ele>
        <time>2021-04-11 10:07:59</time>
      </trkpt>
      <trkpt lat="41.51651" lon="1.95187">
        <ele>324.2</ele>
        <time>2021-04-11 10:08:00</time>
      </trkpt>
      <trkpt lat="41.51655" lon="1.95189">
        <ele>324.4</ele>
        <time>2021-04-11 10:08:01</time>
      </trkpt>
      <trkpt lat="41.51659" lon="1.9519">
        <ele>324.6</ele>
        <time>2021-04-11 10:08:02</time>
      </trkpt>
      <trkpt lat="41.51662" lon="1.95191">
        <ele>324.8</ele>
        <time>2021-04-11 10:08:03</time>
      </trkpt>
      <trkpt lat="41.51665" lon="1.95192">
        <ele>325.2</ele>
        <time>2021-04-11 10:08:04</time>
      </trkpt>
      <trkpt lat="41.51669" lon="1.95194">
        <ele>325.4</ele>
        <time>2021-04-11 10:08:05</time>
      </trkpt>
      <trkpt lat="41.51672" lon="1.95195">
        <ele>325.6</ele>
        <time>2021-04-11 10:08:06</time>
      </trkpt>
      <trkpt lat="41.51676" lon="1.95197">
        <ele>325.8</ele>
        <time>2021-04-11 10:08:07</time>
      </trkpt>
      <trkpt lat="41.5168" lon="1.95198">
        <ele>326.2</ele>
        <time>2021-04-11 10:08:08</time>
      </trkpt>
      <trkpt lat="41.51683" lon="1.952">
        <ele>326.4</ele>
        <time>2021-04-11 10:08:09</time>
      </trkpt>
      <trkpt lat="41.51687" lon="1.95201">
        <ele>326.6</ele>
        <time>2021-04-11 10:08:10</time>
      </trkpt>
      <trkpt lat="41.51691" lon="1.95203">
        <ele>327</ele>
        <time>2021-04-11 10:08:11</time>
      </trkpt>
      <trkpt lat="41.51694" lon="1.95204">
        <ele>327.2</ele>
        <time>2021-04-11 10:08:12</time>
      </trkpt>
      <trkpt lat="41.51698" lon="1.95205">
        <ele>327.4</ele>
        <time>2021-04-11 10:08:13</time>
      </trkpt>
      <trkpt lat="41.51701" lon="1.95207">
        <ele>327.8</ele>
        <time>2021-04-11 10:08:14</time>
      </trkpt>
      <trkpt lat="41.51705" lon="1.95208">
        <ele>328</ele>
        <time>2021-04-11 10:08:15</time>
      </trkpt>
      <trkpt lat="41.51709" lon="1.9521">
        <ele>328.2</ele>
        <time>2021-04-11 10:08:16</time>
      </trkpt>
      <trkpt lat="41.51713" lon="1.95212">
        <ele>328.4</ele>
        <time>2021-04-11 10:08:17</time>
      </trkpt>
      <trkpt lat="41.51717" lon="1.95213">
        <ele>328.6</ele>
        <time>2021-04-11 10:08:18</time>
      </trkpt>
      <trkpt lat="41.5172" lon="1.95214">
        <ele>328.8</ele>
        <time>2021-04-11 10:08:19</time>
      </trkpt>
      <trkpt lat="41.51724" lon="1.95215">
        <ele>328.8</ele>
        <time>2021-04-11 10:08:20</time>
      </trkpt>
      <trkpt lat="41.51728" lon="1.95217">
        <ele>329</ele>
        <time>2021-04-11 10:08:21</time>
      </trkpt>
      <trkpt lat="41.51731" lon="1.95218">
        <ele>329.2</ele>
        <time>2021-04-11 10:08:22</time>
      </trkpt>
      <trkpt lat="41.51735" lon="1.95219">
        <ele>329.4</ele>
        <time>2021-04-11 10:08:23</time>
      </trkpt>
      <trkpt lat="41.51739" lon="1.9522">
        <ele>329.6</ele>
        <time>2021-04-11 10:08:24</time>
      </trkpt>
      <trkpt lat="41.51742" lon="1.95222">
        <ele>329.8</ele>
        <time>2021-04-11 10:08:25</time>
      </trkpt>
      <trkpt lat="41.51746" lon="1.95224">
        <ele>330</ele>
        <time>2021-04-11 10:08:26</time>
      </trkpt>
      <trkpt lat="41.5175" lon="1.95225">
        <ele>330.2</ele>
        <time>2021-04-11 10:08:27</time>
      </trkpt>
      <trkpt lat="41.51754" lon="1.95226">
        <ele>330.2</ele>
        <time>2021-04-11 10:08:28</time>
      </trkpt>
      <trkpt lat="41.51758" lon="1.95228">
        <ele>330.4</ele>
        <time>2021-04-11 10:08:29</time>
      </trkpt>
      <trkpt lat="41.51761" lon="1.95229">
        <ele>330.4</ele>
        <time>2021-04-11 10:08:30</time>
      </trkpt>
      <trkpt lat="41.51765" lon="1.9523">
        <ele>330.6</ele>
        <time>2021-04-11 10:08:31</time>
      </trkpt>
      <trkpt lat="41.51769" lon="1.95232">
        <ele>330.8</ele>
        <time>2021-04-11 10:08:32</time>
      </trkpt>
      <trkpt lat="41.51773" lon="1.95233">
        <ele>330.8</ele>
        <time>2021-04-11 10:08:33</time>
      </trkpt>
      <trkpt lat="41.51777" lon="1.95235">
        <ele>330.8</ele>
        <time>2021-04-11 10:08:34</time>
      </trkpt>
      <trkpt lat="41.51781" lon="1.95236">
        <ele>331</ele>
        <time>2021-04-11 10:08:35</time>
      </trkpt>
      <trkpt lat="41.51785" lon="1.95238">
        <ele>331</ele>
        <time>2021-04-11 10:08:36</time>
      </trkpt>
      <trkpt lat="41.5179" lon="1.95239">
        <ele>331</ele>
        <time>2021-04-11 10:08:37</time>
      </trkpt>
      <trkpt lat="41.51794" lon="1.95241">
        <ele>331</ele>
        <time>2021-04-11 10:08:38</time>
      </trkpt>
      <trkpt lat="41.51798" lon="1.95243">
        <ele>331</ele>
        <time>2021-04-11 10:08:39</time>
      </trkpt>
      <trkpt lat="41.51802" lon="1.95244">
        <ele>331</ele>
        <time>2021-04-11 10:08:40</time>
      </trkpt>
      <trkpt lat="41.51807" lon="1.95246">
        <ele>331.2</ele>
        <time>2021-04-11 10:08:41</time>
      </trkpt>
      <trkpt lat="41.51811" lon="1.95249">
        <ele>331.2</ele>
        <time>2021-04-11 10:08:42</time>
      </trkpt>
      <trkpt lat="41.51815" lon="1.95251">
        <ele>331.2</ele>
        <time>2021-04-11 10:08:43</time>
      </trkpt>
      <trkpt lat="41.51819" lon="1.95254">
        <ele>331.2</ele>
        <time>2021-04-11 10:08:44</time>
      </trkpt>
      <trkpt lat="41.51824" lon="1.95258">
        <ele>331.2</ele>
        <time>2021-04-11 10:08:45</time>
      </trkpt>
      <trkpt lat="41.51827" lon="1.95262">
        <ele>331.4</ele>
        <time>2021-04-11 10:08:46</time>
      </trkpt>
      <trkpt lat="41.51831" lon="1.95266">
        <ele>331.4</ele>
        <time>2021-04-11 10:08:47</time>
      </trkpt>
      <trkpt lat="41.51834" lon="1.9527">
        <ele>331.6</ele>
        <time>2021-04-11 10:08:48</time>
      </trkpt>
      <trkpt lat="41.51837" lon="1.95274">
        <ele>331.6</ele>
        <time>2021-04-11 10:08:49</time>
      </trkpt>
      <trkpt lat="41.5184" lon="1.9528">
        <ele>331.6</ele>
        <time>2021-04-11 10:08:50</time>
      </trkpt>
      <trkpt lat="41.51843" lon="1.95285">
        <ele>331.6</ele>
        <time>2021-04-11 10:08:51</time>
      </trkpt>
      <trkpt lat="41.51846" lon="1.9529">
        <ele>331.8</ele>
        <time>2021-04-11 10:08:52</time>
      </trkpt>
      <trkpt lat="41.51848" lon="1.95296">
        <ele>331.8</ele>
        <time>2021-04-11 10:08:53</time>
      </trkpt>
      <trkpt lat="41.5185" lon="1.95302">
        <ele>332</ele>
        <time>2021-04-11 10:08:54</time>
      </trkpt>
      <trkpt lat="41.51851" lon="1.95308">
        <ele>332</ele>
        <time>2021-04-11 10:08:55</time>
      </trkpt>
      <trkpt lat="41.51852" lon="1.95314">
        <ele>332.2</ele>
        <time>2021-04-11 10:08:56</time>
      </trkpt>
      <trkpt lat="41.51852" lon="1.9532">
        <ele>332.4</ele>
        <time>2021-04-11 10:08:57</time>
      </trkpt>
      <trkpt lat="41.51851" lon="1.95326">
        <ele>332.6</ele>
        <time>2021-04-11 10:08:58</time>
      </trkpt>
      <trkpt lat="41.51851" lon="1.95332">
        <ele>332.8</ele>
        <time>2021-04-11 10:08:59</time>
      </trkpt>
      <trkpt lat="41.51849" lon="1.95337">
        <ele>333.2</ele>
        <time>2021-04-11 10:09:00</time>
      </trkpt>
      <trkpt lat="41.51848" lon="1.95342">
        <ele>333.4</ele>
        <time>2021-04-11 10:09:01</time>
      </trkpt>
      <trkpt lat="41.51846" lon="1.95346">
        <ele>333.6</ele>
        <time>2021-04-11 10:09:02</time>
      </trkpt>
      <trkpt lat="41.51843" lon="1.9535">
        <ele>334</ele>
        <time>2021-04-11 10:09:03</time>
      </trkpt>
      <trkpt lat="41.51841" lon="1.95353">
        <ele>334.2</ele>
        <time>2021-04-11 10:09:04</time>
      </trkpt>
      <trkpt lat="41.51838" lon="1.95357">
        <ele>334.4</ele>
        <time>2021-04-11 10:09:05</time>
      </trkpt>
      <trkpt lat="41.51835" lon="1.95359">
        <ele>334.8</ele>
        <time>2021-04-11 10:09:06</time>
      </trkpt>
      <trkpt lat="41.51832" lon="1.95361">
        <ele>335</ele>
        <time>2021-04-11 10:09:07</time>
      </trkpt>
      <trkpt lat="41.51829" lon="1.95363">
        <ele>335.2</ele>
        <time>2021-04-11 10:09:08</time>
      </trkpt>
      <trkpt lat="41.51826" lon="1.95365">
        <ele>335.4</ele>
        <time>2021-04-11 10:09:09</time>
      </trkpt>
      <trkpt lat="41.51822" lon="1.95366">
        <ele>335.6</ele>
        <time>2021-04-11 10:09:10</time>
      </trkpt>
      <trkpt lat="41.51818" lon="1.95367">
        <ele>335.8</ele>
        <time>2021-04-11 10:09:11</time>
      </trkpt>
      <trkpt lat="41.51814" lon="1.95368">
        <ele>336</ele>
        <time>2021-04-11 10:09:12</time>
      </trkpt>
      <trkpt lat="41.51811" lon="1.95368">
        <ele>336.2</ele>
        <time>2021-04-11 10:09:13</time>
      </trkpt>
      <trkpt lat="41.51808" lon="1.95368">
        <ele>336.4</ele>
        <time>2021-04-11 10:09:14</time>
      </trkpt>
      <trkpt lat="41.51804" lon="1.95368">
        <ele>336.6</ele>
        <time>2021-04-11 10:09:15</time>
      </trkpt>
      <trkpt lat="41.518" lon="1.95368">
        <ele>336.8</ele>
        <time>2021-04-11 10:09:16</time>
      </trkpt>
      <trkpt lat="41.51796" lon="1.95368">
        <ele>337</ele>
        <time>2021-04-11 10:09:17</time>
      </trkpt>
      <trkpt lat="41.51793" lon="1.95368">
        <ele>337.4</ele>
        <time>2021-04-11 10:09:18</time>
      </trkpt>
      <trkpt lat="41.5179" lon="1.95368">
        <ele>337.6</ele>
        <time>2021-04-11 10:09:19</time>
      </trkpt>
      <trkpt lat="41.51787" lon="1.95369">
        <ele>338</ele>
        <time>2021-04-11 10:09:20</time>
      </trkpt>
      <trkpt lat="41.51783" lon="1.9537">
        <ele>338.2</ele>
        <time>2021-04-11 10:09:21</time>
      </trkpt>
      <trkpt lat="41.5178" lon="1.95372">
        <ele>338.4</ele>
        <time>2021-04-11 10:09:22</time>
      </trkpt>
      <trkpt lat="41.51777" lon="1.95374">
        <ele>338.6</ele>
        <time>2021-04-11 10:09:23</time>
      </trkpt>
      <trkpt lat="41.51775" lon="1.95377">
        <ele>339</ele>
        <time>2021-04-11 10:09:24</time>
      </trkpt>
      <trkpt lat="41.51773" lon="1.95381">
        <ele>339.2</ele>
        <time>2021-04-11 10:09:25</time>
      </trkpt>
      <trkpt lat="41.51771" lon="1.95385">
        <ele>339.4</ele>
        <time>2021-04-11 10:09:26</time>
      </trkpt>
      <trkpt lat="41.5177" lon="1.9539">
        <ele>339.6</ele>
        <time>2021-04-11 10:09:27</time>
      </trkpt>
      <trkpt lat="41.5177" lon="1.95394">
        <ele>340</ele>
        <time>2021-04-11 10:09:28</time>
      </trkpt>
      <trkpt lat="41.51769" lon="1.95399">
        <ele>340.2</ele>
        <time>2021-04-11 10:09:29</time>
      </trkpt>
      <trkpt lat="41.51769" lon="1.95403">
        <ele>340.6</ele>
        <time>2021-04-11 10:09:30</time>
      </trkpt>
      <trkpt lat="41.5177" lon="1.95408">
        <ele>340.8</ele>
        <time>2021-04-11 10:09:31</time>
      </trkpt>
      <trkpt lat="41.5177" lon="1.95412">
        <ele>341</ele>
        <time>2021-04-11 10:09:32</time>
      </trkpt>
      <trkpt lat="41.51771" lon="1.95416">
        <ele>341.4</ele>
        <time>2021-04-11 10:09:33</time>
      </trkpt>
      <trkpt lat="41.51773" lon="1.9542">
        <ele>341.6</ele>
        <time>2021-04-11 10:09:34</time>
      </trkpt>
      <trkpt lat="41.51774" lon="1.95425">
        <ele>341.8</ele>
        <time>2021-04-11 10:09:35</time>
      </trkpt>
      <trkpt lat="41.51776" lon="1.95429">
        <ele>342</ele>
        <time>2021-04-11 10:09:36</time>
      </trkpt>
      <trkpt lat="41.51777" lon="1.95433">
        <ele>342.2</ele>
        <time>2021-04-11 10:09:37</time>
      </trkpt>
      <trkpt lat="41.51779" lon="1.95437">
        <ele>342.4</ele>
        <time>2021-04-11 10:09:38</time>
      </trkpt>
      <trkpt lat="41.5178" lon="1.9544">
        <ele>342.6</ele>
        <time>2021-04-11 10:09:39</time>
      </trkpt>
      <trkpt lat="41.51782" lon="1.95445">
        <ele>343</ele>
        <time>2021-04-11 10:09:40</time>
      </trkpt>
      <trkpt lat="41.51783" lon="1.95449">
        <ele>343.2</ele>
        <time>2021-04-11 10:09:41</time>
      </trkpt>
      <trkpt lat="41.51785" lon="1.95452">
        <ele>343.4</ele>
        <time>2021-04-11 10:09:42</time>
      </trkpt>
      <trkpt lat="41.51787" lon="1.95456">
        <ele>343.6</ele>
        <time>2021-04-11 10:09:43</time>
      </trkpt>
      <trkpt lat="41.51789" lon="1.9546">
        <ele>343.8</ele>
        <time>2021-04-11 10:09:44</time>
      </trkpt>
      <trkpt lat="41.51791" lon="1.95464">
        <ele>344</ele>
        <time>2021-04-11 10:09:45</time>
      </trkpt>
      <trkpt lat="41.51793" lon="1.95467">
        <ele>344.2</ele>
        <time>2021-04-11 10:09:46</time>
      </trkpt>
      <trkpt lat="41.51796" lon="1.9547">
        <ele>344.6</ele>
        <time>2021-04-11 10:09:47</time>
      </trkpt>
      <trkpt lat="41.51798" lon="1.95473">
        <ele>344.8</ele>
        <time>2021-04-11 10:09:48</time>
      </trkpt>
      <trkpt lat="41.518" lon="1.95476">
        <ele>345</ele>
        <time>2021-04-11 10:09:49</time>
      </trkpt>
      <trkpt lat="41.51803" lon="1.95479">
        <ele>345.2</ele>
        <time>2021-04-11 10:09:50</time>
      </trkpt>
      <trkpt lat="41.51806" lon="1.95482">
        <ele>345.4</ele>
        <time>2021-04-11 10:09:51</time>
      </trkpt>
      <trkpt lat="41.51809" lon="1.95484">
        <ele>345.6</ele>
        <time>2021-04-11 10:09:52</time>
      </trkpt>
      <trkpt lat="41.51812" lon="1.95486">
        <ele>345.8</ele>
        <time>2021-04-11 10:09:53</time>
      </trkpt>
      <trkpt lat="41.51815" lon="1.95488">
        <ele>346</ele>
        <time>2021-04-11 10:09:54</time>
      </trkpt>
      <trkpt lat="41.51819" lon="1.95489">
        <ele>346.2</ele>
        <time>2021-04-11 10:09:55</time>
      </trkpt>
      <trkpt lat="41.51822" lon="1.95491">
        <ele>346.6</ele>
        <time>2021-04-11 10:09:56</time>
      </trkpt>
      <trkpt lat="41.51825" lon="1.95492">
        <ele>346.8</ele>
        <time>2021-04-11 10:09:57</time>
      </trkpt>
      <trkpt lat="41.51829" lon="1.95493">
        <ele>346.8</ele>
        <time>2021-04-11 10:09:58</time>
      </trkpt>
      <trkpt lat="41.51833" lon="1.95494">
        <ele>347</ele>
        <time>2021-04-11 10:09:59</time>
      </trkpt>
      <trkpt lat="41.51835" lon="1.95495">
        <ele>347.2</ele>
        <time>2021-04-11 10:10:00</time>
      </trkpt>
      <trkpt lat="41.5184" lon="1.95496">
        <ele>347.4</ele>
        <time>2021-04-11 10:10:01</time>
      </trkpt>
      <trkpt lat="41.51843" lon="1.95496">
        <ele>347.6</ele>
        <time>2021-04-11 10:10:02</time>
      </trkpt>
      <trkpt lat="41.51847" lon="1.95497">
        <ele>347.8</ele>
        <time>2021-04-11 10:10:03</time>
      </trkpt>
      <trkpt lat="41.5185" lon="1.95497">
        <ele>348</ele>
        <time>2021-04-11 10:10:04</time>
      </trkpt>
      <trkpt lat="41.51854" lon="1.95498">
        <ele>348.2</ele>
        <time>2021-04-11 10:10:05</time>
      </trkpt>
      <trkpt lat="41.51857" lon="1.95499">
        <ele>348.6</ele>
        <time>2021-04-11 10:10:06</time>
      </trkpt>
      <trkpt lat="41.51861" lon="1.95499">
        <ele>348.8</ele>
        <time>2021-04-11 10:10:07</time>
      </trkpt>
      <trkpt lat="41.51864" lon="1.955">
        <ele>349</ele>
        <time>2021-04-11 10:10:08</time>
      </trkpt>
      <trkpt lat="41.51868" lon="1.95501">
        <ele>349.2</ele>
        <time>2021-04-11 10:10:09</time>
      </trkpt>
      <trkpt lat="41.51871" lon="1.95503">
        <ele>349.4</ele>
        <time>2021-04-11 10:10:10</time>
      </trkpt>
      <trkpt lat="41.51875" lon="1.95504">
        <ele>349.6</ele>
        <time>2021-04-11 10:10:11</time>
      </trkpt>
      <trkpt lat="41.51878" lon="1.95506">
        <ele>349.8</ele>
        <time>2021-04-11 10:10:12</time>
      </trkpt>
      <trkpt lat="41.51881" lon="1.95507">
        <ele>350</ele>
        <time>2021-04-11 10:10:13</time>
      </trkpt>
      <trkpt lat="41.51885" lon="1.95509">
        <ele>350.2</ele>
        <time>2021-04-11 10:10:14</time>
      </trkpt>
      <trkpt lat="41.51888" lon="1.95511">
        <ele>350.4</ele>
        <time>2021-04-11 10:10:15</time>
      </trkpt>
      <trkpt lat="41.51891" lon="1.95513">
        <ele>350.6</ele>
        <time>2021-04-11 10:10:16</time>
      </trkpt>
      <trkpt lat="41.51895" lon="1.95515">
        <ele>350.8</ele>
        <time>2021-04-11 10:10:17</time>
      </trkpt>
      <trkpt lat="41.51898" lon="1.95517">
        <ele>351.2</ele>
        <time>2021-04-11 10:10:18</time>
      </trkpt>
      <trkpt lat="41.51901" lon="1.95518">
        <ele>351.4</ele>
        <time>2021-04-11 10:10:19</time>
      </trkpt>
      <trkpt lat="41.51905" lon="1.9552">
        <ele>351.6</ele>
        <time>2021-04-11 10:10:20</time>
      </trkpt>
      <trkpt lat="41.51908" lon="1.95521">
        <ele>352</ele>
        <time>2021-04-11 10:10:21</time>
      </trkpt>
      <trkpt lat="41.51911" lon="1.95522">
        <ele>352.2</ele>
        <time>2021-04-11 10:10:22</time>
      </trkpt>
      <trkpt lat="41.51915" lon="1.95523">
        <ele>352.4</ele>
        <time>2021-04-11 10:10:23</time>
      </trkpt>
      <trkpt lat="41.51918" lon="1.95524">
        <ele>352.6</ele>
        <time>2021-04-11 10:10:24</time>
      </trkpt>
      <trkpt lat="41.51922" lon="1.95524">
        <ele>353</ele>
        <time>2021-04-11 10:10:25</time>
      </trkpt>
      <trkpt lat="41.51926" lon="1.95525">
        <ele>353.2</ele>
        <time>2021-04-11 10:10:26</time>
      </trkpt>
      <trkpt lat="41.51929" lon="1.95526">
        <ele>353.4</ele>
        <time>2021-04-11 10:10:27</time>
      </trkpt>
      <trkpt lat="41.51932" lon="1.95526">
        <ele>353.8</ele>
        <time>2021-04-11 10:10:28</time>
      </trkpt>
      <trkpt lat="41.51936" lon="1.95527">
        <ele>354</ele>
        <time>2021-04-11 10:10:29</time>
      </trkpt>
      <trkpt lat="41.51939" lon="1.95527">
        <ele>354.2</ele>
        <time>2021-04-11 10:10:30</time>
      </trkpt>
      <trkpt lat="41.51943" lon="1.95528">
        <ele>354.6</ele>
        <time>2021-04-11 10:10:31</time>
      </trkpt>
      <trkpt lat="41.51946" lon="1.95529">
        <ele>354.8</ele>
        <time>2021-04-11 10:10:32</time>
      </trkpt>
      <trkpt lat="41.51949" lon="1.95529">
        <ele>355</ele>
        <time>2021-04-11 10:10:33</time>
      </trkpt>
      <trkpt lat="41.51952" lon="1.9553">
        <ele>355.4</ele>
        <time>2021-04-11 10:10:34</time>
      </trkpt>
      <trkpt lat="41.51956" lon="1.9553">
        <ele>355.6</ele>
        <time>2021-04-11 10:10:35</time>
      </trkpt>
      <trkpt lat="41.51959" lon="1.95531">
        <ele>355.8</ele>
        <time>2021-04-11 10:10:36</time>
      </trkpt>
      <trkpt lat="41.51963" lon="1.95532">
        <ele>356.2</ele>
        <time>2021-04-11 10:10:37</time>
      </trkpt>
      <trkpt lat="41.51966" lon="1.95534">
        <ele>356.4</ele>
        <time>2021-04-11 10:10:38</time>
      </trkpt>
      <trkpt lat="41.51969" lon="1.95535">
        <ele>356.6</ele>
        <time>2021-04-11 10:10:39</time>
      </trkpt>
      <trkpt lat="41.51972" lon="1.95538">
        <ele>356.8</ele>
        <time>2021-04-11 10:10:40</time>
      </trkpt>
      <trkpt lat="41.51975" lon="1.95541">
        <ele>357</ele>
        <time>2021-04-11 10:10:41</time>
      </trkpt>
      <trkpt lat="41.51978" lon="1.95545">
        <ele>357.2</ele>
        <time>2021-04-11 10:10:42</time>
      </trkpt>
      <trkpt lat="41.5198" lon="1.95549">
        <ele>357.4</ele>
        <time>2021-04-11 10:10:43</time>
      </trkpt>
      <trkpt lat="41.51981" lon="1.95553">
        <ele>357.8</ele>
        <time>2021-04-11 10:10:44</time>
      </trkpt>
      <trkpt lat="41.51982" lon="1.95558">
        <ele>358</ele>
        <time>2021-04-11 10:10:45</time>
      </trkpt>
      <trkpt lat="41.51983" lon="1.95563">
        <ele>358.2</ele>
        <time>2021-04-11 10:10:46</time>
      </trkpt>
      <trkpt lat="41.51984" lon="1.95567">
        <ele>358.6</ele>
        <time>2021-04-11 10:10:47</time>
      </trkpt>
      <trkpt lat="41.51985" lon="1.95572">
        <ele>358.8</ele>
        <time>2021-04-11 10:10:48</time>
      </trkpt>
      <trkpt lat="41.51986" lon="1.95577">
        <ele>359</ele>
        <time>2021-04-11 10:10:49</time>
      </trkpt>
      <trkpt lat="41.51987" lon="1.9558">
        <ele>359.2</ele>
        <time>2021-04-11 10:10:50</time>
      </trkpt>
      <trkpt lat="41.51989" lon="1.95585">
        <ele>359.4</ele>
        <time>2021-04-11 10:10:51</time>
      </trkpt>
      <trkpt lat="41.51992" lon="1.95588">
        <ele>359.6</ele>
        <time>2021-04-11 10:10:52</time>
      </trkpt>
      <trkpt lat="41.51995" lon="1.95591">
        <ele>359.8</ele>
        <time>2021-04-11 10:10:53</time>
      </trkpt>
      <trkpt lat="41.51998" lon="1.95593">
        <ele>360</ele>
        <time>2021-04-11 10:10:54</time>
      </trkpt>
      <trkpt lat="41.52002" lon="1.95594">
        <ele>360.2</ele>
        <time>2021-04-11 10:10:55</time>
      </trkpt>
      <trkpt lat="41.52006" lon="1.95594">
        <ele>360.6</ele>
        <time>2021-04-11 10:10:56</time>
      </trkpt>
      <trkpt lat="41.52009" lon="1.95593">
        <ele>360.8</ele>
        <time>2021-04-11 10:10:57</time>
      </trkpt>
      <trkpt lat="41.52013" lon="1.95591">
        <ele>360.8</ele>
        <time>2021-04-11 10:10:58</time>
      </trkpt>
      <trkpt lat="41.52015" lon="1.95588">
        <ele>361</ele>
        <time>2021-04-11 10:10:59</time>
      </trkpt>
      <trkpt lat="41.52018" lon="1.95584">
        <ele>361.2</ele>
        <time>2021-04-11 10:11:00</time>
      </trkpt>
      <trkpt lat="41.52021" lon="1.9558">
        <ele>361.4</ele>
        <time>2021-04-11 10:11:01</time>
      </trkpt>
      <trkpt lat="41.52023" lon="1.95576">
        <ele>361.4</ele>
        <time>2021-04-11 10:11:02</time>
      </trkpt>
      <trkpt lat="41.52026" lon="1.95572">
        <ele>361.6</ele>
        <time>2021-04-11 10:11:03</time>
      </trkpt>
      <trkpt lat="41.52029" lon="1.95568">
        <ele>361.8</ele>
        <time>2021-04-11 10:11:04</time>
      </trkpt>
      <trkpt lat="41.52032" lon="1.95564">
        <ele>361.8</ele>
        <time>2021-04-11 10:11:05</time>
      </trkpt>
      <trkpt lat="41.52034" lon="1.9556">
        <ele>362</ele>
        <time>2021-04-11 10:11:06</time>
      </trkpt>
      <trkpt lat="41.52037" lon="1.95555">
        <ele>362</ele>
        <time>2021-04-11 10:11:07</time>
      </trkpt>
      <trkpt lat="41.5204" lon="1.95551">
        <ele>362.2</ele>
        <time>2021-04-11 10:11:08</time>
      </trkpt>
      <trkpt lat="41.52042" lon="1.95547">
        <ele>362.4</ele>
        <time>2021-04-11 10:11:09</time>
      </trkpt>
      <trkpt lat="41.52045" lon="1.95543">
        <ele>362.6</ele>
        <time>2021-04-11 10:11:10</time>
      </trkpt>
      <trkpt lat="41.52047" lon="1.9554">
        <ele>362.6</ele>
        <time>2021-04-11 10:11:11</time>
      </trkpt>
      <trkpt lat="41.52051" lon="1.95536">
        <ele>362.8</ele>
        <time>2021-04-11 10:11:12</time>
      </trkpt>
      <trkpt lat="41.52054" lon="1.95534">
        <ele>363</ele>
        <time>2021-04-11 10:11:13</time>
      </trkpt>
      <trkpt lat="41.52058" lon="1.95533">
        <ele>363.2</ele>
        <time>2021-04-11 10:11:14</time>
      </trkpt>
      <trkpt lat="41.52062" lon="1.95534">
        <ele>363.2</ele>
        <time>2021-04-11 10:11:15</time>
      </trkpt>
      <trkpt lat="41.52066" lon="1.95536">
        <ele>363.4</ele>
        <time>2021-04-11 10:11:16</time>
      </trkpt>
      <trkpt lat="41.52069" lon="1.95539">
        <ele>363.6</ele>
        <time>2021-04-11 10:11:17</time>
      </trkpt>
      <trkpt lat="41.52071" lon="1.95543">
        <ele>363.8</ele>
        <time>2021-04-11 10:11:18</time>
      </trkpt>
      <trkpt lat="41.52072" lon="1.95547">
        <ele>364</ele>
        <time>2021-04-11 10:11:19</time>
      </trkpt>
      <trkpt lat="41.52074" lon="1.95552">
        <ele>364.2</ele>
        <time>2021-04-11 10:11:20</time>
      </trkpt>
      <trkpt lat="41.52076" lon="1.95557">
        <ele>364.4</ele>
        <time>2021-04-11 10:11:21</time>
      </trkpt>
      <trkpt lat="41.52077" lon="1.95562">
        <ele>364.6</ele>
        <time>2021-04-11 10:11:22</time>
      </trkpt>
      <trkpt lat="41.52079" lon="1.95567">
        <ele>364.8</ele>
        <time>2021-04-11 10:11:23</time>
      </trkpt>
      <trkpt lat="41.52081" lon="1.95572">
        <ele>365</ele>
        <time>2021-04-11 10:11:24</time>
      </trkpt>
      <trkpt lat="41.52083" lon="1.95577">
        <ele>365.2</ele>
        <time>2021-04-11 10:11:25</time>
      </trkpt>
      <trkpt lat="41.52086" lon="1.95581">
        <ele>365.6</ele>
        <time>2021-04-11 10:11:26</time>
      </trkpt>
      <trkpt lat="41.52088" lon="1.95585">
        <ele>365.8</ele>
        <time>2021-04-11 10:11:27</time>
      </trkpt>
      <trkpt lat="41.52091" lon="1.95589">
        <ele>366</ele>
        <time>2021-04-11 10:11:28</time>
      </trkpt>
      <trkpt lat="41.52095" lon="1.95592">
        <ele>366</ele>
        <time>2021-04-11 10:11:29</time>
      </trkpt>
      <trkpt lat="41.52098" lon="1.95596">
        <ele>366.2</ele>
        <time>2021-04-11 10:11:30</time>
      </trkpt>
      <trkpt lat="41.52101" lon="1.956">
        <ele>366.4</ele>
        <time>2021-04-11 10:11:31</time>
      </trkpt>
      <trkpt lat="41.52104" lon="1.95605">
        <ele>366.6</ele>
        <time>2021-04-11 10:11:32</time>
      </trkpt>
      <trkpt lat="41.52106" lon="1.95609">
        <ele>366.6</ele>
        <time>2021-04-11 10:11:33</time>
      </trkpt>
      <trkpt lat="41.52108" lon="1.95614">
        <ele>366.8</ele>
        <time>2021-04-11 10:11:34</time>
      </trkpt>
      <trkpt lat="41.52109" lon="1.95619">
        <ele>367</ele>
        <time>2021-04-11 10:11:35</time>
      </trkpt>
      <trkpt lat="41.52111" lon="1.95625">
        <ele>367.2</ele>
        <time>2021-04-11 10:11:36</time>
      </trkpt>
      <trkpt lat="41.52112" lon="1.9563">
        <ele>367.4</ele>
        <time>2021-04-11 10:11:37</time>
      </trkpt>
      <trkpt lat="41.52113" lon="1.95635">
        <ele>367.6</ele>
        <time>2021-04-11 10:11:38</time>
      </trkpt>
      <trkpt lat="41.52115" lon="1.9564">
        <ele>368</ele>
        <time>2021-04-11 10:11:39</time>
      </trkpt>
      <trkpt lat="41.52117" lon="1.95645">
        <ele>368.2</ele>
        <time>2021-04-11 10:11:40</time>
      </trkpt>
      <trkpt lat="41.5212" lon="1.9565">
        <ele>368.2</ele>
        <time>2021-04-11 10:11:41</time>
      </trkpt>
      <trkpt lat="41.52122" lon="1.95655">
        <ele>368.4</ele>
        <time>2021-04-11 10:11:42</time>
      </trkpt>
      <trkpt lat="41.52125" lon="1.95659">
        <ele>368.6</ele>
        <time>2021-04-11 10:11:43</time>
      </trkpt>
      <trkpt lat="41.52127" lon="1.95664">
        <ele>368.8</ele>
        <time>2021-04-11 10:11:44</time>
      </trkpt>
      <trkpt lat="41.52131" lon="1.95668">
        <ele>368.8</ele>
        <time>2021-04-11 10:11:45</time>
      </trkpt>
      <trkpt lat="41.52134" lon="1.95672">
        <ele>369</ele>
        <time>2021-04-11 10:11:46</time>
      </trkpt>
      <trkpt lat="41.52138" lon="1.95675">
        <ele>369</ele>
        <time>2021-04-11 10:11:47</time>
      </trkpt>
      <trkpt lat="41.52142" lon="1.95677">
        <ele>369.2</ele>
        <time>2021-04-11 10:11:48</time>
      </trkpt>
      <trkpt lat="41.52147" lon="1.95677">
        <ele>369.4</ele>
        <time>2021-04-11 10:11:49</time>
      </trkpt>
      <trkpt lat="41.52151" lon="1.95676">
        <ele>369.4</ele>
        <time>2021-04-11 10:11:50</time>
      </trkpt>
      <trkpt lat="41.52156" lon="1.95673">
        <ele>369.6</ele>
        <time>2021-04-11 10:11:51</time>
      </trkpt>
      <trkpt lat="41.52159" lon="1.9567">
        <ele>369.8</ele>
        <time>2021-04-11 10:11:52</time>
      </trkpt>
      <trkpt lat="41.52163" lon="1.95666">
        <ele>370</ele>
        <time>2021-04-11 10:11:53</time>
      </trkpt>
      <trkpt lat="41.52166" lon="1.95662">
        <ele>370.2</ele>
        <time>2021-04-11 10:11:54</time>
      </trkpt>
      <trkpt lat="41.52169" lon="1.95658">
        <ele>370.4</ele>
        <time>2021-04-11 10:11:55</time>
      </trkpt>
      <trkpt lat="41.52172" lon="1.95653">
        <ele>370.4</ele>
        <time>2021-04-11 10:11:56</time>
      </trkpt>
      <trkpt lat="41.52175" lon="1.95648">
        <ele>370.8</ele>
        <time>2021-04-11 10:11:57</time>
      </trkpt>
      <trkpt lat="41.52178" lon="1.95644">
        <ele>370.8</ele>
        <time>2021-04-11 10:11:58</time>
      </trkpt>
      <trkpt lat="41.52182" lon="1.95639">
        <ele>371.2</ele>
        <time>2021-04-11 10:11:59</time>
      </trkpt>
      <trkpt lat="41.52185" lon="1.95634">
        <ele>371.2</ele>
        <time>2021-04-11 10:12:00</time>
      </trkpt>
      <trkpt lat="41.52187" lon="1.95628">
        <ele>371.4</ele>
        <time>2021-04-11 10:12:01</time>
      </trkpt>
      <trkpt lat="41.5219" lon="1.95623">
        <ele>371.6</ele>
        <time>2021-04-11 10:12:02</time>
      </trkpt>
      <trkpt lat="41.52191" lon="1.95617">
        <ele>371.8</ele>
        <time>2021-04-11 10:12:03</time>
      </trkpt>
      <trkpt lat="41.52193" lon="1.95611">
        <ele>372</ele>
        <time>2021-04-11 10:12:04</time>
      </trkpt>
      <trkpt lat="41.52194" lon="1.95605">
        <ele>372</ele>
        <time>2021-04-11 10:12:05</time>
      </trkpt>
      <trkpt lat="41.52195" lon="1.95599">
        <ele>372.2</ele>
        <time>2021-04-11 10:12:06</time>
      </trkpt>
      <trkpt lat="41.52196" lon="1.95592">
        <ele>372.4</ele>
        <time>2021-04-11 10:12:07</time>
      </trkpt>
      <trkpt lat="41.52197" lon="1.95586">
        <ele>372.6</ele>
        <time>2021-04-11 10:12:08</time>
      </trkpt>
      <trkpt lat="41.52199" lon="1.95579">
        <ele>372.8</ele>
        <time>2021-04-11 10:12:09</time>
      </trkpt>
      <trkpt lat="41.52201" lon="1.95573">
        <ele>372.8</ele>
        <time>2021-04-11 10:12:10</time>
      </trkpt>
      <trkpt lat="41.52203" lon="1.95568">
        <ele>373</ele>
        <time>2021-04-11 10:12:11</time>
      </trkpt>
      <trkpt lat="41.52206" lon="1.95563">
        <ele>373.2</ele>
        <time>2021-04-11 10:12:12</time>
      </trkpt>
      <trkpt lat="41.5221" lon="1.95558">
        <ele>373.4</ele>
        <time>2021-04-11 10:12:13</time>
      </trkpt>
      <trkpt lat="41.52214" lon="1.95553">
        <ele>373.8</ele>
        <time>2021-04-11 10:12:14</time>
      </trkpt>
      <trkpt lat="41.52217" lon="1.95548">
        <ele>374</ele>
        <time>2021-04-11 10:12:15</time>
      </trkpt>
      <trkpt lat="41.5222" lon="1.95543">
        <ele>374.2</ele>
        <time>2021-04-11 10:12:16</time>
      </trkpt>
      <trkpt lat="41.52222" lon="1.95537">
        <ele>374.2</ele>
        <time>2021-04-11 10:12:17</time>
      </trkpt>
      <trkpt lat="41.52224" lon="1.95531">
        <ele>374.6</ele>
        <time>2021-04-11 10:12:18</time>
      </trkpt>
      <trkpt lat="41.52226" lon="1.95525">
        <ele>374.8</ele>
        <time>2021-04-11 10:12:19</time>
      </trkpt>
      <trkpt lat="41.52227" lon="1.95518">
        <ele>375</ele>
        <time>2021-04-11 10:12:20</time>
      </trkpt>
      <trkpt lat="41.52228" lon="1.95511">
        <ele>375</ele>
        <time>2021-04-11 10:12:21</time>
      </trkpt>
      <trkpt lat="41.52229" lon="1.95504">
        <ele>375.2</ele>
        <time>2021-04-11 10:12:22</time>
      </trkpt>
      <trkpt lat="41.5223" lon="1.95497">
        <ele>375.4</ele>
        <time>2021-04-11 10:12:23</time>
      </trkpt>
      <trkpt lat="41.52231" lon="1.9549">
        <ele>375.6</ele>
        <time>2021-04-11 10:12:24</time>
      </trkpt>
      <trkpt lat="41.52233" lon="1.95483">
        <ele>375.8</ele>
        <time>2021-04-11 10:12:25</time>
      </trkpt>
      <trkpt lat="41.52236" lon="1.95477">
        <ele>375.8</ele>
        <time>2021-04-11 10:12:26</time>
      </trkpt>
      <trkpt lat="41.52239" lon="1.95471">
        <ele>376</ele>
        <time>2021-04-11 10:12:27</time>
      </trkpt>
      <trkpt lat="41.52242" lon="1.95465">
        <ele>376.2</ele>
        <time>2021-04-11 10:12:28</time>
      </trkpt>
      <trkpt lat="41.52244" lon="1.95459">
        <ele>376.6</ele>
        <time>2021-04-11 10:12:29</time>
      </trkpt>
      <trkpt lat="41.52247" lon="1.95453">
        <ele>376.8</ele>
        <time>2021-04-11 10:12:30</time>
      </trkpt>
      <trkpt lat="41.52249" lon="1.95447">
        <ele>377</ele>
        <time>2021-04-11 10:12:31</time>
      </trkpt>
      <trkpt lat="41.5225" lon="1.9544">
        <ele>377.4</ele>
        <time>2021-04-11 10:12:32</time>
      </trkpt>
      <trkpt lat="41.52251" lon="1.95433">
        <ele>377.6</ele>
        <time>2021-04-11 10:12:33</time>
      </trkpt>
      <trkpt lat="41.52252" lon="1.95427">
        <ele>377.8</ele>
        <time>2021-04-11 10:12:34</time>
      </trkpt>
      <trkpt lat="41.52254" lon="1.9542">
        <ele>378</ele>
        <time>2021-04-11 10:12:35</time>
      </trkpt>
      <trkpt lat="41.52257" lon="1.95415">
        <ele>378.2</ele>
        <time>2021-04-11 10:12:36</time>
      </trkpt>
      <trkpt lat="41.5226" lon="1.95409">
        <ele>378.4</ele>
        <time>2021-04-11 10:12:37</time>
      </trkpt>
      <trkpt lat="41.52263" lon="1.95405">
        <ele>378.6</ele>
        <time>2021-04-11 10:12:38</time>
      </trkpt>
      <trkpt lat="41.52267" lon="1.95401">
        <ele>378.8</ele>
        <time>2021-04-11 10:12:39</time>
      </trkpt>
      <trkpt lat="41.52272" lon="1.95399">
        <ele>379</ele>
        <time>2021-04-11 10:12:40</time>
      </trkpt>
      <trkpt lat="41.52277" lon="1.95397">
        <ele>379.4</ele>
        <time>2021-04-11 10:12:41</time>
      </trkpt>
      <trkpt lat="41.52282" lon="1.95396">
        <ele>379.6</ele>
        <time>2021-04-11 10:12:42</time>
      </trkpt>
      <trkpt lat="41.52287" lon="1.95396">
        <ele>379.8</ele>
        <time>2021-04-11 10:12:43</time>
      </trkpt>
      <trkpt lat="41.52292" lon="1.95397">
        <ele>380</ele>
        <time>2021-04-11 10:12:44</time>
      </trkpt>
      <trkpt lat="41.52297" lon="1.95399">
        <ele>380.2</ele>
        <time>2021-04-11 10:12:45</time>
      </trkpt>
      <trkpt lat="41.52303" lon="1.95401">
        <ele>380.4</ele>
        <time>2021-04-11 10:12:46</time>
      </trkpt>
      <trkpt lat="41.52308" lon="1.95403">
        <ele>380.6</ele>
        <time>2021-04-11 10:12:47</time>
      </trkpt>
      <trkpt lat="41.52313" lon="1.95405">
        <ele>381</ele>
        <time>2021-04-11 10:12:48</time>
      </trkpt>
      <trkpt lat="41.52317" lon="1.95408">
        <ele>381</ele>
        <time>2021-04-11 10:12:49</time>
      </trkpt>
      <trkpt lat="41.52323" lon="1.95411">
        <ele>381.2</ele>
        <time>2021-04-11 10:12:50</time>
      </trkpt>
      <trkpt lat="41.52328" lon="1.95414">
        <ele>381.4</ele>
        <time>2021-04-11 10:12:51</time>
      </trkpt>
      <trkpt lat="41.52332" lon="1.95418">
        <ele>381.4</ele>
        <time>2021-04-11 10:12:52</time>
      </trkpt>
      <trkpt lat="41.52337" lon="1.95423">
        <ele>381.4</ele>
        <time>2021-04-11 10:12:53</time>
      </trkpt>
      <trkpt lat="41.5234" lon="1.95429">
        <ele>381.6</ele>
        <time>2021-04-11 10:12:54</time>
      </trkpt>
      <trkpt lat="41.52344" lon="1.95435">
        <ele>381.6</ele>
        <time>2021-04-11 10:12:55</time>
      </trkpt>
      <trkpt lat="41.52347" lon="1.95441">
        <ele>381.8</ele>
        <time>2021-04-11 10:12:56</time>
      </trkpt>
      <trkpt lat="41.52349" lon="1.95447">
        <ele>382</ele>
        <time>2021-04-11 10:12:57</time>
      </trkpt>
      <trkpt lat="41.52351" lon="1.95454">
        <ele>382</ele>
        <time>2021-04-11 10:12:58</time>
      </trkpt>
      <trkpt lat="41.52354" lon="1.9546">
        <ele>382.2</ele>
        <time>2021-04-11 10:12:59</time>
      </trkpt>
      <trkpt lat="41.52355" lon="1.95466">
        <ele>382.4</ele>
        <time>2021-04-11 10:13:00</time>
      </trkpt>
      <trkpt lat="41.52356" lon="1.95471">
        <ele>382.6</ele>
        <time>2021-04-11 10:13:01</time>
      </trkpt>
      <trkpt lat="41.52357" lon="1.95474">
        <ele>382.8</ele>
        <time>2021-04-11 10:13:02</time>
      </trkpt>
      <trkpt lat="41.52359" lon="1.95475">
        <ele>383</ele>
        <time>2021-04-11 10:13:03</time>
      </trkpt>
      <trkpt lat="41.5236" lon="1.95474">
        <ele>383.2</ele>
        <time>2021-04-11 10:13:04</time>
      </trkpt>
      <trkpt lat="41.52359" lon="1.95471">
        <ele>383.2</ele>
        <time>2021-04-11 10:13:05</time>
      </trkpt>
      <trkpt lat="41.52358" lon="1.95468">
        <ele>383.2</ele>
        <time>2021-04-11 10:13:06</time>
      </trkpt>
      <trkpt lat="41.52356" lon="1.95464">
        <ele>383.2</ele>
        <time>2021-04-11 10:13:07</time>
      </trkpt>
      <trkpt lat="41.52354" lon="1.95459">
        <ele>383</ele>
        <time>2021-04-11 10:13:08</time>
      </trkpt>
      <trkpt lat="41.52352" lon="1.95454">
        <ele>383</ele>
        <time>2021-04-11 10:13:09</time>
      </trkpt>
      <trkpt lat="41.5235" lon="1.95447">
        <ele>382.8</ele>
        <time>2021-04-11 10:13:10</time>
      </trkpt>
      <trkpt lat="41.52347" lon="1.95441">
        <ele>382.8</ele>
        <time>2021-04-11 10:13:11</time>
      </trkpt>
      <trkpt lat="41.52345" lon="1.95435">
        <ele>382.6</ele>
        <time>2021-04-11 10:13:12</time>
      </trkpt>
      <trkpt lat="41.52342" lon="1.95429">
        <ele>382.6</ele>
        <time>2021-04-11 10:13:13</time>
      </trkpt>
      <trkpt lat="41.52338" lon="1.95423">
        <ele>382.4</ele>
        <time>2021-04-11 10:13:14</time>
      </trkpt>
      <trkpt lat="41.52334" lon="1.95418">
        <ele>382.4</ele>
        <time>2021-04-11 10:13:15</time>
      </trkpt>
      <trkpt lat="41.52329" lon="1.95413">
        <ele>382.2</ele>
        <time>2021-04-11 10:13:16</time>
      </trkpt>
      <trkpt lat="41.52323" lon="1.95409">
        <ele>382.2</ele>
        <time>2021-04-11 10:13:17</time>
      </trkpt>
      <trkpt lat="41.52317" lon="1.95406">
        <ele>382</ele>
        <time>2021-04-11 10:13:18</time>
      </trkpt>
      <trkpt lat="41.52311" lon="1.95403">
        <ele>381.8</ele>
        <time>2021-04-11 10:13:19</time>
      </trkpt>
      <trkpt lat="41.52304" lon="1.95399">
        <ele>381.6</ele>
        <time>2021-04-11 10:13:20</time>
      </trkpt>
      <trkpt lat="41.52298" lon="1.95396">
        <ele>381.4</ele>
        <time>2021-04-11 10:13:21</time>
      </trkpt>
      <trkpt lat="41.52291" lon="1.95394">
        <ele>381.2</ele>
        <time>2021-04-11 10:13:22</time>
      </trkpt>
      <trkpt lat="41.52283" lon="1.95394">
        <ele>380.8</ele>
        <time>2021-04-11 10:13:23</time>
      </trkpt>
      <trkpt lat="41.52277" lon="1.95395">
        <ele>380.4</ele>
        <time>2021-04-11 10:13:24</time>
      </trkpt>
      <trkpt lat="41.52268" lon="1.95398">
        <ele>380.2</ele>
        <time>2021-04-11 10:13:25</time>
      </trkpt>
      <trkpt lat="41.52261" lon="1.95402">
        <ele>379.8</ele>
        <time>2021-04-11 10:13:26</time>
      </trkpt>
      <trkpt lat="41.52255" lon="1.95409">
        <ele>379.4</ele>
        <time>2021-04-11 10:13:27</time>
      </trkpt>
      <trkpt lat="41.52249" lon="1.95417">
        <ele>379</ele>
        <time>2021-04-11 10:13:28</time>
      </trkpt>
      <trkpt lat="41.52246" lon="1.95427">
        <ele>378.6</ele>
        <time>2021-04-11 10:13:29</time>
      </trkpt>
      <trkpt lat="41.52243" lon="1.9544">
        <ele>378.2</ele>
        <time>2021-04-11 10:13:30</time>
      </trkpt>
      <trkpt lat="41.5224" lon="1.95452">
        <ele>377.8</ele>
        <time>2021-04-11 10:13:31</time>
      </trkpt>
      <trkpt lat="41.52236" lon="1.95466">
        <ele>377.2</ele>
        <time>2021-04-11 10:13:32</time>
      </trkpt>
      <trkpt lat="41.52231" lon="1.95477">
        <ele>376.8</ele>
        <time>2021-04-11 10:13:33</time>
      </trkpt>
      <trkpt lat="41.52228" lon="1.95488">
        <ele>376.2</ele>
        <time>2021-04-11 10:13:34</time>
      </trkpt>
      <trkpt lat="41.52225" lon="1.95503">
        <ele>376</ele>
        <time>2021-04-11 10:13:35</time>
      </trkpt>
      <trkpt lat="41.52224" lon="1.95516">
        <ele>375.6</ele>
        <time>2021-04-11 10:13:36</time>
      </trkpt>
      <trkpt lat="41.52222" lon="1.95529">
        <ele>375.2</ele>
        <time>2021-04-11 10:13:37</time>
      </trkpt>
      <trkpt lat="41.52218" lon="1.9554">
        <ele>374.8</ele>
        <time>2021-04-11 10:13:38</time>
      </trkpt>
      <trkpt lat="41.52212" lon="1.95549">
        <ele>374.6</ele>
        <time>2021-04-11 10:13:39</time>
      </trkpt>
      <trkpt lat="41.52205" lon="1.95559">
        <ele>374.2</ele>
        <time>2021-04-11 10:13:40</time>
      </trkpt>
      <trkpt lat="41.522" lon="1.95568">
        <ele>374</ele>
        <time>2021-04-11 10:13:41</time>
      </trkpt>
      <trkpt lat="41.52196" lon="1.95577">
        <ele>373.8</ele>
        <time>2021-04-11 10:13:42</time>
      </trkpt>
      <trkpt lat="41.52194" lon="1.95588">
        <ele>373.6</ele>
        <time>2021-04-11 10:13:43</time>
      </trkpt>
      <trkpt lat="41.52192" lon="1.95598">
        <ele>373.4</ele>
        <time>2021-04-11 10:13:44</time>
      </trkpt>
      <trkpt lat="41.5219" lon="1.95607">
        <ele>373.2</ele>
        <time>2021-04-11 10:13:45</time>
      </trkpt>
      <trkpt lat="41.52189" lon="1.95614">
        <ele>373</ele>
        <time>2021-04-11 10:13:46</time>
      </trkpt>
      <trkpt lat="41.52187" lon="1.9562">
        <ele>372.8</ele>
        <time>2021-04-11 10:13:47</time>
      </trkpt>
      <trkpt lat="41.52187" lon="1.95623">
        <ele>372.8</ele>
        <time>2021-04-11 10:13:48</time>
      </trkpt>
      <trkpt lat="41.52188" lon="1.95624">
        <ele>372.8</ele>
        <time>2021-04-11 10:13:49</time>
      </trkpt>
      <trkpt lat="41.52189" lon="1.95624">
        <ele>372.8</ele>
        <time>2021-04-11 10:13:50</time>
      </trkpt>
      <trkpt lat="41.5219" lon="1.95622">
        <ele>372.8</ele>
        <time>2021-04-11 10:13:51</time>
      </trkpt>
      <trkpt lat="41.52191" lon="1.95619">
        <ele>372.8</ele>
        <time>2021-04-11 10:13:52</time>
      </trkpt>
      <trkpt lat="41.52191" lon="1.95616">
        <ele>372.8</ele>
        <time>2021-04-11 10:13:53</time>
      </trkpt>
      <trkpt lat="41.52192" lon="1.95612">
        <ele>372.8</ele>
        <time>2021-04-11 10:13:54</time>
      </trkpt>
      <trkpt lat="41.52193" lon="1.95607">
        <ele>372.8</ele>
        <time>2021-04-11 10:13:55</time>
      </trkpt>
      <trkpt lat="41.52194" lon="1.95602">
        <ele>372.8</ele>
        <time>2021-04-11 10:13:56</time>
      </trkpt>
      <trkpt lat="41.52195" lon="1.95596">
        <ele>372.8</ele>
        <time>2021-04-11 10:13:57</time>
      </trkpt>
      <trkpt lat="41.52196" lon="1.95591">
        <ele>372.8</ele>
        <time>2021-04-11 10:13:58</time>
      </trkpt>
      <trkpt lat="41.52198" lon="1.95584">
        <ele>372.8</ele>
        <time>2021-04-11 10:13:59</time>
      </trkpt>
      <trkpt lat="41.522" lon="1.95577">
        <ele>372.8</ele>
        <time>2021-04-11 10:14:00</time>
      </trkpt>
      <trkpt lat="41.52203" lon="1.9557">
        <ele>373</ele>
        <time>2021-04-11 10:14:01</time>
      </trkpt>
      <trkpt lat="41.52206" lon="1.95564">
        <ele>373</ele>
        <time>2021-04-11 10:14:02</time>
      </trkpt>
      <trkpt lat="41.5221" lon="1.95558">
        <ele>373.2</ele>
        <time>2021-04-11 10:14:03</time>
      </trkpt>
      <trkpt lat="41.52214" lon="1.95553">
        <ele>373.4</ele>
        <time>2021-04-11 10:14:04</time>
      </trkpt>
      <trkpt lat="41.52217" lon="1.95547">
        <ele>373.6</ele>
        <time>2021-04-11 10:14:05</time>
      </trkpt>
      <trkpt lat="41.5222" lon="1.95542">
        <ele>373.8</ele>
        <time>2021-04-11 10:14:06</time>
      </trkpt>
      <trkpt lat="41.52223" lon="1.95537">
        <ele>374</ele>
        <time>2021-04-11 10:14:07</time>
      </trkpt>
      <trkpt lat="41.52225" lon="1.95531">
        <ele>374.4</ele>
        <time>2021-04-11 10:14:08</time>
      </trkpt>
      <trkpt lat="41.52227" lon="1.95524">
        <ele>374.6</ele>
        <time>2021-04-11 10:14:09</time>
      </trkpt>
      <trkpt lat="41.52227" lon="1.95518">
        <ele>374.8</ele>
        <time>2021-04-11 10:14:10</time>
      </trkpt>
      <trkpt lat="41.52228" lon="1.95512">
        <ele>375</ele>
        <time>2021-04-11 10:14:11</time>
      </trkpt>
      <trkpt lat="41.52227" lon="1.95505">
        <ele>375.4</ele>
        <time>2021-04-11 10:14:12</time>
      </trkpt>
      <trkpt lat="41.52227" lon="1.955">
        <ele>375.6</ele>
        <time>2021-04-11 10:14:13</time>
      </trkpt>
      <trkpt lat="41.52228" lon="1.95494">
        <ele>375.6</ele>
        <time>2021-04-11 10:14:14</time>
      </trkpt>
      <trkpt lat="41.5223" lon="1.95488">
        <ele>375.8</ele>
        <time>2021-04-11 10:14:15</time>
      </trkpt>
      <trkpt lat="41.52233" lon="1.95483">
        <ele>376</ele>
        <time>2021-04-11 10:14:16</time>
      </trkpt>
      <trkpt lat="41.52236" lon="1.95478">
        <ele>376.2</ele>
        <time>2021-04-11 10:14:17</time>
      </trkpt>
      <trkpt lat="41.52239" lon="1.95474">
        <ele>376.4</ele>
        <time>2021-04-11 10:14:18</time>
      </trkpt>
      <trkpt lat="41.52241" lon="1.95469">
        <ele>376.6</ele>
        <time>2021-04-11 10:14:19</time>
      </trkpt>
      <trkpt lat="41.52244" lon="1.95465">
        <ele>376.6</ele>
        <time>2021-04-11 10:14:20</time>
      </trkpt>
      <trkpt lat="41.52247" lon="1.9546">
        <ele>376.8</ele>
        <time>2021-04-11 10:14:21</time>
      </trkpt>
      <trkpt lat="41.52249" lon="1.95455">
        <ele>377.2</ele>
        <time>2021-04-11 10:14:22</time>
      </trkpt>
      <trkpt lat="41.5225" lon="1.95451">
        <ele>377.4</ele>
        <time>2021-04-11 10:14:23</time>
      </trkpt>
      <trkpt lat="41.52251" lon="1.95445">
        <ele>377.6</ele>
        <time>2021-04-11 10:14:24</time>
      </trkpt>
      <trkpt lat="41.52251" lon="1.9544">
        <ele>377.8</ele>
        <time>2021-04-11 10:14:25</time>
      </trkpt>
      <trkpt lat="41.52252" lon="1.95435">
        <ele>378</ele>
        <time>2021-04-11 10:14:26</time>
      </trkpt>
      <trkpt lat="41.52253" lon="1.9543">
        <ele>378</ele>
        <time>2021-04-11 10:14:27</time>
      </trkpt>
      <trkpt lat="41.52254" lon="1.95425">
        <ele>378.2</ele>
        <time>2021-04-11 10:14:28</time>
      </trkpt>
      <trkpt lat="41.52256" lon="1.9542">
        <ele>378.4</ele>
        <time>2021-04-11 10:14:29</time>
      </trkpt>
      <trkpt lat="41.52258" lon="1.95416">
        <ele>378.6</ele>
        <time>2021-04-11 10:14:30</time>
      </trkpt>
      <trkpt lat="41.5226" lon="1.95412">
        <ele>378.8</ele>
        <time>2021-04-11 10:14:31</time>
      </trkpt>
      <trkpt lat="41.52263" lon="1.95408">
        <ele>379</ele>
        <time>2021-04-11 10:14:32</time>
      </trkpt>
      <trkpt lat="41.52265" lon="1.95405">
        <ele>379.2</ele>
        <time>2021-04-11 10:14:33</time>
      </trkpt>
      <trkpt lat="41.52269" lon="1.95403">
        <ele>379.2</ele>
        <time>2021-04-11 10:14:34</time>
      </trkpt>
      <trkpt lat="41.52272" lon="1.95401">
        <ele>379.6</ele>
        <time>2021-04-11 10:14:35</time>
      </trkpt>
      <trkpt lat="41.52276" lon="1.954">
        <ele>379.6</ele>
        <time>2021-04-11 10:14:36</time>
      </trkpt>
      <trkpt lat="41.5228" lon="1.95399">
        <ele>379.8</ele>
        <time>2021-04-11 10:14:37</time>
      </trkpt>
      <trkpt lat="41.52283" lon="1.95399">
        <ele>380.2</ele>
        <time>2021-04-11 10:14:38</time>
      </trkpt>
      <trkpt lat="41.52287" lon="1.95399">
        <ele>380.4</ele>
        <time>2021-04-11 10:14:39</time>
      </trkpt>
      <trkpt lat="41.52291" lon="1.954">
        <ele>380.6</ele>
        <time>2021-04-11 10:14:40</time>
      </trkpt>
      <trkpt lat="41.52295" lon="1.95401">
        <ele>380.8</ele>
        <time>2021-04-11 10:14:41</time>
      </trkpt>
      <trkpt lat="41.52299" lon="1.95402">
        <ele>380.8</ele>
        <time>2021-04-11 10:14:42</time>
      </trkpt>
      <trkpt lat="41.52302" lon="1.95404">
        <ele>381</ele>
        <time>2021-04-11 10:14:43</time>
      </trkpt>
      <trkpt lat="41.52306" lon="1.95405">
        <ele>381.2</ele>
        <time>2021-04-11 10:14:44</time>
      </trkpt>
      <trkpt lat="41.5231" lon="1.95407">
        <ele>381.2</ele>
        <time>2021-04-11 10:14:45</time>
      </trkpt>
      <trkpt lat="41.52314" lon="1.95409">
        <ele>381.4</ele>
        <time>2021-04-11 10:14:46</time>
      </trkpt>
      <trkpt lat="41.52318" lon="1.95411">
        <ele>381.6</ele>
        <time>2021-04-11 10:14:47</time>
      </trkpt>
      <trkpt lat="41.52321" lon="1.95413">
        <ele>381.6</ele>
        <time>2021-04-11 10:14:48</time>
      </trkpt>
      <trkpt lat="41.52326" lon="1.95415">
        <ele>381.8</ele>
        <time>2021-04-11 10:14:49</time>
      </trkpt>
      <trkpt lat="41.52329" lon="1.95418">
        <ele>381.8</ele>
        <time>2021-04-11 10:14:50</time>
      </trkpt>
      <trkpt lat="41.52333" lon="1.95421">
        <ele>381.8</ele>
        <time>2021-04-11 10:14:51</time>
      </trkpt>
      <trkpt lat="41.52336" lon="1.95425">
        <ele>381.8</ele>
        <time>2021-04-11 10:14:52</time>
      </trkpt>
      <trkpt lat="41.52339" lon="1.9543">
        <ele>381.8</ele>
        <time>2021-04-11 10:14:53</time>
      </trkpt>
      <trkpt lat="41.52342" lon="1.95435">
        <ele>381.8</ele>
        <time>2021-04-11 10:14:54</time>
      </trkpt>
      <trkpt lat="41.52344" lon="1.9544">
        <ele>382</ele>
        <time>2021-04-11 10:14:55</time>
      </trkpt>
      <trkpt lat="41.52346" lon="1.95445">
        <ele>382</ele>
        <time>2021-04-11 10:14:56</time>
      </trkpt>
      <trkpt lat="41.52348" lon="1.95451">
        <ele>382.2</ele>
        <time>2021-04-11 10:14:57</time>
      </trkpt>
      <trkpt lat="41.5235" lon="1.95456">
        <ele>382.4</ele>
        <time>2021-04-11 10:14:58</time>
      </trkpt>
      <trkpt lat="41.52353" lon="1.95462">
        <ele>382.6</ele>
        <time>2021-04-11 10:14:59</time>
      </trkpt>
      <trkpt lat="41.52354" lon="1.95467">
        <ele>382.6</ele>
        <time>2021-04-11 10:15:00</time>
      </trkpt>
      <trkpt lat="41.52356" lon="1.95473">
        <ele>382.8</ele>
        <time>2021-04-11 10:15:01</time>
      </trkpt>
      <trkpt lat="41.52359" lon="1.95478">
        <ele>383</ele>
        <time>2021-04-11 10:15:02</time>
      </trkpt>
      <trkpt lat="41.5236" lon="1.95483">
        <ele>383.2</ele>
        <time>2021-04-11 10:15:03</time>
      </trkpt>
      <trkpt lat="41.52363" lon="1.95489">
        <ele>383.4</ele>
        <time>2021-04-11 10:15:04</time>
      </trkpt>
      <trkpt lat="41.52366" lon="1.95494">
        <ele>383.6</ele>
        <time>2021-04-11 10:15:05</time>
      </trkpt>
      <trkpt lat="41.52368" lon="1.95499">
        <ele>383.6</ele>
        <time>2021-04-11 10:15:06</time>
      </trkpt>
      <trkpt lat="41.52372" lon="1.95504">
        <ele>383.8</ele>
        <time>2021-04-11 10:15:07</time>
      </trkpt>
      <trkpt lat="41.52375" lon="1.95509">
        <ele>384</ele>
        <time>2021-04-11 10:15:08</time>
      </trkpt>
      <trkpt lat="41.52378" lon="1.95514">
        <ele>384</ele>
        <time>2021-04-11 10:15:09</time>
      </trkpt>
      <trkpt lat="41.52381" lon="1.95519">
        <ele>384.2</ele>
        <time>2021-04-11 10:15:10</time>
      </trkpt>
      <trkpt lat="41.52385" lon="1.95524">
        <ele>384.2</ele>
        <time>2021-04-11 10:15:11</time>
      </trkpt>
      <trkpt lat="41.52388" lon="1.95528">
        <ele>384.2</ele>
        <time>2021-04-11 10:15:12</time>
      </trkpt>
      <trkpt lat="41.52392" lon="1.95533">
        <ele>384.2</ele>
        <time>2021-04-11 10:15:13</time>
      </trkpt>
      <trkpt lat="41.52396" lon="1.95538">
        <ele>384.4</ele>
        <time>2021-04-11 10:15:14</time>
      </trkpt>
      <trkpt lat="41.524" lon="1.95541">
        <ele>384.4</ele>
        <time>2021-04-11 10:15:15</time>
      </trkpt>
      <trkpt lat="41.52404" lon="1.95544">
        <ele>384.6</ele>
        <time>2021-04-11 10:15:16</time>
      </trkpt>
      <trkpt lat="41.52409" lon="1.95544">
        <ele>384.6</ele>
        <time>2021-04-11 10:15:17</time>
      </trkpt>
      <trkpt lat="41.52413" lon="1.95543">
        <ele>384.8</ele>
        <time>2021-04-11 10:15:18</time>
      </trkpt>
      <trkpt lat="41.52417" lon="1.9554">
        <ele>385</ele>
        <time>2021-04-11 10:15:19</time>
      </trkpt>
      <trkpt lat="41.5242" lon="1.95536">
        <ele>385.2</ele>
        <time>2021-04-11 10:15:20</time>
      </trkpt>
      <trkpt lat="41.52423" lon="1.95531">
        <ele>385.4</ele>
        <time>2021-04-11 10:15:21</time>
      </trkpt>
      <trkpt lat="41.52427" lon="1.95526">
        <ele>385.6</ele>
        <time>2021-04-11 10:15:22</time>
      </trkpt>
      <trkpt lat="41.5243" lon="1.95521">
        <ele>385.8</ele>
        <time>2021-04-11 10:15:23</time>
      </trkpt>
      <trkpt lat="41.52433" lon="1.95516">
        <ele>386.2</ele>
        <time>2021-04-11 10:15:24</time>
      </trkpt>
      <trkpt lat="41.52437" lon="1.95511">
        <ele>386.4</ele>
        <time>2021-04-11 10:15:25</time>
      </trkpt>
      <trkpt lat="41.5244" lon="1.95506">
        <ele>386.6</ele>
        <time>2021-04-11 10:15:26</time>
      </trkpt>
      <trkpt lat="41.52443" lon="1.95502">
        <ele>386.8</ele>
        <time>2021-04-11 10:15:27</time>
      </trkpt>
      <trkpt lat="41.52447" lon="1.95498">
        <ele>387</ele>
        <time>2021-04-11 10:15:28</time>
      </trkpt>
      <trkpt lat="41.52451" lon="1.95494">
        <ele>387.2</ele>
        <time>2021-04-11 10:15:29</time>
      </trkpt>
      <trkpt lat="41.52455" lon="1.9549">
        <ele>387.4</ele>
        <time>2021-04-11 10:15:30</time>
      </trkpt>
      <trkpt lat="41.52459" lon="1.95486">
        <ele>387.4</ele>
        <time>2021-04-11 10:15:31</time>
      </trkpt>
      <trkpt lat="41.52463" lon="1.95482">
        <ele>387.6</ele>
        <time>2021-04-11 10:15:32</time>
      </trkpt>
      <trkpt lat="41.52467" lon="1.95478">
        <ele>387.6</ele>
        <time>2021-04-11 10:15:33</time>
      </trkpt>
      <trkpt lat="41.52472" lon="1.95475">
        <ele>387.6</ele>
        <time>2021-04-11 10:15:34</time>
      </trkpt>
      <trkpt lat="41.52476" lon="1.95472">
        <ele>387.6</ele>
        <time>2021-04-11 10:15:35</time>
      </trkpt>
      <trkpt lat="41.52482" lon="1.95469">
        <ele>387.6</ele>
        <time>2021-04-11 10:15:36</time>
      </trkpt>
      <trkpt lat="41.52486" lon="1.95468">
        <ele>387.6</ele>
        <time>2021-04-11 10:15:37</time>
      </trkpt>
      <trkpt lat="41.52492" lon="1.95469">
        <ele>387.6</ele>
        <time>2021-04-11 10:15:38</time>
      </trkpt>
      <trkpt lat="41.52497" lon="1.95471">
        <ele>387.6</ele>
        <time>2021-04-11 10:15:39</time>
      </trkpt>
      <trkpt lat="41.52502" lon="1.95474">
        <ele>387.6</ele>
        <time>2021-04-11 10:15:40</time>
      </trkpt>
      <trkpt lat="41.52505" lon="1.9548">
        <ele>387.6</ele>
        <time>2021-04-11 10:15:41</time>
      </trkpt>
      <trkpt lat="41.52508" lon="1.95485">
        <ele>387.6</ele>
        <time>2021-04-11 10:15:42</time>
      </trkpt>
      <trkpt lat="41.5251" lon="1.95492">
        <ele>387.6</ele>
        <time>2021-04-11 10:15:43</time>
      </trkpt>
      <trkpt lat="41.52511" lon="1.95499">
        <ele>387.6</ele>
        <time>2021-04-11 10:15:44</time>
      </trkpt>
      <trkpt lat="41.52512" lon="1.95506">
        <ele>387.6</ele>
        <time>2021-04-11 10:15:45</time>
      </trkpt>
      <trkpt lat="41.52513" lon="1.95513">
        <ele>387.6</ele>
        <time>2021-04-11 10:15:46</time>
      </trkpt>
      <trkpt lat="41.52514" lon="1.95519">
        <ele>387.6</ele>
        <time>2021-04-11 10:15:47</time>
      </trkpt>
      <trkpt lat="41.52515" lon="1.95527">
        <ele>387.6</ele>
        <time>2021-04-11 10:15:48</time>
      </trkpt>
      <trkpt lat="41.52516" lon="1.95534">
        <ele>387.6</ele>
        <time>2021-04-11 10:15:49</time>
      </trkpt>
      <trkpt lat="41.52518" lon="1.95541">
        <ele>387.8</ele>
        <time>2021-04-11 10:15:50</time>
      </trkpt>
      <trkpt lat="41.5252" lon="1.95547">
        <ele>387.8</ele>
        <time>2021-04-11 10:15:51</time>
      </trkpt>
      <trkpt lat="41.52524" lon="1.95553">
        <ele>387.6</ele>
        <time>2021-04-11 10:15:52</time>
      </trkpt>
      <trkpt lat="41.52528" lon="1.95558">
        <ele>387.4</ele>
        <time>2021-04-11 10:15:53</time>
      </trkpt>
      <trkpt lat="41.52534" lon="1.95561">
        <ele>387.2</ele>
        <time>2021-04-11 10:15:54</time>
      </trkpt>
      <trkpt lat="41.5254" lon="1.95563">
        <ele>387</ele>
        <time>2021-04-11 10:15:55</time>
      </trkpt>
      <trkpt lat="41.52546" lon="1.95564">
        <ele>386.8</ele>
        <time>2021-04-11 10:15:56</time>
      </trkpt>
      <trkpt lat="41.52553" lon="1.95563">
        <ele>386.4</ele>
        <time>2021-04-11 10:15:57</time>
      </trkpt>
      <trkpt lat="41.5256" lon="1.95562">
        <ele>385.8</ele>
        <time>2021-04-11 10:15:58</time>
      </trkpt>
      <trkpt lat="41.52568" lon="1.95558">
        <ele>385.4</ele>
        <time>2021-04-11 10:15:59</time>
      </trkpt>
      <trkpt lat="41.52575" lon="1.95555">
        <ele>384.8</ele>
        <time>2021-04-11 10:16:00</time>
      </trkpt>
      <trkpt lat="41.52583" lon="1.95552">
        <ele>384.2</ele>
        <time>2021-04-11 10:16:01</time>
      </trkpt>
      <trkpt lat="41.52591" lon="1.95549">
        <ele>383.8</ele>
        <time>2021-04-11 10:16:02</time>
      </trkpt>
      <trkpt lat="41.52599" lon="1.95547">
        <ele>383.2</ele>
        <time>2021-04-11 10:16:03</time>
      </trkpt>
      <trkpt lat="41.52607" lon="1.95546">
        <ele>382.8</ele>
        <time>2021-04-11 10:16:04</time>
      </trkpt>
      <trkpt lat="41.52615" lon="1.95545">
        <ele>382.4</ele>
        <time>2021-04-11 10:16:05</time>
      </trkpt>
      <trkpt lat="41.52623" lon="1.95548">
        <ele>382</ele>
        <time>2021-04-11 10:16:06</time>
      </trkpt>
      <trkpt lat="41.5263" lon="1.95553">
        <ele>381.6</ele>
        <time>2021-04-11 10:16:07</time>
      </trkpt>
      <trkpt lat="41.52634" lon="1.95562">
        <ele>381.2</ele>
        <time>2021-04-11 10:16:08</time>
      </trkpt>
      <trkpt lat="41.52636" lon="1.95573">
        <ele>380.8</ele>
        <time>2021-04-11 10:16:09</time>
      </trkpt>
      <trkpt lat="41.52637" lon="1.95585">
        <ele>380.6</ele>
        <time>2021-04-11 10:16:10</time>
      </trkpt>
      <trkpt lat="41.52638" lon="1.95595">
        <ele>380.4</ele>
        <time>2021-04-11 10:16:11</time>
      </trkpt>
      <trkpt lat="41.52638" lon="1.95606">
        <ele>380.4</ele>
        <time>2021-04-11 10:16:12</time>
      </trkpt>
      <trkpt lat="41.52637" lon="1.95619">
        <ele>380.2</ele>
        <time>2021-04-11 10:16:13</time>
      </trkpt>
      <trkpt lat="41.52636" lon="1.9563">
        <ele>380</ele>
        <time>2021-04-11 10:16:14</time>
      </trkpt>
      <trkpt lat="41.52634" lon="1.95642">
        <ele>379.8</ele>
        <time>2021-04-11 10:16:15</time>
      </trkpt>
      <trkpt lat="41.52631" lon="1.95652">
        <ele>379.8</ele>
        <time>2021-04-11 10:16:16</time>
      </trkpt>
      <trkpt lat="41.52629" lon="1.95662">
        <ele>379.8</ele>
        <time>2021-04-11 10:16:17</time>
      </trkpt>
      <trkpt lat="41.52626" lon="1.95673">
        <ele>379.8</ele>
        <time>2021-04-11 10:16:18</time>
      </trkpt>
      <trkpt lat="41.52624" lon="1.95683">
        <ele>379.6</ele>
        <time>2021-04-11 10:16:19</time>
      </trkpt>
      <trkpt lat="41.52623" lon="1.95693">
        <ele>379.6</ele>
        <time>2021-04-11 10:16:20</time>
      </trkpt>
      <trkpt lat="41.52623" lon="1.95703">
        <ele>379.6</ele>
        <time>2021-04-11 10:16:21</time>
      </trkpt>
      <trkpt lat="41.52624" lon="1.95713">
        <ele>379.4</ele>
        <time>2021-04-11 10:16:22</time>
      </trkpt>
      <trkpt lat="41.52627" lon="1.95723">
        <ele>379.4</ele>
        <time>2021-04-11 10:16:23</time>
      </trkpt>
      <trkpt lat="41.52631" lon="1.95732">
        <ele>379.4</ele>
        <time>2021-04-11 10:16:24</time>
      </trkpt>
      <trkpt lat="41.52636" lon="1.95739">
        <ele>379.4</ele>
        <time>2021-04-11 10:16:25</time>
      </trkpt>
      <trkpt lat="41.52641" lon="1.95745">
        <ele>379.6</ele>
        <time>2021-04-11 10:16:26</time>
      </trkpt>
      <trkpt lat="41.52647" lon="1.9575">
        <ele>379.6</ele>
        <time>2021-04-11 10:16:27</time>
      </trkpt>
      <trkpt lat="41.52653" lon="1.95755">
        <ele>379.6</ele>
        <time>2021-04-11 10:16:28</time>
      </trkpt>
      <trkpt lat="41.5266" lon="1.95759">
        <ele>379.6</ele>
        <time>2021-04-11 10:16:29</time>
      </trkpt>
      <trkpt lat="41.52667" lon="1.95761">
        <ele>379.6</ele>
        <time>2021-04-11 10:16:30</time>
      </trkpt>
      <trkpt lat="41.52672" lon="1.95763">
        <ele>379.6</ele>
        <time>2021-04-11 10:16:31</time>
      </trkpt>
      <trkpt lat="41.5268" lon="1.95764">
        <ele>379.6</ele>
        <time>2021-04-11 10:16:32</time>
      </trkpt>
      <trkpt lat="41.52688" lon="1.95765">
        <ele>379.6</ele>
        <time>2021-04-11 10:16:33</time>
      </trkpt>
      <trkpt lat="41.52695" lon="1.95765">
        <ele>379.6</ele>
        <time>2021-04-11 10:16:34</time>
      </trkpt>
      <trkpt lat="41.52702" lon="1.95764">
        <ele>379.8</ele>
        <time>2021-04-11 10:16:35</time>
      </trkpt>
      <trkpt lat="41.52709" lon="1.95764">
        <ele>379.8</ele>
        <time>2021-04-11 10:16:36</time>
      </trkpt>
      <trkpt lat="41.52717" lon="1.95764">
        <ele>379.8</ele>
        <time>2021-04-11 10:16:37</time>
      </trkpt>
      <trkpt lat="41.52724" lon="1.95765">
        <ele>380</ele>
        <time>2021-04-11 10:16:38</time>
      </trkpt>
      <trkpt lat="41.52731" lon="1.95765">
        <ele>380</ele>
        <time>2021-04-11 10:16:39</time>
      </trkpt>
      <trkpt lat="41.52738" lon="1.95767">
        <ele>380.2</ele>
        <time>2021-04-11 10:16:40</time>
      </trkpt>
      <trkpt lat="41.52744" lon="1.95769">
        <ele>380.4</ele>
        <time>2021-04-11 10:16:41</time>
      </trkpt>
      <trkpt lat="41.5275" lon="1.95773">
        <ele>380.8</ele>
        <time>2021-04-11 10:16:42</time>
      </trkpt>
      <trkpt lat="41.52755" lon="1.95777">
        <ele>381.2</ele>
        <time>2021-04-11 10:16:43</time>
      </trkpt>
      <trkpt lat="41.52759" lon="1.95784">
        <ele>381.4</ele>
        <time>2021-04-11 10:16:44</time>
      </trkpt>
      <trkpt lat="41.52761" lon="1.95791">
        <ele>381.8</ele>
        <time>2021-04-11 10:16:45</time>
      </trkpt>
      <trkpt lat="41.52762" lon="1.95798">
        <ele>382.2</ele>
        <time>2021-04-11 10:16:46</time>
      </trkpt>
      <trkpt lat="41.52761" lon="1.95807">
        <ele>382.6</ele>
        <time>2021-04-11 10:16:47</time>
      </trkpt>
      <trkpt lat="41.52761" lon="1.95815">
        <ele>383</ele>
        <time>2021-04-11 10:16:48</time>
      </trkpt>
      <trkpt lat="41.5276" lon="1.95822">
        <ele>383.4</ele>
        <time>2021-04-11 10:16:49</time>
      </trkpt>
      <trkpt lat="41.52761" lon="1.9583">
        <ele>383.8</ele>
        <time>2021-04-11 10:16:50</time>
      </trkpt>
      <trkpt lat="41.52761" lon="1.95837">
        <ele>384.2</ele>
        <time>2021-04-11 10:16:51</time>
      </trkpt>
      <trkpt lat="41.52762" lon="1.95845">
        <ele>384.6</ele>
        <time>2021-04-11 10:16:52</time>
      </trkpt>
      <trkpt lat="41.52763" lon="1.95853">
        <ele>385</ele>
        <time>2021-04-11 10:16:53</time>
      </trkpt>
      <trkpt lat="41.52765" lon="1.9586">
        <ele>385.4</ele>
        <time>2021-04-11 10:16:54</time>
      </trkpt>
      <trkpt lat="41.52768" lon="1.95867">
        <ele>385.8</ele>
        <time>2021-04-11 10:16:55</time>
      </trkpt>
      <trkpt lat="41.5277" lon="1.95873">
        <ele>386.2</ele>
        <time>2021-04-11 10:16:56</time>
      </trkpt>
      <trkpt lat="41.52773" lon="1.9588">
        <ele>386.6</ele>
        <time>2021-04-11 10:16:57</time>
      </trkpt>
      <trkpt lat="41.52776" lon="1.95885">
        <ele>387</ele>
        <time>2021-04-11 10:16:58</time>
      </trkpt>
      <trkpt lat="41.52779" lon="1.95891">
        <ele>387.4</ele>
        <time>2021-04-11 10:16:59</time>
      </trkpt>
      <trkpt lat="41.52783" lon="1.95897">
        <ele>387.8</ele>
        <time>2021-04-11 10:17:00</time>
      </trkpt>
      <trkpt lat="41.52787" lon="1.95901">
        <ele>388.2</ele>
        <time>2021-04-11 10:17:01</time>
      </trkpt>
      <trkpt lat="41.52791" lon="1.95907">
        <ele>388.6</ele>
        <time>2021-04-11 10:17:02</time>
      </trkpt>
      <trkpt lat="41.52795" lon="1.95911">
        <ele>389</ele>
        <time>2021-04-11 10:17:03</time>
      </trkpt>
      <trkpt lat="41.528" lon="1.95916">
        <ele>389.4</ele>
        <time>2021-04-11 10:17:04</time>
      </trkpt>
      <trkpt lat="41.52804" lon="1.9592">
        <ele>390</ele>
        <time>2021-04-11 10:17:05</time>
      </trkpt>
      <trkpt lat="41.52808" lon="1.95924">
        <ele>390.4</ele>
        <time>2021-04-11 10:17:06</time>
      </trkpt>
      <trkpt lat="41.52812" lon="1.95928">
        <ele>390.8</ele>
        <time>2021-04-11 10:17:07</time>
      </trkpt>
      <trkpt lat="41.52817" lon="1.95932">
        <ele>391.2</ele>
        <time>2021-04-11 10:17:08</time>
      </trkpt>
      <trkpt lat="41.52821" lon="1.95937">
        <ele>391.6</ele>
        <time>2021-04-11 10:17:09</time>
      </trkpt>
      <trkpt lat="41.52824" lon="1.95942">
        <ele>391.8</ele>
        <time>2021-04-11 10:17:10</time>
      </trkpt>
      <trkpt lat="41.52828" lon="1.95948">
        <ele>392.2</ele>
        <time>2021-04-11 10:17:11</time>
      </trkpt>
      <trkpt lat="41.5283" lon="1.95955">
        <ele>392.4</ele>
        <time>2021-04-11 10:17:12</time>
      </trkpt>
      <trkpt lat="41.52832" lon="1.95962">
        <ele>392.6</ele>
        <time>2021-04-11 10:17:13</time>
      </trkpt>
      <trkpt lat="41.52833" lon="1.95969">
        <ele>392.8</ele>
        <time>2021-04-11 10:17:14</time>
      </trkpt>
      <trkpt lat="41.52834" lon="1.95976">
        <ele>393</ele>
        <time>2021-04-11 10:17:15</time>
      </trkpt>
      <trkpt lat="41.52835" lon="1.95983">
        <ele>393.2</ele>
        <time>2021-04-11 10:17:16</time>
      </trkpt>
      <trkpt lat="41.52837" lon="1.95991">
        <ele>393.4</ele>
        <time>2021-04-11 10:17:17</time>
      </trkpt>
      <trkpt lat="41.52838" lon="1.95998">
        <ele>393.6</ele>
        <time>2021-04-11 10:17:18</time>
      </trkpt>
      <trkpt lat="41.52839" lon="1.96006">
        <ele>393.8</ele>
        <time>2021-04-11 10:17:19</time>
      </trkpt>
      <trkpt lat="41.5284" lon="1.96013">
        <ele>394</ele>
        <time>2021-04-11 10:17:20</time>
      </trkpt>
      <trkpt lat="41.52841" lon="1.9602">
        <ele>394.2</ele>
        <time>2021-04-11 10:17:21</time>
      </trkpt>
      <trkpt lat="41.52842" lon="1.96027">
        <ele>394.4</ele>
        <time>2021-04-11 10:17:22</time>
      </trkpt>
      <trkpt lat="41.52843" lon="1.96034">
        <ele>394.6</ele>
        <time>2021-04-11 10:17:23</time>
      </trkpt>
      <trkpt lat="41.52844" lon="1.96041">
        <ele>394.6</ele>
        <time>2021-04-11 10:17:24</time>
      </trkpt>
      <trkpt lat="41.52845" lon="1.96048">
        <ele>394.8</ele>
        <time>2021-04-11 10:17:25</time>
      </trkpt>
      <trkpt lat="41.52846" lon="1.96055">
        <ele>395</ele>
        <time>2021-04-11 10:17:26</time>
      </trkpt>
      <trkpt lat="41.52847" lon="1.96062">
        <ele>395</ele>
        <time>2021-04-11 10:17:27</time>
      </trkpt>
      <trkpt lat="41.52846" lon="1.96068">
        <ele>395.2</ele>
        <time>2021-04-11 10:17:28</time>
      </trkpt>
      <trkpt lat="41.52845" lon="1.96075">
        <ele>395.2</ele>
        <time>2021-04-11 10:17:29</time>
      </trkpt>
      <trkpt lat="41.52843" lon="1.96081">
        <ele>395.4</ele>
        <time>2021-04-11 10:17:30</time>
      </trkpt>
      <trkpt lat="41.52841" lon="1.96086">
        <ele>395.4</ele>
        <time>2021-04-11 10:17:31</time>
      </trkpt>
      <trkpt lat="41.52838" lon="1.9609">
        <ele>395.6</ele>
        <time>2021-04-11 10:17:32</time>
      </trkpt>
      <trkpt lat="41.52835" lon="1.96095">
        <ele>395.6</ele>
        <time>2021-04-11 10:17:33</time>
      </trkpt>
      <trkpt lat="41.52832" lon="1.96098">
        <ele>395.8</ele>
        <time>2021-04-11 10:17:34</time>
      </trkpt>
      <trkpt lat="41.52829" lon="1.96102">
        <ele>395.8</ele>
        <time>2021-04-11 10:17:35</time>
      </trkpt>
      <trkpt lat="41.52827" lon="1.96105">
        <ele>395.8</ele>
        <time>2021-04-11 10:17:36</time>
      </trkpt>
      <trkpt lat="41.52825" lon="1.96107">
        <ele>396</ele>
        <time>2021-04-11 10:17:37</time>
      </trkpt>
      <trkpt lat="41.52823" lon="1.96109">
        <ele>396</ele>
        <time>2021-04-11 10:17:38</time>
      </trkpt>
      <trkpt lat="41.5282" lon="1.9611">
        <ele>396</ele>
        <time>2021-04-11 10:17:39</time>
      </trkpt>
      <trkpt lat="41.52818" lon="1.9611">
        <ele>396.2</ele>
        <time>2021-04-11 10:17:40</time>
      </trkpt>
      <trkpt lat="41.52816" lon="1.9611">
        <ele>396.2</ele>
        <time>2021-04-11 10:17:41</time>
      </trkpt>
      <trkpt lat="41.52815" lon="1.96111">
        <ele>396.2</ele>
        <time>2021-04-11 10:18:33</time>
      </trkpt>
      <trkpt lat="41.52815" lon="1.96111">
        <ele>396.2</ele>
        <time>2021-04-11 10:18:34</time>
      </trkpt>
      <trkpt lat="41.52813" lon="1.96115">
        <ele>396.2</ele>
        <time>2021-04-11 10:18:35</time>
      </trkpt>
      <trkpt lat="41.52811" lon="1.96117">
        <ele>396.2</ele>
        <time>2021-04-11 10:18:36</time>
      </trkpt>
      <trkpt lat="41.52809" lon="1.96118">
        <ele>396.4</ele>
        <time>2021-04-11 10:18:37</time>
      </trkpt>
      <trkpt lat="41.52806" lon="1.9612">
        <ele>396.4</ele>
        <time>2021-04-11 10:18:38</time>
      </trkpt>
      <trkpt lat="41.52803" lon="1.96122">
        <ele>396.4</ele>
        <time>2021-04-11 10:18:39</time>
      </trkpt>
      <trkpt lat="41.528" lon="1.96124">
        <ele>396.4</ele>
        <time>2021-04-11 10:18:40</time>
      </trkpt>
      <trkpt lat="41.52796" lon="1.96127">
        <ele>396.4</ele>
        <time>2021-04-11 10:18:41</time>
      </trkpt>
      <trkpt lat="41.52793" lon="1.96129">
        <ele>396.4</ele>
        <time>2021-04-11 10:18:42</time>
      </trkpt>
      <trkpt lat="41.52789" lon="1.96132">
        <ele>396.4</ele>
        <time>2021-04-11 10:18:43</time>
      </trkpt>
      <trkpt lat="41.52786" lon="1.96134">
        <ele>396.4</ele>
        <time>2021-04-11 10:18:44</time>
      </trkpt>
      <trkpt lat="41.52782" lon="1.96137">
        <ele>396.4</ele>
        <time>2021-04-11 10:18:45</time>
      </trkpt>
      <trkpt lat="41.52778" lon="1.96139">
        <ele>396.6</ele>
        <time>2021-04-11 10:18:46</time>
      </trkpt>
      <trkpt lat="41.52774" lon="1.96142">
        <ele>396.6</ele>
        <time>2021-04-11 10:18:47</time>
      </trkpt>
      <trkpt lat="41.5277" lon="1.96144">
        <ele>396.6</ele>
        <time>2021-04-11 10:18:48</time>
      </trkpt>
      <trkpt lat="41.52765" lon="1.9615">
        <ele>396.6</ele>
        <time>2021-04-11 10:18:49</time>
      </trkpt>
      <trkpt lat="41.52761" lon="1.96153">
        <ele>396.8</ele>
        <time>2021-04-11 10:18:50</time>
      </trkpt>
      <trkpt lat="41.52757" lon="1.96155">
        <ele>396.8</ele>
        <time>2021-04-11 10:18:51</time>
      </trkpt>
      <trkpt lat="41.52754" lon="1.96159">
        <ele>397</ele>
        <time>2021-04-11 10:18:52</time>
      </trkpt>
      <trkpt lat="41.5275" lon="1.96162">
        <ele>397</ele>
        <time>2021-04-11 10:18:53</time>
      </trkpt>
      <trkpt lat="41.52746" lon="1.96165">
        <ele>397</ele>
        <time>2021-04-11 10:18:54</time>
      </trkpt>
      <trkpt lat="41.52742" lon="1.96169">
        <ele>397.2</ele>
        <time>2021-04-11 10:18:55</time>
      </trkpt>
      <trkpt lat="41.52738" lon="1.96173">
        <ele>397.2</ele>
        <time>2021-04-11 10:18:56</time>
      </trkpt>
      <trkpt lat="41.52735" lon="1.96178">
        <ele>397.4</ele>
        <time>2021-04-11 10:18:57</time>
      </trkpt>
      <trkpt lat="41.52731" lon="1.96183">
        <ele>397.4</ele>
        <time>2021-04-11 10:18:58</time>
      </trkpt>
      <trkpt lat="41.52728" lon="1.96188">
        <ele>397.4</ele>
        <time>2021-04-11 10:18:59</time>
      </trkpt>
      <trkpt lat="41.52725" lon="1.96193">
        <ele>397.6</ele>
        <time>2021-04-11 10:19:00</time>
      </trkpt>
      <trkpt lat="41.52723" lon="1.96198">
        <ele>397.6</ele>
        <time>2021-04-11 10:19:01</time>
      </trkpt>
      <trkpt lat="41.52721" lon="1.96203">
        <ele>397.6</ele>
        <time>2021-04-11 10:19:02</time>
      </trkpt>
      <trkpt lat="41.5272" lon="1.96209">
        <ele>397.6</ele>
        <time>2021-04-11 10:19:03</time>
      </trkpt>
      <trkpt lat="41.52719" lon="1.96215">
        <ele>397.6</ele>
        <time>2021-04-11 10:19:04</time>
      </trkpt>
      <trkpt lat="41.52718" lon="1.96222">
        <ele>397.6</ele>
        <time>2021-04-11 10:19:05</time>
      </trkpt>
      <trkpt lat="41.52717" lon="1.96229">
        <ele>397.4</ele>
        <time>2021-04-11 10:19:06</time>
      </trkpt>
      <trkpt lat="41.52716" lon="1.96234">
        <ele>397.4</ele>
        <time>2021-04-11 10:19:07</time>
      </trkpt>
      <trkpt lat="41.52715" lon="1.96241">
        <ele>397.4</ele>
        <time>2021-04-11 10:19:08</time>
      </trkpt>
      <trkpt lat="41.52713" lon="1.96248">
        <ele>397.4</ele>
        <time>2021-04-11 10:19:09</time>
      </trkpt>
      <trkpt lat="41.52713" lon="1.96254">
        <ele>397.6</ele>
        <time>2021-04-11 10:19:10</time>
      </trkpt>
      <trkpt lat="41.52712" lon="1.9626">
        <ele>397.6</ele>
        <time>2021-04-11 10:19:11</time>
      </trkpt>
      <trkpt lat="41.52711" lon="1.96266">
        <ele>397.6</ele>
        <time>2021-04-11 10:19:12</time>
      </trkpt>
      <trkpt lat="41.5271" lon="1.96273">
        <ele>397.8</ele>
        <time>2021-04-11 10:19:13</time>
      </trkpt>
      <trkpt lat="41.52709" lon="1.9628">
        <ele>397.8</ele>
        <time>2021-04-11 10:19:14</time>
      </trkpt>
      <trkpt lat="41.52708" lon="1.96287">
        <ele>397.8</ele>
        <time>2021-04-11 10:19:15</time>
      </trkpt>
      <trkpt lat="41.52707" lon="1.96293">
        <ele>397.8</ele>
        <time>2021-04-11 10:19:16</time>
      </trkpt>
      <trkpt lat="41.52705" lon="1.963">
        <ele>398</ele>
        <time>2021-04-11 10:19:17</time>
      </trkpt>
      <trkpt lat="41.52704" lon="1.96306">
        <ele>398</ele>
        <time>2021-04-11 10:19:18</time>
      </trkpt>
      <trkpt lat="41.52702" lon="1.96312">
        <ele>398</ele>
        <time>2021-04-11 10:19:19</time>
      </trkpt>
      <trkpt lat="41.52701" lon="1.96319">
        <ele>398.2</ele>
        <time>2021-04-11 10:19:20</time>
      </trkpt>
      <trkpt lat="41.527" lon="1.96325">
        <ele>398.2</ele>
        <time>2021-04-11 10:19:21</time>
      </trkpt>
      <trkpt lat="41.52699" lon="1.96331">
        <ele>398.2</ele>
        <time>2021-04-11 10:19:22</time>
      </trkpt>
      <trkpt lat="41.52697" lon="1.96337">
        <ele>398.4</ele>
        <time>2021-04-11 10:19:23</time>
      </trkpt>
      <trkpt lat="41.52697" lon="1.96342">
        <ele>398.6</ele>
        <time>2021-04-11 10:19:24</time>
      </trkpt>
      <trkpt lat="41.52696" lon="1.96348">
        <ele>398.8</ele>
        <time>2021-04-11 10:19:25</time>
      </trkpt>
      <trkpt lat="41.52694" lon="1.96353">
        <ele>398.8</ele>
        <time>2021-04-11 10:19:26</time>
      </trkpt>
      <trkpt lat="41.52693" lon="1.96358">
        <ele>398.8</ele>
        <time>2021-04-11 10:19:27</time>
      </trkpt>
      <trkpt lat="41.52691" lon="1.96365">
        <ele>398.8</ele>
        <time>2021-04-11 10:19:28</time>
      </trkpt>
      <trkpt lat="41.5269" lon="1.96371">
        <ele>398.8</ele>
        <time>2021-04-11 10:19:29</time>
      </trkpt>
      <trkpt lat="41.52689" lon="1.96379">
        <ele>398.6</ele>
        <time>2021-04-11 10:19:30</time>
      </trkpt>
      <trkpt lat="41.52689" lon="1.96386">
        <ele>398.4</ele>
        <time>2021-04-11 10:19:31</time>
      </trkpt>
      <trkpt lat="41.52689" lon="1.96394">
        <ele>398.2</ele>
        <time>2021-04-11 10:19:32</time>
      </trkpt>
      <trkpt lat="41.52687" lon="1.96403">
        <ele>397.8</ele>
        <time>2021-04-11 10:19:33</time>
      </trkpt>
      <trkpt lat="41.52686" lon="1.96413">
        <ele>397.6</ele>
        <time>2021-04-11 10:19:34</time>
      </trkpt>
      <trkpt lat="41.52684" lon="1.96422">
        <ele>397.2</ele>
        <time>2021-04-11 10:19:35</time>
      </trkpt>
      <trkpt lat="41.52682" lon="1.96432">
        <ele>397</ele>
        <time>2021-04-11 10:19:36</time>
      </trkpt>
      <trkpt lat="41.52681" lon="1.96441">
        <ele>396.8</ele>
        <time>2021-04-11 10:19:37</time>
      </trkpt>
      <trkpt lat="41.52679" lon="1.96451">
        <ele>396.4</ele>
        <time>2021-04-11 10:19:38</time>
      </trkpt>
      <trkpt lat="41.52677" lon="1.96461">
        <ele>396</ele>
        <time>2021-04-11 10:19:39</time>
      </trkpt>
      <trkpt lat="41.52676" lon="1.96471">
        <ele>395.6</ele>
        <time>2021-04-11 10:19:40</time>
      </trkpt>
      <trkpt lat="41.52674" lon="1.96482">
        <ele>395.4</ele>
        <time>2021-04-11 10:19:41</time>
      </trkpt>
      <trkpt lat="41.52672" lon="1.96492">
        <ele>395.2</ele>
        <time>2021-04-11 10:19:42</time>
      </trkpt>
      <trkpt lat="41.5267" lon="1.96503">
        <ele>394.8</ele>
        <time>2021-04-11 10:19:43</time>
      </trkpt>
      <trkpt lat="41.52668" lon="1.96513">
        <ele>394.6</ele>
        <time>2021-04-11 10:19:44</time>
      </trkpt>
      <trkpt lat="41.52667" lon="1.96524">
        <ele>394.4</ele>
        <time>2021-04-11 10:19:45</time>
      </trkpt>
      <trkpt lat="41.52665" lon="1.96535">
        <ele>394</ele>
        <time>2021-04-11 10:19:46</time>
      </trkpt>
      <trkpt lat="41.52663" lon="1.96544">
        <ele>393.8</ele>
        <time>2021-04-11 10:19:47</time>
      </trkpt>
      <trkpt lat="41.52661" lon="1.96556">
        <ele>393.6</ele>
        <time>2021-04-11 10:19:48</time>
      </trkpt>
      <trkpt lat="41.5266" lon="1.96567">
        <ele>393.4</ele>
        <time>2021-04-11 10:19:49</time>
      </trkpt>
      <trkpt lat="41.52659" lon="1.96577">
        <ele>393.2</ele>
        <time>2021-04-11 10:19:50</time>
      </trkpt>
      <trkpt lat="41.52659" lon="1.96589">
        <ele>393</ele>
        <time>2021-04-11 10:19:51</time>
      </trkpt>
      <trkpt lat="41.5266" lon="1.96598">
        <ele>393</ele>
        <time>2021-04-11 10:19:52</time>
      </trkpt>
      <trkpt lat="41.52661" lon="1.96608">
        <ele>392.8</ele>
        <time>2021-04-11 10:19:53</time>
      </trkpt>
      <trkpt lat="41.52663" lon="1.96618">
        <ele>392.8</ele>
        <time>2021-04-11 10:19:54</time>
      </trkpt>
      <trkpt lat="41.52664" lon="1.96628">
        <ele>392.8</ele>
        <time>2021-04-11 10:19:55</time>
      </trkpt>
      <trkpt lat="41.52665" lon="1.96638">
        <ele>393</ele>
        <time>2021-04-11 10:19:56</time>
      </trkpt>
      <trkpt lat="41.52666" lon="1.96647">
        <ele>393</ele>
        <time>2021-04-11 10:19:57</time>
      </trkpt>
      <trkpt lat="41.52668" lon="1.96657">
        <ele>393.2</ele>
        <time>2021-04-11 10:19:58</time>
      </trkpt>
      <trkpt lat="41.52669" lon="1.96666">
        <ele>393.4</ele>
        <time>2021-04-11 10:19:59</time>
      </trkpt>
      <trkpt lat="41.52671" lon="1.96676">
        <ele>393.6</ele>
        <time>2021-04-11 10:20:00</time>
      </trkpt>
      <trkpt lat="41.52672" lon="1.96684">
        <ele>393.6</ele>
        <time>2021-04-11 10:20:01</time>
      </trkpt>
      <trkpt lat="41.52673" lon="1.96692">
        <ele>394</ele>
        <time>2021-04-11 10:20:02</time>
      </trkpt>
      <trkpt lat="41.52675" lon="1.96702">
        <ele>394</ele>
        <time>2021-04-11 10:20:03</time>
      </trkpt>
      <trkpt lat="41.52677" lon="1.96711">
        <ele>394.2</ele>
        <time>2021-04-11 10:20:04</time>
      </trkpt>
      <trkpt lat="41.52678" lon="1.9672">
        <ele>394.4</ele>
        <time>2021-04-11 10:20:05</time>
      </trkpt>
      <trkpt lat="41.52679" lon="1.96729">
        <ele>394.6</ele>
        <time>2021-04-11 10:20:06</time>
      </trkpt>
      <trkpt lat="41.5268" lon="1.96737">
        <ele>394.8</ele>
        <time>2021-04-11 10:20:07</time>
      </trkpt>
      <trkpt lat="41.52682" lon="1.96746">
        <ele>395</ele>
        <time>2021-04-11 10:20:08</time>
      </trkpt>
      <trkpt lat="41.52683" lon="1.96754">
        <ele>395.2</ele>
        <time>2021-04-11 10:20:09</time>
      </trkpt>
      <trkpt lat="41.52685" lon="1.96762">
        <ele>395.4</ele>
        <time>2021-04-11 10:20:10</time>
      </trkpt>
      <trkpt lat="41.52687" lon="1.9677">
        <ele>395.4</ele>
        <time>2021-04-11 10:20:11</time>
      </trkpt>
      <trkpt lat="41.52689" lon="1.96778">
        <ele>395.6</ele>
        <time>2021-04-11 10:20:12</time>
      </trkpt>
      <trkpt lat="41.52691" lon="1.96786">
        <ele>395.6</ele>
        <time>2021-04-11 10:20:13</time>
      </trkpt>
      <trkpt lat="41.52693" lon="1.96794">
        <ele>395.4</ele>
        <time>2021-04-11 10:20:14</time>
      </trkpt>
      <trkpt lat="41.52696" lon="1.96802">
        <ele>395.4</ele>
        <time>2021-04-11 10:20:15</time>
      </trkpt>
      <trkpt lat="41.52698" lon="1.96811">
        <ele>395.4</ele>
        <time>2021-04-11 10:20:16</time>
      </trkpt>
      <trkpt lat="41.52701" lon="1.96819">
        <ele>395.2</ele>
        <time>2021-04-11 10:20:17</time>
      </trkpt>
      <trkpt lat="41.52704" lon="1.96828">
        <ele>394.8</ele>
        <time>2021-04-11 10:20:18</time>
      </trkpt>
      <trkpt lat="41.52707" lon="1.96838">
        <ele>394.6</ele>
        <time>2021-04-11 10:20:19</time>
      </trkpt>
      <trkpt lat="41.5271" lon="1.96847">
        <ele>394.2</ele>
        <time>2021-04-11 10:20:20</time>
      </trkpt>
      <trkpt lat="41.52713" lon="1.96857">
        <ele>393.8</ele>
        <time>2021-04-11 10:20:21</time>
      </trkpt>
      <trkpt lat="41.52716" lon="1.96867">
        <ele>393.4</ele>
        <time>2021-04-11 10:20:22</time>
      </trkpt>
      <trkpt lat="41.52719" lon="1.96878">
        <ele>392.8</ele>
        <time>2021-04-11 10:20:23</time>
      </trkpt>
      <trkpt lat="41.52722" lon="1.96889">
        <ele>392.2</ele>
        <time>2021-04-11 10:20:24</time>
      </trkpt>
      <trkpt lat="41.52726" lon="1.969">
        <ele>391.6</ele>
        <time>2021-04-11 10:20:25</time>
      </trkpt>
      <trkpt lat="41.52729" lon="1.96912">
        <ele>391</ele>
        <time>2021-04-11 10:20:26</time>
      </trkpt>
      <trkpt lat="41.52732" lon="1.96924">
        <ele>390.2</ele>
        <time>2021-04-11 10:20:27</time>
      </trkpt>
      <trkpt lat="41.52735" lon="1.96938">
        <ele>389.6</ele>
        <time>2021-04-11 10:20:28</time>
      </trkpt>
      <trkpt lat="41.52736" lon="1.96951">
        <ele>389</ele>
        <time>2021-04-11 10:20:29</time>
      </trkpt>
      <trkpt lat="41.52736" lon="1.96966">
        <ele>388.4</ele>
        <time>2021-04-11 10:20:30</time>
      </trkpt>
      <trkpt lat="41.52736" lon="1.9698">
        <ele>387.6</ele>
        <time>2021-04-11 10:20:31</time>
      </trkpt>
      <trkpt lat="41.52737" lon="1.96994">
        <ele>387</ele>
        <time>2021-04-11 10:20:32</time>
      </trkpt>
      <trkpt lat="41.52738" lon="1.97009">
        <ele>386.2</ele>
        <time>2021-04-11 10:20:33</time>
      </trkpt>
      <trkpt lat="41.52741" lon="1.97023">
        <ele>385.6</ele>
        <time>2021-04-11 10:20:34</time>
      </trkpt>
      <trkpt lat="41.52745" lon="1.97038">
        <ele>384.8</ele>
        <time>2021-04-11 10:20:35</time>
      </trkpt>
      <trkpt lat="41.5275" lon="1.97052">
        <ele>384.2</ele>
        <time>2021-04-11 10:20:36</time>
      </trkpt>
      <trkpt lat="41.52754" lon="1.97065">
        <ele>383.6</ele>
        <time>2021-04-11 10:20:37</time>
      </trkpt>
      <trkpt lat="41.5276" lon="1.97079">
        <ele>383</ele>
        <time>2021-04-11 10:20:38</time>
      </trkpt>
      <trkpt lat="41.52767" lon="1.97092">
        <ele>382.4</ele>
        <time>2021-04-11 10:20:39</time>
      </trkpt>
      <trkpt lat="41.52774" lon="1.97104">
        <ele>381.6</ele>
        <time>2021-04-11 10:20:40</time>
      </trkpt>
      <trkpt lat="41.52782" lon="1.97115">
        <ele>381</ele>
        <time>2021-04-11 10:20:41</time>
      </trkpt>
      <trkpt lat="41.52789" lon="1.97126">
        <ele>380.2</ele>
        <time>2021-04-11 10:20:42</time>
      </trkpt>
      <trkpt lat="41.52798" lon="1.97136">
        <ele>379.8</ele>
        <time>2021-04-11 10:20:43</time>
      </trkpt>
      <trkpt lat="41.52806" lon="1.97146">
        <ele>379.6</ele>
        <time>2021-04-11 10:20:44</time>
      </trkpt>
      <trkpt lat="41.52814" lon="1.97155">
        <ele>379.2</ele>
        <time>2021-04-11 10:20:45</time>
      </trkpt>
      <trkpt lat="41.52823" lon="1.97165">
        <ele>379</ele>
        <time>2021-04-11 10:20:46</time>
      </trkpt>
      <trkpt lat="41.52831" lon="1.97172">
        <ele>378.6</ele>
        <time>2021-04-11 10:20:47</time>
      </trkpt>
      <trkpt lat="41.52841" lon="1.97181">
        <ele>378.4</ele>
        <time>2021-04-11 10:20:48</time>
      </trkpt>
      <trkpt lat="41.5285" lon="1.97187">
        <ele>378</ele>
        <time>2021-04-11 10:20:49</time>
      </trkpt>
      <trkpt lat="41.5286" lon="1.97193">
        <ele>377.4</ele>
        <time>2021-04-11 10:20:50</time>
      </trkpt>
      <trkpt lat="41.5287" lon="1.97199">
        <ele>377</ele>
        <time>2021-04-11 10:20:51</time>
      </trkpt>
      <trkpt lat="41.5288" lon="1.97205">
        <ele>376.6</ele>
        <time>2021-04-11 10:20:52</time>
      </trkpt>
      <trkpt lat="41.5289" lon="1.97213">
        <ele>376.4</ele>
        <time>2021-04-11 10:20:53</time>
      </trkpt>
      <trkpt lat="41.52899" lon="1.9722">
        <ele>376</ele>
        <time>2021-04-11 10:20:54</time>
      </trkpt>
      <trkpt lat="41.52907" lon="1.97229">
        <ele>375.8</ele>
        <time>2021-04-11 10:20:55</time>
      </trkpt>
      <trkpt lat="41.52914" lon="1.97238">
        <ele>375.6</ele>
        <time>2021-04-11 10:20:56</time>
      </trkpt>
      <trkpt lat="41.52921" lon="1.97247">
        <ele>375.4</ele>
        <time>2021-04-11 10:20:57</time>
      </trkpt>
      <trkpt lat="41.52928" lon="1.97256">
        <ele>375.4</ele>
        <time>2021-04-11 10:20:58</time>
      </trkpt>
      <trkpt lat="41.52935" lon="1.97266">
        <ele>375.4</ele>
        <time>2021-04-11 10:20:59</time>
      </trkpt>
      <trkpt lat="41.52942" lon="1.97274">
        <ele>375.4</ele>
        <time>2021-04-11 10:21:00</time>
      </trkpt>
      <trkpt lat="41.5295" lon="1.97284">
        <ele>375.4</ele>
        <time>2021-04-11 10:21:01</time>
      </trkpt>
      <trkpt lat="41.52956" lon="1.97292">
        <ele>375.4</ele>
        <time>2021-04-11 10:21:02</time>
      </trkpt>
      <trkpt lat="41.52963" lon="1.97302">
        <ele>375.4</ele>
        <time>2021-04-11 10:21:03</time>
      </trkpt>
      <trkpt lat="41.5297" lon="1.97311">
        <ele>375.4</ele>
        <time>2021-04-11 10:21:04</time>
      </trkpt>
      <trkpt lat="41.52976" lon="1.9732">
        <ele>375.6</ele>
        <time>2021-04-11 10:21:05</time>
      </trkpt>
      <trkpt lat="41.52983" lon="1.97329">
        <ele>375.6</ele>
        <time>2021-04-11 10:21:06</time>
      </trkpt>
      <trkpt lat="41.52989" lon="1.97337">
        <ele>375.6</ele>
        <time>2021-04-11 10:21:07</time>
      </trkpt>
      <trkpt lat="41.52995" lon="1.97346">
        <ele>375.6</ele>
        <time>2021-04-11 10:21:08</time>
      </trkpt>
      <trkpt lat="41.53001" lon="1.97355">
        <ele>375.6</ele>
        <time>2021-04-11 10:21:09</time>
      </trkpt>
      <trkpt lat="41.53008" lon="1.97363">
        <ele>375.6</ele>
        <time>2021-04-11 10:21:10</time>
      </trkpt>
      <trkpt lat="41.53014" lon="1.97372">
        <ele>375.6</ele>
        <time>2021-04-11 10:21:11</time>
      </trkpt>
      <trkpt lat="41.5302" lon="1.9738">
        <ele>375.6</ele>
        <time>2021-04-11 10:21:12</time>
      </trkpt>
      <trkpt lat="41.53026" lon="1.97388">
        <ele>375.6</ele>
        <time>2021-04-11 10:21:13</time>
      </trkpt>
      <trkpt lat="41.53033" lon="1.97396">
        <ele>375.6</ele>
        <time>2021-04-11 10:21:14</time>
      </trkpt>
      <trkpt lat="41.53039" lon="1.97403">
        <ele>375.4</ele>
        <time>2021-04-11 10:21:15</time>
      </trkpt>
      <trkpt lat="41.53046" lon="1.9741">
        <ele>375.4</ele>
        <time>2021-04-11 10:21:16</time>
      </trkpt>
      <trkpt lat="41.53053" lon="1.97415">
        <ele>375.4</ele>
        <time>2021-04-11 10:21:17</time>
      </trkpt>
      <trkpt lat="41.5306" lon="1.9742">
        <ele>375.6</ele>
        <time>2021-04-11 10:21:18</time>
      </trkpt>
      <trkpt lat="41.53067" lon="1.97425">
        <ele>375.8</ele>
        <time>2021-04-11 10:21:19</time>
      </trkpt>
      <trkpt lat="41.53074" lon="1.97431">
        <ele>375.8</ele>
        <time>2021-04-11 10:21:20</time>
      </trkpt>
      <trkpt lat="41.53082" lon="1.97436">
        <ele>375.8</ele>
        <time>2021-04-11 10:21:21</time>
      </trkpt>
      <trkpt lat="41.53089" lon="1.97442">
        <ele>375.8</ele>
        <time>2021-04-11 10:21:22</time>
      </trkpt>
      <trkpt lat="41.53096" lon="1.97448">
        <ele>375.8</ele>
        <time>2021-04-11 10:21:23</time>
      </trkpt>
      <trkpt lat="41.53102" lon="1.97455">
        <ele>376</ele>
        <time>2021-04-11 10:21:24</time>
      </trkpt>
      <trkpt lat="41.53108" lon="1.97463">
        <ele>376</ele>
        <time>2021-04-11 10:21:25</time>
      </trkpt>
      <trkpt lat="41.53113" lon="1.97472">
        <ele>376.2</ele>
        <time>2021-04-11 10:21:26</time>
      </trkpt>
      <trkpt lat="41.53116" lon="1.9748">
        <ele>376.4</ele>
        <time>2021-04-11 10:21:27</time>
      </trkpt>
      <trkpt lat="41.5312" lon="1.97489">
        <ele>376.6</ele>
        <time>2021-04-11 10:21:28</time>
      </trkpt>
      <trkpt lat="41.53123" lon="1.97498">
        <ele>377</ele>
        <time>2021-04-11 10:21:29</time>
      </trkpt>
      <trkpt lat="41.53125" lon="1.97506">
        <ele>377.4</ele>
        <time>2021-04-11 10:21:30</time>
      </trkpt>
      <trkpt lat="41.53127" lon="1.97514">
        <ele>377.6</ele>
        <time>2021-04-11 10:21:31</time>
      </trkpt>
      <trkpt lat="41.5313" lon="1.97521">
        <ele>378</ele>
        <time>2021-04-11 10:21:32</time>
      </trkpt>
      <trkpt lat="41.53132" lon="1.97529">
        <ele>378.4</ele>
        <time>2021-04-11 10:21:33</time>
      </trkpt>
      <trkpt lat="41.53135" lon="1.97536">
        <ele>378.8</ele>
        <time>2021-04-11 10:21:34</time>
      </trkpt>
      <trkpt lat="41.53138" lon="1.97542">
        <ele>379</ele>
        <time>2021-04-11 10:21:35</time>
      </trkpt>
      <trkpt lat="41.53141" lon="1.97548">
        <ele>379.2</ele>
        <time>2021-04-11 10:21:36</time>
      </trkpt>
      <trkpt lat="41.53145" lon="1.97553">
        <ele>379.4</ele>
        <time>2021-04-11 10:21:37</time>
      </trkpt>
      <trkpt lat="41.53149" lon="1.97559">
        <ele>379.8</ele>
        <time>2021-04-11 10:21:38</time>
      </trkpt>
      <trkpt lat="41.53153" lon="1.97564">
        <ele>380</ele>
        <time>2021-04-11 10:21:39</time>
      </trkpt>
      <trkpt lat="41.53158" lon="1.97569">
        <ele>380.4</ele>
        <time>2021-04-11 10:21:40</time>
      </trkpt>
      <trkpt lat="41.53162" lon="1.97572">
        <ele>380.6</ele>
        <time>2021-04-11 10:21:41</time>
      </trkpt>
      <trkpt lat="41.53167" lon="1.97575">
        <ele>380.8</ele>
        <time>2021-04-11 10:21:42</time>
      </trkpt>
      <trkpt lat="41.53172" lon="1.97577">
        <ele>381</ele>
        <time>2021-04-11 10:21:43</time>
      </trkpt>
      <trkpt lat="41.53177" lon="1.9758">
        <ele>381.2</ele>
        <time>2021-04-11 10:21:44</time>
      </trkpt>
      <trkpt lat="41.53182" lon="1.97581">
        <ele>381.2</ele>
        <time>2021-04-11 10:21:45</time>
      </trkpt>
      <trkpt lat="41.53187" lon="1.97582">
        <ele>381.4</ele>
        <time>2021-04-11 10:21:46</time>
      </trkpt>
      <trkpt lat="41.53193" lon="1.97582">
        <ele>381.6</ele>
        <time>2021-04-11 10:21:47</time>
      </trkpt>
      <trkpt lat="41.53198" lon="1.97582">
        <ele>381.8</ele>
        <time>2021-04-11 10:21:48</time>
      </trkpt>
      <trkpt lat="41.53203" lon="1.97581">
        <ele>382</ele>
        <time>2021-04-11 10:21:49</time>
      </trkpt>
      <trkpt lat="41.53209" lon="1.9758">
        <ele>382</ele>
        <time>2021-04-11 10:21:50</time>
      </trkpt>
      <trkpt lat="41.53214" lon="1.97579">
        <ele>382.2</ele>
        <time>2021-04-11 10:21:51</time>
      </trkpt>
      <trkpt lat="41.53219" lon="1.97577">
        <ele>382.4</ele>
        <time>2021-04-11 10:21:52</time>
      </trkpt>
      <trkpt lat="41.53225" lon="1.97576">
        <ele>382.4</ele>
        <time>2021-04-11 10:21:53</time>
      </trkpt>
      <trkpt lat="41.5323" lon="1.97574">
        <ele>382.6</ele>
        <time>2021-04-11 10:21:54</time>
      </trkpt>
      <trkpt lat="41.53236" lon="1.97572">
        <ele>382.8</ele>
        <time>2021-04-11 10:21:55</time>
      </trkpt>
      <trkpt lat="41.53241" lon="1.97571">
        <ele>383</ele>
        <time>2021-04-11 10:21:56</time>
      </trkpt>
      <trkpt lat="41.53246" lon="1.9757">
        <ele>383.2</ele>
        <time>2021-04-11 10:21:57</time>
      </trkpt>
      <trkpt lat="41.53251" lon="1.97568">
        <ele>383.4</ele>
        <time>2021-04-11 10:21:58</time>
      </trkpt>
      <trkpt lat="41.53256" lon="1.97567">
        <ele>383.6</ele>
        <time>2021-04-11 10:21:59</time>
      </trkpt>
      <trkpt lat="41.53261" lon="1.97566">
        <ele>383.6</ele>
        <time>2021-04-11 10:22:00</time>
      </trkpt>
      <trkpt lat="41.53266" lon="1.97565">
        <ele>383.8</ele>
        <time>2021-04-11 10:22:01</time>
      </trkpt>
      <trkpt lat="41.53271" lon="1.97564">
        <ele>384</ele>
        <time>2021-04-11 10:22:02</time>
      </trkpt>
      <trkpt lat="41.53277" lon="1.97564">
        <ele>384.2</ele>
        <time>2021-04-11 10:22:03</time>
      </trkpt>
      <trkpt lat="41.53282" lon="1.97565">
        <ele>384.4</ele>
        <time>2021-04-11 10:22:04</time>
      </trkpt>
      <trkpt lat="41.53288" lon="1.97567">
        <ele>384.6</ele>
        <time>2021-04-11 10:22:05</time>
      </trkpt>
      <trkpt lat="41.53292" lon="1.97569">
        <ele>384.8</ele>
        <time>2021-04-11 10:22:06</time>
      </trkpt>
      <trkpt lat="41.53296" lon="1.97571">
        <ele>385</ele>
        <time>2021-04-11 10:22:07</time>
      </trkpt>
      <trkpt lat="41.53301" lon="1.97575">
        <ele>385.2</ele>
        <time>2021-04-11 10:22:08</time>
      </trkpt>
      <trkpt lat="41.53305" lon="1.97579">
        <ele>385.4</ele>
        <time>2021-04-11 10:22:09</time>
      </trkpt>
      <trkpt lat="41.53309" lon="1.97583">
        <ele>385.8</ele>
        <time>2021-04-11 10:22:10</time>
      </trkpt>
      <trkpt lat="41.53312" lon="1.97588">
        <ele>386</ele>
        <time>2021-04-11 10:22:11</time>
      </trkpt>
      <trkpt lat="41.53315" lon="1.97593">
        <ele>386.2</ele>
        <time>2021-04-11 10:22:12</time>
      </trkpt>
      <trkpt lat="41.53317" lon="1.97599">
        <ele>386.4</ele>
        <time>2021-04-11 10:22:13</time>
      </trkpt>
      <trkpt lat="41.53319" lon="1.97605">
        <ele>386.8</ele>
        <time>2021-04-11 10:22:14</time>
      </trkpt>
      <trkpt lat="41.5332" lon="1.97611">
        <ele>387</ele>
        <time>2021-04-11 10:22:15</time>
      </trkpt>
      <trkpt lat="41.53321" lon="1.97617">
        <ele>387.2</ele>
        <time>2021-04-11 10:22:16</time>
      </trkpt>
      <trkpt lat="41.53322" lon="1.97623">
        <ele>387.4</ele>
        <time>2021-04-11 10:22:17</time>
      </trkpt>
      <trkpt lat="41.53323" lon="1.9763">
        <ele>387.6</ele>
        <time>2021-04-11 10:22:18</time>
      </trkpt>
      <trkpt lat="41.53324" lon="1.97636">
        <ele>387.8</ele>
        <time>2021-04-11 10:22:19</time>
      </trkpt>
      <trkpt lat="41.53326" lon="1.97643">
        <ele>388</ele>
        <time>2021-04-11 10:22:20</time>
      </trkpt>
      <trkpt lat="41.53327" lon="1.97649">
        <ele>388.2</ele>
        <time>2021-04-11 10:22:21</time>
      </trkpt>
      <trkpt lat="41.53328" lon="1.97656">
        <ele>388.4</ele>
        <time>2021-04-11 10:22:22</time>
      </trkpt>
      <trkpt lat="41.53329" lon="1.97663">
        <ele>388.6</ele>
        <time>2021-04-11 10:22:23</time>
      </trkpt>
      <trkpt lat="41.5333" lon="1.9767">
        <ele>388.8</ele>
        <time>2021-04-11 10:22:24</time>
      </trkpt>
      <trkpt lat="41.53332" lon="1.97677">
        <ele>389</ele>
        <time>2021-04-11 10:22:25</time>
      </trkpt>
      <trkpt lat="41.53333" lon="1.97683">
        <ele>389</ele>
        <time>2021-04-11 10:22:26</time>
      </trkpt>
      <trkpt lat="41.53335" lon="1.97689">
        <ele>389.2</ele>
        <time>2021-04-11 10:22:27</time>
      </trkpt>
      <trkpt lat="41.53337" lon="1.97696">
        <ele>389.4</ele>
        <time>2021-04-11 10:22:28</time>
      </trkpt>
      <trkpt lat="41.53339" lon="1.97703">
        <ele>389.4</ele>
        <time>2021-04-11 10:22:29</time>
      </trkpt>
      <trkpt lat="41.53342" lon="1.9771">
        <ele>389.4</ele>
        <time>2021-04-11 10:22:30</time>
      </trkpt>
      <trkpt lat="41.53343" lon="1.97717">
        <ele>389.4</ele>
        <time>2021-04-11 10:22:31</time>
      </trkpt>
      <trkpt lat="41.53345" lon="1.97723">
        <ele>389.6</ele>
        <time>2021-04-11 10:22:32</time>
      </trkpt>
      <trkpt lat="41.53348" lon="1.9773">
        <ele>389.6</ele>
        <time>2021-04-11 10:22:33</time>
      </trkpt>
      <trkpt lat="41.53351" lon="1.97737">
        <ele>389.6</ele>
        <time>2021-04-11 10:22:34</time>
      </trkpt>
      <trkpt lat="41.53354" lon="1.97744">
        <ele>389.6</ele>
        <time>2021-04-11 10:22:35</time>
      </trkpt>
      <trkpt lat="41.53356" lon="1.97752">
        <ele>389.8</ele>
        <time>2021-04-11 10:22:36</time>
      </trkpt>
      <trkpt lat="41.53359" lon="1.97758">
        <ele>389.8</ele>
        <time>2021-04-11 10:22:37</time>
      </trkpt>
      <trkpt lat="41.53362" lon="1.97766">
        <ele>390</ele>
        <time>2021-04-11 10:22:38</time>
      </trkpt>
      <trkpt lat="41.53365" lon="1.97773">
        <ele>390</ele>
        <time>2021-04-11 10:22:39</time>
      </trkpt>
      <trkpt lat="41.53368" lon="1.97781">
        <ele>390</ele>
        <time>2021-04-11 10:22:40</time>
      </trkpt>
      <trkpt lat="41.53371" lon="1.97788">
        <ele>390</ele>
        <time>2021-04-11 10:22:41</time>
      </trkpt>
      <trkpt lat="41.53373" lon="1.97795">
        <ele>390.2</ele>
        <time>2021-04-11 10:22:42</time>
      </trkpt>
      <trkpt lat="41.53376" lon="1.97802">
        <ele>390.2</ele>
        <time>2021-04-11 10:22:43</time>
      </trkpt>
      <trkpt lat="41.53379" lon="1.9781">
        <ele>390.4</ele>
        <time>2021-04-11 10:22:44</time>
      </trkpt>
      <trkpt lat="41.53381" lon="1.97817">
        <ele>390.6</ele>
        <time>2021-04-11 10:22:45</time>
      </trkpt>
      <trkpt lat="41.53384" lon="1.97823">
        <ele>390.8</ele>
        <time>2021-04-11 10:22:46</time>
      </trkpt>
      <trkpt lat="41.53386" lon="1.9783">
        <ele>391</ele>
        <time>2021-04-11 10:22:47</time>
      </trkpt>
      <trkpt lat="41.53389" lon="1.97837">
        <ele>391.2</ele>
        <time>2021-04-11 10:22:48</time>
      </trkpt>
      <trkpt lat="41.53392" lon="1.97844">
        <ele>391.6</ele>
        <time>2021-04-11 10:22:49</time>
      </trkpt>
      <trkpt lat="41.53394" lon="1.97851">
        <ele>391.8</ele>
        <time>2021-04-11 10:22:50</time>
      </trkpt>
      <trkpt lat="41.53397" lon="1.97857">
        <ele>392.2</ele>
        <time>2021-04-11 10:22:51</time>
      </trkpt>
      <trkpt lat="41.53399" lon="1.97863">
        <ele>392.6</ele>
        <time>2021-04-11 10:22:52</time>
      </trkpt>
      <trkpt lat="41.53401" lon="1.97869">
        <ele>392.8</ele>
        <time>2021-04-11 10:22:53</time>
      </trkpt>
      <trkpt lat="41.53403" lon="1.97875">
        <ele>393.2</ele>
        <time>2021-04-11 10:22:54</time>
      </trkpt>
      <trkpt lat="41.53405" lon="1.97881">
        <ele>393.6</ele>
        <time>2021-04-11 10:22:55</time>
      </trkpt>
      <trkpt lat="41.53407" lon="1.97886">
        <ele>394</ele>
        <time>2021-04-11 10:22:56</time>
      </trkpt>
      <trkpt lat="41.53409" lon="1.97891">
        <ele>394.2</ele>
        <time>2021-04-11 10:22:57</time>
      </trkpt>
      <trkpt lat="41.53412" lon="1.97896">
        <ele>394.6</ele>
        <time>2021-04-11 10:22:58</time>
      </trkpt>
      <trkpt lat="41.53414" lon="1.979">
        <ele>394.8</ele>
        <time>2021-04-11 10:22:59</time>
      </trkpt>
      <trkpt lat="41.53416" lon="1.97903">
        <ele>395.2</ele>
        <time>2021-04-11 10:23:00</time>
      </trkpt>
      <trkpt lat="41.53419" lon="1.97906">
        <ele>395.4</ele>
        <time>2021-04-11 10:23:01</time>
      </trkpt>
      <trkpt lat="41.53421" lon="1.97909">
        <ele>395.8</ele>
        <time>2021-04-11 10:23:02</time>
      </trkpt>
      <trkpt lat="41.53425" lon="1.97912">
        <ele>396</ele>
        <time>2021-04-11 10:23:03</time>
      </trkpt>
      <trkpt lat="41.53428" lon="1.97915">
        <ele>396.4</ele>
        <time>2021-04-11 10:23:04</time>
      </trkpt>
      <trkpt lat="41.53433" lon="1.97917">
        <ele>396.6</ele>
        <time>2021-04-11 10:23:05</time>
      </trkpt>
      <trkpt lat="41.53437" lon="1.9792">
        <ele>396.8</ele>
        <time>2021-04-11 10:23:06</time>
      </trkpt>
      <trkpt lat="41.53439" lon="1.97921">
        <ele>397.2</ele>
        <time>2021-04-11 10:23:07</time>
      </trkpt>
      <trkpt lat="41.53443" lon="1.97921">
        <ele>397.4</ele>
        <time>2021-04-11 10:23:08</time>
      </trkpt>
      <trkpt lat="41.53447" lon="1.97921">
        <ele>397.6</ele>
        <time>2021-04-11 10:23:09</time>
      </trkpt>
      <trkpt lat="41.5345" lon="1.97921">
        <ele>398</ele>
        <time>2021-04-11 10:23:10</time>
      </trkpt>
      <trkpt lat="41.53453" lon="1.9792">
        <ele>398.2</ele>
        <time>2021-04-11 10:23:11</time>
      </trkpt>
      <trkpt lat="41.53456" lon="1.97918">
        <ele>398.4</ele>
        <time>2021-04-11 10:23:12</time>
      </trkpt>
      <trkpt lat="41.53458" lon="1.97918">
        <ele>398.6</ele>
        <time>2021-04-11 10:23:13</time>
      </trkpt>
      <trkpt lat="41.53461" lon="1.97916">
        <ele>398.8</ele>
        <time>2021-04-11 10:23:14</time>
      </trkpt>
      <trkpt lat="41.53464" lon="1.97915">
        <ele>399</ele>
        <time>2021-04-11 10:23:15</time>
      </trkpt>
      <trkpt lat="41.53467" lon="1.97913">
        <ele>399.2</ele>
        <time>2021-04-11 10:23:16</time>
      </trkpt>
      <trkpt lat="41.5347" lon="1.97912">
        <ele>399.4</ele>
        <time>2021-04-11 10:23:17</time>
      </trkpt>
      <trkpt lat="41.53474" lon="1.9791">
        <ele>399.8</ele>
        <time>2021-04-11 10:23:18</time>
      </trkpt>
      <trkpt lat="41.53478" lon="1.97909">
        <ele>400</ele>
        <time>2021-04-11 10:23:19</time>
      </trkpt>
      <trkpt lat="41.53481" lon="1.97908">
        <ele>400.2</ele>
        <time>2021-04-11 10:23:20</time>
      </trkpt>
      <trkpt lat="41.53485" lon="1.97908">
        <ele>400.4</ele>
        <time>2021-04-11 10:23:21</time>
      </trkpt>
      <trkpt lat="41.53488" lon="1.97908">
        <ele>400.8</ele>
        <time>2021-04-11 10:23:22</time>
      </trkpt>
      <trkpt lat="41.53492" lon="1.97908">
        <ele>401</ele>
        <time>2021-04-11 10:23:23</time>
      </trkpt>
      <trkpt lat="41.53495" lon="1.97909">
        <ele>401.2</ele>
        <time>2021-04-11 10:23:24</time>
      </trkpt>
      <trkpt lat="41.53499" lon="1.97909">
        <ele>401.6</ele>
        <time>2021-04-11 10:23:25</time>
      </trkpt>
      <trkpt lat="41.53503" lon="1.9791">
        <ele>401.8</ele>
        <time>2021-04-11 10:23:26</time>
      </trkpt>
      <trkpt lat="41.53506" lon="1.97912">
        <ele>402</ele>
        <time>2021-04-11 10:23:27</time>
      </trkpt>
      <trkpt lat="41.5351" lon="1.97913">
        <ele>402.4</ele>
        <time>2021-04-11 10:23:28</time>
      </trkpt>
      <trkpt lat="41.53513" lon="1.97914">
        <ele>402.6</ele>
        <time>2021-04-11 10:23:29</time>
      </trkpt>
      <trkpt lat="41.53517" lon="1.97915">
        <ele>402.8</ele>
        <time>2021-04-11 10:23:30</time>
      </trkpt>
      <trkpt lat="41.5352" lon="1.97916">
        <ele>403.2</ele>
        <time>2021-04-11 10:23:31</time>
      </trkpt>
      <trkpt lat="41.53524" lon="1.97917">
        <ele>403.4</ele>
        <time>2021-04-11 10:23:32</time>
      </trkpt>
      <trkpt lat="41.53527" lon="1.97918">
        <ele>403.8</ele>
        <time>2021-04-11 10:23:33</time>
      </trkpt>
      <trkpt lat="41.5353" lon="1.97919">
        <ele>404</ele>
        <time>2021-04-11 10:23:34</time>
      </trkpt>
      <trkpt lat="41.53533" lon="1.9792">
        <ele>404.2</ele>
        <time>2021-04-11 10:23:35</time>
      </trkpt>
      <trkpt lat="41.53536" lon="1.97921">
        <ele>404.6</ele>
        <time>2021-04-11 10:23:36</time>
      </trkpt>
      <trkpt lat="41.53539" lon="1.97923">
        <ele>404.8</ele>
        <time>2021-04-11 10:23:37</time>
      </trkpt>
      <trkpt lat="41.53542" lon="1.97925">
        <ele>405</ele>
        <time>2021-04-11 10:23:38</time>
      </trkpt>
      <trkpt lat="41.53545" lon="1.97927">
        <ele>405.4</ele>
        <time>2021-04-11 10:23:39</time>
      </trkpt>
      <trkpt lat="41.53548" lon="1.97929">
        <ele>405.6</ele>
        <time>2021-04-11 10:23:40</time>
      </trkpt>
      <trkpt lat="41.53551" lon="1.97931">
        <ele>406</ele>
        <time>2021-04-11 10:23:41</time>
      </trkpt>
      <trkpt lat="41.53554" lon="1.97934">
        <ele>406.2</ele>
        <time>2021-04-11 10:23:42</time>
      </trkpt>
      <trkpt lat="41.53557" lon="1.97937">
        <ele>406.6</ele>
        <time>2021-04-11 10:23:43</time>
      </trkpt>
      <trkpt lat="41.5356" lon="1.97941">
        <ele>406.8</ele>
        <time>2021-04-11 10:23:44</time>
      </trkpt>
      <trkpt lat="41.53563" lon="1.97945">
        <ele>407.2</ele>
        <time>2021-04-11 10:23:45</time>
      </trkpt>
      <trkpt lat="41.53566" lon="1.97949">
        <ele>407.4</ele>
        <time>2021-04-11 10:23:46</time>
      </trkpt>
      <trkpt lat="41.53568" lon="1.97953">
        <ele>407.6</ele>
        <time>2021-04-11 10:23:47</time>
      </trkpt>
      <trkpt lat="41.5357" lon="1.97957">
        <ele>408</ele>
        <time>2021-04-11 10:23:48</time>
      </trkpt>
      <trkpt lat="41.53573" lon="1.97961">
        <ele>408.2</ele>
        <time>2021-04-11 10:23:49</time>
      </trkpt>
      <trkpt lat="41.53575" lon="1.97965">
        <ele>408.6</ele>
        <time>2021-04-11 10:23:50</time>
      </trkpt>
      <trkpt lat="41.53577" lon="1.97969">
        <ele>408.8</ele>
        <time>2021-04-11 10:23:51</time>
      </trkpt>
      <trkpt lat="41.53579" lon="1.97973">
        <ele>409.2</ele>
        <time>2021-04-11 10:23:52</time>
      </trkpt>
      <trkpt lat="41.53581" lon="1.97977">
        <ele>409.4</ele>
        <time>2021-04-11 10:23:53</time>
      </trkpt>
      <trkpt lat="41.53583" lon="1.97981">
        <ele>409.8</ele>
        <time>2021-04-11 10:23:54</time>
      </trkpt>
      <trkpt lat="41.53586" lon="1.97986">
        <ele>410</ele>
        <time>2021-04-11 10:23:55</time>
      </trkpt>
      <trkpt lat="41.53588" lon="1.9799">
        <ele>410.2</ele>
        <time>2021-04-11 10:23:56</time>
      </trkpt>
      <trkpt lat="41.5359" lon="1.97995">
        <ele>410.6</ele>
        <time>2021-04-11 10:23:57</time>
      </trkpt>
      <trkpt lat="41.53592" lon="1.97999">
        <ele>410.8</ele>
        <time>2021-04-11 10:23:58</time>
      </trkpt>
      <trkpt lat="41.53594" lon="1.98003">
        <ele>411.2</ele>
        <time>2021-04-11 10:23:59</time>
      </trkpt>
      <trkpt lat="41.53597" lon="1.98007">
        <ele>411.4</ele>
        <time>2021-04-11 10:24:00</time>
      </trkpt>
      <trkpt lat="41.53598" lon="1.98011">
        <ele>411.6</ele>
        <time>2021-04-11 10:24:01</time>
      </trkpt>
      <trkpt lat="41.53601" lon="1.98015">
        <ele>412</ele>
        <time>2021-04-11 10:24:02</time>
      </trkpt>
      <trkpt lat="41.53603" lon="1.98019">
        <ele>412.2</ele>
        <time>2021-04-11 10:24:03</time>
      </trkpt>
      <trkpt lat="41.53605" lon="1.98023">
        <ele>412.4</ele>
        <time>2021-04-11 10:24:04</time>
      </trkpt>
      <trkpt lat="41.53606" lon="1.98027">
        <ele>412.8</ele>
        <time>2021-04-11 10:24:05</time>
      </trkpt>
      <trkpt lat="41.53608" lon="1.98031">
        <ele>413</ele>
        <time>2021-04-11 10:24:06</time>
      </trkpt>
      <trkpt lat="41.53609" lon="1.98036">
        <ele>413.2</ele>
        <time>2021-04-11 10:24:07</time>
      </trkpt>
      <trkpt lat="41.53611" lon="1.9804">
        <ele>413.6</ele>
        <time>2021-04-11 10:24:08</time>
      </trkpt>
      <trkpt lat="41.53612" lon="1.98045">
        <ele>413.8</ele>
        <time>2021-04-11 10:24:09</time>
      </trkpt>
      <trkpt lat="41.53613" lon="1.98049">
        <ele>414.2</ele>
        <time>2021-04-11 10:24:10</time>
      </trkpt>
      <trkpt lat="41.53613" lon="1.98054">
        <ele>414.4</ele>
        <time>2021-04-11 10:24:11</time>
      </trkpt>
      <trkpt lat="41.53613" lon="1.98058">
        <ele>414.8</ele>
        <time>2021-04-11 10:24:12</time>
      </trkpt>
      <trkpt lat="41.53613" lon="1.98063">
        <ele>415</ele>
        <time>2021-04-11 10:24:13</time>
      </trkpt>
      <trkpt lat="41.53613" lon="1.98067">
        <ele>415.4</ele>
        <time>2021-04-11 10:24:14</time>
      </trkpt>
      <trkpt lat="41.53611" lon="1.98072">
        <ele>415.6</ele>
        <time>2021-04-11 10:24:15</time>
      </trkpt>
      <trkpt lat="41.53611" lon="1.98076">
        <ele>416</ele>
        <time>2021-04-11 10:24:16</time>
      </trkpt>
      <trkpt lat="41.5361" lon="1.98081">
        <ele>416.2</ele>
        <time>2021-04-11 10:24:17</time>
      </trkpt>
      <trkpt lat="41.53609" lon="1.98086">
        <ele>416.6</ele>
        <time>2021-04-11 10:24:18</time>
      </trkpt>
      <trkpt lat="41.53607" lon="1.9809">
        <ele>416.8</ele>
        <time>2021-04-11 10:24:19</time>
      </trkpt>
      <trkpt lat="41.53606" lon="1.98095">
        <ele>417</ele>
        <time>2021-04-11 10:24:20</time>
      </trkpt>
      <trkpt lat="41.53605" lon="1.98099">
        <ele>417.4</ele>
        <time>2021-04-11 10:24:21</time>
      </trkpt>
      <trkpt lat="41.53604" lon="1.98104">
        <ele>417.6</ele>
        <time>2021-04-11 10:24:22</time>
      </trkpt>
      <trkpt lat="41.53603" lon="1.98108">
        <ele>417.8</ele>
        <time>2021-04-11 10:24:23</time>
      </trkpt>
      <trkpt lat="41.53601" lon="1.98112">
        <ele>418.2</ele>
        <time>2021-04-11 10:24:24</time>
      </trkpt>
      <trkpt lat="41.536" lon="1.98117">
        <ele>418.4</ele>
        <time>2021-04-11 10:24:25</time>
      </trkpt>
      <trkpt lat="41.53598" lon="1.98121">
        <ele>418.8</ele>
        <time>2021-04-11 10:24:26</time>
      </trkpt>
      <trkpt lat="41.53597" lon="1.98125">
        <ele>419</ele>
        <time>2021-04-11 10:24:27</time>
      </trkpt>
      <trkpt lat="41.53596" lon="1.98129">
        <ele>419.2</ele>
        <time>2021-04-11 10:24:28</time>
      </trkpt>
      <trkpt lat="41.53594" lon="1.98133">
        <ele>419.6</ele>
        <time>2021-04-11 10:24:29</time>
      </trkpt>
      <trkpt lat="41.53593" lon="1.98138">
        <ele>419.8</ele>
        <time>2021-04-11 10:24:30</time>
      </trkpt>
      <trkpt lat="41.53591" lon="1.98142">
        <ele>420.2</ele>
        <time>2021-04-11 10:24:31</time>
      </trkpt>
      <trkpt lat="41.5359" lon="1.98146">
        <ele>420.4</ele>
        <time>2021-04-11 10:24:32</time>
      </trkpt>
      <trkpt lat="41.53588" lon="1.9815">
        <ele>420.6</ele>
        <time>2021-04-11 10:24:33</time>
      </trkpt>
      <trkpt lat="41.53586" lon="1.98154">
        <ele>421</ele>
        <time>2021-04-11 10:24:34</time>
      </trkpt>
      <trkpt lat="41.53584" lon="1.98158">
        <ele>421.2</ele>
        <time>2021-04-11 10:24:35</time>
      </trkpt>
      <trkpt lat="41.53582" lon="1.98161">
        <ele>421.4</ele>
        <time>2021-04-11 10:24:36</time>
      </trkpt>
      <trkpt lat="41.5358" lon="1.98165">
        <ele>421.8</ele>
        <time>2021-04-11 10:24:37</time>
      </trkpt>
      <trkpt lat="41.53578" lon="1.98169">
        <ele>422</ele>
        <time>2021-04-11 10:24:38</time>
      </trkpt>
      <trkpt lat="41.53575" lon="1.98172">
        <ele>422.2</ele>
        <time>2021-04-11 10:24:39</time>
      </trkpt>
      <trkpt lat="41.53573" lon="1.98176">
        <ele>422.6</ele>
        <time>2021-04-11 10:24:40</time>
      </trkpt>
      <trkpt lat="41.53571" lon="1.98179">
        <ele>422.8</ele>
        <time>2021-04-11 10:24:41</time>
      </trkpt>
      <trkpt lat="41.53569" lon="1.98183">
        <ele>423</ele>
        <time>2021-04-11 10:24:42</time>
      </trkpt>
      <trkpt lat="41.53566" lon="1.98187">
        <ele>423.2</ele>
        <time>2021-04-11 10:24:43</time>
      </trkpt>
      <trkpt lat="41.53564" lon="1.9819">
        <ele>423.4</ele>
        <time>2021-04-11 10:24:44</time>
      </trkpt>
      <trkpt lat="41.53561" lon="1.98194">
        <ele>423.8</ele>
        <time>2021-04-11 10:24:45</time>
      </trkpt>
      <trkpt lat="41.53559" lon="1.98197">
        <ele>424</ele>
        <time>2021-04-11 10:24:46</time>
      </trkpt>
      <trkpt lat="41.53556" lon="1.98201">
        <ele>424.4</ele>
        <time>2021-04-11 10:24:47</time>
      </trkpt>
      <trkpt lat="41.53553" lon="1.98204">
        <ele>424.6</ele>
        <time>2021-04-11 10:24:48</time>
      </trkpt>
      <trkpt lat="41.5355" lon="1.98206">
        <ele>424.8</ele>
        <time>2021-04-11 10:24:49</time>
      </trkpt>
      <trkpt lat="41.53547" lon="1.98208">
        <ele>425</ele>
        <time>2021-04-11 10:24:50</time>
      </trkpt>
      <trkpt lat="41.53543" lon="1.9821">
        <ele>425.2</ele>
        <time>2021-04-11 10:24:51</time>
      </trkpt>
      <trkpt lat="41.5354" lon="1.98212">
        <ele>425.4</ele>
        <time>2021-04-11 10:24:52</time>
      </trkpt>
      <trkpt lat="41.53536" lon="1.98213">
        <ele>425.8</ele>
        <time>2021-04-11 10:24:53</time>
      </trkpt>
      <trkpt lat="41.53533" lon="1.98214">
        <ele>426</ele>
        <time>2021-04-11 10:24:54</time>
      </trkpt>
      <trkpt lat="41.53529" lon="1.98214">
        <ele>426.4</ele>
        <time>2021-04-11 10:24:55</time>
      </trkpt>
      <trkpt lat="41.53525" lon="1.98214">
        <ele>426.6</ele>
        <time>2021-04-11 10:24:56</time>
      </trkpt>
      <trkpt lat="41.53522" lon="1.98214">
        <ele>426.8</ele>
        <time>2021-04-11 10:24:57</time>
      </trkpt>
      <trkpt lat="41.53518" lon="1.98214">
        <ele>427.2</ele>
        <time>2021-04-11 10:24:58</time>
      </trkpt>
      <trkpt lat="41.53514" lon="1.98214">
        <ele>427.4</ele>
        <time>2021-04-11 10:24:59</time>
      </trkpt>
      <trkpt lat="41.53511" lon="1.98214">
        <ele>427.6</ele>
        <time>2021-04-11 10:25:00</time>
      </trkpt>
      <trkpt lat="41.53507" lon="1.98214">
        <ele>427.8</ele>
        <time>2021-04-11 10:25:01</time>
      </trkpt>
      <trkpt lat="41.53504" lon="1.98214">
        <ele>428.2</ele>
        <time>2021-04-11 10:25:02</time>
      </trkpt>
      <trkpt lat="41.535" lon="1.98213">
        <ele>428.4</ele>
        <time>2021-04-11 10:25:03</time>
      </trkpt>
      <trkpt lat="41.53497" lon="1.98212">
        <ele>428.6</ele>
        <time>2021-04-11 10:25:04</time>
      </trkpt>
      <trkpt lat="41.53493" lon="1.98211">
        <ele>429</ele>
        <time>2021-04-11 10:25:05</time>
      </trkpt>
      <trkpt lat="41.53489" lon="1.9821">
        <ele>429.2</ele>
        <time>2021-04-11 10:25:06</time>
      </trkpt>
      <trkpt lat="41.53486" lon="1.98209">
        <ele>429.6</ele>
        <time>2021-04-11 10:25:07</time>
      </trkpt>
      <trkpt lat="41.53482" lon="1.98209">
        <ele>429.8</ele>
        <time>2021-04-11 10:25:08</time>
      </trkpt>
      <trkpt lat="41.53479" lon="1.98207">
        <ele>430</ele>
        <time>2021-04-11 10:25:09</time>
      </trkpt>
      <trkpt lat="41.53475" lon="1.98206">
        <ele>430.2</ele>
        <time>2021-04-11 10:25:10</time>
      </trkpt>
      <trkpt lat="41.53472" lon="1.98205">
        <ele>430.6</ele>
        <time>2021-04-11 10:25:11</time>
      </trkpt>
      <trkpt lat="41.53468" lon="1.98204">
        <ele>430.8</ele>
        <time>2021-04-11 10:25:12</time>
      </trkpt>
      <trkpt lat="41.53465" lon="1.98203">
        <ele>431</ele>
        <time>2021-04-11 10:25:13</time>
      </trkpt>
      <trkpt lat="41.53461" lon="1.98204">
        <ele>431.4</ele>
        <time>2021-04-11 10:25:14</time>
      </trkpt>
      <trkpt lat="41.53458" lon="1.98205">
        <ele>431.6</ele>
        <time>2021-04-11 10:25:15</time>
      </trkpt>
      <trkpt lat="41.53455" lon="1.98207">
        <ele>431.8</ele>
        <time>2021-04-11 10:25:16</time>
      </trkpt>
      <trkpt lat="41.53451" lon="1.98209">
        <ele>432.2</ele>
        <time>2021-04-11 10:25:17</time>
      </trkpt>
      <trkpt lat="41.53448" lon="1.98212">
        <ele>432.4</ele>
        <time>2021-04-11 10:25:18</time>
      </trkpt>
      <trkpt lat="41.53446" lon="1.98216">
        <ele>432.6</ele>
        <time>2021-04-11 10:25:19</time>
      </trkpt>
      <trkpt lat="41.53443" lon="1.9822">
        <ele>433</ele>
        <time>2021-04-11 10:25:20</time>
      </trkpt>
      <trkpt lat="41.53441" lon="1.98225">
        <ele>433.2</ele>
        <time>2021-04-11 10:25:21</time>
      </trkpt>
      <trkpt lat="41.53439" lon="1.98229">
        <ele>433.4</ele>
        <time>2021-04-11 10:25:22</time>
      </trkpt>
      <trkpt lat="41.53438" lon="1.98234">
        <ele>433.8</ele>
        <time>2021-04-11 10:25:23</time>
      </trkpt>
      <trkpt lat="41.53437" lon="1.98239">
        <ele>434</ele>
        <time>2021-04-11 10:25:24</time>
      </trkpt>
      <trkpt lat="41.53437" lon="1.98244">
        <ele>434.2</ele>
        <time>2021-04-11 10:25:25</time>
      </trkpt>
      <trkpt lat="41.53436" lon="1.98249">
        <ele>434.6</ele>
        <time>2021-04-11 10:25:26</time>
      </trkpt>
      <trkpt lat="41.53436" lon="1.98254">
        <ele>434.8</ele>
        <time>2021-04-11 10:25:27</time>
      </trkpt>
      <trkpt lat="41.53437" lon="1.9826">
        <ele>435.2</ele>
        <time>2021-04-11 10:25:28</time>
      </trkpt>
      <trkpt lat="41.53437" lon="1.98265">
        <ele>435.4</ele>
        <time>2021-04-11 10:25:29</time>
      </trkpt>
      <trkpt lat="41.53438" lon="1.9827">
        <ele>435.8</ele>
        <time>2021-04-11 10:25:30</time>
      </trkpt>
      <trkpt lat="41.53439" lon="1.98275">
        <ele>436</ele>
        <time>2021-04-11 10:25:31</time>
      </trkpt>
      <trkpt lat="41.5344" lon="1.9828">
        <ele>436.4</ele>
        <time>2021-04-11 10:25:32</time>
      </trkpt>
      <trkpt lat="41.53442" lon="1.98285">
        <ele>436.6</ele>
        <time>2021-04-11 10:25:33</time>
      </trkpt>
      <trkpt lat="41.53443" lon="1.9829">
        <ele>437</ele>
        <time>2021-04-11 10:25:34</time>
      </trkpt>
      <trkpt lat="41.53445" lon="1.98294">
        <ele>437.2</ele>
        <time>2021-04-11 10:25:35</time>
      </trkpt>
      <trkpt lat="41.53448" lon="1.98298">
        <ele>437.6</ele>
        <time>2021-04-11 10:25:36</time>
      </trkpt>
      <trkpt lat="41.53451" lon="1.98303">
        <ele>437.8</ele>
        <time>2021-04-11 10:25:37</time>
      </trkpt>
      <trkpt lat="41.53453" lon="1.98308">
        <ele>438.2</ele>
        <time>2021-04-11 10:25:38</time>
      </trkpt>
      <trkpt lat="41.53457" lon="1.98313">
        <ele>438.6</ele>
        <time>2021-04-11 10:25:39</time>
      </trkpt>
      <trkpt lat="41.53459" lon="1.98319">
        <ele>438.8</ele>
        <time>2021-04-11 10:25:40</time>
      </trkpt>
      <trkpt lat="41.53462" lon="1.98324">
        <ele>439.2</ele>
        <time>2021-04-11 10:25:41</time>
      </trkpt>
      <trkpt lat="41.53465" lon="1.98329">
        <ele>439.4</ele>
        <time>2021-04-11 10:25:42</time>
      </trkpt>
      <trkpt lat="41.53468" lon="1.98334">
        <ele>439.8</ele>
        <time>2021-04-11 10:25:43</time>
      </trkpt>
      <trkpt lat="41.53471" lon="1.98339">
        <ele>440</ele>
        <time>2021-04-11 10:25:44</time>
      </trkpt>
      <trkpt lat="41.53473" lon="1.98344">
        <ele>440.4</ele>
        <time>2021-04-11 10:25:45</time>
      </trkpt>
      <trkpt lat="41.53476" lon="1.98349">
        <ele>440.8</ele>
        <time>2021-04-11 10:25:46</time>
      </trkpt>
      <trkpt lat="41.53479" lon="1.98354">
        <ele>441.2</ele>
        <time>2021-04-11 10:25:47</time>
      </trkpt>
      <trkpt lat="41.53482" lon="1.98359">
        <ele>441.4</ele>
        <time>2021-04-11 10:25:48</time>
      </trkpt>
      <trkpt lat="41.53484" lon="1.98364">
        <ele>441.8</ele>
        <time>2021-04-11 10:25:49</time>
      </trkpt>
      <trkpt lat="41.53486" lon="1.9837">
        <ele>442.2</ele>
        <time>2021-04-11 10:25:50</time>
      </trkpt>
      <trkpt lat="41.53489" lon="1.98375">
        <ele>442.6</ele>
        <time>2021-04-11 10:25:51</time>
      </trkpt>
      <trkpt lat="41.53491" lon="1.9838">
        <ele>443</ele>
        <time>2021-04-11 10:25:52</time>
      </trkpt>
      <trkpt lat="41.53493" lon="1.98386">
        <ele>443.4</ele>
        <time>2021-04-11 10:25:53</time>
      </trkpt>
      <trkpt lat="41.53495" lon="1.98391">
        <ele>443.8</ele>
        <time>2021-04-11 10:25:54</time>
      </trkpt>
      <trkpt lat="41.53497" lon="1.98397">
        <ele>444.2</ele>
        <time>2021-04-11 10:25:55</time>
      </trkpt>
      <trkpt lat="41.53498" lon="1.98402">
        <ele>444.4</ele>
        <time>2021-04-11 10:25:56</time>
      </trkpt>
      <trkpt lat="41.535" lon="1.98408">
        <ele>444.8</ele>
        <time>2021-04-11 10:25:57</time>
      </trkpt>
      <trkpt lat="41.53502" lon="1.98413">
        <ele>445.2</ele>
        <time>2021-04-11 10:25:58</time>
      </trkpt>
      <trkpt lat="41.53504" lon="1.98419">
        <ele>445.6</ele>
        <time>2021-04-11 10:25:59</time>
      </trkpt>
      <trkpt lat="41.53505" lon="1.98424">
        <ele>446</ele>
        <time>2021-04-11 10:26:00</time>
      </trkpt>
      <trkpt lat="41.53506" lon="1.9843">
        <ele>446.2</ele>
        <time>2021-04-11 10:26:01</time>
      </trkpt>
      <trkpt lat="41.53508" lon="1.98436">
        <ele>446.6</ele>
        <time>2021-04-11 10:26:02</time>
      </trkpt>
      <trkpt lat="41.53509" lon="1.98441">
        <ele>447</ele>
        <time>2021-04-11 10:26:03</time>
      </trkpt>
      <trkpt lat="41.5351" lon="1.98447">
        <ele>447.2</ele>
        <time>2021-04-11 10:26:04</time>
      </trkpt>
      <trkpt lat="41.53511" lon="1.98452">
        <ele>447.6</ele>
        <time>2021-04-11 10:26:05</time>
      </trkpt>
      <trkpt lat="41.53512" lon="1.98458">
        <ele>447.8</ele>
        <time>2021-04-11 10:26:06</time>
      </trkpt>
      <trkpt lat="41.53513" lon="1.98463">
        <ele>448</ele>
        <time>2021-04-11 10:26:07</time>
      </trkpt>
      <trkpt lat="41.53513" lon="1.98469">
        <ele>448.2</ele>
        <time>2021-04-11 10:26:08</time>
      </trkpt>
      <trkpt lat="41.53514" lon="1.98475">
        <ele>448.4</ele>
        <time>2021-04-11 10:26:09</time>
      </trkpt>
      <trkpt lat="41.53515" lon="1.98481">
        <ele>448.6</ele>
        <time>2021-04-11 10:26:10</time>
      </trkpt>
      <trkpt lat="41.53516" lon="1.98486">
        <ele>448.8</ele>
        <time>2021-04-11 10:26:11</time>
      </trkpt>
      <trkpt lat="41.53517" lon="1.98492">
        <ele>449</ele>
        <time>2021-04-11 10:26:12</time>
      </trkpt>
      <trkpt lat="41.53518" lon="1.98497">
        <ele>449.2</ele>
        <time>2021-04-11 10:26:13</time>
      </trkpt>
      <trkpt lat="41.53518" lon="1.98502">
        <ele>449.4</ele>
        <time>2021-04-11 10:26:14</time>
      </trkpt>
      <trkpt lat="41.53519" lon="1.98507">
        <ele>449.6</ele>
        <time>2021-04-11 10:26:15</time>
      </trkpt>
      <trkpt lat="41.53519" lon="1.98512">
        <ele>449.8</ele>
        <time>2021-04-11 10:26:16</time>
      </trkpt>
      <trkpt lat="41.5352" lon="1.98517">
        <ele>450</ele>
        <time>2021-04-11 10:26:17</time>
      </trkpt>
      <trkpt lat="41.5352" lon="1.98521">
        <ele>450.2</ele>
        <time>2021-04-11 10:26:18</time>
      </trkpt>
      <trkpt lat="41.5352" lon="1.98525">
        <ele>450.4</ele>
        <time>2021-04-11 10:26:19</time>
      </trkpt>
      <trkpt lat="41.5352" lon="1.98529">
        <ele>450.4</ele>
        <time>2021-04-11 10:26:20</time>
      </trkpt>
      <trkpt lat="41.5352" lon="1.98532">
        <ele>450.6</ele>
        <time>2021-04-11 10:26:21</time>
      </trkpt>
      <trkpt lat="41.53519" lon="1.98535">
        <ele>450.8</ele>
        <time>2021-04-11 10:26:22</time>
      </trkpt>
      <trkpt lat="41.53519" lon="1.98538">
        <ele>450.8</ele>
        <time>2021-04-11 10:26:23</time>
      </trkpt>
      <trkpt lat="41.53518" lon="1.9854">
        <ele>451</ele>
        <time>2021-04-11 10:26:24</time>
      </trkpt>
      <trkpt lat="41.53518" lon="1.98542">
        <ele>451</ele>
        <time>2021-04-11 10:26:25</time>
      </trkpt>
      <trkpt lat="41.53517" lon="1.98544">
        <ele>451.2</ele>
        <time>2021-04-11 10:26:26</time>
      </trkpt>
      <trkpt lat="41.53516" lon="1.98546">
        <ele>451.2</ele>
        <time>2021-04-11 10:26:27</time>
      </trkpt>
      <trkpt lat="41.53516" lon="1.98547">
        <ele>451.2</ele>
        <time>2021-04-11 10:26:28</time>
      </trkpt>
      <trkpt lat="41.53505" lon="1.98557">
        <ele>451.2</ele>
        <time>2021-04-11 10:30:00</time>
      </trkpt>
      <trkpt lat="41.53501" lon="1.98558">
        <ele>451</ele>
        <time>2021-04-11 10:30:01</time>
      </trkpt>
      <trkpt lat="41.53497" lon="1.98558">
        <ele>451</ele>
        <time>2021-04-11 10:30:02</time>
      </trkpt>
      <trkpt lat="41.53493" lon="1.98558">
        <ele>450.8</ele>
        <time>2021-04-11 10:30:03</time>
      </trkpt>
      <trkpt lat="41.53488" lon="1.98558">
        <ele>450.6</ele>
        <time>2021-04-11 10:30:04</time>
      </trkpt>
      <trkpt lat="41.53483" lon="1.98557">
        <ele>450.4</ele>
        <time>2021-04-11 10:30:05</time>
      </trkpt>
      <trkpt lat="41.53477" lon="1.98555">
        <ele>450</ele>
        <time>2021-04-11 10:30:06</time>
      </trkpt>
      <trkpt lat="41.53472" lon="1.98553">
        <ele>449.8</ele>
        <time>2021-04-11 10:30:07</time>
      </trkpt>
      <trkpt lat="41.53466" lon="1.98551">
        <ele>449.4</ele>
        <time>2021-04-11 10:30:08</time>
      </trkpt>
      <trkpt lat="41.53459" lon="1.98548">
        <ele>449</ele>
        <time>2021-04-11 10:30:09</time>
      </trkpt>
      <trkpt lat="41.53453" lon="1.98546">
        <ele>448.6</ele>
        <time>2021-04-11 10:30:10</time>
      </trkpt>
      <trkpt lat="41.53446" lon="1.98543">
        <ele>448</ele>
        <time>2021-04-11 10:30:11</time>
      </trkpt>
      <trkpt lat="41.53439" lon="1.9854">
        <ele>447.6</ele>
        <time>2021-04-11 10:30:12</time>
      </trkpt>
      <trkpt lat="41.53432" lon="1.98537">
        <ele>447.2</ele>
        <time>2021-04-11 10:30:13</time>
      </trkpt>
      <trkpt lat="41.53423" lon="1.98533">
        <ele>446.6</ele>
        <time>2021-04-11 10:30:14</time>
      </trkpt>
      <trkpt lat="41.53415" lon="1.98529">
        <ele>446</ele>
        <time>2021-04-11 10:30:15</time>
      </trkpt>
      <trkpt lat="41.53407" lon="1.98525">
        <ele>445.4</ele>
        <time>2021-04-11 10:30:16</time>
      </trkpt>
      <trkpt lat="41.53398" lon="1.9852">
        <ele>444.8</ele>
        <time>2021-04-11 10:30:17</time>
      </trkpt>
      <trkpt lat="41.5339" lon="1.98516">
        <ele>444.2</ele>
        <time>2021-04-11 10:30:18</time>
      </trkpt>
      <trkpt lat="41.53381" lon="1.98511">
        <ele>443.4</ele>
        <time>2021-04-11 10:30:19</time>
      </trkpt>
      <trkpt lat="41.53373" lon="1.98505">
        <ele>442.6</ele>
        <time>2021-04-11 10:30:20</time>
      </trkpt>
      <trkpt lat="41.53363" lon="1.985">
        <ele>441.8</ele>
        <time>2021-04-11 10:30:21</time>
      </trkpt>
      <trkpt lat="41.53354" lon="1.98495">
        <ele>441</ele>
        <time>2021-04-11 10:30:22</time>
      </trkpt>
      <trkpt lat="41.53343" lon="1.9849">
        <ele>440.2</ele>
        <time>2021-04-11 10:30:23</time>
      </trkpt>
      <trkpt lat="41.53333" lon="1.98486">
        <ele>439.6</ele>
        <time>2021-04-11 10:30:24</time>
      </trkpt>
      <trkpt lat="41.53322" lon="1.98482">
        <ele>438.8</ele>
        <time>2021-04-11 10:30:25</time>
      </trkpt>
      <trkpt lat="41.53311" lon="1.98479">
        <ele>438.2</ele>
        <time>2021-04-11 10:30:26</time>
      </trkpt>
      <trkpt lat="41.533" lon="1.98476">
        <ele>437.4</ele>
        <time>2021-04-11 10:30:27</time>
      </trkpt>
      <trkpt lat="41.53289" lon="1.98474">
        <ele>436.8</ele>
        <time>2021-04-11 10:30:28</time>
      </trkpt>
      <trkpt lat="41.53277" lon="1.98471">
        <ele>436</ele>
        <time>2021-04-11 10:30:29</time>
      </trkpt>
      <trkpt lat="41.53265" lon="1.98468">
        <ele>435.2</ele>
        <time>2021-04-11 10:30:30</time>
      </trkpt>
      <trkpt lat="41.53254" lon="1.98466">
        <ele>434.4</ele>
        <time>2021-04-11 10:30:31</time>
      </trkpt>
      <trkpt lat="41.53243" lon="1.98464">
        <ele>433.6</ele>
        <time>2021-04-11 10:30:32</time>
      </trkpt>
      <trkpt lat="41.53231" lon="1.98461">
        <ele>432.4</ele>
        <time>2021-04-11 10:30:33</time>
      </trkpt>
      <trkpt lat="41.53218" lon="1.98458">
        <ele>431.4</ele>
        <time>2021-04-11 10:30:34</time>
      </trkpt>
      <trkpt lat="41.53206" lon="1.98454">
        <ele>430.2</ele>
        <time>2021-04-11 10:30:35</time>
      </trkpt>
      <trkpt lat="41.53193" lon="1.98451">
        <ele>428.8</ele>
        <time>2021-04-11 10:30:36</time>
      </trkpt>
      <trkpt lat="41.5318" lon="1.98448">
        <ele>427.6</ele>
        <time>2021-04-11 10:30:37</time>
      </trkpt>
      <trkpt lat="41.53167" lon="1.98443">
        <ele>426.4</ele>
        <time>2021-04-11 10:30:38</time>
      </trkpt>
      <trkpt lat="41.53154" lon="1.98439">
        <ele>425</ele>
        <time>2021-04-11 10:30:39</time>
      </trkpt>
      <trkpt lat="41.53141" lon="1.98432">
        <ele>423.8</ele>
        <time>2021-04-11 10:30:40</time>
      </trkpt>
      <trkpt lat="41.53129" lon="1.98425">
        <ele>422.6</ele>
        <time>2021-04-11 10:30:41</time>
      </trkpt>
      <trkpt lat="41.53115" lon="1.98417">
        <ele>421.4</ele>
        <time>2021-04-11 10:30:42</time>
      </trkpt>
      <trkpt lat="41.53102" lon="1.9841">
        <ele>420.2</ele>
        <time>2021-04-11 10:30:43</time>
      </trkpt>
      <trkpt lat="41.5309" lon="1.98403">
        <ele>419</ele>
        <time>2021-04-11 10:30:44</time>
      </trkpt>
      <trkpt lat="41.53076" lon="1.98396">
        <ele>417.8</ele>
        <time>2021-04-11 10:30:45</time>
      </trkpt>
      <trkpt lat="41.53063" lon="1.98388">
        <ele>416.6</ele>
        <time>2021-04-11 10:30:46</time>
      </trkpt>
      <trkpt lat="41.53049" lon="1.98382">
        <ele>415.6</ele>
        <time>2021-04-11 10:30:47</time>
      </trkpt>
      <trkpt lat="41.53036" lon="1.98375">
        <ele>414.4</ele>
        <time>2021-04-11 10:30:48</time>
      </trkpt>
      <trkpt lat="41.53023" lon="1.98368">
        <ele>413.2</ele>
        <time>2021-04-11 10:30:49</time>
      </trkpt>
      <trkpt lat="41.5301" lon="1.98361">
        <ele>412</ele>
        <time>2021-04-11 10:30:50</time>
      </trkpt>
      <trkpt lat="41.52997" lon="1.98354">
        <ele>410.8</ele>
        <time>2021-04-11 10:30:51</time>
      </trkpt>
      <trkpt lat="41.52984" lon="1.98348">
        <ele>409.6</ele>
        <time>2021-04-11 10:30:52</time>
      </trkpt>
      <trkpt lat="41.5297" lon="1.98341">
        <ele>408.4</ele>
        <time>2021-04-11 10:30:53</time>
      </trkpt>
      <trkpt lat="41.52957" lon="1.98336">
        <ele>407.2</ele>
        <time>2021-04-11 10:30:54</time>
      </trkpt>
      <trkpt lat="41.52943" lon="1.98331">
        <ele>406.4</ele>
        <time>2021-04-11 10:30:55</time>
      </trkpt>
      <trkpt lat="41.5293" lon="1.98326">
        <ele>405.2</ele>
        <time>2021-04-11 10:30:56</time>
      </trkpt>
      <trkpt lat="41.52916" lon="1.98322">
        <ele>404.2</ele>
        <time>2021-04-11 10:30:57</time>
      </trkpt>
      <trkpt lat="41.52902" lon="1.98318">
        <ele>403.4</ele>
        <time>2021-04-11 10:30:58</time>
      </trkpt>
      <trkpt lat="41.52889" lon="1.98314">
        <ele>402.4</ele>
        <time>2021-04-11 10:30:59</time>
      </trkpt>
      <trkpt lat="41.52875" lon="1.98309">
        <ele>401.6</ele>
        <time>2021-04-11 10:31:00</time>
      </trkpt>
      <trkpt lat="41.52861" lon="1.98305">
        <ele>400.8</ele>
        <time>2021-04-11 10:31:01</time>
      </trkpt>
      <trkpt lat="41.52848" lon="1.98301">
        <ele>400.2</ele>
        <time>2021-04-11 10:31:02</time>
      </trkpt>
      <trkpt lat="41.52835" lon="1.98297">
        <ele>399.6</ele>
        <time>2021-04-11 10:31:03</time>
      </trkpt>
      <trkpt lat="41.52822" lon="1.98293">
        <ele>399.4</ele>
        <time>2021-04-11 10:31:04</time>
      </trkpt>
      <trkpt lat="41.5281" lon="1.98289">
        <ele>399</ele>
        <time>2021-04-11 10:31:05</time>
      </trkpt>
      <trkpt lat="41.52798" lon="1.98286">
        <ele>398.6</ele>
        <time>2021-04-11 10:31:06</time>
      </trkpt>
      <trkpt lat="41.52786" lon="1.98283">
        <ele>398.2</ele>
        <time>2021-04-11 10:31:07</time>
      </trkpt>
      <trkpt lat="41.52774" lon="1.98279">
        <ele>397.8</ele>
        <time>2021-04-11 10:31:08</time>
      </trkpt>
      <trkpt lat="41.52763" lon="1.98275">
        <ele>397.6</ele>
        <time>2021-04-11 10:31:09</time>
      </trkpt>
      <trkpt lat="41.52751" lon="1.98272">
        <ele>397.2</ele>
        <time>2021-04-11 10:31:10</time>
      </trkpt>
      <trkpt lat="41.5274" lon="1.98269">
        <ele>397</ele>
        <time>2021-04-11 10:31:11</time>
      </trkpt>
      <trkpt lat="41.52729" lon="1.98266">
        <ele>396.6</ele>
        <time>2021-04-11 10:31:12</time>
      </trkpt>
      <trkpt lat="41.52717" lon="1.98263">
        <ele>396.2</ele>
        <time>2021-04-11 10:31:13</time>
      </trkpt>
      <trkpt lat="41.52705" lon="1.98261">
        <ele>396</ele>
        <time>2021-04-11 10:31:14</time>
      </trkpt>
      <trkpt lat="41.52693" lon="1.98258">
        <ele>395.6</ele>
        <time>2021-04-11 10:31:15</time>
      </trkpt>
      <trkpt lat="41.52683" lon="1.98257">
        <ele>395.2</ele>
        <time>2021-04-11 10:31:16</time>
      </trkpt>
      <trkpt lat="41.52671" lon="1.98257">
        <ele>395</ele>
        <time>2021-04-11 10:31:17</time>
      </trkpt>
      <trkpt lat="41.5266" lon="1.98257">
        <ele>394.8</ele>
        <time>2021-04-11 10:31:18</time>
      </trkpt>
      <trkpt lat="41.52649" lon="1.98257">
        <ele>394.6</ele>
        <time>2021-04-11 10:31:19</time>
      </trkpt>
      <trkpt lat="41.52638" lon="1.9826">
        <ele>394.4</ele>
        <time>2021-04-11 10:31:20</time>
      </trkpt>
      <trkpt lat="41.52628" lon="1.98262">
        <ele>394.2</ele>
        <time>2021-04-11 10:31:21</time>
      </trkpt>
      <trkpt lat="41.52616" lon="1.98264">
        <ele>394</ele>
        <time>2021-04-11 10:31:22</time>
      </trkpt>
      <trkpt lat="41.52606" lon="1.98264">
        <ele>393.4</ele>
        <time>2021-04-11 10:31:23</time>
      </trkpt>
      <trkpt lat="41.52595" lon="1.98264">
        <ele>393</ele>
        <time>2021-04-11 10:31:24</time>
      </trkpt>
      <trkpt lat="41.52585" lon="1.98263">
        <ele>392.6</ele>
        <time>2021-04-11 10:31:25</time>
      </trkpt>
      <trkpt lat="41.52574" lon="1.98261">
        <ele>392.4</ele>
        <time>2021-04-11 10:31:26</time>
      </trkpt>
      <trkpt lat="41.52565" lon="1.98258">
        <ele>392</ele>
        <time>2021-04-11 10:31:27</time>
      </trkpt>
      <trkpt lat="41.52554" lon="1.98253">
        <ele>391.8</ele>
        <time>2021-04-11 10:31:28</time>
      </trkpt>
      <trkpt lat="41.52545" lon="1.98245">
        <ele>391.4</ele>
        <time>2021-04-11 10:31:29</time>
      </trkpt>
      <trkpt lat="41.52539" lon="1.98236">
        <ele>391.2</ele>
        <time>2021-04-11 10:31:30</time>
      </trkpt>
      <trkpt lat="41.52532" lon="1.98226">
        <ele>391</ele>
        <time>2021-04-11 10:31:31</time>
      </trkpt>
      <trkpt lat="41.52527" lon="1.98214">
        <ele>390.6</ele>
        <time>2021-04-11 10:31:32</time>
      </trkpt>
      <trkpt lat="41.52522" lon="1.98202">
        <ele>390.2</ele>
        <time>2021-04-11 10:31:33</time>
      </trkpt>
      <trkpt lat="41.52518" lon="1.98189">
        <ele>389.6</ele>
        <time>2021-04-11 10:31:34</time>
      </trkpt>
      <trkpt lat="41.52515" lon="1.98177">
        <ele>389</ele>
        <time>2021-04-11 10:31:35</time>
      </trkpt>
      <trkpt lat="41.5251" lon="1.98163">
        <ele>388.2</ele>
        <time>2021-04-11 10:31:36</time>
      </trkpt>
      <trkpt lat="41.52504" lon="1.98151">
        <ele>387.8</ele>
        <time>2021-04-11 10:31:37</time>
      </trkpt>
      <trkpt lat="41.52495" lon="1.98142">
        <ele>387.2</ele>
        <time>2021-04-11 10:31:38</time>
      </trkpt>
      <trkpt lat="41.52486" lon="1.98133">
        <ele>386.6</ele>
        <time>2021-04-11 10:31:39</time>
      </trkpt>
      <trkpt lat="41.52477" lon="1.98124">
        <ele>386</ele>
        <time>2021-04-11 10:31:40</time>
      </trkpt>
      <trkpt lat="41.52468" lon="1.98113">
        <ele>385.4</ele>
        <time>2021-04-11 10:31:41</time>
      </trkpt>
      <trkpt lat="41.52459" lon="1.98103">
        <ele>384.6</ele>
        <time>2021-04-11 10:31:42</time>
      </trkpt>
      <trkpt lat="41.52451" lon="1.98093">
        <ele>384</ele>
        <time>2021-04-11 10:31:43</time>
      </trkpt>
      <trkpt lat="41.52442" lon="1.98082">
        <ele>383.4</ele>
        <time>2021-04-11 10:31:44</time>
      </trkpt>
      <trkpt lat="41.52434" lon="1.98073">
        <ele>382.8</ele>
        <time>2021-04-11 10:31:45</time>
      </trkpt>
      <trkpt lat="41.52425" lon="1.98064">
        <ele>382.4</ele>
        <time>2021-04-11 10:31:46</time>
      </trkpt>
      <trkpt lat="41.52416" lon="1.98055">
        <ele>381.6</ele>
        <time>2021-04-11 10:31:47</time>
      </trkpt>
      <trkpt lat="41.52407" lon="1.98046">
        <ele>381</ele>
        <time>2021-04-11 10:31:48</time>
      </trkpt>
      <trkpt lat="41.52397" lon="1.98038">
        <ele>380.2</ele>
        <time>2021-04-11 10:31:49</time>
      </trkpt>
      <trkpt lat="41.52389" lon="1.98029">
        <ele>379.6</ele>
        <time>2021-04-11 10:31:50</time>
      </trkpt>
      <trkpt lat="41.5238" lon="1.9802">
        <ele>378.8</ele>
        <time>2021-04-11 10:31:51</time>
      </trkpt>
      <trkpt lat="41.52373" lon="1.9801">
        <ele>378.2</ele>
        <time>2021-04-11 10:31:52</time>
      </trkpt>
      <trkpt lat="41.52369" lon="1.97998">
        <ele>377.4</ele>
        <time>2021-04-11 10:31:53</time>
      </trkpt>
      <trkpt lat="41.52365" lon="1.97985">
        <ele>376.6</ele>
        <time>2021-04-11 10:31:54</time>
      </trkpt>
      <trkpt lat="41.52365" lon="1.9797">
        <ele>376</ele>
        <time>2021-04-11 10:31:55</time>
      </trkpt>
      <trkpt lat="41.52364" lon="1.97956">
        <ele>375.4</ele>
        <time>2021-04-11 10:31:56</time>
      </trkpt>
      <trkpt lat="41.52363" lon="1.97941">
        <ele>374.8</ele>
        <time>2021-04-11 10:31:57</time>
      </trkpt>
      <trkpt lat="41.52362" lon="1.97928">
        <ele>374</ele>
        <time>2021-04-11 10:31:58</time>
      </trkpt>
      <trkpt lat="41.52359" lon="1.97914">
        <ele>373</ele>
        <time>2021-04-11 10:31:59</time>
      </trkpt>
      <trkpt lat="41.52355" lon="1.97902">
        <ele>372.2</ele>
        <time>2021-04-11 10:32:00</time>
      </trkpt>
      <trkpt lat="41.52348" lon="1.9789">
        <ele>371.6</ele>
        <time>2021-04-11 10:32:01</time>
      </trkpt>
      <trkpt lat="41.52341" lon="1.9788">
        <ele>371</ele>
        <time>2021-04-11 10:32:02</time>
      </trkpt>
      <trkpt lat="41.52332" lon="1.97871">
        <ele>370.4</ele>
        <time>2021-04-11 10:32:03</time>
      </trkpt>
      <trkpt lat="41.52323" lon="1.97862">
        <ele>370</ele>
        <time>2021-04-11 10:32:04</time>
      </trkpt>
      <trkpt lat="41.52314" lon="1.97854">
        <ele>369.4</ele>
        <time>2021-04-11 10:32:05</time>
      </trkpt>
      <trkpt lat="41.52304" lon="1.97846">
        <ele>368.8</ele>
        <time>2021-04-11 10:32:06</time>
      </trkpt>
      <trkpt lat="41.52294" lon="1.97838">
        <ele>368.2</ele>
        <time>2021-04-11 10:32:07</time>
      </trkpt>
      <trkpt lat="41.52284" lon="1.97831">
        <ele>367.6</ele>
        <time>2021-04-11 10:32:08</time>
      </trkpt>
      <trkpt lat="41.52275" lon="1.97824">
        <ele>366.8</ele>
        <time>2021-04-11 10:32:09</time>
      </trkpt>
      <trkpt lat="41.52267" lon="1.97817">
        <ele>366</ele>
        <time>2021-04-11 10:32:10</time>
      </trkpt>
      <trkpt lat="41.52259" lon="1.9781">
        <ele>365.6</ele>
        <time>2021-04-11 10:32:11</time>
      </trkpt>
      <trkpt lat="41.52252" lon="1.97803">
        <ele>365</ele>
        <time>2021-04-11 10:32:12</time>
      </trkpt>
      <trkpt lat="41.52246" lon="1.97797">
        <ele>364.4</ele>
        <time>2021-04-11 10:32:13</time>
      </trkpt>
      <trkpt lat="41.52239" lon="1.97791">
        <ele>363.8</ele>
        <time>2021-04-11 10:32:14</time>
      </trkpt>
      <trkpt lat="41.52233" lon="1.97786">
        <ele>363.2</ele>
        <time>2021-04-11 10:32:15</time>
      </trkpt>
      <trkpt lat="41.52227" lon="1.9778">
        <ele>362.4</ele>
        <time>2021-04-11 10:32:16</time>
      </trkpt>
      <trkpt lat="41.52221" lon="1.97776">
        <ele>362</ele>
        <time>2021-04-11 10:32:17</time>
      </trkpt>
      <trkpt lat="41.52216" lon="1.97771">
        <ele>361.4</ele>
        <time>2021-04-11 10:32:18</time>
      </trkpt>
      <trkpt lat="41.52211" lon="1.97768">
        <ele>360.8</ele>
        <time>2021-04-11 10:32:19</time>
      </trkpt>
      <trkpt lat="41.52206" lon="1.97766">
        <ele>360.4</ele>
        <time>2021-04-11 10:32:20</time>
      </trkpt>
      <trkpt lat="41.52201" lon="1.97766">
        <ele>360</ele>
        <time>2021-04-11 10:32:21</time>
      </trkpt>
      <trkpt lat="41.52198" lon="1.9777">
        <ele>359.4</ele>
        <time>2021-04-11 10:32:22</time>
      </trkpt>
      <trkpt lat="41.52196" lon="1.97776">
        <ele>359</ele>
        <time>2021-04-11 10:32:23</time>
      </trkpt>
      <trkpt lat="41.52197" lon="1.97782">
        <ele>358.6</ele>
        <time>2021-04-11 10:32:24</time>
      </trkpt>
      <trkpt lat="41.52198" lon="1.97789">
        <ele>358.2</ele>
        <time>2021-04-11 10:32:25</time>
      </trkpt>
      <trkpt lat="41.52199" lon="1.97796">
        <ele>358</ele>
        <time>2021-04-11 10:32:26</time>
      </trkpt>
      <trkpt lat="41.522" lon="1.97804">
        <ele>357.8</ele>
        <time>2021-04-11 10:32:27</time>
      </trkpt>
      <trkpt lat="41.52201" lon="1.97812">
        <ele>357.6</ele>
        <time>2021-04-11 10:32:28</time>
      </trkpt>
      <trkpt lat="41.52201" lon="1.97821">
        <ele>357.4</ele>
        <time>2021-04-11 10:32:29</time>
      </trkpt>
      <trkpt lat="41.52201" lon="1.9783">
        <ele>357.4</ele>
        <time>2021-04-11 10:32:30</time>
      </trkpt>
      <trkpt lat="41.522" lon="1.97839">
        <ele>357.2</ele>
        <time>2021-04-11 10:32:31</time>
      </trkpt>
      <trkpt lat="41.522" lon="1.97849">
        <ele>357.2</ele>
        <time>2021-04-11 10:32:32</time>
      </trkpt>
      <trkpt lat="41.52199" lon="1.97859">
        <ele>357</ele>
        <time>2021-04-11 10:32:33</time>
      </trkpt>
      <trkpt lat="41.522" lon="1.97869">
        <ele>356.8</ele>
        <time>2021-04-11 10:32:34</time>
      </trkpt>
      <trkpt lat="41.52201" lon="1.9788">
        <ele>356.8</ele>
        <time>2021-04-11 10:32:35</time>
      </trkpt>
      <trkpt lat="41.52201" lon="1.9789">
        <ele>356.6</ele>
        <time>2021-04-11 10:32:36</time>
      </trkpt>
      <trkpt lat="41.52201" lon="1.97901">
        <ele>356.4</ele>
        <time>2021-04-11 10:32:37</time>
      </trkpt>
      <trkpt lat="41.52199" lon="1.97912">
        <ele>356.2</ele>
        <time>2021-04-11 10:32:38</time>
      </trkpt>
      <trkpt lat="41.52196" lon="1.97923">
        <ele>356</ele>
        <time>2021-04-11 10:32:39</time>
      </trkpt>
      <trkpt lat="41.52192" lon="1.97933">
        <ele>355.6</ele>
        <time>2021-04-11 10:32:40</time>
      </trkpt>
      <trkpt lat="41.52187" lon="1.97942">
        <ele>355.4</ele>
        <time>2021-04-11 10:32:41</time>
      </trkpt>
      <trkpt lat="41.52183" lon="1.97952">
        <ele>355</ele>
        <time>2021-04-11 10:32:42</time>
      </trkpt>
      <trkpt lat="41.52178" lon="1.97962">
        <ele>354.6</ele>
        <time>2021-04-11 10:32:43</time>
      </trkpt>
      <trkpt lat="41.52172" lon="1.97973">
        <ele>354</ele>
        <time>2021-04-11 10:32:44</time>
      </trkpt>
      <trkpt lat="41.52165" lon="1.97982">
        <ele>353.2</ele>
        <time>2021-04-11 10:32:45</time>
      </trkpt>
      <trkpt lat="41.52158" lon="1.97991">
        <ele>352.6</ele>
        <time>2021-04-11 10:32:46</time>
      </trkpt>
      <trkpt lat="41.52149" lon="1.97998">
        <ele>351.8</ele>
        <time>2021-04-11 10:32:47</time>
      </trkpt>
      <trkpt lat="41.5214" lon="1.98003">
        <ele>351</ele>
        <time>2021-04-11 10:32:48</time>
      </trkpt>
      <trkpt lat="41.52129" lon="1.98004">
        <ele>350.2</ele>
        <time>2021-04-11 10:32:49</time>
      </trkpt>
      <trkpt lat="41.52118" lon="1.98004">
        <ele>349.2</ele>
        <time>2021-04-11 10:32:50</time>
      </trkpt>
      <trkpt lat="41.52107" lon="1.98002">
        <ele>348.4</ele>
        <time>2021-04-11 10:32:51</time>
      </trkpt>
      <trkpt lat="41.52096" lon="1.97998">
        <ele>347.4</ele>
        <time>2021-04-11 10:32:52</time>
      </trkpt>
      <trkpt lat="41.52084" lon="1.97995">
        <ele>346.6</ele>
        <time>2021-04-11 10:32:53</time>
      </trkpt>
      <trkpt lat="41.52071" lon="1.97994">
        <ele>345.6</ele>
        <time>2021-04-11 10:32:54</time>
      </trkpt>
      <trkpt lat="41.52058" lon="1.97994">
        <ele>344.6</ele>
        <time>2021-04-11 10:32:55</time>
      </trkpt>
      <trkpt lat="41.52045" lon="1.97997">
        <ele>343.4</ele>
        <time>2021-04-11 10:32:56</time>
      </trkpt>
      <trkpt lat="41.52032" lon="1.98003">
        <ele>342.4</ele>
        <time>2021-04-11 10:32:57</time>
      </trkpt>
      <trkpt lat="41.52019" lon="1.98011">
        <ele>341.4</ele>
        <time>2021-04-11 10:32:58</time>
      </trkpt>
      <trkpt lat="41.52007" lon="1.98019">
        <ele>340.4</ele>
        <time>2021-04-11 10:32:59</time>
      </trkpt>
      <trkpt lat="41.51995" lon="1.98027">
        <ele>339.4</ele>
        <time>2021-04-11 10:33:00</time>
      </trkpt>
      <trkpt lat="41.51982" lon="1.98035">
        <ele>338.2</ele>
        <time>2021-04-11 10:33:01</time>
      </trkpt>
      <trkpt lat="41.5197" lon="1.98043">
        <ele>337.6</ele>
        <time>2021-04-11 10:33:02</time>
      </trkpt>
      <trkpt lat="41.51959" lon="1.98051">
        <ele>337</ele>
        <time>2021-04-11 10:33:03</time>
      </trkpt>
      <trkpt lat="41.51947" lon="1.98059">
        <ele>336.6</ele>
        <time>2021-04-11 10:33:04</time>
      </trkpt>
      <trkpt lat="41.51936" lon="1.98067">
        <ele>336.6</ele>
        <time>2021-04-11 10:33:05</time>
      </trkpt>
      <trkpt lat="41.51924" lon="1.98073">
        <ele>336.6</ele>
        <time>2021-04-11 10:33:06</time>
      </trkpt>
      <trkpt lat="41.51914" lon="1.9808">
        <ele>336.6</ele>
        <time>2021-04-11 10:33:07</time>
      </trkpt>
      <trkpt lat="41.51904" lon="1.98087">
        <ele>336.6</ele>
        <time>2021-04-11 10:33:08</time>
      </trkpt>
      <trkpt lat="41.51894" lon="1.98094">
        <ele>336.6</ele>
        <time>2021-04-11 10:33:09</time>
      </trkpt>
      <trkpt lat="41.51884" lon="1.98103">
        <ele>336.6</ele>
        <time>2021-04-11 10:33:10</time>
      </trkpt>
      <trkpt lat="41.51874" lon="1.98111">
        <ele>336.4</ele>
        <time>2021-04-11 10:33:11</time>
      </trkpt>
      <trkpt lat="41.51865" lon="1.98119">
        <ele>336.2</ele>
        <time>2021-04-11 10:33:12</time>
      </trkpt>
      <trkpt lat="41.51857" lon="1.98126">
        <ele>336</ele>
        <time>2021-04-11 10:33:13</time>
      </trkpt>
      <trkpt lat="41.51846" lon="1.98134">
        <ele>335.6</ele>
        <time>2021-04-11 10:33:14</time>
      </trkpt>
      <trkpt lat="41.51836" lon="1.98141">
        <ele>335.4</ele>
        <time>2021-04-11 10:33:15</time>
      </trkpt>
      <trkpt lat="41.51827" lon="1.98149">
        <ele>335.4</ele>
        <time>2021-04-11 10:33:16</time>
      </trkpt>
      <trkpt lat="41.51818" lon="1.98156">
        <ele>335.2</ele>
        <time>2021-04-11 10:33:17</time>
      </trkpt>
      <trkpt lat="41.51808" lon="1.98163">
        <ele>335</ele>
        <time>2021-04-11 10:33:18</time>
      </trkpt>
      <trkpt lat="41.51799" lon="1.98171">
        <ele>334.6</ele>
        <time>2021-04-11 10:33:19</time>
      </trkpt>
      <trkpt lat="41.5179" lon="1.98178">
        <ele>334.2</ele>
        <time>2021-04-11 10:33:20</time>
      </trkpt>
      <trkpt lat="41.51779" lon="1.98184">
        <ele>333.8</ele>
        <time>2021-04-11 10:33:21</time>
      </trkpt>
      <trkpt lat="41.51769" lon="1.98187">
        <ele>333.6</ele>
        <time>2021-04-11 10:33:22</time>
      </trkpt>
      <trkpt lat="41.51758" lon="1.98188">
        <ele>333.2</ele>
        <time>2021-04-11 10:33:23</time>
      </trkpt>
      <trkpt lat="41.51747" lon="1.98186">
        <ele>332.8</ele>
        <time>2021-04-11 10:33:24</time>
      </trkpt>
      <trkpt lat="41.51735" lon="1.98182">
        <ele>332.4</ele>
        <time>2021-04-11 10:33:25</time>
      </trkpt>
      <trkpt lat="41.51724" lon="1.98177">
        <ele>332</ele>
        <time>2021-04-11 10:33:26</time>
      </trkpt>
      <trkpt lat="41.51712" lon="1.98173">
        <ele>331.6</ele>
        <time>2021-04-11 10:33:27</time>
      </trkpt>
      <trkpt lat="41.51701" lon="1.98169">
        <ele>331.2</ele>
        <time>2021-04-11 10:33:28</time>
      </trkpt>
      <trkpt lat="41.5169" lon="1.98165">
        <ele>330.8</ele>
        <time>2021-04-11 10:33:29</time>
      </trkpt>
      <trkpt lat="41.51679" lon="1.98162">
        <ele>330.6</ele>
        <time>2021-04-11 10:33:30</time>
      </trkpt>
      <trkpt lat="41.51668" lon="1.98157">
        <ele>330.2</ele>
        <time>2021-04-11 10:33:31</time>
      </trkpt>
      <trkpt lat="41.51657" lon="1.98154">
        <ele>330</ele>
        <time>2021-04-11 10:33:32</time>
      </trkpt>
      <trkpt lat="41.51646" lon="1.9815">
        <ele>329.6</ele>
        <time>2021-04-11 10:33:33</time>
      </trkpt>
      <trkpt lat="41.51635" lon="1.98147">
        <ele>329.2</ele>
        <time>2021-04-11 10:33:34</time>
      </trkpt>
      <trkpt lat="41.51623" lon="1.98143">
        <ele>328.8</ele>
        <time>2021-04-11 10:33:35</time>
      </trkpt>
      <trkpt lat="41.51611" lon="1.98137">
        <ele>328.4</ele>
        <time>2021-04-11 10:33:36</time>
      </trkpt>
      <trkpt lat="41.516" lon="1.98133">
        <ele>328</ele>
        <time>2021-04-11 10:33:37</time>
      </trkpt>
      <trkpt lat="41.5159" lon="1.98129">
        <ele>327.6</ele>
        <time>2021-04-11 10:33:38</time>
      </trkpt>
      <trkpt lat="41.51578" lon="1.98126">
        <ele>327.2</ele>
        <time>2021-04-11 10:33:39</time>
      </trkpt>
      <trkpt lat="41.51567" lon="1.98122">
        <ele>327</ele>
        <time>2021-04-11 10:33:40</time>
      </trkpt>
      <trkpt lat="41.51555" lon="1.9812">
        <ele>326.6</ele>
        <time>2021-04-11 10:33:41</time>
      </trkpt>
      <trkpt lat="41.51544" lon="1.98119">
        <ele>326.2</ele>
        <time>2021-04-11 10:33:42</time>
      </trkpt>
      <trkpt lat="41.51533" lon="1.9812">
        <ele>326</ele>
        <time>2021-04-11 10:33:43</time>
      </trkpt>
      <trkpt lat="41.51522" lon="1.98124">
        <ele>325.8</ele>
        <time>2021-04-11 10:33:44</time>
      </trkpt>
      <trkpt lat="41.51511" lon="1.98129">
        <ele>325.6</ele>
        <time>2021-04-11 10:33:45</time>
      </trkpt>
      <trkpt lat="41.515" lon="1.98137">
        <ele>325.4</ele>
        <time>2021-04-11 10:33:46</time>
      </trkpt>
      <trkpt lat="41.5149" lon="1.98145">
        <ele>325.2</ele>
        <time>2021-04-11 10:33:47</time>
      </trkpt>
      <trkpt lat="41.51481" lon="1.98154">
        <ele>324.8</ele>
        <time>2021-04-11 10:33:48</time>
      </trkpt>
      <trkpt lat="41.51472" lon="1.98163">
        <ele>324.4</ele>
        <time>2021-04-11 10:33:49</time>
      </trkpt>
      <trkpt lat="41.51463" lon="1.98172">
        <ele>324.2</ele>
        <time>2021-04-11 10:33:50</time>
      </trkpt>
      <trkpt lat="41.51453" lon="1.9818">
        <ele>323.8</ele>
        <time>2021-04-11 10:33:51</time>
      </trkpt>
      <trkpt lat="41.51443" lon="1.98187">
        <ele>323.4</ele>
        <time>2021-04-11 10:33:52</time>
      </trkpt>
      <trkpt lat="41.51432" lon="1.98192">
        <ele>322.8</ele>
        <time>2021-04-11 10:33:53</time>
      </trkpt>
      <trkpt lat="41.5142" lon="1.98196">
        <ele>322.2</ele>
        <time>2021-04-11 10:33:54</time>
      </trkpt>
      <trkpt lat="41.51408" lon="1.98197">
        <ele>321.4</ele>
        <time>2021-04-11 10:33:55</time>
      </trkpt>
      <trkpt lat="41.51395" lon="1.98196">
        <ele>320.4</ele>
        <time>2021-04-11 10:33:56</time>
      </trkpt>
      <trkpt lat="41.51382" lon="1.98195">
        <ele>319.6</ele>
        <time>2021-04-11 10:33:57</time>
      </trkpt>
      <trkpt lat="41.51369" lon="1.98193">
        <ele>318.6</ele>
        <time>2021-04-11 10:33:58</time>
      </trkpt>
      <trkpt lat="41.51355" lon="1.98193">
        <ele>317.6</ele>
        <time>2021-04-11 10:33:59</time>
      </trkpt>
      <trkpt lat="41.51342" lon="1.98194">
        <ele>316.8</ele>
        <time>2021-04-11 10:34:00</time>
      </trkpt>
      <trkpt lat="41.51329" lon="1.98196">
        <ele>315.8</ele>
        <time>2021-04-11 10:34:01</time>
      </trkpt>
      <trkpt lat="41.51317" lon="1.98202">
        <ele>314.8</ele>
        <time>2021-04-11 10:34:02</time>
      </trkpt>
      <trkpt lat="41.51304" lon="1.98208">
        <ele>314</ele>
        <time>2021-04-11 10:34:03</time>
      </trkpt>
      <trkpt lat="41.51292" lon="1.98216">
        <ele>312.8</ele>
        <time>2021-04-11 10:34:04</time>
      </trkpt>
      <trkpt lat="41.51279" lon="1.98223">
        <ele>311.8</ele>
        <time>2021-04-11 10:34:05</time>
      </trkpt>
      <trkpt lat="41.51265" lon="1.98228">
        <ele>310.8</ele>
        <time>2021-04-11 10:34:06</time>
      </trkpt>
      <trkpt lat="41.51251" lon="1.98231">
        <ele>309.8</ele>
        <time>2021-04-11 10:34:07</time>
      </trkpt>
      <trkpt lat="41.51235" lon="1.9823">
        <ele>308.8</ele>
        <time>2021-04-11 10:34:08</time>
      </trkpt>
      <trkpt lat="41.51221" lon="1.9823">
        <ele>307.6</ele>
        <time>2021-04-11 10:34:09</time>
      </trkpt>
      <trkpt lat="41.51206" lon="1.98227">
        <ele>306.4</ele>
        <time>2021-04-11 10:34:10</time>
      </trkpt>
      <trkpt lat="41.51192" lon="1.98225">
        <ele>305.2</ele>
        <time>2021-04-11 10:34:11</time>
      </trkpt>
      <trkpt lat="41.51178" lon="1.98222">
        <ele>304</ele>
        <time>2021-04-11 10:34:12</time>
      </trkpt>
      <trkpt lat="41.51163" lon="1.9822">
        <ele>302.8</ele>
        <time>2021-04-11 10:34:13</time>
      </trkpt>
      <trkpt lat="41.51148" lon="1.98217">
        <ele>301.8</ele>
        <time>2021-04-11 10:34:14</time>
      </trkpt>
      <trkpt lat="41.51133" lon="1.98214">
        <ele>300.6</ele>
        <time>2021-04-11 10:34:15</time>
      </trkpt>
      <trkpt lat="41.51119" lon="1.98211">
        <ele>299.6</ele>
        <time>2021-04-11 10:34:16</time>
      </trkpt>
      <trkpt lat="41.51104" lon="1.98208">
        <ele>298.8</ele>
        <time>2021-04-11 10:34:17</time>
      </trkpt>
      <trkpt lat="41.51089" lon="1.98205">
        <ele>298</ele>
        <time>2021-04-11 10:34:18</time>
      </trkpt>
      <trkpt lat="41.51076" lon="1.982">
        <ele>297.4</ele>
        <time>2021-04-11 10:34:19</time>
      </trkpt>
      <trkpt lat="41.51062" lon="1.98193">
        <ele>297</ele>
        <time>2021-04-11 10:34:20</time>
      </trkpt>
      <trkpt lat="41.5105" lon="1.98187">
        <ele>297</ele>
        <time>2021-04-11 10:34:21</time>
      </trkpt>
      <trkpt lat="41.51039" lon="1.9818">
        <ele>297</ele>
        <time>2021-04-11 10:34:22</time>
      </trkpt>
      <trkpt lat="41.51027" lon="1.98174">
        <ele>297.2</ele>
        <time>2021-04-11 10:34:23</time>
      </trkpt>
      <trkpt lat="41.51017" lon="1.98168">
        <ele>297.2</ele>
        <time>2021-04-11 10:34:24</time>
      </trkpt>
      <trkpt lat="41.51005" lon="1.98162">
        <ele>297.2</ele>
        <time>2021-04-11 10:34:25</time>
      </trkpt>
      <trkpt lat="41.50993" lon="1.98159">
        <ele>297.2</ele>
        <time>2021-04-11 10:34:26</time>
      </trkpt>
      <trkpt lat="41.50981" lon="1.98157">
        <ele>296.8</ele>
        <time>2021-04-11 10:34:27</time>
      </trkpt>
      <trkpt lat="41.50968" lon="1.98158">
        <ele>296.4</ele>
        <time>2021-04-11 10:34:28</time>
      </trkpt>
      <trkpt lat="41.50954" lon="1.9816">
        <ele>295.6</ele>
        <time>2021-04-11 10:34:29</time>
      </trkpt>
      <trkpt lat="41.50941" lon="1.98163">
        <ele>294.8</ele>
        <time>2021-04-11 10:34:30</time>
      </trkpt>
      <trkpt lat="41.50927" lon="1.98166">
        <ele>293.8</ele>
        <time>2021-04-11 10:34:31</time>
      </trkpt>
      <trkpt lat="41.50913" lon="1.98169">
        <ele>292.6</ele>
        <time>2021-04-11 10:34:32</time>
      </trkpt>
      <trkpt lat="41.50899" lon="1.98173">
        <ele>291.6</ele>
        <time>2021-04-11 10:34:33</time>
      </trkpt>
      <trkpt lat="41.50885" lon="1.98176">
        <ele>290.4</ele>
        <time>2021-04-11 10:34:34</time>
      </trkpt>
      <trkpt lat="41.50871" lon="1.98181">
        <ele>289.4</ele>
        <time>2021-04-11 10:34:35</time>
      </trkpt>
      <trkpt lat="41.50857" lon="1.98186">
        <ele>288.4</ele>
        <time>2021-04-11 10:34:36</time>
      </trkpt>
      <trkpt lat="41.50844" lon="1.98192">
        <ele>287.6</ele>
        <time>2021-04-11 10:34:37</time>
      </trkpt>
      <trkpt lat="41.50831" lon="1.98198">
        <ele>287</ele>
        <time>2021-04-11 10:34:38</time>
      </trkpt>
      <trkpt lat="41.50817" lon="1.98205">
        <ele>286.4</ele>
        <time>2021-04-11 10:34:39</time>
      </trkpt>
      <trkpt lat="41.50804" lon="1.98212">
        <ele>285.8</ele>
        <time>2021-04-11 10:34:40</time>
      </trkpt>
      <trkpt lat="41.50792" lon="1.98219">
        <ele>285.4</ele>
        <time>2021-04-11 10:34:41</time>
      </trkpt>
      <trkpt lat="41.50781" lon="1.98225">
        <ele>285</ele>
        <time>2021-04-11 10:34:42</time>
      </trkpt>
      <trkpt lat="41.50768" lon="1.98232">
        <ele>284.6</ele>
        <time>2021-04-11 10:34:43</time>
      </trkpt>
      <trkpt lat="41.50757" lon="1.98239">
        <ele>284.2</ele>
        <time>2021-04-11 10:34:44</time>
      </trkpt>
      <trkpt lat="41.50744" lon="1.98245">
        <ele>284</ele>
        <time>2021-04-11 10:34:45</time>
      </trkpt>
      <trkpt lat="41.50733" lon="1.98248">
        <ele>283.6</ele>
        <time>2021-04-11 10:34:46</time>
      </trkpt>
      <trkpt lat="41.5072" lon="1.98248">
        <ele>283.4</ele>
        <time>2021-04-11 10:34:47</time>
      </trkpt>
      <trkpt lat="41.50707" lon="1.98245">
        <ele>283.2</ele>
        <time>2021-04-11 10:34:48</time>
      </trkpt>
      <trkpt lat="41.50695" lon="1.98241">
        <ele>283</ele>
        <time>2021-04-11 10:34:49</time>
      </trkpt>
      <trkpt lat="41.50683" lon="1.98236">
        <ele>282.8</ele>
        <time>2021-04-11 10:34:50</time>
      </trkpt>
      <trkpt lat="41.50671" lon="1.9823">
        <ele>282.6</ele>
        <time>2021-04-11 10:34:51</time>
      </trkpt>
      <trkpt lat="41.5066" lon="1.98223">
        <ele>282.2</ele>
        <time>2021-04-11 10:34:52</time>
      </trkpt>
      <trkpt lat="41.50648" lon="1.98218">
        <ele>281.8</ele>
        <time>2021-04-11 10:34:53</time>
      </trkpt>
      <trkpt lat="41.50636" lon="1.98213">
        <ele>281.4</ele>
        <time>2021-04-11 10:34:54</time>
      </trkpt>
      <trkpt lat="41.50624" lon="1.98208">
        <ele>280.8</ele>
        <time>2021-04-11 10:34:55</time>
      </trkpt>
      <trkpt lat="41.50612" lon="1.98203">
        <ele>280.4</ele>
        <time>2021-04-11 10:34:56</time>
      </trkpt>
      <trkpt lat="41.506" lon="1.98198">
        <ele>280</ele>
        <time>2021-04-11 10:34:57</time>
      </trkpt>
      <trkpt lat="41.50589" lon="1.98193">
        <ele>279.6</ele>
        <time>2021-04-11 10:34:58</time>
      </trkpt>
      <trkpt lat="41.50577" lon="1.98187">
        <ele>279.4</ele>
        <time>2021-04-11 10:34:59</time>
      </trkpt>
      <trkpt lat="41.50567" lon="1.98178">
        <ele>279.2</ele>
        <time>2021-04-11 10:35:00</time>
      </trkpt>
      <trkpt lat="41.5056" lon="1.98165">
        <ele>279.2</ele>
        <time>2021-04-11 10:35:01</time>
      </trkpt>
      <trkpt lat="41.50554" lon="1.98151">
        <ele>279.2</ele>
        <time>2021-04-11 10:35:02</time>
      </trkpt>
      <trkpt lat="41.5055" lon="1.98137">
        <ele>279.2</ele>
        <time>2021-04-11 10:35:03</time>
      </trkpt>
      <trkpt lat="41.50544" lon="1.98123">
        <ele>279.4</ele>
        <time>2021-04-11 10:35:04</time>
      </trkpt>
      <trkpt lat="41.5054" lon="1.98111">
        <ele>279.8</ele>
        <time>2021-04-11 10:35:05</time>
      </trkpt>
      <trkpt lat="41.50533" lon="1.98101">
        <ele>280.2</ele>
        <time>2021-04-11 10:35:06</time>
      </trkpt>
      <trkpt lat="41.50525" lon="1.98093">
        <ele>280.4</ele>
        <time>2021-04-11 10:35:07</time>
      </trkpt>
      <trkpt lat="41.50515" lon="1.9809">
        <ele>280.8</ele>
        <time>2021-04-11 10:35:08</time>
      </trkpt>
      <trkpt lat="41.50505" lon="1.98088">
        <ele>281.2</ele>
        <time>2021-04-11 10:35:09</time>
      </trkpt>
      <trkpt lat="41.50494" lon="1.98088">
        <ele>281.6</ele>
        <time>2021-04-11 10:35:10</time>
      </trkpt>
      <trkpt lat="41.50484" lon="1.98088">
        <ele>282</ele>
        <time>2021-04-11 10:35:11</time>
      </trkpt>
      <trkpt lat="41.50474" lon="1.9809">
        <ele>282.4</ele>
        <time>2021-04-11 10:35:12</time>
      </trkpt>
      <trkpt lat="41.50463" lon="1.98091">
        <ele>283</ele>
        <time>2021-04-11 10:35:13</time>
      </trkpt>
      <trkpt lat="41.50453" lon="1.98093">
        <ele>283.2</ele>
        <time>2021-04-11 10:35:14</time>
      </trkpt>
      <trkpt lat="41.50442" lon="1.98095">
        <ele>283.4</ele>
        <time>2021-04-11 10:35:15</time>
      </trkpt>
      <trkpt lat="41.50433" lon="1.98096">
        <ele>283.8</ele>
        <time>2021-04-11 10:35:16</time>
      </trkpt>
      <trkpt lat="41.50422" lon="1.98097">
        <ele>283.8</ele>
        <time>2021-04-11 10:35:17</time>
      </trkpt>
      <trkpt lat="41.50412" lon="1.98097">
        <ele>284</ele>
        <time>2021-04-11 10:35:18</time>
      </trkpt>
      <trkpt lat="41.50403" lon="1.98099">
        <ele>284</ele>
        <time>2021-04-11 10:35:19</time>
      </trkpt>
      <trkpt lat="41.50393" lon="1.981">
        <ele>284</ele>
        <time>2021-04-11 10:35:20</time>
      </trkpt>
      <trkpt lat="41.50383" lon="1.98101">
        <ele>284</ele>
        <time>2021-04-11 10:35:21</time>
      </trkpt>
      <trkpt lat="41.50373" lon="1.98102">
        <ele>284</ele>
        <time>2021-04-11 10:35:22</time>
      </trkpt>
      <trkpt lat="41.50363" lon="1.98103">
        <ele>284</ele>
        <time>2021-04-11 10:35:23</time>
      </trkpt>
      <trkpt lat="41.50352" lon="1.98104">
        <ele>284</ele>
        <time>2021-04-11 10:35:24</time>
      </trkpt>
      <trkpt lat="41.50343" lon="1.98105">
        <ele>284</ele>
        <time>2021-04-11 10:35:25</time>
      </trkpt>
      <trkpt lat="41.50333" lon="1.98106">
        <ele>284</ele>
        <time>2021-04-11 10:35:26</time>
      </trkpt>
      <trkpt lat="41.50324" lon="1.98107">
        <ele>283.8</ele>
        <time>2021-04-11 10:35:27</time>
      </trkpt>
      <trkpt lat="41.50313" lon="1.98109">
        <ele>283.8</ele>
        <time>2021-04-11 10:35:28</time>
      </trkpt>
      <trkpt lat="41.50303" lon="1.9811">
        <ele>283.8</ele>
        <time>2021-04-11 10:35:29</time>
      </trkpt>
      <trkpt lat="41.50293" lon="1.98111">
        <ele>283.6</ele>
        <time>2021-04-11 10:35:30</time>
      </trkpt>
      <trkpt lat="41.50283" lon="1.98113">
        <ele>283.6</ele>
        <time>2021-04-11 10:35:31</time>
      </trkpt>
      <trkpt lat="41.50273" lon="1.98114">
        <ele>283.6</ele>
        <time>2021-04-11 10:35:32</time>
      </trkpt>
      <trkpt lat="41.50263" lon="1.98116">
        <ele>283.6</ele>
        <time>2021-04-11 10:35:33</time>
      </trkpt>
      <trkpt lat="41.50252" lon="1.98116">
        <ele>283.6</ele>
        <time>2021-04-11 10:35:34</time>
      </trkpt>
      <trkpt lat="41.50243" lon="1.98118">
        <ele>283.6</ele>
        <time>2021-04-11 10:35:35</time>
      </trkpt>
      <trkpt lat="41.50233" lon="1.98119">
        <ele>283.6</ele>
        <time>2021-04-11 10:35:36</time>
      </trkpt>
      <trkpt lat="41.50224" lon="1.9812">
        <ele>283.4</ele>
        <time>2021-04-11 10:35:37</time>
      </trkpt>
      <trkpt lat="41.50212" lon="1.98122">
        <ele>283.2</ele>
        <time>2021-04-11 10:35:38</time>
      </trkpt>
      <trkpt lat="41.50202" lon="1.98122">
        <ele>282.6</ele>
        <time>2021-04-11 10:35:39</time>
      </trkpt>
      <trkpt lat="41.5019" lon="1.98121">
        <ele>282</ele>
        <time>2021-04-11 10:35:40</time>
      </trkpt>
      <trkpt lat="41.50179" lon="1.9812">
        <ele>281.4</ele>
        <time>2021-04-11 10:35:41</time>
      </trkpt>
      <trkpt lat="41.50168" lon="1.98118">
        <ele>280.6</ele>
        <time>2021-04-11 10:35:42</time>
      </trkpt>
      <trkpt lat="41.50156" lon="1.98114">
        <ele>279.8</ele>
        <time>2021-04-11 10:35:43</time>
      </trkpt>
      <trkpt lat="41.50144" lon="1.98111">
        <ele>279.2</ele>
        <time>2021-04-11 10:35:44</time>
      </trkpt>
      <trkpt lat="41.50132" lon="1.9811">
        <ele>278.4</ele>
        <time>2021-04-11 10:35:45</time>
      </trkpt>
      <trkpt lat="41.5012" lon="1.9811">
        <ele>277.8</ele>
        <time>2021-04-11 10:35:46</time>
      </trkpt>
      <trkpt lat="41.50108" lon="1.98115">
        <ele>277.2</ele>
        <time>2021-04-11 10:35:47</time>
      </trkpt>
      <trkpt lat="41.50096" lon="1.98122">
        <ele>276.6</ele>
        <time>2021-04-11 10:35:48</time>
      </trkpt>
      <trkpt lat="41.50086" lon="1.9813">
        <ele>276.2</ele>
        <time>2021-04-11 10:35:49</time>
      </trkpt>
      <trkpt lat="41.50075" lon="1.98139">
        <ele>276</ele>
        <time>2021-04-11 10:35:50</time>
      </trkpt>
      <trkpt lat="41.50068" lon="1.9815">
        <ele>275.6</ele>
        <time>2021-04-11 10:35:51</time>
      </trkpt>
      <trkpt lat="41.50059" lon="1.9816">
        <ele>275.4</ele>
        <time>2021-04-11 10:35:52</time>
      </trkpt>
      <trkpt lat="41.50051" lon="1.9817">
        <ele>275.2</ele>
        <time>2021-04-11 10:35:53</time>
      </trkpt>
      <trkpt lat="41.50042" lon="1.9818">
        <ele>274.8</ele>
        <time>2021-04-11 10:35:54</time>
      </trkpt>
      <trkpt lat="41.50033" lon="1.9819">
        <ele>274.4</ele>
        <time>2021-04-11 10:35:55</time>
      </trkpt>
      <trkpt lat="41.50024" lon="1.982">
        <ele>273.8</ele>
        <time>2021-04-11 10:35:56</time>
      </trkpt>
      <trkpt lat="41.50015" lon="1.98211">
        <ele>273</ele>
        <time>2021-04-11 10:35:57</time>
      </trkpt>
      <trkpt lat="41.50005" lon="1.98222">
        <ele>272.2</ele>
        <time>2021-04-11 10:35:58</time>
      </trkpt>
      <trkpt lat="41.49995" lon="1.98232">
        <ele>271.2</ele>
        <time>2021-04-11 10:35:59</time>
      </trkpt>
      <trkpt lat="41.49986" lon="1.98245">
        <ele>270.4</ele>
        <time>2021-04-11 10:36:00</time>
      </trkpt>
      <trkpt lat="41.49978" lon="1.98258">
        <ele>269.4</ele>
        <time>2021-04-11 10:36:01</time>
      </trkpt>
      <trkpt lat="41.4997" lon="1.98273">
        <ele>268.6</ele>
        <time>2021-04-11 10:36:02</time>
      </trkpt>
      <trkpt lat="41.49963" lon="1.98288">
        <ele>267.8</ele>
        <time>2021-04-11 10:36:03</time>
      </trkpt>
      <trkpt lat="41.49957" lon="1.98303">
        <ele>267</ele>
        <time>2021-04-11 10:36:04</time>
      </trkpt>
      <trkpt lat="41.4995" lon="1.98317">
        <ele>266.2</ele>
        <time>2021-04-11 10:36:05</time>
      </trkpt>
      <trkpt lat="41.49944" lon="1.98329">
        <ele>265.6</ele>
        <time>2021-04-11 10:36:06</time>
      </trkpt>
      <trkpt lat="41.49935" lon="1.98339">
        <ele>265</ele>
        <time>2021-04-11 10:36:07</time>
      </trkpt>
      <trkpt lat="41.49926" lon="1.98345">
        <ele>264.2</ele>
        <time>2021-04-11 10:36:08</time>
      </trkpt>
      <trkpt lat="41.49916" lon="1.98344">
        <ele>263.4</ele>
        <time>2021-04-11 10:36:09</time>
      </trkpt>
      <trkpt lat="41.49905" lon="1.98338">
        <ele>262.8</ele>
        <time>2021-04-11 10:36:10</time>
      </trkpt>
      <trkpt lat="41.49897" lon="1.98329">
        <ele>261.8</ele>
        <time>2021-04-11 10:36:11</time>
      </trkpt>
      <trkpt lat="41.4989" lon="1.98316">
        <ele>261</ele>
        <time>2021-04-11 10:36:12</time>
      </trkpt>
      <trkpt lat="41.49884" lon="1.98303">
        <ele>260.2</ele>
        <time>2021-04-11 10:36:13</time>
      </trkpt>
      <trkpt lat="41.49877" lon="1.98291">
        <ele>259.4</ele>
        <time>2021-04-11 10:36:14</time>
      </trkpt>
      <trkpt lat="41.49869" lon="1.98279">
        <ele>258.8</ele>
        <time>2021-04-11 10:36:15</time>
      </trkpt>
      <trkpt lat="41.4986" lon="1.98268">
        <ele>258.2</ele>
        <time>2021-04-11 10:36:16</time>
      </trkpt>
      <trkpt lat="41.4985" lon="1.9826">
        <ele>257.4</ele>
        <time>2021-04-11 10:36:17</time>
      </trkpt>
      <trkpt lat="41.49839" lon="1.98252">
        <ele>257</ele>
        <time>2021-04-11 10:36:18</time>
      </trkpt>
      <trkpt lat="41.49827" lon="1.98247">
        <ele>256.4</ele>
        <time>2021-04-11 10:36:19</time>
      </trkpt>
      <trkpt lat="41.49813" lon="1.98248">
        <ele>255.8</ele>
        <time>2021-04-11 10:36:20</time>
      </trkpt>
      <trkpt lat="41.498" lon="1.9825">
        <ele>255.2</ele>
        <time>2021-04-11 10:36:21</time>
      </trkpt>
      <trkpt lat="41.49788" lon="1.98252">
        <ele>254.6</ele>
        <time>2021-04-11 10:36:22</time>
      </trkpt>
      <trkpt lat="41.49775" lon="1.98255">
        <ele>254.2</ele>
        <time>2021-04-11 10:36:23</time>
      </trkpt>
      <trkpt lat="41.49762" lon="1.98256">
        <ele>253.6</ele>
        <time>2021-04-11 10:36:24</time>
      </trkpt>
      <trkpt lat="41.49749" lon="1.98259">
        <ele>253</ele>
        <time>2021-04-11 10:36:25</time>
      </trkpt>
      <trkpt lat="41.49738" lon="1.98261">
        <ele>252.6</ele>
        <time>2021-04-11 10:36:26</time>
      </trkpt>
      <trkpt lat="41.49724" lon="1.98262">
        <ele>252.4</ele>
        <time>2021-04-11 10:36:27</time>
      </trkpt>
      <trkpt lat="41.49712" lon="1.98264">
        <ele>252.2</ele>
        <time>2021-04-11 10:36:28</time>
      </trkpt>
      <trkpt lat="41.49701" lon="1.98265">
        <ele>252</ele>
        <time>2021-04-11 10:36:29</time>
      </trkpt>
      <trkpt lat="41.49689" lon="1.98267">
        <ele>251.8</ele>
        <time>2021-04-11 10:36:30</time>
      </trkpt>
      <trkpt lat="41.49677" lon="1.98268">
        <ele>251.6</ele>
        <time>2021-04-11 10:36:31</time>
      </trkpt>
      <trkpt lat="41.49664" lon="1.98271">
        <ele>251.6</ele>
        <time>2021-04-11 10:36:32</time>
      </trkpt>
      <trkpt lat="41.49654" lon="1.98275">
        <ele>251.4</ele>
        <time>2021-04-11 10:36:33</time>
      </trkpt>
      <trkpt lat="41.49642" lon="1.9828">
        <ele>251.4</ele>
        <time>2021-04-11 10:36:34</time>
      </trkpt>
      <trkpt lat="41.4963" lon="1.98286">
        <ele>251.2</ele>
        <time>2021-04-11 10:36:35</time>
      </trkpt>
      <trkpt lat="41.4962" lon="1.98293">
        <ele>251.2</ele>
        <time>2021-04-11 10:36:36</time>
      </trkpt>
      <trkpt lat="41.49611" lon="1.98301">
        <ele>251</ele>
        <time>2021-04-11 10:36:37</time>
      </trkpt>
      <trkpt lat="41.49601" lon="1.98309">
        <ele>251</ele>
        <time>2021-04-11 10:36:38</time>
      </trkpt>
      <trkpt lat="41.49591" lon="1.98316">
        <ele>251</ele>
        <time>2021-04-11 10:36:39</time>
      </trkpt>
      <trkpt lat="41.4958" lon="1.9832">
        <ele>251</ele>
        <time>2021-04-11 10:36:40</time>
      </trkpt>
      <trkpt lat="41.49569" lon="1.98324">
        <ele>251</ele>
        <time>2021-04-11 10:36:41</time>
      </trkpt>
      <trkpt lat="41.49558" lon="1.98325">
        <ele>250.8</ele>
        <time>2021-04-11 10:36:42</time>
      </trkpt>
      <trkpt lat="41.49547" lon="1.98325">
        <ele>250.6</ele>
        <time>2021-04-11 10:36:43</time>
      </trkpt>
      <trkpt lat="41.49535" lon="1.98325">
        <ele>250.6</ele>
        <time>2021-04-11 10:36:44</time>
      </trkpt>
      <trkpt lat="41.49523" lon="1.98325">
        <ele>250.2</ele>
        <time>2021-04-11 10:36:45</time>
      </trkpt>
      <trkpt lat="41.49512" lon="1.98326">
        <ele>250</ele>
        <time>2021-04-11 10:36:46</time>
      </trkpt>
      <trkpt lat="41.495" lon="1.98326">
        <ele>249.8</ele>
        <time>2021-04-11 10:36:47</time>
      </trkpt>
      <trkpt lat="41.49489" lon="1.98328">
        <ele>249.6</ele>
        <time>2021-04-11 10:36:48</time>
      </trkpt>
      <trkpt lat="41.49477" lon="1.98329">
        <ele>249.6</ele>
        <time>2021-04-11 10:36:49</time>
      </trkpt>
      <trkpt lat="41.49466" lon="1.98331">
        <ele>249.4</ele>
        <time>2021-04-11 10:36:50</time>
      </trkpt>
      <trkpt lat="41.49455" lon="1.98333">
        <ele>249.4</ele>
        <time>2021-04-11 10:36:51</time>
      </trkpt>
      <trkpt lat="41.49443" lon="1.98336">
        <ele>249.2</ele>
        <time>2021-04-11 10:36:52</time>
      </trkpt>
      <trkpt lat="41.49433" lon="1.9834">
        <ele>249.2</ele>
        <time>2021-04-11 10:36:53</time>
      </trkpt>
      <trkpt lat="41.49422" lon="1.98344">
        <ele>249</ele>
        <time>2021-04-11 10:36:54</time>
      </trkpt>
      <trkpt lat="41.49412" lon="1.98348">
        <ele>249</ele>
        <time>2021-04-11 10:36:55</time>
      </trkpt>
      <trkpt lat="41.49401" lon="1.98351">
        <ele>248.6</ele>
        <time>2021-04-11 10:36:56</time>
      </trkpt>
      <trkpt lat="41.4939" lon="1.98355">
        <ele>248.4</ele>
        <time>2021-04-11 10:36:57</time>
      </trkpt>
      <trkpt lat="41.49379" lon="1.98359">
        <ele>248</ele>
        <time>2021-04-11 10:36:58</time>
      </trkpt>
      <trkpt lat="41.49368" lon="1.98362">
        <ele>247.4</ele>
        <time>2021-04-11 10:36:59</time>
      </trkpt>
      <trkpt lat="41.49356" lon="1.98364">
        <ele>246.6</ele>
        <time>2021-04-11 10:37:00</time>
      </trkpt>
      <trkpt lat="41.49344" lon="1.98365">
        <ele>245.8</ele>
        <time>2021-04-11 10:37:01</time>
      </trkpt>
      <trkpt lat="41.49331" lon="1.98363">
        <ele>245</ele>
        <time>2021-04-11 10:37:02</time>
      </trkpt>
      <trkpt lat="41.49318" lon="1.9836">
        <ele>244</ele>
        <time>2021-04-11 10:37:03</time>
      </trkpt>
      <trkpt lat="41.49305" lon="1.98355">
        <ele>243</ele>
        <time>2021-04-11 10:37:04</time>
      </trkpt>
      <trkpt lat="41.49293" lon="1.9835">
        <ele>242.2</ele>
        <time>2021-04-11 10:37:05</time>
      </trkpt>
      <trkpt lat="41.4928" lon="1.98343">
        <ele>240.8</ele>
        <time>2021-04-11 10:37:06</time>
      </trkpt>
      <trkpt lat="41.49268" lon="1.98337">
        <ele>239.8</ele>
        <time>2021-04-11 10:37:07</time>
      </trkpt>
      <trkpt lat="41.49255" lon="1.9833">
        <ele>238.6</ele>
        <time>2021-04-11 10:37:08</time>
      </trkpt>
      <trkpt lat="41.49242" lon="1.98323">
        <ele>237.4</ele>
        <time>2021-04-11 10:37:09</time>
      </trkpt>
      <trkpt lat="41.49229" lon="1.98316">
        <ele>236.6</ele>
        <time>2021-04-11 10:37:10</time>
      </trkpt>
      <trkpt lat="41.49217" lon="1.98309">
        <ele>235.6</ele>
        <time>2021-04-11 10:37:11</time>
      </trkpt>
      <trkpt lat="41.49204" lon="1.98304">
        <ele>234.8</ele>
        <time>2021-04-11 10:37:12</time>
      </trkpt>
      <trkpt lat="41.4919" lon="1.983">
        <ele>234</ele>
        <time>2021-04-11 10:37:13</time>
      </trkpt>
      <trkpt lat="41.49176" lon="1.98297">
        <ele>233.4</ele>
        <time>2021-04-11 10:37:14</time>
      </trkpt>
      <trkpt lat="41.49162" lon="1.98295">
        <ele>232.8</ele>
        <time>2021-04-11 10:37:15</time>
      </trkpt>
      <trkpt lat="41.49148" lon="1.98293">
        <ele>232</ele>
        <time>2021-04-11 10:37:16</time>
      </trkpt>
      <trkpt lat="41.49134" lon="1.98293">
        <ele>231.4</ele>
        <time>2021-04-11 10:37:17</time>
      </trkpt>
      <trkpt lat="41.4912" lon="1.98296">
        <ele>230.8</ele>
        <time>2021-04-11 10:37:18</time>
      </trkpt>
      <trkpt lat="41.49108" lon="1.98301">
        <ele>230.4</ele>
        <time>2021-04-11 10:37:19</time>
      </trkpt>
      <trkpt lat="41.49095" lon="1.9831">
        <ele>230</ele>
        <time>2021-04-11 10:37:20</time>
      </trkpt>
      <trkpt lat="41.49084" lon="1.98319">
        <ele>229.8</ele>
        <time>2021-04-11 10:37:21</time>
      </trkpt>
      <trkpt lat="41.49074" lon="1.98328">
        <ele>229.6</ele>
        <time>2021-04-11 10:37:22</time>
      </trkpt>
      <trkpt lat="41.49062" lon="1.98338">
        <ele>229.6</ele>
        <time>2021-04-11 10:37:23</time>
      </trkpt>
      <trkpt lat="41.49052" lon="1.98347">
        <ele>229.6</ele>
        <time>2021-04-11 10:37:24</time>
      </trkpt>
      <trkpt lat="41.49041" lon="1.98355">
        <ele>229.8</ele>
        <time>2021-04-11 10:37:25</time>
      </trkpt>
      <trkpt lat="41.49031" lon="1.98364">
        <ele>230</ele>
        <time>2021-04-11 10:37:26</time>
      </trkpt>
      <trkpt lat="41.49021" lon="1.98372">
        <ele>230</ele>
        <time>2021-04-11 10:37:27</time>
      </trkpt>
      <trkpt lat="41.4901" lon="1.9838">
        <ele>230.2</ele>
        <time>2021-04-11 10:37:28</time>
      </trkpt>
      <trkpt lat="41.49" lon="1.98388">
        <ele>230.6</ele>
        <time>2021-04-11 10:37:29</time>
      </trkpt>
      <trkpt lat="41.4899" lon="1.98395">
        <ele>230.6</ele>
        <time>2021-04-11 10:37:30</time>
      </trkpt>
      <trkpt lat="41.48979" lon="1.98402">
        <ele>230.4</ele>
        <time>2021-04-11 10:37:31</time>
      </trkpt>
      <trkpt lat="41.48968" lon="1.98406">
        <ele>230</ele>
        <time>2021-04-11 10:37:32</time>
      </trkpt>
      <trkpt lat="41.48955" lon="1.98409">
        <ele>229.6</ele>
        <time>2021-04-11 10:37:33</time>
      </trkpt>
      <trkpt lat="41.48942" lon="1.98412">
        <ele>229</ele>
        <time>2021-04-11 10:37:34</time>
      </trkpt>
      <trkpt lat="41.4893" lon="1.98414">
        <ele>228.4</ele>
        <time>2021-04-11 10:37:35</time>
      </trkpt>
      <trkpt lat="41.48917" lon="1.98415">
        <ele>227.8</ele>
        <time>2021-04-11 10:37:36</time>
      </trkpt>
      <trkpt lat="41.48905" lon="1.98417">
        <ele>227.2</ele>
        <time>2021-04-11 10:37:37</time>
      </trkpt>
      <trkpt lat="41.48891" lon="1.98419">
        <ele>226.8</ele>
        <time>2021-04-11 10:37:38</time>
      </trkpt>
      <trkpt lat="41.48879" lon="1.9842">
        <ele>226.4</ele>
        <time>2021-04-11 10:37:39</time>
      </trkpt>
      <trkpt lat="41.48866" lon="1.98423">
        <ele>226.2</ele>
        <time>2021-04-11 10:37:40</time>
      </trkpt>
      <trkpt lat="41.48854" lon="1.98424">
        <ele>225.8</ele>
        <time>2021-04-11 10:37:41</time>
      </trkpt>
      <trkpt lat="41.48841" lon="1.98426">
        <ele>225.6</ele>
        <time>2021-04-11 10:37:42</time>
      </trkpt>
      <trkpt lat="41.48829" lon="1.98428">
        <ele>225.4</ele>
        <time>2021-04-11 10:37:43</time>
      </trkpt>
      <trkpt lat="41.48817" lon="1.9843">
        <ele>225.4</ele>
        <time>2021-04-11 10:37:44</time>
      </trkpt>
      <trkpt lat="41.48805" lon="1.98431">
        <ele>225.2</ele>
        <time>2021-04-11 10:37:45</time>
      </trkpt>
      <trkpt lat="41.48793" lon="1.98432">
        <ele>225</ele>
        <time>2021-04-11 10:37:46</time>
      </trkpt>
      <trkpt lat="41.48781" lon="1.98431">
        <ele>224.6</ele>
        <time>2021-04-11 10:37:47</time>
      </trkpt>
      <trkpt lat="41.48769" lon="1.9843">
        <ele>224</ele>
        <time>2021-04-11 10:37:48</time>
      </trkpt>
      <trkpt lat="41.48756" lon="1.98427">
        <ele>223.4</ele>
        <time>2021-04-11 10:37:49</time>
      </trkpt>
      <trkpt lat="41.48744" lon="1.98424">
        <ele>222.8</ele>
        <time>2021-04-11 10:37:50</time>
      </trkpt>
      <trkpt lat="41.48731" lon="1.98421">
        <ele>222.4</ele>
        <time>2021-04-11 10:37:51</time>
      </trkpt>
      <trkpt lat="41.48718" lon="1.98418">
        <ele>221.8</ele>
        <time>2021-04-11 10:37:52</time>
      </trkpt>
      <trkpt lat="41.48706" lon="1.98415">
        <ele>221.2</ele>
        <time>2021-04-11 10:37:53</time>
      </trkpt>
      <trkpt lat="41.48693" lon="1.98412">
        <ele>220.8</ele>
        <time>2021-04-11 10:37:54</time>
      </trkpt>
      <trkpt lat="41.4868" lon="1.98411">
        <ele>220.2</ele>
        <time>2021-04-11 10:37:55</time>
      </trkpt>
      <trkpt lat="41.48667" lon="1.98413">
        <ele>219.8</ele>
        <time>2021-04-11 10:37:56</time>
      </trkpt>
      <trkpt lat="41.48655" lon="1.98418">
        <ele>219.6</ele>
        <time>2021-04-11 10:37:57</time>
      </trkpt>
      <trkpt lat="41.48643" lon="1.98425">
        <ele>219.4</ele>
        <time>2021-04-11 10:37:58</time>
      </trkpt>
      <trkpt lat="41.48631" lon="1.98432">
        <ele>219.2</ele>
        <time>2021-04-11 10:37:59</time>
      </trkpt>
      <trkpt lat="41.4862" lon="1.98438">
        <ele>219</ele>
        <time>2021-04-11 10:38:00</time>
      </trkpt>
      <trkpt lat="41.48608" lon="1.98445">
        <ele>218.8</ele>
        <time>2021-04-11 10:38:01</time>
      </trkpt>
      <trkpt lat="41.48597" lon="1.98451">
        <ele>218.8</ele>
        <time>2021-04-11 10:38:02</time>
      </trkpt>
      <trkpt lat="41.48587" lon="1.98457">
        <ele>218.8</ele>
        <time>2021-04-11 10:38:03</time>
      </trkpt>
      <trkpt lat="41.48575" lon="1.98459">
        <ele>218.8</ele>
        <time>2021-04-11 10:38:04</time>
      </trkpt>
      <trkpt lat="41.48563" lon="1.98459">
        <ele>218.6</ele>
        <time>2021-04-11 10:38:05</time>
      </trkpt>
      <trkpt lat="41.48551" lon="1.98456">
        <ele>218.4</ele>
        <time>2021-04-11 10:38:06</time>
      </trkpt>
      <trkpt lat="41.4854" lon="1.98452">
        <ele>218</ele>
        <time>2021-04-11 10:38:07</time>
      </trkpt>
      <trkpt lat="41.48528" lon="1.98448">
        <ele>217.6</ele>
        <time>2021-04-11 10:38:08</time>
      </trkpt>
      <trkpt lat="41.48516" lon="1.98444">
        <ele>217.2</ele>
        <time>2021-04-11 10:38:09</time>
      </trkpt>
      <trkpt lat="41.48503" lon="1.98439">
        <ele>216.6</ele>
        <time>2021-04-11 10:38:10</time>
      </trkpt>
      <trkpt lat="41.48492" lon="1.98436">
        <ele>216</ele>
        <time>2021-04-11 10:38:11</time>
      </trkpt>
      <trkpt lat="41.4848" lon="1.98431">
        <ele>215.6</ele>
        <time>2021-04-11 10:38:12</time>
      </trkpt>
      <trkpt lat="41.48467" lon="1.98427">
        <ele>215.2</ele>
        <time>2021-04-11 10:38:13</time>
      </trkpt>
      <trkpt lat="41.48455" lon="1.98422">
        <ele>215</ele>
        <time>2021-04-11 10:38:14</time>
      </trkpt>
      <trkpt lat="41.48443" lon="1.98418">
        <ele>215</ele>
        <time>2021-04-11 10:38:15</time>
      </trkpt>
      <trkpt lat="41.48432" lon="1.98413">
        <ele>215</ele>
        <time>2021-04-11 10:38:16</time>
      </trkpt>
      <trkpt lat="41.48421" lon="1.98408">
        <ele>215</ele>
        <time>2021-04-11 10:38:17</time>
      </trkpt>
      <trkpt lat="41.48411" lon="1.98402">
        <ele>215</ele>
        <time>2021-04-11 10:38:18</time>
      </trkpt>
      <trkpt lat="41.48402" lon="1.98395">
        <ele>215</ele>
        <time>2021-04-11 10:38:19</time>
      </trkpt>
      <trkpt lat="41.48393" lon="1.98385">
        <ele>215.2</ele>
        <time>2021-04-11 10:38:20</time>
      </trkpt>
      <trkpt lat="41.48385" lon="1.98375">
        <ele>215.4</ele>
        <time>2021-04-11 10:38:21</time>
      </trkpt>
      <trkpt lat="41.48378" lon="1.98366">
        <ele>215.6</ele>
        <time>2021-04-11 10:38:22</time>
      </trkpt>
      <trkpt lat="41.4837" lon="1.98357">
        <ele>215.8</ele>
        <time>2021-04-11 10:38:23</time>
      </trkpt>
      <trkpt lat="41.48363" lon="1.98348">
        <ele>216.2</ele>
        <time>2021-04-11 10:38:24</time>
      </trkpt>
      <trkpt lat="41.48355" lon="1.98339">
        <ele>216.4</ele>
        <time>2021-04-11 10:38:25</time>
      </trkpt>
      <trkpt lat="41.48348" lon="1.98332">
        <ele>216.8</ele>
        <time>2021-04-11 10:38:26</time>
      </trkpt>
      <trkpt lat="41.4834" lon="1.98326">
        <ele>217.2</ele>
        <time>2021-04-11 10:38:27</time>
      </trkpt>
      <trkpt lat="41.48332" lon="1.98322">
        <ele>217.6</ele>
        <time>2021-04-11 10:38:28</time>
      </trkpt>
      <trkpt lat="41.48323" lon="1.9832">
        <ele>218</ele>
        <time>2021-04-11 10:38:29</time>
      </trkpt>
      <trkpt lat="41.48314" lon="1.98319">
        <ele>218.4</ele>
        <time>2021-04-11 10:38:30</time>
      </trkpt>
      <trkpt lat="41.48306" lon="1.98318">
        <ele>218.8</ele>
        <time>2021-04-11 10:38:31</time>
      </trkpt>
      <trkpt lat="41.48298" lon="1.98316">
        <ele>219.2</ele>
        <time>2021-04-11 10:38:32</time>
      </trkpt>
      <trkpt lat="41.4829" lon="1.98315">
        <ele>219.8</ele>
        <time>2021-04-11 10:38:33</time>
      </trkpt>
      <trkpt lat="41.48283" lon="1.98313">
        <ele>220.2</ele>
        <time>2021-04-11 10:38:34</time>
      </trkpt>
      <trkpt lat="41.48275" lon="1.98311">
        <ele>220.6</ele>
        <time>2021-04-11 10:38:35</time>
      </trkpt>
      <trkpt lat="41.48267" lon="1.98309">
        <ele>221</ele>
        <time>2021-04-11 10:38:36</time>
      </trkpt>
      <trkpt lat="41.48259" lon="1.98307">
        <ele>221.4</ele>
        <time>2021-04-11 10:38:37</time>
      </trkpt>
      <trkpt lat="41.48252" lon="1.98306">
        <ele>221.6</ele>
        <time>2021-04-11 10:38:38</time>
      </trkpt>
      <trkpt lat="41.48245" lon="1.98304">
        <ele>222.2</ele>
        <time>2021-04-11 10:38:39</time>
      </trkpt>
      <trkpt lat="41.48238" lon="1.98302">
        <ele>222.6</ele>
        <time>2021-04-11 10:38:40</time>
      </trkpt>
      <trkpt lat="41.48232" lon="1.983">
        <ele>223</ele>
        <time>2021-04-11 10:38:41</time>
      </trkpt>
      <trkpt lat="41.48226" lon="1.98298">
        <ele>223.4</ele>
        <time>2021-04-11 10:38:42</time>
      </trkpt>
      <trkpt lat="41.4822" lon="1.98296">
        <ele>223.8</ele>
        <time>2021-04-11 10:38:43</time>
      </trkpt>
      <trkpt lat="41.48215" lon="1.98293">
        <ele>224.2</ele>
        <time>2021-04-11 10:38:44</time>
      </trkpt>
      <trkpt lat="41.48212" lon="1.9829">
        <ele>224.4</ele>
        <time>2021-04-11 10:38:45</time>
      </trkpt>
      <trkpt lat="41.48209" lon="1.98285">
        <ele>224.6</ele>
        <time>2021-04-11 10:38:46</time>
      </trkpt>
      <trkpt lat="41.48206" lon="1.9828">
        <ele>224.8</ele>
        <time>2021-04-11 10:38:47</time>
      </trkpt>
      <trkpt lat="41.48205" lon="1.98274">
        <ele>224.8</ele>
        <time>2021-04-11 10:38:48</time>
      </trkpt>
      <trkpt lat="41.48202" lon="1.98269">
        <ele>225</ele>
        <time>2021-04-11 10:38:49</time>
      </trkpt>
      <trkpt lat="41.482" lon="1.98264">
        <ele>225.2</ele>
        <time>2021-04-11 10:38:50</time>
      </trkpt>
      <trkpt lat="41.48196" lon="1.98261">
        <ele>225.4</ele>
        <time>2021-04-11 10:38:51</time>
      </trkpt>
      <trkpt lat="41.48193" lon="1.98259">
        <ele>225.6</ele>
        <time>2021-04-11 10:38:52</time>
      </trkpt>
      <trkpt lat="41.48189" lon="1.98257">
        <ele>225.8</ele>
        <time>2021-04-11 10:38:53</time>
      </trkpt>
      <trkpt lat="41.48185" lon="1.98257">
        <ele>226</ele>
        <time>2021-04-11 10:38:54</time>
      </trkpt>
      <trkpt lat="41.48182" lon="1.98257">
        <ele>226.2</ele>
        <time>2021-04-11 10:38:55</time>
      </trkpt>
      <trkpt lat="41.48179" lon="1.98258">
        <ele>226.4</ele>
        <time>2021-04-11 10:38:56</time>
      </trkpt>
      <trkpt lat="41.48176" lon="1.9826">
        <ele>226.4</ele>
        <time>2021-04-11 10:38:57</time>
      </trkpt>
      <trkpt lat="41.48173" lon="1.98262">
        <ele>226.6</ele>
        <time>2021-04-11 10:38:58</time>
      </trkpt>
      <trkpt lat="41.4817" lon="1.98265">
        <ele>226.6</ele>
        <time>2021-04-11 10:38:59</time>
      </trkpt>
      <trkpt lat="41.48167" lon="1.98268">
        <ele>226.6</ele>
        <time>2021-04-11 10:39:00</time>
      </trkpt>
      <trkpt lat="41.48165" lon="1.98272">
        <ele>226.6</ele>
        <time>2021-04-11 10:39:01</time>
      </trkpt>
      <trkpt lat="41.48163" lon="1.98277">
        <ele>226.4</ele>
        <time>2021-04-11 10:39:02</time>
      </trkpt>
      <trkpt lat="41.48162" lon="1.98283">
        <ele>226.2</ele>
        <time>2021-04-11 10:39:03</time>
      </trkpt>
      <trkpt lat="41.48161" lon="1.98291">
        <ele>226</ele>
        <time>2021-04-11 10:39:04</time>
      </trkpt>
      <trkpt lat="41.48162" lon="1.98299">
        <ele>225.6</ele>
        <time>2021-04-11 10:39:05</time>
      </trkpt>
      <trkpt lat="41.48164" lon="1.98306">
        <ele>225.4</ele>
        <time>2021-04-11 10:39:06</time>
      </trkpt>
      <trkpt lat="41.48167" lon="1.98313">
        <ele>225.2</ele>
        <time>2021-04-11 10:39:07</time>
      </trkpt>
      <trkpt lat="41.48171" lon="1.98318">
        <ele>225</ele>
        <time>2021-04-11 10:39:08</time>
      </trkpt>
      <trkpt lat="41.48175" lon="1.98321">
        <ele>225</ele>
        <time>2021-04-11 10:39:09</time>
      </trkpt>
      <trkpt lat="41.4818" lon="1.98322">
        <ele>225.2</ele>
        <time>2021-04-11 10:39:10</time>
      </trkpt>
      <trkpt lat="41.48184" lon="1.9832">
        <ele>225.2</ele>
        <time>2021-04-11 10:39:11</time>
      </trkpt>
      <trkpt lat="41.48189" lon="1.98318">
        <ele>225.4</ele>
        <time>2021-04-11 10:39:12</time>
      </trkpt>
      <trkpt lat="41.48193" lon="1.98316">
        <ele>225.4</ele>
        <time>2021-04-11 10:39:13</time>
      </trkpt>
      <trkpt lat="41.48197" lon="1.98313">
        <ele>225.4</ele>
        <time>2021-04-11 10:39:14</time>
      </trkpt>
      <trkpt lat="41.48201" lon="1.98309">
        <ele>225.4</ele>
        <time>2021-04-11 10:39:15</time>
      </trkpt>
      <trkpt lat="41.48203" lon="1.98304">
        <ele>225.4</ele>
        <time>2021-04-11 10:39:16</time>
      </trkpt>
      <trkpt lat="41.48206" lon="1.98298">
        <ele>225.2</ele>
        <time>2021-04-11 10:39:17</time>
      </trkpt>
      <trkpt lat="41.48207" lon="1.98291">
        <ele>225.2</ele>
        <time>2021-04-11 10:39:18</time>
      </trkpt>
      <trkpt lat="41.48207" lon="1.98284">
        <ele>225.2</ele>
        <time>2021-04-11 10:39:19</time>
      </trkpt>
      <trkpt lat="41.48206" lon="1.98277">
        <ele>225.2</ele>
        <time>2021-04-11 10:39:20</time>
      </trkpt>
      <trkpt lat="41.48203" lon="1.9827">
        <ele>225.2</ele>
        <time>2021-04-11 10:39:21</time>
      </trkpt>
      <trkpt lat="41.482" lon="1.98265">
        <ele>225.2</ele>
        <time>2021-04-11 10:39:22</time>
      </trkpt>
      <trkpt lat="41.48196" lon="1.98261">
        <ele>225.2</ele>
        <time>2021-04-11 10:39:23</time>
      </trkpt>
      <trkpt lat="41.48191" lon="1.98259">
        <ele>225.4</ele>
        <time>2021-04-11 10:39:24</time>
      </trkpt>
      <trkpt lat="41.48186" lon="1.98258">
        <ele>225.6</ele>
        <time>2021-04-11 10:39:25</time>
      </trkpt>
      <trkpt lat="41.48182" lon="1.98259">
        <ele>225.8</ele>
        <time>2021-04-11 10:39:26</time>
      </trkpt>
      <trkpt lat="41.48177" lon="1.98261">
        <ele>226</ele>
        <time>2021-04-11 10:39:27</time>
      </trkpt>
      <trkpt lat="41.48173" lon="1.98263">
        <ele>226.2</ele>
        <time>2021-04-11 10:39:28</time>
      </trkpt>
      <trkpt lat="41.4817" lon="1.98267">
        <ele>226.2</ele>
        <time>2021-04-11 10:39:29</time>
      </trkpt>
      <trkpt lat="41.48167" lon="1.9827">
        <ele>226.4</ele>
        <time>2021-04-11 10:39:30</time>
      </trkpt>
      <trkpt lat="41.48164" lon="1.98275">
        <ele>226.2</ele>
        <time>2021-04-11 10:39:31</time>
      </trkpt>
      <trkpt lat="41.48162" lon="1.9828">
        <ele>226.2</ele>
        <time>2021-04-11 10:39:32</time>
      </trkpt>
      <trkpt lat="41.4816" lon="1.98285">
        <ele>226</ele>
        <time>2021-04-11 10:39:33</time>
      </trkpt>
      <trkpt lat="41.48159" lon="1.98289">
        <ele>226</ele>
        <time>2021-04-11 10:39:34</time>
      </trkpt>
      <trkpt lat="41.48158" lon="1.98291">
        <ele>225.8</ele>
        <time>2021-04-11 10:39:35</time>
      </trkpt>
      <trkpt lat="41.48157" lon="1.98296">
        <ele>225.6</ele>
        <time>2021-04-11 10:39:46</time>
      </trkpt>
      <trkpt lat="41.48156" lon="1.98299">
        <ele>225.4</ele>
        <time>2021-04-11 10:39:47</time>
      </trkpt>
      <trkpt lat="41.48155" lon="1.98302">
        <ele>225.4</ele>
        <time>2021-04-11 10:39:48</time>
      </trkpt>
      <trkpt lat="41.48154" lon="1.98304">
        <ele>225.4</ele>
        <time>2021-04-11 10:39:49</time>
      </trkpt>
      <trkpt lat="41.48151" lon="1.98308">
        <ele>225.2</ele>
        <time>2021-04-11 10:39:50</time>
      </trkpt>
      <trkpt lat="41.48147" lon="1.98311">
        <ele>224.8</ele>
        <time>2021-04-11 10:39:51</time>
      </trkpt>
      <trkpt lat="41.48141" lon="1.98315">
        <ele>224.4</ele>
        <time>2021-04-11 10:39:52</time>
      </trkpt>
      <trkpt lat="41.48135" lon="1.98319">
        <ele>224</ele>
        <time>2021-04-11 10:39:53</time>
      </trkpt>
      <trkpt lat="41.48129" lon="1.98323">
        <ele>223.4</ele>
        <time>2021-04-11 10:39:54</time>
      </trkpt>
      <trkpt lat="41.48122" lon="1.98327">
        <ele>223</ele>
        <time>2021-04-11 10:39:55</time>
      </trkpt>
      <trkpt lat="41.48114" lon="1.98331">
        <ele>222.4</ele>
        <time>2021-04-11 10:39:56</time>
      </trkpt>
      <trkpt lat="41.48106" lon="1.98336">
        <ele>221.8</ele>
        <time>2021-04-11 10:39:57</time>
      </trkpt>
      <trkpt lat="41.48098" lon="1.98341">
        <ele>221.2</ele>
        <time>2021-04-11 10:39:58</time>
      </trkpt>
      <trkpt lat="41.48089" lon="1.98346">
        <ele>220.6</ele>
        <time>2021-04-11 10:39:59</time>
      </trkpt>
      <trkpt lat="41.4808" lon="1.98351">
        <ele>219.8</ele>
        <time>2021-04-11 10:40:00</time>
      </trkpt>
      <trkpt lat="41.4807" lon="1.98357">
        <ele>219.2</ele>
        <time>2021-04-11 10:40:01</time>
      </trkpt>
      <trkpt lat="41.4806" lon="1.98362">
        <ele>218.4</ele>
        <time>2021-04-11 10:40:02</time>
      </trkpt>
      <trkpt lat="41.4805" lon="1.98368">
        <ele>217.8</ele>
        <time>2021-04-11 10:40:03</time>
      </trkpt>
      <trkpt lat="41.4804" lon="1.98374">
        <ele>217</ele>
        <time>2021-04-11 10:40:04</time>
      </trkpt>
      <trkpt lat="41.48029" lon="1.9838">
        <ele>216</ele>
        <time>2021-04-11 10:40:05</time>
      </trkpt>
      <trkpt lat="41.48019" lon="1.98386">
        <ele>215.2</ele>
        <time>2021-04-11 10:40:06</time>
      </trkpt>
      <trkpt lat="41.48007" lon="1.98392">
        <ele>214.4</ele>
        <time>2021-04-11 10:40:07</time>
      </trkpt>
      <trkpt lat="41.47996" lon="1.98399">
        <ele>213.8</ele>
        <time>2021-04-11 10:40:08</time>
      </trkpt>
      <trkpt lat="41.47985" lon="1.98405">
        <ele>212.8</ele>
        <time>2021-04-11 10:40:09</time>
      </trkpt>
      <trkpt lat="41.47973" lon="1.9841">
        <ele>212</ele>
        <time>2021-04-11 10:40:10</time>
      </trkpt>
      <trkpt lat="41.47961" lon="1.98415">
        <ele>211.2</ele>
        <time>2021-04-11 10:40:11</time>
      </trkpt>
      <trkpt lat="41.47949" lon="1.9842">
        <ele>210.4</ele>
        <time>2021-04-11 10:40:12</time>
      </trkpt>
      <trkpt lat="41.47936" lon="1.98424">
        <ele>209.6</ele>
        <time>2021-04-11 10:40:13</time>
      </trkpt>
      <trkpt lat="41.47923" lon="1.98428">
        <ele>208.8</ele>
        <time>2021-04-11 10:40:14</time>
      </trkpt>
      <trkpt lat="41.47911" lon="1.9843">
        <ele>208</ele>
        <time>2021-04-11 10:40:15</time>
      </trkpt>
      <trkpt lat="41.47898" lon="1.98432">
        <ele>207.2</ele>
        <time>2021-04-11 10:40:16</time>
      </trkpt>
      <trkpt lat="41.47885" lon="1.98433">
        <ele>206.4</ele>
        <time>2021-04-11 10:40:17</time>
      </trkpt>
      <trkpt lat="41.47871" lon="1.98434">
        <ele>205.8</ele>
        <time>2021-04-11 10:40:18</time>
      </trkpt>
      <trkpt lat="41.47858" lon="1.98434">
        <ele>205.2</ele>
        <time>2021-04-11 10:40:19</time>
      </trkpt>
      <trkpt lat="41.47845" lon="1.98434">
        <ele>204.6</ele>
        <time>2021-04-11 10:40:20</time>
      </trkpt>
      <trkpt lat="41.47832" lon="1.98434">
        <ele>203.8</ele>
        <time>2021-04-11 10:40:21</time>
      </trkpt>
      <trkpt lat="41.47819" lon="1.98434">
        <ele>203.2</ele>
        <time>2021-04-11 10:40:22</time>
      </trkpt>
      <trkpt lat="41.47805" lon="1.98434">
        <ele>202.4</ele>
        <time>2021-04-11 10:40:23</time>
      </trkpt>
      <trkpt lat="41.47792" lon="1.98433">
        <ele>201.8</ele>
        <time>2021-04-11 10:40:24</time>
      </trkpt>
      <trkpt lat="41.47778" lon="1.98433">
        <ele>201.2</ele>
        <time>2021-04-11 10:40:25</time>
      </trkpt>
      <trkpt lat="41.47766" lon="1.98434">
        <ele>200.6</ele>
        <time>2021-04-11 10:40:26</time>
      </trkpt>
      <trkpt lat="41.47753" lon="1.98436">
        <ele>199.8</ele>
        <time>2021-04-11 10:40:27</time>
      </trkpt>
      <trkpt lat="41.47739" lon="1.98437">
        <ele>199.2</ele>
        <time>2021-04-11 10:40:28</time>
      </trkpt>
      <trkpt lat="41.47726" lon="1.98439">
        <ele>198.2</ele>
        <time>2021-04-11 10:40:29</time>
      </trkpt>
      <trkpt lat="41.47713" lon="1.98439">
        <ele>197.4</ele>
        <time>2021-04-11 10:40:30</time>
      </trkpt>
      <trkpt lat="41.47701" lon="1.98441">
        <ele>196.8</ele>
        <time>2021-04-11 10:40:31</time>
      </trkpt>
      <trkpt lat="41.47688" lon="1.98444">
        <ele>196.2</ele>
        <time>2021-04-11 10:40:32</time>
      </trkpt>
      <trkpt lat="41.47675" lon="1.98446">
        <ele>195.4</ele>
        <time>2021-04-11 10:40:33</time>
      </trkpt>
      <trkpt lat="41.47661" lon="1.98448">
        <ele>194.8</ele>
        <time>2021-04-11 10:40:34</time>
      </trkpt>
      <trkpt lat="41.47648" lon="1.9845">
        <ele>194</ele>
        <time>2021-04-11 10:40:35</time>
      </trkpt>
      <trkpt lat="41.47634" lon="1.98452">
        <ele>193</ele>
        <time>2021-04-11 10:40:36</time>
      </trkpt>
      <trkpt lat="41.4762" lon="1.98454">
        <ele>192.2</ele>
        <time>2021-04-11 10:40:37</time>
      </trkpt>
      <trkpt lat="41.47605" lon="1.98456">
        <ele>191.4</ele>
        <time>2021-04-11 10:40:38</time>
      </trkpt>
      <trkpt lat="41.47591" lon="1.98459">
        <ele>190.6</ele>
        <time>2021-04-11 10:40:39</time>
      </trkpt>
      <trkpt lat="41.47578" lon="1.98461">
        <ele>189.8</ele>
        <time>2021-04-11 10:40:40</time>
      </trkpt>
      <trkpt lat="41.47564" lon="1.98463">
        <ele>189.2</ele>
        <time>2021-04-11 10:40:41</time>
      </trkpt>
      <trkpt lat="41.4755" lon="1.98465">
        <ele>188.6</ele>
        <time>2021-04-11 10:40:42</time>
      </trkpt>
      <trkpt lat="41.47536" lon="1.98468">
        <ele>188</ele>
        <time>2021-04-11 10:40:43</time>
      </trkpt>
      <trkpt lat="41.47522" lon="1.9847">
        <ele>187.6</ele>
        <time>2021-04-11 10:40:44</time>
      </trkpt>
      <trkpt lat="41.47509" lon="1.98472">
        <ele>187</ele>
        <time>2021-04-11 10:40:45</time>
      </trkpt>
      <trkpt lat="41.47495" lon="1.98474">
        <ele>186.6</ele>
        <time>2021-04-11 10:40:46</time>
      </trkpt>
      <trkpt lat="41.47481" lon="1.98476">
        <ele>186</ele>
        <time>2021-04-11 10:40:47</time>
      </trkpt>
      <trkpt lat="41.47466" lon="1.98478">
        <ele>185.6</ele>
        <time>2021-04-11 10:40:48</time>
      </trkpt>
      <trkpt lat="41.47452" lon="1.98481">
        <ele>184.8</ele>
        <time>2021-04-11 10:40:49</time>
      </trkpt>
      <trkpt lat="41.47437" lon="1.98484">
        <ele>184.2</ele>
        <time>2021-04-11 10:40:50</time>
      </trkpt>
      <trkpt lat="41.47421" lon="1.98487">
        <ele>183.4</ele>
        <time>2021-04-11 10:40:51</time>
      </trkpt>
      <trkpt lat="41.47406" lon="1.98491">
        <ele>182.6</ele>
        <time>2021-04-11 10:40:52</time>
      </trkpt>
      <trkpt lat="41.47391" lon="1.98494">
        <ele>182</ele>
        <time>2021-04-11 10:40:53</time>
      </trkpt>
      <trkpt lat="41.47376" lon="1.98496">
        <ele>181.4</ele>
        <time>2021-04-11 10:40:54</time>
      </trkpt>
      <trkpt lat="41.4736" lon="1.98498">
        <ele>181</ele>
        <time>2021-04-11 10:40:55</time>
      </trkpt>
      <trkpt lat="41.47345" lon="1.98502">
        <ele>180.6</ele>
        <time>2021-04-11 10:40:56</time>
      </trkpt>
      <trkpt lat="41.4733" lon="1.98504">
        <ele>180.2</ele>
        <time>2021-04-11 10:40:57</time>
      </trkpt>
      <trkpt lat="41.47315" lon="1.98507">
        <ele>179.8</ele>
        <time>2021-04-11 10:40:58</time>
      </trkpt>
      <trkpt lat="41.47301" lon="1.9851">
        <ele>179.4</ele>
        <time>2021-04-11 10:40:59</time>
      </trkpt>
      <trkpt lat="41.47287" lon="1.98513">
        <ele>179.2</ele>
        <time>2021-04-11 10:41:00</time>
      </trkpt>
      <trkpt lat="41.47272" lon="1.98516">
        <ele>179</ele>
        <time>2021-04-11 10:41:01</time>
      </trkpt>
      <trkpt lat="41.47258" lon="1.9852">
        <ele>178.8</ele>
        <time>2021-04-11 10:41:02</time>
      </trkpt>
      <trkpt lat="41.47243" lon="1.98523">
        <ele>178.6</ele>
        <time>2021-04-11 10:41:03</time>
      </trkpt>
      <trkpt lat="41.47228" lon="1.98526">
        <ele>178.4</ele>
        <time>2021-04-11 10:41:04</time>
      </trkpt>
      <trkpt lat="41.47214" lon="1.9853">
        <ele>178.2</ele>
        <time>2021-04-11 10:41:05</time>
      </trkpt>
      <trkpt lat="41.472" lon="1.98533">
        <ele>178.2</ele>
        <time>2021-04-11 10:41:06</time>
      </trkpt>
      <trkpt lat="41.47187" lon="1.98536">
        <ele>178.2</ele>
        <time>2021-04-11 10:41:07</time>
      </trkpt>
      <trkpt lat="41.47175" lon="1.98539">
        <ele>178.2</ele>
        <time>2021-04-11 10:41:08</time>
      </trkpt>
      <trkpt lat="41.47162" lon="1.98542">
        <ele>178</ele>
        <time>2021-04-11 10:41:09</time>
      </trkpt>
      <trkpt lat="41.4715" lon="1.98544">
        <ele>178.2</ele>
        <time>2021-04-11 10:41:10</time>
      </trkpt>
      <trkpt lat="41.47138" lon="1.98547">
        <ele>178.2</ele>
        <time>2021-04-11 10:41:11</time>
      </trkpt>
      <trkpt lat="41.47125" lon="1.9855">
        <ele>178</ele>
        <time>2021-04-11 10:41:12</time>
      </trkpt>
      <trkpt lat="41.47113" lon="1.98552">
        <ele>178</ele>
        <time>2021-04-11 10:41:13</time>
      </trkpt>
      <trkpt lat="41.471" lon="1.98555">
        <ele>178</ele>
        <time>2021-04-11 10:41:14</time>
      </trkpt>
      <trkpt lat="41.47088" lon="1.98558">
        <ele>177.8</ele>
        <time>2021-04-11 10:41:15</time>
      </trkpt>
      <trkpt lat="41.47077" lon="1.9856">
        <ele>177.8</ele>
        <time>2021-04-11 10:41:16</time>
      </trkpt>
      <trkpt lat="41.47064" lon="1.98563">
        <ele>177.8</ele>
        <time>2021-04-11 10:41:17</time>
      </trkpt>
      <trkpt lat="41.47052" lon="1.98566">
        <ele>177.8</ele>
        <time>2021-04-11 10:41:18</time>
      </trkpt>
      <trkpt lat="41.47039" lon="1.98569">
        <ele>177.8</ele>
        <time>2021-04-11 10:41:19</time>
      </trkpt>
      <trkpt lat="41.47028" lon="1.98572">
        <ele>177.6</ele>
        <time>2021-04-11 10:41:20</time>
      </trkpt>
      <trkpt lat="41.47016" lon="1.98575">
        <ele>177.6</ele>
        <time>2021-04-11 10:41:21</time>
      </trkpt>
      <trkpt lat="41.47003" lon="1.98578">
        <ele>177.4</ele>
        <time>2021-04-11 10:41:22</time>
      </trkpt>
      <trkpt lat="41.46991" lon="1.98581">
        <ele>177.2</ele>
        <time>2021-04-11 10:41:23</time>
      </trkpt>
      <trkpt lat="41.46979" lon="1.98583">
        <ele>177.2</ele>
        <time>2021-04-11 10:41:24</time>
      </trkpt>
      <trkpt lat="41.46967" lon="1.98586">
        <ele>177.2</ele>
        <time>2021-04-11 10:41:25</time>
      </trkpt>
      <trkpt lat="41.46955" lon="1.98588">
        <ele>176.8</ele>
        <time>2021-04-11 10:41:26</time>
      </trkpt>
      <trkpt lat="41.46943" lon="1.98591">
        <ele>176.6</ele>
        <time>2021-04-11 10:41:27</time>
      </trkpt>
      <trkpt lat="41.46932" lon="1.98594">
        <ele>176.6</ele>
        <time>2021-04-11 10:41:28</time>
      </trkpt>
      <trkpt lat="41.46919" lon="1.98596">
        <ele>176.4</ele>
        <time>2021-04-11 10:41:29</time>
      </trkpt>
      <trkpt lat="41.46908" lon="1.98598">
        <ele>176.4</ele>
        <time>2021-04-11 10:41:30</time>
      </trkpt>
      <trkpt lat="41.46897" lon="1.98601">
        <ele>176.2</ele>
        <time>2021-04-11 10:41:31</time>
      </trkpt>
      <trkpt lat="41.46886" lon="1.98603">
        <ele>176.2</ele>
        <time>2021-04-11 10:41:32</time>
      </trkpt>
      <trkpt lat="41.46875" lon="1.98606">
        <ele>176.2</ele>
        <time>2021-04-11 10:41:33</time>
      </trkpt>
      <trkpt lat="41.46865" lon="1.98609">
        <ele>176.2</ele>
        <time>2021-04-11 10:41:34</time>
      </trkpt>
      <trkpt lat="41.46855" lon="1.98612">
        <ele>176.4</ele>
        <time>2021-04-11 10:41:35</time>
      </trkpt>
      <trkpt lat="41.46846" lon="1.98616">
        <ele>176.6</ele>
        <time>2021-04-11 10:41:36</time>
      </trkpt>
      <trkpt lat="41.46837" lon="1.98618">
        <ele>176.8</ele>
        <time>2021-04-11 10:41:37</time>
      </trkpt>
      <trkpt lat="41.46828" lon="1.98617">
        <ele>177.2</ele>
        <time>2021-04-11 10:41:38</time>
      </trkpt>
      <trkpt lat="41.4682" lon="1.98613">
        <ele>177.4</ele>
        <time>2021-04-11 10:41:39</time>
      </trkpt>
      <trkpt lat="41.46813" lon="1.98609">
        <ele>177.8</ele>
        <time>2021-04-11 10:41:40</time>
      </trkpt>
      <trkpt lat="41.46806" lon="1.98609">
        <ele>178</ele>
        <time>2021-04-11 10:41:41</time>
      </trkpt>
      <trkpt lat="41.46798" lon="1.98613">
        <ele>178.2</ele>
        <time>2021-04-11 10:41:42</time>
      </trkpt>
      <trkpt lat="41.46792" lon="1.98619">
        <ele>178.2</ele>
        <time>2021-04-11 10:41:43</time>
      </trkpt>
      <trkpt lat="41.46787" lon="1.98628">
        <ele>178.4</ele>
        <time>2021-04-11 10:41:44</time>
      </trkpt>
      <trkpt lat="41.46781" lon="1.98635">
        <ele>178.4</ele>
        <time>2021-04-11 10:41:45</time>
      </trkpt>
      <trkpt lat="41.46774" lon="1.98641">
        <ele>178.2</ele>
        <time>2021-04-11 10:41:46</time>
      </trkpt>
      <trkpt lat="41.46767" lon="1.98645">
        <ele>178.2</ele>
        <time>2021-04-11 10:41:47</time>
      </trkpt>
      <trkpt lat="41.46759" lon="1.98648">
        <ele>178</ele>
        <time>2021-04-11 10:41:48</time>
      </trkpt>
      <trkpt lat="41.4675" lon="1.98651">
        <ele>177.8</ele>
        <time>2021-04-11 10:41:49</time>
      </trkpt>
      <trkpt lat="41.46742" lon="1.98654">
        <ele>177.6</ele>
        <time>2021-04-11 10:41:50</time>
      </trkpt>
      <trkpt lat="41.46733" lon="1.98658">
        <ele>177.4</ele>
        <time>2021-04-11 10:41:51</time>
      </trkpt>
      <trkpt lat="41.46726" lon="1.98663">
        <ele>177.2</ele>
        <time>2021-04-11 10:41:52</time>
      </trkpt>
      <trkpt lat="41.46717" lon="1.98668">
        <ele>177</ele>
        <time>2021-04-11 10:41:53</time>
      </trkpt>
      <trkpt lat="41.46709" lon="1.98675">
        <ele>176.6</ele>
        <time>2021-04-11 10:41:54</time>
      </trkpt>
      <trkpt lat="41.46701" lon="1.98682">
        <ele>176.4</ele>
        <time>2021-04-11 10:41:55</time>
      </trkpt>
      <trkpt lat="41.46693" lon="1.98689">
        <ele>176.2</ele>
        <time>2021-04-11 10:41:56</time>
      </trkpt>
      <trkpt lat="41.46686" lon="1.98696">
        <ele>176</ele>
        <time>2021-04-11 10:41:57</time>
      </trkpt>
      <trkpt lat="41.46679" lon="1.98705">
        <ele>175.8</ele>
        <time>2021-04-11 10:41:58</time>
      </trkpt>
      <trkpt lat="41.46671" lon="1.98712">
        <ele>175.6</ele>
        <time>2021-04-11 10:41:59</time>
      </trkpt>
      <trkpt lat="41.46664" lon="1.98721">
        <ele>175.4</ele>
        <time>2021-04-11 10:42:00</time>
      </trkpt>
      <trkpt lat="41.46656" lon="1.9873">
        <ele>175.2</ele>
        <time>2021-04-11 10:42:01</time>
      </trkpt>
      <trkpt lat="41.46649" lon="1.98739">
        <ele>175</ele>
        <time>2021-04-11 10:42:02</time>
      </trkpt>
      <trkpt lat="41.46642" lon="1.98749">
        <ele>174.6</ele>
        <time>2021-04-11 10:42:03</time>
      </trkpt>
      <trkpt lat="41.46635" lon="1.98759">
        <ele>174.4</ele>
        <time>2021-04-11 10:42:04</time>
      </trkpt>
      <trkpt lat="41.46627" lon="1.98768">
        <ele>174.2</ele>
        <time>2021-04-11 10:42:05</time>
      </trkpt>
      <trkpt lat="41.4662" lon="1.98778">
        <ele>174</ele>
        <time>2021-04-11 10:42:06</time>
      </trkpt>
      <trkpt lat="41.46615" lon="1.98789">
        <ele>173.8</ele>
        <time>2021-04-11 10:42:07</time>
      </trkpt>
      <trkpt lat="41.46608" lon="1.98799">
        <ele>173.6</ele>
        <time>2021-04-11 10:42:08</time>
      </trkpt>
      <trkpt lat="41.46602" lon="1.98809">
        <ele>173.4</ele>
        <time>2021-04-11 10:42:09</time>
      </trkpt>
      <trkpt lat="41.46594" lon="1.98821">
        <ele>173.2</ele>
        <time>2021-04-11 10:42:10</time>
      </trkpt>
      <trkpt lat="41.46588" lon="1.98832">
        <ele>173</ele>
        <time>2021-04-11 10:42:11</time>
      </trkpt>
      <trkpt lat="41.46581" lon="1.98843">
        <ele>172.8</ele>
        <time>2021-04-11 10:42:12</time>
      </trkpt>
      <trkpt lat="41.46574" lon="1.98854">
        <ele>172.6</ele>
        <time>2021-04-11 10:42:13</time>
      </trkpt>
      <trkpt lat="41.46567" lon="1.98864">
        <ele>172.4</ele>
        <time>2021-04-11 10:42:14</time>
      </trkpt>
      <trkpt lat="41.46561" lon="1.98875">
        <ele>172.4</ele>
        <time>2021-04-11 10:42:15</time>
      </trkpt>
      <trkpt lat="41.46554" lon="1.98886">
        <ele>172.4</ele>
        <time>2021-04-11 10:42:16</time>
      </trkpt>
      <trkpt lat="41.46548" lon="1.98897">
        <ele>172.4</ele>
        <time>2021-04-11 10:42:17</time>
      </trkpt>
      <trkpt lat="41.46542" lon="1.98908">
        <ele>172.4</ele>
        <time>2021-04-11 10:42:18</time>
      </trkpt>
      <trkpt lat="41.46535" lon="1.98918">
        <ele>172.6</ele>
        <time>2021-04-11 10:42:19</time>
      </trkpt>
      <trkpt lat="41.4653" lon="1.98927">
        <ele>172.8</ele>
        <time>2021-04-11 10:42:20</time>
      </trkpt>
      <trkpt lat="41.46524" lon="1.98938">
        <ele>172.8</ele>
        <time>2021-04-11 10:42:21</time>
      </trkpt>
      <trkpt lat="41.46517" lon="1.98947">
        <ele>173</ele>
        <time>2021-04-11 10:42:22</time>
      </trkpt>
      <trkpt lat="41.46511" lon="1.98957">
        <ele>173.4</ele>
        <time>2021-04-11 10:42:23</time>
      </trkpt>
      <trkpt lat="41.46505" lon="1.98967">
        <ele>173.4</ele>
        <time>2021-04-11 10:42:24</time>
      </trkpt>
      <trkpt lat="41.46498" lon="1.98976">
        <ele>173.6</ele>
        <time>2021-04-11 10:42:25</time>
      </trkpt>
      <trkpt lat="41.46491" lon="1.98985">
        <ele>173.6</ele>
        <time>2021-04-11 10:42:26</time>
      </trkpt>
      <trkpt lat="41.46484" lon="1.98994">
        <ele>173.8</ele>
        <time>2021-04-11 10:42:27</time>
      </trkpt>
      <trkpt lat="41.46477" lon="1.99003">
        <ele>174</ele>
        <time>2021-04-11 10:42:28</time>
      </trkpt>
      <trkpt lat="41.46471" lon="1.99012">
        <ele>174</ele>
        <time>2021-04-11 10:42:29</time>
      </trkpt>
      <trkpt lat="41.46464" lon="1.99019">
        <ele>174</ele>
        <time>2021-04-11 10:42:30</time>
      </trkpt>
      <trkpt lat="41.46455" lon="1.99026">
        <ele>173.8</ele>
        <time>2021-04-11 10:42:31</time>
      </trkpt>
      <trkpt lat="41.46447" lon="1.99032">
        <ele>173.4</ele>
        <time>2021-04-11 10:42:32</time>
      </trkpt>
      <trkpt lat="41.46438" lon="1.99037">
        <ele>173</ele>
        <time>2021-04-11 10:42:33</time>
      </trkpt>
      <trkpt lat="41.46428" lon="1.99041">
        <ele>172.6</ele>
        <time>2021-04-11 10:42:34</time>
      </trkpt>
      <trkpt lat="41.46418" lon="1.99043">
        <ele>172</ele>
        <time>2021-04-11 10:42:35</time>
      </trkpt>
      <trkpt lat="41.46408" lon="1.99044">
        <ele>171.6</ele>
        <time>2021-04-11 10:42:36</time>
      </trkpt>
      <trkpt lat="41.46399" lon="1.99043">
        <ele>171</ele>
        <time>2021-04-11 10:42:37</time>
      </trkpt>
      <trkpt lat="41.4639" lon="1.9904">
        <ele>170.4</ele>
        <time>2021-04-11 10:42:38</time>
      </trkpt>
      <trkpt lat="41.46381" lon="1.99034">
        <ele>169.8</ele>
        <time>2021-04-11 10:42:39</time>
      </trkpt>
      <trkpt lat="41.46372" lon="1.9903">
        <ele>169.4</ele>
        <time>2021-04-11 10:42:40</time>
      </trkpt>
      <trkpt lat="41.46362" lon="1.99029">
        <ele>169</ele>
        <time>2021-04-11 10:42:41</time>
      </trkpt>
      <trkpt lat="41.46354" lon="1.9903">
        <ele>168.6</ele>
        <time>2021-04-11 10:42:42</time>
      </trkpt>
      <trkpt lat="41.46345" lon="1.99036">
        <ele>168</ele>
        <time>2021-04-11 10:42:43</time>
      </trkpt>
      <trkpt lat="41.46336" lon="1.99041">
        <ele>167.4</ele>
        <time>2021-04-11 10:42:44</time>
      </trkpt>
      <trkpt lat="41.46326" lon="1.99046">
        <ele>166.6</ele>
        <time>2021-04-11 10:42:45</time>
      </trkpt>
      <trkpt lat="41.46315" lon="1.99048">
        <ele>166</ele>
        <time>2021-04-11 10:42:46</time>
      </trkpt>
      <trkpt lat="41.46304" lon="1.99049">
        <ele>165.2</ele>
        <time>2021-04-11 10:42:47</time>
      </trkpt>
      <trkpt lat="41.46292" lon="1.99048">
        <ele>164.6</ele>
        <time>2021-04-11 10:42:48</time>
      </trkpt>
      <trkpt lat="41.46281" lon="1.99048">
        <ele>164</ele>
        <time>2021-04-11 10:42:49</time>
      </trkpt>
      <trkpt lat="41.4627" lon="1.99047">
        <ele>163.2</ele>
        <time>2021-04-11 10:42:50</time>
      </trkpt>
      <trkpt lat="41.46258" lon="1.99047">
        <ele>162.8</ele>
        <time>2021-04-11 10:42:51</time>
      </trkpt>
      <trkpt lat="41.46247" lon="1.99046">
        <ele>162.6</ele>
        <time>2021-04-11 10:42:52</time>
      </trkpt>
      <trkpt lat="41.46236" lon="1.99045">
        <ele>162.4</ele>
        <time>2021-04-11 10:42:53</time>
      </trkpt>
      <trkpt lat="41.46224" lon="1.99045">
        <ele>162.4</ele>
        <time>2021-04-11 10:42:54</time>
      </trkpt>
      <trkpt lat="41.46212" lon="1.99044">
        <ele>162.2</ele>
        <time>2021-04-11 10:42:55</time>
      </trkpt>
      <trkpt lat="41.46201" lon="1.99044">
        <ele>162.2</ele>
        <time>2021-04-11 10:42:56</time>
      </trkpt>
      <trkpt lat="41.46189" lon="1.99045">
        <ele>162</ele>
        <time>2021-04-11 10:42:57</time>
      </trkpt>
      <trkpt lat="41.46178" lon="1.99048">
        <ele>162</ele>
        <time>2021-04-11 10:42:58</time>
      </trkpt>
      <trkpt lat="41.46167" lon="1.99053">
        <ele>162</ele>
        <time>2021-04-11 10:42:59</time>
      </trkpt>
      <trkpt lat="41.46157" lon="1.9906">
        <ele>162</ele>
        <time>2021-04-11 10:43:00</time>
      </trkpt>
      <trkpt lat="41.46148" lon="1.99067">
        <ele>162</ele>
        <time>2021-04-11 10:43:01</time>
      </trkpt>
      <trkpt lat="41.46138" lon="1.99075">
        <ele>162</ele>
        <time>2021-04-11 10:43:02</time>
      </trkpt>
      <trkpt lat="41.46129" lon="1.99084">
        <ele>162</ele>
        <time>2021-04-11 10:43:03</time>
      </trkpt>
      <trkpt lat="41.46121" lon="1.99093">
        <ele>161.8</ele>
        <time>2021-04-11 10:43:04</time>
      </trkpt>
      <trkpt lat="41.46112" lon="1.99102">
        <ele>161.8</ele>
        <time>2021-04-11 10:43:05</time>
      </trkpt>
      <trkpt lat="41.46104" lon="1.9911">
        <ele>161.8</ele>
        <time>2021-04-11 10:43:06</time>
      </trkpt>
      <trkpt lat="41.46095" lon="1.99119">
        <ele>161.6</ele>
        <time>2021-04-11 10:43:07</time>
      </trkpt>
      <trkpt lat="41.46086" lon="1.99128">
        <ele>161.6</ele>
        <time>2021-04-11 10:43:08</time>
      </trkpt>
      <trkpt lat="41.46077" lon="1.99137">
        <ele>161.4</ele>
        <time>2021-04-11 10:43:09</time>
      </trkpt>
      <trkpt lat="41.46069" lon="1.99145">
        <ele>161.4</ele>
        <time>2021-04-11 10:43:10</time>
      </trkpt>
      <trkpt lat="41.4606" lon="1.99154">
        <ele>161.4</ele>
        <time>2021-04-11 10:43:11</time>
      </trkpt>
      <trkpt lat="41.46051" lon="1.99163">
        <ele>161.4</ele>
        <time>2021-04-11 10:43:12</time>
      </trkpt>
      <trkpt lat="41.46041" lon="1.99171">
        <ele>161.4</ele>
        <time>2021-04-11 10:43:13</time>
      </trkpt>
      <trkpt lat="41.46033" lon="1.9918">
        <ele>161.6</ele>
        <time>2021-04-11 10:43:14</time>
      </trkpt>
      <trkpt lat="41.46026" lon="1.99189">
        <ele>161.6</ele>
        <time>2021-04-11 10:43:15</time>
      </trkpt>
      <trkpt lat="41.46017" lon="1.99197">
        <ele>161.6</ele>
        <time>2021-04-11 10:43:16</time>
      </trkpt>
      <trkpt lat="41.46009" lon="1.99205">
        <ele>161.8</ele>
        <time>2021-04-11 10:43:17</time>
      </trkpt>
      <trkpt lat="41.46" lon="1.99213">
        <ele>162</ele>
        <time>2021-04-11 10:43:18</time>
      </trkpt>
      <trkpt lat="41.45992" lon="1.99221">
        <ele>162</ele>
        <time>2021-04-11 10:43:19</time>
      </trkpt>
      <trkpt lat="41.45984" lon="1.99229">
        <ele>162</ele>
        <time>2021-04-11 10:43:20</time>
      </trkpt>
      <trkpt lat="41.45976" lon="1.99236">
        <ele>162.2</ele>
        <time>2021-04-11 10:43:21</time>
      </trkpt>
      <trkpt lat="41.45967" lon="1.99244">
        <ele>162.2</ele>
        <time>2021-04-11 10:43:22</time>
      </trkpt>
      <trkpt lat="41.4596" lon="1.99253">
        <ele>162.2</ele>
        <time>2021-04-11 10:43:23</time>
      </trkpt>
      <trkpt lat="41.45952" lon="1.99262">
        <ele>162.2</ele>
        <time>2021-04-11 10:43:24</time>
      </trkpt>
      <trkpt lat="41.45943" lon="1.99271">
        <ele>162</ele>
        <time>2021-04-11 10:43:25</time>
      </trkpt>
      <trkpt lat="41.45934" lon="1.99279">
        <ele>162</ele>
        <time>2021-04-11 10:43:26</time>
      </trkpt>
      <trkpt lat="41.45926" lon="1.99289">
        <ele>161.8</ele>
        <time>2021-04-11 10:43:27</time>
      </trkpt>
      <trkpt lat="41.45919" lon="1.99298">
        <ele>161.8</ele>
        <time>2021-04-11 10:43:28</time>
      </trkpt>
      <trkpt lat="41.45912" lon="1.99309">
        <ele>161.4</ele>
        <time>2021-04-11 10:43:29</time>
      </trkpt>
      <trkpt lat="41.45904" lon="1.9932">
        <ele>161.4</ele>
        <time>2021-04-11 10:43:30</time>
      </trkpt>
      <trkpt lat="41.45898" lon="1.99331">
        <ele>161.2</ele>
        <time>2021-04-11 10:43:31</time>
      </trkpt>
      <trkpt lat="41.45892" lon="1.99343">
        <ele>161.2</ele>
        <time>2021-04-11 10:43:32</time>
      </trkpt>
      <trkpt lat="41.45886" lon="1.99354">
        <ele>161</ele>
        <time>2021-04-11 10:43:33</time>
      </trkpt>
      <trkpt lat="41.4588" lon="1.99365">
        <ele>161</ele>
        <time>2021-04-11 10:43:34</time>
      </trkpt>
      <trkpt lat="41.45874" lon="1.99377">
        <ele>160.8</ele>
        <time>2021-04-11 10:43:35</time>
      </trkpt>
      <trkpt lat="41.45867" lon="1.99388">
        <ele>160.6</ele>
        <time>2021-04-11 10:43:36</time>
      </trkpt>
      <trkpt lat="41.45861" lon="1.994">
        <ele>160.4</ele>
        <time>2021-04-11 10:43:37</time>
      </trkpt>
      <trkpt lat="41.45854" lon="1.99412">
        <ele>160</ele>
        <time>2021-04-11 10:43:38</time>
      </trkpt>
      <trkpt lat="41.45847" lon="1.99423">
        <ele>159.6</ele>
        <time>2021-04-11 10:43:39</time>
      </trkpt>
      <trkpt lat="41.45839" lon="1.99434">
        <ele>159.2</ele>
        <time>2021-04-11 10:43:40</time>
      </trkpt>
      <trkpt lat="41.4583" lon="1.99444">
        <ele>158.2</ele>
        <time>2021-04-11 10:43:41</time>
      </trkpt>
      <trkpt lat="41.45821" lon="1.99454">
        <ele>157.4</ele>
        <time>2021-04-11 10:43:42</time>
      </trkpt>
      <trkpt lat="41.45811" lon="1.99464">
        <ele>156.4</ele>
        <time>2021-04-11 10:43:43</time>
      </trkpt>
      <trkpt lat="41.45802" lon="1.99475">
        <ele>155.6</ele>
        <time>2021-04-11 10:43:44</time>
      </trkpt>
      <trkpt lat="41.45793" lon="1.99486">
        <ele>155</ele>
        <time>2021-04-11 10:43:45</time>
      </trkpt>
      <trkpt lat="41.45783" lon="1.99498">
        <ele>154.4</ele>
        <time>2021-04-11 10:43:46</time>
      </trkpt>
      <trkpt lat="41.45772" lon="1.99508">
        <ele>153.6</ele>
        <time>2021-04-11 10:43:47</time>
      </trkpt>
      <trkpt lat="41.45761" lon="1.99517">
        <ele>152.8</ele>
        <time>2021-04-11 10:43:48</time>
      </trkpt>
      <trkpt lat="41.45749" lon="1.99526">
        <ele>152</ele>
        <time>2021-04-11 10:43:49</time>
      </trkpt>
      <trkpt lat="41.45738" lon="1.99535">
        <ele>151</ele>
        <time>2021-04-11 10:43:50</time>
      </trkpt>
      <trkpt lat="41.45727" lon="1.99545">
        <ele>149.8</ele>
        <time>2021-04-11 10:43:51</time>
      </trkpt>
      <trkpt lat="41.45718" lon="1.99555">
        <ele>148.8</ele>
        <time>2021-04-11 10:43:52</time>
      </trkpt>
      <trkpt lat="41.4571" lon="1.99569">
        <ele>148</ele>
        <time>2021-04-11 10:43:53</time>
      </trkpt>
      <trkpt lat="41.45702" lon="1.99584">
        <ele>147.2</ele>
        <time>2021-04-11 10:43:54</time>
      </trkpt>
      <trkpt lat="41.45695" lon="1.99602">
        <ele>146.2</ele>
        <time>2021-04-11 10:43:55</time>
      </trkpt>
      <trkpt lat="41.45688" lon="1.99619">
        <ele>145.2</ele>
        <time>2021-04-11 10:43:56</time>
      </trkpt>
      <trkpt lat="41.45683" lon="1.99635">
        <ele>144.2</ele>
        <time>2021-04-11 10:43:57</time>
      </trkpt>
      <trkpt lat="41.4568" lon="1.99652">
        <ele>143.2</ele>
        <time>2021-04-11 10:43:58</time>
      </trkpt>
      <trkpt lat="41.45678" lon="1.9967">
        <ele>142.2</ele>
        <time>2021-04-11 10:43:59</time>
      </trkpt>
      <trkpt lat="41.45679" lon="1.99687">
        <ele>141.4</ele>
        <time>2021-04-11 10:44:00</time>
      </trkpt>
      <trkpt lat="41.4568" lon="1.99704">
        <ele>140.6</ele>
        <time>2021-04-11 10:44:01</time>
      </trkpt>
      <trkpt lat="41.45683" lon="1.99723">
        <ele>139.8</ele>
        <time>2021-04-11 10:44:02</time>
      </trkpt>
      <trkpt lat="41.45686" lon="1.9974">
        <ele>138.8</ele>
        <time>2021-04-11 10:44:03</time>
      </trkpt>
      <trkpt lat="41.45689" lon="1.99758">
        <ele>138</ele>
        <time>2021-04-11 10:44:04</time>
      </trkpt>
      <trkpt lat="41.45691" lon="1.99775">
        <ele>137</ele>
        <time>2021-04-11 10:44:05</time>
      </trkpt>
      <trkpt lat="41.45692" lon="1.9979">
        <ele>136.4</ele>
        <time>2021-04-11 10:44:06</time>
      </trkpt>
      <trkpt lat="41.45691" lon="1.99804">
        <ele>135.6</ele>
        <time>2021-04-11 10:44:07</time>
      </trkpt>
      <trkpt lat="41.45687" lon="1.99817">
        <ele>134.8</ele>
        <time>2021-04-11 10:44:08</time>
      </trkpt>
      <trkpt lat="41.45679" lon="1.99828">
        <ele>134</ele>
        <time>2021-04-11 10:44:09</time>
      </trkpt>
      <trkpt lat="41.45668" lon="1.99835">
        <ele>133</ele>
        <time>2021-04-11 10:44:10</time>
      </trkpt>
      <trkpt lat="41.45657" lon="1.9984">
        <ele>132</ele>
        <time>2021-04-11 10:44:11</time>
      </trkpt>
      <trkpt lat="41.45645" lon="1.99844">
        <ele>131.2</ele>
        <time>2021-04-11 10:44:12</time>
      </trkpt>
      <trkpt lat="41.45632" lon="1.99848">
        <ele>130.2</ele>
        <time>2021-04-11 10:44:13</time>
      </trkpt>
      <trkpt lat="41.4562" lon="1.99851">
        <ele>129</ele>
        <time>2021-04-11 10:44:14</time>
      </trkpt>
      <trkpt lat="41.45607" lon="1.99855">
        <ele>128</ele>
        <time>2021-04-11 10:44:15</time>
      </trkpt>
      <trkpt lat="41.45594" lon="1.99859">
        <ele>127</ele>
        <time>2021-04-11 10:44:16</time>
      </trkpt>
      <trkpt lat="41.4558" lon="1.99863">
        <ele>126.4</ele>
        <time>2021-04-11 10:44:17</time>
      </trkpt>
      <trkpt lat="41.45567" lon="1.99867">
        <ele>125.6</ele>
        <time>2021-04-11 10:44:18</time>
      </trkpt>
      <trkpt lat="41.45554" lon="1.99872">
        <ele>124.8</ele>
        <time>2021-04-11 10:44:19</time>
      </trkpt>
      <trkpt lat="41.4554" lon="1.99877">
        <ele>123.8</ele>
        <time>2021-04-11 10:44:20</time>
      </trkpt>
      <trkpt lat="41.45527" lon="1.99881">
        <ele>122.6</ele>
        <time>2021-04-11 10:44:21</time>
      </trkpt>
      <trkpt lat="41.45512" lon="1.99886">
        <ele>121.8</ele>
        <time>2021-04-11 10:44:22</time>
      </trkpt>
      <trkpt lat="41.45499" lon="1.9989">
        <ele>121</ele>
        <time>2021-04-11 10:44:23</time>
      </trkpt>
      <trkpt lat="41.45485" lon="1.99895">
        <ele>120.4</ele>
        <time>2021-04-11 10:44:24</time>
      </trkpt>
      <trkpt lat="41.45472" lon="1.99901">
        <ele>119.6</ele>
        <time>2021-04-11 10:44:25</time>
      </trkpt>
      <trkpt lat="41.45459" lon="1.99905">
        <ele>119.2</ele>
        <time>2021-04-11 10:44:26</time>
      </trkpt>
      <trkpt lat="41.45447" lon="1.99909">
        <ele>119</ele>
        <time>2021-04-11 10:44:27</time>
      </trkpt>
      <trkpt lat="41.45434" lon="1.99914">
        <ele>118.8</ele>
        <time>2021-04-11 10:44:28</time>
      </trkpt>
      <trkpt lat="41.45422" lon="1.99918">
        <ele>119</ele>
        <time>2021-04-11 10:44:29</time>
      </trkpt>
      <trkpt lat="41.4541" lon="1.99922">
        <ele>119</ele>
        <time>2021-04-11 10:44:30</time>
      </trkpt>
      <trkpt lat="41.454" lon="1.99924">
        <ele>119.2</ele>
        <time>2021-04-11 10:44:31</time>
      </trkpt>
      <trkpt lat="41.45389" lon="1.99928">
        <ele>119.6</ele>
        <time>2021-04-11 10:44:32</time>
      </trkpt>
      <trkpt lat="41.45379" lon="1.99932">
        <ele>120</ele>
        <time>2021-04-11 10:44:33</time>
      </trkpt>
      <trkpt lat="41.45369" lon="1.99935">
        <ele>120.4</ele>
        <time>2021-04-11 10:44:34</time>
      </trkpt>
      <trkpt lat="41.45361" lon="1.99939">
        <ele>120.8</ele>
        <time>2021-04-11 10:44:35</time>
      </trkpt>
      <trkpt lat="41.45354" lon="1.99943">
        <ele>121.2</ele>
        <time>2021-04-11 10:44:36</time>
      </trkpt>
      <trkpt lat="41.45348" lon="1.99947">
        <ele>121.8</ele>
        <time>2021-04-11 10:44:37</time>
      </trkpt>
      <trkpt lat="41.45341" lon="1.99949">
        <ele>122.4</ele>
        <time>2021-04-11 10:44:38</time>
      </trkpt>
      <trkpt lat="41.45336" lon="1.9995">
        <ele>123</ele>
        <time>2021-04-11 10:44:39</time>
      </trkpt>
      <trkpt lat="41.45331" lon="1.99951">
        <ele>123.4</ele>
        <time>2021-04-11 10:44:40</time>
      </trkpt>
      <trkpt lat="41.45327" lon="1.99951">
        <ele>123.8</ele>
        <time>2021-04-11 10:44:41</time>
      </trkpt>
      <trkpt lat="41.45323" lon="1.99952">
        <ele>124.2</ele>
        <time>2021-04-11 10:44:42</time>
      </trkpt>
      <trkpt lat="41.4532" lon="1.99952">
        <ele>124.4</ele>
        <time>2021-04-11 10:44:43</time>
      </trkpt>
      <trkpt lat="41.45317" lon="1.99953">
        <ele>124.8</ele>
        <time>2021-04-11 10:44:44</time>
      </trkpt>
      <trkpt lat="41.45315" lon="1.99954">
        <ele>125</ele>
        <time>2021-04-11 10:44:45</time>
      </trkpt>
      <trkpt lat="41.45313" lon="1.99956">
        <ele>125.2</ele>
        <time>2021-04-11 10:44:46</time>
      </trkpt>
      <trkpt lat="41.45311" lon="1.99957">
        <ele>125.4</ele>
        <time>2021-04-11 10:44:47</time>
      </trkpt>
      <trkpt lat="41.4531" lon="1.99958">
        <ele>126</ele>
        <time>2021-04-11 10:44:53</time>
      </trkpt>
      <trkpt lat="41.45307" lon="1.9996">
        <ele>126</ele>
        <time>2021-04-11 10:44:54</time>
      </trkpt>
      <trkpt lat="41.45305" lon="1.99961">
        <ele>126</ele>
        <time>2021-04-11 10:44:55</time>
      </trkpt>
      <trkpt lat="41.45303" lon="1.99962">
        <ele>126.2</ele>
        <time>2021-04-11 10:44:56</time>
      </trkpt>
      <trkpt lat="41.45301" lon="1.99962">
        <ele>126.2</ele>
        <time>2021-04-11 10:44:57</time>
      </trkpt>
      <trkpt lat="41.45298" lon="1.99963">
        <ele>126.2</ele>
        <time>2021-04-11 10:44:58</time>
      </trkpt>
      <trkpt lat="41.45295" lon="1.99963">
        <ele>126.2</ele>
        <time>2021-04-11 10:44:59</time>
      </trkpt>
      <trkpt lat="41.45291" lon="1.99962">
        <ele>126.4</ele>
        <time>2021-04-11 10:45:00</time>
      </trkpt>
      <trkpt lat="41.45287" lon="1.99962">
        <ele>126.4</ele>
        <time>2021-04-11 10:45:01</time>
      </trkpt>
      <trkpt lat="41.45283" lon="1.9996">
        <ele>126.4</ele>
        <time>2021-04-11 10:45:02</time>
      </trkpt>
      <trkpt lat="41.45279" lon="1.99959">
        <ele>126.6</ele>
        <time>2021-04-11 10:45:03</time>
      </trkpt>
      <trkpt lat="41.45274" lon="1.99957">
        <ele>126.6</ele>
        <time>2021-04-11 10:45:04</time>
      </trkpt>
      <trkpt lat="41.45269" lon="1.99955">
        <ele>126.6</ele>
        <time>2021-04-11 10:45:05</time>
      </trkpt>
      <trkpt lat="41.45264" lon="1.99953">
        <ele>126.8</ele>
        <time>2021-04-11 10:45:06</time>
      </trkpt>
      <trkpt lat="41.45259" lon="1.9995">
        <ele>126.8</ele>
        <time>2021-04-11 10:45:07</time>
      </trkpt>
      <trkpt lat="41.45253" lon="1.99948">
        <ele>126.8</ele>
        <time>2021-04-11 10:45:08</time>
      </trkpt>
      <trkpt lat="41.45248" lon="1.99945">
        <ele>127</ele>
        <time>2021-04-11 10:45:09</time>
      </trkpt>
      <trkpt lat="41.45242" lon="1.99942">
        <ele>127</ele>
        <time>2021-04-11 10:45:10</time>
      </trkpt>
      <trkpt lat="41.45237" lon="1.9994">
        <ele>127.2</ele>
        <time>2021-04-11 10:45:11</time>
      </trkpt>
      <trkpt lat="41.45231" lon="1.99938">
        <ele>127.2</ele>
        <time>2021-04-11 10:45:12</time>
      </trkpt>
      <trkpt lat="41.45225" lon="1.99935">
        <ele>127.4</ele>
        <time>2021-04-11 10:45:13</time>
      </trkpt>
      <trkpt lat="41.4522" lon="1.99931">
        <ele>127.4</ele>
        <time>2021-04-11 10:45:14</time>
      </trkpt>
      <trkpt lat="41.45215" lon="1.99926">
        <ele>127.4</ele>
        <time>2021-04-11 10:45:15</time>
      </trkpt>
      <trkpt lat="41.4521" lon="1.99922">
        <ele>127.2</ele>
        <time>2021-04-11 10:45:16</time>
      </trkpt>
      <trkpt lat="41.45205" lon="1.99917">
        <ele>127.2</ele>
        <time>2021-04-11 10:45:17</time>
      </trkpt>
      <trkpt lat="41.45199" lon="1.99912">
        <ele>127.2</ele>
        <time>2021-04-11 10:45:18</time>
      </trkpt>
      <trkpt lat="41.45194" lon="1.99907">
        <ele>127</ele>
        <time>2021-04-11 10:45:19</time>
      </trkpt>
      <trkpt lat="41.45188" lon="1.99902">
        <ele>126.8</ele>
        <time>2021-04-11 10:45:20</time>
      </trkpt>
      <trkpt lat="41.45182" lon="1.99896">
        <ele>126.6</ele>
        <time>2021-04-11 10:45:21</time>
      </trkpt>
      <trkpt lat="41.45176" lon="1.99889">
        <ele>126.2</ele>
        <time>2021-04-11 10:45:22</time>
      </trkpt>
      <trkpt lat="41.4517" lon="1.99882">
        <ele>126</ele>
        <time>2021-04-11 10:45:23</time>
      </trkpt>
      <trkpt lat="41.45164" lon="1.99874">
        <ele>125.6</ele>
        <time>2021-04-11 10:45:24</time>
      </trkpt>
      <trkpt lat="41.45158" lon="1.99866">
        <ele>125.2</ele>
        <time>2021-04-11 10:45:25</time>
      </trkpt>
      <trkpt lat="41.45152" lon="1.99857">
        <ele>124.6</ele>
        <time>2021-04-11 10:45:26</time>
      </trkpt>
      <trkpt lat="41.45146" lon="1.99848">
        <ele>124.4</ele>
        <time>2021-04-11 10:45:27</time>
      </trkpt>
      <trkpt lat="41.45139" lon="1.99839">
        <ele>123.8</ele>
        <time>2021-04-11 10:45:28</time>
      </trkpt>
      <trkpt lat="41.45133" lon="1.9983">
        <ele>123.2</ele>
        <time>2021-04-11 10:45:29</time>
      </trkpt>
      <trkpt lat="41.45127" lon="1.9982">
        <ele>122.8</ele>
        <time>2021-04-11 10:45:30</time>
      </trkpt>
      <trkpt lat="41.45121" lon="1.9981">
        <ele>122.4</ele>
        <time>2021-04-11 10:45:31</time>
      </trkpt>
      <trkpt lat="41.45114" lon="1.998">
        <ele>122</ele>
        <time>2021-04-11 10:45:32</time>
      </trkpt>
      <trkpt lat="41.45108" lon="1.99789">
        <ele>121.6</ele>
        <time>2021-04-11 10:45:33</time>
      </trkpt>
      <trkpt lat="41.45101" lon="1.99779">
        <ele>121.2</ele>
        <time>2021-04-11 10:45:34</time>
      </trkpt>
      <trkpt lat="41.45094" lon="1.99769">
        <ele>120.8</ele>
        <time>2021-04-11 10:45:35</time>
      </trkpt>
      <trkpt lat="41.45087" lon="1.9976">
        <ele>120.6</ele>
        <time>2021-04-11 10:45:36</time>
      </trkpt>
      <trkpt lat="41.45079" lon="1.99752">
        <ele>120.2</ele>
        <time>2021-04-11 10:45:37</time>
      </trkpt>
      <trkpt lat="41.45072" lon="1.99743">
        <ele>120</ele>
        <time>2021-04-11 10:45:38</time>
      </trkpt>
      <trkpt lat="41.45064" lon="1.99733">
        <ele>119.6</ele>
        <time>2021-04-11 10:45:39</time>
      </trkpt>
      <trkpt lat="41.45057" lon="1.99725">
        <ele>119.2</ele>
        <time>2021-04-11 10:45:40</time>
      </trkpt>
      <trkpt lat="41.45048" lon="1.99716">
        <ele>118.8</ele>
        <time>2021-04-11 10:45:41</time>
      </trkpt>
      <trkpt lat="41.4504" lon="1.99708">
        <ele>118.2</ele>
        <time>2021-04-11 10:45:42</time>
      </trkpt>
      <trkpt lat="41.45031" lon="1.99699">
        <ele>117.4</ele>
        <time>2021-04-11 10:45:43</time>
      </trkpt>
      <trkpt lat="41.45021" lon="1.99691">
        <ele>116.6</ele>
        <time>2021-04-11 10:45:44</time>
      </trkpt>
      <trkpt lat="41.45011" lon="1.99684">
        <ele>115.8</ele>
        <time>2021-04-11 10:45:45</time>
      </trkpt>
      <trkpt lat="41.45" lon="1.99677">
        <ele>115</ele>
        <time>2021-04-11 10:45:46</time>
      </trkpt>
      <trkpt lat="41.44988" lon="1.99669">
        <ele>114</ele>
        <time>2021-04-11 10:45:47</time>
      </trkpt>
      <trkpt lat="41.44976" lon="1.99662">
        <ele>113.2</ele>
        <time>2021-04-11 10:45:48</time>
      </trkpt>
      <trkpt lat="41.44964" lon="1.99655">
        <ele>112.2</ele>
        <time>2021-04-11 10:45:49</time>
      </trkpt>
      <trkpt lat="41.44952" lon="1.99649">
        <ele>111.2</ele>
        <time>2021-04-11 10:45:50</time>
      </trkpt>
      <trkpt lat="41.44939" lon="1.99644">
        <ele>110.6</ele>
        <time>2021-04-11 10:45:51</time>
      </trkpt>
      <trkpt lat="41.44926" lon="1.9964">
        <ele>109.8</ele>
        <time>2021-04-11 10:45:52</time>
      </trkpt>
      <trkpt lat="41.44913" lon="1.99638">
        <ele>109.2</ele>
        <time>2021-04-11 10:45:53</time>
      </trkpt>
      <trkpt lat="41.44902" lon="1.99635">
        <ele>108.8</ele>
        <time>2021-04-11 10:45:54</time>
      </trkpt>
      <trkpt lat="41.4489" lon="1.99634">
        <ele>108.6</ele>
        <time>2021-04-11 10:45:55</time>
      </trkpt>
      <trkpt lat="41.44878" lon="1.99635">
        <ele>108.4</ele>
        <time>2021-04-11 10:45:56</time>
      </trkpt>
      <trkpt lat="41.44867" lon="1.99637">
        <ele>108.6</ele>
        <time>2021-04-11 10:45:57</time>
      </trkpt>
      <trkpt lat="41.44856" lon="1.99641">
        <ele>108.8</ele>
        <time>2021-04-11 10:45:58</time>
      </trkpt>
      <trkpt lat="41.44845" lon="1.99645">
        <ele>109</ele>
        <time>2021-04-11 10:45:59</time>
      </trkpt>
      <trkpt lat="41.44835" lon="1.9965">
        <ele>109.6</ele>
        <time>2021-04-11 10:46:00</time>
      </trkpt>
      <trkpt lat="41.44827" lon="1.99654">
        <ele>110.2</ele>
        <time>2021-04-11 10:46:01</time>
      </trkpt>
      <trkpt lat="41.44819" lon="1.9966">
        <ele>110.8</ele>
        <time>2021-04-11 10:46:02</time>
      </trkpt>
      <trkpt lat="41.44811" lon="1.99664">
        <ele>111.2</ele>
        <time>2021-04-11 10:46:03</time>
      </trkpt>
      <trkpt lat="41.44804" lon="1.99669">
        <ele>111.6</ele>
        <time>2021-04-11 10:46:04</time>
      </trkpt>
      <trkpt lat="41.44796" lon="1.99674">
        <ele>112.2</ele>
        <time>2021-04-11 10:46:05</time>
      </trkpt>
      <trkpt lat="41.44787" lon="1.99678">
        <ele>112.4</ele>
        <time>2021-04-11 10:46:06</time>
      </trkpt>
      <trkpt lat="41.44779" lon="1.9968">
        <ele>112.8</ele>
        <time>2021-04-11 10:46:07</time>
      </trkpt>
      <trkpt lat="41.4477" lon="1.99682">
        <ele>113</ele>
        <time>2021-04-11 10:46:08</time>
      </trkpt>
      <trkpt lat="41.44762" lon="1.99684">
        <ele>113</ele>
        <time>2021-04-11 10:46:09</time>
      </trkpt>
      <trkpt lat="41.44753" lon="1.99686">
        <ele>113</ele>
        <time>2021-04-11 10:46:10</time>
      </trkpt>
      <trkpt lat="41.44744" lon="1.99687">
        <ele>112.8</ele>
        <time>2021-04-11 10:46:11</time>
      </trkpt>
      <trkpt lat="41.44734" lon="1.99688">
        <ele>112.4</ele>
        <time>2021-04-11 10:46:12</time>
      </trkpt>
      <trkpt lat="41.44724" lon="1.99688">
        <ele>112</ele>
        <time>2021-04-11 10:46:13</time>
      </trkpt>
      <trkpt lat="41.44714" lon="1.99688">
        <ele>111.6</ele>
        <time>2021-04-11 10:46:14</time>
      </trkpt>
      <trkpt lat="41.44703" lon="1.99687">
        <ele>110.8</ele>
        <time>2021-04-11 10:46:15</time>
      </trkpt>
      <trkpt lat="41.44692" lon="1.99686">
        <ele>110.2</ele>
        <time>2021-04-11 10:46:16</time>
      </trkpt>
      <trkpt lat="41.4468" lon="1.99684">
        <ele>109.4</ele>
        <time>2021-04-11 10:46:17</time>
      </trkpt>
      <trkpt lat="41.44668" lon="1.99681">
        <ele>109</ele>
        <time>2021-04-11 10:46:18</time>
      </trkpt>
      <trkpt lat="41.44657" lon="1.99678">
        <ele>108.4</ele>
        <time>2021-04-11 10:46:19</time>
      </trkpt>
      <trkpt lat="41.44646" lon="1.99675">
        <ele>108</ele>
        <time>2021-04-11 10:46:20</time>
      </trkpt>
      <trkpt lat="41.44635" lon="1.99672">
        <ele>107.6</ele>
        <time>2021-04-11 10:46:21</time>
      </trkpt>
      <trkpt lat="41.44624" lon="1.99669">
        <ele>107.4</ele>
        <time>2021-04-11 10:46:22</time>
      </trkpt>
      <trkpt lat="41.44613" lon="1.99667">
        <ele>107.2</ele>
        <time>2021-04-11 10:46:23</time>
      </trkpt>
      <trkpt lat="41.44602" lon="1.99665">
        <ele>107</ele>
        <time>2021-04-11 10:46:24</time>
      </trkpt>
      <trkpt lat="41.4459" lon="1.99664">
        <ele>107</ele>
        <time>2021-04-11 10:46:25</time>
      </trkpt>
      <trkpt lat="41.4458" lon="1.99665">
        <ele>107</ele>
        <time>2021-04-11 10:46:26</time>
      </trkpt>
      <trkpt lat="41.44569" lon="1.99665">
        <ele>107.2</ele>
        <time>2021-04-11 10:46:27</time>
      </trkpt>
      <trkpt lat="41.44559" lon="1.99666">
        <ele>107.6</ele>
        <time>2021-04-11 10:46:28</time>
      </trkpt>
      <trkpt lat="41.44549" lon="1.99667">
        <ele>108</ele>
        <time>2021-04-11 10:46:29</time>
      </trkpt>
      <trkpt lat="41.44539" lon="1.99669">
        <ele>108.4</ele>
        <time>2021-04-11 10:46:30</time>
      </trkpt>
      <trkpt lat="41.44529" lon="1.9967">
        <ele>109</ele>
        <time>2021-04-11 10:46:31</time>
      </trkpt>
      <trkpt lat="41.44519" lon="1.99672">
        <ele>109.4</ele>
        <time>2021-04-11 10:46:32</time>
      </trkpt>
      <trkpt lat="41.44509" lon="1.99673">
        <ele>110.2</ele>
        <time>2021-04-11 10:46:33</time>
      </trkpt>
      <trkpt lat="41.445" lon="1.99674">
        <ele>110.8</ele>
        <time>2021-04-11 10:46:34</time>
      </trkpt>
      <trkpt lat="41.44491" lon="1.99676">
        <ele>111.4</ele>
        <time>2021-04-11 10:46:35</time>
      </trkpt>
      <trkpt lat="41.44483" lon="1.99679">
        <ele>112</ele>
        <time>2021-04-11 10:46:36</time>
      </trkpt>
      <trkpt lat="41.44475" lon="1.99681">
        <ele>112.6</ele>
        <time>2021-04-11 10:46:37</time>
      </trkpt>
      <trkpt lat="41.44467" lon="1.99684">
        <ele>113.2</ele>
        <time>2021-04-11 10:46:38</time>
      </trkpt>
      <trkpt lat="41.4446" lon="1.99687">
        <ele>113.8</ele>
        <time>2021-04-11 10:46:39</time>
      </trkpt>
      <trkpt lat="41.44453" lon="1.99691">
        <ele>114.2</ele>
        <time>2021-04-11 10:46:40</time>
      </trkpt>
      <trkpt lat="41.44446" lon="1.99694">
        <ele>114.6</ele>
        <time>2021-04-11 10:46:41</time>
      </trkpt>
      <trkpt lat="41.44439" lon="1.99698">
        <ele>115</ele>
        <time>2021-04-11 10:46:42</time>
      </trkpt>
      <trkpt lat="41.44433" lon="1.99702">
        <ele>115.6</ele>
        <time>2021-04-11 10:46:43</time>
      </trkpt>
      <trkpt lat="41.44426" lon="1.99707">
        <ele>115.8</ele>
        <time>2021-04-11 10:46:44</time>
      </trkpt>
      <trkpt lat="41.44419" lon="1.99712">
        <ele>116.2</ele>
        <time>2021-04-11 10:46:45</time>
      </trkpt>
      <trkpt lat="41.44412" lon="1.99717">
        <ele>116.4</ele>
        <time>2021-04-11 10:46:46</time>
      </trkpt>
      <trkpt lat="41.44405" lon="1.99723">
        <ele>116.8</ele>
        <time>2021-04-11 10:46:47</time>
      </trkpt>
      <trkpt lat="41.44399" lon="1.99729">
        <ele>117</ele>
        <time>2021-04-11 10:46:48</time>
      </trkpt>
      <trkpt lat="41.44392" lon="1.99736">
        <ele>117.2</ele>
        <time>2021-04-11 10:46:49</time>
      </trkpt>
      <trkpt lat="41.44386" lon="1.99743">
        <ele>117.4</ele>
        <time>2021-04-11 10:46:50</time>
      </trkpt>
      <trkpt lat="41.44379" lon="1.9975">
        <ele>117.4</ele>
        <time>2021-04-11 10:46:51</time>
      </trkpt>
      <trkpt lat="41.44373" lon="1.99757">
        <ele>117.6</ele>
        <time>2021-04-11 10:46:52</time>
      </trkpt>
      <trkpt lat="41.44367" lon="1.99766">
        <ele>117.6</ele>
        <time>2021-04-11 10:46:53</time>
      </trkpt>
      <trkpt lat="41.44361" lon="1.99773">
        <ele>117.6</ele>
        <time>2021-04-11 10:46:54</time>
      </trkpt>
      <trkpt lat="41.44354" lon="1.99782">
        <ele>117.6</ele>
        <time>2021-04-11 10:46:55</time>
      </trkpt>
      <trkpt lat="41.44348" lon="1.99791">
        <ele>117.4</ele>
        <time>2021-04-11 10:46:56</time>
      </trkpt>
      <trkpt lat="41.44342" lon="1.998">
        <ele>117.4</ele>
        <time>2021-04-11 10:46:57</time>
      </trkpt>
      <trkpt lat="41.44334" lon="1.99808">
        <ele>117.2</ele>
        <time>2021-04-11 10:46:58</time>
      </trkpt>
      <trkpt lat="41.44327" lon="1.99817">
        <ele>117</ele>
        <time>2021-04-11 10:46:59</time>
      </trkpt>
      <trkpt lat="41.4432" lon="1.99825">
        <ele>116.8</ele>
        <time>2021-04-11 10:47:00</time>
      </trkpt>
      <trkpt lat="41.44312" lon="1.99831">
        <ele>116.8</ele>
        <time>2021-04-11 10:47:01</time>
      </trkpt>
      <trkpt lat="41.44303" lon="1.99838">
        <ele>116.6</ele>
        <time>2021-04-11 10:47:02</time>
      </trkpt>
      <trkpt lat="41.44294" lon="1.99844">
        <ele>116.4</ele>
        <time>2021-04-11 10:47:03</time>
      </trkpt>
      <trkpt lat="41.44285" lon="1.99848">
        <ele>116.2</ele>
        <time>2021-04-11 10:47:04</time>
      </trkpt>
      <trkpt lat="41.44275" lon="1.99853">
        <ele>116.2</ele>
        <time>2021-04-11 10:47:05</time>
      </trkpt>
      <trkpt lat="41.44265" lon="1.99856">
        <ele>116</ele>
        <time>2021-04-11 10:47:06</time>
      </trkpt>
      <trkpt lat="41.44255" lon="1.99858">
        <ele>115.6</ele>
        <time>2021-04-11 10:47:07</time>
      </trkpt>
      <trkpt lat="41.44245" lon="1.99859">
        <ele>115.2</ele>
        <time>2021-04-11 10:47:08</time>
      </trkpt>
      <trkpt lat="41.44235" lon="1.9986">
        <ele>114.8</ele>
        <time>2021-04-11 10:47:09</time>
      </trkpt>
      <trkpt lat="41.44225" lon="1.99861">
        <ele>114.6</ele>
        <time>2021-04-11 10:47:10</time>
      </trkpt>
      <trkpt lat="41.44214" lon="1.99861">
        <ele>114.2</ele>
        <time>2021-04-11 10:47:11</time>
      </trkpt>
      <trkpt lat="41.44203" lon="1.9986">
        <ele>114</ele>
        <time>2021-04-11 10:47:12</time>
      </trkpt>
      <trkpt lat="41.44193" lon="1.99858">
        <ele>113.8</ele>
        <time>2021-04-11 10:47:13</time>
      </trkpt>
      <trkpt lat="41.44183" lon="1.99856">
        <ele>113.8</ele>
        <time>2021-04-11 10:47:14</time>
      </trkpt>
      <trkpt lat="41.44173" lon="1.99855">
        <ele>114</ele>
        <time>2021-04-11 10:47:15</time>
      </trkpt>
      <trkpt lat="41.44162" lon="1.99854">
        <ele>114</ele>
        <time>2021-04-11 10:47:16</time>
      </trkpt>
      <trkpt lat="41.44153" lon="1.99853">
        <ele>114</ele>
        <time>2021-04-11 10:47:17</time>
      </trkpt>
      <trkpt lat="41.44143" lon="1.99853">
        <ele>114.4</ele>
        <time>2021-04-11 10:47:18</time>
      </trkpt>
      <trkpt lat="41.44134" lon="1.99854">
        <ele>114.6</ele>
        <time>2021-04-11 10:47:19</time>
      </trkpt>
      <trkpt lat="41.44125" lon="1.99855">
        <ele>114.8</ele>
        <time>2021-04-11 10:47:20</time>
      </trkpt>
      <trkpt lat="41.44116" lon="1.99858">
        <ele>115.2</ele>
        <time>2021-04-11 10:47:21</time>
      </trkpt>
      <trkpt lat="41.44107" lon="1.9986">
        <ele>115.4</ele>
        <time>2021-04-11 10:47:22</time>
      </trkpt>
      <trkpt lat="41.44099" lon="1.99862">
        <ele>115.8</ele>
        <time>2021-04-11 10:47:23</time>
      </trkpt>
      <trkpt lat="41.44091" lon="1.99864">
        <ele>116</ele>
        <time>2021-04-11 10:47:24</time>
      </trkpt>
      <trkpt lat="41.44082" lon="1.99866">
        <ele>116.4</ele>
        <time>2021-04-11 10:47:25</time>
      </trkpt>
      <trkpt lat="41.44074" lon="1.99868">
        <ele>116.6</ele>
        <time>2021-04-11 10:47:26</time>
      </trkpt>
      <trkpt lat="41.44066" lon="1.99872">
        <ele>117</ele>
        <time>2021-04-11 10:47:27</time>
      </trkpt>
      <trkpt lat="41.44059" lon="1.99876">
        <ele>117.2</ele>
        <time>2021-04-11 10:47:28</time>
      </trkpt>
      <trkpt lat="41.44052" lon="1.9988">
        <ele>117.6</ele>
        <time>2021-04-11 10:47:29</time>
      </trkpt>
      <trkpt lat="41.44045" lon="1.99887">
        <ele>117.8</ele>
        <time>2021-04-11 10:47:30</time>
      </trkpt>
      <trkpt lat="41.44041" lon="1.99894">
        <ele>118.2</ele>
        <time>2021-04-11 10:47:31</time>
      </trkpt>
      <trkpt lat="41.44035" lon="1.99902">
        <ele>118.4</ele>
        <time>2021-04-11 10:47:32</time>
      </trkpt>
      <trkpt lat="41.44031" lon="1.9991">
        <ele>118.6</ele>
        <time>2021-04-11 10:47:33</time>
      </trkpt>
      <trkpt lat="41.44025" lon="1.99918">
        <ele>118.6</ele>
        <time>2021-04-11 10:47:34</time>
      </trkpt>
      <trkpt lat="41.4402" lon="1.99926">
        <ele>118.6</ele>
        <time>2021-04-11 10:47:35</time>
      </trkpt>
      <trkpt lat="41.44014" lon="1.99932">
        <ele>118.8</ele>
        <time>2021-04-11 10:47:36</time>
      </trkpt>
      <trkpt lat="41.44007" lon="1.99937">
        <ele>118.8</ele>
        <time>2021-04-11 10:47:37</time>
      </trkpt>
      <trkpt lat="41.44" lon="1.99938">
        <ele>118.8</ele>
        <time>2021-04-11 10:47:38</time>
      </trkpt>
      <trkpt lat="41.43993" lon="1.99937">
        <ele>118.6</ele>
        <time>2021-04-11 10:47:39</time>
      </trkpt>
      <trkpt lat="41.43986" lon="1.99932">
        <ele>118.6</ele>
        <time>2021-04-11 10:47:40</time>
      </trkpt>
      <trkpt lat="41.43979" lon="1.99925">
        <ele>118.2</ele>
        <time>2021-04-11 10:47:41</time>
      </trkpt>
      <trkpt lat="41.43974" lon="1.99917">
        <ele>118.2</ele>
        <time>2021-04-11 10:47:42</time>
      </trkpt>
      <trkpt lat="41.43968" lon="1.9991">
        <ele>118.2</ele>
        <time>2021-04-11 10:47:43</time>
      </trkpt>
      <trkpt lat="41.43961" lon="1.99905">
        <ele>118.4</ele>
        <time>2021-04-11 10:47:44</time>
      </trkpt>
      <trkpt lat="41.43954" lon="1.99901">
        <ele>118.4</ele>
        <time>2021-04-11 10:47:45</time>
      </trkpt>
      <trkpt lat="41.43946" lon="1.999">
        <ele>118.4</ele>
        <time>2021-04-11 10:47:46</time>
      </trkpt>
      <trkpt lat="41.43937" lon="1.99901">
        <ele>118.4</ele>
        <time>2021-04-11 10:47:47</time>
      </trkpt>
      <trkpt lat="41.43928" lon="1.99902">
        <ele>118.4</ele>
        <time>2021-04-11 10:47:48</time>
      </trkpt>
      <trkpt lat="41.43919" lon="1.99904">
        <ele>118.4</ele>
        <time>2021-04-11 10:47:49</time>
      </trkpt>
      <trkpt lat="41.43909" lon="1.99906">
        <ele>118.2</ele>
        <time>2021-04-11 10:47:50</time>
      </trkpt>
      <trkpt lat="41.43899" lon="1.99908">
        <ele>118</ele>
        <time>2021-04-11 10:47:51</time>
      </trkpt>
      <trkpt lat="41.43889" lon="1.99911">
        <ele>117.8</ele>
        <time>2021-04-11 10:47:52</time>
      </trkpt>
      <trkpt lat="41.43879" lon="1.99914">
        <ele>117.4</ele>
        <time>2021-04-11 10:47:53</time>
      </trkpt>
      <trkpt lat="41.43869" lon="1.99917">
        <ele>117</ele>
        <time>2021-04-11 10:47:54</time>
      </trkpt>
      <trkpt lat="41.43857" lon="1.9992">
        <ele>116.6</ele>
        <time>2021-04-11 10:47:55</time>
      </trkpt>
      <trkpt lat="41.43847" lon="1.99922">
        <ele>116</ele>
        <time>2021-04-11 10:47:56</time>
      </trkpt>
      <trkpt lat="41.43836" lon="1.99926">
        <ele>115.4</ele>
        <time>2021-04-11 10:47:57</time>
      </trkpt>
      <trkpt lat="41.43824" lon="1.9993">
        <ele>114.8</ele>
        <time>2021-04-11 10:47:58</time>
      </trkpt>
      <trkpt lat="41.43813" lon="1.99935">
        <ele>114</ele>
        <time>2021-04-11 10:47:59</time>
      </trkpt>
      <trkpt lat="41.43801" lon="1.99941">
        <ele>113</ele>
        <time>2021-04-11 10:48:00</time>
      </trkpt>
      <trkpt lat="41.43789" lon="1.99947">
        <ele>112</ele>
        <time>2021-04-11 10:48:01</time>
      </trkpt>
      <trkpt lat="41.43777" lon="1.99955">
        <ele>111.2</ele>
        <time>2021-04-11 10:48:02</time>
      </trkpt>
      <trkpt lat="41.43764" lon="1.99963">
        <ele>110.2</ele>
        <time>2021-04-11 10:48:03</time>
      </trkpt>
      <trkpt lat="41.43752" lon="1.99972">
        <ele>109.4</ele>
        <time>2021-04-11 10:48:04</time>
      </trkpt>
      <trkpt lat="41.4374" lon="1.99981">
        <ele>108.4</ele>
        <time>2021-04-11 10:48:05</time>
      </trkpt>
      <trkpt lat="41.43728" lon="1.9999">
        <ele>107.4</ele>
        <time>2021-04-11 10:48:06</time>
      </trkpt>
      <trkpt lat="41.43716" lon="2">
        <ele>106.6</ele>
        <time>2021-04-11 10:48:07</time>
      </trkpt>
      <trkpt lat="41.43704" lon="2.0001">
        <ele>106.2</ele>
        <time>2021-04-11 10:48:08</time>
      </trkpt>
      <trkpt lat="41.43692" lon="2.0002">
        <ele>105.6</ele>
        <time>2021-04-11 10:48:09</time>
      </trkpt>
      <trkpt lat="41.43679" lon="2.00029">
        <ele>105</ele>
        <time>2021-04-11 10:48:10</time>
      </trkpt>
      <trkpt lat="41.43667" lon="2.00038">
        <ele>104.4</ele>
        <time>2021-04-11 10:48:11</time>
      </trkpt>
      <trkpt lat="41.43655" lon="2.00048">
        <ele>104</ele>
        <time>2021-04-11 10:48:12</time>
      </trkpt>
      <trkpt lat="41.43644" lon="2.00057">
        <ele>103.6</ele>
        <time>2021-04-11 10:48:13</time>
      </trkpt>
      <trkpt lat="41.4363" lon="2.00068">
        <ele>103</ele>
        <time>2021-04-11 10:48:14</time>
      </trkpt>
      <trkpt lat="41.43618" lon="2.00078">
        <ele>102.4</ele>
        <time>2021-04-11 10:48:15</time>
      </trkpt>
      <trkpt lat="41.43606" lon="2.00087">
        <ele>101.8</ele>
        <time>2021-04-11 10:48:16</time>
      </trkpt>
      <trkpt lat="41.43593" lon="2.00097">
        <ele>101.4</ele>
        <time>2021-04-11 10:48:17</time>
      </trkpt>
      <trkpt lat="41.43581" lon="2.00107">
        <ele>101</ele>
        <time>2021-04-11 10:48:18</time>
      </trkpt>
      <trkpt lat="41.43569" lon="2.00117">
        <ele>100.6</ele>
        <time>2021-04-11 10:48:19</time>
      </trkpt>
      <trkpt lat="41.43557" lon="2.00127">
        <ele>100.2</ele>
        <time>2021-04-11 10:48:20</time>
      </trkpt>
      <trkpt lat="41.43545" lon="2.00136">
        <ele>99.8</ele>
        <time>2021-04-11 10:48:21</time>
      </trkpt>
      <trkpt lat="41.43532" lon="2.00147">
        <ele>99.4</ele>
        <time>2021-04-11 10:48:22</time>
      </trkpt>
      <trkpt lat="41.4352" lon="2.00157">
        <ele>99.2</ele>
        <time>2021-04-11 10:48:23</time>
      </trkpt>
      <trkpt lat="41.43508" lon="2.00166">
        <ele>99</ele>
        <time>2021-04-11 10:48:24</time>
      </trkpt>
      <trkpt lat="41.43496" lon="2.00176">
        <ele>98.8</ele>
        <time>2021-04-11 10:48:25</time>
      </trkpt>
      <trkpt lat="41.43484" lon="2.00185">
        <ele>98.6</ele>
        <time>2021-04-11 10:48:26</time>
      </trkpt>
      <trkpt lat="41.43471" lon="2.00195">
        <ele>98.6</ele>
        <time>2021-04-11 10:48:27</time>
      </trkpt>
      <trkpt lat="41.4346" lon="2.00204">
        <ele>98.6</ele>
        <time>2021-04-11 10:48:28</time>
      </trkpt>
      <trkpt lat="41.43448" lon="2.00212">
        <ele>98.8</ele>
        <time>2021-04-11 10:48:29</time>
      </trkpt>
      <trkpt lat="41.43436" lon="2.00221">
        <ele>98.8</ele>
        <time>2021-04-11 10:48:30</time>
      </trkpt>
      <trkpt lat="41.43425" lon="2.00228">
        <ele>98.8</ele>
        <time>2021-04-11 10:48:31</time>
      </trkpt>
      <trkpt lat="41.43413" lon="2.00237">
        <ele>99</ele>
        <time>2021-04-11 10:48:32</time>
      </trkpt>
      <trkpt lat="41.43403" lon="2.00244">
        <ele>99.2</ele>
        <time>2021-04-11 10:48:33</time>
      </trkpt>
      <trkpt lat="41.43392" lon="2.00251">
        <ele>99.6</ele>
        <time>2021-04-11 10:48:34</time>
      </trkpt>
      <trkpt lat="41.43382" lon="2.00257">
        <ele>99.8</ele>
        <time>2021-04-11 10:48:35</time>
      </trkpt>
      <trkpt lat="41.43372" lon="2.00263">
        <ele>100</ele>
        <time>2021-04-11 10:48:36</time>
      </trkpt>
      <trkpt lat="41.43362" lon="2.00269">
        <ele>100.2</ele>
        <time>2021-04-11 10:48:37</time>
      </trkpt>
      <trkpt lat="41.43353" lon="2.00275">
        <ele>100.4</ele>
        <time>2021-04-11 10:48:38</time>
      </trkpt>
      <trkpt lat="41.43343" lon="2.00281">
        <ele>100.6</ele>
        <time>2021-04-11 10:48:39</time>
      </trkpt>
      <trkpt lat="41.43334" lon="2.00287">
        <ele>100.8</ele>
        <time>2021-04-11 10:48:40</time>
      </trkpt>
      <trkpt lat="41.43325" lon="2.00292">
        <ele>100.8</ele>
        <time>2021-04-11 10:48:41</time>
      </trkpt>
      <trkpt lat="41.43315" lon="2.00297">
        <ele>101</ele>
        <time>2021-04-11 10:48:42</time>
      </trkpt>
      <trkpt lat="41.43306" lon="2.00302">
        <ele>101</ele>
        <time>2021-04-11 10:48:43</time>
      </trkpt>
      <trkpt lat="41.43297" lon="2.00307">
        <ele>101.2</ele>
        <time>2021-04-11 10:48:44</time>
      </trkpt>
      <trkpt lat="41.43288" lon="2.00312">
        <ele>101.2</ele>
        <time>2021-04-11 10:48:45</time>
      </trkpt>
      <trkpt lat="41.43279" lon="2.00316">
        <ele>101.4</ele>
        <time>2021-04-11 10:48:46</time>
      </trkpt>
      <trkpt lat="41.4327" lon="2.00321">
        <ele>101.4</ele>
        <time>2021-04-11 10:48:47</time>
      </trkpt>
      <trkpt lat="41.43261" lon="2.00325">
        <ele>101.4</ele>
        <time>2021-04-11 10:48:48</time>
      </trkpt>
      <trkpt lat="41.43252" lon="2.0033">
        <ele>101.6</ele>
        <time>2021-04-11 10:48:49</time>
      </trkpt>
      <trkpt lat="41.43243" lon="2.00334">
        <ele>101.6</ele>
        <time>2021-04-11 10:48:50</time>
      </trkpt>
      <trkpt lat="41.43233" lon="2.00338">
        <ele>101.6</ele>
        <time>2021-04-11 10:48:51</time>
      </trkpt>
      <trkpt lat="41.43224" lon="2.00342">
        <ele>101.4</ele>
        <time>2021-04-11 10:48:52</time>
      </trkpt>
      <trkpt lat="41.43214" lon="2.00346">
        <ele>101.4</ele>
        <time>2021-04-11 10:48:53</time>
      </trkpt>
      <trkpt lat="41.43205" lon="2.0035">
        <ele>101.2</ele>
        <time>2021-04-11 10:48:54</time>
      </trkpt>
      <trkpt lat="41.43196" lon="2.00355">
        <ele>101</ele>
        <time>2021-04-11 10:48:55</time>
      </trkpt>
      <trkpt lat="41.43186" lon="2.00359">
        <ele>100.8</ele>
        <time>2021-04-11 10:48:56</time>
      </trkpt>
      <trkpt lat="41.43175" lon="2.00362">
        <ele>100.8</ele>
        <time>2021-04-11 10:48:57</time>
      </trkpt>
      <trkpt lat="41.43164" lon="2.00365">
        <ele>100.6</ele>
        <time>2021-04-11 10:48:58</time>
      </trkpt>
      <trkpt lat="41.43153" lon="2.00369">
        <ele>100.6</ele>
        <time>2021-04-11 10:48:59</time>
      </trkpt>
      <trkpt lat="41.43142" lon="2.00372">
        <ele>100.4</ele>
        <time>2021-04-11 10:49:00</time>
      </trkpt>
      <trkpt lat="41.43132" lon="2.00374">
        <ele>100.4</ele>
        <time>2021-04-11 10:49:01</time>
      </trkpt>
      <trkpt lat="41.43121" lon="2.00377">
        <ele>100.6</ele>
        <time>2021-04-11 10:49:02</time>
      </trkpt>
      <trkpt lat="41.43111" lon="2.00379">
        <ele>100.4</ele>
        <time>2021-04-11 10:49:03</time>
      </trkpt>
      <trkpt lat="41.431" lon="2.00381">
        <ele>100.4</ele>
        <time>2021-04-11 10:49:04</time>
      </trkpt>
      <trkpt lat="41.4309" lon="2.00383">
        <ele>100.4</ele>
        <time>2021-04-11 10:49:05</time>
      </trkpt>
      <trkpt lat="41.4308" lon="2.00385">
        <ele>100.4</ele>
        <time>2021-04-11 10:49:06</time>
      </trkpt>
      <trkpt lat="41.43068" lon="2.00388">
        <ele>100.4</ele>
        <time>2021-04-11 10:49:07</time>
      </trkpt>
      <trkpt lat="41.43058" lon="2.0039">
        <ele>100.4</ele>
        <time>2021-04-11 10:49:08</time>
      </trkpt>
      <trkpt lat="41.43048" lon="2.00392">
        <ele>100.4</ele>
        <time>2021-04-11 10:49:09</time>
      </trkpt>
      <trkpt lat="41.43037" lon="2.00394">
        <ele>100.2</ele>
        <time>2021-04-11 10:49:10</time>
      </trkpt>
      <trkpt lat="41.43027" lon="2.00395">
        <ele>100.2</ele>
        <time>2021-04-11 10:49:11</time>
      </trkpt>
      <trkpt lat="41.43017" lon="2.00397">
        <ele>100.4</ele>
        <time>2021-04-11 10:49:12</time>
      </trkpt>
      <trkpt lat="41.43005" lon="2.00399">
        <ele>100.4</ele>
        <time>2021-04-11 10:49:13</time>
      </trkpt>
      <trkpt lat="41.42994" lon="2.00401">
        <ele>100.4</ele>
        <time>2021-04-11 10:49:14</time>
      </trkpt>
      <trkpt lat="41.42983" lon="2.00403">
        <ele>100.2</ele>
        <time>2021-04-11 10:49:15</time>
      </trkpt>
      <trkpt lat="41.42973" lon="2.00405">
        <ele>100.2</ele>
        <time>2021-04-11 10:49:16</time>
      </trkpt>
      <trkpt lat="41.42962" lon="2.00407">
        <ele>100.2</ele>
        <time>2021-04-11 10:49:17</time>
      </trkpt>
      <trkpt lat="41.42952" lon="2.00409">
        <ele>100</ele>
        <time>2021-04-11 10:49:18</time>
      </trkpt>
      <trkpt lat="41.42941" lon="2.00411">
        <ele>100</ele>
        <time>2021-04-11 10:49:19</time>
      </trkpt>
      <trkpt lat="41.42931" lon="2.00413">
        <ele>100</ele>
        <time>2021-04-11 10:49:20</time>
      </trkpt>
      <trkpt lat="41.4292" lon="2.00414">
        <ele>99.8</ele>
        <time>2021-04-11 10:49:21</time>
      </trkpt>
      <trkpt lat="41.4291" lon="2.00416">
        <ele>99.8</ele>
        <time>2021-04-11 10:49:22</time>
      </trkpt>
      <trkpt lat="41.42899" lon="2.00419">
        <ele>99.6</ele>
        <time>2021-04-11 10:49:23</time>
      </trkpt>
      <trkpt lat="41.42889" lon="2.00421">
        <ele>99.6</ele>
        <time>2021-04-11 10:49:24</time>
      </trkpt>
      <trkpt lat="41.42878" lon="2.00424">
        <ele>99.4</ele>
        <time>2021-04-11 10:49:25</time>
      </trkpt>
      <trkpt lat="41.42867" lon="2.00425">
        <ele>99.4</ele>
        <time>2021-04-11 10:49:26</time>
      </trkpt>
      <trkpt lat="41.42857" lon="2.00428">
        <ele>99.2</ele>
        <time>2021-04-11 10:49:27</time>
      </trkpt>
      <trkpt lat="41.42846" lon="2.0043">
        <ele>99.2</ele>
        <time>2021-04-11 10:49:28</time>
      </trkpt>
      <trkpt lat="41.42836" lon="2.00432">
        <ele>99.2</ele>
        <time>2021-04-11 10:49:29</time>
      </trkpt>
      <trkpt lat="41.42825" lon="2.00434">
        <ele>99</ele>
        <time>2021-04-11 10:49:30</time>
      </trkpt>
      <trkpt lat="41.42816" lon="2.00436">
        <ele>99</ele>
        <time>2021-04-11 10:49:31</time>
      </trkpt>
      <trkpt lat="41.42805" lon="2.00439">
        <ele>98.8</ele>
        <time>2021-04-11 10:49:32</time>
      </trkpt>
      <trkpt lat="41.42794" lon="2.00443">
        <ele>98.8</ele>
        <time>2021-04-11 10:49:33</time>
      </trkpt>
      <trkpt lat="41.42784" lon="2.00447">
        <ele>98.6</ele>
        <time>2021-04-11 10:49:34</time>
      </trkpt>
      <trkpt lat="41.42774" lon="2.00451">
        <ele>98.6</ele>
        <time>2021-04-11 10:49:35</time>
      </trkpt>
      <trkpt lat="41.42765" lon="2.00456">
        <ele>98.6</ele>
        <time>2021-04-11 10:49:36</time>
      </trkpt>
      <trkpt lat="41.42755" lon="2.00462">
        <ele>98.6</ele>
        <time>2021-04-11 10:49:37</time>
      </trkpt>
      <trkpt lat="41.42746" lon="2.00467">
        <ele>98.6</ele>
        <time>2021-04-11 10:49:38</time>
      </trkpt>
      <trkpt lat="41.42736" lon="2.00473">
        <ele>98.6</ele>
        <time>2021-04-11 10:49:39</time>
      </trkpt>
      <trkpt lat="41.42726" lon="2.0048">
        <ele>98.6</ele>
        <time>2021-04-11 10:49:40</time>
      </trkpt>
      <trkpt lat="41.42717" lon="2.00487">
        <ele>98.4</ele>
        <time>2021-04-11 10:49:41</time>
      </trkpt>
      <trkpt lat="41.42708" lon="2.00494">
        <ele>98.4</ele>
        <time>2021-04-11 10:49:42</time>
      </trkpt>
      <trkpt lat="41.42699" lon="2.005">
        <ele>98.4</ele>
        <time>2021-04-11 10:49:43</time>
      </trkpt>
      <trkpt lat="41.42689" lon="2.00507">
        <ele>98.4</ele>
        <time>2021-04-11 10:49:44</time>
      </trkpt>
      <trkpt lat="41.4268" lon="2.00513">
        <ele>98.6</ele>
        <time>2021-04-11 10:49:45</time>
      </trkpt>
      <trkpt lat="41.42671" lon="2.00519">
        <ele>98.4</ele>
        <time>2021-04-11 10:49:46</time>
      </trkpt>
      <trkpt lat="41.42662" lon="2.00525">
        <ele>98.4</ele>
        <time>2021-04-11 10:49:47</time>
      </trkpt>
      <trkpt lat="41.42653" lon="2.0053">
        <ele>98.4</ele>
        <time>2021-04-11 10:49:48</time>
      </trkpt>
      <trkpt lat="41.42643" lon="2.00533">
        <ele>98.4</ele>
        <time>2021-04-11 10:49:49</time>
      </trkpt>
      <trkpt lat="41.42633" lon="2.00537">
        <ele>98.4</ele>
        <time>2021-04-11 10:49:50</time>
      </trkpt>
      <trkpt lat="41.42625" lon="2.0054">
        <ele>98.6</ele>
        <time>2021-04-11 10:49:51</time>
      </trkpt>
      <trkpt lat="41.42614" lon="2.00543">
        <ele>98.6</ele>
        <time>2021-04-11 10:49:52</time>
      </trkpt>
      <trkpt lat="41.42604" lon="2.00546">
        <ele>98.6</ele>
        <time>2021-04-11 10:49:53</time>
      </trkpt>
      <trkpt lat="41.42594" lon="2.0055">
        <ele>98.6</ele>
        <time>2021-04-11 10:49:54</time>
      </trkpt>
      <trkpt lat="41.42585" lon="2.00553">
        <ele>98.6</ele>
        <time>2021-04-11 10:49:55</time>
      </trkpt>
      <trkpt lat="41.42576" lon="2.00556">
        <ele>98.6</ele>
        <time>2021-04-11 10:49:56</time>
      </trkpt>
      <trkpt lat="41.42567" lon="2.00559">
        <ele>98.6</ele>
        <time>2021-04-11 10:49:57</time>
      </trkpt>
      <trkpt lat="41.42558" lon="2.00563">
        <ele>98.6</ele>
        <time>2021-04-11 10:49:58</time>
      </trkpt>
      <trkpt lat="41.42548" lon="2.00567">
        <ele>98.8</ele>
        <time>2021-04-11 10:49:59</time>
      </trkpt>
      <trkpt lat="41.42539" lon="2.00571">
        <ele>99</ele>
        <time>2021-04-11 10:50:00</time>
      </trkpt>
      <trkpt lat="41.4253" lon="2.00575">
        <ele>99</ele>
        <time>2021-04-11 10:50:01</time>
      </trkpt>
      <trkpt lat="41.42521" lon="2.00579">
        <ele>99</ele>
        <time>2021-04-11 10:50:02</time>
      </trkpt>
      <trkpt lat="41.42512" lon="2.00584">
        <ele>99</ele>
        <time>2021-04-11 10:50:03</time>
      </trkpt>
      <trkpt lat="41.42504" lon="2.00589">
        <ele>99</ele>
        <time>2021-04-11 10:50:04</time>
      </trkpt>
      <trkpt lat="41.42495" lon="2.00594">
        <ele>99</ele>
        <time>2021-04-11 10:50:05</time>
      </trkpt>
      <trkpt lat="41.42487" lon="2.00598">
        <ele>99.2</ele>
        <time>2021-04-11 10:50:06</time>
      </trkpt>
      <trkpt lat="41.42477" lon="2.00604">
        <ele>99.4</ele>
        <time>2021-04-11 10:50:07</time>
      </trkpt>
      <trkpt lat="41.42468" lon="2.00609">
        <ele>99.6</ele>
        <time>2021-04-11 10:50:08</time>
      </trkpt>
      <trkpt lat="41.42459" lon="2.00614">
        <ele>99.8</ele>
        <time>2021-04-11 10:50:09</time>
      </trkpt>
      <trkpt lat="41.4245" lon="2.00619">
        <ele>100</ele>
        <time>2021-04-11 10:50:10</time>
      </trkpt>
      <trkpt lat="41.4244" lon="2.00623">
        <ele>100.2</ele>
        <time>2021-04-11 10:50:11</time>
      </trkpt>
      <trkpt lat="41.4243" lon="2.00628">
        <ele>100.4</ele>
        <time>2021-04-11 10:50:12</time>
      </trkpt>
      <trkpt lat="41.42421" lon="2.00633">
        <ele>100.8</ele>
        <time>2021-04-11 10:50:13</time>
      </trkpt>
      <trkpt lat="41.42412" lon="2.00638">
        <ele>101</ele>
        <time>2021-04-11 10:50:14</time>
      </trkpt>
      <trkpt lat="41.42403" lon="2.00643">
        <ele>101.4</ele>
        <time>2021-04-11 10:50:15</time>
      </trkpt>
      <trkpt lat="41.42395" lon="2.00649">
        <ele>101.6</ele>
        <time>2021-04-11 10:50:16</time>
      </trkpt>
      <trkpt lat="41.42386" lon="2.00655">
        <ele>101.8</ele>
        <time>2021-04-11 10:50:17</time>
      </trkpt>
      <trkpt lat="41.42379" lon="2.00661">
        <ele>102</ele>
        <time>2021-04-11 10:50:18</time>
      </trkpt>
      <trkpt lat="41.4237" lon="2.00668">
        <ele>102.4</ele>
        <time>2021-04-11 10:50:19</time>
      </trkpt>
      <trkpt lat="41.42362" lon="2.00675">
        <ele>102.6</ele>
        <time>2021-04-11 10:50:20</time>
      </trkpt>
      <trkpt lat="41.42354" lon="2.00682">
        <ele>103</ele>
        <time>2021-04-11 10:50:21</time>
      </trkpt>
      <trkpt lat="41.42346" lon="2.00688">
        <ele>103</ele>
        <time>2021-04-11 10:50:22</time>
      </trkpt>
      <trkpt lat="41.42338" lon="2.00694">
        <ele>103.2</ele>
        <time>2021-04-11 10:50:23</time>
      </trkpt>
      <trkpt lat="41.4233" lon="2.007">
        <ele>103.4</ele>
        <time>2021-04-11 10:50:24</time>
      </trkpt>
      <trkpt lat="41.42323" lon="2.00705">
        <ele>103.6</ele>
        <time>2021-04-11 10:50:25</time>
      </trkpt>
      <trkpt lat="41.42314" lon="2.0071">
        <ele>103.8</ele>
        <time>2021-04-11 10:50:26</time>
      </trkpt>
      <trkpt lat="41.42305" lon="2.00715">
        <ele>104</ele>
        <time>2021-04-11 10:50:27</time>
      </trkpt>
      <trkpt lat="41.42297" lon="2.00721">
        <ele>104</ele>
        <time>2021-04-11 10:50:28</time>
      </trkpt>
      <trkpt lat="41.42289" lon="2.00727">
        <ele>104.2</ele>
        <time>2021-04-11 10:50:29</time>
      </trkpt>
      <trkpt lat="41.42281" lon="2.00734">
        <ele>104.2</ele>
        <time>2021-04-11 10:50:30</time>
      </trkpt>
      <trkpt lat="41.42273" lon="2.00742">
        <ele>104.2</ele>
        <time>2021-04-11 10:50:31</time>
      </trkpt>
      <trkpt lat="41.42264" lon="2.00749">
        <ele>104.4</ele>
        <time>2021-04-11 10:50:32</time>
      </trkpt>
      <trkpt lat="41.42254" lon="2.00755">
        <ele>104.4</ele>
        <time>2021-04-11 10:50:33</time>
      </trkpt>
      <trkpt lat="41.42246" lon="2.00762">
        <ele>104.4</ele>
        <time>2021-04-11 10:50:34</time>
      </trkpt>
      <trkpt lat="41.42237" lon="2.00771">
        <ele>104.4</ele>
        <time>2021-04-11 10:50:35</time>
      </trkpt>
      <trkpt lat="41.42228" lon="2.00777">
        <ele>104.4</ele>
        <time>2021-04-11 10:50:36</time>
      </trkpt>
      <trkpt lat="41.42219" lon="2.00781">
        <ele>104.4</ele>
        <time>2021-04-11 10:50:37</time>
      </trkpt>
      <trkpt lat="41.42211" lon="2.00787">
        <ele>104.4</ele>
        <time>2021-04-11 10:50:38</time>
      </trkpt>
      <trkpt lat="41.42204" lon="2.00795">
        <ele>104.4</ele>
        <time>2021-04-11 10:50:39</time>
      </trkpt>
      <trkpt lat="41.42197" lon="2.00803">
        <ele>104.4</ele>
        <time>2021-04-11 10:50:40</time>
      </trkpt>
      <trkpt lat="41.42191" lon="2.00811">
        <ele>104.6</ele>
        <time>2021-04-11 10:50:41</time>
      </trkpt>
      <trkpt lat="41.42185" lon="2.0082">
        <ele>104.6</ele>
        <time>2021-04-11 10:50:42</time>
      </trkpt>
      <trkpt lat="41.4218" lon="2.0083">
        <ele>104.6</ele>
        <time>2021-04-11 10:50:43</time>
      </trkpt>
      <trkpt lat="41.42175" lon="2.00839">
        <ele>104.4</ele>
        <time>2021-04-11 10:50:44</time>
      </trkpt>
      <trkpt lat="41.4217" lon="2.00848">
        <ele>104.2</ele>
        <time>2021-04-11 10:50:45</time>
      </trkpt>
      <trkpt lat="41.42165" lon="2.00858">
        <ele>103.8</ele>
        <time>2021-04-11 10:50:46</time>
      </trkpt>
      <trkpt lat="41.42159" lon="2.00869">
        <ele>103.4</ele>
        <time>2021-04-11 10:50:47</time>
      </trkpt>
      <trkpt lat="41.42153" lon="2.0088">
        <ele>102.8</ele>
        <time>2021-04-11 10:50:48</time>
      </trkpt>
      <trkpt lat="41.42146" lon="2.0089">
        <ele>102.2</ele>
        <time>2021-04-11 10:50:49</time>
      </trkpt>
      <trkpt lat="41.4214" lon="2.00901">
        <ele>101.4</ele>
        <time>2021-04-11 10:50:50</time>
      </trkpt>
      <trkpt lat="41.42133" lon="2.00913">
        <ele>100.6</ele>
        <time>2021-04-11 10:50:51</time>
      </trkpt>
      <trkpt lat="41.42126" lon="2.00926">
        <ele>99.8</ele>
        <time>2021-04-11 10:50:52</time>
      </trkpt>
      <trkpt lat="41.42118" lon="2.00938">
        <ele>99</ele>
        <time>2021-04-11 10:50:53</time>
      </trkpt>
      <trkpt lat="41.42113" lon="2.0095">
        <ele>98.2</ele>
        <time>2021-04-11 10:50:54</time>
      </trkpt>
      <trkpt lat="41.42107" lon="2.00963">
        <ele>97.6</ele>
        <time>2021-04-11 10:50:55</time>
      </trkpt>
      <trkpt lat="41.42102" lon="2.00976">
        <ele>97</ele>
        <time>2021-04-11 10:50:56</time>
      </trkpt>
      <trkpt lat="41.42096" lon="2.00988">
        <ele>96.4</ele>
        <time>2021-04-11 10:50:57</time>
      </trkpt>
      <trkpt lat="41.42092" lon="2.01">
        <ele>96</ele>
        <time>2021-04-11 10:50:58</time>
      </trkpt>
      <trkpt lat="41.42087" lon="2.01012">
        <ele>95.6</ele>
        <time>2021-04-11 10:50:59</time>
      </trkpt>
      <trkpt lat="41.42082" lon="2.01024">
        <ele>95.4</ele>
        <time>2021-04-11 10:51:00</time>
      </trkpt>
      <trkpt lat="41.42077" lon="2.01036">
        <ele>95.4</ele>
        <time>2021-04-11 10:51:01</time>
      </trkpt>
      <trkpt lat="41.42071" lon="2.01046">
        <ele>95.4</ele>
        <time>2021-04-11 10:51:02</time>
      </trkpt>
      <trkpt lat="41.42067" lon="2.01057">
        <ele>95.4</ele>
        <time>2021-04-11 10:51:03</time>
      </trkpt>
      <trkpt lat="41.42063" lon="2.01067">
        <ele>95.4</ele>
        <time>2021-04-11 10:51:04</time>
      </trkpt>
      <trkpt lat="41.42059" lon="2.01078">
        <ele>95.6</ele>
        <time>2021-04-11 10:51:05</time>
      </trkpt>
      <trkpt lat="41.42055" lon="2.01088">
        <ele>95.6</ele>
        <time>2021-04-11 10:51:06</time>
      </trkpt>
      <trkpt lat="41.4205" lon="2.01098">
        <ele>95.8</ele>
        <time>2021-04-11 10:51:07</time>
      </trkpt>
      <trkpt lat="41.42046" lon="2.0111">
        <ele>95.8</ele>
        <time>2021-04-11 10:51:08</time>
      </trkpt>
      <trkpt lat="41.42041" lon="2.01121">
        <ele>95.8</ele>
        <time>2021-04-11 10:51:09</time>
      </trkpt>
      <trkpt lat="41.42037" lon="2.01131">
        <ele>95.8</ele>
        <time>2021-04-11 10:51:10</time>
      </trkpt>
      <trkpt lat="41.42033" lon="2.01141">
        <ele>95.8</ele>
        <time>2021-04-11 10:51:11</time>
      </trkpt>
      <trkpt lat="41.42028" lon="2.01151">
        <ele>96</ele>
        <time>2021-04-11 10:51:12</time>
      </trkpt>
      <trkpt lat="41.42024" lon="2.0116">
        <ele>96.2</ele>
        <time>2021-04-11 10:51:13</time>
      </trkpt>
      <trkpt lat="41.4202" lon="2.0117">
        <ele>96.4</ele>
        <time>2021-04-11 10:51:14</time>
      </trkpt>
      <trkpt lat="41.42016" lon="2.01179">
        <ele>96.6</ele>
        <time>2021-04-11 10:51:15</time>
      </trkpt>
      <trkpt lat="41.42012" lon="2.01189">
        <ele>96.8</ele>
        <time>2021-04-11 10:51:16</time>
      </trkpt>
      <trkpt lat="41.42008" lon="2.01198">
        <ele>97</ele>
        <time>2021-04-11 10:51:17</time>
      </trkpt>
      <trkpt lat="41.42004" lon="2.01208">
        <ele>97.2</ele>
        <time>2021-04-11 10:51:18</time>
      </trkpt>
      <trkpt lat="41.42" lon="2.01217">
        <ele>97.4</ele>
        <time>2021-04-11 10:51:19</time>
      </trkpt>
      <trkpt lat="41.41996" lon="2.01226">
        <ele>97.4</ele>
        <time>2021-04-11 10:51:20</time>
      </trkpt>
      <trkpt lat="41.41991" lon="2.01236">
        <ele>97.6</ele>
        <time>2021-04-11 10:51:21</time>
      </trkpt>
      <trkpt lat="41.41987" lon="2.01244">
        <ele>97.8</ele>
        <time>2021-04-11 10:51:22</time>
      </trkpt>
      <trkpt lat="41.41982" lon="2.01253">
        <ele>97.8</ele>
        <time>2021-04-11 10:51:23</time>
      </trkpt>
      <trkpt lat="41.41976" lon="2.01261">
        <ele>97.8</ele>
        <time>2021-04-11 10:51:24</time>
      </trkpt>
      <trkpt lat="41.41971" lon="2.01268">
        <ele>98</ele>
        <time>2021-04-11 10:51:25</time>
      </trkpt>
      <trkpt lat="41.41966" lon="2.01275">
        <ele>98.2</ele>
        <time>2021-04-11 10:51:26</time>
      </trkpt>
      <trkpt lat="41.4196" lon="2.01282">
        <ele>98.2</ele>
        <time>2021-04-11 10:51:27</time>
      </trkpt>
      <trkpt lat="41.41954" lon="2.01288">
        <ele>98.4</ele>
        <time>2021-04-11 10:51:28</time>
      </trkpt>
      <trkpt lat="41.41949" lon="2.01294">
        <ele>98.4</ele>
        <time>2021-04-11 10:51:29</time>
      </trkpt>
      <trkpt lat="41.41944" lon="2.013">
        <ele>98.4</ele>
        <time>2021-04-11 10:51:30</time>
      </trkpt>
      <trkpt lat="41.41938" lon="2.01306">
        <ele>98.4</ele>
        <time>2021-04-11 10:51:31</time>
      </trkpt>
      <trkpt lat="41.41932" lon="2.01312">
        <ele>98.4</ele>
        <time>2021-04-11 10:51:32</time>
      </trkpt>
      <trkpt lat="41.41926" lon="2.01317">
        <ele>98.2</ele>
        <time>2021-04-11 10:51:33</time>
      </trkpt>
      <trkpt lat="41.4192" lon="2.01321">
        <ele>98.2</ele>
        <time>2021-04-11 10:51:34</time>
      </trkpt>
      <trkpt lat="41.41914" lon="2.01325">
        <ele>98.2</ele>
        <time>2021-04-11 10:51:35</time>
      </trkpt>
      <trkpt lat="41.41908" lon="2.0133">
        <ele>98.2</ele>
        <time>2021-04-11 10:51:36</time>
      </trkpt>
      <trkpt lat="41.41902" lon="2.01335">
        <ele>98</ele>
        <time>2021-04-11 10:51:37</time>
      </trkpt>
      <trkpt lat="41.41896" lon="2.01339">
        <ele>98</ele>
        <time>2021-04-11 10:51:38</time>
      </trkpt>
      <trkpt lat="41.4189" lon="2.01343">
        <ele>97.8</ele>
        <time>2021-04-11 10:51:39</time>
      </trkpt>
      <trkpt lat="41.41885" lon="2.01347">
        <ele>97.8</ele>
        <time>2021-04-11 10:51:40</time>
      </trkpt>
      <trkpt lat="41.41879" lon="2.01351">
        <ele>97.6</ele>
        <time>2021-04-11 10:51:41</time>
      </trkpt>
      <trkpt lat="41.41875" lon="2.01355">
        <ele>97.6</ele>
        <time>2021-04-11 10:51:42</time>
      </trkpt>
      <trkpt lat="41.41869" lon="2.01359">
        <ele>97.4</ele>
        <time>2021-04-11 10:51:43</time>
      </trkpt>
      <trkpt lat="41.41865" lon="2.01362">
        <ele>97.4</ele>
        <time>2021-04-11 10:51:44</time>
      </trkpt>
      <trkpt lat="41.4186" lon="2.01364">
        <ele>97.2</ele>
        <time>2021-04-11 10:51:45</time>
      </trkpt>
      <trkpt lat="41.41856" lon="2.01367">
        <ele>97.2</ele>
        <time>2021-04-11 10:51:46</time>
      </trkpt>
      <trkpt lat="41.41853" lon="2.01369">
        <ele>97.4</ele>
        <time>2021-04-11 10:51:47</time>
      </trkpt>
      <trkpt lat="41.4185" lon="2.0137">
        <ele>97.4</ele>
        <time>2021-04-11 10:51:48</time>
      </trkpt>
      <trkpt lat="41.41849" lon="2.01372">
        <ele>97.2</ele>
        <time>2021-04-11 10:51:49</time>
      </trkpt>
      <trkpt lat="41.41847" lon="2.01373">
        <ele>97.2</ele>
        <time>2021-04-11 10:51:50</time>
      </trkpt>
      <trkpt lat="41.41845" lon="2.01375">
        <ele>97.2</ele>
        <time>2021-04-11 10:51:51</time>
      </trkpt>
      <trkpt lat="41.41845" lon="2.01376">
        <ele>97.2</ele>
        <time>2021-04-11 10:51:52</time>
      </trkpt>
      <trkpt lat="41.41843" lon="2.01378">
        <ele>97.2</ele>
        <time>2021-04-11 10:51:53</time>
      </trkpt>
      <trkpt lat="41.41842" lon="2.0138">
        <ele>97.2</ele>
        <time>2021-04-11 10:51:54</time>
      </trkpt>
      <trkpt lat="41.4184" lon="2.01381">
        <ele>97.2</ele>
        <time>2021-04-11 10:51:55</time>
      </trkpt>
      <trkpt lat="41.41839" lon="2.01383">
        <ele>97.2</ele>
        <time>2021-04-11 10:51:56</time>
      </trkpt>
      <trkpt lat="41.41831" lon="2.01391">
        <ele>97</ele>
        <time>2021-04-11 10:52:35</time>
      </trkpt>
      <trkpt lat="41.41829" lon="2.01393">
        <ele>97</ele>
        <time>2021-04-11 10:52:36</time>
      </trkpt>
      <trkpt lat="41.41827" lon="2.01395">
        <ele>97</ele>
        <time>2021-04-11 10:52:37</time>
      </trkpt>
      <trkpt lat="41.41824" lon="2.01398">
        <ele>97</ele>
        <time>2021-04-11 10:52:38</time>
      </trkpt>
      <trkpt lat="41.41822" lon="2.01401">
        <ele>97</ele>
        <time>2021-04-11 10:52:39</time>
      </trkpt>
      <trkpt lat="41.41819" lon="2.01405">
        <ele>96.8</ele>
        <time>2021-04-11 10:52:40</time>
      </trkpt>
      <trkpt lat="41.41816" lon="2.01408">
        <ele>96.8</ele>
        <time>2021-04-11 10:52:41</time>
      </trkpt>
      <trkpt lat="41.41812" lon="2.01411">
        <ele>96.6</ele>
        <time>2021-04-11 10:52:42</time>
      </trkpt>
      <trkpt lat="41.41808" lon="2.01415">
        <ele>96.4</ele>
        <time>2021-04-11 10:52:43</time>
      </trkpt>
      <trkpt lat="41.41804" lon="2.01419">
        <ele>96.4</ele>
        <time>2021-04-11 10:52:44</time>
      </trkpt>
      <trkpt lat="41.41799" lon="2.01422">
        <ele>96.4</ele>
        <time>2021-04-11 10:52:45</time>
      </trkpt>
      <trkpt lat="41.41794" lon="2.01427">
        <ele>96.2</ele>
        <time>2021-04-11 10:52:46</time>
      </trkpt>
      <trkpt lat="41.4179" lon="2.01432">
        <ele>96.2</ele>
        <time>2021-04-11 10:52:47</time>
      </trkpt>
      <trkpt lat="41.41785" lon="2.01436">
        <ele>96.2</ele>
        <time>2021-04-11 10:52:48</time>
      </trkpt>
      <trkpt lat="41.41779" lon="2.0144">
        <ele>96.2</ele>
        <time>2021-04-11 10:52:49</time>
      </trkpt>
      <trkpt lat="41.41774" lon="2.01445">
        <ele>96.2</ele>
        <time>2021-04-11 10:52:50</time>
      </trkpt>
      <trkpt lat="41.41767" lon="2.01449">
        <ele>96</ele>
        <time>2021-04-11 10:52:51</time>
      </trkpt>
      <trkpt lat="41.41762" lon="2.01453">
        <ele>96</ele>
        <time>2021-04-11 10:52:52</time>
      </trkpt>
      <trkpt lat="41.41755" lon="2.01457">
        <ele>96</ele>
        <time>2021-04-11 10:52:53</time>
      </trkpt>
      <trkpt lat="41.41749" lon="2.01461">
        <ele>96</ele>
        <time>2021-04-11 10:52:54</time>
      </trkpt>
      <trkpt lat="41.41742" lon="2.01463">
        <ele>96</ele>
        <time>2021-04-11 10:52:55</time>
      </trkpt>
      <trkpt lat="41.41735" lon="2.01465">
        <ele>96</ele>
        <time>2021-04-11 10:52:56</time>
      </trkpt>
      <trkpt lat="41.41728" lon="2.01466">
        <ele>95.8</ele>
        <time>2021-04-11 10:52:57</time>
      </trkpt>
      <trkpt lat="41.41721" lon="2.01467">
        <ele>95.8</ele>
        <time>2021-04-11 10:52:58</time>
      </trkpt>
      <trkpt lat="41.41714" lon="2.01468">
        <ele>95.8</ele>
        <time>2021-04-11 10:52:59</time>
      </trkpt>
      <trkpt lat="41.41707" lon="2.0147">
        <ele>95.6</ele>
        <time>2021-04-11 10:53:00</time>
      </trkpt>
      <trkpt lat="41.417" lon="2.01471">
        <ele>95.8</ele>
        <time>2021-04-11 10:53:01</time>
      </trkpt>
      <trkpt lat="41.41694" lon="2.01472">
        <ele>95.8</ele>
        <time>2021-04-11 10:53:02</time>
      </trkpt>
      <trkpt lat="41.41687" lon="2.01474">
        <ele>95.8</ele>
        <time>2021-04-11 10:53:03</time>
      </trkpt>
      <trkpt lat="41.4168" lon="2.01474">
        <ele>95.6</ele>
        <time>2021-04-11 10:53:04</time>
      </trkpt>
      <trkpt lat="41.41673" lon="2.01476">
        <ele>95.6</ele>
        <time>2021-04-11 10:53:05</time>
      </trkpt>
      <trkpt lat="41.41666" lon="2.01478">
        <ele>95.6</ele>
        <time>2021-04-11 10:53:06</time>
      </trkpt>
      <trkpt lat="41.41659" lon="2.01479">
        <ele>95.6</ele>
        <time>2021-04-11 10:53:07</time>
      </trkpt>
      <trkpt lat="41.41653" lon="2.01481">
        <ele>95.6</ele>
        <time>2021-04-11 10:53:08</time>
      </trkpt>
      <trkpt lat="41.41646" lon="2.01482">
        <ele>95.6</ele>
        <time>2021-04-11 10:53:09</time>
      </trkpt>
      <trkpt lat="41.41639" lon="2.01484">
        <ele>95.6</ele>
        <time>2021-04-11 10:53:10</time>
      </trkpt>
      <trkpt lat="41.41632" lon="2.01485">
        <ele>95.6</ele>
        <time>2021-04-11 10:53:11</time>
      </trkpt>
      <trkpt lat="41.41625" lon="2.01487">
        <ele>95.6</ele>
        <time>2021-04-11 10:53:12</time>
      </trkpt>
      <trkpt lat="41.41618" lon="2.0149">
        <ele>95.8</ele>
        <time>2021-04-11 10:53:13</time>
      </trkpt>
      <trkpt lat="41.41612" lon="2.01493">
        <ele>95.8</ele>
        <time>2021-04-11 10:53:14</time>
      </trkpt>
      <trkpt lat="41.41606" lon="2.01496">
        <ele>95.8</ele>
        <time>2021-04-11 10:53:15</time>
      </trkpt>
      <trkpt lat="41.41599" lon="2.015">
        <ele>95.8</ele>
        <time>2021-04-11 10:53:16</time>
      </trkpt>
      <trkpt lat="41.41593" lon="2.01504">
        <ele>95.8</ele>
        <time>2021-04-11 10:53:17</time>
      </trkpt>
      <trkpt lat="41.41587" lon="2.01507">
        <ele>95.8</ele>
        <time>2021-04-11 10:53:18</time>
      </trkpt>
      <trkpt lat="41.41581" lon="2.01511">
        <ele>96</ele>
        <time>2021-04-11 10:53:19</time>
      </trkpt>
      <trkpt lat="41.41575" lon="2.01515">
        <ele>96</ele>
        <time>2021-04-11 10:53:20</time>
      </trkpt>
      <trkpt lat="41.41569" lon="2.01519">
        <ele>96.2</ele>
        <time>2021-04-11 10:53:21</time>
      </trkpt>
      <trkpt lat="41.41563" lon="2.01524">
        <ele>96.2</ele>
        <time>2021-04-11 10:53:22</time>
      </trkpt>
      <trkpt lat="41.41558" lon="2.01528">
        <ele>96.2</ele>
        <time>2021-04-11 10:53:23</time>
      </trkpt>
      <trkpt lat="41.41553" lon="2.01532">
        <ele>96.4</ele>
        <time>2021-04-11 10:53:24</time>
      </trkpt>
      <trkpt lat="41.41547" lon="2.01536">
        <ele>96.6</ele>
        <time>2021-04-11 10:53:25</time>
      </trkpt>
      <trkpt lat="41.41542" lon="2.0154">
        <ele>96.8</ele>
        <time>2021-04-11 10:53:26</time>
      </trkpt>
      <trkpt lat="41.41537" lon="2.01544">
        <ele>97</ele>
        <time>2021-04-11 10:53:27</time>
      </trkpt>
      <trkpt lat="41.41532" lon="2.01548">
        <ele>97</ele>
        <time>2021-04-11 10:53:28</time>
      </trkpt>
      <trkpt lat="41.41527" lon="2.01552">
        <ele>97.2</ele>
        <time>2021-04-11 10:53:29</time>
      </trkpt>
      <trkpt lat="41.41522" lon="2.01556">
        <ele>97.4</ele>
        <time>2021-04-11 10:53:30</time>
      </trkpt>
      <trkpt lat="41.41518" lon="2.0156">
        <ele>97.4</ele>
        <time>2021-04-11 10:53:31</time>
      </trkpt>
      <trkpt lat="41.41514" lon="2.01564">
        <ele>97.6</ele>
        <time>2021-04-11 10:53:32</time>
      </trkpt>
      <trkpt lat="41.41509" lon="2.01568">
        <ele>97.6</ele>
        <time>2021-04-11 10:53:33</time>
      </trkpt>
      <trkpt lat="41.41505" lon="2.01571">
        <ele>97.8</ele>
        <time>2021-04-11 10:53:34</time>
      </trkpt>
      <trkpt lat="41.41501" lon="2.01574">
        <ele>97.8</ele>
        <time>2021-04-11 10:53:35</time>
      </trkpt>
      <trkpt lat="41.41498" lon="2.01578">
        <ele>97.8</ele>
        <time>2021-04-11 10:53:36</time>
      </trkpt>
      <trkpt lat="41.41494" lon="2.01581">
        <ele>97.8</ele>
        <time>2021-04-11 10:53:37</time>
      </trkpt>
      <trkpt lat="41.41489" lon="2.01583">
        <ele>97.8</ele>
        <time>2021-04-11 10:53:38</time>
      </trkpt>
      <trkpt lat="41.41484" lon="2.01585">
        <ele>97.6</ele>
        <time>2021-04-11 10:53:39</time>
      </trkpt>
      <trkpt lat="41.41479" lon="2.01586">
        <ele>97.6</ele>
        <time>2021-04-11 10:53:40</time>
      </trkpt>
      <trkpt lat="41.41473" lon="2.01587">
        <ele>97.8</ele>
        <time>2021-04-11 10:53:41</time>
      </trkpt>
      <trkpt lat="41.41469" lon="2.01588">
        <ele>98</ele>
        <time>2021-04-11 10:53:42</time>
      </trkpt>
      <trkpt lat="41.41465" lon="2.01589">
        <ele>98</ele>
        <time>2021-04-11 10:53:43</time>
      </trkpt>
      <trkpt lat="41.41462" lon="2.01588">
        <ele>98.2</ele>
        <time>2021-04-11 10:53:44</time>
      </trkpt>
      <trkpt lat="41.4146" lon="2.01587">
        <ele>98.2</ele>
        <time>2021-04-11 10:53:45</time>
      </trkpt>
      <trkpt lat="41.41457" lon="2.01583">
        <ele>98.2</ele>
        <time>2021-04-11 10:53:46</time>
      </trkpt>
      <trkpt lat="41.41456" lon="2.01579">
        <ele>98.2</ele>
        <time>2021-04-11 10:53:47</time>
      </trkpt>
      <trkpt lat="41.41456" lon="2.01573">
        <ele>98.2</ele>
        <time>2021-04-11 10:53:48</time>
      </trkpt>
      <trkpt lat="41.41456" lon="2.01567">
        <ele>98.2</ele>
        <time>2021-04-11 10:53:49</time>
      </trkpt>
      <trkpt lat="41.41456" lon="2.01562">
        <ele>98.2</ele>
        <time>2021-04-11 10:53:50</time>
      </trkpt>
      <trkpt lat="41.41456" lon="2.01556">
        <ele>98</ele>
        <time>2021-04-11 10:53:51</time>
      </trkpt>
      <trkpt lat="41.41456" lon="2.0155">
        <ele>98</ele>
        <time>2021-04-11 10:53:52</time>
      </trkpt>
      <trkpt lat="41.41457" lon="2.01543">
        <ele>98</ele>
        <time>2021-04-11 10:53:53</time>
      </trkpt>
      <trkpt lat="41.41459" lon="2.01537">
        <ele>98</ele>
        <time>2021-04-11 10:53:54</time>
      </trkpt>
      <trkpt lat="41.41459" lon="2.0153">
        <ele>98</ele>
        <time>2021-04-11 10:53:55</time>
      </trkpt>
      <trkpt lat="41.41459" lon="2.01524">
        <ele>98</ele>
        <time>2021-04-11 10:53:56</time>
      </trkpt>
      <trkpt lat="41.41457" lon="2.01517">
        <ele>98</ele>
        <time>2021-04-11 10:53:57</time>
      </trkpt>
      <trkpt lat="41.41457" lon="2.01511">
        <ele>98</ele>
        <time>2021-04-11 10:53:58</time>
      </trkpt>
      <trkpt lat="41.41456" lon="2.01504">
        <ele>97.8</ele>
        <time>2021-04-11 10:53:59</time>
      </trkpt>
      <trkpt lat="41.41455" lon="2.01497">
        <ele>97.8</ele>
        <time>2021-04-11 10:54:00</time>
      </trkpt>
      <trkpt lat="41.41454" lon="2.01489">
        <ele>97.6</ele>
        <time>2021-04-11 10:54:01</time>
      </trkpt>
      <trkpt lat="41.41453" lon="2.01482">
        <ele>97.4</ele>
        <time>2021-04-11 10:54:02</time>
      </trkpt>
      <trkpt lat="41.41452" lon="2.01474">
        <ele>97.2</ele>
        <time>2021-04-11 10:54:03</time>
      </trkpt>
      <trkpt lat="41.41452" lon="2.01466">
        <ele>97.2</ele>
        <time>2021-04-11 10:54:04</time>
      </trkpt>
      <trkpt lat="41.41452" lon="2.01459">
        <ele>97.2</ele>
        <time>2021-04-11 10:54:05</time>
      </trkpt>
      <trkpt lat="41.41451" lon="2.0145">
        <ele>97.2</ele>
        <time>2021-04-11 10:54:06</time>
      </trkpt>
      <trkpt lat="41.41451" lon="2.01442">
        <ele>97.2</ele>
        <time>2021-04-11 10:54:07</time>
      </trkpt>
      <trkpt lat="41.4145" lon="2.01434">
        <ele>97.2</ele>
        <time>2021-04-11 10:54:08</time>
      </trkpt>
      <trkpt lat="41.4145" lon="2.01425">
        <ele>97.2</ele>
        <time>2021-04-11 10:54:09</time>
      </trkpt>
      <trkpt lat="41.41449" lon="2.01417">
        <ele>97</ele>
        <time>2021-04-11 10:54:10</time>
      </trkpt>
      <trkpt lat="41.41449" lon="2.01408">
        <ele>97</ele>
        <time>2021-04-11 10:54:11</time>
      </trkpt>
      <trkpt lat="41.41449" lon="2.014">
        <ele>97</ele>
        <time>2021-04-11 10:54:12</time>
      </trkpt>
      <trkpt lat="41.4145" lon="2.01393">
        <ele>97.2</ele>
        <time>2021-04-11 10:54:13</time>
      </trkpt>
      <trkpt lat="41.4145" lon="2.01387">
        <ele>97.2</ele>
        <time>2021-04-11 10:54:14</time>
      </trkpt>
      <trkpt lat="41.4145" lon="2.01382">
        <ele>97.2</ele>
        <time>2021-04-11 10:54:15</time>
      </trkpt>
      <trkpt lat="41.4145" lon="2.01377">
        <ele>97.2</ele>
        <time>2021-04-11 10:54:16</time>
      </trkpt>
      <trkpt lat="41.4145" lon="2.01371">
        <ele>97.2</ele>
        <time>2021-04-11 10:54:17</time>
      </trkpt>
      <trkpt lat="41.4145" lon="2.01366">
        <ele>97.2</ele>
        <time>2021-04-11 10:54:18</time>
      </trkpt>
      <trkpt lat="41.41449" lon="2.01361">
        <ele>97.2</ele>
        <time>2021-04-11 10:54:19</time>
      </trkpt>
      <trkpt lat="41.41448" lon="2.01356">
        <ele>97.4</ele>
        <time>2021-04-11 10:54:20</time>
      </trkpt>
      <trkpt lat="41.41445" lon="2.01351">
        <ele>97.4</ele>
        <time>2021-04-11 10:54:21</time>
      </trkpt>
      <trkpt lat="41.41442" lon="2.01347">
        <ele>97.2</ele>
        <time>2021-04-11 10:54:22</time>
      </trkpt>
      <trkpt lat="41.41439" lon="2.01345">
        <ele>97</ele>
        <time>2021-04-11 10:54:23</time>
      </trkpt>
      <trkpt lat="41.41434" lon="2.01343">
        <ele>96.8</ele>
        <time>2021-04-11 10:54:24</time>
      </trkpt>
      <trkpt lat="41.41428" lon="2.01343">
        <ele>96.6</ele>
        <time>2021-04-11 10:54:25</time>
      </trkpt>
      <trkpt lat="41.41421" lon="2.01342">
        <ele>96.4</ele>
        <time>2021-04-11 10:54:26</time>
      </trkpt>
      <trkpt lat="41.41415" lon="2.01342">
        <ele>96</ele>
        <time>2021-04-11 10:54:27</time>
      </trkpt>
      <trkpt lat="41.41407" lon="2.01342">
        <ele>95.8</ele>
        <time>2021-04-11 10:54:28</time>
      </trkpt>
      <trkpt lat="41.414" lon="2.01342">
        <ele>95.6</ele>
        <time>2021-04-11 10:54:29</time>
      </trkpt>
      <trkpt lat="41.41393" lon="2.01346">
        <ele>95.4</ele>
        <time>2021-04-11 10:54:30</time>
      </trkpt>
      <trkpt lat="41.41385" lon="2.0135">
        <ele>95.2</ele>
        <time>2021-04-11 10:54:31</time>
      </trkpt>
      <trkpt lat="41.41378" lon="2.01354">
        <ele>95.2</ele>
        <time>2021-04-11 10:54:32</time>
      </trkpt>
      <trkpt lat="41.41371" lon="2.01359">
        <ele>95</ele>
        <time>2021-04-11 10:54:33</time>
      </trkpt>
      <trkpt lat="41.41363" lon="2.01365">
        <ele>95</ele>
        <time>2021-04-11 10:54:34</time>
      </trkpt>
      <trkpt lat="41.41357" lon="2.0137">
        <ele>95</ele>
        <time>2021-04-11 10:54:35</time>
      </trkpt>
      <trkpt lat="41.41351" lon="2.01376">
        <ele>95.2</ele>
        <time>2021-04-11 10:54:36</time>
      </trkpt>
      <trkpt lat="41.41345" lon="2.01383">
        <ele>95.2</ele>
        <time>2021-04-11 10:54:37</time>
      </trkpt>
      <trkpt lat="41.41338" lon="2.01389">
        <ele>95</ele>
        <time>2021-04-11 10:54:38</time>
      </trkpt>
      <trkpt lat="41.41332" lon="2.01395">
        <ele>95</ele>
        <time>2021-04-11 10:54:39</time>
      </trkpt>
      <trkpt lat="41.41325" lon="2.01402">
        <ele>94.8</ele>
        <time>2021-04-11 10:54:40</time>
      </trkpt>
      <trkpt lat="41.41317" lon="2.01408">
        <ele>94.8</ele>
        <time>2021-04-11 10:54:41</time>
      </trkpt>
      <trkpt lat="41.41311" lon="2.01414">
        <ele>94.8</ele>
        <time>2021-04-11 10:54:42</time>
      </trkpt>
      <trkpt lat="41.41303" lon="2.0142">
        <ele>94.8</ele>
        <time>2021-04-11 10:54:43</time>
      </trkpt>
      <trkpt lat="41.41297" lon="2.01426">
        <ele>94.8</ele>
        <time>2021-04-11 10:54:44</time>
      </trkpt>
      <trkpt lat="41.4129" lon="2.01431">
        <ele>94.6</ele>
        <time>2021-04-11 10:54:45</time>
      </trkpt>
      <trkpt lat="41.41283" lon="2.01437">
        <ele>94.6</ele>
        <time>2021-04-11 10:54:46</time>
      </trkpt>
      <trkpt lat="41.41277" lon="2.01442">
        <ele>94.6</ele>
        <time>2021-04-11 10:54:47</time>
      </trkpt>
      <trkpt lat="41.41271" lon="2.01448">
        <ele>94.8</ele>
        <time>2021-04-11 10:54:48</time>
      </trkpt>
      <trkpt lat="41.41266" lon="2.01453">
        <ele>94.8</ele>
        <time>2021-04-11 10:54:49</time>
      </trkpt>
      <trkpt lat="41.4126" lon="2.01458">
        <ele>95</ele>
        <time>2021-04-11 10:54:50</time>
      </trkpt>
      <trkpt lat="41.41255" lon="2.01464">
        <ele>95</ele>
        <time>2021-04-11 10:54:51</time>
      </trkpt>
      <trkpt lat="41.4125" lon="2.01469">
        <ele>95.2</ele>
        <time>2021-04-11 10:54:52</time>
      </trkpt>
      <trkpt lat="41.41245" lon="2.01474">
        <ele>95.2</ele>
        <time>2021-04-11 10:54:53</time>
      </trkpt>
      <trkpt lat="41.4124" lon="2.01479">
        <ele>95.2</ele>
        <time>2021-04-11 10:54:54</time>
      </trkpt>
      <trkpt lat="41.41235" lon="2.01484">
        <ele>95.2</ele>
        <time>2021-04-11 10:54:55</time>
      </trkpt>
      <trkpt lat="41.4123" lon="2.01489">
        <ele>95.2</ele>
        <time>2021-04-11 10:54:56</time>
      </trkpt>
      <trkpt lat="41.41225" lon="2.01495">
        <ele>95.2</ele>
        <time>2021-04-11 10:54:57</time>
      </trkpt>
      <trkpt lat="41.4122" lon="2.015">
        <ele>95.4</ele>
        <time>2021-04-11 10:54:58</time>
      </trkpt>
      <trkpt lat="41.41214" lon="2.01505">
        <ele>95.4</ele>
        <time>2021-04-11 10:54:59</time>
      </trkpt>
      <trkpt lat="41.41208" lon="2.0151">
        <ele>95.4</ele>
        <time>2021-04-11 10:55:00</time>
      </trkpt>
      <trkpt lat="41.41203" lon="2.01514">
        <ele>95.2</ele>
        <time>2021-04-11 10:55:01</time>
      </trkpt>
      <trkpt lat="41.41198" lon="2.01519">
        <ele>95.2</ele>
        <time>2021-04-11 10:55:02</time>
      </trkpt>
      <trkpt lat="41.41193" lon="2.01524">
        <ele>95.2</ele>
        <time>2021-04-11 10:55:03</time>
      </trkpt>
      <trkpt lat="41.41187" lon="2.01529">
        <ele>95.2</ele>
        <time>2021-04-11 10:55:04</time>
      </trkpt>
      <trkpt lat="41.41181" lon="2.01534">
        <ele>95.4</ele>
        <time>2021-04-11 10:55:05</time>
      </trkpt>
      <trkpt lat="41.41175" lon="2.01539">
        <ele>95.4</ele>
        <time>2021-04-11 10:55:06</time>
      </trkpt>
      <trkpt lat="41.41169" lon="2.01545">
        <ele>95.4</ele>
        <time>2021-04-11 10:55:07</time>
      </trkpt>
      <trkpt lat="41.41164" lon="2.0155">
        <ele>95.6</ele>
        <time>2021-04-11 10:55:08</time>
      </trkpt>
      <trkpt lat="41.41158" lon="2.01556">
        <ele>95.6</ele>
        <time>2021-04-11 10:55:09</time>
      </trkpt>
      <trkpt lat="41.41152" lon="2.01562">
        <ele>95.6</ele>
        <time>2021-04-11 10:55:10</time>
      </trkpt>
      <trkpt lat="41.41146" lon="2.01568">
        <ele>95.6</ele>
        <time>2021-04-11 10:55:11</time>
      </trkpt>
      <trkpt lat="41.4114" lon="2.01574">
        <ele>95.6</ele>
        <time>2021-04-11 10:55:12</time>
      </trkpt>
      <trkpt lat="41.41135" lon="2.0158">
        <ele>95.6</ele>
        <time>2021-04-11 10:55:13</time>
      </trkpt>
      <trkpt lat="41.4113" lon="2.01585">
        <ele>95.4</ele>
        <time>2021-04-11 10:55:14</time>
      </trkpt>
      <trkpt lat="41.41123" lon="2.01591">
        <ele>95.4</ele>
        <time>2021-04-11 10:55:15</time>
      </trkpt>
      <trkpt lat="41.41118" lon="2.01596">
        <ele>95.4</ele>
        <time>2021-04-11 10:55:16</time>
      </trkpt>
      <trkpt lat="41.41113" lon="2.01601">
        <ele>95.4</ele>
        <time>2021-04-11 10:55:17</time>
      </trkpt>
      <trkpt lat="41.41108" lon="2.01606">
        <ele>95.4</ele>
        <time>2021-04-11 10:55:18</time>
      </trkpt>
      <trkpt lat="41.41103" lon="2.01611">
        <ele>95.4</ele>
        <time>2021-04-11 10:55:19</time>
      </trkpt>
      <trkpt lat="41.41098" lon="2.01615">
        <ele>95.6</ele>
        <time>2021-04-11 10:55:20</time>
      </trkpt>
      <trkpt lat="41.41095" lon="2.0162">
        <ele>95.6</ele>
        <time>2021-04-11 10:55:21</time>
      </trkpt>
      <trkpt lat="41.41091" lon="2.01623">
        <ele>95.6</ele>
        <time>2021-04-11 10:55:22</time>
      </trkpt>
      <trkpt lat="41.41087" lon="2.01626">
        <ele>95.6</ele>
        <time>2021-04-11 10:55:23</time>
      </trkpt>
      <trkpt lat="41.41083" lon="2.0163">
        <ele>95.6</ele>
        <time>2021-04-11 10:55:24</time>
      </trkpt>
      <trkpt lat="41.41078" lon="2.01634">
        <ele>95.6</ele>
        <time>2021-04-11 10:55:25</time>
      </trkpt>
      <trkpt lat="41.41073" lon="2.01638">
        <ele>95.8</ele>
        <time>2021-04-11 10:55:26</time>
      </trkpt>
      <trkpt lat="41.41069" lon="2.01642">
        <ele>95.8</ele>
        <time>2021-04-11 10:55:27</time>
      </trkpt>
      <trkpt lat="41.41065" lon="2.01646">
        <ele>95.8</ele>
        <time>2021-04-11 10:55:28</time>
      </trkpt>
      <trkpt lat="41.41061" lon="2.01649">
        <ele>95.8</ele>
        <time>2021-04-11 10:55:29</time>
      </trkpt>
      <trkpt lat="41.41057" lon="2.01653">
        <ele>96</ele>
        <time>2021-04-11 10:55:30</time>
      </trkpt>
      <trkpt lat="41.41053" lon="2.01657">
        <ele>96</ele>
        <time>2021-04-11 10:55:31</time>
      </trkpt>
      <trkpt lat="41.4105" lon="2.01661">
        <ele>96</ele>
        <time>2021-04-11 10:55:32</time>
      </trkpt>
      <trkpt lat="41.41046" lon="2.01664">
        <ele>96</ele>
        <time>2021-04-11 10:55:33</time>
      </trkpt>
      <trkpt lat="41.41044" lon="2.01667">
        <ele>96.2</ele>
        <time>2021-04-11 10:55:34</time>
      </trkpt>
      <trkpt lat="41.41041" lon="2.01671">
        <ele>96.2</ele>
        <time>2021-04-11 10:55:35</time>
      </trkpt>
      <trkpt lat="41.41038" lon="2.01674">
        <ele>96.2</ele>
        <time>2021-04-11 10:55:36</time>
      </trkpt>
      <trkpt lat="41.41034" lon="2.01676">
        <ele>96.2</ele>
        <time>2021-04-11 10:55:37</time>
      </trkpt>
      <trkpt lat="41.41031" lon="2.01677">
        <ele>96.2</ele>
        <time>2021-04-11 10:55:38</time>
      </trkpt>
      <trkpt lat="41.41028" lon="2.01681">
        <ele>96.2</ele>
        <time>2021-04-11 10:55:39</time>
      </trkpt>
      <trkpt lat="41.41026" lon="2.01683">
        <ele>96.4</ele>
        <time>2021-04-11 10:55:40</time>
      </trkpt>
      <trkpt lat="41.41025" lon="2.01686">
        <ele>96.4</ele>
        <time>2021-04-11 10:55:41</time>
      </trkpt>
      <trkpt lat="41.41023" lon="2.01688">
        <ele>96.4</ele>
        <time>2021-04-11 10:55:42</time>
      </trkpt>
      <trkpt lat="41.41022" lon="2.0169">
        <ele>96.4</ele>
        <time>2021-04-11 10:55:43</time>
      </trkpt>
      <trkpt lat="41.41016" lon="2.01694">
        <ele>96.4</ele>
        <time>2021-04-11 10:56:00</time>
      </trkpt>
      <trkpt lat="41.41013" lon="2.01696">
        <ele>96.4</ele>
        <time>2021-04-11 10:56:01</time>
      </trkpt>
      <trkpt lat="41.4101" lon="2.01698">
        <ele>96.4</ele>
        <time>2021-04-11 10:56:02</time>
      </trkpt>
      <trkpt lat="41.41006" lon="2.01701">
        <ele>96.4</ele>
        <time>2021-04-11 10:56:03</time>
      </trkpt>
      <trkpt lat="41.41003" lon="2.01703">
        <ele>96.4</ele>
        <time>2021-04-11 10:56:04</time>
      </trkpt>
      <trkpt lat="41.41" lon="2.01706">
        <ele>96.2</ele>
        <time>2021-04-11 10:56:05</time>
      </trkpt>
      <trkpt lat="41.40996" lon="2.01709">
        <ele>96.2</ele>
        <time>2021-04-11 10:56:06</time>
      </trkpt>
      <trkpt lat="41.40993" lon="2.01712">
        <ele>96</ele>
        <time>2021-04-11 10:56:07</time>
      </trkpt>
      <trkpt lat="41.40988" lon="2.01714">
        <ele>95.8</ele>
        <time>2021-04-11 10:56:08</time>
      </trkpt>
      <trkpt lat="41.40982" lon="2.01717">
        <ele>95.6</ele>
        <time>2021-04-11 10:56:09</time>
      </trkpt>
      <trkpt lat="41.40976" lon="2.01721">
        <ele>95.4</ele>
        <time>2021-04-11 10:56:10</time>
      </trkpt>
      <trkpt lat="41.40971" lon="2.01725">
        <ele>95</ele>
        <time>2021-04-11 10:56:11</time>
      </trkpt>
      <trkpt lat="41.40968" lon="2.0173">
        <ele>94.8</ele>
        <time>2021-04-11 10:56:12</time>
      </trkpt>
      <trkpt lat="41.40965" lon="2.01733">
        <ele>94.8</ele>
        <time>2021-04-11 10:56:13</time>
      </trkpt>
      <trkpt lat="41.40961" lon="2.01737">
        <ele>94.8</ele>
        <time>2021-04-11 10:56:14</time>
      </trkpt>
      <trkpt lat="41.40958" lon="2.01741">
        <ele>94.6</ele>
        <time>2021-04-11 10:56:15</time>
      </trkpt>
      <trkpt lat="41.40953" lon="2.01746">
        <ele>94.6</ele>
        <time>2021-04-11 10:56:16</time>
      </trkpt>
      <trkpt lat="41.40949" lon="2.0175">
        <ele>94.6</ele>
        <time>2021-04-11 10:56:17</time>
      </trkpt>
      <trkpt lat="41.40945" lon="2.01755">
        <ele>94.6</ele>
        <time>2021-04-11 10:56:18</time>
      </trkpt>
      <trkpt lat="41.4094" lon="2.0176">
        <ele>94.6</ele>
        <time>2021-04-11 10:56:19</time>
      </trkpt>
      <trkpt lat="41.40936" lon="2.01764">
        <ele>94.6</ele>
        <time>2021-04-11 10:56:20</time>
      </trkpt>
      <trkpt lat="41.40931" lon="2.01767">
        <ele>94.6</ele>
        <time>2021-04-11 10:56:21</time>
      </trkpt>
      <trkpt lat="41.40926" lon="2.01772">
        <ele>94.6</ele>
        <time>2021-04-11 10:56:22</time>
      </trkpt>
      <trkpt lat="41.40921" lon="2.01775">
        <ele>94.6</ele>
        <time>2021-04-11 10:56:23</time>
      </trkpt>
      <trkpt lat="41.40915" lon="2.01779">
        <ele>94.6</ele>
        <time>2021-04-11 10:56:24</time>
      </trkpt>
      <trkpt lat="41.4091" lon="2.01782">
        <ele>94.6</ele>
        <time>2021-04-11 10:56:25</time>
      </trkpt>
      <trkpt lat="41.40905" lon="2.01785">
        <ele>94.6</ele>
        <time>2021-04-11 10:56:26</time>
      </trkpt>
      <trkpt lat="41.409" lon="2.01789">
        <ele>94.6</ele>
        <time>2021-04-11 10:56:27</time>
      </trkpt>
      <trkpt lat="41.40895" lon="2.01794">
        <ele>94.4</ele>
        <time>2021-04-11 10:56:28</time>
      </trkpt>
      <trkpt lat="41.40889" lon="2.01797">
        <ele>94.4</ele>
        <time>2021-04-11 10:56:29</time>
      </trkpt>
      <trkpt lat="41.40884" lon="2.01801">
        <ele>94.4</ele>
        <time>2021-04-11 10:56:30</time>
      </trkpt>
      <trkpt lat="41.40878" lon="2.01805">
        <ele>94.4</ele>
        <time>2021-04-11 10:56:31</time>
      </trkpt>
      <trkpt lat="41.40873" lon="2.01809">
        <ele>94.4</ele>
        <time>2021-04-11 10:56:32</time>
      </trkpt>
      <trkpt lat="41.40867" lon="2.01813">
        <ele>94.4</ele>
        <time>2021-04-11 10:56:33</time>
      </trkpt>
      <trkpt lat="41.40861" lon="2.01818">
        <ele>94.4</ele>
        <time>2021-04-11 10:56:34</time>
      </trkpt>
      <trkpt lat="41.40856" lon="2.01822">
        <ele>94.4</ele>
        <time>2021-04-11 10:56:35</time>
      </trkpt>
      <trkpt lat="41.4085" lon="2.01826">
        <ele>94.4</ele>
        <time>2021-04-11 10:56:36</time>
      </trkpt>
      <trkpt lat="41.40844" lon="2.01831">
        <ele>94.4</ele>
        <time>2021-04-11 10:56:37</time>
      </trkpt>
      <trkpt lat="41.40838" lon="2.01835">
        <ele>94.4</ele>
        <time>2021-04-11 10:56:38</time>
      </trkpt>
      <trkpt lat="41.40831" lon="2.01838">
        <ele>94.4</ele>
        <time>2021-04-11 10:56:39</time>
      </trkpt>
      <trkpt lat="41.40824" lon="2.01843">
        <ele>94.4</ele>
        <time>2021-04-11 10:56:40</time>
      </trkpt>
      <trkpt lat="41.40815" lon="2.01849">
        <ele>94.4</ele>
        <time>2021-04-11 10:56:41</time>
      </trkpt>
      <trkpt lat="41.40808" lon="2.01854">
        <ele>94.4</ele>
        <time>2021-04-11 10:56:42</time>
      </trkpt>
      <trkpt lat="41.40801" lon="2.01857">
        <ele>94.4</ele>
        <time>2021-04-11 10:56:43</time>
      </trkpt>
      <trkpt lat="41.40794" lon="2.01861">
        <ele>94.2</ele>
        <time>2021-04-11 10:56:44</time>
      </trkpt>
      <trkpt lat="41.40785" lon="2.01865">
        <ele>94.2</ele>
        <time>2021-04-11 10:56:45</time>
      </trkpt>
      <trkpt lat="41.40777" lon="2.01868">
        <ele>94.2</ele>
        <time>2021-04-11 10:56:46</time>
      </trkpt>
      <trkpt lat="41.40769" lon="2.0187">
        <ele>94</ele>
        <time>2021-04-11 10:56:47</time>
      </trkpt>
      <trkpt lat="41.40762" lon="2.01874">
        <ele>94</ele>
        <time>2021-04-11 10:56:48</time>
      </trkpt>
      <trkpt lat="41.40756" lon="2.01877">
        <ele>93.8</ele>
        <time>2021-04-11 10:56:49</time>
      </trkpt>
      <trkpt lat="41.40749" lon="2.0188">
        <ele>93.8</ele>
        <time>2021-04-11 10:56:50</time>
      </trkpt>
      <trkpt lat="41.40743" lon="2.01883">
        <ele>93.6</ele>
        <time>2021-04-11 10:56:51</time>
      </trkpt>
      <trkpt lat="41.40738" lon="2.01885">
        <ele>93.6</ele>
        <time>2021-04-11 10:56:52</time>
      </trkpt>
      <trkpt lat="41.40731" lon="2.01888">
        <ele>93.6</ele>
        <time>2021-04-11 10:56:53</time>
      </trkpt>
      <trkpt lat="41.40725" lon="2.0189">
        <ele>93.6</ele>
        <time>2021-04-11 10:56:54</time>
      </trkpt>
      <trkpt lat="41.4072" lon="2.01893">
        <ele>93.6</ele>
        <time>2021-04-11 10:56:55</time>
      </trkpt>
      <trkpt lat="41.40714" lon="2.01897">
        <ele>93.6</ele>
        <time>2021-04-11 10:56:56</time>
      </trkpt>
      <trkpt lat="41.40709" lon="2.019">
        <ele>93.6</ele>
        <time>2021-04-11 10:56:57</time>
      </trkpt>
      <trkpt lat="41.40703" lon="2.01904">
        <ele>93.6</ele>
        <time>2021-04-11 10:56:58</time>
      </trkpt>
      <trkpt lat="41.40697" lon="2.01907">
        <ele>93.6</ele>
        <time>2021-04-11 10:56:59</time>
      </trkpt>
      <trkpt lat="41.40692" lon="2.01911">
        <ele>93.6</ele>
        <time>2021-04-11 10:57:00</time>
      </trkpt>
      <trkpt lat="41.40686" lon="2.01915">
        <ele>93.6</ele>
        <time>2021-04-11 10:57:01</time>
      </trkpt>
      <trkpt lat="41.4068" lon="2.01919">
        <ele>93.4</ele>
        <time>2021-04-11 10:57:02</time>
      </trkpt>
      <trkpt lat="41.40673" lon="2.01922">
        <ele>93.4</ele>
        <time>2021-04-11 10:57:03</time>
      </trkpt>
      <trkpt lat="41.40667" lon="2.01925">
        <ele>93.4</ele>
        <time>2021-04-11 10:57:04</time>
      </trkpt>
      <trkpt lat="41.4066" lon="2.01928">
        <ele>93.6</ele>
        <time>2021-04-11 10:57:05</time>
      </trkpt>
      <trkpt lat="41.40653" lon="2.0193">
        <ele>93.6</ele>
        <time>2021-04-11 10:57:06</time>
      </trkpt>
      <trkpt lat="41.40646" lon="2.01932">
        <ele>93.6</ele>
        <time>2021-04-11 10:57:07</time>
      </trkpt>
      <trkpt lat="41.40638" lon="2.01934">
        <ele>93.6</ele>
        <time>2021-04-11 10:57:08</time>
      </trkpt>
      <trkpt lat="41.40631" lon="2.01936">
        <ele>93.6</ele>
        <time>2021-04-11 10:57:09</time>
      </trkpt>
      <trkpt lat="41.40624" lon="2.01939">
        <ele>93.6</ele>
        <time>2021-04-11 10:57:10</time>
      </trkpt>
      <trkpt lat="41.40617" lon="2.01941">
        <ele>93.6</ele>
        <time>2021-04-11 10:57:11</time>
      </trkpt>
      <trkpt lat="41.40611" lon="2.01943">
        <ele>93.6</ele>
        <time>2021-04-11 10:57:12</time>
      </trkpt>
      <trkpt lat="41.40604" lon="2.01946">
        <ele>93.6</ele>
        <time>2021-04-11 10:57:13</time>
      </trkpt>
      <trkpt lat="41.40597" lon="2.01948">
        <ele>93.6</ele>
        <time>2021-04-11 10:57:14</time>
      </trkpt>
      <trkpt lat="41.40591" lon="2.0195">
        <ele>93.6</ele>
        <time>2021-04-11 10:57:15</time>
      </trkpt>
      <trkpt lat="41.40584" lon="2.01953">
        <ele>93.6</ele>
        <time>2021-04-11 10:57:16</time>
      </trkpt>
      <trkpt lat="41.40577" lon="2.01954">
        <ele>93.6</ele>
        <time>2021-04-11 10:57:17</time>
      </trkpt>
      <trkpt lat="41.4057" lon="2.01957">
        <ele>93.4</ele>
        <time>2021-04-11 10:57:18</time>
      </trkpt>
      <trkpt lat="41.40562" lon="2.01958">
        <ele>93.4</ele>
        <time>2021-04-11 10:57:19</time>
      </trkpt>
      <trkpt lat="41.40556" lon="2.0196">
        <ele>93.4</ele>
        <time>2021-04-11 10:57:20</time>
      </trkpt>
      <trkpt lat="41.40548" lon="2.01962">
        <ele>93.4</ele>
        <time>2021-04-11 10:57:21</time>
      </trkpt>
      <trkpt lat="41.40542" lon="2.01964">
        <ele>93.4</ele>
        <time>2021-04-11 10:57:22</time>
      </trkpt>
      <trkpt lat="41.40535" lon="2.01966">
        <ele>93.4</ele>
        <time>2021-04-11 10:57:23</time>
      </trkpt>
      <trkpt lat="41.40529" lon="2.01967">
        <ele>93.4</ele>
        <time>2021-04-11 10:57:24</time>
      </trkpt>
      <trkpt lat="41.40522" lon="2.01969">
        <ele>93.4</ele>
        <time>2021-04-11 10:57:25</time>
      </trkpt>
      <trkpt lat="41.40516" lon="2.01971">
        <ele>93.4</ele>
        <time>2021-04-11 10:57:26</time>
      </trkpt>
      <trkpt lat="41.4051" lon="2.01974">
        <ele>93.4</ele>
        <time>2021-04-11 10:57:27</time>
      </trkpt>
      <trkpt lat="41.40503" lon="2.01976">
        <ele>93.4</ele>
        <time>2021-04-11 10:57:28</time>
      </trkpt>
      <trkpt lat="41.40496" lon="2.01978">
        <ele>93.4</ele>
        <time>2021-04-11 10:57:29</time>
      </trkpt>
      <trkpt lat="41.40489" lon="2.01981">
        <ele>93.4</ele>
        <time>2021-04-11 10:57:30</time>
      </trkpt>
      <trkpt lat="41.40482" lon="2.01983">
        <ele>93.4</ele>
        <time>2021-04-11 10:57:31</time>
      </trkpt>
      <trkpt lat="41.40476" lon="2.01985">
        <ele>93.4</ele>
        <time>2021-04-11 10:57:32</time>
      </trkpt>
      <trkpt lat="41.40469" lon="2.01988">
        <ele>93.4</ele>
        <time>2021-04-11 10:57:33</time>
      </trkpt>
      <trkpt lat="41.40461" lon="2.01991">
        <ele>93.4</ele>
        <time>2021-04-11 10:57:34</time>
      </trkpt>
      <trkpt lat="41.40455" lon="2.01994">
        <ele>93.2</ele>
        <time>2021-04-11 10:57:35</time>
      </trkpt>
      <trkpt lat="41.40447" lon="2.01999">
        <ele>93.2</ele>
        <time>2021-04-11 10:57:36</time>
      </trkpt>
      <trkpt lat="41.4044" lon="2.02003">
        <ele>93.2</ele>
        <time>2021-04-11 10:57:37</time>
      </trkpt>
      <trkpt lat="41.40433" lon="2.0201">
        <ele>93.2</ele>
        <time>2021-04-11 10:57:38</time>
      </trkpt>
      <trkpt lat="41.40427" lon="2.02016">
        <ele>93</ele>
        <time>2021-04-11 10:57:39</time>
      </trkpt>
      <trkpt lat="41.40421" lon="2.02023">
        <ele>93</ele>
        <time>2021-04-11 10:57:40</time>
      </trkpt>
      <trkpt lat="41.40415" lon="2.02029">
        <ele>92.8</ele>
        <time>2021-04-11 10:57:41</time>
      </trkpt>
      <trkpt lat="41.40409" lon="2.02036">
        <ele>92.8</ele>
        <time>2021-04-11 10:57:42</time>
      </trkpt>
      <trkpt lat="41.40403" lon="2.02042">
        <ele>92.8</ele>
        <time>2021-04-11 10:57:43</time>
      </trkpt>
      <trkpt lat="41.40397" lon="2.02048">
        <ele>92.8</ele>
        <time>2021-04-11 10:57:44</time>
      </trkpt>
      <trkpt lat="41.40391" lon="2.02055">
        <ele>92.8</ele>
        <time>2021-04-11 10:57:45</time>
      </trkpt>
      <trkpt lat="41.40385" lon="2.02061">
        <ele>92.8</ele>
        <time>2021-04-11 10:57:46</time>
      </trkpt>
      <trkpt lat="41.40379" lon="2.02067">
        <ele>93</ele>
        <time>2021-04-11 10:57:47</time>
      </trkpt>
      <trkpt lat="41.40373" lon="2.02073">
        <ele>93</ele>
        <time>2021-04-11 10:57:48</time>
      </trkpt>
      <trkpt lat="41.40367" lon="2.02079">
        <ele>93</ele>
        <time>2021-04-11 10:57:49</time>
      </trkpt>
      <trkpt lat="41.40361" lon="2.02085">
        <ele>92.8</ele>
        <time>2021-04-11 10:57:50</time>
      </trkpt>
      <trkpt lat="41.40355" lon="2.02091">
        <ele>92.8</ele>
        <time>2021-04-11 10:57:51</time>
      </trkpt>
      <trkpt lat="41.40349" lon="2.02097">
        <ele>92.8</ele>
        <time>2021-04-11 10:57:52</time>
      </trkpt>
      <trkpt lat="41.40344" lon="2.02104">
        <ele>92.8</ele>
        <time>2021-04-11 10:57:53</time>
      </trkpt>
      <trkpt lat="41.40338" lon="2.02111">
        <ele>93</ele>
        <time>2021-04-11 10:57:54</time>
      </trkpt>
      <trkpt lat="41.40333" lon="2.02118">
        <ele>93</ele>
        <time>2021-04-11 10:57:55</time>
      </trkpt>
      <trkpt lat="41.40327" lon="2.02124">
        <ele>93</ele>
        <time>2021-04-11 10:57:56</time>
      </trkpt>
      <trkpt lat="41.40321" lon="2.02131">
        <ele>93.2</ele>
        <time>2021-04-11 10:57:57</time>
      </trkpt>
      <trkpt lat="41.40316" lon="2.02138">
        <ele>93.2</ele>
        <time>2021-04-11 10:57:58</time>
      </trkpt>
      <trkpt lat="41.40309" lon="2.02144">
        <ele>93.2</ele>
        <time>2021-04-11 10:57:59</time>
      </trkpt>
      <trkpt lat="41.40304" lon="2.02151">
        <ele>93.2</ele>
        <time>2021-04-11 10:58:00</time>
      </trkpt>
      <trkpt lat="41.40298" lon="2.02157">
        <ele>93.2</ele>
        <time>2021-04-11 10:58:01</time>
      </trkpt>
      <trkpt lat="41.40292" lon="2.02163">
        <ele>93.2</ele>
        <time>2021-04-11 10:58:02</time>
      </trkpt>
      <trkpt lat="41.40286" lon="2.0217">
        <ele>93.2</ele>
        <time>2021-04-11 10:58:03</time>
      </trkpt>
      <trkpt lat="41.4028" lon="2.02177">
        <ele>93.2</ele>
        <time>2021-04-11 10:58:04</time>
      </trkpt>
      <trkpt lat="41.40274" lon="2.02183">
        <ele>93.4</ele>
        <time>2021-04-11 10:58:05</time>
      </trkpt>
      <trkpt lat="41.40268" lon="2.0219">
        <ele>93.4</ele>
        <time>2021-04-11 10:58:06</time>
      </trkpt>
      <trkpt lat="41.40263" lon="2.02197">
        <ele>93.4</ele>
        <time>2021-04-11 10:58:07</time>
      </trkpt>
      <trkpt lat="41.40257" lon="2.02204">
        <ele>93.4</ele>
        <time>2021-04-11 10:58:08</time>
      </trkpt>
      <trkpt lat="41.40251" lon="2.0221">
        <ele>93.4</ele>
        <time>2021-04-11 10:58:09</time>
      </trkpt>
      <trkpt lat="41.40245" lon="2.02217">
        <ele>93.4</ele>
        <time>2021-04-11 10:58:10</time>
      </trkpt>
      <trkpt lat="41.40239" lon="2.02224">
        <ele>93.4</ele>
        <time>2021-04-11 10:58:11</time>
      </trkpt>
      <trkpt lat="41.40234" lon="2.02231">
        <ele>93.4</ele>
        <time>2021-04-11 10:58:12</time>
      </trkpt>
      <trkpt lat="41.40227" lon="2.02238">
        <ele>93.6</ele>
        <time>2021-04-11 10:58:13</time>
      </trkpt>
      <trkpt lat="41.40222" lon="2.02245">
        <ele>93.6</ele>
        <time>2021-04-11 10:58:14</time>
      </trkpt>
      <trkpt lat="41.40216" lon="2.02251">
        <ele>93.6</ele>
        <time>2021-04-11 10:58:15</time>
      </trkpt>
      <trkpt lat="41.4021" lon="2.02258">
        <ele>93.6</ele>
        <time>2021-04-11 10:58:16</time>
      </trkpt>
      <trkpt lat="41.40205" lon="2.02265">
        <ele>93.6</ele>
        <time>2021-04-11 10:58:17</time>
      </trkpt>
      <trkpt lat="41.40198" lon="2.02272">
        <ele>93.6</ele>
        <time>2021-04-11 10:58:18</time>
      </trkpt>
      <trkpt lat="41.40192" lon="2.02278">
        <ele>93.6</ele>
        <time>2021-04-11 10:58:19</time>
      </trkpt>
      <trkpt lat="41.40185" lon="2.02284">
        <ele>93.6</ele>
        <time>2021-04-11 10:58:20</time>
      </trkpt>
      <trkpt lat="41.40179" lon="2.02291">
        <ele>93.6</ele>
        <time>2021-04-11 10:58:21</time>
      </trkpt>
      <trkpt lat="41.40173" lon="2.02298">
        <ele>93.6</ele>
        <time>2021-04-11 10:58:22</time>
      </trkpt>
      <trkpt lat="41.40167" lon="2.02305">
        <ele>93.6</ele>
        <time>2021-04-11 10:58:23</time>
      </trkpt>
      <trkpt lat="41.40161" lon="2.02311">
        <ele>93.6</ele>
        <time>2021-04-11 10:58:24</time>
      </trkpt>
      <trkpt lat="41.40155" lon="2.02318">
        <ele>93.6</ele>
        <time>2021-04-11 10:58:25</time>
      </trkpt>
      <trkpt lat="41.4015" lon="2.02325">
        <ele>93.6</ele>
        <time>2021-04-11 10:58:26</time>
      </trkpt>
      <trkpt lat="41.40144" lon="2.02332">
        <ele>93.6</ele>
        <time>2021-04-11 10:58:27</time>
      </trkpt>
      <trkpt lat="41.40138" lon="2.02339">
        <ele>93.6</ele>
        <time>2021-04-11 10:58:28</time>
      </trkpt>
      <trkpt lat="41.40132" lon="2.02346">
        <ele>93.6</ele>
        <time>2021-04-11 10:58:29</time>
      </trkpt>
      <trkpt lat="41.40126" lon="2.02353">
        <ele>93.6</ele>
        <time>2021-04-11 10:58:30</time>
      </trkpt>
      <trkpt lat="41.4012" lon="2.02359">
        <ele>93.6</ele>
        <time>2021-04-11 10:58:31</time>
      </trkpt>
      <trkpt lat="41.40114" lon="2.02367">
        <ele>93.8</ele>
        <time>2021-04-11 10:58:32</time>
      </trkpt>
      <trkpt lat="41.40107" lon="2.02374">
        <ele>93.8</ele>
        <time>2021-04-11 10:58:33</time>
      </trkpt>
      <trkpt lat="41.40101" lon="2.02381">
        <ele>93.8</ele>
        <time>2021-04-11 10:58:34</time>
      </trkpt>
      <trkpt lat="41.40094" lon="2.02388">
        <ele>93.8</ele>
        <time>2021-04-11 10:58:35</time>
      </trkpt>
      <trkpt lat="41.40087" lon="2.02395">
        <ele>93.8</ele>
        <time>2021-04-11 10:58:36</time>
      </trkpt>
      <trkpt lat="41.4008" lon="2.02402">
        <ele>93.8</ele>
        <time>2021-04-11 10:58:37</time>
      </trkpt>
      <trkpt lat="41.40073" lon="2.02409">
        <ele>93.8</ele>
        <time>2021-04-11 10:58:38</time>
      </trkpt>
      <trkpt lat="41.40066" lon="2.02416">
        <ele>93.8</ele>
        <time>2021-04-11 10:58:39</time>
      </trkpt>
      <trkpt lat="41.4006" lon="2.02423">
        <ele>93.8</ele>
        <time>2021-04-11 10:58:40</time>
      </trkpt>
      <trkpt lat="41.40053" lon="2.02431">
        <ele>93.8</ele>
        <time>2021-04-11 10:58:41</time>
      </trkpt>
      <trkpt lat="41.40046" lon="2.02438">
        <ele>93.8</ele>
        <time>2021-04-11 10:58:42</time>
      </trkpt>
      <trkpt lat="41.4004" lon="2.02446">
        <ele>93.8</ele>
        <time>2021-04-11 10:58:43</time>
      </trkpt>
      <trkpt lat="41.40033" lon="2.02453">
        <ele>93.8</ele>
        <time>2021-04-11 10:58:44</time>
      </trkpt>
      <trkpt lat="41.40027" lon="2.02461">
        <ele>93.8</ele>
        <time>2021-04-11 10:58:45</time>
      </trkpt>
      <trkpt lat="41.4002" lon="2.02468">
        <ele>93.8</ele>
        <time>2021-04-11 10:58:46</time>
      </trkpt>
      <trkpt lat="41.40014" lon="2.02475">
        <ele>93.8</ele>
        <time>2021-04-11 10:58:47</time>
      </trkpt>
      <trkpt lat="41.40007" lon="2.02483">
        <ele>93.6</ele>
        <time>2021-04-11 10:58:48</time>
      </trkpt>
      <trkpt lat="41.4" lon="2.0249">
        <ele>93.6</ele>
        <time>2021-04-11 10:58:49</time>
      </trkpt>
      <trkpt lat="41.39994" lon="2.02496">
        <ele>93.6</ele>
        <time>2021-04-11 10:58:50</time>
      </trkpt>
      <trkpt lat="41.39988" lon="2.02503">
        <ele>93.6</ele>
        <time>2021-04-11 10:58:51</time>
      </trkpt>
      <trkpt lat="41.39981" lon="2.0251">
        <ele>93.6</ele>
        <time>2021-04-11 10:58:52</time>
      </trkpt>
      <trkpt lat="41.39975" lon="2.02518">
        <ele>93.8</ele>
        <time>2021-04-11 10:58:53</time>
      </trkpt>
      <trkpt lat="41.39968" lon="2.02525">
        <ele>93.8</ele>
        <time>2021-04-11 10:58:54</time>
      </trkpt>
      <trkpt lat="41.39961" lon="2.02532">
        <ele>93.8</ele>
        <time>2021-04-11 10:58:55</time>
      </trkpt>
      <trkpt lat="41.39954" lon="2.02539">
        <ele>93.8</ele>
        <time>2021-04-11 10:58:56</time>
      </trkpt>
      <trkpt lat="41.39948" lon="2.02546">
        <ele>93.8</ele>
        <time>2021-04-11 10:58:57</time>
      </trkpt>
      <trkpt lat="41.39941" lon="2.02553">
        <ele>93.8</ele>
        <time>2021-04-11 10:58:58</time>
      </trkpt>
      <trkpt lat="41.39934" lon="2.02561">
        <ele>94</ele>
        <time>2021-04-11 10:58:59</time>
      </trkpt>
      <trkpt lat="41.39927" lon="2.02568">
        <ele>94</ele>
        <time>2021-04-11 10:59:00</time>
      </trkpt>
      <trkpt lat="41.3992" lon="2.02576">
        <ele>94</ele>
        <time>2021-04-11 10:59:01</time>
      </trkpt>
      <trkpt lat="41.39914" lon="2.02583">
        <ele>94</ele>
        <time>2021-04-11 10:59:02</time>
      </trkpt>
      <trkpt lat="41.39907" lon="2.02591">
        <ele>94</ele>
        <time>2021-04-11 10:59:03</time>
      </trkpt>
      <trkpt lat="41.399" lon="2.02598">
        <ele>94</ele>
        <time>2021-04-11 10:59:04</time>
      </trkpt>
      <trkpt lat="41.39893" lon="2.02605">
        <ele>93.8</ele>
        <time>2021-04-11 10:59:05</time>
      </trkpt>
      <trkpt lat="41.39886" lon="2.02613">
        <ele>93.8</ele>
        <time>2021-04-11 10:59:06</time>
      </trkpt>
      <trkpt lat="41.3988" lon="2.0262">
        <ele>93.8</ele>
        <time>2021-04-11 10:59:07</time>
      </trkpt>
      <trkpt lat="41.39873" lon="2.02628">
        <ele>93.8</ele>
        <time>2021-04-11 10:59:08</time>
      </trkpt>
      <trkpt lat="41.39866" lon="2.02635">
        <ele>93.8</ele>
        <time>2021-04-11 10:59:09</time>
      </trkpt>
      <trkpt lat="41.3986" lon="2.02642">
        <ele>93.8</ele>
        <time>2021-04-11 10:59:10</time>
      </trkpt>
      <trkpt lat="41.39853" lon="2.02649">
        <ele>93.8</ele>
        <time>2021-04-11 10:59:11</time>
      </trkpt>
      <trkpt lat="41.39846" lon="2.02656">
        <ele>93.8</ele>
        <time>2021-04-11 10:59:12</time>
      </trkpt>
      <trkpt lat="41.3984" lon="2.02663">
        <ele>93.8</ele>
        <time>2021-04-11 10:59:13</time>
      </trkpt>
      <trkpt lat="41.39833" lon="2.0267">
        <ele>93.6</ele>
        <time>2021-04-11 10:59:14</time>
      </trkpt>
      <trkpt lat="41.39827" lon="2.02677">
        <ele>93.8</ele>
        <time>2021-04-11 10:59:15</time>
      </trkpt>
      <trkpt lat="41.3982" lon="2.02685">
        <ele>93.8</ele>
        <time>2021-04-11 10:59:16</time>
      </trkpt>
      <trkpt lat="41.39813" lon="2.02691">
        <ele>93.6</ele>
        <time>2021-04-11 10:59:17</time>
      </trkpt>
      <trkpt lat="41.39806" lon="2.02699">
        <ele>93.6</ele>
        <time>2021-04-11 10:59:18</time>
      </trkpt>
      <trkpt lat="41.398" lon="2.02706">
        <ele>93.6</ele>
        <time>2021-04-11 10:59:19</time>
      </trkpt>
      <trkpt lat="41.39793" lon="2.02713">
        <ele>93.6</ele>
        <time>2021-04-11 10:59:20</time>
      </trkpt>
      <trkpt lat="41.39786" lon="2.02721">
        <ele>93.6</ele>
        <time>2021-04-11 10:59:21</time>
      </trkpt>
      <trkpt lat="41.39779" lon="2.02728">
        <ele>93.6</ele>
        <time>2021-04-11 10:59:22</time>
      </trkpt>
      <trkpt lat="41.39773" lon="2.02735">
        <ele>93.6</ele>
        <time>2021-04-11 10:59:23</time>
      </trkpt>
      <trkpt lat="41.39766" lon="2.02742">
        <ele>93.6</ele>
        <time>2021-04-11 10:59:24</time>
      </trkpt>
      <trkpt lat="41.39759" lon="2.02749">
        <ele>93.6</ele>
        <time>2021-04-11 10:59:25</time>
      </trkpt>
      <trkpt lat="41.39752" lon="2.02757">
        <ele>93.6</ele>
        <time>2021-04-11 10:59:26</time>
      </trkpt>
      <trkpt lat="41.39745" lon="2.02764">
        <ele>93.8</ele>
        <time>2021-04-11 10:59:27</time>
      </trkpt>
      <trkpt lat="41.39739" lon="2.02771">
        <ele>93.8</ele>
        <time>2021-04-11 10:59:28</time>
      </trkpt>
      <trkpt lat="41.39732" lon="2.02779">
        <ele>93.8</ele>
        <time>2021-04-11 10:59:29</time>
      </trkpt>
      <trkpt lat="41.39725" lon="2.02786">
        <ele>93.6</ele>
        <time>2021-04-11 10:59:30</time>
      </trkpt>
      <trkpt lat="41.39718" lon="2.02794">
        <ele>93.6</ele>
        <time>2021-04-11 10:59:31</time>
      </trkpt>
      <trkpt lat="41.39711" lon="2.02801">
        <ele>93.6</ele>
        <time>2021-04-11 10:59:32</time>
      </trkpt>
      <trkpt lat="41.39704" lon="2.02809">
        <ele>93.6</ele>
        <time>2021-04-11 10:59:33</time>
      </trkpt>
      <trkpt lat="41.39697" lon="2.02816">
        <ele>93.6</ele>
        <time>2021-04-11 10:59:34</time>
      </trkpt>
      <trkpt lat="41.39691" lon="2.02824">
        <ele>93.8</ele>
        <time>2021-04-11 10:59:35</time>
      </trkpt>
      <trkpt lat="41.39683" lon="2.02832">
        <ele>93.8</ele>
        <time>2021-04-11 10:59:36</time>
      </trkpt>
      <trkpt lat="41.39677" lon="2.02839">
        <ele>93.8</ele>
        <time>2021-04-11 10:59:37</time>
      </trkpt>
      <trkpt lat="41.3967" lon="2.02847">
        <ele>93.8</ele>
        <time>2021-04-11 10:59:38</time>
      </trkpt>
      <trkpt lat="41.39663" lon="2.02854">
        <ele>93.8</ele>
        <time>2021-04-11 10:59:39</time>
      </trkpt>
      <trkpt lat="41.39656" lon="2.02862">
        <ele>93.8</ele>
        <time>2021-04-11 10:59:40</time>
      </trkpt>
      <trkpt lat="41.39649" lon="2.02869">
        <ele>93.6</ele>
        <time>2021-04-11 10:59:41</time>
      </trkpt>
      <trkpt lat="41.39642" lon="2.02876">
        <ele>93.8</ele>
        <time>2021-04-11 10:59:42</time>
      </trkpt>
      <trkpt lat="41.39635" lon="2.02884">
        <ele>93.6</ele>
        <time>2021-04-11 10:59:43</time>
      </trkpt>
      <trkpt lat="41.39629" lon="2.02891">
        <ele>93.6</ele>
        <time>2021-04-11 10:59:44</time>
      </trkpt>
      <trkpt lat="41.39622" lon="2.02898">
        <ele>93.6</ele>
        <time>2021-04-11 10:59:45</time>
      </trkpt>
      <trkpt lat="41.39614" lon="2.02906">
        <ele>93.6</ele>
        <time>2021-04-11 10:59:46</time>
      </trkpt>
      <trkpt lat="41.39608" lon="2.02913">
        <ele>93.6</ele>
        <time>2021-04-11 10:59:47</time>
      </trkpt>
      <trkpt lat="41.39601" lon="2.02921">
        <ele>93.8</ele>
        <time>2021-04-11 10:59:48</time>
      </trkpt>
      <trkpt lat="41.39594" lon="2.02928">
        <ele>93.6</ele>
        <time>2021-04-11 10:59:49</time>
      </trkpt>
      <trkpt lat="41.39587" lon="2.02936">
        <ele>93.6</ele>
        <time>2021-04-11 10:59:50</time>
      </trkpt>
      <trkpt lat="41.3958" lon="2.02943">
        <ele>93.6</ele>
        <time>2021-04-11 10:59:51</time>
      </trkpt>
      <trkpt lat="41.39573" lon="2.02951">
        <ele>93.6</ele>
        <time>2021-04-11 10:59:52</time>
      </trkpt>
      <trkpt lat="41.39566" lon="2.02958">
        <ele>93.6</ele>
        <time>2021-04-11 10:59:53</time>
      </trkpt>
      <trkpt lat="41.39559" lon="2.02965">
        <ele>93.6</ele>
        <time>2021-04-11 10:59:54</time>
      </trkpt>
      <trkpt lat="41.39552" lon="2.02971">
        <ele>93.6</ele>
        <time>2021-04-11 10:59:55</time>
      </trkpt>
      <trkpt lat="41.39545" lon="2.02976">
        <ele>93.6</ele>
        <time>2021-04-11 10:59:56</time>
      </trkpt>
      <trkpt lat="41.39539" lon="2.02981">
        <ele>93.6</ele>
        <time>2021-04-11 10:59:57</time>
      </trkpt>
      <trkpt lat="41.39531" lon="2.02981">
        <ele>93.6</ele>
        <time>2021-04-11 10:59:58</time>
      </trkpt>
      <trkpt lat="41.39524" lon="2.02978">
        <ele>93.8</ele>
        <time>2021-04-11 10:59:59</time>
      </trkpt>
      <trkpt lat="41.39518" lon="2.02973">
        <ele>93.8</ele>
        <time>2021-04-11 11:00:00</time>
      </trkpt>
      <trkpt lat="41.39511" lon="2.02969">
        <ele>93.8</ele>
        <time>2021-04-11 11:00:01</time>
      </trkpt>
      <trkpt lat="41.39504" lon="2.02966">
        <ele>93.8</ele>
        <time>2021-04-11 11:00:02</time>
      </trkpt>
      <trkpt lat="41.39496" lon="2.02966">
        <ele>93.8</ele>
        <time>2021-04-11 11:00:03</time>
      </trkpt>
      <trkpt lat="41.39489" lon="2.02969">
        <ele>93.8</ele>
        <time>2021-04-11 11:00:04</time>
      </trkpt>
      <trkpt lat="41.39482" lon="2.02974">
        <ele>93.8</ele>
        <time>2021-04-11 11:00:05</time>
      </trkpt>
      <trkpt lat="41.39478" lon="2.02983">
        <ele>93.8</ele>
        <time>2021-04-11 11:00:06</time>
      </trkpt>
      <trkpt lat="41.39475" lon="2.02993">
        <ele>93.8</ele>
        <time>2021-04-11 11:00:07</time>
      </trkpt>
      <trkpt lat="41.39472" lon="2.03003">
        <ele>93.8</ele>
        <time>2021-04-11 11:00:08</time>
      </trkpt>
      <trkpt lat="41.39469" lon="2.03013">
        <ele>93.8</ele>
        <time>2021-04-11 11:00:09</time>
      </trkpt>
      <trkpt lat="41.39465" lon="2.03022">
        <ele>93.8</ele>
        <time>2021-04-11 11:00:10</time>
      </trkpt>
      <trkpt lat="41.39459" lon="2.03031">
        <ele>93.6</ele>
        <time>2021-04-11 11:00:11</time>
      </trkpt>
      <trkpt lat="41.39453" lon="2.03037">
        <ele>93.6</ele>
        <time>2021-04-11 11:00:12</time>
      </trkpt>
      <trkpt lat="41.39445" lon="2.03043">
        <ele>93.4</ele>
        <time>2021-04-11 11:00:13</time>
      </trkpt>
      <trkpt lat="41.39437" lon="2.03048">
        <ele>93.4</ele>
        <time>2021-04-11 11:00:14</time>
      </trkpt>
      <trkpt lat="41.3943" lon="2.03053">
        <ele>93.4</ele>
        <time>2021-04-11 11:00:15</time>
      </trkpt>
      <trkpt lat="41.39422" lon="2.03057">
        <ele>93.4</ele>
        <time>2021-04-11 11:00:16</time>
      </trkpt>
      <trkpt lat="41.39414" lon="2.03061">
        <ele>93.4</ele>
        <time>2021-04-11 11:00:17</time>
      </trkpt>
      <trkpt lat="41.39406" lon="2.03066">
        <ele>93.2</ele>
        <time>2021-04-11 11:00:18</time>
      </trkpt>
      <trkpt lat="41.39398" lon="2.03071">
        <ele>93.2</ele>
        <time>2021-04-11 11:00:19</time>
      </trkpt>
      <trkpt lat="41.3939" lon="2.03075">
        <ele>93</ele>
        <time>2021-04-11 11:00:20</time>
      </trkpt>
      <trkpt lat="41.39382" lon="2.0308">
        <ele>93</ele>
        <time>2021-04-11 11:00:21</time>
      </trkpt>
      <trkpt lat="41.39372" lon="2.03084">
        <ele>92.8</ele>
        <time>2021-04-11 11:00:22</time>
      </trkpt>
      <trkpt lat="41.39363" lon="2.03088">
        <ele>92.8</ele>
        <time>2021-04-11 11:00:23</time>
      </trkpt>
      <trkpt lat="41.39355" lon="2.03092">
        <ele>92.8</ele>
        <time>2021-04-11 11:00:24</time>
      </trkpt>
      <trkpt lat="41.39347" lon="2.03097">
        <ele>92.6</ele>
        <time>2021-04-11 11:00:25</time>
      </trkpt>
      <trkpt lat="41.39339" lon="2.03102">
        <ele>92.6</ele>
        <time>2021-04-11 11:00:26</time>
      </trkpt>
      <trkpt lat="41.39331" lon="2.03107">
        <ele>92.6</ele>
        <time>2021-04-11 11:00:27</time>
      </trkpt>
      <trkpt lat="41.39323" lon="2.03112">
        <ele>92.6</ele>
        <time>2021-04-11 11:00:28</time>
      </trkpt>
      <trkpt lat="41.39315" lon="2.03116">
        <ele>92.6</ele>
        <time>2021-04-11 11:00:29</time>
      </trkpt>
      <trkpt lat="41.39307" lon="2.03121">
        <ele>92.6</ele>
        <time>2021-04-11 11:00:30</time>
      </trkpt>
      <trkpt lat="41.39299" lon="2.03126">
        <ele>92.6</ele>
        <time>2021-04-11 11:00:31</time>
      </trkpt>
      <trkpt lat="41.39292" lon="2.0313">
        <ele>92.6</ele>
        <time>2021-04-11 11:00:32</time>
      </trkpt>
      <trkpt lat="41.39283" lon="2.03135">
        <ele>92.6</ele>
        <time>2021-04-11 11:00:33</time>
      </trkpt>
      <trkpt lat="41.39275" lon="2.03139">
        <ele>92.6</ele>
        <time>2021-04-11 11:00:34</time>
      </trkpt>
      <trkpt lat="41.39267" lon="2.03144">
        <ele>92.6</ele>
        <time>2021-04-11 11:00:35</time>
      </trkpt>
      <trkpt lat="41.3926" lon="2.03149">
        <ele>92.6</ele>
        <time>2021-04-11 11:00:36</time>
      </trkpt>
      <trkpt lat="41.39252" lon="2.03153">
        <ele>92.6</ele>
        <time>2021-04-11 11:00:37</time>
      </trkpt>
      <trkpt lat="41.39244" lon="2.03158">
        <ele>92.6</ele>
        <time>2021-04-11 11:00:38</time>
      </trkpt>
      <trkpt lat="41.39237" lon="2.03163">
        <ele>92.6</ele>
        <time>2021-04-11 11:00:39</time>
      </trkpt>
      <trkpt lat="41.39229" lon="2.03169">
        <ele>92.6</ele>
        <time>2021-04-11 11:00:40</time>
      </trkpt>
      <trkpt lat="41.39221" lon="2.03174">
        <ele>92.8</ele>
        <time>2021-04-11 11:00:41</time>
      </trkpt>
      <trkpt lat="41.39213" lon="2.03179">
        <ele>92.8</ele>
        <time>2021-04-11 11:00:42</time>
      </trkpt>
      <trkpt lat="41.39205" lon="2.03184">
        <ele>92.6</ele>
        <time>2021-04-11 11:00:43</time>
      </trkpt>
      <trkpt lat="41.39197" lon="2.03189">
        <ele>92.8</ele>
        <time>2021-04-11 11:00:44</time>
      </trkpt>
      <trkpt lat="41.39189" lon="2.03193">
        <ele>92.8</ele>
        <time>2021-04-11 11:00:45</time>
      </trkpt>
      <trkpt lat="41.39181" lon="2.03199">
        <ele>92.8</ele>
        <time>2021-04-11 11:00:46</time>
      </trkpt>
      <trkpt lat="41.39173" lon="2.03204">
        <ele>92.8</ele>
        <time>2021-04-11 11:00:47</time>
      </trkpt>
      <trkpt lat="41.39165" lon="2.03209">
        <ele>92.8</ele>
        <time>2021-04-11 11:00:48</time>
      </trkpt>
      <trkpt lat="41.39157" lon="2.03213">
        <ele>92.8</ele>
        <time>2021-04-11 11:00:49</time>
      </trkpt>
      <trkpt lat="41.39149" lon="2.03218">
        <ele>92.8</ele>
        <time>2021-04-11 11:00:50</time>
      </trkpt>
      <trkpt lat="41.39141" lon="2.03223">
        <ele>92.8</ele>
        <time>2021-04-11 11:00:51</time>
      </trkpt>
      <trkpt lat="41.39131" lon="2.03228">
        <ele>93</ele>
        <time>2021-04-11 11:00:52</time>
      </trkpt>
      <trkpt lat="41.39123" lon="2.03233">
        <ele>93</ele>
        <time>2021-04-11 11:00:53</time>
      </trkpt>
      <trkpt lat="41.39115" lon="2.03237">
        <ele>93</ele>
        <time>2021-04-11 11:00:54</time>
      </trkpt>
      <trkpt lat="41.39107" lon="2.03241">
        <ele>93</ele>
        <time>2021-04-11 11:00:55</time>
      </trkpt>
      <trkpt lat="41.39099" lon="2.03245">
        <ele>93</ele>
        <time>2021-04-11 11:00:56</time>
      </trkpt>
      <trkpt lat="41.39092" lon="2.03249">
        <ele>93</ele>
        <time>2021-04-11 11:00:57</time>
      </trkpt>
      <trkpt lat="41.39083" lon="2.03254">
        <ele>93</ele>
        <time>2021-04-11 11:00:58</time>
      </trkpt>
      <trkpt lat="41.39076" lon="2.03259">
        <ele>93</ele>
        <time>2021-04-11 11:00:59</time>
      </trkpt>
      <trkpt lat="41.39068" lon="2.03263">
        <ele>93</ele>
        <time>2021-04-11 11:01:00</time>
      </trkpt>
      <trkpt lat="41.39059" lon="2.03268">
        <ele>93</ele>
        <time>2021-04-11 11:01:01</time>
      </trkpt>
      <trkpt lat="41.39052" lon="2.03272">
        <ele>93</ele>
        <time>2021-04-11 11:01:02</time>
      </trkpt>
      <trkpt lat="41.39043" lon="2.03278">
        <ele>93.2</ele>
        <time>2021-04-11 11:01:03</time>
      </trkpt>
      <trkpt lat="41.39036" lon="2.03282">
        <ele>93.2</ele>
        <time>2021-04-11 11:01:04</time>
      </trkpt>
      <trkpt lat="41.39028" lon="2.03287">
        <ele>93.2</ele>
        <time>2021-04-11 11:01:05</time>
      </trkpt>
      <trkpt lat="41.3902" lon="2.03292">
        <ele>93.2</ele>
        <time>2021-04-11 11:01:06</time>
      </trkpt>
      <trkpt lat="41.39012" lon="2.03296">
        <ele>93.2</ele>
        <time>2021-04-11 11:01:07</time>
      </trkpt>
      <trkpt lat="41.39004" lon="2.03301">
        <ele>93.2</ele>
        <time>2021-04-11 11:01:08</time>
      </trkpt>
      <trkpt lat="41.38996" lon="2.03306">
        <ele>93.2</ele>
        <time>2021-04-11 11:01:09</time>
      </trkpt>
      <trkpt lat="41.38987" lon="2.03312">
        <ele>93.2</ele>
        <time>2021-04-11 11:01:10</time>
      </trkpt>
      <trkpt lat="41.38979" lon="2.03317">
        <ele>93.2</ele>
        <time>2021-04-11 11:01:11</time>
      </trkpt>
      <trkpt lat="41.38971" lon="2.03324">
        <ele>93</ele>
        <time>2021-04-11 11:01:12</time>
      </trkpt>
      <trkpt lat="41.38964" lon="2.03328">
        <ele>93</ele>
        <time>2021-04-11 11:01:13</time>
      </trkpt>
      <trkpt lat="41.38955" lon="2.03333">
        <ele>93</ele>
        <time>2021-04-11 11:01:14</time>
      </trkpt>
      <trkpt lat="41.38946" lon="2.03337">
        <ele>93</ele>
        <time>2021-04-11 11:01:15</time>
      </trkpt>
      <trkpt lat="41.38938" lon="2.0334">
        <ele>93</ele>
        <time>2021-04-11 11:01:16</time>
      </trkpt>
      <trkpt lat="41.3893" lon="2.03344">
        <ele>93</ele>
        <time>2021-04-11 11:01:17</time>
      </trkpt>
      <trkpt lat="41.38921" lon="2.03348">
        <ele>93</ele>
        <time>2021-04-11 11:01:18</time>
      </trkpt>
      <trkpt lat="41.38914" lon="2.03352">
        <ele>93</ele>
        <time>2021-04-11 11:01:19</time>
      </trkpt>
      <trkpt lat="41.38906" lon="2.03358">
        <ele>93</ele>
        <time>2021-04-11 11:01:20</time>
      </trkpt>
      <trkpt lat="41.38899" lon="2.03362">
        <ele>92.8</ele>
        <time>2021-04-11 11:01:21</time>
      </trkpt>
      <trkpt lat="41.3889" lon="2.03368">
        <ele>92.8</ele>
        <time>2021-04-11 11:01:22</time>
      </trkpt>
      <trkpt lat="41.38882" lon="2.03374">
        <ele>92.8</ele>
        <time>2021-04-11 11:01:23</time>
      </trkpt>
      <trkpt lat="41.38874" lon="2.03381">
        <ele>92.6</ele>
        <time>2021-04-11 11:01:24</time>
      </trkpt>
      <trkpt lat="41.38866" lon="2.03388">
        <ele>92.6</ele>
        <time>2021-04-11 11:01:25</time>
      </trkpt>
      <trkpt lat="41.38857" lon="2.03393">
        <ele>92.6</ele>
        <time>2021-04-11 11:01:26</time>
      </trkpt>
      <trkpt lat="41.38849" lon="2.03399">
        <ele>92.6</ele>
        <time>2021-04-11 11:01:27</time>
      </trkpt>
      <trkpt lat="41.3884" lon="2.03404">
        <ele>92.6</ele>
        <time>2021-04-11 11:01:28</time>
      </trkpt>
      <trkpt lat="41.38831" lon="2.03408">
        <ele>92.6</ele>
        <time>2021-04-11 11:01:29</time>
      </trkpt>
      <trkpt lat="41.38824" lon="2.03412">
        <ele>92.4</ele>
        <time>2021-04-11 11:01:30</time>
      </trkpt>
      <trkpt lat="41.38816" lon="2.03415">
        <ele>92.6</ele>
        <time>2021-04-11 11:01:31</time>
      </trkpt>
      <trkpt lat="41.38806" lon="2.03419">
        <ele>92.4</ele>
        <time>2021-04-11 11:01:32</time>
      </trkpt>
      <trkpt lat="41.38797" lon="2.03424">
        <ele>92.4</ele>
        <time>2021-04-11 11:01:33</time>
      </trkpt>
      <trkpt lat="41.38788" lon="2.03428">
        <ele>92.4</ele>
        <time>2021-04-11 11:01:34</time>
      </trkpt>
      <trkpt lat="41.38779" lon="2.03433">
        <ele>92.4</ele>
        <time>2021-04-11 11:01:35</time>
      </trkpt>
      <trkpt lat="41.38771" lon="2.03438">
        <ele>92.4</ele>
        <time>2021-04-11 11:01:36</time>
      </trkpt>
      <trkpt lat="41.38761" lon="2.03443">
        <ele>92.4</ele>
        <time>2021-04-11 11:01:37</time>
      </trkpt>
      <trkpt lat="41.38752" lon="2.03448">
        <ele>92.4</ele>
        <time>2021-04-11 11:01:38</time>
      </trkpt>
      <trkpt lat="41.38744" lon="2.03453">
        <ele>92.4</ele>
        <time>2021-04-11 11:01:39</time>
      </trkpt>
      <trkpt lat="41.38735" lon="2.03457">
        <ele>92.4</ele>
        <time>2021-04-11 11:01:40</time>
      </trkpt>
      <trkpt lat="41.38728" lon="2.03462">
        <ele>92.4</ele>
        <time>2021-04-11 11:01:41</time>
      </trkpt>
      <trkpt lat="41.38718" lon="2.03467">
        <ele>92.4</ele>
        <time>2021-04-11 11:01:42</time>
      </trkpt>
      <trkpt lat="41.3871" lon="2.03474">
        <ele>92.4</ele>
        <time>2021-04-11 11:01:43</time>
      </trkpt>
      <trkpt lat="41.38702" lon="2.03478">
        <ele>92.2</ele>
        <time>2021-04-11 11:01:44</time>
      </trkpt>
      <trkpt lat="41.38695" lon="2.03483">
        <ele>92.2</ele>
        <time>2021-04-11 11:01:45</time>
      </trkpt>
      <trkpt lat="41.38687" lon="2.03487">
        <ele>92.2</ele>
        <time>2021-04-11 11:01:46</time>
      </trkpt>
      <trkpt lat="41.38677" lon="2.03492">
        <ele>92.2</ele>
        <time>2021-04-11 11:01:47</time>
      </trkpt>
      <trkpt lat="41.38668" lon="2.03497">
        <ele>92.2</ele>
        <time>2021-04-11 11:01:48</time>
      </trkpt>
      <trkpt lat="41.3866" lon="2.03504">
        <ele>92.2</ele>
        <time>2021-04-11 11:01:49</time>
      </trkpt>
      <trkpt lat="41.38652" lon="2.03511">
        <ele>92</ele>
        <time>2021-04-11 11:01:50</time>
      </trkpt>
      <trkpt lat="41.38645" lon="2.03517">
        <ele>92</ele>
        <time>2021-04-11 11:01:51</time>
      </trkpt>
      <trkpt lat="41.38636" lon="2.03523">
        <ele>92</ele>
        <time>2021-04-11 11:01:52</time>
      </trkpt>
      <trkpt lat="41.38626" lon="2.03527">
        <ele>92.2</ele>
        <time>2021-04-11 11:01:53</time>
      </trkpt>
      <trkpt lat="41.38618" lon="2.03531">
        <ele>92.2</ele>
        <time>2021-04-11 11:01:54</time>
      </trkpt>
      <trkpt lat="41.3861" lon="2.03535">
        <ele>92.2</ele>
        <time>2021-04-11 11:01:55</time>
      </trkpt>
      <trkpt lat="41.38602" lon="2.03538">
        <ele>92.2</ele>
        <time>2021-04-11 11:01:56</time>
      </trkpt>
      <trkpt lat="41.38594" lon="2.03543">
        <ele>92.4</ele>
        <time>2021-04-11 11:01:57</time>
      </trkpt>
      <trkpt lat="41.38587" lon="2.03547">
        <ele>92.4</ele>
        <time>2021-04-11 11:01:58</time>
      </trkpt>
      <trkpt lat="41.3858" lon="2.03551">
        <ele>92.4</ele>
        <time>2021-04-11 11:01:59</time>
      </trkpt>
      <trkpt lat="41.38573" lon="2.03555">
        <ele>92.4</ele>
        <time>2021-04-11 11:02:00</time>
      </trkpt>
      <trkpt lat="41.38566" lon="2.0356">
        <ele>92.6</ele>
        <time>2021-04-11 11:02:01</time>
      </trkpt>
      <trkpt lat="41.38559" lon="2.03564">
        <ele>92.6</ele>
        <time>2021-04-11 11:02:02</time>
      </trkpt>
      <trkpt lat="41.38552" lon="2.03569">
        <ele>92.6</ele>
        <time>2021-04-11 11:02:03</time>
      </trkpt>
      <trkpt lat="41.38545" lon="2.03573">
        <ele>92.6</ele>
        <time>2021-04-11 11:02:04</time>
      </trkpt>
      <trkpt lat="41.38539" lon="2.03577">
        <ele>92.6</ele>
        <time>2021-04-11 11:02:05</time>
      </trkpt>
      <trkpt lat="41.38533" lon="2.03581">
        <ele>92.8</ele>
        <time>2021-04-11 11:02:06</time>
      </trkpt>
      <trkpt lat="41.38527" lon="2.03585">
        <ele>92.8</ele>
        <time>2021-04-11 11:02:07</time>
      </trkpt>
      <trkpt lat="41.3852" lon="2.03589">
        <ele>92.8</ele>
        <time>2021-04-11 11:02:08</time>
      </trkpt>
      <trkpt lat="41.38514" lon="2.03594">
        <ele>93</ele>
        <time>2021-04-11 11:02:09</time>
      </trkpt>
      <trkpt lat="41.38509" lon="2.03597">
        <ele>93</ele>
        <time>2021-04-11 11:02:10</time>
      </trkpt>
      <trkpt lat="41.38503" lon="2.03601">
        <ele>93</ele>
        <time>2021-04-11 11:02:11</time>
      </trkpt>
      <trkpt lat="41.38498" lon="2.03604">
        <ele>93.2</ele>
        <time>2021-04-11 11:02:12</time>
      </trkpt>
      <trkpt lat="41.38493" lon="2.03608">
        <ele>93.2</ele>
        <time>2021-04-11 11:02:13</time>
      </trkpt>
      <trkpt lat="41.38488" lon="2.03611">
        <ele>93.4</ele>
        <time>2021-04-11 11:02:14</time>
      </trkpt>
      <trkpt lat="41.38483" lon="2.03614">
        <ele>93.4</ele>
        <time>2021-04-11 11:02:15</time>
      </trkpt>
      <trkpt lat="41.38479" lon="2.03618">
        <ele>93.6</ele>
        <time>2021-04-11 11:02:16</time>
      </trkpt>
      <trkpt lat="41.38476" lon="2.03621">
        <ele>93.6</ele>
        <time>2021-04-11 11:02:17</time>
      </trkpt>
      <trkpt lat="41.38472" lon="2.03623">
        <ele>93.8</ele>
        <time>2021-04-11 11:02:18</time>
      </trkpt>
      <trkpt lat="41.3847" lon="2.03625">
        <ele>93.8</ele>
        <time>2021-04-11 11:02:19</time>
      </trkpt>
      <trkpt lat="41.38467" lon="2.03628">
        <ele>94</ele>
        <time>2021-04-11 11:02:20</time>
      </trkpt>
      <trkpt lat="41.38465" lon="2.03629">
        <ele>94</ele>
        <time>2021-04-11 11:02:21</time>
      </trkpt>
      <trkpt lat="41.38464" lon="2.0363">
        <ele>94</ele>
        <time>2021-04-11 11:02:22</time>
      </trkpt>
      <trkpt lat="41.38463" lon="2.03631">
        <ele>94.2</ele>
        <time>2021-04-11 11:02:23</time>
      </trkpt>
      <trkpt lat="41.38462" lon="2.03631">
        <ele>94.2</ele>
        <time>2021-04-11 11:02:24</time>
      </trkpt>
      <trkpt lat="41.38462" lon="2.03632">
        <ele>94.2</ele>
        <time>2021-04-11 11:02:25</time>
      </trkpt>
      <trkpt lat="41.38459" lon="2.03634">
        <ele>94.4</ele>
        <time>2021-04-11 11:02:35</time>
      </trkpt>
      <trkpt lat="41.38457" lon="2.03635">
        <ele>94.4</ele>
        <time>2021-04-11 11:02:36</time>
      </trkpt>
      <trkpt lat="41.38454" lon="2.03637">
        <ele>94.4</ele>
        <time>2021-04-11 11:02:37</time>
      </trkpt>
      <trkpt lat="41.38451" lon="2.03639">
        <ele>94.2</ele>
        <time>2021-04-11 11:02:38</time>
      </trkpt>
      <trkpt lat="41.38447" lon="2.03642">
        <ele>94.2</ele>
        <time>2021-04-11 11:02:39</time>
      </trkpt>
      <trkpt lat="41.38442" lon="2.03645">
        <ele>94</ele>
        <time>2021-04-11 11:02:40</time>
      </trkpt>
      <trkpt lat="41.38436" lon="2.03647">
        <ele>93.8</ele>
        <time>2021-04-11 11:02:41</time>
      </trkpt>
      <trkpt lat="41.3843" lon="2.0365">
        <ele>93.8</ele>
        <time>2021-04-11 11:02:42</time>
      </trkpt>
      <trkpt lat="41.38422" lon="2.03653">
        <ele>93.8</ele>
        <time>2021-04-11 11:02:43</time>
      </trkpt>
      <trkpt lat="41.38416" lon="2.03655">
        <ele>93.8</ele>
        <time>2021-04-11 11:02:44</time>
      </trkpt>
      <trkpt lat="41.38409" lon="2.03658">
        <ele>94</ele>
        <time>2021-04-11 11:02:45</time>
      </trkpt>
      <trkpt lat="41.38402" lon="2.03661">
        <ele>94.4</ele>
        <time>2021-04-11 11:02:46</time>
      </trkpt>
      <trkpt lat="41.38395" lon="2.03664">
        <ele>94.8</ele>
        <time>2021-04-11 11:02:47</time>
      </trkpt>
      <trkpt lat="41.38389" lon="2.03667">
        <ele>95</ele>
        <time>2021-04-11 11:02:48</time>
      </trkpt>
      <trkpt lat="41.38383" lon="2.0367">
        <ele>95.4</ele>
        <time>2021-04-11 11:02:49</time>
      </trkpt>
      <trkpt lat="41.38377" lon="2.03672">
        <ele>95.8</ele>
        <time>2021-04-11 11:02:50</time>
      </trkpt>
      <trkpt lat="41.3837" lon="2.03675">
        <ele>96.2</ele>
        <time>2021-04-11 11:02:51</time>
      </trkpt>
      <trkpt lat="41.38364" lon="2.03678">
        <ele>96.6</ele>
        <time>2021-04-11 11:02:52</time>
      </trkpt>
      <trkpt lat="41.38359" lon="2.0368">
        <ele>97</ele>
        <time>2021-04-11 11:02:53</time>
      </trkpt>
      <trkpt lat="41.38352" lon="2.03683">
        <ele>97.4</ele>
        <time>2021-04-11 11:02:54</time>
      </trkpt>
      <trkpt lat="41.38347" lon="2.03685">
        <ele>97.6</ele>
        <time>2021-04-11 11:02:55</time>
      </trkpt>
      <trkpt lat="41.38341" lon="2.03688">
        <ele>97.6</ele>
        <time>2021-04-11 11:02:56</time>
      </trkpt>
      <trkpt lat="41.38333" lon="2.03692">
        <ele>97.4</ele>
        <time>2021-04-11 11:02:57</time>
      </trkpt>
      <trkpt lat="41.38326" lon="2.03695">
        <ele>97.2</ele>
        <time>2021-04-11 11:02:58</time>
      </trkpt>
      <trkpt lat="41.38318" lon="2.03699">
        <ele>96.8</ele>
        <time>2021-04-11 11:02:59</time>
      </trkpt>
      <trkpt lat="41.3831" lon="2.03703">
        <ele>96.6</ele>
        <time>2021-04-11 11:03:00</time>
      </trkpt>
      <trkpt lat="41.38302" lon="2.03707">
        <ele>96.2</ele>
        <time>2021-04-11 11:03:01</time>
      </trkpt>
      <trkpt lat="41.38294" lon="2.03711">
        <ele>95.8</ele>
        <time>2021-04-11 11:03:02</time>
      </trkpt>
      <trkpt lat="41.38286" lon="2.03715">
        <ele>95.4</ele>
        <time>2021-04-11 11:03:03</time>
      </trkpt>
      <trkpt lat="41.38278" lon="2.0372">
        <ele>95.2</ele>
        <time>2021-04-11 11:03:04</time>
      </trkpt>
      <trkpt lat="41.3827" lon="2.03724">
        <ele>95</ele>
        <time>2021-04-11 11:03:05</time>
      </trkpt>
      <trkpt lat="41.38262" lon="2.03729">
        <ele>94.8</ele>
        <time>2021-04-11 11:03:06</time>
      </trkpt>
      <trkpt lat="41.38254" lon="2.03733">
        <ele>94.8</ele>
        <time>2021-04-11 11:03:07</time>
      </trkpt>
      <trkpt lat="41.38247" lon="2.03738">
        <ele>94.6</ele>
        <time>2021-04-11 11:03:08</time>
      </trkpt>
      <trkpt lat="41.38239" lon="2.03742">
        <ele>94.6</ele>
        <time>2021-04-11 11:03:09</time>
      </trkpt>
      <trkpt lat="41.38231" lon="2.03746">
        <ele>94.4</ele>
        <time>2021-04-11 11:03:10</time>
      </trkpt>
      <trkpt lat="41.38224" lon="2.0375">
        <ele>94.4</ele>
        <time>2021-04-11 11:03:11</time>
      </trkpt>
      <trkpt lat="41.38216" lon="2.03755">
        <ele>94.4</ele>
        <time>2021-04-11 11:03:12</time>
      </trkpt>
      <trkpt lat="41.38208" lon="2.03759">
        <ele>94.2</ele>
        <time>2021-04-11 11:03:13</time>
      </trkpt>
      <trkpt lat="41.382" lon="2.03763">
        <ele>94.2</ele>
        <time>2021-04-11 11:03:14</time>
      </trkpt>
      <trkpt lat="41.38192" lon="2.03767">
        <ele>94.2</ele>
        <time>2021-04-11 11:03:15</time>
      </trkpt>
      <trkpt lat="41.38185" lon="2.03772">
        <ele>94.2</ele>
        <time>2021-04-11 11:03:16</time>
      </trkpt>
      <trkpt lat="41.38177" lon="2.03776">
        <ele>94</ele>
        <time>2021-04-11 11:03:17</time>
      </trkpt>
      <trkpt lat="41.38169" lon="2.0378">
        <ele>94</ele>
        <time>2021-04-11 11:03:18</time>
      </trkpt>
      <trkpt lat="41.38161" lon="2.03785">
        <ele>94</ele>
        <time>2021-04-11 11:03:19</time>
      </trkpt>
      <trkpt lat="41.38153" lon="2.03789">
        <ele>94</ele>
        <time>2021-04-11 11:03:20</time>
      </trkpt>
      <trkpt lat="41.38146" lon="2.03794">
        <ele>93.8</ele>
        <time>2021-04-11 11:03:21</time>
      </trkpt>
      <trkpt lat="41.38137" lon="2.03798">
        <ele>93.8</ele>
        <time>2021-04-11 11:03:22</time>
      </trkpt>
      <trkpt lat="41.3813" lon="2.03803">
        <ele>93.8</ele>
        <time>2021-04-11 11:03:23</time>
      </trkpt>
      <trkpt lat="41.38122" lon="2.03807">
        <ele>93.6</ele>
        <time>2021-04-11 11:03:24</time>
      </trkpt>
      <trkpt lat="41.38114" lon="2.03812">
        <ele>93.6</ele>
        <time>2021-04-11 11:03:25</time>
      </trkpt>
      <trkpt lat="41.38107" lon="2.03816">
        <ele>93.6</ele>
        <time>2021-04-11 11:03:26</time>
      </trkpt>
      <trkpt lat="41.38099" lon="2.0382">
        <ele>93.6</ele>
        <time>2021-04-11 11:03:27</time>
      </trkpt>
      <trkpt lat="41.38091" lon="2.03825">
        <ele>93.4</ele>
        <time>2021-04-11 11:03:28</time>
      </trkpt>
      <trkpt lat="41.38083" lon="2.0383">
        <ele>93.4</ele>
        <time>2021-04-11 11:03:29</time>
      </trkpt>
      <trkpt lat="41.38075" lon="2.03835">
        <ele>93.4</ele>
        <time>2021-04-11 11:03:30</time>
      </trkpt>
      <trkpt lat="41.38068" lon="2.03839">
        <ele>93.4</ele>
        <time>2021-04-11 11:03:31</time>
      </trkpt>
      <trkpt lat="41.3806" lon="2.03844">
        <ele>93.4</ele>
        <time>2021-04-11 11:03:32</time>
      </trkpt>
      <trkpt lat="41.38052" lon="2.03848">
        <ele>93.4</ele>
        <time>2021-04-11 11:03:33</time>
      </trkpt>
      <trkpt lat="41.38044" lon="2.03853">
        <ele>93.2</ele>
        <time>2021-04-11 11:03:34</time>
      </trkpt>
      <trkpt lat="41.38037" lon="2.03857">
        <ele>93.2</ele>
        <time>2021-04-11 11:03:35</time>
      </trkpt>
      <trkpt lat="41.38029" lon="2.03861">
        <ele>93.2</ele>
        <time>2021-04-11 11:03:36</time>
      </trkpt>
      <trkpt lat="41.38021" lon="2.03866">
        <ele>93.2</ele>
        <time>2021-04-11 11:03:37</time>
      </trkpt>
      <trkpt lat="41.38013" lon="2.0387">
        <ele>93</ele>
        <time>2021-04-11 11:03:38</time>
      </trkpt>
      <trkpt lat="41.38005" lon="2.03875">
        <ele>93</ele>
        <time>2021-04-11 11:03:39</time>
      </trkpt>
      <trkpt lat="41.37997" lon="2.0388">
        <ele>93</ele>
        <time>2021-04-11 11:03:40</time>
      </trkpt>
      <trkpt lat="41.37989" lon="2.03884">
        <ele>93</ele>
        <time>2021-04-11 11:03:41</time>
      </trkpt>
      <trkpt lat="41.37981" lon="2.03889">
        <ele>92.8</ele>
        <time>2021-04-11 11:03:42</time>
      </trkpt>
      <trkpt lat="41.37974" lon="2.03894">
        <ele>92.8</ele>
        <time>2021-04-11 11:03:43</time>
      </trkpt>
      <trkpt lat="41.37965" lon="2.03898">
        <ele>92.8</ele>
        <time>2021-04-11 11:03:44</time>
      </trkpt>
      <trkpt lat="41.37958" lon="2.03903">
        <ele>92.8</ele>
        <time>2021-04-11 11:03:45</time>
      </trkpt>
      <trkpt lat="41.3795" lon="2.03907">
        <ele>92.8</ele>
        <time>2021-04-11 11:03:46</time>
      </trkpt>
      <trkpt lat="41.37942" lon="2.03912">
        <ele>92.8</ele>
        <time>2021-04-11 11:03:47</time>
      </trkpt>
      <trkpt lat="41.37934" lon="2.03916">
        <ele>92.8</ele>
        <time>2021-04-11 11:03:48</time>
      </trkpt>
      <trkpt lat="41.37926" lon="2.0392">
        <ele>92.8</ele>
        <time>2021-04-11 11:03:49</time>
      </trkpt>
      <trkpt lat="41.37919" lon="2.03924">
        <ele>92.8</ele>
        <time>2021-04-11 11:03:50</time>
      </trkpt>
      <trkpt lat="41.37912" lon="2.03928">
        <ele>92.8</ele>
        <time>2021-04-11 11:03:51</time>
      </trkpt>
      <trkpt lat="41.37904" lon="2.03933">
        <ele>92.8</ele>
        <time>2021-04-11 11:03:52</time>
      </trkpt>
      <trkpt lat="41.37897" lon="2.03936">
        <ele>92.8</ele>
        <time>2021-04-11 11:03:53</time>
      </trkpt>
      <trkpt lat="41.37891" lon="2.03938">
        <ele>92.8</ele>
        <time>2021-04-11 11:03:54</time>
      </trkpt>
      <trkpt lat="41.37884" lon="2.03938">
        <ele>92.8</ele>
        <time>2021-04-11 11:03:55</time>
      </trkpt>
      <trkpt lat="41.37878" lon="2.03937">
        <ele>92.6</ele>
        <time>2021-04-11 11:03:56</time>
      </trkpt>
      <trkpt lat="41.37871" lon="2.03933">
        <ele>92.6</ele>
        <time>2021-04-11 11:03:57</time>
      </trkpt>
      <trkpt lat="41.37864" lon="2.03931">
        <ele>92.6</ele>
        <time>2021-04-11 11:03:58</time>
      </trkpt>
      <trkpt lat="41.37857" lon="2.03931">
        <ele>92.4</ele>
        <time>2021-04-11 11:03:59</time>
      </trkpt>
      <trkpt lat="41.37849" lon="2.03936">
        <ele>92.4</ele>
        <time>2021-04-11 11:04:00</time>
      </trkpt>
      <trkpt lat="41.37845" lon="2.03943">
        <ele>92.4</ele>
        <time>2021-04-11 11:04:01</time>
      </trkpt>
      <trkpt lat="41.3784" lon="2.0395">
        <ele>92.4</ele>
        <time>2021-04-11 11:04:02</time>
      </trkpt>
      <trkpt lat="41.37833" lon="2.03956">
        <ele>92.4</ele>
        <time>2021-04-11 11:04:03</time>
      </trkpt>
      <trkpt lat="41.37827" lon="2.03961">
        <ele>92.4</ele>
        <time>2021-04-11 11:04:04</time>
      </trkpt>
      <trkpt lat="41.37819" lon="2.03965">
        <ele>92.4</ele>
        <time>2021-04-11 11:04:05</time>
      </trkpt>
      <trkpt lat="41.37812" lon="2.03969">
        <ele>92.4</ele>
        <time>2021-04-11 11:04:06</time>
      </trkpt>
      <trkpt lat="41.37804" lon="2.03973">
        <ele>92.2</ele>
        <time>2021-04-11 11:04:07</time>
      </trkpt>
      <trkpt lat="41.37796" lon="2.03978">
        <ele>92.2</ele>
        <time>2021-04-11 11:04:08</time>
      </trkpt>
      <trkpt lat="41.37789" lon="2.03983">
        <ele>92.2</ele>
        <time>2021-04-11 11:04:09</time>
      </trkpt>
      <trkpt lat="41.37781" lon="2.03988">
        <ele>92</ele>
        <time>2021-04-11 11:04:10</time>
      </trkpt>
      <trkpt lat="41.37773" lon="2.03993">
        <ele>92</ele>
        <time>2021-04-11 11:04:11</time>
      </trkpt>
      <trkpt lat="41.37766" lon="2.03998">
        <ele>91.8</ele>
        <time>2021-04-11 11:04:12</time>
      </trkpt>
      <trkpt lat="41.37759" lon="2.04003">
        <ele>91.8</ele>
        <time>2021-04-11 11:04:13</time>
      </trkpt>
      <trkpt lat="41.37751" lon="2.04008">
        <ele>91.6</ele>
        <time>2021-04-11 11:04:14</time>
      </trkpt>
      <trkpt lat="41.37745" lon="2.04013">
        <ele>91.6</ele>
        <time>2021-04-11 11:04:15</time>
      </trkpt>
      <trkpt lat="41.37737" lon="2.04019">
        <ele>91.8</ele>
        <time>2021-04-11 11:04:16</time>
      </trkpt>
      <trkpt lat="41.3773" lon="2.04024">
        <ele>91.8</ele>
        <time>2021-04-11 11:04:17</time>
      </trkpt>
      <trkpt lat="41.37722" lon="2.0403">
        <ele>91.8</ele>
        <time>2021-04-11 11:04:18</time>
      </trkpt>
      <trkpt lat="41.37715" lon="2.04035">
        <ele>91.8</ele>
        <time>2021-04-11 11:04:19</time>
      </trkpt>
      <trkpt lat="41.37707" lon="2.0404">
        <ele>91.8</ele>
        <time>2021-04-11 11:04:20</time>
      </trkpt>
      <trkpt lat="41.377" lon="2.04045">
        <ele>91.8</ele>
        <time>2021-04-11 11:04:21</time>
      </trkpt>
      <trkpt lat="41.37691" lon="2.04047">
        <ele>91.8</ele>
        <time>2021-04-11 11:04:22</time>
      </trkpt>
      <trkpt lat="41.37683" lon="2.04048">
        <ele>91.8</ele>
        <time>2021-04-11 11:04:23</time>
      </trkpt>
      <trkpt lat="41.37675" lon="2.04052">
        <ele>91.8</ele>
        <time>2021-04-11 11:04:24</time>
      </trkpt>
      <trkpt lat="41.37669" lon="2.04058">
        <ele>91.6</ele>
        <time>2021-04-11 11:04:25</time>
      </trkpt>
      <trkpt lat="41.37663" lon="2.04066">
        <ele>91.6</ele>
        <time>2021-04-11 11:04:26</time>
      </trkpt>
      <trkpt lat="41.37657" lon="2.04073">
        <ele>91.6</ele>
        <time>2021-04-11 11:04:27</time>
      </trkpt>
      <trkpt lat="41.37651" lon="2.04081">
        <ele>91.8</ele>
        <time>2021-04-11 11:04:28</time>
      </trkpt>
      <trkpt lat="41.37645" lon="2.04088">
        <ele>91.8</ele>
        <time>2021-04-11 11:04:29</time>
      </trkpt>
      <trkpt lat="41.37638" lon="2.04094">
        <ele>92.2</ele>
        <time>2021-04-11 11:04:30</time>
      </trkpt>
      <trkpt lat="41.37631" lon="2.041">
        <ele>92.4</ele>
        <time>2021-04-11 11:04:31</time>
      </trkpt>
      <trkpt lat="41.37624" lon="2.04106">
        <ele>92.6</ele>
        <time>2021-04-11 11:04:32</time>
      </trkpt>
      <trkpt lat="41.37617" lon="2.04112">
        <ele>92.8</ele>
        <time>2021-04-11 11:04:33</time>
      </trkpt>
      <trkpt lat="41.3761" lon="2.04118">
        <ele>93.2</ele>
        <time>2021-04-11 11:04:34</time>
      </trkpt>
      <trkpt lat="41.37603" lon="2.04125">
        <ele>93.4</ele>
        <time>2021-04-11 11:04:35</time>
      </trkpt>
      <trkpt lat="41.37596" lon="2.04131">
        <ele>93.6</ele>
        <time>2021-04-11 11:04:36</time>
      </trkpt>
      <trkpt lat="41.37589" lon="2.04137">
        <ele>94</ele>
        <time>2021-04-11 11:04:37</time>
      </trkpt>
      <trkpt lat="41.37582" lon="2.04144">
        <ele>94.2</ele>
        <time>2021-04-11 11:04:38</time>
      </trkpt>
      <trkpt lat="41.37575" lon="2.0415">
        <ele>94.6</ele>
        <time>2021-04-11 11:04:39</time>
      </trkpt>
      <trkpt lat="41.37568" lon="2.04157">
        <ele>94.8</ele>
        <time>2021-04-11 11:04:40</time>
      </trkpt>
      <trkpt lat="41.37562" lon="2.04163">
        <ele>95.2</ele>
        <time>2021-04-11 11:04:41</time>
      </trkpt>
      <trkpt lat="41.37554" lon="2.0417">
        <ele>95.4</ele>
        <time>2021-04-11 11:04:42</time>
      </trkpt>
      <trkpt lat="41.37548" lon="2.04177">
        <ele>95.8</ele>
        <time>2021-04-11 11:04:43</time>
      </trkpt>
      <trkpt lat="41.37541" lon="2.04184">
        <ele>96</ele>
        <time>2021-04-11 11:04:44</time>
      </trkpt>
      <trkpt lat="41.37535" lon="2.04191">
        <ele>96.2</ele>
        <time>2021-04-11 11:04:45</time>
      </trkpt>
      <trkpt lat="41.37529" lon="2.04197">
        <ele>96.4</ele>
        <time>2021-04-11 11:04:46</time>
      </trkpt>
      <trkpt lat="41.37522" lon="2.04204">
        <ele>96.6</ele>
        <time>2021-04-11 11:04:47</time>
      </trkpt>
      <trkpt lat="41.37516" lon="2.0421">
        <ele>96.6</ele>
        <time>2021-04-11 11:04:48</time>
      </trkpt>
      <trkpt lat="41.3751" lon="2.04217">
        <ele>96.6</ele>
        <time>2021-04-11 11:04:49</time>
      </trkpt>
      <trkpt lat="41.37504" lon="2.04224">
        <ele>96.6</ele>
        <time>2021-04-11 11:04:50</time>
      </trkpt>
      <trkpt lat="41.37498" lon="2.0423">
        <ele>96.6</ele>
        <time>2021-04-11 11:04:51</time>
      </trkpt>
      <trkpt lat="41.37492" lon="2.04237">
        <ele>96.6</ele>
        <time>2021-04-11 11:04:52</time>
      </trkpt>
      <trkpt lat="41.37485" lon="2.04244">
        <ele>96.4</ele>
        <time>2021-04-11 11:04:53</time>
      </trkpt>
      <trkpt lat="41.3748" lon="2.04251">
        <ele>96.4</ele>
        <time>2021-04-11 11:04:54</time>
      </trkpt>
      <trkpt lat="41.37474" lon="2.04258">
        <ele>96.2</ele>
        <time>2021-04-11 11:04:55</time>
      </trkpt>
      <trkpt lat="41.37469" lon="2.04264">
        <ele>96</ele>
        <time>2021-04-11 11:04:56</time>
      </trkpt>
      <trkpt lat="41.37463" lon="2.0427">
        <ele>95.8</ele>
        <time>2021-04-11 11:04:57</time>
      </trkpt>
      <trkpt lat="41.37458" lon="2.04273">
        <ele>95.4</ele>
        <time>2021-04-11 11:04:58</time>
      </trkpt>
      <trkpt lat="41.37451" lon="2.04275">
        <ele>95.4</ele>
        <time>2021-04-11 11:04:59</time>
      </trkpt>
      <trkpt lat="41.37445" lon="2.04275">
        <ele>95.2</ele>
        <time>2021-04-11 11:05:00</time>
      </trkpt>
      <trkpt lat="41.37437" lon="2.04275">
        <ele>94.8</ele>
        <time>2021-04-11 11:05:01</time>
      </trkpt>
      <trkpt lat="41.3743" lon="2.04277">
        <ele>94.6</ele>
        <time>2021-04-11 11:05:02</time>
      </trkpt>
      <trkpt lat="41.37423" lon="2.04281">
        <ele>94.2</ele>
        <time>2021-04-11 11:05:03</time>
      </trkpt>
      <trkpt lat="41.37417" lon="2.04287">
        <ele>94</ele>
        <time>2021-04-11 11:05:04</time>
      </trkpt>
      <trkpt lat="41.37411" lon="2.04295">
        <ele>93.8</ele>
        <time>2021-04-11 11:05:05</time>
      </trkpt>
      <trkpt lat="41.37407" lon="2.04305">
        <ele>93.6</ele>
        <time>2021-04-11 11:05:06</time>
      </trkpt>
      <trkpt lat="41.37404" lon="2.04315">
        <ele>93.4</ele>
        <time>2021-04-11 11:05:07</time>
      </trkpt>
      <trkpt lat="41.37401" lon="2.04326">
        <ele>93.2</ele>
        <time>2021-04-11 11:05:08</time>
      </trkpt>
      <trkpt lat="41.37397" lon="2.04337">
        <ele>92.8</ele>
        <time>2021-04-11 11:05:09</time>
      </trkpt>
      <trkpt lat="41.37392" lon="2.04346">
        <ele>92.6</ele>
        <time>2021-04-11 11:05:10</time>
      </trkpt>
      <trkpt lat="41.37386" lon="2.04355">
        <ele>92</ele>
        <time>2021-04-11 11:05:11</time>
      </trkpt>
      <trkpt lat="41.37378" lon="2.04364">
        <ele>91.6</ele>
        <time>2021-04-11 11:05:12</time>
      </trkpt>
      <trkpt lat="41.3737" lon="2.04372">
        <ele>91</ele>
        <time>2021-04-11 11:05:13</time>
      </trkpt>
      <trkpt lat="41.37362" lon="2.04381">
        <ele>90.4</ele>
        <time>2021-04-11 11:05:14</time>
      </trkpt>
      <trkpt lat="41.37353" lon="2.04389">
        <ele>89.8</ele>
        <time>2021-04-11 11:05:15</time>
      </trkpt>
      <trkpt lat="41.37344" lon="2.04398">
        <ele>89</ele>
        <time>2021-04-11 11:05:16</time>
      </trkpt>
      <trkpt lat="41.37335" lon="2.04406">
        <ele>88.4</ele>
        <time>2021-04-11 11:05:17</time>
      </trkpt>
      <trkpt lat="41.37326" lon="2.04415">
        <ele>87.8</ele>
        <time>2021-04-11 11:05:18</time>
      </trkpt>
      <trkpt lat="41.37316" lon="2.04425">
        <ele>87.4</ele>
        <time>2021-04-11 11:05:19</time>
      </trkpt>
      <trkpt lat="41.37307" lon="2.04434">
        <ele>87</ele>
        <time>2021-04-11 11:05:20</time>
      </trkpt>
      <trkpt lat="41.37298" lon="2.04443">
        <ele>86.8</ele>
        <time>2021-04-11 11:05:21</time>
      </trkpt>
      <trkpt lat="41.37289" lon="2.04452">
        <ele>86.4</ele>
        <time>2021-04-11 11:05:22</time>
      </trkpt>
      <trkpt lat="41.37281" lon="2.04462">
        <ele>86.2</ele>
        <time>2021-04-11 11:05:23</time>
      </trkpt>
      <trkpt lat="41.37271" lon="2.0447">
        <ele>86</ele>
        <time>2021-04-11 11:05:24</time>
      </trkpt>
      <trkpt lat="41.37263" lon="2.04477">
        <ele>86</ele>
        <time>2021-04-11 11:05:25</time>
      </trkpt>
      <trkpt lat="41.37254" lon="2.04486">
        <ele>86</ele>
        <time>2021-04-11 11:05:26</time>
      </trkpt>
      <trkpt lat="41.37246" lon="2.04494">
        <ele>86.2</ele>
        <time>2021-04-11 11:05:27</time>
      </trkpt>
      <trkpt lat="41.37237" lon="2.04502">
        <ele>86.2</ele>
        <time>2021-04-11 11:05:28</time>
      </trkpt>
      <trkpt lat="41.37229" lon="2.0451">
        <ele>86.4</ele>
        <time>2021-04-11 11:05:29</time>
      </trkpt>
      <trkpt lat="41.37222" lon="2.04518">
        <ele>86.6</ele>
        <time>2021-04-11 11:05:30</time>
      </trkpt>
      <trkpt lat="41.37214" lon="2.04526">
        <ele>86.6</ele>
        <time>2021-04-11 11:05:31</time>
      </trkpt>
      <trkpt lat="41.37206" lon="2.04534">
        <ele>86.8</ele>
        <time>2021-04-11 11:05:32</time>
      </trkpt>
      <trkpt lat="41.37199" lon="2.04542">
        <ele>87</ele>
        <time>2021-04-11 11:05:33</time>
      </trkpt>
      <trkpt lat="41.37191" lon="2.0455">
        <ele>87.2</ele>
        <time>2021-04-11 11:05:34</time>
      </trkpt>
      <trkpt lat="41.37183" lon="2.04556">
        <ele>87.2</ele>
        <time>2021-04-11 11:05:35</time>
      </trkpt>
      <trkpt lat="41.37175" lon="2.04561">
        <ele>87.4</ele>
        <time>2021-04-11 11:05:36</time>
      </trkpt>
      <trkpt lat="41.37166" lon="2.04564">
        <ele>87.6</ele>
        <time>2021-04-11 11:05:37</time>
      </trkpt>
      <trkpt lat="41.37157" lon="2.04564">
        <ele>87.8</ele>
        <time>2021-04-11 11:05:38</time>
      </trkpt>
      <trkpt lat="41.37148" lon="2.04563">
        <ele>88.2</ele>
        <time>2021-04-11 11:05:39</time>
      </trkpt>
      <trkpt lat="41.37138" lon="2.04564">
        <ele>88.4</ele>
        <time>2021-04-11 11:05:40</time>
      </trkpt>
      <trkpt lat="41.37129" lon="2.04568">
        <ele>88.6</ele>
        <time>2021-04-11 11:05:41</time>
      </trkpt>
      <trkpt lat="41.37122" lon="2.04575">
        <ele>88.8</ele>
        <time>2021-04-11 11:05:42</time>
      </trkpt>
      <trkpt lat="41.37117" lon="2.04586">
        <ele>89</ele>
        <time>2021-04-11 11:05:43</time>
      </trkpt>
      <trkpt lat="41.37113" lon="2.04598">
        <ele>89.2</ele>
        <time>2021-04-11 11:05:44</time>
      </trkpt>
      <trkpt lat="41.37112" lon="2.04609">
        <ele>89.4</ele>
        <time>2021-04-11 11:05:45</time>
      </trkpt>
      <trkpt lat="41.37109" lon="2.0462">
        <ele>89.6</ele>
        <time>2021-04-11 11:05:46</time>
      </trkpt>
      <trkpt lat="41.37104" lon="2.0463">
        <ele>89.6</ele>
        <time>2021-04-11 11:05:47</time>
      </trkpt>
      <trkpt lat="41.37098" lon="2.04638">
        <ele>89.6</ele>
        <time>2021-04-11 11:05:48</time>
      </trkpt>
      <trkpt lat="41.3709" lon="2.04646">
        <ele>89.6</ele>
        <time>2021-04-11 11:05:49</time>
      </trkpt>
      <trkpt lat="41.37083" lon="2.04653">
        <ele>89.6</ele>
        <time>2021-04-11 11:05:50</time>
      </trkpt>
      <trkpt lat="41.37075" lon="2.0466">
        <ele>89.6</ele>
        <time>2021-04-11 11:05:51</time>
      </trkpt>
      <trkpt lat="41.37066" lon="2.04668">
        <ele>89.4</ele>
        <time>2021-04-11 11:05:52</time>
      </trkpt>
      <trkpt lat="41.37058" lon="2.04676">
        <ele>89.2</ele>
        <time>2021-04-11 11:05:53</time>
      </trkpt>
      <trkpt lat="41.3705" lon="2.04684">
        <ele>89</ele>
        <time>2021-04-11 11:05:54</time>
      </trkpt>
      <trkpt lat="41.37042" lon="2.04692">
        <ele>88.8</ele>
        <time>2021-04-11 11:05:55</time>
      </trkpt>
      <trkpt lat="41.37035" lon="2.047">
        <ele>88.6</ele>
        <time>2021-04-11 11:05:56</time>
      </trkpt>
      <trkpt lat="41.37027" lon="2.04707">
        <ele>88.6</ele>
        <time>2021-04-11 11:05:57</time>
      </trkpt>
      <trkpt lat="41.37019" lon="2.04715">
        <ele>88.4</ele>
        <time>2021-04-11 11:05:58</time>
      </trkpt>
      <trkpt lat="41.37011" lon="2.04723">
        <ele>88.2</ele>
        <time>2021-04-11 11:05:59</time>
      </trkpt>
      <trkpt lat="41.37003" lon="2.04731">
        <ele>88.2</ele>
        <time>2021-04-11 11:06:00</time>
      </trkpt>
      <trkpt lat="41.36996" lon="2.04738">
        <ele>88.2</ele>
        <time>2021-04-11 11:06:01</time>
      </trkpt>
      <trkpt lat="41.36988" lon="2.04745">
        <ele>88.2</ele>
        <time>2021-04-11 11:06:02</time>
      </trkpt>
      <trkpt lat="41.3698" lon="2.04752">
        <ele>88.2</ele>
        <time>2021-04-11 11:06:03</time>
      </trkpt>
      <trkpt lat="41.36972" lon="2.0476">
        <ele>88.2</ele>
        <time>2021-04-11 11:06:04</time>
      </trkpt>
      <trkpt lat="41.36964" lon="2.04768">
        <ele>88.2</ele>
        <time>2021-04-11 11:06:05</time>
      </trkpt>
      <trkpt lat="41.36957" lon="2.04775">
        <ele>88.2</ele>
        <time>2021-04-11 11:06:06</time>
      </trkpt>
      <trkpt lat="41.36949" lon="2.04783">
        <ele>88.2</ele>
        <time>2021-04-11 11:06:07</time>
      </trkpt>
      <trkpt lat="41.36941" lon="2.0479">
        <ele>88.2</ele>
        <time>2021-04-11 11:06:08</time>
      </trkpt>
      <trkpt lat="41.36933" lon="2.04798">
        <ele>88.2</ele>
        <time>2021-04-11 11:06:09</time>
      </trkpt>
      <trkpt lat="41.36926" lon="2.04806">
        <ele>88.4</ele>
        <time>2021-04-11 11:06:10</time>
      </trkpt>
      <trkpt lat="41.36918" lon="2.04813">
        <ele>88.4</ele>
        <time>2021-04-11 11:06:11</time>
      </trkpt>
      <trkpt lat="41.36911" lon="2.04821">
        <ele>88.4</ele>
        <time>2021-04-11 11:06:12</time>
      </trkpt>
      <trkpt lat="41.36903" lon="2.04828">
        <ele>88.6</ele>
        <time>2021-04-11 11:06:13</time>
      </trkpt>
      <trkpt lat="41.36895" lon="2.04835">
        <ele>88.6</ele>
        <time>2021-04-11 11:06:14</time>
      </trkpt>
      <trkpt lat="41.36888" lon="2.04842">
        <ele>88.6</ele>
        <time>2021-04-11 11:06:15</time>
      </trkpt>
      <trkpt lat="41.36881" lon="2.04848">
        <ele>88.6</ele>
        <time>2021-04-11 11:06:16</time>
      </trkpt>
      <trkpt lat="41.36873" lon="2.04856">
        <ele>88.6</ele>
        <time>2021-04-11 11:06:17</time>
      </trkpt>
      <trkpt lat="41.36866" lon="2.04863">
        <ele>88.8</ele>
        <time>2021-04-11 11:06:18</time>
      </trkpt>
      <trkpt lat="41.36859" lon="2.0487">
        <ele>88.8</ele>
        <time>2021-04-11 11:06:19</time>
      </trkpt>
      <trkpt lat="41.36852" lon="2.04877">
        <ele>88.8</ele>
        <time>2021-04-11 11:06:20</time>
      </trkpt>
      <trkpt lat="41.36845" lon="2.04884">
        <ele>88.8</ele>
        <time>2021-04-11 11:06:21</time>
      </trkpt>
      <trkpt lat="41.36838" lon="2.04891">
        <ele>89</ele>
        <time>2021-04-11 11:06:22</time>
      </trkpt>
      <trkpt lat="41.3683" lon="2.04898">
        <ele>89.2</ele>
        <time>2021-04-11 11:06:23</time>
      </trkpt>
      <trkpt lat="41.36823" lon="2.04905">
        <ele>89.2</ele>
        <time>2021-04-11 11:06:24</time>
      </trkpt>
      <trkpt lat="41.36816" lon="2.04912">
        <ele>89.2</ele>
        <time>2021-04-11 11:06:25</time>
      </trkpt>
      <trkpt lat="41.36809" lon="2.04919">
        <ele>89.4</ele>
        <time>2021-04-11 11:06:26</time>
      </trkpt>
      <trkpt lat="41.36802" lon="2.04926">
        <ele>89.4</ele>
        <time>2021-04-11 11:06:27</time>
      </trkpt>
      <trkpt lat="41.36795" lon="2.04934">
        <ele>89.6</ele>
        <time>2021-04-11 11:06:28</time>
      </trkpt>
      <trkpt lat="41.36789" lon="2.04941">
        <ele>89.6</ele>
        <time>2021-04-11 11:06:29</time>
      </trkpt>
      <trkpt lat="41.36783" lon="2.04947">
        <ele>89.8</ele>
        <time>2021-04-11 11:06:30</time>
      </trkpt>
      <trkpt lat="41.36776" lon="2.0495">
        <ele>90</ele>
        <time>2021-04-11 11:06:31</time>
      </trkpt>
      <trkpt lat="41.36769" lon="2.04951">
        <ele>90.2</ele>
        <time>2021-04-11 11:06:32</time>
      </trkpt>
      <trkpt lat="41.36763" lon="2.04952">
        <ele>90.4</ele>
        <time>2021-04-11 11:06:33</time>
      </trkpt>
      <trkpt lat="41.36756" lon="2.04954">
        <ele>90.6</ele>
        <time>2021-04-11 11:06:34</time>
      </trkpt>
      <trkpt lat="41.3675" lon="2.04958">
        <ele>90.8</ele>
        <time>2021-04-11 11:06:35</time>
      </trkpt>
      <trkpt lat="41.36745" lon="2.04964">
        <ele>91</ele>
        <time>2021-04-11 11:06:36</time>
      </trkpt>
      <trkpt lat="41.36742" lon="2.04973">
        <ele>91.2</ele>
        <time>2021-04-11 11:06:37</time>
      </trkpt>
      <trkpt lat="41.3674" lon="2.04982">
        <ele>91.4</ele>
        <time>2021-04-11 11:06:38</time>
      </trkpt>
      <trkpt lat="41.36737" lon="2.04991">
        <ele>91.4</ele>
        <time>2021-04-11 11:06:39</time>
      </trkpt>
      <trkpt lat="41.36733" lon="2.04999">
        <ele>91.4</ele>
        <time>2021-04-11 11:06:40</time>
      </trkpt>
      <trkpt lat="41.36728" lon="2.05005">
        <ele>91.4</ele>
        <time>2021-04-11 11:06:41</time>
      </trkpt>
      <trkpt lat="41.36722" lon="2.0501">
        <ele>91.2</ele>
        <time>2021-04-11 11:06:42</time>
      </trkpt>
      <trkpt lat="41.36715" lon="2.05016">
        <ele>91.2</ele>
        <time>2021-04-11 11:06:43</time>
      </trkpt>
      <trkpt lat="41.3671" lon="2.05022">
        <ele>91.2</ele>
        <time>2021-04-11 11:06:44</time>
      </trkpt>
      <trkpt lat="41.36704" lon="2.05027">
        <ele>91.2</ele>
        <time>2021-04-11 11:06:45</time>
      </trkpt>
      <trkpt lat="41.36699" lon="2.05032">
        <ele>91.2</ele>
        <time>2021-04-11 11:06:46</time>
      </trkpt>
      <trkpt lat="41.36693" lon="2.05037">
        <ele>91.2</ele>
        <time>2021-04-11 11:06:47</time>
      </trkpt>
      <trkpt lat="41.36689" lon="2.05042">
        <ele>91.4</ele>
        <time>2021-04-11 11:06:48</time>
      </trkpt>
      <trkpt lat="41.36685" lon="2.05046">
        <ele>91.4</ele>
        <time>2021-04-11 11:06:49</time>
      </trkpt>
      <trkpt lat="41.36681" lon="2.0505">
        <ele>91.2</ele>
        <time>2021-04-11 11:06:50</time>
      </trkpt>
      <trkpt lat="41.36676" lon="2.05055">
        <ele>91.2</ele>
        <time>2021-04-11 11:06:51</time>
      </trkpt>
      <trkpt lat="41.36672" lon="2.05059">
        <ele>91</ele>
        <time>2021-04-11 11:06:52</time>
      </trkpt>
      <trkpt lat="41.36667" lon="2.05065">
        <ele>91</ele>
        <time>2021-04-11 11:06:53</time>
      </trkpt>
      <trkpt lat="41.36661" lon="2.0507">
        <ele>90.8</ele>
        <time>2021-04-11 11:06:54</time>
      </trkpt>
      <trkpt lat="41.36656" lon="2.05076">
        <ele>90.6</ele>
        <time>2021-04-11 11:06:55</time>
      </trkpt>
      <trkpt lat="41.3665" lon="2.05082">
        <ele>90.4</ele>
        <time>2021-04-11 11:06:56</time>
      </trkpt>
      <trkpt lat="41.36644" lon="2.05088">
        <ele>90.4</ele>
        <time>2021-04-11 11:06:57</time>
      </trkpt>
      <trkpt lat="41.36637" lon="2.05094">
        <ele>90.2</ele>
        <time>2021-04-11 11:06:58</time>
      </trkpt>
      <trkpt lat="41.36631" lon="2.051">
        <ele>90.2</ele>
        <time>2021-04-11 11:06:59</time>
      </trkpt>
      <trkpt lat="41.36624" lon="2.05107">
        <ele>90</ele>
        <time>2021-04-11 11:07:00</time>
      </trkpt>
      <trkpt lat="41.36617" lon="2.05114">
        <ele>89.8</ele>
        <time>2021-04-11 11:07:01</time>
      </trkpt>
      <trkpt lat="41.3661" lon="2.0512">
        <ele>89.6</ele>
        <time>2021-04-11 11:07:02</time>
      </trkpt>
      <trkpt lat="41.36602" lon="2.05127">
        <ele>89.4</ele>
        <time>2021-04-11 11:07:03</time>
      </trkpt>
      <trkpt lat="41.36595" lon="2.05134">
        <ele>89.4</ele>
        <time>2021-04-11 11:07:04</time>
      </trkpt>
      <trkpt lat="41.36588" lon="2.05141">
        <ele>89.2</ele>
        <time>2021-04-11 11:07:05</time>
      </trkpt>
      <trkpt lat="41.36581" lon="2.05148">
        <ele>89</ele>
        <time>2021-04-11 11:07:06</time>
      </trkpt>
      <trkpt lat="41.36573" lon="2.05155">
        <ele>89</ele>
        <time>2021-04-11 11:07:07</time>
      </trkpt>
      <trkpt lat="41.36566" lon="2.05162">
        <ele>88.8</ele>
        <time>2021-04-11 11:07:08</time>
      </trkpt>
      <trkpt lat="41.36558" lon="2.05169">
        <ele>88.8</ele>
        <time>2021-04-11 11:07:09</time>
      </trkpt>
      <trkpt lat="41.3655" lon="2.05177">
        <ele>88.6</ele>
        <time>2021-04-11 11:07:10</time>
      </trkpt>
      <trkpt lat="41.36542" lon="2.05184">
        <ele>88.6</ele>
        <time>2021-04-11 11:07:11</time>
      </trkpt>
      <trkpt lat="41.36535" lon="2.05191">
        <ele>88.4</ele>
        <time>2021-04-11 11:07:12</time>
      </trkpt>
      <trkpt lat="41.36526" lon="2.052">
        <ele>88.2</ele>
        <time>2021-04-11 11:07:13</time>
      </trkpt>
      <trkpt lat="41.36519" lon="2.05208">
        <ele>88.2</ele>
        <time>2021-04-11 11:07:14</time>
      </trkpt>
      <trkpt lat="41.36512" lon="2.05215">
        <ele>88</ele>
        <time>2021-04-11 11:07:15</time>
      </trkpt>
      <trkpt lat="41.36504" lon="2.05222">
        <ele>88</ele>
        <time>2021-04-11 11:07:16</time>
      </trkpt>
      <trkpt lat="41.36497" lon="2.05229">
        <ele>87.8</ele>
        <time>2021-04-11 11:07:17</time>
      </trkpt>
      <trkpt lat="41.3649" lon="2.05236">
        <ele>87.6</ele>
        <time>2021-04-11 11:07:18</time>
      </trkpt>
      <trkpt lat="41.36482" lon="2.05243">
        <ele>87.6</ele>
        <time>2021-04-11 11:07:19</time>
      </trkpt>
      <trkpt lat="41.36473" lon="2.05249">
        <ele>87.6</ele>
        <time>2021-04-11 11:07:20</time>
      </trkpt>
      <trkpt lat="41.36466" lon="2.05254">
        <ele>87.4</ele>
        <time>2021-04-11 11:07:21</time>
      </trkpt>
      <trkpt lat="41.36456" lon="2.0526">
        <ele>87.4</ele>
        <time>2021-04-11 11:07:22</time>
      </trkpt>
      <trkpt lat="41.36447" lon="2.05264">
        <ele>87.2</ele>
        <time>2021-04-11 11:07:23</time>
      </trkpt>
      <trkpt lat="41.36438" lon="2.05265">
        <ele>87.2</ele>
        <time>2021-04-11 11:07:24</time>
      </trkpt>
      <trkpt lat="41.36428" lon="2.05268">
        <ele>87.2</ele>
        <time>2021-04-11 11:07:25</time>
      </trkpt>
      <trkpt lat="41.36419" lon="2.05269">
        <ele>87.2</ele>
        <time>2021-04-11 11:07:26</time>
      </trkpt>
      <trkpt lat="41.36411" lon="2.05269">
        <ele>87.4</ele>
        <time>2021-04-11 11:07:27</time>
      </trkpt>
      <trkpt lat="41.36401" lon="2.05267">
        <ele>87.4</ele>
        <time>2021-04-11 11:07:28</time>
      </trkpt>
      <trkpt lat="41.36391" lon="2.05266">
        <ele>87.6</ele>
        <time>2021-04-11 11:07:29</time>
      </trkpt>
      <trkpt lat="41.36382" lon="2.05268">
        <ele>87.6</ele>
        <time>2021-04-11 11:07:30</time>
      </trkpt>
      <trkpt lat="41.36373" lon="2.05274">
        <ele>87.8</ele>
        <time>2021-04-11 11:07:31</time>
      </trkpt>
      <trkpt lat="41.36367" lon="2.05286">
        <ele>87.8</ele>
        <time>2021-04-11 11:07:32</time>
      </trkpt>
      <trkpt lat="41.36364" lon="2.05299">
        <ele>87.8</ele>
        <time>2021-04-11 11:07:33</time>
      </trkpt>
      <trkpt lat="41.36364" lon="2.05313">
        <ele>87.8</ele>
        <time>2021-04-11 11:07:34</time>
      </trkpt>
      <trkpt lat="41.36362" lon="2.05326">
        <ele>87.8</ele>
        <time>2021-04-11 11:07:35</time>
      </trkpt>
      <trkpt lat="41.36357" lon="2.05339">
        <ele>87.6</ele>
        <time>2021-04-11 11:07:36</time>
      </trkpt>
      <trkpt lat="41.36352" lon="2.05351">
        <ele>87.4</ele>
        <time>2021-04-11 11:07:37</time>
      </trkpt>
      <trkpt lat="41.36348" lon="2.05363">
        <ele>87.2</ele>
        <time>2021-04-11 11:07:38</time>
      </trkpt>
      <trkpt lat="41.36341" lon="2.05374">
        <ele>87</ele>
        <time>2021-04-11 11:07:39</time>
      </trkpt>
      <trkpt lat="41.36334" lon="2.05384">
        <ele>87</ele>
        <time>2021-04-11 11:07:40</time>
      </trkpt>
      <trkpt lat="41.36327" lon="2.05392">
        <ele>87</ele>
        <time>2021-04-11 11:07:41</time>
      </trkpt>
      <trkpt lat="41.36319" lon="2.054">
        <ele>87</ele>
        <time>2021-04-11 11:07:42</time>
      </trkpt>
      <trkpt lat="41.36311" lon="2.05407">
        <ele>87.2</ele>
        <time>2021-04-11 11:07:43</time>
      </trkpt>
      <trkpt lat="41.36303" lon="2.05414">
        <ele>87.2</ele>
        <time>2021-04-11 11:07:44</time>
      </trkpt>
      <trkpt lat="41.36296" lon="2.05421">
        <ele>87.2</ele>
        <time>2021-04-11 11:07:45</time>
      </trkpt>
      <trkpt lat="41.36287" lon="2.05431">
        <ele>87.4</ele>
        <time>2021-04-11 11:07:46</time>
      </trkpt>
      <trkpt lat="41.36279" lon="2.05439">
        <ele>87.4</ele>
        <time>2021-04-11 11:07:47</time>
      </trkpt>
      <trkpt lat="41.36271" lon="2.05445">
        <ele>87.6</ele>
        <time>2021-04-11 11:07:48</time>
      </trkpt>
      <trkpt lat="41.36263" lon="2.05451">
        <ele>87.6</ele>
        <time>2021-04-11 11:07:49</time>
      </trkpt>
      <trkpt lat="41.36256" lon="2.05458">
        <ele>87.6</ele>
        <time>2021-04-11 11:07:50</time>
      </trkpt>
      <trkpt lat="41.36248" lon="2.05466">
        <ele>87.8</ele>
        <time>2021-04-11 11:07:51</time>
      </trkpt>
      <trkpt lat="41.36241" lon="2.05474">
        <ele>87.8</ele>
        <time>2021-04-11 11:07:52</time>
      </trkpt>
      <trkpt lat="41.36233" lon="2.05481">
        <ele>88</ele>
        <time>2021-04-11 11:07:53</time>
      </trkpt>
      <trkpt lat="41.36225" lon="2.05487">
        <ele>88</ele>
        <time>2021-04-11 11:07:54</time>
      </trkpt>
      <trkpt lat="41.36217" lon="2.05494">
        <ele>88</ele>
        <time>2021-04-11 11:07:55</time>
      </trkpt>
      <trkpt lat="41.36209" lon="2.05502">
        <ele>88</ele>
        <time>2021-04-11 11:07:56</time>
      </trkpt>
      <trkpt lat="41.36202" lon="2.05509">
        <ele>88.2</ele>
        <time>2021-04-11 11:07:57</time>
      </trkpt>
      <trkpt lat="41.36195" lon="2.05516">
        <ele>88.2</ele>
        <time>2021-04-11 11:07:58</time>
      </trkpt>
      <trkpt lat="41.36188" lon="2.05523">
        <ele>88.4</ele>
        <time>2021-04-11 11:07:59</time>
      </trkpt>
      <trkpt lat="41.36181" lon="2.05529">
        <ele>88.6</ele>
        <time>2021-04-11 11:08:00</time>
      </trkpt>
      <trkpt lat="41.36174" lon="2.05536">
        <ele>88.8</ele>
        <time>2021-04-11 11:08:01</time>
      </trkpt>
      <trkpt lat="41.36168" lon="2.05542">
        <ele>89</ele>
        <time>2021-04-11 11:08:02</time>
      </trkpt>
      <trkpt lat="41.36162" lon="2.05548">
        <ele>89</ele>
        <time>2021-04-11 11:08:03</time>
      </trkpt>
      <trkpt lat="41.36154" lon="2.05552">
        <ele>89.2</ele>
        <time>2021-04-11 11:08:04</time>
      </trkpt>
      <trkpt lat="41.36147" lon="2.05554">
        <ele>89.2</ele>
        <time>2021-04-11 11:08:05</time>
      </trkpt>
      <trkpt lat="41.36139" lon="2.05555">
        <ele>89.4</ele>
        <time>2021-04-11 11:08:06</time>
      </trkpt>
      <trkpt lat="41.36132" lon="2.05555">
        <ele>89.6</ele>
        <time>2021-04-11 11:08:07</time>
      </trkpt>
      <trkpt lat="41.36125" lon="2.05553">
        <ele>89.6</ele>
        <time>2021-04-11 11:08:08</time>
      </trkpt>
      <trkpt lat="41.36118" lon="2.05552">
        <ele>89.8</ele>
        <time>2021-04-11 11:08:09</time>
      </trkpt>
      <trkpt lat="41.36111" lon="2.05552">
        <ele>89.8</ele>
        <time>2021-04-11 11:08:10</time>
      </trkpt>
      <trkpt lat="41.36104" lon="2.05554">
        <ele>89.8</ele>
        <time>2021-04-11 11:08:11</time>
      </trkpt>
      <trkpt lat="41.36097" lon="2.05557">
        <ele>89.8</ele>
        <time>2021-04-11 11:08:12</time>
      </trkpt>
      <trkpt lat="41.36092" lon="2.05562">
        <ele>89.8</ele>
        <time>2021-04-11 11:08:13</time>
      </trkpt>
      <trkpt lat="41.36086" lon="2.05569">
        <ele>90</ele>
        <time>2021-04-11 11:08:14</time>
      </trkpt>
      <trkpt lat="41.36082" lon="2.05577">
        <ele>90</ele>
        <time>2021-04-11 11:08:15</time>
      </trkpt>
      <trkpt lat="41.3608" lon="2.05586">
        <ele>90</ele>
        <time>2021-04-11 11:08:16</time>
      </trkpt>
      <trkpt lat="41.36079" lon="2.05596">
        <ele>89.8</ele>
        <time>2021-04-11 11:08:17</time>
      </trkpt>
      <trkpt lat="41.3608" lon="2.05606">
        <ele>89.8</ele>
        <time>2021-04-11 11:08:18</time>
      </trkpt>
      <trkpt lat="41.36082" lon="2.05615">
        <ele>89.6</ele>
        <time>2021-04-11 11:08:19</time>
      </trkpt>
      <trkpt lat="41.36087" lon="2.05623">
        <ele>89.6</ele>
        <time>2021-04-11 11:08:20</time>
      </trkpt>
      <trkpt lat="41.36092" lon="2.05629">
        <ele>89.6</ele>
        <time>2021-04-11 11:08:21</time>
      </trkpt>
      <trkpt lat="41.36098" lon="2.05635">
        <ele>89.4</ele>
        <time>2021-04-11 11:08:22</time>
      </trkpt>
      <trkpt lat="41.36105" lon="2.05638">
        <ele>89.4</ele>
        <time>2021-04-11 11:08:23</time>
      </trkpt>
      <trkpt lat="41.36112" lon="2.05639">
        <ele>89.4</ele>
        <time>2021-04-11 11:08:24</time>
      </trkpt>
      <trkpt lat="41.3612" lon="2.05639">
        <ele>89.4</ele>
        <time>2021-04-11 11:08:25</time>
      </trkpt>
      <trkpt lat="41.36127" lon="2.05638">
        <ele>89.4</ele>
        <time>2021-04-11 11:08:26</time>
      </trkpt>
      <trkpt lat="41.36134" lon="2.05638">
        <ele>89.4</ele>
        <time>2021-04-11 11:08:27</time>
      </trkpt>
      <trkpt lat="41.36142" lon="2.05639">
        <ele>89.4</ele>
        <time>2021-04-11 11:08:28</time>
      </trkpt>
      <trkpt lat="41.36148" lon="2.05643">
        <ele>89.4</ele>
        <time>2021-04-11 11:08:29</time>
      </trkpt>
      <trkpt lat="41.36154" lon="2.0565">
        <ele>89.4</ele>
        <time>2021-04-11 11:08:30</time>
      </trkpt>
      <trkpt lat="41.36159" lon="2.05658">
        <ele>89.4</ele>
        <time>2021-04-11 11:08:31</time>
      </trkpt>
      <trkpt lat="41.36164" lon="2.05666">
        <ele>89.4</ele>
        <time>2021-04-11 11:08:32</time>
      </trkpt>
      <trkpt lat="41.36169" lon="2.05674">
        <ele>89.4</ele>
        <time>2021-04-11 11:08:33</time>
      </trkpt>
      <trkpt lat="41.36174" lon="2.05682">
        <ele>89.2</ele>
        <time>2021-04-11 11:08:34</time>
      </trkpt>
      <trkpt lat="41.36179" lon="2.0569">
        <ele>89</ele>
        <time>2021-04-11 11:08:35</time>
      </trkpt>
      <trkpt lat="41.36184" lon="2.05698">
        <ele>89</ele>
        <time>2021-04-11 11:08:36</time>
      </trkpt>
      <trkpt lat="41.3619" lon="2.05706">
        <ele>88.8</ele>
        <time>2021-04-11 11:08:37</time>
      </trkpt>
      <trkpt lat="41.36194" lon="2.05714">
        <ele>88.6</ele>
        <time>2021-04-11 11:08:38</time>
      </trkpt>
      <trkpt lat="41.36197" lon="2.05723">
        <ele>88.4</ele>
        <time>2021-04-11 11:08:39</time>
      </trkpt>
      <trkpt lat="41.36198" lon="2.05733">
        <ele>88.2</ele>
        <time>2021-04-11 11:08:40</time>
      </trkpt>
      <trkpt lat="41.362" lon="2.05743">
        <ele>87.8</ele>
        <time>2021-04-11 11:08:41</time>
      </trkpt>
      <trkpt lat="41.36203" lon="2.05751">
        <ele>87.8</ele>
        <time>2021-04-11 11:08:42</time>
      </trkpt>
      <trkpt lat="41.3621" lon="2.05756">
        <ele>87.6</ele>
        <time>2021-04-11 11:08:43</time>
      </trkpt>
      <trkpt lat="41.36217" lon="2.0576">
        <ele>87.6</ele>
        <time>2021-04-11 11:08:44</time>
      </trkpt>
      <trkpt lat="41.36223" lon="2.05765">
        <ele>87.8</ele>
        <time>2021-04-11 11:08:45</time>
      </trkpt>
      <trkpt lat="41.36229" lon="2.05771">
        <ele>88</ele>
        <time>2021-04-11 11:08:46</time>
      </trkpt>
      <trkpt lat="41.36234" lon="2.05777">
        <ele>88.2</ele>
        <time>2021-04-11 11:08:47</time>
      </trkpt>
      <trkpt lat="41.3624" lon="2.05783">
        <ele>88.2</ele>
        <time>2021-04-11 11:08:48</time>
      </trkpt>
      <trkpt lat="41.36245" lon="2.05788">
        <ele>88.4</ele>
        <time>2021-04-11 11:08:49</time>
      </trkpt>
      <trkpt lat="41.36251" lon="2.05793">
        <ele>88.6</ele>
        <time>2021-04-11 11:08:50</time>
      </trkpt>
      <trkpt lat="41.36258" lon="2.05798">
        <ele>88.6</ele>
        <time>2021-04-11 11:08:51</time>
      </trkpt>
      <trkpt lat="41.36264" lon="2.05802">
        <ele>88.8</ele>
        <time>2021-04-11 11:08:52</time>
      </trkpt>
      <trkpt lat="41.36271" lon="2.05805">
        <ele>88.8</ele>
        <time>2021-04-11 11:08:53</time>
      </trkpt>
      <trkpt lat="41.36277" lon="2.05808">
        <ele>89</ele>
        <time>2021-04-11 11:08:54</time>
      </trkpt>
      <trkpt lat="41.36284" lon="2.0581">
        <ele>89</ele>
        <time>2021-04-11 11:08:55</time>
      </trkpt>
      <trkpt lat="41.36291" lon="2.05812">
        <ele>89.2</ele>
        <time>2021-04-11 11:08:56</time>
      </trkpt>
      <trkpt lat="41.36298" lon="2.05813">
        <ele>89.4</ele>
        <time>2021-04-11 11:08:57</time>
      </trkpt>
      <trkpt lat="41.36305" lon="2.05814">
        <ele>89.6</ele>
        <time>2021-04-11 11:08:58</time>
      </trkpt>
      <trkpt lat="41.36312" lon="2.05816">
        <ele>89.6</ele>
        <time>2021-04-11 11:08:59</time>
      </trkpt>
      <trkpt lat="41.36319" lon="2.05817">
        <ele>89.8</ele>
        <time>2021-04-11 11:09:00</time>
      </trkpt>
      <trkpt lat="41.36325" lon="2.05819">
        <ele>89.8</ele>
        <time>2021-04-11 11:09:01</time>
      </trkpt>
      <trkpt lat="41.36332" lon="2.05821">
        <ele>90</ele>
        <time>2021-04-11 11:09:02</time>
      </trkpt>
      <trkpt lat="41.36338" lon="2.05823">
        <ele>90</ele>
        <time>2021-04-11 11:09:03</time>
      </trkpt>
      <trkpt lat="41.36343" lon="2.05825">
        <ele>90</ele>
        <time>2021-04-11 11:09:04</time>
      </trkpt>
      <trkpt lat="41.36348" lon="2.05826">
        <ele>90</ele>
        <time>2021-04-11 11:09:05</time>
      </trkpt>
      <trkpt lat="41.36352" lon="2.05827">
        <ele>90.2</ele>
        <time>2021-04-11 11:09:06</time>
      </trkpt>
      <trkpt lat="41.36355" lon="2.05825">
        <ele>90.2</ele>
        <time>2021-04-11 11:09:07</time>
      </trkpt>
      <trkpt lat="41.36357" lon="2.05823">
        <ele>90.2</ele>
        <time>2021-04-11 11:09:08</time>
      </trkpt>
      <trkpt lat="41.36359" lon="2.05821">
        <ele>90.4</ele>
        <time>2021-04-11 11:09:09</time>
      </trkpt>
      <trkpt lat="41.36361" lon="2.0582">
        <ele>90.4</ele>
        <time>2021-04-11 11:09:10</time>
      </trkpt>
      <trkpt lat="41.36362" lon="2.0582">
        <ele>90.6</ele>
        <time>2021-04-11 11:09:11</time>
      </trkpt>
      <trkpt lat="41.36364" lon="2.0582">
        <ele>90.6</ele>
        <time>2021-04-11 11:09:12</time>
      </trkpt>
      <trkpt lat="41.36366" lon="2.05819">
        <ele>90.6</ele>
        <time>2021-04-11 11:09:13</time>
      </trkpt>
    </trkseg>
  </trk>
</gpx>
